<?xml version="1.0" encoding="utf-8"?>
<gpx xmlns:xsi="http://www.w3.org/2001/XMLSchema-instance" xmlns:xsd="http://www.w3.org/2001/XMLSchema" version="1.1" creator="Shapelink.com" xmlns="http://www.topografix.com/GPX/1/1" xmlns:gpxtpx="http://www.garmin.com/xmlschemas/TrackPointExtension/v1">
  <metadata>
    <name>Cykling 165.21 km, 2014-05-03</name>
    <desc></desc>
    <author><name>Alexander Engvall</name></author> 
    <time>2014-05-03T09:16:31Z</time>
  </metadata>
  <trk>
    <name>Cykling 165.21 km, 2014-05-03</name>
    <trkseg>
      <trkpt lat="39.900649924844" lon="3.076215051291">
        <ele>8</ele>
        <time>2014-05-03T09:16:31Z</time>
      </trkpt>
      <trkpt lat="39.900592760286" lon="3.076220834802">
        <ele>8</ele>
        <time>2014-05-03T09:16:33Z</time>
      </trkpt>
      <trkpt lat="39.900558562134" lon="3.076219912793">
        <ele>8</ele>
        <time>2014-05-03T09:16:34Z</time>
      </trkpt>
      <trkpt lat="39.900530901864" lon="3.07621345873">
        <ele>8</ele>
        <time>2014-05-03T09:16:35Z</time>
      </trkpt>
      <trkpt lat="39.900466947967" lon="3.076217482042">
        <ele>8</ele>
        <time>2014-05-03T09:16:37Z</time>
      </trkpt>
      <trkpt lat="39.900399976586" lon="3.076207842857">
        <ele>8</ele>
        <time>2014-05-03T09:16:39Z</time>
      </trkpt>
      <trkpt lat="39.900225130152" lon="3.076190492324">
        <ele>8</ele>
        <time>2014-05-03T09:16:43Z</time>
      </trkpt>
      <trkpt lat="39.900128570664" lon="3.076171130135">
        <ele>8</ele>
        <time>2014-05-03T09:16:45Z</time>
      </trkpt>
      <trkpt lat="39.900030670072" lon="3.07616652009">
        <ele>8</ele>
        <time>2014-05-03T09:16:47Z</time>
      </trkpt>
      <trkpt lat="39.899939139724" lon="3.07614472715">
        <ele>8</ele>
        <time>2014-05-03T09:16:49Z</time>
      </trkpt>
      <trkpt lat="39.899900582984" lon="3.076117988889">
        <ele>8</ele>
        <time>2014-05-03T09:16:50Z</time>
      </trkpt>
      <trkpt lat="39.899863032072" lon="3.076058896494">
        <ele>8</ele>
        <time>2014-05-03T09:16:53Z</time>
      </trkpt>
      <trkpt lat="39.899861355692" lon="3.075905340086">
        <ele>8</ele>
        <time>2014-05-03T09:16:56Z</time>
      </trkpt>
      <trkpt lat="39.89986487609" lon="3.075854294315">
        <ele>8</ele>
        <time>2014-05-03T09:16:57Z</time>
      </trkpt>
      <trkpt lat="39.899888848324" lon="3.075607782636">
        <ele>8</ele>
        <time>2014-05-03T09:17:01Z</time>
      </trkpt>
      <trkpt lat="39.899897481681" lon="3.07545741135">
        <ele>8</ele>
        <time>2014-05-03T09:17:03Z</time>
      </trkpt>
      <trkpt lat="39.899908042875" lon="3.075310811919">
        <ele>8</ele>
        <time>2014-05-03T09:17:05Z</time>
      </trkpt>
      <trkpt lat="39.899907539961" lon="3.075237470294">
        <ele>8</ele>
        <time>2014-05-03T09:17:06Z</time>
      </trkpt>
      <trkpt lat="39.899920364268" lon="3.075040495644">
        <ele>8</ele>
        <time>2014-05-03T09:17:09Z</time>
      </trkpt>
      <trkpt lat="39.899930087272" lon="3.074832792162">
        <ele>8</ele>
        <time>2014-05-03T09:17:12Z</time>
      </trkpt>
      <trkpt lat="39.899945677606" lon="3.07447505267">
        <ele>8</ele>
        <time>2014-05-03T09:17:17Z</time>
      </trkpt>
      <trkpt lat="39.899953556592" lon="3.074409841488">
        <ele>8</ele>
        <time>2014-05-03T09:17:18Z</time>
      </trkpt>
      <trkpt lat="39.899949030366" lon="3.074131813865">
        <ele>8</ele>
        <time>2014-05-03T09:17:23Z</time>
      </trkpt>
      <trkpt lat="39.899877784216" lon="3.074071212728">
        <ele>8</ele>
        <time>2014-05-03T09:17:25Z</time>
      </trkpt>
      <trkpt lat="39.899835287983" lon="3.07406517776">
        <ele>8</ele>
        <time>2014-05-03T09:17:26Z</time>
      </trkpt>
      <trkpt lat="39.899672511485" lon="3.074063836656">
        <ele>8</ele>
        <time>2014-05-03T09:17:30Z</time>
      </trkpt>
      <trkpt lat="39.899577125463" lon="3.073982532226">
        <ele>8</ele>
        <time>2014-05-03T09:17:33Z</time>
      </trkpt>
      <trkpt lat="39.899536557067" lon="3.073939365441">
        <ele>8</ele>
        <time>2014-05-03T09:17:34Z</time>
      </trkpt>
      <trkpt lat="39.899461119967" lon="3.073841129573">
        <ele>8</ele>
        <time>2014-05-03T09:17:37Z</time>
      </trkpt>
      <trkpt lat="39.899455504094" lon="3.073746162646">
        <ele>8.4</ele>
        <time>2014-05-03T09:17:39Z</time>
      </trkpt>
      <trkpt lat="39.899457012836" lon="3.073707438268">
        <ele>8.8</ele>
        <time>2014-05-03T09:17:40Z</time>
      </trkpt>
      <trkpt lat="39.899459359768" lon="3.073684220405">
        <ele>9.2</ele>
        <time>2014-05-03T09:17:41Z</time>
      </trkpt>
      <trkpt lat="39.899458689216" lon="3.07367206665">
        <ele>9.6</ele>
        <time>2014-05-03T09:17:42Z</time>
      </trkpt>
      <trkpt lat="39.899461622881" lon="3.073660164352">
        <ele>10</ele>
        <time>2014-05-03T09:17:43Z</time>
      </trkpt>
      <trkpt lat="39.899457348112" lon="3.073645831303">
        <ele>10</ele>
        <time>2014-05-03T09:17:44Z</time>
      </trkpt>
      <trkpt lat="39.89940806254" lon="3.073587158003">
        <ele>10</ele>
        <time>2014-05-03T09:17:46Z</time>
      </trkpt>
      <trkpt lat="39.899320387866" lon="3.073564191597">
        <ele>10</ele>
        <time>2014-05-03T09:17:48Z</time>
      </trkpt>
      <trkpt lat="39.899179152851" lon="3.073553127489">
        <ele>10</ele>
        <time>2014-05-03T09:17:51Z</time>
      </trkpt>
      <trkpt lat="39.898820156074" lon="3.073516247129">
        <ele>10</ele>
        <time>2014-05-03T09:17:58Z</time>
      </trkpt>
      <trkpt lat="39.898539865338" lon="3.073505602116">
        <ele>10</ele>
        <time>2014-05-03T09:18:03Z</time>
      </trkpt>
      <trkpt lat="39.898025719592" lon="3.07349017942">
        <ele>10</ele>
        <time>2014-05-03T09:18:12Z</time>
      </trkpt>
      <trkpt lat="39.897600757262" lon="3.073484815004">
        <ele>10</ele>
        <time>2014-05-03T09:18:19Z</time>
      </trkpt>
      <trkpt lat="39.897470837812" lon="3.073491352886">
        <ele>10</ele>
        <time>2014-05-03T09:18:21Z</time>
      </trkpt>
      <trkpt lat="39.897294482636" lon="3.073508032867">
        <ele>10</ele>
        <time>2014-05-03T09:18:24Z</time>
      </trkpt>
      <trkpt lat="39.896882009337" lon="3.073525551038">
        <ele>10</ele>
        <time>2014-05-03T09:18:31Z</time>
      </trkpt>
      <trkpt lat="39.896430727841" lon="3.073560755018">
        <ele>10</ele>
        <time>2014-05-03T09:18:38Z</time>
      </trkpt>
      <trkpt lat="39.896302317133" lon="3.073556647887">
        <ele>10</ele>
        <time>2014-05-03T09:18:40Z</time>
      </trkpt>
      <trkpt lat="39.896187652741" lon="3.073510715075">
        <ele>10</ele>
        <time>2014-05-03T09:18:42Z</time>
      </trkpt>
      <trkpt lat="39.896083801" lon="3.073450449214">
        <ele>10</ele>
        <time>2014-05-03T09:18:44Z</time>
      </trkpt>
      <trkpt lat="39.895962850183" lon="3.07344491716">
        <ele>10</ele>
        <time>2014-05-03T09:18:46Z</time>
      </trkpt>
      <trkpt lat="39.895796218011" lon="3.073555390602">
        <ele>10</ele>
        <time>2014-05-03T09:18:49Z</time>
      </trkpt>
      <trkpt lat="39.895739053453" lon="3.073593025333">
        <ele>10</ele>
        <time>2014-05-03T09:18:50Z</time>
      </trkpt>
      <trkpt lat="39.89567392609" lon="3.073614818273">
        <ele>9.6</ele>
        <time>2014-05-03T09:18:51Z</time>
      </trkpt>
      <trkpt lat="39.895602763759" lon="3.073607190744">
        <ele>9</ele>
        <time>2014-05-03T09:18:52Z</time>
      </trkpt>
      <trkpt lat="39.895541743527" lon="3.073607609839">
        <ele>8.6</ele>
        <time>2014-05-03T09:18:53Z</time>
      </trkpt>
      <trkpt lat="39.895481393847" lon="3.073610962599">
        <ele>8.2</ele>
        <time>2014-05-03T09:18:54Z</time>
      </trkpt>
      <trkpt lat="39.895421211805" lon="3.073614147721">
        <ele>7.8</ele>
        <time>2014-05-03T09:18:55Z</time>
      </trkpt>
      <trkpt lat="39.894989627774" lon="3.073624373639">
        <ele>7.8</ele>
        <time>2014-05-03T09:19:02Z</time>
      </trkpt>
      <trkpt lat="39.894733560729" lon="3.073626552933">
        <ele>7.8</ele>
        <time>2014-05-03T09:19:06Z</time>
      </trkpt>
      <trkpt lat="39.894465591386" lon="3.073632336444">
        <ele>7.8</ele>
        <time>2014-05-03T09:19:10Z</time>
      </trkpt>
      <trkpt lat="39.894264006691" lon="3.07363183353">
        <ele>7.8</ele>
        <time>2014-05-03T09:19:13Z</time>
      </trkpt>
      <trkpt lat="39.893857987455" lon="3.073637030308">
        <ele>7.8</ele>
        <time>2014-05-03T09:19:19Z</time>
      </trkpt>
      <trkpt lat="39.893563447489" lon="3.073640131611">
        <ele>7.8</ele>
        <time>2014-05-03T09:19:23Z</time>
      </trkpt>
      <trkpt lat="39.893158936995" lon="3.073643484371">
        <ele>7.8</ele>
        <time>2014-05-03T09:19:29Z</time>
      </trkpt>
      <trkpt lat="39.892961794707" lon="3.073645496027">
        <ele>7.8</ele>
        <time>2014-05-03T09:19:32Z</time>
      </trkpt>
      <trkpt lat="39.892576562583" lon="3.073648764968">
        <ele>7.8</ele>
        <time>2014-05-03T09:19:38Z</time>
      </trkpt>
      <trkpt lat="39.891991170687" lon="3.073656476316">
        <ele>7.8</ele>
        <time>2014-05-03T09:19:47Z</time>
      </trkpt>
      <trkpt lat="39.891742563533" lon="3.073662511284">
        <ele>7.8</ele>
        <time>2014-05-03T09:19:51Z</time>
      </trkpt>
      <trkpt lat="39.891490603619" lon="3.073666031682">
        <ele>7.8</ele>
        <time>2014-05-03T09:19:55Z</time>
      </trkpt>
      <trkpt lat="39.891067401488" lon="3.07366955208">
        <ele>7.8</ele>
        <time>2014-05-03T09:20:02Z</time>
      </trkpt>
      <trkpt lat="39.890942511178" lon="3.073670809365">
        <ele>8.2</ele>
        <time>2014-05-03T09:20:04Z</time>
      </trkpt>
      <trkpt lat="39.89088199386" lon="3.073667121329">
        <ele>8.6</ele>
        <time>2014-05-03T09:20:05Z</time>
      </trkpt>
      <trkpt lat="39.890822398551" lon="3.073658823248">
        <ele>9</ele>
        <time>2014-05-03T09:20:06Z</time>
      </trkpt>
      <trkpt lat="39.890764395803" lon="3.07364692095">
        <ele>9.4</ele>
        <time>2014-05-03T09:20:07Z</time>
      </trkpt>
      <trkpt lat="39.890706728331" lon="3.073627726399">
        <ele>9.8</ele>
        <time>2014-05-03T09:20:08Z</time>
      </trkpt>
      <trkpt lat="39.890649899049" lon="3.073602329242">
        <ele>9.8</ele>
        <time>2014-05-03T09:20:09Z</time>
      </trkpt>
      <trkpt lat="39.8903757271" lon="3.073433350138">
        <ele>9.8</ele>
        <time>2014-05-03T09:20:14Z</time>
      </trkpt>
      <trkpt lat="39.89020725091" lon="3.073332180605">
        <ele>9.8</ele>
        <time>2014-05-03T09:20:17Z</time>
      </trkpt>
      <trkpt lat="39.890104237359" lon="3.073238973877">
        <ele>9.8</ele>
        <time>2014-05-03T09:20:19Z</time>
      </trkpt>
      <trkpt lat="39.889897036791" lon="3.073037975915">
        <ele>9.8</ele>
        <time>2014-05-03T09:20:23Z</time>
      </trkpt>
      <trkpt lat="39.88977558306" lon="3.07295289963">
        <ele>9.8</ele>
        <time>2014-05-03T09:20:25Z</time>
      </trkpt>
      <trkpt lat="39.889360092277" lon="3.072644864805">
        <ele>9.8</ele>
        <time>2014-05-03T09:20:32Z</time>
      </trkpt>
      <trkpt lat="39.88909162002" lon="3.072375554358">
        <ele>9.8</ele>
        <time>2014-05-03T09:20:37Z</time>
      </trkpt>
      <trkpt lat="39.888999335301" lon="3.072259297405">
        <ele>9.8</ele>
        <time>2014-05-03T09:20:39Z</time>
      </trkpt>
      <trkpt lat="39.888867655652" lon="3.072073135406">
        <ele>9.8</ele>
        <time>2014-05-03T09:20:42Z</time>
      </trkpt>
      <trkpt lat="39.888702867498" lon="3.071813296506">
        <ele>9.8</ele>
        <time>2014-05-03T09:20:46Z</time>
      </trkpt>
      <trkpt lat="39.888484183727" lon="3.071435105178">
        <ele>9.8</ele>
        <time>2014-05-03T09:20:52Z</time>
      </trkpt>
      <trkpt lat="39.888221997895" lon="3.070966892244">
        <ele>9.8</ele>
        <time>2014-05-03T09:20:59Z</time>
      </trkpt>
      <trkpt lat="39.888116050679" lon="3.07077695839">
        <ele>9.8</ele>
        <time>2014-05-03T09:21:02Z</time>
      </trkpt>
      <trkpt lat="39.887971379085" lon="3.07051460492">
        <ele>9.8</ele>
        <time>2014-05-03T09:21:06Z</time>
      </trkpt>
      <trkpt lat="39.887899210926" lon="3.070384769289">
        <ele>9.8</ele>
        <time>2014-05-03T09:21:08Z</time>
      </trkpt>
      <trkpt lat="39.887826958948" lon="3.070252586726">
        <ele>10.6</ele>
        <time>2014-05-03T09:21:10Z</time>
      </trkpt>
      <trkpt lat="39.887786222914" lon="3.070184777155">
        <ele>11</ele>
        <time>2014-05-03T09:21:11Z</time>
      </trkpt>
      <trkpt lat="39.887747414717" lon="3.070120152706">
        <ele>11.4</ele>
        <time>2014-05-03T09:21:12Z</time>
      </trkpt>
      <trkpt lat="39.887711456366" lon="3.070054103334">
        <ele>11.8</ele>
        <time>2014-05-03T09:21:13Z</time>
      </trkpt>
      <trkpt lat="39.887455556959" lon="3.06958924316">
        <ele>11.8</ele>
        <time>2014-05-03T09:21:20Z</time>
      </trkpt>
      <trkpt lat="39.887112988706" lon="3.068985578722">
        <ele>11.8</ele>
        <time>2014-05-03T09:21:29Z</time>
      </trkpt>
      <trkpt lat="39.887074348147" lon="3.068917936789">
        <ele>11.8</ele>
        <time>2014-05-03T09:21:30Z</time>
      </trkpt>
      <trkpt lat="39.886811910858" lon="3.068467661121">
        <ele>11.8</ele>
        <time>2014-05-03T09:21:37Z</time>
      </trkpt>
      <trkpt lat="39.88651502396" lon="3.067941110163">
        <ele>11.8</ele>
        <time>2014-05-03T09:21:45Z</time>
      </trkpt>
      <trkpt lat="39.886333388187" lon="3.067609689837">
        <ele>12.2</ele>
        <time>2014-05-03T09:21:50Z</time>
      </trkpt>
      <trkpt lat="39.886297513655" lon="3.067541964085">
        <ele>12.6</ele>
        <time>2014-05-03T09:21:51Z</time>
      </trkpt>
      <trkpt lat="39.886262225856" lon="3.067474992704">
        <ele>13</ele>
        <time>2014-05-03T09:21:52Z</time>
      </trkpt>
      <trkpt lat="39.886227943885" lon="3.067411960816">
        <ele>13.4</ele>
        <time>2014-05-03T09:21:53Z</time>
      </trkpt>
      <trkpt lat="39.886191901715" lon="3.067350018575">
        <ele>13.8</ele>
        <time>2014-05-03T09:21:54Z</time>
      </trkpt>
      <trkpt lat="39.885937427231" lon="3.066895887233">
        <ele>13.8</ele>
        <time>2014-05-03T09:22:01Z</time>
      </trkpt>
      <trkpt lat="39.885643138722" lon="3.066384172238">
        <ele>13.8</ele>
        <time>2014-05-03T09:22:09Z</time>
      </trkpt>
      <trkpt lat="39.885388748057" lon="3.06593724933">
        <ele>13.8</ele>
        <time>2014-05-03T09:22:16Z</time>
      </trkpt>
      <trkpt lat="39.885280034814" lon="3.06574614201">
        <ele>13.8</ele>
        <time>2014-05-03T09:22:19Z</time>
      </trkpt>
      <trkpt lat="39.885056238084" lon="3.065353366176">
        <ele>14.4</ele>
        <time>2014-05-03T09:22:25Z</time>
      </trkpt>
      <trkpt lat="39.885020279733" lon="3.065286897709">
        <ele>14.8</ele>
        <time>2014-05-03T09:22:26Z</time>
      </trkpt>
      <trkpt lat="39.884982896459" lon="3.065222021803">
        <ele>15.2</ele>
        <time>2014-05-03T09:22:27Z</time>
      </trkpt>
      <trkpt lat="39.884943082434" lon="3.065153709318">
        <ele>15.6</ele>
        <time>2014-05-03T09:22:28Z</time>
      </trkpt>
      <trkpt lat="39.884906034436" lon="3.065087827584">
        <ele>16</ele>
        <time>2014-05-03T09:22:29Z</time>
      </trkpt>
      <trkpt lat="39.884867812972" lon="3.065023789868">
        <ele>16</ele>
        <time>2014-05-03T09:22:30Z</time>
      </trkpt>
      <trkpt lat="39.884567740952" lon="3.064492545046">
        <ele>16</ele>
        <time>2014-05-03T09:22:38Z</time>
      </trkpt>
      <trkpt lat="39.884303208188" lon="3.064026008492">
        <ele>16</ele>
        <time>2014-05-03T09:22:45Z</time>
      </trkpt>
      <trkpt lat="39.884196255144" lon="3.063818891743">
        <ele>16</ele>
        <time>2014-05-03T09:22:48Z</time>
      </trkpt>
      <trkpt lat="39.884159961517" lon="3.063664664783">
        <ele>16</ele>
        <time>2014-05-03T09:22:50Z</time>
      </trkpt>
      <trkpt lat="39.884052673197" lon="3.063124786604">
        <ele>16</ele>
        <time>2014-05-03T09:22:57Z</time>
      </trkpt>
      <trkpt lat="39.884025683479" lon="3.063058485775">
        <ele>16</ele>
        <time>2014-05-03T09:22:58Z</time>
      </trkpt>
      <trkpt lat="39.883962986867" lon="3.062950443084">
        <ele>16.4</ele>
        <time>2014-05-03T09:23:00Z</time>
      </trkpt>
      <trkpt lat="39.883927950525" lon="3.062901744245">
        <ele>16.8</ele>
        <time>2014-05-03T09:23:01Z</time>
      </trkpt>
      <trkpt lat="39.883888387957" lon="3.062848770637">
        <ele>17.2</ele>
        <time>2014-05-03T09:23:02Z</time>
      </trkpt>
      <trkpt lat="39.883846310819" lon="3.062788504776">
        <ele>17.6</ele>
        <time>2014-05-03T09:23:03Z</time>
      </trkpt>
      <trkpt lat="39.883805658604" lon="3.062718432092">
        <ele>18</ele>
        <time>2014-05-03T09:23:04Z</time>
      </trkpt>
      <trkpt lat="39.883772131004" lon="3.062642659716">
        <ele>18</ele>
        <time>2014-05-03T09:23:05Z</time>
      </trkpt>
      <trkpt lat="39.883513130294" lon="3.062046119893">
        <ele>18</ele>
        <time>2014-05-03T09:23:13Z</time>
      </trkpt>
      <trkpt lat="39.883472058984" lon="3.061978561779">
        <ele>18</ele>
        <time>2014-05-03T09:23:14Z</time>
      </trkpt>
      <trkpt lat="39.883323783173" lon="3.061801452232">
        <ele>18</ele>
        <time>2014-05-03T09:23:17Z</time>
      </trkpt>
      <trkpt lat="39.88324021563" lon="3.061669940221">
        <ele>18</ele>
        <time>2014-05-03T09:23:19Z</time>
      </trkpt>
      <trkpt lat="39.883172825154" lon="3.061519736573">
        <ele>18</ele>
        <time>2014-05-03T09:23:21Z</time>
      </trkpt>
      <trkpt lat="39.882999487462" lon="3.06114950805">
        <ele>18</ele>
        <time>2014-05-03T09:23:26Z</time>
      </trkpt>
      <trkpt lat="39.882931007339" lon="3.061000980782">
        <ele>18</ele>
        <time>2014-05-03T09:23:28Z</time>
      </trkpt>
      <trkpt lat="39.88269706851" lon="3.060544083413">
        <ele>18</ele>
        <time>2014-05-03T09:23:35Z</time>
      </trkpt>
      <trkpt lat="39.882620122668" lon="3.060437214188">
        <ele>18</ele>
        <time>2014-05-03T09:23:37Z</time>
      </trkpt>
      <trkpt lat="39.882555749676" lon="3.060364040201">
        <ele>18</ele>
        <time>2014-05-03T09:23:39Z</time>
      </trkpt>
      <trkpt lat="39.882520713334" lon="3.060339900329">
        <ele>18</ele>
        <time>2014-05-03T09:23:40Z</time>
      </trkpt>
      <trkpt lat="39.882482910965" lon="3.060334871189">
        <ele>18</ele>
        <time>2014-05-03T09:23:41Z</time>
      </trkpt>
      <trkpt lat="39.882414179385" lon="3.060376613051">
        <ele>18</ele>
        <time>2014-05-03T09:23:43Z</time>
      </trkpt>
      <trkpt lat="39.882357098646" lon="3.060478285498">
        <ele>18</ele>
        <time>2014-05-03T09:23:45Z</time>
      </trkpt>
      <trkpt lat="39.882328181091" lon="3.060531259106">
        <ele>18</ele>
        <time>2014-05-03T09:23:46Z</time>
      </trkpt>
      <trkpt lat="39.882297419518" lon="3.060588088388">
        <ele>18</ele>
        <time>2014-05-03T09:23:47Z</time>
      </trkpt>
      <trkpt lat="39.882234639087" lon="3.060715241811">
        <ele>18</ele>
        <time>2014-05-03T09:23:49Z</time>
      </trkpt>
      <trkpt lat="39.882160040177" lon="3.060856895921">
        <ele>18</ele>
        <time>2014-05-03T09:23:51Z</time>
      </trkpt>
      <trkpt lat="39.882124417102" lon="3.060926465691">
        <ele>18</ele>
        <time>2014-05-03T09:23:52Z</time>
      </trkpt>
      <trkpt lat="39.882086111819" lon="3.060996789832">
        <ele>17.6</ele>
        <time>2014-05-03T09:23:53Z</time>
      </trkpt>
      <trkpt lat="39.882046716889" lon="3.06107323276">
        <ele>17</ele>
        <time>2014-05-03T09:23:54Z</time>
      </trkpt>
      <trkpt lat="39.882007489597" lon="3.061146406747">
        <ele>16.6</ele>
        <time>2014-05-03T09:23:55Z</time>
      </trkpt>
      <trkpt lat="39.881969268133" lon="3.061216479431">
        <ele>16</ele>
        <time>2014-05-03T09:23:56Z</time>
      </trkpt>
      <trkpt lat="39.881932806868" lon="3.061287390305">
        <ele>15.6</ele>
        <time>2014-05-03T09:23:57Z</time>
      </trkpt>
      <trkpt lat="39.881896429422" lon="3.061356624799">
        <ele>15.6</ele>
        <time>2014-05-03T09:23:58Z</time>
      </trkpt>
      <trkpt lat="39.881857872682" lon="3.061428373863">
        <ele>15.6</ele>
        <time>2014-05-03T09:23:59Z</time>
      </trkpt>
      <trkpt lat="39.88167615309" lon="3.061774630152">
        <ele>15.6</ele>
        <time>2014-05-03T09:24:04Z</time>
      </trkpt>
      <trkpt lat="39.881554447902" lon="3.061991469905">
        <ele>15.6</ele>
        <time>2014-05-03T09:24:07Z</time>
      </trkpt>
      <trkpt lat="39.88140877048" lon="3.06225843342">
        <ele>15.6</ele>
        <time>2014-05-03T09:24:11Z</time>
      </trkpt>
      <trkpt lat="39.881221937929" lon="3.062595804895">
        <ele>15.6</ele>
        <time>2014-05-03T09:24:16Z</time>
      </trkpt>
      <trkpt lat="39.881183381189" lon="3.062661938086">
        <ele>15.6</ele>
        <time>2014-05-03T09:24:17Z</time>
      </trkpt>
      <trkpt lat="39.880968553092" lon="3.063019761397">
        <ele>15.6</ele>
        <time>2014-05-03T09:24:23Z</time>
      </trkpt>
      <trkpt lat="39.880888673585" lon="3.063055635929">
        <ele>15.6</ele>
        <time>2014-05-03T09:24:25Z</time>
      </trkpt>
      <trkpt lat="39.880840142384" lon="3.063047254029">
        <ele>15.6</ele>
        <time>2014-05-03T09:24:26Z</time>
      </trkpt>
      <trkpt lat="39.880738469937" lon="3.063018252655">
        <ele>15.6</ele>
        <time>2014-05-03T09:24:28Z</time>
      </trkpt>
      <trkpt lat="39.880509476429" lon="3.062947090324">
        <ele>15.6</ele>
        <time>2014-05-03T09:24:32Z</time>
      </trkpt>
      <trkpt lat="39.880022068944" lon="3.062815662132">
        <ele>15.6</ele>
        <time>2014-05-03T09:24:40Z</time>
      </trkpt>
      <trkpt lat="39.879895586073" lon="3.062784146188">
        <ele>15.6</ele>
        <time>2014-05-03T09:24:42Z</time>
      </trkpt>
      <trkpt lat="39.879629712205" lon="3.062692280564">
        <ele>15.6</ele>
        <time>2014-05-03T09:24:46Z</time>
      </trkpt>
      <trkpt lat="39.879565925946" lon="3.062665123208">
        <ele>15.6</ele>
        <time>2014-05-03T09:24:47Z</time>
      </trkpt>
      <trkpt lat="39.879252694343" lon="3.062531599541">
        <ele>15.6</ele>
        <time>2014-05-03T09:24:52Z</time>
      </trkpt>
      <trkpt lat="39.879192093206" lon="3.062507040574">
        <ele>15.6</ele>
        <time>2014-05-03T09:24:53Z</time>
      </trkpt>
      <trkpt lat="39.879134677191" lon="3.062482733064">
        <ele>15.6</ele>
        <time>2014-05-03T09:24:54Z</time>
      </trkpt>
      <trkpt lat="39.879018923152" lon="3.062436884071">
        <ele>15.6</ele>
        <time>2014-05-03T09:24:56Z</time>
      </trkpt>
      <trkpt lat="39.878896798869" lon="3.062391957087">
        <ele>15.6</ele>
        <time>2014-05-03T09:24:58Z</time>
      </trkpt>
      <trkpt lat="39.878490528176" lon="3.062238484498">
        <ele>15.6</ele>
        <time>2014-05-03T09:25:05Z</time>
      </trkpt>
      <trkpt lat="39.878387011711" lon="3.062176039343">
        <ele>15.6</ele>
        <time>2014-05-03T09:25:07Z</time>
      </trkpt>
      <trkpt lat="39.878233958217" lon="3.062069086299">
        <ele>15.6</ele>
        <time>2014-05-03T09:25:10Z</time>
      </trkpt>
      <trkpt lat="39.877933886197" lon="3.061808241571">
        <ele>15.6</ele>
        <time>2014-05-03T09:25:16Z</time>
      </trkpt>
      <trkpt lat="39.877536248861" lon="3.06151831165">
        <ele>15.6</ele>
        <time>2014-05-03T09:25:23Z</time>
      </trkpt>
      <trkpt lat="39.877201475775" lon="3.061266184098">
        <ele>15.6</ele>
        <time>2014-05-03T09:25:29Z</time>
      </trkpt>
      <trkpt lat="39.877142970113" lon="3.061215138327">
        <ele>15.6</ele>
        <time>2014-05-03T09:25:30Z</time>
      </trkpt>
      <trkpt lat="39.876910959121" lon="3.061012128709">
        <ele>15.6</ele>
        <time>2014-05-03T09:25:34Z</time>
      </trkpt>
      <trkpt lat="39.876737956705" lon="3.060849100754">
        <ele>15.6</ele>
        <time>2014-05-03T09:25:37Z</time>
      </trkpt>
      <trkpt lat="39.876558667864" lon="3.060678529089">
        <ele>15.6</ele>
        <time>2014-05-03T09:25:40Z</time>
      </trkpt>
      <trkpt lat="39.876442578549" lon="3.060571408407">
        <ele>15.6</ele>
        <time>2014-05-03T09:25:42Z</time>
      </trkpt>
      <trkpt lat="39.876274269997" lon="3.060419696017">
        <ele>15.6</ele>
        <time>2014-05-03T09:25:45Z</time>
      </trkpt>
      <trkpt lat="39.876169077152" lon="3.060324226176">
        <ele>15.6</ele>
        <time>2014-05-03T09:25:47Z</time>
      </trkpt>
      <trkpt lat="39.875897503592" lon="3.060083749465">
        <ele>15.6</ele>
        <time>2014-05-03T09:25:52Z</time>
      </trkpt>
      <trkpt lat="39.875562311411" lon="3.059816115398">
        <ele>15.6</ele>
        <time>2014-05-03T09:25:58Z</time>
      </trkpt>
      <trkpt lat="39.875107341879" lon="3.059519647595">
        <ele>15.6</ele>
        <time>2014-05-03T09:26:06Z</time>
      </trkpt>
      <trkpt lat="39.874787572394" lon="3.059303394575">
        <ele>15.6</ele>
        <time>2014-05-03T09:26:12Z</time>
      </trkpt>
      <trkpt lat="39.874420864269" lon="3.059048500996">
        <ele>15.6</ele>
        <time>2014-05-03T09:26:19Z</time>
      </trkpt>
      <trkpt lat="39.874220704497" lon="3.058906427791">
        <ele>15.6</ele>
        <time>2014-05-03T09:26:24Z</time>
      </trkpt>
      <trkpt lat="39.874205030344" lon="3.058902991212">
        <ele>15.6</ele>
        <time>2014-05-03T09:26:25Z</time>
      </trkpt>
      <trkpt lat="39.874183237404" lon="3.058898884081">
        <ele>15.6</ele>
        <time>2014-05-03T09:26:27Z</time>
      </trkpt>
      <trkpt lat="39.87414753051" lon="3.058826380646">
        <ele>15.6</ele>
        <time>2014-05-03T09:26:30Z</time>
      </trkpt>
      <trkpt lat="39.874132275452" lon="3.058641978846">
        <ele>15.6</ele>
        <time>2014-05-03T09:26:33Z</time>
      </trkpt>
      <trkpt lat="39.874135292936" lon="3.058500408555">
        <ele>15.6</ele>
        <time>2014-05-03T09:26:35Z</time>
      </trkpt>
      <trkpt lat="39.874141914637" lon="3.058348109432">
        <ele>15.6</ele>
        <time>2014-05-03T09:26:37Z</time>
      </trkpt>
      <trkpt lat="39.874143088103" lon="3.058269738667">
        <ele>15.6</ele>
        <time>2014-05-03T09:26:38Z</time>
      </trkpt>
      <trkpt lat="39.874141495542" lon="3.058110734024">
        <ele>15.6</ele>
        <time>2014-05-03T09:26:40Z</time>
      </trkpt>
      <trkpt lat="39.874130012339" lon="3.057713431964">
        <ele>15.6</ele>
        <time>2014-05-03T09:26:45Z</time>
      </trkpt>
      <trkpt lat="39.874131269624" lon="3.057558115357">
        <ele>15.6</ele>
        <time>2014-05-03T09:26:47Z</time>
      </trkpt>
      <trkpt lat="39.874175274599" lon="3.057320153216">
        <ele>15.6</ele>
        <time>2014-05-03T09:26:50Z</time>
      </trkpt>
      <trkpt lat="39.874203353964" lon="3.057089650966">
        <ele>15.6</ele>
        <time>2014-05-03T09:26:53Z</time>
      </trkpt>
      <trkpt lat="39.874188266544" lon="3.056930311047">
        <ele>15.6</ele>
        <time>2014-05-03T09:26:55Z</time>
      </trkpt>
      <trkpt lat="39.874122300991" lon="3.056542312896">
        <ele>15.6</ele>
        <time>2014-05-03T09:27:00Z</time>
      </trkpt>
      <trkpt lat="39.874120792249" lon="3.056461595199">
        <ele>15.6</ele>
        <time>2014-05-03T09:27:01Z</time>
      </trkpt>
      <trkpt lat="39.874128838873" lon="3.056012912092">
        <ele>15.6</ele>
        <time>2014-05-03T09:27:07Z</time>
      </trkpt>
      <trkpt lat="39.874032782299" lon="3.055740332704">
        <ele>15.6</ele>
        <time>2014-05-03T09:27:11Z</time>
      </trkpt>
      <trkpt lat="39.873753078296" lon="3.05522937208">
        <ele>15.6</ele>
        <time>2014-05-03T09:27:19Z</time>
      </trkpt>
      <trkpt lat="39.873564066451" lon="3.055045976108">
        <ele>16</ele>
        <time>2014-05-03T09:27:23Z</time>
      </trkpt>
      <trkpt lat="39.873522408408" lon="3.054989314464">
        <ele>16.4</ele>
        <time>2014-05-03T09:27:24Z</time>
      </trkpt>
      <trkpt lat="39.873487455885" lon="3.054926617852">
        <ele>17</ele>
        <time>2014-05-03T09:27:25Z</time>
      </trkpt>
      <trkpt lat="39.873457616321" lon="3.054855204064">
        <ele>17.4</ele>
        <time>2014-05-03T09:27:26Z</time>
      </trkpt>
      <trkpt lat="39.873434398458" lon="3.054783874095">
        <ele>17.8</ele>
        <time>2014-05-03T09:27:27Z</time>
      </trkpt>
      <trkpt lat="39.87340321779" lon="3.054632832257">
        <ele>17.8</ele>
        <time>2014-05-03T09:27:29Z</time>
      </trkpt>
      <trkpt lat="39.87339567408" lon="3.054556640786">
        <ele>17.8</ele>
        <time>2014-05-03T09:27:30Z</time>
      </trkpt>
      <trkpt lat="39.87338896856" lon="3.054477767107">
        <ele>17.8</ele>
        <time>2014-05-03T09:27:31Z</time>
      </trkpt>
      <trkpt lat="39.873322500093" lon="3.053830349151">
        <ele>17.8</ele>
        <time>2014-05-03T09:27:39Z</time>
      </trkpt>
      <trkpt lat="39.873248487916" lon="3.053110930674">
        <ele>17.8</ele>
        <time>2014-05-03T09:27:48Z</time>
      </trkpt>
      <trkpt lat="39.87324479988" lon="3.053028452778">
        <ele>17.8</ele>
        <time>2014-05-03T09:27:49Z</time>
      </trkpt>
      <trkpt lat="39.873193837928" lon="3.052568621744">
        <ele>17.8</ele>
        <time>2014-05-03T09:27:55Z</time>
      </trkpt>
      <trkpt lat="39.87314756984" lon="3.052192190615">
        <ele>18.2</ele>
        <time>2014-05-03T09:28:00Z</time>
      </trkpt>
      <trkpt lat="39.873139355578" lon="3.052113065479">
        <ele>18.6</ele>
        <time>2014-05-03T09:28:01Z</time>
      </trkpt>
      <trkpt lat="39.873129381117" lon="3.052034527076">
        <ele>19</ele>
        <time>2014-05-03T09:28:02Z</time>
      </trkpt>
      <trkpt lat="39.873117311181" lon="3.051957413596">
        <ele>19.4</ele>
        <time>2014-05-03T09:28:03Z</time>
      </trkpt>
      <trkpt lat="39.87310482215" lon="3.051875270976">
        <ele>19.8</ele>
        <time>2014-05-03T09:28:04Z</time>
      </trkpt>
      <trkpt lat="39.873051680904" lon="3.05148433916">
        <ele>19.8</ele>
        <time>2014-05-03T09:28:09Z</time>
      </trkpt>
      <trkpt lat="39.872987224093" lon="3.051032051836">
        <ele>19.8</ele>
        <time>2014-05-03T09:28:15Z</time>
      </trkpt>
      <trkpt lat="39.872867195285" lon="3.05044582175">
        <ele>19.8</ele>
        <time>2014-05-03T09:28:23Z</time>
      </trkpt>
      <trkpt lat="39.872808019071" lon="3.050140217676">
        <ele>19.8</ele>
        <time>2014-05-03T09:28:27Z</time>
      </trkpt>
      <trkpt lat="39.872775916394" lon="3.049915163661">
        <ele>19.8</ele>
        <time>2014-05-03T09:28:30Z</time>
      </trkpt>
      <trkpt lat="39.872741299147" lon="3.049457679559">
        <ele>19.8</ele>
        <time>2014-05-03T09:28:37Z</time>
      </trkpt>
      <trkpt lat="39.872732162876" lon="3.049367490315">
        <ele>19.8</ele>
        <time>2014-05-03T09:28:39Z</time>
      </trkpt>
      <trkpt lat="39.87272763665" lon="3.04933605819">
        <ele>20.2</ele>
        <time>2014-05-03T09:28:40Z</time>
      </trkpt>
      <trkpt lat="39.872718500379" lon="3.049308817015">
        <ele>20.6</ele>
        <time>2014-05-03T09:28:41Z</time>
      </trkpt>
      <trkpt lat="39.872699305828" lon="3.049288197541">
        <ele>21</ele>
        <time>2014-05-03T09:28:42Z</time>
      </trkpt>
      <trkpt lat="39.872673489576" lon="3.049283084582">
        <ele>21.4</ele>
        <time>2014-05-03T09:28:43Z</time>
      </trkpt>
      <trkpt lat="39.872642057451" lon="3.049286353523">
        <ele>21.8</ele>
        <time>2014-05-03T09:28:44Z</time>
      </trkpt>
      <trkpt lat="39.872504175196" lon="3.049337147837">
        <ele>21.8</ele>
        <time>2014-05-03T09:28:47Z</time>
      </trkpt>
      <trkpt lat="39.872345086734" lon="3.049389031798">
        <ele>21.8</ele>
        <time>2014-05-03T09:28:50Z</time>
      </trkpt>
      <trkpt lat="39.872237630776" lon="3.049418703724">
        <ele>21.8</ele>
        <time>2014-05-03T09:28:52Z</time>
      </trkpt>
      <trkpt lat="39.872181220589" lon="3.049434545515">
        <ele>21.4</ele>
        <time>2014-05-03T09:28:53Z</time>
      </trkpt>
      <trkpt lat="39.872124894221" lon="3.049456003179">
        <ele>20.8</ele>
        <time>2014-05-03T09:28:54Z</time>
      </trkpt>
      <trkpt lat="39.872070160414" lon="3.04947603592">
        <ele>20.4</ele>
        <time>2014-05-03T09:28:55Z</time>
      </trkpt>
      <trkpt lat="39.872012912037" lon="3.049495817204">
        <ele>19.8</ele>
        <time>2014-05-03T09:28:56Z</time>
      </trkpt>
      <trkpt lat="39.871955412203" lon="3.049511575176">
        <ele>19.4</ele>
        <time>2014-05-03T09:28:57Z</time>
      </trkpt>
      <trkpt lat="39.871896068351" lon="3.049529596261">
        <ele>19.4</ele>
        <time>2014-05-03T09:28:58Z</time>
      </trkpt>
      <trkpt lat="39.871660034047" lon="3.049580977308">
        <ele>19.4</ele>
        <time>2014-05-03T09:29:02Z</time>
      </trkpt>
      <trkpt lat="39.871527935303" lon="3.049599417488">
        <ele>19.4</ele>
        <time>2014-05-03T09:29:04Z</time>
      </trkpt>
      <trkpt lat="39.871458952266" lon="3.049608134664">
        <ele>19</ele>
        <time>2014-05-03T09:29:05Z</time>
      </trkpt>
      <trkpt lat="39.871398854043" lon="3.049617103297">
        <ele>18.6</ele>
        <time>2014-05-03T09:29:06Z</time>
      </trkpt>
      <trkpt lat="39.871350741937" lon="3.049625736654">
        <ele>18</ele>
        <time>2014-05-03T09:29:07Z</time>
      </trkpt>
      <trkpt lat="39.871306485505" lon="3.049632609812">
        <ele>17.6</ele>
        <time>2014-05-03T09:29:08Z</time>
      </trkpt>
      <trkpt lat="39.871268515498" lon="3.049621294247">
        <ele>17.2</ele>
        <time>2014-05-03T09:29:09Z</time>
      </trkpt>
      <trkpt lat="39.871232976242" lon="3.049549377545">
        <ele>17.2</ele>
        <time>2014-05-03T09:29:11Z</time>
      </trkpt>
      <trkpt lat="39.87123482026" lon="3.049496068661">
        <ele>17.2</ele>
        <time>2014-05-03T09:29:12Z</time>
      </trkpt>
      <trkpt lat="39.871217302089" lon="3.049335052362">
        <ele>17.2</ele>
        <time>2014-05-03T09:29:15Z</time>
      </trkpt>
      <trkpt lat="39.871205315972" lon="3.049280150917">
        <ele>17.2</ele>
        <time>2014-05-03T09:29:16Z</time>
      </trkpt>
      <trkpt lat="39.871180673186" lon="3.049165486525">
        <ele>17.2</ele>
        <time>2014-05-03T09:29:18Z</time>
      </trkpt>
      <trkpt lat="39.871168519431" lon="3.049106477949">
        <ele>17.6</ele>
        <time>2014-05-03T09:29:19Z</time>
      </trkpt>
      <trkpt lat="39.87115435402" lon="3.049042859328">
        <ele>18</ele>
        <time>2014-05-03T09:29:20Z</time>
      </trkpt>
      <trkpt lat="39.871138763686" lon="3.048974630662">
        <ele>18.6</ele>
        <time>2014-05-03T09:29:21Z</time>
      </trkpt>
      <trkpt lat="39.871124933551" lon="3.048913107516">
        <ele>19.4</ele>
        <time>2014-05-03T09:29:22Z</time>
      </trkpt>
      <trkpt lat="39.871113366529" lon="3.048853931302">
        <ele>19.4</ele>
        <time>2014-05-03T09:29:23Z</time>
      </trkpt>
      <trkpt lat="39.871091741227" lon="3.048749492828">
        <ele>19.4</ele>
        <time>2014-05-03T09:29:25Z</time>
      </trkpt>
      <trkpt lat="39.871082018223" lon="3.04869568103">
        <ele>20</ele>
        <time>2014-05-03T09:29:26Z</time>
      </trkpt>
      <trkpt lat="39.871070954115" lon="3.048637929739">
        <ele>20.4</ele>
        <time>2014-05-03T09:29:27Z</time>
      </trkpt>
      <trkpt lat="39.871058548903" lon="3.048584956131">
        <ele>20.8</ele>
        <time>2014-05-03T09:29:28Z</time>
      </trkpt>
      <trkpt lat="39.871044299673" lon="3.048535754378">
        <ele>21.4</ele>
        <time>2014-05-03T09:29:29Z</time>
      </trkpt>
      <trkpt lat="39.871029212253" lon="3.048485043883">
        <ele>21.8</ele>
        <time>2014-05-03T09:29:30Z</time>
      </trkpt>
      <trkpt lat="39.870955032438" lon="3.048286728129">
        <ele>21.8</ele>
        <time>2014-05-03T09:29:34Z</time>
      </trkpt>
      <trkpt lat="39.870911949472" lon="3.04818522332">
        <ele>22.2</ele>
        <time>2014-05-03T09:29:36Z</time>
      </trkpt>
      <trkpt lat="39.870889150704" lon="3.048133842273">
        <ele>22.8</ele>
        <time>2014-05-03T09:29:37Z</time>
      </trkpt>
      <trkpt lat="39.87086601666" lon="3.048084137606">
        <ele>23.2</ele>
        <time>2014-05-03T09:29:38Z</time>
      </trkpt>
      <trkpt lat="39.870842798797" lon="3.048035271129">
        <ele>23.6</ele>
        <time>2014-05-03T09:29:39Z</time>
      </trkpt>
      <trkpt lat="39.870818742744" lon="3.047988332489">
        <ele>24</ele>
        <time>2014-05-03T09:29:40Z</time>
      </trkpt>
      <trkpt lat="39.870794351415" lon="3.047940220383">
        <ele>24</ele>
        <time>2014-05-03T09:29:41Z</time>
      </trkpt>
      <trkpt lat="39.870684632344" lon="3.047685913537">
        <ele>24</ele>
        <time>2014-05-03T09:29:46Z</time>
      </trkpt>
      <trkpt lat="39.870662168852" lon="3.047634783947">
        <ele>24.4</ele>
        <time>2014-05-03T09:29:47Z</time>
      </trkpt>
      <trkpt lat="39.870640124455" lon="3.047580804511">
        <ele>24.8</ele>
        <time>2014-05-03T09:29:48Z</time>
      </trkpt>
      <trkpt lat="39.870615230212" lon="3.047527914722">
        <ele>25.2</ele>
        <time>2014-05-03T09:29:49Z</time>
      </trkpt>
      <trkpt lat="39.870586815571" lon="3.047471755992">
        <ele>25.6</ele>
        <time>2014-05-03T09:29:50Z</time>
      </trkpt>
      <trkpt lat="39.870559155301" lon="3.047415513443">
        <ele>26</ele>
        <time>2014-05-03T09:29:51Z</time>
      </trkpt>
      <trkpt lat="39.870441473425" lon="3.047204624839">
        <ele>26</ele>
        <time>2014-05-03T09:29:55Z</time>
      </trkpt>
      <trkpt lat="39.870206109673" lon="3.046864152061">
        <ele>26</ele>
        <time>2014-05-03T09:30:02Z</time>
      </trkpt>
      <trkpt lat="39.870132935686" lon="3.046783015269">
        <ele>26</ele>
        <time>2014-05-03T09:30:04Z</time>
      </trkpt>
      <trkpt lat="39.869975104509" lon="3.04664211553">
        <ele>26</ele>
        <time>2014-05-03T09:30:08Z</time>
      </trkpt>
      <trkpt lat="39.869899164495" lon="3.046570282647">
        <ele>26.4</ele>
        <time>2014-05-03T09:30:10Z</time>
      </trkpt>
      <trkpt lat="39.869859937203" lon="3.046537006504">
        <ele>26.8</ele>
        <time>2014-05-03T09:30:11Z</time>
      </trkpt>
      <trkpt lat="39.869821715739" lon="3.046504484732">
        <ele>27.6</ele>
        <time>2014-05-03T09:30:12Z</time>
      </trkpt>
      <trkpt lat="39.869779135687" lon="3.046481099231">
        <ele>28</ele>
        <time>2014-05-03T09:30:13Z</time>
      </trkpt>
      <trkpt lat="39.869736723273" lon="3.046479841946">
        <ele>28</ele>
        <time>2014-05-03T09:30:14Z</time>
      </trkpt>
      <trkpt lat="39.869615353361" lon="3.046552932114">
        <ele>28</ele>
        <time>2014-05-03T09:30:17Z</time>
      </trkpt>
      <trkpt lat="39.869339169756" lon="3.046746721642">
        <ele>28.6</ele>
        <time>2014-05-03T09:30:24Z</time>
      </trkpt>
      <trkpt lat="39.869302540853" lon="3.046771867342">
        <ele>29</ele>
        <time>2014-05-03T09:30:25Z</time>
      </trkpt>
      <trkpt lat="39.869265492855" lon="3.046794833748">
        <ele>29.4</ele>
        <time>2014-05-03T09:30:26Z</time>
      </trkpt>
      <trkpt lat="39.869230121237" lon="3.046816039955">
        <ele>29.8</ele>
        <time>2014-05-03T09:30:27Z</time>
      </trkpt>
      <trkpt lat="39.869195755447" lon="3.0468374138">
        <ele>30.2</ele>
        <time>2014-05-03T09:30:28Z</time>
      </trkpt>
      <trkpt lat="39.869087461299" lon="3.046848729365">
        <ele>30.2</ele>
        <time>2014-05-03T09:30:31Z</time>
      </trkpt>
      <trkpt lat="39.869058543744" lon="3.046813609204">
        <ele>30.6</ele>
        <time>2014-05-03T09:30:32Z</time>
      </trkpt>
      <trkpt lat="39.869035242062" lon="3.046764826546">
        <ele>31</ele>
        <time>2014-05-03T09:30:33Z</time>
      </trkpt>
      <trkpt lat="39.869012359475" lon="3.046714870422">
        <ele>31.4</ele>
        <time>2014-05-03T09:30:34Z</time>
      </trkpt>
      <trkpt lat="39.868990566535" lon="3.046665417212">
        <ele>31.8</ele>
        <time>2014-05-03T09:30:35Z</time>
      </trkpt>
      <trkpt lat="39.868966761939" lon="3.046612192147">
        <ele>32.2</ele>
        <time>2014-05-03T09:30:36Z</time>
      </trkpt>
      <trkpt lat="39.868839692335" lon="3.046322346045">
        <ele>32.2</ele>
        <time>2014-05-03T09:30:41Z</time>
      </trkpt>
      <trkpt lat="39.868656631639" lon="3.046027303165">
        <ele>32.2</ele>
        <time>2014-05-03T09:30:47Z</time>
      </trkpt>
      <trkpt lat="39.868555462106" lon="3.045884224132">
        <ele>32.2</ele>
        <time>2014-05-03T09:30:50Z</time>
      </trkpt>
      <trkpt lat="39.868478432445" lon="3.045793783431">
        <ele>32.2</ele>
        <time>2014-05-03T09:30:52Z</time>
      </trkpt>
      <trkpt lat="39.868216581889" lon="3.045481054742">
        <ele>32.2</ele>
        <time>2014-05-03T09:30:59Z</time>
      </trkpt>
      <trkpt lat="39.868178695701" lon="3.045436379215">
        <ele>32.8</ele>
        <time>2014-05-03T09:31:00Z</time>
      </trkpt>
      <trkpt lat="39.868145084282" lon="3.045389189118">
        <ele>33.2</ele>
        <time>2014-05-03T09:31:01Z</time>
      </trkpt>
      <trkpt lat="39.868109545026" lon="3.045342501935">
        <ele>34</ele>
        <time>2014-05-03T09:31:02Z</time>
      </trkpt>
      <trkpt lat="39.868071994114" lon="3.045300005702">
        <ele>34.4</ele>
        <time>2014-05-03T09:31:03Z</time>
      </trkpt>
      <trkpt lat="39.867998317213" lon="3.04520797244">
        <ele>34.4</ele>
        <time>2014-05-03T09:31:05Z</time>
      </trkpt>
      <trkpt lat="39.86784853266" lon="3.045032036359">
        <ele>34.4</ele>
        <time>2014-05-03T09:31:09Z</time>
      </trkpt>
      <trkpt lat="39.867736718114" lon="3.044901278719">
        <ele>34.4</ele>
        <time>2014-05-03T09:31:12Z</time>
      </trkpt>
      <trkpt lat="39.867662203023" lon="3.044816453891">
        <ele>34.4</ele>
        <time>2014-05-03T09:31:14Z</time>
      </trkpt>
      <trkpt lat="39.867508311339" lon="3.044650995185">
        <ele>34.8</ele>
        <time>2014-05-03T09:31:18Z</time>
      </trkpt>
      <trkpt lat="39.867473274997" lon="3.044608582771">
        <ele>35.2</ele>
        <time>2014-05-03T09:31:19Z</time>
      </trkpt>
      <trkpt lat="39.867437316646" lon="3.04456675709">
        <ele>35.6</ele>
        <time>2014-05-03T09:31:20Z</time>
      </trkpt>
      <trkpt lat="39.867400603924" lon="3.044525853418">
        <ele>36</ele>
        <time>2014-05-03T09:31:21Z</time>
      </trkpt>
      <trkpt lat="39.867361628089" lon="3.044479920606">
        <ele>36.4</ele>
        <time>2014-05-03T09:31:22Z</time>
      </trkpt>
      <trkpt lat="39.867137160807" lon="3.044238940981">
        <ele>36.4</ele>
        <time>2014-05-03T09:31:28Z</time>
      </trkpt>
      <trkpt lat="39.866849493999" lon="3.043935767658">
        <ele>36.4</ele>
        <time>2014-05-03T09:31:35Z</time>
      </trkpt>
      <trkpt lat="39.866762406058" lon="3.043847673889">
        <ele>36.4</ele>
        <time>2014-05-03T09:31:37Z</time>
      </trkpt>
      <trkpt lat="39.866552188006" lon="3.043646005375">
        <ele>36.4</ele>
        <time>2014-05-03T09:31:42Z</time>
      </trkpt>
      <trkpt lat="39.866382035436" lon="3.043468392914">
        <ele>36.4</ele>
        <time>2014-05-03T09:31:46Z</time>
      </trkpt>
      <trkpt lat="39.866261084619" lon="3.043342580595">
        <ele>36.4</ele>
        <time>2014-05-03T09:31:49Z</time>
      </trkpt>
      <trkpt lat="39.866228479028" lon="3.043296731602">
        <ele>36.4</ele>
        <time>2014-05-03T09:31:50Z</time>
      </trkpt>
      <trkpt lat="39.866168296986" lon="3.04309992459">
        <ele>36.4</ele>
        <time>2014-05-03T09:31:53Z</time>
      </trkpt>
      <trkpt lat="39.86615790343" lon="3.0430320312">
        <ele>36.4</ele>
        <time>2014-05-03T09:31:54Z</time>
      </trkpt>
      <trkpt lat="39.866143318924" lon="3.042965981828">
        <ele>36.4</ele>
        <time>2014-05-03T09:31:55Z</time>
      </trkpt>
      <trkpt lat="39.866123453821" lon="3.042903369035">
        <ele>36.4</ele>
        <time>2014-05-03T09:31:56Z</time>
      </trkpt>
      <trkpt lat="39.866058661734" lon="3.042813179791">
        <ele>36.4</ele>
        <time>2014-05-03T09:31:58Z</time>
      </trkpt>
      <trkpt lat="39.86601541113" lon="3.042771940843">
        <ele>36.4</ele>
        <time>2014-05-03T09:31:59Z</time>
      </trkpt>
      <trkpt lat="39.865959839133" lon="3.04273112099">
        <ele>36.4</ele>
        <time>2014-05-03T09:32:00Z</time>
      </trkpt>
      <trkpt lat="39.865902758394" lon="3.042695749372">
        <ele>36.4</ele>
        <time>2014-05-03T09:32:01Z</time>
      </trkpt>
      <trkpt lat="39.865760852827" lon="3.042604721938">
        <ele>36.8</ele>
        <time>2014-05-03T09:32:04Z</time>
      </trkpt>
      <trkpt lat="39.86572204463" lon="3.042577983677">
        <ele>37.2</ele>
        <time>2014-05-03T09:32:05Z</time>
      </trkpt>
      <trkpt lat="39.865686505374" lon="3.042551329235">
        <ele>37.6</ele>
        <time>2014-05-03T09:32:06Z</time>
      </trkpt>
      <trkpt lat="39.865650379385" lon="3.042524255698">
        <ele>38</ele>
        <time>2014-05-03T09:32:07Z</time>
      </trkpt>
      <trkpt lat="39.865612325559" lon="3.042497685075">
        <ele>38.6</ele>
        <time>2014-05-03T09:32:08Z</time>
      </trkpt>
      <trkpt lat="39.865519873202" lon="3.04244865096">
        <ele>38.6</ele>
        <time>2014-05-03T09:32:11Z</time>
      </trkpt>
      <trkpt lat="39.865467570146" lon="3.042421661242">
        <ele>39</ele>
        <time>2014-05-03T09:32:14Z</time>
      </trkpt>
      <trkpt lat="39.865452901821" lon="3.042416464464">
        <ele>39.4</ele>
        <time>2014-05-03T09:32:15Z</time>
      </trkpt>
      <trkpt lat="39.86543622184" lon="3.042408250202">
        <ele>40.2</ele>
        <time>2014-05-03T09:32:16Z</time>
      </trkpt>
      <trkpt lat="39.865410154131" lon="3.042389726203">
        <ele>40.8</ele>
        <time>2014-05-03T09:32:17Z</time>
      </trkpt>
      <trkpt lat="39.865352235202" lon="3.042336165862">
        <ele>40.8</ele>
        <time>2014-05-03T09:32:19Z</time>
      </trkpt>
      <trkpt lat="39.865216448422" lon="3.042237762356">
        <ele>40.8</ele>
        <time>2014-05-03T09:32:23Z</time>
      </trkpt>
      <trkpt lat="39.865123409332" lon="3.042173221726">
        <ele>40.8</ele>
        <time>2014-05-03T09:32:25Z</time>
      </trkpt>
      <trkpt lat="39.865074459036" lon="3.042148076026">
        <ele>40.8</ele>
        <time>2014-05-03T09:32:26Z</time>
      </trkpt>
      <trkpt lat="39.864929703623" lon="3.042065514311">
        <ele>40.8</ele>
        <time>2014-05-03T09:32:29Z</time>
      </trkpt>
      <trkpt lat="39.864837418904" lon="3.042020084413">
        <ele>41.2</ele>
        <time>2014-05-03T09:32:31Z</time>
      </trkpt>
      <trkpt lat="39.864795760861" lon="3.041997118007">
        <ele>41.6</ele>
        <time>2014-05-03T09:32:32Z</time>
      </trkpt>
      <trkpt lat="39.864755192465" lon="3.041972391402">
        <ele>42</ele>
        <time>2014-05-03T09:32:33Z</time>
      </trkpt>
      <trkpt lat="39.864715210802" lon="3.041944647313">
        <ele>42.4</ele>
        <time>2014-05-03T09:32:34Z</time>
      </trkpt>
      <trkpt lat="39.864675564415" lon="3.041917489957">
        <ele>42.8</ele>
        <time>2014-05-03T09:32:35Z</time>
      </trkpt>
      <trkpt lat="39.864562576403" lon="3.04183593407">
        <ele>43.2</ele>
        <time>2014-05-03T09:32:38Z</time>
      </trkpt>
      <trkpt lat="39.864528629708" lon="3.041807267972">
        <ele>43.6</ele>
        <time>2014-05-03T09:32:39Z</time>
      </trkpt>
      <trkpt lat="39.864492252262" lon="3.041780278254">
        <ele>44</ele>
        <time>2014-05-03T09:32:40Z</time>
      </trkpt>
      <trkpt lat="39.864456126273" lon="3.041750857785">
        <ele>44.8</ele>
        <time>2014-05-03T09:32:41Z</time>
      </trkpt>
      <trkpt lat="39.864260911822" lon="3.041604845087">
        <ele>44.8</ele>
        <time>2014-05-03T09:32:46Z</time>
      </trkpt>
      <trkpt lat="39.864221852168" lon="3.041575759894">
        <ele>45.2</ele>
        <time>2014-05-03T09:32:47Z</time>
      </trkpt>
      <trkpt lat="39.864181116134" lon="3.041545501235">
        <ele>45.6</ele>
        <time>2014-05-03T09:32:48Z</time>
      </trkpt>
      <trkpt lat="39.864140966833" lon="3.041518595336">
        <ele>46</ele>
        <time>2014-05-03T09:32:49Z</time>
      </trkpt>
      <trkpt lat="39.864102074817" lon="3.04148892341">
        <ele>46.6</ele>
        <time>2014-05-03T09:32:50Z</time>
      </trkpt>
      <trkpt lat="39.864065362095" lon="3.041458497113">
        <ele>47</ele>
        <time>2014-05-03T09:32:51Z</time>
      </trkpt>
      <trkpt lat="39.863952457902" lon="3.041371995905">
        <ele>47</ele>
        <time>2014-05-03T09:32:54Z</time>
      </trkpt>
      <trkpt lat="39.86371877053" lon="3.041183486974">
        <ele>47.4</ele>
        <time>2014-05-03T09:33:00Z</time>
      </trkpt>
      <trkpt lat="39.863681135799" lon="3.041151887211">
        <ele>47.8</ele>
        <time>2014-05-03T09:33:01Z</time>
      </trkpt>
      <trkpt lat="39.863642579059" lon="3.041120203629">
        <ele>48.2</ele>
        <time>2014-05-03T09:33:02Z</time>
      </trkpt>
      <trkpt lat="39.863605111966" lon="3.041087178943">
        <ele>48.6</ele>
        <time>2014-05-03T09:33:03Z</time>
      </trkpt>
      <trkpt lat="39.863567225778" lon="3.041054489533">
        <ele>49</ele>
        <time>2014-05-03T09:33:04Z</time>
      </trkpt>
      <trkpt lat="39.863334376596" lon="3.04086195729">
        <ele>49</ele>
        <time>2014-05-03T09:33:10Z</time>
      </trkpt>
      <trkpt lat="39.863261705523" lon="3.040799763592">
        <ele>49.4</ele>
        <time>2014-05-03T09:33:12Z</time>
      </trkpt>
      <trkpt lat="39.863227339733" lon="3.040771265132">
        <ele>49.8</ele>
        <time>2014-05-03T09:33:13Z</time>
      </trkpt>
      <trkpt lat="39.86319406359" lon="3.040742599034">
        <ele>50.2</ele>
        <time>2014-05-03T09:33:14Z</time>
      </trkpt>
      <trkpt lat="39.863162882922" lon="3.040715106402">
        <ele>50.8</ele>
        <time>2014-05-03T09:33:15Z</time>
      </trkpt>
      <trkpt lat="39.863130444969" lon="3.040686943218">
        <ele>51.2</ele>
        <time>2014-05-03T09:33:16Z</time>
      </trkpt>
      <trkpt lat="39.863099934853" lon="3.040663054803">
        <ele>51.2</ele>
        <time>2014-05-03T09:33:17Z</time>
      </trkpt>
      <trkpt lat="39.863071520212" lon="3.040638831112">
        <ele>51.6</ele>
        <time>2014-05-03T09:33:18Z</time>
      </trkpt>
      <trkpt lat="39.863041429191" lon="3.040614355964">
        <ele>52</ele>
        <time>2014-05-03T09:33:19Z</time>
      </trkpt>
      <trkpt lat="39.863010164704" lon="3.040589042626">
        <ele>52.4</ele>
        <time>2014-05-03T09:33:20Z</time>
      </trkpt>
      <trkpt lat="39.862978900217" lon="3.040563394012">
        <ele>52.8</ele>
        <time>2014-05-03T09:33:21Z</time>
      </trkpt>
      <trkpt lat="39.862948054825" lon="3.040540343787">
        <ele>53.2</ele>
        <time>2014-05-03T09:33:22Z</time>
      </trkpt>
      <trkpt lat="39.862890722629" lon="3.040485358523">
        <ele>53.6</ele>
        <time>2014-05-03T09:33:24Z</time>
      </trkpt>
      <trkpt lat="39.862865576929" lon="3.040457782072">
        <ele>54</ele>
        <time>2014-05-03T09:33:25Z</time>
      </trkpt>
      <trkpt lat="39.86283783284" lon="3.040432887829">
        <ele>54.4</ele>
        <time>2014-05-03T09:33:26Z</time>
      </trkpt>
      <trkpt lat="39.862806316896" lon="3.040411513984">
        <ele>55</ele>
        <time>2014-05-03T09:33:27Z</time>
      </trkpt>
      <trkpt lat="39.862775220047" lon="3.040388463759">
        <ele>55.4</ele>
        <time>2014-05-03T09:33:28Z</time>
      </trkpt>
      <trkpt lat="39.862641947837" lon="3.04028528257">
        <ele>55.4</ele>
        <time>2014-05-03T09:33:32Z</time>
      </trkpt>
      <trkpt lat="39.862543209055" lon="3.040211354212">
        <ele>55.8</ele>
        <time>2014-05-03T09:33:35Z</time>
      </trkpt>
      <trkpt lat="39.862510603464" lon="3.040184448313">
        <ele>56.2</ele>
        <time>2014-05-03T09:33:36Z</time>
      </trkpt>
      <trkpt lat="39.86247489657" lon="3.04015787769">
        <ele>56.6</ele>
        <time>2014-05-03T09:33:37Z</time>
      </trkpt>
      <trkpt lat="39.862441452789" lon="3.040130804153">
        <ele>57.2</ele>
        <time>2014-05-03T09:33:38Z</time>
      </trkpt>
      <trkpt lat="39.862407170818" lon="3.040101886598">
        <ele>57.6</ele>
        <time>2014-05-03T09:33:39Z</time>
      </trkpt>
      <trkpt lat="39.862312622986" lon="3.040019743978">
        <ele>58</ele>
        <time>2014-05-03T09:33:42Z</time>
      </trkpt>
      <trkpt lat="39.862283705431" lon="3.040000046513">
        <ele>58.4</ele>
        <time>2014-05-03T09:33:43Z</time>
      </trkpt>
      <trkpt lat="39.86225612898" lon="3.039980768143">
        <ele>58.8</ele>
        <time>2014-05-03T09:33:44Z</time>
      </trkpt>
      <trkpt lat="39.862228803986" lon="3.039958807565">
        <ele>59.2</ele>
        <time>2014-05-03T09:33:45Z</time>
      </trkpt>
      <trkpt lat="39.862198964422" lon="3.039939277738">
        <ele>59.6</ele>
        <time>2014-05-03T09:33:46Z</time>
      </trkpt>
      <trkpt lat="39.862173902541" lon="3.039931063476">
        <ele>59.6</ele>
        <time>2014-05-03T09:33:47Z</time>
      </trkpt>
      <trkpt lat="39.862091424645" lon="3.039944390697">
        <ele>59.6</ele>
        <time>2014-05-03T09:33:50Z</time>
      </trkpt>
      <trkpt lat="39.861912890175" lon="3.040066263523">
        <ele>59.6</ele>
        <time>2014-05-03T09:33:55Z</time>
      </trkpt>
      <trkpt lat="39.861708204177" lon="3.040227950374">
        <ele>59.6</ele>
        <time>2014-05-03T09:33:59Z</time>
      </trkpt>
      <trkpt lat="39.861646681031" lon="3.040279331421">
        <ele>59.2</ele>
        <time>2014-05-03T09:34:00Z</time>
      </trkpt>
      <trkpt lat="39.861578536184" lon="3.0403330594">
        <ele>58.8</ele>
        <time>2014-05-03T09:34:01Z</time>
      </trkpt>
      <trkpt lat="39.861502093256" lon="3.040390643053">
        <ele>58.4</ele>
        <time>2014-05-03T09:34:02Z</time>
      </trkpt>
      <trkpt lat="39.861423135758" lon="3.04044789143">
        <ele>57.6</ele>
        <time>2014-05-03T09:34:03Z</time>
      </trkpt>
      <trkpt lat="39.861338143292" lon="3.040507570558">
        <ele>56.8</ele>
        <time>2014-05-03T09:34:04Z</time>
      </trkpt>
      <trkpt lat="39.861237979587" lon="3.04057864907">
        <ele>55.6</ele>
        <time>2014-05-03T09:34:05Z</time>
      </trkpt>
      <trkpt lat="39.861133289656" lon="3.040658025663">
        <ele>54.4</ele>
        <time>2014-05-03T09:34:06Z</time>
      </trkpt>
      <trkpt lat="39.861029186458" lon="3.04073874336">
        <ele>52.8</ele>
        <time>2014-05-03T09:34:07Z</time>
      </trkpt>
      <trkpt lat="39.860924831803" lon="3.040817365582">
        <ele>51</ele>
        <time>2014-05-03T09:34:08Z</time>
      </trkpt>
      <trkpt lat="39.860819303682" lon="3.040897328908">
        <ele>49.2</ele>
        <time>2014-05-03T09:34:09Z</time>
      </trkpt>
      <trkpt lat="39.860725007307" lon="3.0409700838">
        <ele>47.4</ele>
        <time>2014-05-03T09:34:10Z</time>
      </trkpt>
      <trkpt lat="39.860639344289" lon="3.041036552267">
        <ele>45.8</ele>
        <time>2014-05-03T09:34:11Z</time>
      </trkpt>
      <trkpt lat="39.860562566085" lon="3.041096734309">
        <ele>44.2</ele>
        <time>2014-05-03T09:34:12Z</time>
      </trkpt>
      <trkpt lat="39.86049257722" lon="3.041153060677">
        <ele>42.6</ele>
        <time>2014-05-03T09:34:13Z</time>
      </trkpt>
      <trkpt lat="39.860429377694" lon="3.041204944638">
        <ele>41</ele>
        <time>2014-05-03T09:34:14Z</time>
      </trkpt>
      <trkpt lat="39.86036936329" lon="3.04125255383">
        <ele>39.4</ele>
        <time>2014-05-03T09:34:15Z</time>
      </trkpt>
      <trkpt lat="39.860304655022" lon="3.041285662335">
        <ele>39.4</ele>
        <time>2014-05-03T09:34:16Z</time>
      </trkpt>
      <trkpt lat="39.860104411431" lon="3.041234532745">
        <ele>39.4</ele>
        <time>2014-05-03T09:34:19Z</time>
      </trkpt>
      <trkpt lat="39.859989747039" lon="3.041115342127">
        <ele>39.4</ele>
        <time>2014-05-03T09:34:21Z</time>
      </trkpt>
      <trkpt lat="39.859875920837" lon="3.040993469301">
        <ele>39.4</ele>
        <time>2014-05-03T09:34:23Z</time>
      </trkpt>
      <trkpt lat="39.859817582813" lon="3.040929766861">
        <ele>39.4</ele>
        <time>2014-05-03T09:34:24Z</time>
      </trkpt>
      <trkpt lat="39.859582051423" lon="3.040692726729">
        <ele>39</ele>
        <time>2014-05-03T09:34:28Z</time>
      </trkpt>
      <trkpt lat="39.859522037019" lon="3.040629024289">
        <ele>38.6</ele>
        <time>2014-05-03T09:34:29Z</time>
      </trkpt>
      <trkpt lat="39.859459675683" lon="3.040561130899">
        <ele>38.2</ele>
        <time>2014-05-03T09:34:30Z</time>
      </trkpt>
      <trkpt lat="39.859397146709" lon="3.040492399319">
        <ele>37.8</ele>
        <time>2014-05-03T09:34:31Z</time>
      </trkpt>
      <trkpt lat="39.859329085681" lon="3.040419476789">
        <ele>37.2</ele>
        <time>2014-05-03T09:34:32Z</time>
      </trkpt>
      <trkpt lat="39.859263036309" lon="3.040352086313">
        <ele>37.2</ele>
        <time>2014-05-03T09:34:33Z</time>
      </trkpt>
      <trkpt lat="39.859196651661" lon="3.04028444438">
        <ele>36.8</ele>
        <time>2014-05-03T09:34:34Z</time>
      </trkpt>
      <trkpt lat="39.859130183194" lon="3.040216215714">
        <ele>36.4</ele>
        <time>2014-05-03T09:34:35Z</time>
      </trkpt>
      <trkpt lat="39.85906262508" lon="3.040146310668">
        <ele>36</ele>
        <time>2014-05-03T09:34:36Z</time>
      </trkpt>
      <trkpt lat="39.858995234604" lon="3.040077495269">
        <ele>35.6</ele>
        <time>2014-05-03T09:34:37Z</time>
      </trkpt>
      <trkpt lat="39.858930777793" lon="3.040003147816">
        <ele>35</ele>
        <time>2014-05-03T09:34:38Z</time>
      </trkpt>
      <trkpt lat="39.85886397405" lon="3.039932320761">
        <ele>35</ele>
        <time>2014-05-03T09:34:39Z</time>
      </trkpt>
      <trkpt lat="39.858798092316" lon="3.039846993019">
        <ele>35</ele>
        <time>2014-05-03T09:34:40Z</time>
      </trkpt>
      <trkpt lat="39.85867873406" lon="3.039684803254">
        <ele>35</ele>
        <time>2014-05-03T09:34:42Z</time>
      </trkpt>
      <trkpt lat="39.858499026124" lon="3.039489756441">
        <ele>35</ele>
        <time>2014-05-03T09:34:45Z</time>
      </trkpt>
      <trkpt lat="39.858393414184" lon="3.039370984918">
        <ele>35</ele>
        <time>2014-05-03T09:34:47Z</time>
      </trkpt>
      <trkpt lat="39.858243042898" lon="3.039207789325">
        <ele>35</ele>
        <time>2014-05-03T09:34:50Z</time>
      </trkpt>
      <trkpt lat="39.858191075118" lon="3.039150121853">
        <ele>35</ele>
        <time>2014-05-03T09:34:51Z</time>
      </trkpt>
      <trkpt lat="39.85804170966" lon="3.039008551562">
        <ele>35</ele>
        <time>2014-05-03T09:34:54Z</time>
      </trkpt>
      <trkpt lat="39.857988652233" lon="3.038979550188">
        <ele>35</ele>
        <time>2014-05-03T09:34:55Z</time>
      </trkpt>
      <trkpt lat="39.857938109376" lon="3.038947279873">
        <ele>35</ele>
        <time>2014-05-03T09:34:56Z</time>
      </trkpt>
      <trkpt lat="39.857888739985" lon="3.038913500816">
        <ele>35</ele>
        <time>2014-05-03T09:34:57Z</time>
      </trkpt>
      <trkpt lat="39.857833587083" lon="3.03888047613">
        <ele>35.6</ele>
        <time>2014-05-03T09:34:58Z</time>
      </trkpt>
      <trkpt lat="39.857776422525" lon="3.038837560802">
        <ele>36</ele>
        <time>2014-05-03T09:34:59Z</time>
      </trkpt>
      <trkpt lat="39.857718922691" lon="3.038785676841">
        <ele>36.4</ele>
        <time>2014-05-03T09:35:00Z</time>
      </trkpt>
      <trkpt lat="39.857663769789" lon="3.038731194491">
        <ele>36.8</ele>
        <time>2014-05-03T09:35:01Z</time>
      </trkpt>
      <trkpt lat="39.857609287439" lon="3.038678723797">
        <ele>37.2</ele>
        <time>2014-05-03T09:35:02Z</time>
      </trkpt>
      <trkpt lat="39.85739127422" lon="3.038469595392">
        <ele>37.2</ele>
        <time>2014-05-03T09:35:06Z</time>
      </trkpt>
      <trkpt lat="39.857337378603" lon="3.038421902381">
        <ele>37.2</ele>
        <time>2014-05-03T09:35:07Z</time>
      </trkpt>
      <trkpt lat="39.857131100044" lon="3.038234902192">
        <ele>37.2</ele>
        <time>2014-05-03T09:35:11Z</time>
      </trkpt>
      <trkpt lat="39.857032947995" lon="3.038145634957">
        <ele>37.2</ele>
        <time>2014-05-03T09:35:13Z</time>
      </trkpt>
      <trkpt lat="39.85693446067" lon="3.038052679686">
        <ele>37.2</ele>
        <time>2014-05-03T09:35:15Z</time>
      </trkpt>
      <trkpt lat="39.856700018927" lon="3.03781178388">
        <ele>37.2</ele>
        <time>2014-05-03T09:35:20Z</time>
      </trkpt>
      <trkpt lat="39.85661091933" lon="3.037697370945">
        <ele>37.2</ele>
        <time>2014-05-03T09:35:22Z</time>
      </trkpt>
      <trkpt lat="39.85650866015" lon="3.037593351566">
        <ele>37.2</ele>
        <time>2014-05-03T09:35:24Z</time>
      </trkpt>
      <trkpt lat="39.856327946386" lon="3.037448763791">
        <ele>37.2</ele>
        <time>2014-05-03T09:35:27Z</time>
      </trkpt>
      <trkpt lat="39.855983534115" lon="3.037242401413">
        <ele>37.2</ele>
        <time>2014-05-03T09:35:32Z</time>
      </trkpt>
      <trkpt lat="39.855915556906" lon="3.037212142754">
        <ele>37.2</ele>
        <time>2014-05-03T09:35:33Z</time>
      </trkpt>
      <trkpt lat="39.855785050723" lon="3.037159588241">
        <ele>37.2</ele>
        <time>2014-05-03T09:35:35Z</time>
      </trkpt>
      <trkpt lat="39.855732077115" lon="3.03711943894">
        <ele>37.2</ele>
        <time>2014-05-03T09:35:36Z</time>
      </trkpt>
      <trkpt lat="39.855691676357" lon="3.037069901911">
        <ele>37.2</ele>
        <time>2014-05-03T09:35:37Z</time>
      </trkpt>
      <trkpt lat="39.855623196234" lon="3.036960350478">
        <ele>37.2</ele>
        <time>2014-05-03T09:35:39Z</time>
      </trkpt>
      <trkpt lat="39.855524373633" lon="3.036818444911">
        <ele>37.2</ele>
        <time>2014-05-03T09:35:42Z</time>
      </trkpt>
      <trkpt lat="39.855413816372" lon="3.036657177155">
        <ele>37.2</ele>
        <time>2014-05-03T09:35:46Z</time>
      </trkpt>
      <trkpt lat="39.855406943214" lon="3.036602191891">
        <ele>37.2</ele>
        <time>2014-05-03T09:35:47Z</time>
      </trkpt>
      <trkpt lat="39.855458575718" lon="3.036428602742">
        <ele>37.2</ele>
        <time>2014-05-03T09:35:50Z</time>
      </trkpt>
      <trkpt lat="39.855487409454" lon="3.036369426528">
        <ele>37.2</ele>
        <time>2014-05-03T09:35:51Z</time>
      </trkpt>
      <trkpt lat="39.855548513505" lon="3.036240932001">
        <ele>37.2</ele>
        <time>2014-05-03T09:35:53Z</time>
      </trkpt>
      <trkpt lat="39.855609952832" lon="3.036110677275">
        <ele>37.2</ele>
        <time>2014-05-03T09:35:55Z</time>
      </trkpt>
      <trkpt lat="39.855642139328" lon="3.036041107505">
        <ele>37.2</ele>
        <time>2014-05-03T09:35:56Z</time>
      </trkpt>
      <trkpt lat="39.855706260863" lon="3.035909427856">
        <ele>37.2</ele>
        <time>2014-05-03T09:35:58Z</time>
      </trkpt>
      <trkpt lat="39.855797288297" lon="3.035711866473">
        <ele>37.2</ele>
        <time>2014-05-03T09:36:01Z</time>
      </trkpt>
      <trkpt lat="39.855877335442" lon="3.035503743896">
        <ele>37.2</ele>
        <time>2014-05-03T09:36:04Z</time>
      </trkpt>
      <trkpt lat="39.855944809737" lon="3.035300231364">
        <ele>37.2</ele>
        <time>2014-05-03T09:36:07Z</time>
      </trkpt>
      <trkpt lat="39.856021085027" lon="3.035013486565">
        <ele>37.6</ele>
        <time>2014-05-03T09:36:11Z</time>
      </trkpt>
      <trkpt lat="39.856034496067" lon="3.034938552379">
        <ele>38</ele>
        <time>2014-05-03T09:36:12Z</time>
      </trkpt>
      <trkpt lat="39.856045224899" lon="3.034871329541">
        <ele>38.4</ele>
        <time>2014-05-03T09:36:13Z</time>
      </trkpt>
      <trkpt lat="39.856054864084" lon="3.034807375644">
        <ele>38.8</ele>
        <time>2014-05-03T09:36:14Z</time>
      </trkpt>
      <trkpt lat="39.856067939848" lon="3.034741996824">
        <ele>39.2</ele>
        <time>2014-05-03T09:36:15Z</time>
      </trkpt>
      <trkpt lat="39.85610129981" lon="3.034613334659">
        <ele>39.2</ele>
        <time>2014-05-03T09:36:17Z</time>
      </trkpt>
      <trkpt lat="39.856114207936" lon="3.034548626391">
        <ele>39.2</ele>
        <time>2014-05-03T09:36:18Z</time>
      </trkpt>
      <trkpt lat="39.856179670575" lon="3.034359195451">
        <ele>39.2</ele>
        <time>2014-05-03T09:36:21Z</time>
      </trkpt>
      <trkpt lat="39.85620523537" lon="3.034298845771">
        <ele>40</ele>
        <time>2014-05-03T09:36:22Z</time>
      </trkpt>
      <trkpt lat="39.856234069106" lon="3.034237154987">
        <ele>40.4</ele>
        <time>2014-05-03T09:36:23Z</time>
      </trkpt>
      <trkpt lat="39.856266339421" lon="3.03417571566">
        <ele>40.8</ele>
        <time>2014-05-03T09:36:24Z</time>
      </trkpt>
      <trkpt lat="39.85630078903" lon="3.034117629093">
        <ele>41.2</ele>
        <time>2014-05-03T09:36:25Z</time>
      </trkpt>
      <trkpt lat="39.856372454275" lon="3.033998354656">
        <ele>41.2</ele>
        <time>2014-05-03T09:36:27Z</time>
      </trkpt>
      <trkpt lat="39.856603459439" lon="3.033601890786">
        <ele>41.2</ele>
        <time>2014-05-03T09:36:34Z</time>
      </trkpt>
      <trkpt lat="39.856722817695" lon="3.033464427626">
        <ele>41.6</ele>
        <time>2014-05-03T09:36:37Z</time>
      </trkpt>
      <trkpt lat="39.856763134634" lon="3.033418159538">
        <ele>42.2</ele>
        <time>2014-05-03T09:36:38Z</time>
      </trkpt>
      <trkpt lat="39.856805882324" lon="3.033372059088">
        <ele>42.6</ele>
        <time>2014-05-03T09:36:39Z</time>
      </trkpt>
      <trkpt lat="39.856849971118" lon="3.033332999434">
        <ele>43</ele>
        <time>2014-05-03T09:36:40Z</time>
      </trkpt>
      <trkpt lat="39.85688836022" lon="3.033291928124">
        <ele>43.4</ele>
        <time>2014-05-03T09:36:41Z</time>
      </trkpt>
      <trkpt lat="39.856994558893" lon="3.033143987589">
        <ele>43.4</ele>
        <time>2014-05-03T09:36:44Z</time>
      </trkpt>
      <trkpt lat="39.857116012624" lon="3.032961932721">
        <ele>43.8</ele>
        <time>2014-05-03T09:36:48Z</time>
      </trkpt>
      <trkpt lat="39.857141409781" lon="3.032916251366">
        <ele>44.2</ele>
        <time>2014-05-03T09:36:49Z</time>
      </trkpt>
      <trkpt lat="39.857158341219" lon="3.032870486192">
        <ele>44.6</ele>
        <time>2014-05-03T09:36:50Z</time>
      </trkpt>
      <trkpt lat="39.857169908241" lon="3.032825475389">
        <ele>45.2</ele>
        <time>2014-05-03T09:36:51Z</time>
      </trkpt>
      <trkpt lat="39.857175356476" lon="3.032776608912">
        <ele>45.6</ele>
        <time>2014-05-03T09:36:52Z</time>
      </trkpt>
      <trkpt lat="39.857178541598" lon="3.032666889841">
        <ele>45.6</ele>
        <time>2014-05-03T09:36:54Z</time>
      </trkpt>
      <trkpt lat="39.857176529942" lon="3.032562283729">
        <ele>46</ele>
        <time>2014-05-03T09:36:56Z</time>
      </trkpt>
      <trkpt lat="39.857176865218" lon="3.032510483587">
        <ele>46.4</ele>
        <time>2014-05-03T09:36:57Z</time>
      </trkpt>
      <trkpt lat="39.857174099191" lon="3.032458348169">
        <ele>47</ele>
        <time>2014-05-03T09:36:58Z</time>
      </trkpt>
      <trkpt lat="39.857172758087" lon="3.032406212751">
        <ele>47.4</ele>
        <time>2014-05-03T09:36:59Z</time>
      </trkpt>
      <trkpt lat="39.857175524114" lon="3.032352903867">
        <ele>47.8</ele>
        <time>2014-05-03T09:37:00Z</time>
      </trkpt>
      <trkpt lat="39.85717921215" lon="3.032173028293">
        <ele>47.8</ele>
        <time>2014-05-03T09:37:03Z</time>
      </trkpt>
      <trkpt lat="39.857185750032" lon="3.031856192473">
        <ele>48.2</ele>
        <time>2014-05-03T09:37:08Z</time>
      </trkpt>
      <trkpt lat="39.857181559082" lon="3.031799279372">
        <ele>48.6</ele>
        <time>2014-05-03T09:37:09Z</time>
      </trkpt>
      <trkpt lat="39.857182061996" lon="3.031742701547">
        <ele>49.2</ele>
        <time>2014-05-03T09:37:10Z</time>
      </trkpt>
      <trkpt lat="39.857185247118" lon="3.031686123722">
        <ele>50</ele>
        <time>2014-05-03T09:37:11Z</time>
      </trkpt>
      <trkpt lat="39.857186001489" lon="3.031326037298">
        <ele>50.4</ele>
        <time>2014-05-03T09:37:17Z</time>
      </trkpt>
      <trkpt lat="39.857189186611" lon="3.031274656251">
        <ele>50.8</ele>
        <time>2014-05-03T09:37:18Z</time>
      </trkpt>
      <trkpt lat="39.857191785" lon="3.031223023747">
        <ele>51.2</ele>
        <time>2014-05-03T09:37:19Z</time>
      </trkpt>
      <trkpt lat="39.857197484692" lon="3.031175163098">
        <ele>51.8</ele>
        <time>2014-05-03T09:37:20Z</time>
      </trkpt>
      <trkpt lat="39.857201591823" lon="3.031126715716">
        <ele>52.2</ele>
        <time>2014-05-03T09:37:21Z</time>
      </trkpt>
      <trkpt lat="39.857230844654" lon="3.03093192036">
        <ele>52.2</ele>
        <time>2014-05-03T09:37:25Z</time>
      </trkpt>
      <trkpt lat="39.857247021721" lon="3.030821530737">
        <ele>52.6</ele>
        <time>2014-05-03T09:37:27Z</time>
      </trkpt>
      <trkpt lat="39.857249452472" lon="3.030763527989">
        <ele>53</ele>
        <time>2014-05-03T09:37:28Z</time>
      </trkpt>
      <trkpt lat="39.857252637594" lon="3.030706531069">
        <ele>53.4</ele>
        <time>2014-05-03T09:37:29Z</time>
      </trkpt>
      <trkpt lat="39.857246602626" lon="3.030653725099">
        <ele>53.8</ele>
        <time>2014-05-03T09:37:30Z</time>
      </trkpt>
      <trkpt lat="39.857238639821" lon="3.030602260233">
        <ele>54.2</ele>
        <time>2014-05-03T09:37:31Z</time>
      </trkpt>
      <trkpt lat="39.857205782773" lon="3.030409476533">
        <ele>54.6</ele>
        <time>2014-05-03T09:37:35Z</time>
      </trkpt>
      <trkpt lat="39.857198825796" lon="3.030368740499">
        <ele>55.4</ele>
        <time>2014-05-03T09:37:36Z</time>
      </trkpt>
      <trkpt lat="39.857187677869" lon="3.030327920646">
        <ele>56</ele>
        <time>2014-05-03T09:37:37Z</time>
      </trkpt>
      <trkpt lat="39.857176949037" lon="3.030288944811">
        <ele>56.4</ele>
        <time>2014-05-03T09:37:38Z</time>
      </trkpt>
      <trkpt lat="39.857142415609" lon="3.030178303731">
        <ele>56.8</ele>
        <time>2014-05-03T09:37:41Z</time>
      </trkpt>
      <trkpt lat="39.857130261854" lon="3.030147123063">
        <ele>57.2</ele>
        <time>2014-05-03T09:37:42Z</time>
      </trkpt>
      <trkpt lat="39.857118778651" lon="3.030117367318">
        <ele>57.6</ele>
        <time>2014-05-03T09:37:43Z</time>
      </trkpt>
      <trkpt lat="39.857109055647" lon="3.030087695392">
        <ele>58</ele>
        <time>2014-05-03T09:37:44Z</time>
      </trkpt>
      <trkpt lat="39.857106876353" lon="3.030055844172">
        <ele>58.4</ele>
        <time>2014-05-03T09:37:45Z</time>
      </trkpt>
      <trkpt lat="39.857082317386" lon="3.02998476566">
        <ele>58.4</ele>
        <time>2014-05-03T09:37:48Z</time>
      </trkpt>
      <trkpt lat="39.857013082892" lon="3.029831963623">
        <ele>58.4</ele>
        <time>2014-05-03T09:37:55Z</time>
      </trkpt>
      <trkpt lat="39.857011238874" lon="3.029826850664">
        <ele>58.4</ele>
        <time>2014-05-03T09:37:58Z</time>
      </trkpt>
      <trkpt lat="39.857011238874" lon="3.029826850664">
        <ele>58.4</ele>
        <time>2014-05-03T09:37:59Z</time>
      </trkpt>
      <trkpt lat="39.857011238874" lon="3.029826850664">
        <ele>58.4</ele>
        <time>2014-05-03T09:38:04Z</time>
      </trkpt>
      <trkpt lat="39.857011238874" lon="3.029826850664">
        <ele>58.4</ele>
        <time>2014-05-03T09:38:09Z</time>
      </trkpt>
      <trkpt lat="39.857011238874" lon="3.029826850664">
        <ele>58.4</ele>
        <time>2014-05-03T09:38:10Z</time>
      </trkpt>
      <trkpt lat="39.857011238874" lon="3.029826850664">
        <ele>58.4</ele>
        <time>2014-05-03T09:38:12Z</time>
      </trkpt>
      <trkpt lat="39.857011238874" lon="3.029826850664">
        <ele>58.4</ele>
        <time>2014-05-03T09:38:16Z</time>
      </trkpt>
      <trkpt lat="39.857011238874" lon="3.029826850664">
        <ele>58.4</ele>
        <time>2014-05-03T09:38:18Z</time>
      </trkpt>
      <trkpt lat="39.857011238874" lon="3.029826850664">
        <ele>58.4</ele>
        <time>2014-05-03T09:38:20Z</time>
      </trkpt>
      <trkpt lat="39.857011238874" lon="3.029826850664">
        <ele>58.4</ele>
        <time>2014-05-03T09:38:22Z</time>
      </trkpt>
      <trkpt lat="39.857011238874" lon="3.029826850664">
        <ele>58.4</ele>
        <time>2014-05-03T09:38:29Z</time>
      </trkpt>
      <trkpt lat="39.857001012956" lon="3.029800782955">
        <ele>58.4</ele>
        <time>2014-05-03T09:38:37Z</time>
      </trkpt>
      <trkpt lat="39.856994139798" lon="3.029798184566">
        <ele>58.4</ele>
        <time>2014-05-03T09:38:41Z</time>
      </trkpt>
      <trkpt lat="39.856989948848" lon="3.029797094919">
        <ele>58.4</ele>
        <time>2014-05-03T09:38:44Z</time>
      </trkpt>
      <trkpt lat="39.856972346858" lon="3.029789802666">
        <ele>58.4</ele>
        <time>2014-05-03T09:38:45Z</time>
      </trkpt>
      <trkpt lat="39.856956588886" lon="3.029791814322">
        <ele>58.4</ele>
        <time>2014-05-03T09:38:46Z</time>
      </trkpt>
      <trkpt lat="39.856910236979" lon="3.029813104348">
        <ele>58.4</ele>
        <time>2014-05-03T09:38:48Z</time>
      </trkpt>
      <trkpt lat="39.856791633094" lon="3.029983592194">
        <ele>58.4</ele>
        <time>2014-05-03T09:38:52Z</time>
      </trkpt>
      <trkpt lat="39.856675292322" lon="3.030164054501">
        <ele>58.4</ele>
        <time>2014-05-03T09:38:55Z</time>
      </trkpt>
      <trkpt lat="39.856586108906" lon="3.030305038059">
        <ele>58.4</ele>
        <time>2014-05-03T09:38:57Z</time>
      </trkpt>
      <trkpt lat="39.856538332076" lon="3.030383073548">
        <ele>58</ele>
        <time>2014-05-03T09:38:58Z</time>
      </trkpt>
      <trkpt lat="39.856487202486" lon="3.030462785417">
        <ele>57.4</ele>
        <time>2014-05-03T09:38:59Z</time>
      </trkpt>
      <trkpt lat="39.856433390688" lon="3.030546520598">
        <ele>57</ele>
        <time>2014-05-03T09:39:00Z</time>
      </trkpt>
      <trkpt lat="39.856376980501" lon="3.030629585227">
        <ele>56.6</ele>
        <time>2014-05-03T09:39:01Z</time>
      </trkpt>
      <trkpt lat="39.856318223382" lon="3.030715248245">
        <ele>56</ele>
        <time>2014-05-03T09:39:02Z</time>
      </trkpt>
      <trkpt lat="39.856257454607" lon="3.030804934575">
        <ele>55.4</ele>
        <time>2014-05-03T09:39:03Z</time>
      </trkpt>
      <trkpt lat="39.856191908149" lon="3.030896129647">
        <ele>54.8</ele>
        <time>2014-05-03T09:39:04Z</time>
      </trkpt>
      <trkpt lat="39.85612225456" lon="3.03099059366">
        <ele>54</ele>
        <time>2014-05-03T09:39:05Z</time>
      </trkpt>
      <trkpt lat="39.856047068917" lon="3.031089248623">
        <ele>53.4</ele>
        <time>2014-05-03T09:39:06Z</time>
      </trkpt>
      <trkpt lat="39.855964171926" lon="3.03118924469">
        <ele>52.8</ele>
        <time>2014-05-03T09:39:07Z</time>
      </trkpt>
      <trkpt lat="39.855884124781" lon="3.031284211617">
        <ele>52</ele>
        <time>2014-05-03T09:39:08Z</time>
      </trkpt>
      <trkpt lat="39.855802485075" lon="3.031380435829">
        <ele>51.2</ele>
        <time>2014-05-03T09:39:09Z</time>
      </trkpt>
      <trkpt lat="39.855721432102" lon="3.031473474919">
        <ele>50.4</ele>
        <time>2014-05-03T09:39:10Z</time>
      </trkpt>
      <trkpt lat="39.855639205663" lon="3.031563161249">
        <ele>49.6</ele>
        <time>2014-05-03T09:39:11Z</time>
      </trkpt>
      <trkpt lat="39.855555470482" lon="3.031651003561">
        <ele>48.8</ele>
        <time>2014-05-03T09:39:12Z</time>
      </trkpt>
      <trkpt lat="39.855471567663" lon="3.031737923864">
        <ele>47.8</ele>
        <time>2014-05-03T09:39:13Z</time>
      </trkpt>
      <trkpt lat="39.855387413387" lon="3.031827861651">
        <ele>47</ele>
        <time>2014-05-03T09:39:14Z</time>
      </trkpt>
      <trkpt lat="39.855300241627" lon="3.031921319836">
        <ele>46.2</ele>
        <time>2014-05-03T09:39:15Z</time>
      </trkpt>
      <trkpt lat="39.855219188654" lon="3.032009581243">
        <ele>45.8</ele>
        <time>2014-05-03T09:39:16Z</time>
      </trkpt>
      <trkpt lat="39.855140063518" lon="3.032095998632">
        <ele>45.4</ele>
        <time>2014-05-03T09:39:17Z</time>
      </trkpt>
      <trkpt lat="39.855062279486" lon="3.032180152908">
        <ele>45</ele>
        <time>2014-05-03T09:39:18Z</time>
      </trkpt>
      <trkpt lat="39.85498818349" lon="3.032261624976">
        <ele>44.4</ele>
        <time>2014-05-03T09:39:19Z</time>
      </trkpt>
      <trkpt lat="39.854916434426" lon="3.03234427051">
        <ele>44</ele>
        <time>2014-05-03T09:39:20Z</time>
      </trkpt>
      <trkpt lat="39.85484066205" lon="3.032424150017">
        <ele>44</ele>
        <time>2014-05-03T09:39:21Z</time>
      </trkpt>
      <trkpt lat="39.854699175578" lon="3.032572174371">
        <ele>44</ele>
        <time>2014-05-03T09:39:23Z</time>
      </trkpt>
      <trkpt lat="39.854559281667" lon="3.032720701639">
        <ele>44</ele>
        <time>2014-05-03T09:39:25Z</time>
      </trkpt>
      <trkpt lat="39.854360882094" lon="3.032934188632">
        <ele>44</ele>
        <time>2014-05-03T09:39:28Z</time>
      </trkpt>
      <trkpt lat="39.854297347292" lon="3.033000824737">
        <ele>44</ele>
        <time>2014-05-03T09:39:29Z</time>
      </trkpt>
      <trkpt lat="39.854231968472" lon="3.033065365367">
        <ele>44.4</ele>
        <time>2014-05-03T09:39:30Z</time>
      </trkpt>
      <trkpt lat="39.85417011005" lon="3.033128481074">
        <ele>45</ele>
        <time>2014-05-03T09:39:31Z</time>
      </trkpt>
      <trkpt lat="39.854110263284" lon="3.033192267333">
        <ele>45.4</ele>
        <time>2014-05-03T09:39:32Z</time>
      </trkpt>
      <trkpt lat="39.854053350183" lon="3.033250689176">
        <ele>45.8</ele>
        <time>2014-05-03T09:39:33Z</time>
      </trkpt>
      <trkpt lat="39.853998784014" lon="3.033309446295">
        <ele>46.2</ele>
        <time>2014-05-03T09:39:34Z</time>
      </trkpt>
      <trkpt lat="39.853945894225" lon="3.033369712156">
        <ele>46.2</ele>
        <time>2014-05-03T09:39:35Z</time>
      </trkpt>
      <trkpt lat="39.85389266916" lon="3.033429475103">
        <ele>46.6</ele>
        <time>2014-05-03T09:39:36Z</time>
      </trkpt>
      <trkpt lat="39.853838773543" lon="3.033487394032">
        <ele>47.2</ele>
        <time>2014-05-03T09:39:37Z</time>
      </trkpt>
      <trkpt lat="39.853782698632" lon="3.033547156979">
        <ele>47.6</ele>
        <time>2014-05-03T09:39:38Z</time>
      </trkpt>
      <trkpt lat="39.853728719196" lon="3.033606333193">
        <ele>48</ele>
        <time>2014-05-03T09:39:39Z</time>
      </trkpt>
      <trkpt lat="39.853676248502" lon="3.033661150819">
        <ele>48.6</ele>
        <time>2014-05-03T09:39:40Z</time>
      </trkpt>
      <trkpt lat="39.853519590791" lon="3.033825603697">
        <ele>49</ele>
        <time>2014-05-03T09:39:43Z</time>
      </trkpt>
      <trkpt lat="39.85346854502" lon="3.033881846246">
        <ele>49.4</ele>
        <time>2014-05-03T09:39:44Z</time>
      </trkpt>
      <trkpt lat="39.853413643575" lon="3.033938843166">
        <ele>49.8</ele>
        <time>2014-05-03T09:39:45Z</time>
      </trkpt>
      <trkpt lat="39.853362597804" lon="3.033985865625">
        <ele>50.4</ele>
        <time>2014-05-03T09:39:46Z</time>
      </trkpt>
      <trkpt lat="39.853311216757" lon="3.03403070879">
        <ele>50.8</ele>
        <time>2014-05-03T09:39:47Z</time>
      </trkpt>
      <trkpt lat="39.853202168238" lon="3.034117629093">
        <ele>50.8</ele>
        <time>2014-05-03T09:39:49Z</time>
      </trkpt>
      <trkpt lat="39.853143746395" lon="3.034156688747">
        <ele>50.8</ele>
        <time>2014-05-03T09:39:50Z</time>
      </trkpt>
      <trkpt lat="39.852905029883" lon="3.034283758351">
        <ele>50.8</ele>
        <time>2014-05-03T09:39:54Z</time>
      </trkpt>
      <trkpt lat="39.85253061041" lon="3.034395740535">
        <ele>50.8</ele>
        <time>2014-05-03T09:40:01Z</time>
      </trkpt>
      <trkpt lat="39.852462130287" lon="3.034400518218">
        <ele>51.2</ele>
        <time>2014-05-03T09:40:02Z</time>
      </trkpt>
      <trkpt lat="39.852390129766" lon="3.034401440227">
        <ele>51.6</ele>
        <time>2014-05-03T09:40:03Z</time>
      </trkpt>
      <trkpt lat="39.852320308539" lon="3.034398087467">
        <ele>52</ele>
        <time>2014-05-03T09:40:04Z</time>
      </trkpt>
      <trkpt lat="39.852252666606" lon="3.034391884861">
        <ele>52.8</ele>
        <time>2014-05-03T09:40:05Z</time>
      </trkpt>
      <trkpt lat="39.852116712188" lon="3.034368583179">
        <ele>52.8</ele>
        <time>2014-05-03T09:40:07Z</time>
      </trkpt>
      <trkpt lat="39.851668196719" lon="3.034219720635">
        <ele>52.8</ele>
        <time>2014-05-03T09:40:14Z</time>
      </trkpt>
      <trkpt lat="39.851534673052" lon="3.034155263824">
        <ele>52.4</ele>
        <time>2014-05-03T09:40:16Z</time>
      </trkpt>
      <trkpt lat="39.851468539861" lon="3.034120814215">
        <ele>52</ele>
        <time>2014-05-03T09:40:17Z</time>
      </trkpt>
      <trkpt lat="39.851402993403" lon="3.034085945511">
        <ele>51.6</ele>
        <time>2014-05-03T09:40:18Z</time>
      </trkpt>
      <trkpt lat="39.851341805533" lon="3.034051998816">
        <ele>51.2</ele>
        <time>2014-05-03T09:40:19Z</time>
      </trkpt>
      <trkpt lat="39.851280533844" lon="3.034017716845">
        <ele>50.8</ele>
        <time>2014-05-03T09:40:20Z</time>
      </trkpt>
      <trkpt lat="39.851219010698" lon="3.033982429046">
        <ele>50.8</ele>
        <time>2014-05-03T09:40:21Z</time>
      </trkpt>
      <trkpt lat="39.85077879331" lon="3.03373818048">
        <ele>50.8</ele>
        <time>2014-05-03T09:40:28Z</time>
      </trkpt>
      <trkpt lat="39.850520798428" lon="3.033631646531">
        <ele>50.8</ele>
        <time>2014-05-03T09:40:32Z</time>
      </trkpt>
      <trkpt lat="39.850332960049" lon="3.033565597159">
        <ele>50.8</ele>
        <time>2014-05-03T09:40:35Z</time>
      </trkpt>
      <trkpt lat="39.850072702054" lon="3.033492926086">
        <ele>50.8</ele>
        <time>2014-05-03T09:40:39Z</time>
      </trkpt>
      <trkpt lat="39.849743041927" lon="3.033433414596">
        <ele>50.8</ele>
        <time>2014-05-03T09:40:44Z</time>
      </trkpt>
      <trkpt lat="39.849471636005" lon="3.033399886996">
        <ele>50.8</ele>
        <time>2014-05-03T09:40:48Z</time>
      </trkpt>
      <trkpt lat="39.849215149865" lon="3.03338697887">
        <ele>50.8</ele>
        <time>2014-05-03T09:40:52Z</time>
      </trkpt>
      <trkpt lat="39.848903007909" lon="3.03337272964">
        <ele>51.2</ele>
        <time>2014-05-03T09:40:57Z</time>
      </trkpt>
      <trkpt lat="39.848845591894" lon="3.033367113767">
        <ele>51.6</ele>
        <time>2014-05-03T09:40:58Z</time>
      </trkpt>
      <trkpt lat="39.848785661309" lon="3.033361665532">
        <ele>52</ele>
        <time>2014-05-03T09:40:59Z</time>
      </trkpt>
      <trkpt lat="39.84872774238" lon="3.033358983324">
        <ele>52.4</ele>
        <time>2014-05-03T09:41:00Z</time>
      </trkpt>
      <trkpt lat="39.848670577822" lon="3.03335596584">
        <ele>52.8</ele>
        <time>2014-05-03T09:41:01Z</time>
      </trkpt>
      <trkpt lat="39.848610647237" lon="3.033354457098">
        <ele>52.8</ele>
        <time>2014-05-03T09:41:02Z</time>
      </trkpt>
      <trkpt lat="39.848218039041" lon="3.033322941154">
        <ele>52.8</ele>
        <time>2014-05-03T09:41:09Z</time>
      </trkpt>
      <trkpt lat="39.848051825964" lon="3.03329980711">
        <ele>53.2</ele>
        <time>2014-05-03T09:41:12Z</time>
      </trkpt>
      <trkpt lat="39.84799767889" lon="3.033293353047">
        <ele>53.6</ele>
        <time>2014-05-03T09:41:13Z</time>
      </trkpt>
      <trkpt lat="39.847945124377" lon="3.033284300595">
        <ele>54</ele>
        <time>2014-05-03T09:41:14Z</time>
      </trkpt>
      <trkpt lat="39.847892318407" lon="3.033276756885">
        <ele>54.4</ele>
        <time>2014-05-03T09:41:15Z</time>
      </trkpt>
      <trkpt lat="39.84783842279" lon="3.033268710261">
        <ele>54.8</ele>
        <time>2014-05-03T09:41:16Z</time>
      </trkpt>
      <trkpt lat="39.847784694811" lon="3.033260160723">
        <ele>54.8</ele>
        <time>2014-05-03T09:41:17Z</time>
      </trkpt>
      <trkpt lat="39.847476073253" lon="3.033184053071">
        <ele>55.2</ele>
        <time>2014-05-03T09:41:23Z</time>
      </trkpt>
      <trkpt lat="39.84742351874" lon="3.033170977307">
        <ele>55.6</ele>
        <time>2014-05-03T09:41:24Z</time>
      </trkpt>
      <trkpt lat="39.847368952571" lon="3.033156392801">
        <ele>56</ele>
        <time>2014-05-03T09:41:25Z</time>
      </trkpt>
      <trkpt lat="39.847315895144" lon="3.033143484675">
        <ele>56.6</ele>
        <time>2014-05-03T09:41:26Z</time>
      </trkpt>
      <trkpt lat="39.847262334803" lon="3.033127726703">
        <ele>57</ele>
        <time>2014-05-03T09:41:27Z</time>
      </trkpt>
      <trkpt lat="39.846954048521" lon="3.033004345135">
        <ele>57</ele>
        <time>2014-05-03T09:41:33Z</time>
      </trkpt>
      <trkpt lat="39.846761097183" lon="3.032911641321">
        <ele>57.4</ele>
        <time>2014-05-03T09:41:37Z</time>
      </trkpt>
      <trkpt lat="39.846712063068" lon="3.032884819241">
        <ele>57.8</ele>
        <time>2014-05-03T09:41:38Z</time>
      </trkpt>
      <trkpt lat="39.846663950962" lon="3.032855650229">
        <ele>58.2</ele>
        <time>2014-05-03T09:41:39Z</time>
      </trkpt>
      <trkpt lat="39.846616090313" lon="3.032826313579">
        <ele>58.6</ele>
        <time>2014-05-03T09:41:40Z</time>
      </trkpt>
      <trkpt lat="39.846567056198" lon="3.032794043264">
        <ele>59</ele>
        <time>2014-05-03T09:41:41Z</time>
      </trkpt>
      <trkpt lat="39.846474352384" lon="3.032734280317">
        <ele>59</ele>
        <time>2014-05-03T09:41:43Z</time>
      </trkpt>
      <trkpt lat="39.846196492399" lon="3.0325295105">
        <ele>59.4</ele>
        <time>2014-05-03T09:41:49Z</time>
      </trkpt>
      <trkpt lat="39.846150811044" lon="3.032494641796">
        <ele>59.8</ele>
        <time>2014-05-03T09:41:50Z</time>
      </trkpt>
      <trkpt lat="39.846104962051" lon="3.032459605454">
        <ele>60.2</ele>
        <time>2014-05-03T09:41:51Z</time>
      </trkpt>
      <trkpt lat="39.846060202705" lon="3.032423395646">
        <ele>60.6</ele>
        <time>2014-05-03T09:41:52Z</time>
      </trkpt>
      <trkpt lat="39.846015946273" lon="3.032386347648">
        <ele>61</ele>
        <time>2014-05-03T09:41:53Z</time>
      </trkpt>
      <trkpt lat="39.845714700787" lon="3.032122904531">
        <ele>61</ele>
        <time>2014-05-03T09:42:00Z</time>
      </trkpt>
      <trkpt lat="39.845589726658" lon="3.032019807161">
        <ele>61.4</ele>
        <time>2014-05-03T09:42:03Z</time>
      </trkpt>
      <trkpt lat="39.845549493538" lon="3.031982675344">
        <ele>61.8</ele>
        <time>2014-05-03T09:42:04Z</time>
      </trkpt>
      <trkpt lat="39.845510098608" lon="3.031948058097">
        <ele>62.2</ele>
        <time>2014-05-03T09:42:05Z</time>
      </trkpt>
      <trkpt lat="39.845471793325" lon="3.031914195221">
        <ele>62.6</ele>
        <time>2014-05-03T09:42:06Z</time>
      </trkpt>
      <trkpt lat="39.845432146938" lon="3.03188075144">
        <ele>63</ele>
        <time>2014-05-03T09:42:07Z</time>
      </trkpt>
      <trkpt lat="39.845354362906" lon="3.031809421471">
        <ele>63</ele>
        <time>2014-05-03T09:42:09Z</time>
      </trkpt>
      <trkpt lat="39.845314884157" lon="3.031773379301">
        <ele>64</ele>
        <time>2014-05-03T09:42:10Z</time>
      </trkpt>
      <trkpt lat="39.845273477571" lon="3.031737085674">
        <ele>64.4</ele>
        <time>2014-05-03T09:42:11Z</time>
      </trkpt>
      <trkpt lat="39.845234250279" lon="3.031698696572">
        <ele>64.8</ele>
        <time>2014-05-03T09:42:12Z</time>
      </trkpt>
      <trkpt lat="39.845195190625" lon="3.031662905859">
        <ele>65.2</ele>
        <time>2014-05-03T09:42:13Z</time>
      </trkpt>
      <trkpt lat="39.845038700552" lon="3.031531729124">
        <ele>65.2</ele>
        <time>2014-05-03T09:42:17Z</time>
      </trkpt>
      <trkpt lat="39.84485698096" lon="3.031367611522">
        <ele>65.6</ele>
        <time>2014-05-03T09:42:22Z</time>
      </trkpt>
      <trkpt lat="39.844817921306" lon="3.031335005931">
        <ele>66</ele>
        <time>2014-05-03T09:42:23Z</time>
      </trkpt>
      <trkpt lat="39.844778274919" lon="3.031302819435">
        <ele>66.6</ele>
        <time>2014-05-03T09:42:24Z</time>
      </trkpt>
      <trkpt lat="39.84473711979" lon="3.031271052034">
        <ele>67</ele>
        <time>2014-05-03T09:42:25Z</time>
      </trkpt>
      <trkpt lat="39.844696216118" lon="3.031234255493">
        <ele>67.4</ele>
        <time>2014-05-03T09:42:26Z</time>
      </trkpt>
      <trkpt lat="39.844655480084" lon="3.031202488092">
        <ele>67.4</ele>
        <time>2014-05-03T09:42:27Z</time>
      </trkpt>
      <trkpt lat="39.844538049665" lon="3.031100648007">
        <ele>67.4</ele>
        <time>2014-05-03T09:42:30Z</time>
      </trkpt>
      <trkpt lat="39.84436831619" lon="3.030977685534">
        <ele>67.4</ele>
        <time>2014-05-03T09:42:34Z</time>
      </trkpt>
      <trkpt lat="39.844279970964" lon="3.030917922587">
        <ele>67.8</ele>
        <time>2014-05-03T09:42:36Z</time>
      </trkpt>
      <trkpt lat="39.844235546894" lon="3.03088917267">
        <ele>68.4</ele>
        <time>2014-05-03T09:42:37Z</time>
      </trkpt>
      <trkpt lat="39.844190871367" lon="3.030856650898">
        <ele>68.8</ele>
        <time>2014-05-03T09:42:38Z</time>
      </trkpt>
      <trkpt lat="39.844144100365" lon="3.030827398067">
        <ele>69.2</ele>
        <time>2014-05-03T09:42:39Z</time>
      </trkpt>
      <trkpt lat="39.844098586648" lon="3.030796804132">
        <ele>69.6</ele>
        <time>2014-05-03T09:42:40Z</time>
      </trkpt>
      <trkpt lat="39.844050474542" lon="3.030773753907">
        <ele>69.6</ele>
        <time>2014-05-03T09:42:41Z</time>
      </trkpt>
      <trkpt lat="39.843913346658" lon="3.030700077006">
        <ele>69.6</ele>
        <time>2014-05-03T09:42:44Z</time>
      </trkpt>
      <trkpt lat="39.843577567744" lon="3.030549789539">
        <ele>69.6</ele>
        <time>2014-05-03T09:42:51Z</time>
      </trkpt>
      <trkpt lat="39.843530545285" lon="3.030526152581">
        <ele>69.6</ele>
        <time>2014-05-03T09:42:52Z</time>
      </trkpt>
      <trkpt lat="39.843387717709" lon="3.03046672491">
        <ele>70</ele>
        <time>2014-05-03T09:42:55Z</time>
      </trkpt>
      <trkpt lat="39.843335247015" lon="3.030449542015">
        <ele>70.4</ele>
        <time>2014-05-03T09:42:56Z</time>
      </trkpt>
      <trkpt lat="39.843287134909" lon="3.030426910885">
        <ele>70.8</ele>
        <time>2014-05-03T09:42:57Z</time>
      </trkpt>
      <trkpt lat="39.843237849337" lon="3.030405453221">
        <ele>71.2</ele>
        <time>2014-05-03T09:42:58Z</time>
      </trkpt>
      <trkpt lat="39.843187557937" lon="3.030382738272">
        <ele>71.6</ele>
        <time>2014-05-03T09:42:59Z</time>
      </trkpt>
      <trkpt lat="39.843086136947" lon="3.030332279234">
        <ele>71.6</ele>
        <time>2014-05-03T09:43:01Z</time>
      </trkpt>
      <trkpt lat="39.842982536663" lon="3.030282490748">
        <ele>71.6</ele>
        <time>2014-05-03T09:43:03Z</time>
      </trkpt>
      <trkpt lat="39.842613397787" lon="3.030134466394">
        <ele>71.6</ele>
        <time>2014-05-03T09:43:10Z</time>
      </trkpt>
      <trkpt lat="39.842442071751" lon="3.030061627683">
        <ele>71.6</ele>
        <time>2014-05-03T09:43:13Z</time>
      </trkpt>
      <trkpt lat="39.842272003" lon="3.029995075397">
        <ele>71.6</ele>
        <time>2014-05-03T09:43:16Z</time>
      </trkpt>
      <trkpt lat="39.842153147658" lon="3.029945873644">
        <ele>71.6</ele>
        <time>2014-05-03T09:43:18Z</time>
      </trkpt>
      <trkpt lat="39.842029179357" lon="3.029897342443">
        <ele>71.6</ele>
        <time>2014-05-03T09:43:20Z</time>
      </trkpt>
      <trkpt lat="39.841643863414" lon="3.029730710271">
        <ele>71.2</ele>
        <time>2014-05-03T09:43:26Z</time>
      </trkpt>
      <trkpt lat="39.841578065499" lon="3.029699361965">
        <ele>70.8</ele>
        <time>2014-05-03T09:43:27Z</time>
      </trkpt>
      <trkpt lat="39.84151092648" lon="3.029674132446">
        <ele>70.2</ele>
        <time>2014-05-03T09:43:28Z</time>
      </trkpt>
      <trkpt lat="39.84144387128" lon="3.029650244031">
        <ele>69.8</ele>
        <time>2014-05-03T09:43:29Z</time>
      </trkpt>
      <trkpt lat="39.841374972062" lon="3.029623086675">
        <ele>69.4</ele>
        <time>2014-05-03T09:43:30Z</time>
      </trkpt>
      <trkpt lat="39.841221331835" lon="3.029570196886">
        <ele>68.8</ele>
        <time>2014-05-03T09:43:32Z</time>
      </trkpt>
      <trkpt lat="39.841141452328" lon="3.029537591295">
        <ele>68.4</ele>
        <time>2014-05-03T09:43:33Z</time>
      </trkpt>
      <trkpt lat="39.841055370215" lon="3.029506494446">
        <ele>67.8</ele>
        <time>2014-05-03T09:43:34Z</time>
      </trkpt>
      <trkpt lat="39.840969707197" lon="3.029480510556">
        <ele>67.4</ele>
        <time>2014-05-03T09:43:35Z</time>
      </trkpt>
      <trkpt lat="39.840884882369" lon="3.029454275209">
        <ele>66.8</ele>
        <time>2014-05-03T09:43:36Z</time>
      </trkpt>
      <trkpt lat="39.840797962066" lon="3.029428375138">
        <ele>66.4</ele>
        <time>2014-05-03T09:43:37Z</time>
      </trkpt>
      <trkpt lat="39.8407045877" lon="3.029403313257">
        <ele>66</ele>
        <time>2014-05-03T09:43:38Z</time>
      </trkpt>
      <trkpt lat="39.840609285497" lon="3.029384118706">
        <ele>65.6</ele>
        <time>2014-05-03T09:43:39Z</time>
      </trkpt>
      <trkpt lat="39.840512474552" lon="3.029361236119">
        <ele>65.2</ele>
        <time>2014-05-03T09:43:40Z</time>
      </trkpt>
      <trkpt lat="39.840413903408" lon="3.029341287197">
        <ele>64.6</ele>
        <time>2014-05-03T09:43:41Z</time>
      </trkpt>
      <trkpt lat="39.840308375287" lon="3.029322847017">
        <ele>64</ele>
        <time>2014-05-03T09:43:42Z</time>
      </trkpt>
      <trkpt lat="39.84020586465" lon="3.029303903923">
        <ele>63.2</ele>
        <time>2014-05-03T09:43:43Z</time>
      </trkpt>
      <trkpt lat="39.8401010909" lon="3.029290828159">
        <ele>62.4</ele>
        <time>2014-05-03T09:43:44Z</time>
      </trkpt>
      <trkpt lat="39.839992545295" lon="3.02928403882">
        <ele>61.6</ele>
        <time>2014-05-03T09:43:45Z</time>
      </trkpt>
      <trkpt lat="39.839886598079" lon="3.029279764051">
        <ele>60.8</ele>
        <time>2014-05-03T09:43:46Z</time>
      </trkpt>
      <trkpt lat="39.839779393578" lon="3.029282278621">
        <ele>60.2</ele>
        <time>2014-05-03T09:43:47Z</time>
      </trkpt>
      <trkpt lat="39.839672356715" lon="3.029290073788">
        <ele>58.8</ele>
        <time>2014-05-03T09:43:48Z</time>
      </trkpt>
      <trkpt lat="39.839565152214" lon="3.029299712973">
        <ele>58.2</ele>
        <time>2014-05-03T09:43:49Z</time>
      </trkpt>
      <trkpt lat="39.839452248021" lon="3.029308430149">
        <ele>57.6</ele>
        <time>2014-05-03T09:43:50Z</time>
      </trkpt>
      <trkpt lat="39.839120995333" lon="3.029339024084">
        <ele>57</ele>
        <time>2014-05-03T09:43:53Z</time>
      </trkpt>
      <trkpt lat="39.839007839683" lon="3.02934690307">
        <ele>56.6</ele>
        <time>2014-05-03T09:43:54Z</time>
      </trkpt>
      <trkpt lat="39.838892840015" lon="3.029353692409">
        <ele>56</ele>
        <time>2014-05-03T09:43:55Z</time>
      </trkpt>
      <trkpt lat="39.838777924166" lon="3.029361655214">
        <ele>55.6</ele>
        <time>2014-05-03T09:43:56Z</time>
      </trkpt>
      <trkpt lat="39.838657476263" lon="3.029371797313">
        <ele>55</ele>
        <time>2014-05-03T09:43:57Z</time>
      </trkpt>
      <trkpt lat="39.83854289569" lon="3.029380598308">
        <ele>54.4</ele>
        <time>2014-05-03T09:43:58Z</time>
      </trkpt>
      <trkpt lat="39.838426638737" lon="3.029391662416">
        <ele>53.8</ele>
        <time>2014-05-03T09:43:59Z</time>
      </trkpt>
      <trkpt lat="39.838312058164" lon="3.029400128135">
        <ele>53.4</ele>
        <time>2014-05-03T09:44:00Z</time>
      </trkpt>
      <trkpt lat="39.838194963021" lon="3.029406833655">
        <ele>52.8</ele>
        <time>2014-05-03T09:44:01Z</time>
      </trkpt>
      <trkpt lat="39.838078035516" lon="3.029414712641">
        <ele>52.8</ele>
        <time>2014-05-03T09:44:02Z</time>
      </trkpt>
      <trkpt lat="39.837962365296" lon="3.029424770921">
        <ele>52.8</ele>
        <time>2014-05-03T09:44:03Z</time>
      </trkpt>
      <trkpt lat="39.837846946533" lon="3.029429967699">
        <ele>52.8</ele>
        <time>2014-05-03T09:44:04Z</time>
      </trkpt>
      <trkpt lat="39.837726079535" lon="3.029431224984">
        <ele>52.4</ele>
        <time>2014-05-03T09:44:05Z</time>
      </trkpt>
      <trkpt lat="39.837611415143" lon="3.029428375138">
        <ele>52</ele>
        <time>2014-05-03T09:44:06Z</time>
      </trkpt>
      <trkpt lat="39.837496583113" lon="3.029426195844">
        <ele>51.6</ele>
        <time>2014-05-03T09:44:07Z</time>
      </trkpt>
      <trkpt lat="39.837384684748" lon="3.029422843084">
        <ele>51.2</ele>
        <time>2014-05-03T09:44:08Z</time>
      </trkpt>
      <trkpt lat="39.837271193822" lon="3.029420496152">
        <ele>50.8</ele>
        <time>2014-05-03T09:44:09Z</time>
      </trkpt>
      <trkpt lat="39.837051671861" lon="3.029406917474">
        <ele>50.8</ele>
        <time>2014-05-03T09:44:11Z</time>
      </trkpt>
      <trkpt lat="39.836826785484" lon="3.029397278289">
        <ele>50.8</ele>
        <time>2014-05-03T09:44:13Z</time>
      </trkpt>
      <trkpt lat="39.836717150232" lon="3.029391243321">
        <ele>50.8</ele>
        <time>2014-05-03T09:44:14Z</time>
      </trkpt>
      <trkpt lat="39.83629319373" lon="3.029362912499">
        <ele>50.8</ele>
        <time>2014-05-03T09:44:18Z</time>
      </trkpt>
      <trkpt lat="39.836188671437" lon="3.029356206979">
        <ele>50.8</ele>
        <time>2014-05-03T09:44:19Z</time>
      </trkpt>
      <trkpt lat="39.835879630784" lon="3.029345059052">
        <ele>50.8</ele>
        <time>2014-05-03T09:44:22Z</time>
      </trkpt>
      <trkpt lat="39.835781143459" lon="3.029338018256">
        <ele>50.8</ele>
        <time>2014-05-03T09:44:23Z</time>
      </trkpt>
      <trkpt lat="39.835683075229" lon="3.029334665496">
        <ele>50.8</ele>
        <time>2014-05-03T09:44:24Z</time>
      </trkpt>
      <trkpt lat="39.835585342275" lon="3.029327708519">
        <ele>50.8</ele>
        <time>2014-05-03T09:44:25Z</time>
      </trkpt>
      <trkpt lat="39.835010343935" lon="3.029284960829">
        <ele>50.8</ele>
        <time>2014-05-03T09:44:31Z</time>
      </trkpt>
      <trkpt lat="39.834916718112" lon="3.029281859526">
        <ele>50.8</ele>
        <time>2014-05-03T09:44:32Z</time>
      </trkpt>
      <trkpt lat="39.834824181936" lon="3.029276327472">
        <ele>50.8</ele>
        <time>2014-05-03T09:44:33Z</time>
      </trkpt>
      <trkpt lat="39.834635589186" lon="3.029262581156">
        <ele>50.8</ele>
        <time>2014-05-03T09:44:35Z</time>
      </trkpt>
      <trkpt lat="39.834180787292" lon="3.029231903402">
        <ele>50.8</ele>
        <time>2014-05-03T09:44:40Z</time>
      </trkpt>
      <trkpt lat="39.833594473387" lon="3.02919435249">
        <ele>51.2</ele>
        <time>2014-05-03T09:44:47Z</time>
      </trkpt>
      <trkpt lat="39.833513839509" lon="3.029190496816">
        <ele>51.6</ele>
        <time>2014-05-03T09:44:48Z</time>
      </trkpt>
      <trkpt lat="39.83343412764" lon="3.029185467676">
        <ele>52</ele>
        <time>2014-05-03T09:44:49Z</time>
      </trkpt>
      <trkpt lat="39.833356930341" lon="3.029184210391">
        <ele>52.4</ele>
        <time>2014-05-03T09:44:50Z</time>
      </trkpt>
      <trkpt lat="39.833280990327" lon="3.029178175423">
        <ele>52.8</ele>
        <time>2014-05-03T09:44:51Z</time>
      </trkpt>
      <trkpt lat="39.833051996819" lon="3.029163004184">
        <ele>52.8</ele>
        <time>2014-05-03T09:44:54Z</time>
      </trkpt>
      <trkpt lat="39.83268059483" lon="3.029148419678">
        <ele>53.4</ele>
        <time>2014-05-03T09:44:59Z</time>
      </trkpt>
      <trkpt lat="39.832535923236" lon="3.029140205416">
        <ele>54.6</ele>
        <time>2014-05-03T09:45:00Z</time>
      </trkpt>
      <trkpt lat="39.832406674338" lon="3.029129895679">
        <ele>55</ele>
        <time>2014-05-03T09:45:03Z</time>
      </trkpt>
      <trkpt lat="39.832090844346" lon="3.02910634254">
        <ele>55</ele>
        <time>2014-05-03T09:45:08Z</time>
      </trkpt>
      <trkpt lat="39.831910968772" lon="3.029091925672">
        <ele>55</ele>
        <time>2014-05-03T09:45:11Z</time>
      </trkpt>
      <trkpt lat="39.831793538353" lon="3.029083208496">
        <ele>55</ele>
        <time>2014-05-03T09:45:13Z</time>
      </trkpt>
      <trkpt lat="39.83156664032" lon="3.029062589022">
        <ele>55</ele>
        <time>2014-05-03T09:45:17Z</time>
      </trkpt>
      <trkpt lat="39.831509811038" lon="3.029055632045">
        <ele>55</ele>
        <time>2014-05-03T09:45:18Z</time>
      </trkpt>
      <trkpt lat="39.831329264912" lon="3.029042723919">
        <ele>55.6</ele>
        <time>2014-05-03T09:45:21Z</time>
      </trkpt>
      <trkpt lat="39.831265897748" lon="3.029038030055">
        <ele>56</ele>
        <time>2014-05-03T09:45:22Z</time>
      </trkpt>
      <trkpt lat="39.831203955507" lon="3.029033252372">
        <ele>56.4</ele>
        <time>2014-05-03T09:45:23Z</time>
      </trkpt>
      <trkpt lat="39.831142432361" lon="3.029029564336">
        <ele>56.8</ele>
        <time>2014-05-03T09:45:24Z</time>
      </trkpt>
      <trkpt lat="39.831080741577" lon="3.029030234888">
        <ele>57.2</ele>
        <time>2014-05-03T09:45:25Z</time>
      </trkpt>
      <trkpt lat="39.831020894811" lon="3.029026798309">
        <ele>57.2</ele>
        <time>2014-05-03T09:45:26Z</time>
      </trkpt>
      <trkpt lat="39.830661143663" lon="3.02901246526">
        <ele>57.2</ele>
        <time>2014-05-03T09:45:32Z</time>
      </trkpt>
      <trkpt lat="39.830362245109" lon="3.028980027307">
        <ele>57.2</ele>
        <time>2014-05-03T09:45:37Z</time>
      </trkpt>
      <trkpt lat="39.830175077282" lon="3.028968125009">
        <ele>57.2</ele>
        <time>2014-05-03T09:45:40Z</time>
      </trkpt>
      <trkpt lat="39.829728992564" lon="3.028931579925">
        <ele>57.2</ele>
        <time>2014-05-03T09:45:47Z</time>
      </trkpt>
      <trkpt lat="39.829351639426" lon="3.028913139745">
        <ele>57.2</ele>
        <time>2014-05-03T09:45:53Z</time>
      </trkpt>
      <trkpt lat="39.828849731254" lon="3.028886569122">
        <ele>57.2</ele>
        <time>2014-05-03T09:46:01Z</time>
      </trkpt>
      <trkpt lat="39.828302141727" lon="3.028856478101">
        <ele>57.2</ele>
        <time>2014-05-03T09:46:10Z</time>
      </trkpt>
      <trkpt lat="39.828246234454" lon="3.028849102029">
        <ele>57.2</ele>
        <time>2014-05-03T09:46:11Z</time>
      </trkpt>
      <trkpt lat="39.828017911498" lon="3.028836696817">
        <ele>57.2</ele>
        <time>2014-05-03T09:46:15Z</time>
      </trkpt>
      <trkpt lat="39.827911880463" lon="3.02882806346">
        <ele>57.6</ele>
        <time>2014-05-03T09:46:17Z</time>
      </trkpt>
      <trkpt lat="39.827859493588" lon="3.028822866682">
        <ele>58.2</ele>
        <time>2014-05-03T09:46:18Z</time>
      </trkpt>
      <trkpt lat="39.827808112541" lon="3.028818424275">
        <ele>58.6</ele>
        <time>2014-05-03T09:46:19Z</time>
      </trkpt>
      <trkpt lat="39.827751450897" lon="3.028816161162">
        <ele>59.2</ele>
        <time>2014-05-03T09:46:20Z</time>
      </trkpt>
      <trkpt lat="39.827698058194" lon="3.028812221669">
        <ele>59.6</ele>
        <time>2014-05-03T09:46:21Z</time>
      </trkpt>
      <trkpt lat="39.82754165194" lon="3.028801828113">
        <ele>59.6</ele>
        <time>2014-05-03T09:46:24Z</time>
      </trkpt>
      <trkpt lat="39.82738910136" lon="3.028794871136">
        <ele>59.6</ele>
        <time>2014-05-03T09:46:27Z</time>
      </trkpt>
      <trkpt lat="39.827340402521" lon="3.028791099281">
        <ele>60</ele>
        <time>2014-05-03T09:46:28Z</time>
      </trkpt>
      <trkpt lat="39.827292206596" lon="3.028788919987">
        <ele>60.4</ele>
        <time>2014-05-03T09:46:29Z</time>
      </trkpt>
      <trkpt lat="39.827239652083" lon="3.028792943299">
        <ele>60.8</ele>
        <time>2014-05-03T09:46:30Z</time>
      </trkpt>
      <trkpt lat="39.827191539977" lon="3.028790177272">
        <ele>61.2</ele>
        <time>2014-05-03T09:46:31Z</time>
      </trkpt>
      <trkpt lat="39.827145271889" lon="3.028788333254">
        <ele>61.6</ele>
        <time>2014-05-03T09:46:32Z</time>
      </trkpt>
      <trkpt lat="39.827056759025" lon="3.028774586938">
        <ele>62.2</ele>
        <time>2014-05-03T09:46:34Z</time>
      </trkpt>
      <trkpt lat="39.827015184801" lon="3.028775006033">
        <ele>62.6</ele>
        <time>2014-05-03T09:46:35Z</time>
      </trkpt>
      <trkpt lat="39.82697335912" lon="3.028773832567">
        <ele>63</ele>
        <time>2014-05-03T09:46:36Z</time>
      </trkpt>
      <trkpt lat="39.826930443792" lon="3.02877693387">
        <ele>63.6</ele>
        <time>2014-05-03T09:46:37Z</time>
      </trkpt>
      <trkpt lat="39.826886354998" lon="3.028770815083">
        <ele>64</ele>
        <time>2014-05-03T09:46:38Z</time>
      </trkpt>
      <trkpt lat="39.826717878808" lon="3.028760253889">
        <ele>64</ele>
        <time>2014-05-03T09:46:42Z</time>
      </trkpt>
      <trkpt lat="39.826676220765" lon="3.028756984948">
        <ele>64.4</ele>
        <time>2014-05-03T09:46:43Z</time>
      </trkpt>
      <trkpt lat="39.826639172767" lon="3.028749944152">
        <ele>64.8</ele>
        <time>2014-05-03T09:46:44Z</time>
      </trkpt>
      <trkpt lat="39.826598855828" lon="3.028742148985">
        <ele>65.2</ele>
        <time>2014-05-03T09:46:45Z</time>
      </trkpt>
      <trkpt lat="39.826559796174" lon="3.028739131501">
        <ele>65.8</ele>
        <time>2014-05-03T09:46:46Z</time>
      </trkpt>
      <trkpt lat="39.826520233606" lon="3.028737371302">
        <ele>66.2</ele>
        <time>2014-05-03T09:46:47Z</time>
      </trkpt>
      <trkpt lat="39.826433983855" lon="3.02874005351">
        <ele>66.2</ele>
        <time>2014-05-03T09:46:49Z</time>
      </trkpt>
      <trkpt lat="39.826348153199" lon="3.028738712406">
        <ele>66.6</ele>
        <time>2014-05-03T09:46:51Z</time>
      </trkpt>
      <trkpt lat="39.826306076061" lon="3.028732593619">
        <ele>67</ele>
        <time>2014-05-03T09:46:52Z</time>
      </trkpt>
      <trkpt lat="39.826264837113" lon="3.028730749601">
        <ele>67.4</ele>
        <time>2014-05-03T09:46:53Z</time>
      </trkpt>
      <trkpt lat="39.826223765803" lon="3.028726391013">
        <ele>67.8</ele>
        <time>2014-05-03T09:46:54Z</time>
      </trkpt>
      <trkpt lat="39.826185125244" lon="3.028721026597">
        <ele>68.2</ele>
        <time>2014-05-03T09:46:55Z</time>
      </trkpt>
      <trkpt lat="39.826147322875" lon="3.028716500371">
        <ele>68.2</ele>
        <time>2014-05-03T09:46:56Z</time>
      </trkpt>
      <trkpt lat="39.825987144766" lon="3.028719182579">
        <ele>68.6</ele>
        <time>2014-05-03T09:47:00Z</time>
      </trkpt>
      <trkpt lat="39.825944397076" lon="3.028714991629">
        <ele>69</ele>
        <time>2014-05-03T09:47:01Z</time>
      </trkpt>
      <trkpt lat="39.825899553911" lon="3.028712309421">
        <ele>69.4</ele>
        <time>2014-05-03T09:47:02Z</time>
      </trkpt>
      <trkpt lat="39.825859739886" lon="3.028707531738">
        <ele>69.8</ele>
        <time>2014-05-03T09:47:03Z</time>
      </trkpt>
      <trkpt lat="39.825815567273" lon="3.028703676064">
        <ele>70.2</ele>
        <time>2014-05-03T09:47:04Z</time>
      </trkpt>
      <trkpt lat="39.825639631192" lon="3.028699736571">
        <ele>70.6</ele>
        <time>2014-05-03T09:47:08Z</time>
      </trkpt>
      <trkpt lat="39.825596799683" lon="3.028696132354">
        <ele>71</ele>
        <time>2014-05-03T09:47:09Z</time>
      </trkpt>
      <trkpt lat="39.825554135812" lon="3.028693617784">
        <ele>71.4</ele>
        <time>2014-05-03T09:47:10Z</time>
      </trkpt>
      <trkpt lat="39.825508286819" lon="3.028693617784">
        <ele>71.8</ele>
        <time>2014-05-03T09:47:11Z</time>
      </trkpt>
      <trkpt lat="39.825463611292" lon="3.02869227668">
        <ele>72.2</ele>
        <time>2014-05-03T09:47:12Z</time>
      </trkpt>
      <trkpt lat="39.825295135102" lon="3.028661515107">
        <ele>72.2</ele>
        <time>2014-05-03T09:47:16Z</time>
      </trkpt>
      <trkpt lat="39.825209639722" lon="3.028645170402">
        <ele>72.2</ele>
        <time>2014-05-03T09:47:18Z</time>
      </trkpt>
      <trkpt lat="39.825021130791" lon="3.028619521788">
        <ele>72.2</ele>
        <time>2014-05-03T09:47:22Z</time>
      </trkpt>
      <trkpt lat="39.824974443608" lon="3.028619102693">
        <ele>72.2</ele>
        <time>2014-05-03T09:47:23Z</time>
      </trkpt>
      <trkpt lat="39.824745533919" lon="3.028596471563">
        <ele>72.2</ele>
        <time>2014-05-03T09:47:28Z</time>
      </trkpt>
      <trkpt lat="39.824696751261" lon="3.028584066351">
        <ele>72.2</ele>
        <time>2014-05-03T09:47:29Z</time>
      </trkpt>
      <trkpt lat="39.824593905348" lon="3.028563782153">
        <ele>72.2</ele>
        <time>2014-05-03T09:47:31Z</time>
      </trkpt>
      <trkpt lat="39.824496926765" lon="3.028531428019">
        <ele>72.2</ele>
        <time>2014-05-03T09:47:33Z</time>
      </trkpt>
      <trkpt lat="39.824301628495" lon="3.028488764148">
        <ele>72.2</ele>
        <time>2014-05-03T09:47:37Z</time>
      </trkpt>
      <trkpt lat="39.824040448491" lon="3.028457164385">
        <ele>72.2</ele>
        <time>2014-05-03T09:47:42Z</time>
      </trkpt>
      <trkpt lat="39.823930813239" lon="3.02843998149">
        <ele>72.2</ele>
        <time>2014-05-03T09:47:44Z</time>
      </trkpt>
      <trkpt lat="39.823709866355" lon="3.028391869384">
        <ele>72.2</ele>
        <time>2014-05-03T09:47:48Z</time>
      </trkpt>
      <trkpt lat="39.823534181731" lon="3.028350546617">
        <ele>72.2</ele>
        <time>2014-05-03T09:47:51Z</time>
      </trkpt>
      <trkpt lat="39.823232936245" lon="3.028282569408">
        <ele>72.2</ele>
        <time>2014-05-03T09:47:56Z</time>
      </trkpt>
      <trkpt lat="39.823171999832" lon="3.028271337662">
        <ele>72.2</ele>
        <time>2014-05-03T09:47:57Z</time>
      </trkpt>
      <trkpt lat="39.822990783154" lon="3.028216017122">
        <ele>72.2</ele>
        <time>2014-05-03T09:48:00Z</time>
      </trkpt>
      <trkpt lat="39.822870251432" lon="3.02818433354">
        <ele>72.2</ele>
        <time>2014-05-03T09:48:02Z</time>
      </trkpt>
      <trkpt lat="39.822807051906" lon="3.028162205324">
        <ele>72.2</ele>
        <time>2014-05-03T09:48:03Z</time>
      </trkpt>
      <trkpt lat="39.822676294266" lon="3.028130018828">
        <ele>72.2</ele>
        <time>2014-05-03T09:48:05Z</time>
      </trkpt>
      <trkpt lat="39.822607395048" lon="3.028108812621">
        <ele>72.2</ele>
        <time>2014-05-03T09:48:06Z</time>
      </trkpt>
      <trkpt lat="39.822470015707" lon="3.028070255881">
        <ele>72.2</ele>
        <time>2014-05-03T09:48:08Z</time>
      </trkpt>
      <trkpt lat="39.822399021014" lon="3.028046367466">
        <ele>71.8</ele>
        <time>2014-05-03T09:48:09Z</time>
      </trkpt>
      <trkpt lat="39.822326601398" lon="3.028019713024">
        <ele>71.4</ele>
        <time>2014-05-03T09:48:10Z</time>
      </trkpt>
      <trkpt lat="39.822250409927" lon="3.02799657898">
        <ele>71</ele>
        <time>2014-05-03T09:48:11Z</time>
      </trkpt>
      <trkpt lat="39.822174134637" lon="3.027970846547">
        <ele>70.6</ele>
        <time>2014-05-03T09:48:12Z</time>
      </trkpt>
      <trkpt lat="39.822097188795" lon="3.0279446112">
        <ele>70.2</ele>
        <time>2014-05-03T09:48:13Z</time>
      </trkpt>
      <trkpt lat="39.822008424474" lon="3.027916028921">
        <ele>69.8</ele>
        <time>2014-05-03T09:48:14Z</time>
      </trkpt>
      <trkpt lat="39.821924354017" lon="3.027891721411">
        <ele>69.2</ele>
        <time>2014-05-03T09:48:15Z</time>
      </trkpt>
      <trkpt lat="39.821837182257" lon="3.027871521032">
        <ele>68.8</ele>
        <time>2014-05-03T09:48:16Z</time>
      </trkpt>
      <trkpt lat="39.821752692705" lon="3.027844447495">
        <ele>68.4</ele>
        <time>2014-05-03T09:48:17Z</time>
      </trkpt>
      <trkpt lat="39.821671052999" lon="3.027810165524">
        <ele>68</ele>
        <time>2014-05-03T09:48:18Z</time>
      </trkpt>
      <trkpt lat="39.821583126868" lon="3.027779403951">
        <ele>67.6</ele>
        <time>2014-05-03T09:48:19Z</time>
      </trkpt>
      <trkpt lat="39.821494446366" lon="3.027750737853">
        <ele>67.2</ele>
        <time>2014-05-03T09:48:20Z</time>
      </trkpt>
      <trkpt lat="39.821403502751" lon="3.027721233565">
        <ele>66.2</ele>
        <time>2014-05-03T09:48:21Z</time>
      </trkpt>
      <trkpt lat="39.821315995715" lon="3.027697261331">
        <ele>65.8</ele>
        <time>2014-05-03T09:48:22Z</time>
      </trkpt>
      <trkpt lat="39.821228740136" lon="3.027672534726">
        <ele>65.4</ele>
        <time>2014-05-03T09:48:23Z</time>
      </trkpt>
      <trkpt lat="39.821142741842" lon="3.027644036266">
        <ele>65</ele>
        <time>2014-05-03T09:48:24Z</time>
      </trkpt>
      <trkpt lat="39.821055234806" lon="3.027619561118">
        <ele>64.4</ele>
        <time>2014-05-03T09:48:25Z</time>
      </trkpt>
      <trkpt lat="39.820966721942" lon="3.027597013807">
        <ele>64</ele>
        <time>2014-05-03T09:48:26Z</time>
      </trkpt>
      <trkpt lat="39.820881561838" lon="3.027565246406">
        <ele>63.6</ele>
        <time>2014-05-03T09:48:27Z</time>
      </trkpt>
      <trkpt lat="39.820794138621" lon="3.027534484833">
        <ele>63.6</ele>
        <time>2014-05-03T09:48:28Z</time>
      </trkpt>
      <trkpt lat="39.820700848074" lon="3.027500957233">
        <ele>63.2</ele>
        <time>2014-05-03T09:48:29Z</time>
      </trkpt>
      <trkpt lat="39.82061149702" lon="3.027470698574">
        <ele>62.8</ele>
        <time>2014-05-03T09:48:30Z</time>
      </trkpt>
      <trkpt lat="39.820521559233" lon="3.027442283933">
        <ele>62.2</ele>
        <time>2014-05-03T09:48:31Z</time>
      </trkpt>
      <trkpt lat="39.820431034713" lon="3.027413869292">
        <ele>61.8</ele>
        <time>2014-05-03T09:48:32Z</time>
      </trkpt>
      <trkpt lat="39.820342102754" lon="3.027385873746">
        <ele>61.4</ele>
        <time>2014-05-03T09:48:33Z</time>
      </trkpt>
      <trkpt lat="39.82016138899" lon="3.027323931505">
        <ele>60.8</ele>
        <time>2014-05-03T09:48:35Z</time>
      </trkpt>
      <trkpt lat="39.820060638552" lon="3.02729249938">
        <ele>60.4</ele>
        <time>2014-05-03T09:48:36Z</time>
      </trkpt>
      <trkpt lat="39.819959636657" lon="3.027263581825">
        <ele>59.8</ele>
        <time>2014-05-03T09:48:37Z</time>
      </trkpt>
      <trkpt lat="39.819856790744" lon="3.02723885522">
        <ele>59.2</ele>
        <time>2014-05-03T09:48:38Z</time>
      </trkpt>
      <trkpt lat="39.819753944831" lon="3.02721370952">
        <ele>58.6</ele>
        <time>2014-05-03T09:48:39Z</time>
      </trkpt>
      <trkpt lat="39.819651015099" lon="3.027187474173">
        <ele>58</ele>
        <time>2014-05-03T09:48:40Z</time>
      </trkpt>
      <trkpt lat="39.81954615753" lon="3.027165765052">
        <ele>57.4</ele>
        <time>2014-05-03T09:48:41Z</time>
      </trkpt>
      <trkpt lat="39.819441802875" lon="3.027147073415">
        <ele>56.8</ele>
        <time>2014-05-03T09:48:42Z</time>
      </trkpt>
      <trkpt lat="39.819336274754" lon="3.027127878864">
        <ele>56.2</ele>
        <time>2014-05-03T09:48:43Z</time>
      </trkpt>
      <trkpt lat="39.819226974778" lon="3.027111031245">
        <ele>55.6</ele>
        <time>2014-05-03T09:48:44Z</time>
      </trkpt>
      <trkpt lat="39.819121949571" lon="3.027093764531">
        <ele>55</ele>
        <time>2014-05-03T09:48:45Z</time>
      </trkpt>
      <trkpt lat="39.81902145059" lon="3.027071049582">
        <ele>54.6</ele>
        <time>2014-05-03T09:48:46Z</time>
      </trkpt>
      <trkpt lat="39.818815339669" lon="3.027038276353">
        <ele>54</ele>
        <time>2014-05-03T09:48:48Z</time>
      </trkpt>
      <trkpt lat="39.81870880572" lon="3.027022015467">
        <ele>53.6</ele>
        <time>2014-05-03T09:48:49Z</time>
      </trkpt>
      <trkpt lat="39.818604115789" lon="3.02700667659">
        <ele>53.2</ele>
        <time>2014-05-03T09:48:50Z</time>
      </trkpt>
      <trkpt lat="39.818498252392" lon="3.026992930274">
        <ele>52.6</ele>
        <time>2014-05-03T09:48:51Z</time>
      </trkpt>
      <trkpt lat="39.81838777895" lon="3.026978345768">
        <ele>52.2</ele>
        <time>2014-05-03T09:48:52Z</time>
      </trkpt>
      <trkpt lat="39.818173621405" lon="3.026950098765">
        <ele>52.2</ele>
        <time>2014-05-03T09:48:54Z</time>
      </trkpt>
      <trkpt lat="39.817963738629" lon="3.026916403527">
        <ele>51.6</ele>
        <time>2014-05-03T09:48:56Z</time>
      </trkpt>
      <trkpt lat="39.81786139563" lon="3.026902824849">
        <ele>51</ele>
        <time>2014-05-03T09:48:57Z</time>
      </trkpt>
      <trkpt lat="39.817758549717" lon="3.026892263655">
        <ele>50.4</ele>
        <time>2014-05-03T09:48:58Z</time>
      </trkpt>
      <trkpt lat="39.817650926121" lon="3.026876254226">
        <ele>50</ele>
        <time>2014-05-03T09:48:59Z</time>
      </trkpt>
      <trkpt lat="39.817549756588" lon="3.026864435747">
        <ele>49.4</ele>
        <time>2014-05-03T09:49:00Z</time>
      </trkpt>
      <trkpt lat="39.81715480146" lon="3.02679293814">
        <ele>49.4</ele>
        <time>2014-05-03T09:49:04Z</time>
      </trkpt>
      <trkpt lat="39.817049021882" lon="3.026778605091">
        <ele>49.4</ele>
        <time>2014-05-03T09:49:05Z</time>
      </trkpt>
      <trkpt lat="39.816837798002" lon="3.02674683769">
        <ele>48.8</ele>
        <time>2014-05-03T09:49:07Z</time>
      </trkpt>
      <trkpt lat="39.81673151551" lon="3.026732420822">
        <ele>48.4</ele>
        <time>2014-05-03T09:49:08Z</time>
      </trkpt>
      <trkpt lat="39.816625568294" lon="3.026725296207">
        <ele>47.6</ele>
        <time>2014-05-03T09:49:09Z</time>
      </trkpt>
      <trkpt lat="39.816518196155" lon="3.026718087773">
        <ele>47</ele>
        <time>2014-05-03T09:49:10Z</time>
      </trkpt>
      <trkpt lat="39.816414931147" lon="3.026710879339">
        <ele>47</ele>
        <time>2014-05-03T09:49:11Z</time>
      </trkpt>
      <trkpt lat="39.816216112479" lon="3.026680704499">
        <ele>47</ele>
        <time>2014-05-03T09:49:13Z</time>
      </trkpt>
      <trkpt lat="39.816110500539" lon="3.026663437785">
        <ele>46.6</ele>
        <time>2014-05-03T09:49:14Z</time>
      </trkpt>
      <trkpt lat="39.816010839748" lon="3.02665296041">
        <ele>46.2</ele>
        <time>2014-05-03T09:49:15Z</time>
      </trkpt>
      <trkpt lat="39.8159109275" lon="3.026642231578">
        <ele>45.8</ele>
        <time>2014-05-03T09:49:16Z</time>
      </trkpt>
      <trkpt lat="39.815809422691" lon="3.026632340936">
        <ele>45.4</ele>
        <time>2014-05-03T09:49:17Z</time>
      </trkpt>
      <trkpt lat="39.815707414968" lon="3.026625132502">
        <ele>45</ele>
        <time>2014-05-03T09:49:18Z</time>
      </trkpt>
      <trkpt lat="39.815406672396" lon="3.026597136956">
        <ele>45</ele>
        <time>2014-05-03T09:49:21Z</time>
      </trkpt>
      <trkpt lat="39.815301311913" lon="3.026586240486">
        <ele>44.4</ele>
        <time>2014-05-03T09:49:22Z</time>
      </trkpt>
      <trkpt lat="39.815199220371" lon="3.026576014568">
        <ele>44</ele>
        <time>2014-05-03T09:49:23Z</time>
      </trkpt>
      <trkpt lat="39.815094781897" lon="3.026560927148">
        <ele>43.6</ele>
        <time>2014-05-03T09:49:24Z</time>
      </trkpt>
      <trkpt lat="39.814991852165" lon="3.026546091185">
        <ele>43.2</ele>
        <time>2014-05-03T09:49:25Z</time>
      </trkpt>
      <trkpt lat="39.814888084243" lon="3.026534607982">
        <ele>42.8</ele>
        <time>2014-05-03T09:49:26Z</time>
      </trkpt>
      <trkpt lat="39.814580217056" lon="3.026499655459">
        <ele>42.2</ele>
        <time>2014-05-03T09:49:29Z</time>
      </trkpt>
      <trkpt lat="39.814474353659" lon="3.026483478392">
        <ele>41.8</ele>
        <time>2014-05-03T09:49:30Z</time>
      </trkpt>
      <trkpt lat="39.814375279601" lon="3.026472330465">
        <ele>41.4</ele>
        <time>2014-05-03T09:49:31Z</time>
      </trkpt>
      <trkpt lat="39.814275283534" lon="3.026459757615">
        <ele>41</ele>
        <time>2014-05-03T09:49:32Z</time>
      </trkpt>
      <trkpt lat="39.814175538924" lon="3.026450202249">
        <ele>40.6</ele>
        <time>2014-05-03T09:49:33Z</time>
      </trkpt>
      <trkpt lat="39.813978564274" lon="3.026422793436">
        <ele>40.2</ele>
        <time>2014-05-03T09:49:35Z</time>
      </trkpt>
      <trkpt lat="39.813880998958" lon="3.026407873654">
        <ele>39.8</ele>
        <time>2014-05-03T09:49:36Z</time>
      </trkpt>
      <trkpt lat="39.813781505805" lon="3.026395468442">
        <ele>39.2</ele>
        <time>2014-05-03T09:49:37Z</time>
      </trkpt>
      <trkpt lat="39.813687544706" lon="3.026380967755">
        <ele>38.8</ele>
        <time>2014-05-03T09:49:38Z</time>
      </trkpt>
      <trkpt lat="39.813595595263" lon="3.026367221439">
        <ele>38.4</ele>
        <time>2014-05-03T09:49:39Z</time>
      </trkpt>
      <trkpt lat="39.81324715968" lon="3.026324054654">
        <ele>38.4</ele>
        <time>2014-05-03T09:49:43Z</time>
      </trkpt>
      <trkpt lat="39.813006096236" lon="3.026281055507">
        <ele>38.4</ele>
        <time>2014-05-03T09:49:46Z</time>
      </trkpt>
      <trkpt lat="39.812419949969" lon="3.026185418028">
        <ele>38.4</ele>
        <time>2014-05-03T09:49:53Z</time>
      </trkpt>
      <trkpt lat="39.81233437077" lon="3.026173683368">
        <ele>38.4</ele>
        <time>2014-05-03T09:49:54Z</time>
      </trkpt>
      <trkpt lat="39.812143766364" lon="3.026140574863">
        <ele>38.4</ele>
        <time>2014-05-03T09:49:56Z</time>
      </trkpt>
      <trkpt lat="39.811970009577" lon="3.02610729872">
        <ele>38.4</ele>
        <time>2014-05-03T09:49:58Z</time>
      </trkpt>
      <trkpt lat="39.811634817396" lon="3.026066981781">
        <ele>38.4</ele>
        <time>2014-05-03T09:50:02Z</time>
      </trkpt>
      <trkpt lat="39.811556111355" lon="3.026050553257">
        <ele>38.4</ele>
        <time>2014-05-03T09:50:03Z</time>
      </trkpt>
      <trkpt lat="39.811399118368" lon="3.026027000118">
        <ele>38.4</ele>
        <time>2014-05-03T09:50:05Z</time>
      </trkpt>
      <trkpt lat="39.811243131209" lon="3.025986431722">
        <ele>38.4</ele>
        <time>2014-05-03T09:50:07Z</time>
      </trkpt>
      <trkpt lat="39.811087898421" lon="3.025947539706">
        <ele>38.4</ele>
        <time>2014-05-03T09:50:09Z</time>
      </trkpt>
      <trkpt lat="39.810927636493" lon="3.025908982966">
        <ele>38.4</ele>
        <time>2014-05-03T09:50:11Z</time>
      </trkpt>
      <trkpt lat="39.810843649855" lon="3.025898505591">
        <ele>38</ele>
        <time>2014-05-03T09:50:12Z</time>
      </trkpt>
      <trkpt lat="39.810761842511" lon="3.025879981592">
        <ele>37.6</ele>
        <time>2014-05-03T09:50:13Z</time>
      </trkpt>
      <trkpt lat="39.810678191149" lon="3.02586170905">
        <ele>37</ele>
        <time>2014-05-03T09:50:14Z</time>
      </trkpt>
      <trkpt lat="39.810586409344" lon="3.025844861431">
        <ele>36.6</ele>
        <time>2014-05-03T09:50:15Z</time>
      </trkpt>
      <trkpt lat="39.810498315575" lon="3.025826421251">
        <ele>36.2</ele>
        <time>2014-05-03T09:50:16Z</time>
      </trkpt>
      <trkpt lat="39.810407120503" lon="3.025808400166">
        <ele>35.8</ele>
        <time>2014-05-03T09:50:17Z</time>
      </trkpt>
      <trkpt lat="39.810310225739" lon="3.025793983298">
        <ele>35.4</ele>
        <time>2014-05-03T09:50:18Z</time>
      </trkpt>
      <trkpt lat="39.81020788274" lon="3.025775794575">
        <ele>35</ele>
        <time>2014-05-03T09:50:19Z</time>
      </trkpt>
      <trkpt lat="39.810102606076" lon="3.025747212296">
        <ele>34.2</ele>
        <time>2014-05-03T09:50:20Z</time>
      </trkpt>
      <trkpt lat="39.809993054643" lon="3.025710583393">
        <ele>33.6</ele>
        <time>2014-05-03T09:50:21Z</time>
      </trkpt>
      <trkpt lat="39.809872439102" lon="3.025667584246">
        <ele>33</ele>
        <time>2014-05-03T09:50:22Z</time>
      </trkpt>
      <trkpt lat="39.809762468574" lon="3.025622070529">
        <ele>31.2</ele>
        <time>2014-05-03T09:50:23Z</time>
      </trkpt>
      <trkpt lat="39.809651827494" lon="3.025563900143">
        <ele>30.4</ele>
        <time>2014-05-03T09:50:24Z</time>
      </trkpt>
      <trkpt lat="39.809542527518" lon="3.025502879911">
        <ele>29.6</ele>
        <time>2014-05-03T09:50:25Z</time>
      </trkpt>
      <trkpt lat="39.809429958601" lon="3.025439428928">
        <ele>28.8</ele>
        <time>2014-05-03T09:50:26Z</time>
      </trkpt>
      <trkpt lat="39.809319066064" lon="3.025376313221">
        <ele>27.8</ele>
        <time>2014-05-03T09:50:27Z</time>
      </trkpt>
      <trkpt lat="39.809208844079" lon="3.025308084555">
        <ele>27</ele>
        <time>2014-05-03T09:50:28Z</time>
      </trkpt>
      <trkpt lat="39.809104154148" lon="3.025231557808">
        <ele>26.2</ele>
        <time>2014-05-03T09:50:29Z</time>
      </trkpt>
      <trkpt lat="39.808995943819" lon="3.025154444328">
        <ele>25.4</ele>
        <time>2014-05-03T09:50:30Z</time>
      </trkpt>
      <trkpt lat="39.808894774286" lon="3.025080599789">
        <ele>24.6</ele>
        <time>2014-05-03T09:50:31Z</time>
      </trkpt>
      <trkpt lat="39.808793688572" lon="3.025018573729">
        <ele>23.8</ele>
        <time>2014-05-03T09:50:32Z</time>
      </trkpt>
      <trkpt lat="39.808325894733" lon="3.024722357383">
        <ele>23.8</ele>
        <time>2014-05-03T09:50:37Z</time>
      </trkpt>
      <trkpt lat="39.807924066447" lon="3.024508199838">
        <ele>23.8</ele>
        <time>2014-05-03T09:50:42Z</time>
      </trkpt>
      <trkpt lat="39.80772516396" lon="3.024397810215">
        <ele>23.8</ele>
        <time>2014-05-03T09:50:45Z</time>
      </trkpt>
      <trkpt lat="39.807600189831" lon="3.024320612916">
        <ele>23.8</ele>
        <time>2014-05-03T09:50:47Z</time>
      </trkpt>
      <trkpt lat="39.807243037072" lon="3.024061947482">
        <ele>23.8</ele>
        <time>2014-05-03T09:50:53Z</time>
      </trkpt>
      <trkpt lat="39.807184279953" lon="3.024024731846">
        <ele>23.8</ele>
        <time>2014-05-03T09:50:54Z</time>
      </trkpt>
      <trkpt lat="39.807068023" lon="3.023945522891">
        <ele>24.2</ele>
        <time>2014-05-03T09:50:56Z</time>
      </trkpt>
      <trkpt lat="39.807007002768" lon="3.023903948667">
        <ele>24.6</ele>
        <time>2014-05-03T09:50:57Z</time>
      </trkpt>
      <trkpt lat="39.806943551785" lon="3.023861536253">
        <ele>25</ele>
        <time>2014-05-03T09:50:58Z</time>
      </trkpt>
      <trkpt lat="39.806876328947" lon="3.023821638409">
        <ele>25.4</ele>
        <time>2014-05-03T09:50:59Z</time>
      </trkpt>
      <trkpt lat="39.806801813856" lon="3.023779309814">
        <ele>26</ele>
        <time>2014-05-03T09:51:00Z</time>
      </trkpt>
      <trkpt lat="39.806544070431" lon="3.023612426185">
        <ele>26</ele>
        <time>2014-05-03T09:51:04Z</time>
      </trkpt>
      <trkpt lat="39.806477518145" lon="3.023566912468">
        <ele>26</ele>
        <time>2014-05-03T09:51:05Z</time>
      </trkpt>
      <trkpt lat="39.806185660387" lon="3.023390138197">
        <ele>25.6</ele>
        <time>2014-05-03T09:51:09Z</time>
      </trkpt>
      <trkpt lat="39.806116342074" lon="3.023346384679">
        <ele>25.2</ele>
        <time>2014-05-03T09:51:10Z</time>
      </trkpt>
      <trkpt lat="39.806046185571" lon="3.023303636989">
        <ele>24.6</ele>
        <time>2014-05-03T09:51:11Z</time>
      </trkpt>
      <trkpt lat="39.805979549466" lon="3.023257201263">
        <ele>24.2</ele>
        <time>2014-05-03T09:51:12Z</time>
      </trkpt>
      <trkpt lat="39.805910398791" lon="3.023210178804">
        <ele>23.8</ele>
        <time>2014-05-03T09:51:13Z</time>
      </trkpt>
      <trkpt lat="39.805627258209" lon="3.023015299629">
        <ele>23.8</ele>
        <time>2014-05-03T09:51:17Z</time>
      </trkpt>
      <trkpt lat="39.80548719666" lon="3.022929888068">
        <ele>23.8</ele>
        <time>2014-05-03T09:51:19Z</time>
      </trkpt>
      <trkpt lat="39.805348224758" lon="3.022840453195">
        <ele>23.4</ele>
        <time>2014-05-03T09:51:21Z</time>
      </trkpt>
      <trkpt lat="39.805275218409" lon="3.022790245614">
        <ele>23</ele>
        <time>2014-05-03T09:51:22Z</time>
      </trkpt>
      <trkpt lat="39.805202547336" lon="3.022739702757">
        <ele>22.6</ele>
        <time>2014-05-03T09:51:23Z</time>
      </trkpt>
      <trkpt lat="39.805129960082" lon="3.022694943411">
        <ele>22.2</ele>
        <time>2014-05-03T09:51:24Z</time>
      </trkpt>
      <trkpt lat="39.805058630113" lon="3.022644232916">
        <ele>21.8</ele>
        <time>2014-05-03T09:51:25Z</time>
      </trkpt>
      <trkpt lat="39.804986964868" lon="3.022592097498">
        <ele>21.8</ele>
        <time>2014-05-03T09:51:26Z</time>
      </trkpt>
      <trkpt lat="39.804692005807" lon="3.022395709581">
        <ele>21.8</ele>
        <time>2014-05-03T09:51:30Z</time>
      </trkpt>
      <trkpt lat="39.804251788419" lon="3.022110473524">
        <ele>21.8</ele>
        <time>2014-05-03T09:51:36Z</time>
      </trkpt>
      <trkpt lat="39.803751137532" lon="3.021783244148">
        <ele>21.8</ele>
        <time>2014-05-03T09:51:43Z</time>
      </trkpt>
      <trkpt lat="39.803530693562" lon="3.021635052156">
        <ele>21.8</ele>
        <time>2014-05-03T09:51:46Z</time>
      </trkpt>
      <trkpt lat="39.803100366816" lon="3.021316959051">
        <ele>21.8</ele>
        <time>2014-05-03T09:51:52Z</time>
      </trkpt>
      <trkpt lat="39.802948235331" lon="3.021225428703">
        <ele>21.8</ele>
        <time>2014-05-03T09:51:54Z</time>
      </trkpt>
      <trkpt lat="39.802420846183" lon="3.020884788287">
        <ele>21.8</ele>
        <time>2014-05-03T09:52:01Z</time>
      </trkpt>
      <trkpt lat="39.802350941137" lon="3.020833826335">
        <ele>21.4</ele>
        <time>2014-05-03T09:52:02Z</time>
      </trkpt>
      <trkpt lat="39.802277599512" lon="3.020791916835">
        <ele>20.6</ele>
        <time>2014-05-03T09:52:03Z</time>
      </trkpt>
      <trkpt lat="39.802202413869" lon="3.02075126462">
        <ele>20.2</ele>
        <time>2014-05-03T09:52:04Z</time>
      </trkpt>
      <trkpt lat="39.802124629837" lon="3.020713797527">
        <ele>19.6</ele>
        <time>2014-05-03T09:52:05Z</time>
      </trkpt>
      <trkpt lat="39.801964032633" lon="3.020642551377">
        <ele>19.6</ele>
        <time>2014-05-03T09:52:07Z</time>
      </trkpt>
      <trkpt lat="39.8013767129" lon="3.020414815154">
        <ele>19.6</ele>
        <time>2014-05-03T09:52:14Z</time>
      </trkpt>
      <trkpt lat="39.800758463956" lon="3.020304844626">
        <ele>19.6</ele>
        <time>2014-05-03T09:52:21Z</time>
      </trkpt>
      <trkpt lat="39.800499211789" lon="3.020294953984">
        <ele>19.6</ele>
        <time>2014-05-03T09:52:24Z</time>
      </trkpt>
      <trkpt lat="39.800253119205" lon="3.020313226526">
        <ele>19.6</ele>
        <time>2014-05-03T09:52:27Z</time>
      </trkpt>
      <trkpt lat="39.800174329345" lon="3.020324458272">
        <ele>19.6</ele>
        <time>2014-05-03T09:52:28Z</time>
      </trkpt>
      <trkpt lat="39.799598744272" lon="3.020397632259">
        <ele>19.6</ele>
        <time>2014-05-03T09:52:35Z</time>
      </trkpt>
      <trkpt lat="39.799445187864" lon="3.02042520871">
        <ele>19.6</ele>
        <time>2014-05-03T09:52:37Z</time>
      </trkpt>
      <trkpt lat="39.798945291348" lon="3.020513973031">
        <ele>19.6</ele>
        <time>2014-05-03T09:52:43Z</time>
      </trkpt>
      <trkpt lat="39.798778575357" lon="3.020541800939">
        <ele>19.6</ele>
        <time>2014-05-03T09:52:45Z</time>
      </trkpt>
      <trkpt lat="39.798191507081" lon="3.020660823919">
        <ele>19.6</ele>
        <time>2014-05-03T09:52:52Z</time>
      </trkpt>
      <trkpt lat="39.798110873203" lon="3.020670714561">
        <ele>19.6</ele>
        <time>2014-05-03T09:52:53Z</time>
      </trkpt>
      <trkpt lat="39.798028060031" lon="3.020683119773">
        <ele>19.2</ele>
        <time>2014-05-03T09:52:54Z</time>
      </trkpt>
      <trkpt lat="39.797939211891" lon="3.020699045383">
        <ele>18.6</ele>
        <time>2014-05-03T09:52:55Z</time>
      </trkpt>
      <trkpt lat="39.797855225253" lon="3.020713210794">
        <ele>18.2</ele>
        <time>2014-05-03T09:52:56Z</time>
      </trkpt>
      <trkpt lat="39.797772998814" lon="3.020728968766">
        <ele>17.6</ele>
        <time>2014-05-03T09:52:57Z</time>
      </trkpt>
      <trkpt lat="39.797690604737" lon="3.020743050358">
        <ele>17.2</ele>
        <time>2014-05-03T09:52:58Z</time>
      </trkpt>
      <trkpt lat="39.797348539398" lon="3.020799795821">
        <ele>17.2</ele>
        <time>2014-05-03T09:53:02Z</time>
      </trkpt>
      <trkpt lat="39.796767757547" lon="3.020888224866">
        <ele>17.2</ele>
        <time>2014-05-03T09:53:09Z</time>
      </trkpt>
      <trkpt lat="39.796684273823" lon="3.020887721952">
        <ele>17.2</ele>
        <time>2014-05-03T09:53:10Z</time>
      </trkpt>
      <trkpt lat="39.796526694103" lon="3.020858469121">
        <ele>17.2</ele>
        <time>2014-05-03T09:53:12Z</time>
      </trkpt>
      <trkpt lat="39.796297616776" lon="3.02077221937">
        <ele>17.2</ele>
        <time>2014-05-03T09:53:15Z</time>
      </trkpt>
      <trkpt lat="39.796231651223" lon="3.020728465852">
        <ele>16.6</ele>
        <time>2014-05-03T09:53:16Z</time>
      </trkpt>
      <trkpt lat="39.796169792801" lon="3.020683706506">
        <ele>15.8</ele>
        <time>2014-05-03T09:53:17Z</time>
      </trkpt>
      <trkpt lat="39.796094858615" lon="3.020667697077">
        <ele>15.2</ele>
        <time>2014-05-03T09:53:18Z</time>
      </trkpt>
      <trkpt lat="39.796026881406" lon="3.020693513329">
        <ele>14.8</ele>
        <time>2014-05-03T09:53:19Z</time>
      </trkpt>
      <trkpt lat="39.79591506686" lon="3.020833574878">
        <ele>14.8</ele>
        <time>2014-05-03T09:53:21Z</time>
      </trkpt>
      <trkpt lat="39.795863769632" lon="3.020895349481">
        <ele>14.8</ele>
        <time>2014-05-03T09:53:22Z</time>
      </trkpt>
      <trkpt lat="39.79579688207" lon="3.020937426619">
        <ele>14.8</ele>
        <time>2014-05-03T09:53:23Z</time>
      </trkpt>
      <trkpt lat="39.795725300644" lon="3.020961231215">
        <ele>14.8</ele>
        <time>2014-05-03T09:53:24Z</time>
      </trkpt>
      <trkpt lat="39.795580293774" lon="3.020908089969">
        <ele>14.8</ele>
        <time>2014-05-03T09:53:26Z</time>
      </trkpt>
      <trkpt lat="39.795440567501" lon="3.02084430371">
        <ele>14.8</ele>
        <time>2014-05-03T09:53:28Z</time>
      </trkpt>
      <trkpt lat="39.795310564232" lon="3.020784289306">
        <ele>14.8</ele>
        <time>2014-05-03T09:53:30Z</time>
      </trkpt>
      <trkpt lat="39.795180644782" lon="3.02072192797">
        <ele>14.8</ele>
        <time>2014-05-03T09:53:32Z</time>
      </trkpt>
      <trkpt lat="39.795049887142" lon="3.020686053438">
        <ele>14.8</ele>
        <time>2014-05-03T09:53:34Z</time>
      </trkpt>
      <trkpt lat="39.79498551415" lon="3.020682784497">
        <ele>14.8</ele>
        <time>2014-05-03T09:53:35Z</time>
      </trkpt>
      <trkpt lat="39.794918542769" lon="3.020678593547">
        <ele>15.2</ele>
        <time>2014-05-03T09:53:36Z</time>
      </trkpt>
      <trkpt lat="39.794851236112" lon="3.020674234959">
        <ele>15.6</ele>
        <time>2014-05-03T09:53:37Z</time>
      </trkpt>
      <trkpt lat="39.794783845636" lon="3.020675743701">
        <ele>16</ele>
        <time>2014-05-03T09:53:38Z</time>
      </trkpt>
      <trkpt lat="39.794715868427" lon="3.020681527212">
        <ele>16.6</ele>
        <time>2014-05-03T09:53:39Z</time>
      </trkpt>
      <trkpt lat="39.794652333625" lon="3.020698710107">
        <ele>17</ele>
        <time>2014-05-03T09:53:40Z</time>
      </trkpt>
      <trkpt lat="39.794587541538" lon="3.020724777816">
        <ele>17</ele>
        <time>2014-05-03T09:53:41Z</time>
      </trkpt>
      <trkpt lat="39.794478325381" lon="3.020798454717">
        <ele>17</ele>
        <time>2014-05-03T09:53:43Z</time>
      </trkpt>
      <trkpt lat="39.794369109224" lon="3.020830473575">
        <ele>17</ele>
        <time>2014-05-03T09:53:45Z</time>
      </trkpt>
      <trkpt lat="39.79420264469" lon="3.020764759479">
        <ele>17</ele>
        <time>2014-05-03T09:53:48Z</time>
      </trkpt>
      <trkpt lat="39.794150425453" lon="3.020729974594">
        <ele>17</ele>
        <time>2014-05-03T09:53:49Z</time>
      </trkpt>
      <trkpt lat="39.794092171248" lon="3.020709019844">
        <ele>17</ele>
        <time>2014-05-03T09:53:50Z</time>
      </trkpt>
      <trkpt lat="39.793979183236" lon="3.020700889401">
        <ele>17</ele>
        <time>2014-05-03T09:53:52Z</time>
      </trkpt>
      <trkpt lat="39.79387575059" lon="3.020715054812">
        <ele>17</ele>
        <time>2014-05-03T09:53:54Z</time>
      </trkpt>
      <trkpt lat="39.793787908278" lon="3.020752354267">
        <ele>17</ele>
        <time>2014-05-03T09:53:56Z</time>
      </trkpt>
      <trkpt lat="39.793740466724" lon="3.020791916835">
        <ele>17.4</ele>
        <time>2014-05-03T09:53:57Z</time>
      </trkpt>
      <trkpt lat="39.793699227776" lon="3.020840280398">
        <ele>17.8</ele>
        <time>2014-05-03T09:53:58Z</time>
      </trkpt>
      <trkpt lat="39.793660419579" lon="3.020897864051">
        <ele>18.2</ele>
        <time>2014-05-03T09:53:59Z</time>
      </trkpt>
      <trkpt lat="39.793630831472" lon="3.02095578298">
        <ele>18.6</ele>
        <time>2014-05-03T09:54:00Z</time>
      </trkpt>
      <trkpt lat="39.79360836798" lon="3.021014959194">
        <ele>19</ele>
        <time>2014-05-03T09:54:01Z</time>
      </trkpt>
      <trkpt lat="39.793588083782" lon="3.021271445334">
        <ele>19</ele>
        <time>2014-05-03T09:54:05Z</time>
      </trkpt>
      <trkpt lat="39.793593783474" lon="3.021333136118">
        <ele>19</ele>
        <time>2014-05-03T09:54:06Z</time>
      </trkpt>
      <trkpt lat="39.793606859238" lon="3.021395245997">
        <ele>19</ele>
        <time>2014-05-03T09:54:07Z</time>
      </trkpt>
      <trkpt lat="39.793631921119" lon="3.021571265897">
        <ele>19</ele>
        <time>2014-05-03T09:54:10Z</time>
      </trkpt>
      <trkpt lat="39.793515831804" lon="3.021699760424">
        <ele>19</ele>
        <time>2014-05-03T09:54:13Z</time>
      </trkpt>
      <trkpt lat="39.793406280371" lon="3.021718200604">
        <ele>19</ele>
        <time>2014-05-03T09:54:15Z</time>
      </trkpt>
      <trkpt lat="39.793358671179" lon="3.021716524224">
        <ele>19</ele>
        <time>2014-05-03T09:54:16Z</time>
      </trkpt>
      <trkpt lat="39.793318521878" lon="3.021702274994">
        <ele>19</ele>
        <time>2014-05-03T09:54:17Z</time>
      </trkpt>
      <trkpt lat="39.793230428109" lon="3.021677883665">
        <ele>19</ele>
        <time>2014-05-03T09:54:19Z</time>
      </trkpt>
      <trkpt lat="39.793195810862" lon="3.021641003305">
        <ele>19</ele>
        <time>2014-05-03T09:54:20Z</time>
      </trkpt>
      <trkpt lat="39.79316999461" lon="3.02154419236">
        <ele>19</ele>
        <time>2014-05-03T09:54:22Z</time>
      </trkpt>
      <trkpt lat="39.793165719841" lon="3.021504210697">
        <ele>19</ele>
        <time>2014-05-03T09:54:23Z</time>
      </trkpt>
      <trkpt lat="39.793153985181" lon="3.021442016999">
        <ele>19</ele>
        <time>2014-05-03T09:54:25Z</time>
      </trkpt>
      <trkpt lat="39.793154991009" lon="3.021413350901">
        <ele>19</ele>
        <time>2014-05-03T09:54:26Z</time>
      </trkpt>
      <trkpt lat="39.793170413705" lon="3.021187542515">
        <ele>19</ele>
        <time>2014-05-03T09:55:06Z</time>
      </trkpt>
      <trkpt lat="39.793174688474" lon="3.021098862013">
        <ele>19</ele>
        <time>2014-05-03T09:55:07Z</time>
      </trkpt>
      <trkpt lat="39.793181058718" lon="3.020925524321">
        <ele>18.2</ele>
        <time>2014-05-03T09:55:10Z</time>
      </trkpt>
      <trkpt lat="39.793175945759" lon="3.02083759819">
        <ele>17.8</ele>
        <time>2014-05-03T09:55:11Z</time>
      </trkpt>
      <trkpt lat="39.793166390393" lon="3.02074791186">
        <ele>17.4</ele>
        <time>2014-05-03T09:55:12Z</time>
      </trkpt>
      <trkpt lat="39.793152308801" lon="3.020657219702">
        <ele>17</ele>
        <time>2014-05-03T09:55:13Z</time>
      </trkpt>
      <trkpt lat="39.79312976149" lon="3.020561498404">
        <ele>16.4</ele>
        <time>2014-05-03T09:55:14Z</time>
      </trkpt>
      <trkpt lat="39.793100927754" lon="3.020465525649">
        <ele>15.8</ele>
        <time>2014-05-03T09:55:15Z</time>
      </trkpt>
      <trkpt lat="39.793065556136" lon="3.0203757555">
        <ele>15.2</ele>
        <time>2014-05-03T09:55:16Z</time>
      </trkpt>
      <trkpt lat="39.793023478998" lon="3.020290763034">
        <ele>14.4</ele>
        <time>2014-05-03T09:55:17Z</time>
      </trkpt>
      <trkpt lat="39.792978300557" lon="3.020211386441">
        <ele>13.8</ele>
        <time>2014-05-03T09:55:18Z</time>
      </trkpt>
      <trkpt lat="39.792928931166" lon="3.020129662916">
        <ele>13.2</ele>
        <time>2014-05-03T09:55:19Z</time>
      </trkpt>
      <trkpt lat="39.792884507096" lon="3.020052968531">
        <ele>12.6</ele>
        <time>2014-05-03T09:55:20Z</time>
      </trkpt>
      <trkpt lat="39.792841927044" lon="3.019978621078">
        <ele>12.6</ele>
        <time>2014-05-03T09:55:21Z</time>
      </trkpt>
      <trkpt lat="39.792720221856" lon="3.0197638768">
        <ele>12.6</ele>
        <time>2014-05-03T09:55:24Z</time>
      </trkpt>
      <trkpt lat="39.792636235218" lon="3.019612332048">
        <ele>12.6</ele>
        <time>2014-05-03T09:55:26Z</time>
      </trkpt>
      <trkpt lat="39.792552164761" lon="3.019464056237">
        <ele>12.6</ele>
        <time>2014-05-03T09:55:28Z</time>
      </trkpt>
      <trkpt lat="39.792469183951" lon="3.019323743231">
        <ele>12.6</ele>
        <time>2014-05-03T09:55:30Z</time>
      </trkpt>
      <trkpt lat="39.792428280279" lon="3.019253670547">
        <ele>12.6</ele>
        <time>2014-05-03T09:55:31Z</time>
      </trkpt>
      <trkpt lat="39.792226779403" lon="3.018891488648">
        <ele>12.6</ele>
        <time>2014-05-03T09:55:36Z</time>
      </trkpt>
      <trkpt lat="39.792151845217" lon="3.018745811226">
        <ele>12.6</ele>
        <time>2014-05-03T09:55:38Z</time>
      </trkpt>
      <trkpt lat="39.792072887719" lon="3.018602229279">
        <ele>12.6</ele>
        <time>2014-05-03T09:55:40Z</time>
      </trkpt>
      <trkpt lat="39.791954870567" lon="3.018380947119">
        <ele>12.6</ele>
        <time>2014-05-03T09:55:43Z</time>
      </trkpt>
      <trkpt lat="39.791871973576" lon="3.018243903054">
        <ele>12.6</ele>
        <time>2014-05-03T09:55:45Z</time>
      </trkpt>
      <trkpt lat="39.79183056699" lon="3.018174500922">
        <ele>12.6</ele>
        <time>2014-05-03T09:55:46Z</time>
      </trkpt>
      <trkpt lat="39.791705928137" lon="3.017959924282">
        <ele>12.6</ele>
        <time>2014-05-03T09:55:49Z</time>
      </trkpt>
      <trkpt lat="39.791591012288" lon="3.017769068419">
        <ele>12.6</ele>
        <time>2014-05-03T09:55:52Z</time>
      </trkpt>
      <trkpt lat="39.791306614421" lon="3.017297335087">
        <ele>12.6</ele>
        <time>2014-05-03T09:56:00Z</time>
      </trkpt>
      <trkpt lat="39.790936553536" lon="3.016689060604">
        <ele>12.6</ele>
        <time>2014-05-03T09:56:10Z</time>
      </trkpt>
      <trkpt lat="39.790750223899" lon="3.016384127082">
        <ele>13</ele>
        <time>2014-05-03T09:56:15Z</time>
      </trkpt>
      <trkpt lat="39.790708901132" lon="3.016320759918">
        <ele>13.4</ele>
        <time>2014-05-03T09:56:16Z</time>
      </trkpt>
      <trkpt lat="39.790668500374" lon="3.016254878184">
        <ele>13.8</ele>
        <time>2014-05-03T09:56:17Z</time>
      </trkpt>
      <trkpt lat="39.790625752684" lon="3.016185727509">
        <ele>14.6</ele>
        <time>2014-05-03T09:56:18Z</time>
      </trkpt>
      <trkpt lat="39.790370356191" lon="3.015756238953">
        <ele>14.6</ele>
        <time>2014-05-03T09:56:24Z</time>
      </trkpt>
      <trkpt lat="39.790282513879" lon="3.015611232083">
        <ele>14.6</ele>
        <time>2014-05-03T09:56:26Z</time>
      </trkpt>
      <trkpt lat="39.790099117907" lon="3.015311746796">
        <ele>14.6</ele>
        <time>2014-05-03T09:56:30Z</time>
      </trkpt>
      <trkpt lat="39.789918236505" lon="3.015005053075">
        <ele>14.6</ele>
        <time>2014-05-03T09:56:34Z</time>
      </trkpt>
      <trkpt lat="39.789779767517" lon="3.014778909413">
        <ele>14.6</ele>
        <time>2014-05-03T09:56:37Z</time>
      </trkpt>
      <trkpt lat="39.789583966333" lon="3.014478166841">
        <ele>14.6</ele>
        <time>2014-05-03T09:56:41Z</time>
      </trkpt>
      <trkpt lat="39.789217258208" lon="3.013856481318">
        <ele>14.6</ele>
        <time>2014-05-03T09:56:49Z</time>
      </trkpt>
      <trkpt lat="39.788844515115" lon="3.013244602618">
        <ele>14.6</ele>
        <time>2014-05-03T09:56:57Z</time>
      </trkpt>
      <trkpt lat="39.788756588984" lon="3.013090878572">
        <ele>14.6</ele>
        <time>2014-05-03T09:56:59Z</time>
      </trkpt>
      <trkpt lat="39.788391724877" lon="3.012479335148">
        <ele>14.6</ele>
        <time>2014-05-03T09:57:07Z</time>
      </trkpt>
      <trkpt lat="39.788348055178" lon="3.012407166989">
        <ele>14.6</ele>
        <time>2014-05-03T09:57:08Z</time>
      </trkpt>
      <trkpt lat="39.787985286546" lon="3.011797216126">
        <ele>14.6</ele>
        <time>2014-05-03T09:57:16Z</time>
      </trkpt>
      <trkpt lat="39.787899958804" lon="3.011651371066">
        <ele>14.6</ele>
        <time>2014-05-03T09:57:18Z</time>
      </trkpt>
      <trkpt lat="39.787643975578" lon="3.0111053741">
        <ele>15</ele>
        <time>2014-05-03T09:57:25Z</time>
      </trkpt>
      <trkpt lat="39.787614806566" lon="3.011023399118">
        <ele>15.4</ele>
        <time>2014-05-03T09:57:26Z</time>
      </trkpt>
      <trkpt lat="39.787586894839" lon="3.010943351973">
        <ele>15.8</ele>
        <time>2014-05-03T09:57:27Z</time>
      </trkpt>
      <trkpt lat="39.787559569845" lon="3.010855509661">
        <ele>16.2</ele>
        <time>2014-05-03T09:57:28Z</time>
      </trkpt>
      <trkpt lat="39.787531658118" lon="3.010773618498">
        <ele>16.6</ele>
        <time>2014-05-03T09:57:29Z</time>
      </trkpt>
      <trkpt lat="39.787425627083" lon="3.010445550932">
        <ele>16.6</ele>
        <time>2014-05-03T09:57:33Z</time>
      </trkpt>
      <trkpt lat="39.787229993537" lon="3.009892932265">
        <ele>16.6</ele>
        <time>2014-05-03T09:57:40Z</time>
      </trkpt>
      <trkpt lat="39.787081047174" lon="3.009414241956">
        <ele>16.6</ele>
        <time>2014-05-03T09:57:46Z</time>
      </trkpt>
      <trkpt lat="39.786924389463" lon="3.008951728714">
        <ele>16.6</ele>
        <time>2014-05-03T09:57:52Z</time>
      </trkpt>
      <trkpt lat="39.786805953216" lon="3.00855643831">
        <ele>16.6</ele>
        <time>2014-05-03T09:57:57Z</time>
      </trkpt>
      <trkpt lat="39.786702855846" lon="3.008238931938">
        <ele>16.6</ele>
        <time>2014-05-03T09:58:01Z</time>
      </trkpt>
      <trkpt lat="39.78653655895" lon="3.007699975768">
        <ele>17</ele>
        <time>2014-05-03T09:58:08Z</time>
      </trkpt>
      <trkpt lat="39.786509066318" lon="3.007621688822">
        <ele>17.4</ele>
        <time>2014-05-03T09:58:09Z</time>
      </trkpt>
      <trkpt lat="39.78648375298" lon="3.007545413532">
        <ele>17.8</ele>
        <time>2014-05-03T09:58:10Z</time>
      </trkpt>
      <trkpt lat="39.786457936728" lon="3.007469557337">
        <ele>18.2</ele>
        <time>2014-05-03T09:58:11Z</time>
      </trkpt>
      <trkpt lat="39.786433377761" lon="3.007395209884">
        <ele>18.6</ele>
        <time>2014-05-03T09:58:12Z</time>
      </trkpt>
      <trkpt lat="39.786306727252" lon="3.007013414339">
        <ele>18.6</ele>
        <time>2014-05-03T09:58:17Z</time>
      </trkpt>
      <trkpt lat="39.786260207707" lon="3.006861115216">
        <ele>18.6</ele>
        <time>2014-05-03T09:58:19Z</time>
      </trkpt>
      <trkpt lat="39.786213771981" lon="3.006711414482">
        <ele>18.6</ele>
        <time>2014-05-03T09:58:21Z</time>
      </trkpt>
      <trkpt lat="39.786142106736" lon="3.006491892521">
        <ele>18.6</ele>
        <time>2014-05-03T09:58:24Z</time>
      </trkpt>
      <trkpt lat="39.7859707807" lon="3.005951679066">
        <ele>18.6</ele>
        <time>2014-05-03T09:58:31Z</time>
      </trkpt>
      <trkpt lat="39.785813787713" lon="3.005473240214">
        <ele>18.6</ele>
        <time>2014-05-03T09:58:37Z</time>
      </trkpt>
      <trkpt lat="39.785634247415" lon="3.004897319865">
        <ele>19</ele>
        <time>2014-05-03T09:58:44Z</time>
      </trkpt>
      <trkpt lat="39.785607425335" lon="3.004819200557">
        <ele>19.8</ele>
        <time>2014-05-03T09:58:45Z</time>
      </trkpt>
      <trkpt lat="39.785579513608" lon="3.004743679638">
        <ele>20.2</ele>
        <time>2014-05-03T09:58:46Z</time>
      </trkpt>
      <trkpt lat="39.785554954641" lon="3.004665057416">
        <ele>20.6</ele>
        <time>2014-05-03T09:58:47Z</time>
      </trkpt>
      <trkpt lat="39.78545445566" lon="3.004353083098">
        <ele>20.6</ele>
        <time>2014-05-03T09:58:51Z</time>
      </trkpt>
      <trkpt lat="39.785188414154" lon="3.003644058177">
        <ele>20.6</ele>
        <time>2014-05-03T09:59:00Z</time>
      </trkpt>
      <trkpt lat="39.784942489208" lon="3.00310317417">
        <ele>20.6</ele>
        <time>2014-05-03T09:59:07Z</time>
      </trkpt>
      <trkpt lat="39.784905776486" lon="3.003028156165">
        <ele>21</ele>
        <time>2014-05-03T09:59:08Z</time>
      </trkpt>
      <trkpt lat="39.78486772266" lon="3.002955317454">
        <ele>21.6</ele>
        <time>2014-05-03T09:59:09Z</time>
      </trkpt>
      <trkpt lat="39.784830758481" lon="3.002889184263">
        <ele>22.4</ele>
        <time>2014-05-03T09:59:10Z</time>
      </trkpt>
      <trkpt lat="39.78479563832" lon="3.002817099923">
        <ele>22.8</ele>
        <time>2014-05-03T09:59:11Z</time>
      </trkpt>
      <trkpt lat="39.784684410507" lon="3.002595985401">
        <ele>22.8</ele>
        <time>2014-05-03T09:59:14Z</time>
      </trkpt>
      <trkpt lat="39.784371178904" lon="3.002049317883">
        <ele>22.8</ele>
        <time>2014-05-03T09:59:22Z</time>
      </trkpt>
      <trkpt lat="39.784169426571" lon="3.00172435162">
        <ele>23.2</ele>
        <time>2014-05-03T09:59:27Z</time>
      </trkpt>
      <trkpt lat="39.784129612546" lon="3.001662912293">
        <ele>23.6</ele>
        <time>2014-05-03T09:59:28Z</time>
      </trkpt>
      <trkpt lat="39.784087870684" lon="3.001601892061">
        <ele>24</ele>
        <time>2014-05-03T09:59:29Z</time>
      </trkpt>
      <trkpt lat="39.784049397763" lon="3.001545733331">
        <ele>24.4</ele>
        <time>2014-05-03T09:59:30Z</time>
      </trkpt>
      <trkpt lat="39.784008158815" lon="3.001484210185">
        <ele>24.8</ele>
        <time>2014-05-03T09:59:31Z</time>
      </trkpt>
      <trkpt lat="39.783742117309" lon="3.001079951148">
        <ele>24.8</ele>
        <time>2014-05-03T09:59:38Z</time>
      </trkpt>
      <trkpt lat="39.783619825388" lon="3.000900662307">
        <ele>25.2</ele>
        <time>2014-05-03T09:59:41Z</time>
      </trkpt>
      <trkpt lat="39.783578251164" lon="3.000837965695">
        <ele>25.6</ele>
        <time>2014-05-03T09:59:42Z</time>
      </trkpt>
      <trkpt lat="39.783536760759" lon="3.000776023454">
        <ele>26</ele>
        <time>2014-05-03T09:59:43Z</time>
      </trkpt>
      <trkpt lat="39.783492169051" lon="3.000713997394">
        <ele>26.4</ele>
        <time>2014-05-03T09:59:44Z</time>
      </trkpt>
      <trkpt lat="39.783449840456" lon="3.000653060981">
        <ele>26.8</ele>
        <time>2014-05-03T09:59:45Z</time>
      </trkpt>
      <trkpt lat="39.783132501722" lon="3.000198091449">
        <ele>26.8</ele>
        <time>2014-05-03T09:59:52Z</time>
      </trkpt>
      <trkpt lat="39.782906441879" lon="2.99987278991">
        <ele>26.8</ele>
        <time>2014-05-03T09:59:57Z</time>
      </trkpt>
      <trkpt lat="39.782821784689" lon="2.999746139401">
        <ele>26.8</ele>
        <time>2014-05-03T09:59:59Z</time>
      </trkpt>
      <trkpt lat="39.782511235294" lon="2.999281949779">
        <ele>26.8</ele>
        <time>2014-05-03T10:00:06Z</time>
      </trkpt>
      <trkpt lat="39.782356589239" lon="2.999078772523">
        <ele>26.8</ele>
        <time>2014-05-03T10:00:09Z</time>
      </trkpt>
      <trkpt lat="39.782144862445" lon="2.998832512301">
        <ele>26.8</ele>
        <time>2014-05-03T10:00:13Z</time>
      </trkpt>
      <trkpt lat="39.78198434906" lon="2.998642997542">
        <ele>26.8</ele>
        <time>2014-05-03T10:00:16Z</time>
      </trkpt>
      <trkpt lat="39.781818303621" lon="2.998452393136">
        <ele>26.8</ele>
        <time>2014-05-03T10:00:19Z</time>
      </trkpt>
      <trkpt lat="39.781766587298" lon="2.998387181954">
        <ele>26.8</ele>
        <time>2014-05-03T10:00:20Z</time>
      </trkpt>
      <trkpt lat="39.781561733662" lon="2.998135473497">
        <ele>26.8</ele>
        <time>2014-05-03T10:00:24Z</time>
      </trkpt>
      <trkpt lat="39.781401555553" lon="2.997936068096">
        <ele>26.8</ele>
        <time>2014-05-03T10:00:27Z</time>
      </trkpt>
      <trkpt lat="39.781241209806" lon="2.9977446255">
        <ele>26.4</ele>
        <time>2014-05-03T10:00:30Z</time>
      </trkpt>
      <trkpt lat="39.781187398008" lon="2.997675223368">
        <ele>26</ele>
        <time>2014-05-03T10:00:31Z</time>
      </trkpt>
      <trkpt lat="39.7811344244" lon="2.997607329978">
        <ele>25.6</ele>
        <time>2014-05-03T10:00:32Z</time>
      </trkpt>
      <trkpt lat="39.781080947878" lon="2.997540693873">
        <ele>25</ele>
        <time>2014-05-03T10:00:33Z</time>
      </trkpt>
      <trkpt lat="39.781028980098" lon="2.997481936754">
        <ele>24.6</ele>
        <time>2014-05-03T10:00:34Z</time>
      </trkpt>
      <trkpt lat="39.780746007154" lon="2.997168705151">
        <ele>24.6</ele>
        <time>2014-05-03T10:00:40Z</time>
      </trkpt>
      <trkpt lat="39.780660092679" lon="2.997084886151">
        <ele>25</ele>
        <time>2014-05-03T10:00:42Z</time>
      </trkpt>
      <trkpt lat="39.780617931722" lon="2.997048760162">
        <ele>25.6</ele>
        <time>2014-05-03T10:00:43Z</time>
      </trkpt>
      <trkpt lat="39.78057786624" lon="2.997010957793">
        <ele>26</ele>
        <time>2014-05-03T10:00:44Z</time>
      </trkpt>
      <trkpt lat="39.780538219853" lon="2.996980531496">
        <ele>26.4</ele>
        <time>2014-05-03T10:00:45Z</time>
      </trkpt>
      <trkpt lat="39.780494550154" lon="2.996951446303">
        <ele>27</ele>
        <time>2014-05-03T10:00:46Z</time>
      </trkpt>
      <trkpt lat="39.780451131912" lon="2.996924624223">
        <ele>28</ele>
        <time>2014-05-03T10:00:47Z</time>
      </trkpt>
      <trkpt lat="39.780410144421" lon="2.996898807971">
        <ele>28.6</ele>
        <time>2014-05-03T10:00:48Z</time>
      </trkpt>
      <trkpt lat="39.780366307084" lon="2.996870309511">
        <ele>29.2</ele>
        <time>2014-05-03T10:00:49Z</time>
      </trkpt>
      <trkpt lat="39.780283913007" lon="2.996819934292">
        <ele>29.2</ele>
        <time>2014-05-03T10:00:51Z</time>
      </trkpt>
      <trkpt lat="39.78024761938" lon="2.996793615126">
        <ele>29.6</ele>
        <time>2014-05-03T10:00:52Z</time>
      </trkpt>
      <trkpt lat="39.780210655201" lon="2.996771403091">
        <ele>30</ele>
        <time>2014-05-03T10:00:53Z</time>
      </trkpt>
      <trkpt lat="39.780179390714" lon="2.996749023418">
        <ele>30.4</ele>
        <time>2014-05-03T10:00:54Z</time>
      </trkpt>
      <trkpt lat="39.780147371856" lon="2.996725889374">
        <ele>30.8</ele>
        <time>2014-05-03T10:00:55Z</time>
      </trkpt>
      <trkpt lat="39.780112754609" lon="2.996705102262">
        <ele>31.2</ele>
        <time>2014-05-03T10:00:56Z</time>
      </trkpt>
      <trkpt lat="39.77996850211" lon="2.996550037112">
        <ele>31.2</ele>
        <time>2014-05-03T10:01:01Z</time>
      </trkpt>
      <trkpt lat="39.779836151909" lon="2.996396899799">
        <ele>31.2</ele>
        <time>2014-05-03T10:01:05Z</time>
      </trkpt>
      <trkpt lat="39.779808659277" lon="2.996336131024">
        <ele>31.2</ele>
        <time>2014-05-03T10:01:06Z</time>
      </trkpt>
      <trkpt lat="39.779797595169" lon="2.996095235218">
        <ele>31.2</ele>
        <time>2014-05-03T10:01:09Z</time>
      </trkpt>
      <trkpt lat="39.779797762807" lon="2.996004375422">
        <ele>31.2</ele>
        <time>2014-05-03T10:01:10Z</time>
      </trkpt>
      <trkpt lat="39.77977488022" lon="2.995806814039">
        <ele>30.8</ele>
        <time>2014-05-03T10:01:12Z</time>
      </trkpt>
      <trkpt lat="39.77974805814" lon="2.995707739981">
        <ele>30.4</ele>
        <time>2014-05-03T10:01:13Z</time>
      </trkpt>
      <trkpt lat="39.779719392042" lon="2.995605229344">
        <ele>30</ele>
        <time>2014-05-03T10:01:14Z</time>
      </trkpt>
      <trkpt lat="39.779682260225" lon="2.995506071467">
        <ele>29.6</ele>
        <time>2014-05-03T10:01:15Z</time>
      </trkpt>
      <trkpt lat="39.779634567214" lon="2.995406243038">
        <ele>29.2</ele>
        <time>2014-05-03T10:01:16Z</time>
      </trkpt>
      <trkpt lat="39.779584946366" lon="2.995313203948">
        <ele>29.2</ele>
        <time>2014-05-03T10:01:17Z</time>
      </trkpt>
      <trkpt lat="39.779370285907" lon="2.994951189687">
        <ele>29.2</ele>
        <time>2014-05-03T10:01:21Z</time>
      </trkpt>
      <trkpt lat="39.779215053119" lon="2.994685986371">
        <ele>29.2</ele>
        <time>2014-05-03T10:01:24Z</time>
      </trkpt>
      <trkpt lat="39.778962003558" lon="2.994273093977">
        <ele>29.2</ele>
        <time>2014-05-03T10:01:29Z</time>
      </trkpt>
      <trkpt lat="39.778773159351" lon="2.993959946193">
        <ele>29.2</ele>
        <time>2014-05-03T10:01:33Z</time>
      </trkpt>
      <trkpt lat="39.778500999058" lon="2.993498271141">
        <ele>29.2</ele>
        <time>2014-05-03T10:01:39Z</time>
      </trkpt>
      <trkpt lat="39.778455066246" lon="2.993423504593">
        <ele>29.2</ele>
        <time>2014-05-03T10:01:40Z</time>
      </trkpt>
      <trkpt lat="39.778094560727" lon="2.992825539847">
        <ele>29.2</ele>
        <time>2014-05-03T10:01:48Z</time>
      </trkpt>
      <trkpt lat="39.778046867716" lon="2.992753455507">
        <ele>29.2</ele>
        <time>2014-05-03T10:01:49Z</time>
      </trkpt>
      <trkpt lat="39.777728942249" lon="2.99227711213">
        <ele>29.2</ele>
        <time>2014-05-03T10:01:56Z</time>
      </trkpt>
      <trkpt lat="39.777548312304" lon="2.992022637646">
        <ele>29.2</ele>
        <time>2014-05-03T10:02:00Z</time>
      </trkpt>
      <trkpt lat="39.777461140544" lon="2.991889113979">
        <ele>29.2</ele>
        <time>2014-05-03T10:02:02Z</time>
      </trkpt>
      <trkpt lat="39.777366676531" lon="2.991757099054">
        <ele>29.2</ele>
        <time>2014-05-03T10:02:04Z</time>
      </trkpt>
      <trkpt lat="39.777141035783" lon="2.991425008176">
        <ele>29.2</ele>
        <time>2014-05-03T10:02:09Z</time>
      </trkpt>
      <trkpt lat="39.777014385274" lon="2.991229542268">
        <ele>29.2</ele>
        <time>2014-05-03T10:02:12Z</time>
      </trkpt>
      <trkpt lat="39.776844819437" lon="2.990982192399">
        <ele>29.2</ele>
        <time>2014-05-03T10:02:16Z</time>
      </trkpt>
      <trkpt lat="39.776552123489" lon="2.990554128766">
        <ele>29.2</ele>
        <time>2014-05-03T10:02:23Z</time>
      </trkpt>
      <trkpt lat="39.776512309464" lon="2.99049512019">
        <ele>29.2</ele>
        <time>2014-05-03T10:02:24Z</time>
      </trkpt>
      <trkpt lat="39.776427233179" lon="2.990373163545">
        <ele>30</ele>
        <time>2014-05-03T10:02:26Z</time>
      </trkpt>
      <trkpt lat="39.776385323679" lon="2.990315160797">
        <ele>30.4</ele>
        <time>2014-05-03T10:02:27Z</time>
      </trkpt>
      <trkpt lat="39.776342240713" lon="2.990257241868">
        <ele>30.8</ele>
        <time>2014-05-03T10:02:28Z</time>
      </trkpt>
      <trkpt lat="39.776302175231" lon="2.990197814197">
        <ele>31.2</ele>
        <time>2014-05-03T10:02:29Z</time>
      </trkpt>
      <trkpt lat="39.776097321595" lon="2.989897993634">
        <ele>31.2</ele>
        <time>2014-05-03T10:02:34Z</time>
      </trkpt>
      <trkpt lat="39.775765482174" lon="2.98941972242">
        <ele>31.6</ele>
        <time>2014-05-03T10:02:42Z</time>
      </trkpt>
      <trkpt lat="39.775727176891" lon="2.989363144595">
        <ele>32</ele>
        <time>2014-05-03T10:02:43Z</time>
      </trkpt>
      <trkpt lat="39.775691134721" lon="2.989308075512">
        <ele>32.4</ele>
        <time>2014-05-03T10:02:44Z</time>
      </trkpt>
      <trkpt lat="39.775652410343" lon="2.989258957578">
        <ele>32.8</ele>
        <time>2014-05-03T10:02:45Z</time>
      </trkpt>
      <trkpt lat="39.775615613802" lon="2.989211264567">
        <ele>33.2</ele>
        <time>2014-05-03T10:02:46Z</time>
      </trkpt>
      <trkpt lat="39.775495249718" lon="2.989069694276">
        <ele>33.2</ele>
        <time>2014-05-03T10:02:49Z</time>
      </trkpt>
      <trkpt lat="39.775450071277" lon="2.989028706785">
        <ele>33.2</ele>
        <time>2014-05-03T10:02:50Z</time>
      </trkpt>
      <trkpt lat="39.775406485397" lon="2.988988222208">
        <ele>34.2</ele>
        <time>2014-05-03T10:02:51Z</time>
      </trkpt>
      <trkpt lat="39.775364072983" lon="2.98894865964">
        <ele>34.6</ele>
        <time>2014-05-03T10:02:52Z</time>
      </trkpt>
      <trkpt lat="39.775322247302" lon="2.988913204203">
        <ele>35</ele>
        <time>2014-05-03T10:02:53Z</time>
      </trkpt>
      <trkpt lat="39.775280924535" lon="2.988880095698">
        <ele>35.4</ele>
        <time>2014-05-03T10:02:54Z</time>
      </trkpt>
      <trkpt lat="39.7751413659" lon="2.988811950851">
        <ele>35.4</ele>
        <time>2014-05-03T10:02:57Z</time>
      </trkpt>
      <trkpt lat="39.774888567796" lon="2.988766856229">
        <ele>35.4</ele>
        <time>2014-05-03T10:03:02Z</time>
      </trkpt>
      <trkpt lat="39.774831906152" lon="2.988768532609">
        <ele>35.4</ele>
        <time>2014-05-03T10:03:03Z</time>
      </trkpt>
      <trkpt lat="39.774496294876" lon="2.988851261962">
        <ele>35.8</ele>
        <time>2014-05-03T10:03:09Z</time>
      </trkpt>
      <trkpt lat="39.774444662372" lon="2.988868780133">
        <ele>36.4</ele>
        <time>2014-05-03T10:03:10Z</time>
      </trkpt>
      <trkpt lat="39.774389928565" lon="2.988885376295">
        <ele>36.8</ele>
        <time>2014-05-03T10:03:11Z</time>
      </trkpt>
      <trkpt lat="39.774337038776" lon="2.988901804819">
        <ele>37.2</ele>
        <time>2014-05-03T10:03:12Z</time>
      </trkpt>
      <trkpt lat="39.774285657729" lon="2.988916054049">
        <ele>37.6</ele>
        <time>2014-05-03T10:03:13Z</time>
      </trkpt>
      <trkpt lat="39.77414475799" lon="2.988954694608">
        <ele>37.6</ele>
        <time>2014-05-03T10:03:16Z</time>
      </trkpt>
      <trkpt lat="39.77405590985" lon="2.988960645757">
        <ele>37.6</ele>
        <time>2014-05-03T10:03:18Z</time>
      </trkpt>
      <trkpt lat="39.774014587083" lon="2.988954275513">
        <ele>38</ele>
        <time>2014-05-03T10:03:19Z</time>
      </trkpt>
      <trkpt lat="39.773981897673" lon="2.988921753741">
        <ele>38.4</ele>
        <time>2014-05-03T10:03:20Z</time>
      </trkpt>
      <trkpt lat="39.773961110561" lon="2.988873641635">
        <ele>38.8</ele>
        <time>2014-05-03T10:03:21Z</time>
      </trkpt>
      <trkpt lat="39.773953818308" lon="2.988821087122">
        <ele>39.2</ele>
        <time>2014-05-03T10:03:22Z</time>
      </trkpt>
      <trkpt lat="39.773946526055" lon="2.988762330003">
        <ele>39.6</ele>
        <time>2014-05-03T10:03:23Z</time>
      </trkpt>
      <trkpt lat="39.773927415323" lon="2.988655376959">
        <ele>39.6</ele>
        <time>2014-05-03T10:03:25Z</time>
      </trkpt>
      <trkpt lat="39.773921715631" lon="2.988599637324">
        <ele>39.6</ele>
        <time>2014-05-03T10:03:26Z</time>
      </trkpt>
      <trkpt lat="39.773951219919" lon="2.988429568573">
        <ele>39.6</ele>
        <time>2014-05-03T10:03:29Z</time>
      </trkpt>
      <trkpt lat="39.7740014275" lon="2.988243574212">
        <ele>39.6</ele>
        <time>2014-05-03T10:03:32Z</time>
      </trkpt>
      <trkpt lat="39.774044761923" lon="2.988037211834">
        <ele>39.6</ele>
        <time>2014-05-03T10:03:35Z</time>
      </trkpt>
      <trkpt lat="39.774079295351" lon="2.987761112048">
        <ele>39.6</ele>
        <time>2014-05-03T10:03:39Z</time>
      </trkpt>
      <trkpt lat="39.774097903169" lon="2.987500854053">
        <ele>39.6</ele>
        <time>2014-05-03T10:03:43Z</time>
      </trkpt>
      <trkpt lat="39.774091365287" lon="2.987378645951">
        <ele>40</ele>
        <time>2014-05-03T10:03:45Z</time>
      </trkpt>
      <trkpt lat="39.774086168509" lon="2.987318631547">
        <ele>40.4</ele>
        <time>2014-05-03T10:03:46Z</time>
      </trkpt>
      <trkpt lat="39.774077786609" lon="2.987256773125">
        <ele>40.8</ele>
        <time>2014-05-03T10:03:47Z</time>
      </trkpt>
      <trkpt lat="39.774067225415" lon="2.987196255807">
        <ele>41.2</ele>
        <time>2014-05-03T10:03:48Z</time>
      </trkpt>
      <trkpt lat="39.774052054176" lon="2.98713062553">
        <ele>41.8</ele>
        <time>2014-05-03T10:03:49Z</time>
      </trkpt>
      <trkpt lat="39.773981646216" lon="2.986916216528">
        <ele>42.2</ele>
        <time>2014-05-03T10:03:53Z</time>
      </trkpt>
      <trkpt lat="39.773963876588" lon="2.986878414159">
        <ele>42.6</ele>
        <time>2014-05-03T10:03:54Z</time>
      </trkpt>
      <trkpt lat="39.773950381729" lon="2.986842204351">
        <ele>43</ele>
        <time>2014-05-03T10:03:55Z</time>
      </trkpt>
      <trkpt lat="39.773936551594" lon="2.986805659267">
        <ele>43.4</ele>
        <time>2014-05-03T10:03:56Z</time>
      </trkpt>
      <trkpt lat="39.773926409495" lon="2.986765342328">
        <ele>43.8</ele>
        <time>2014-05-03T10:03:57Z</time>
      </trkpt>
      <trkpt lat="39.773865808358" lon="2.986658305465">
        <ele>43.8</ele>
        <time>2014-05-03T10:04:00Z</time>
      </trkpt>
      <trkpt lat="39.77375667602" lon="2.986497624442">
        <ele>43.8</ele>
        <time>2014-05-03T10:04:04Z</time>
      </trkpt>
      <trkpt lat="39.77372650118" lon="2.98645336801">
        <ele>43.8</ele>
        <time>2014-05-03T10:04:05Z</time>
      </trkpt>
      <trkpt lat="39.773497591491" lon="2.986109039558">
        <ele>43.8</ele>
        <time>2014-05-03T10:04:12Z</time>
      </trkpt>
      <trkpt lat="39.773131134823" lon="2.985556001796">
        <ele>43.8</ele>
        <time>2014-05-03T10:04:22Z</time>
      </trkpt>
      <trkpt lat="39.773094254463" lon="2.985497412315">
        <ele>44.2</ele>
        <time>2014-05-03T10:04:23Z</time>
      </trkpt>
      <trkpt lat="39.773053015515" lon="2.985438822834">
        <ele>44.6</ele>
        <time>2014-05-03T10:04:24Z</time>
      </trkpt>
      <trkpt lat="39.773008759083" lon="2.98537880843">
        <ele>45</ele>
        <time>2014-05-03T10:04:25Z</time>
      </trkpt>
      <trkpt lat="39.772973387465" lon="2.985321560053">
        <ele>45.4</ele>
        <time>2014-05-03T10:04:26Z</time>
      </trkpt>
      <trkpt lat="39.772932651431" lon="2.985257103242">
        <ele>45.8</ele>
        <time>2014-05-03T10:04:27Z</time>
      </trkpt>
      <trkpt lat="39.772864087489" lon="2.985132548208">
        <ele>45.8</ele>
        <time>2014-05-03T10:04:29Z</time>
      </trkpt>
      <trkpt lat="39.772694773109" lon="2.984821663537">
        <ele>45.8</ele>
        <time>2014-05-03T10:04:34Z</time>
      </trkpt>
      <trkpt lat="39.772664598269" lon="2.984771875051">
        <ele>45.8</ele>
        <time>2014-05-03T10:04:35Z</time>
      </trkpt>
      <trkpt lat="39.772641380406" lon="2.984729546456">
        <ele>46.2</ele>
        <time>2014-05-03T10:04:36Z</time>
      </trkpt>
      <trkpt lat="39.772617659629" lon="2.984677075762">
        <ele>46.6</ele>
        <time>2014-05-03T10:04:37Z</time>
      </trkpt>
      <trkpt lat="39.772592094834" lon="2.984629801846">
        <ele>47</ele>
        <time>2014-05-03T10:04:38Z</time>
      </trkpt>
      <trkpt lat="39.772565188935" lon="2.984576576781">
        <ele>47.4</ele>
        <time>2014-05-03T10:04:39Z</time>
      </trkpt>
      <trkpt lat="39.772536690475" lon="2.98451882549">
        <ele>47.8</ele>
        <time>2014-05-03T10:04:40Z</time>
      </trkpt>
      <trkpt lat="39.772446165955" lon="2.984325287419">
        <ele>47.8</ele>
        <time>2014-05-03T10:04:43Z</time>
      </trkpt>
      <trkpt lat="39.772421020255" lon="2.984258818952">
        <ele>47.8</ele>
        <time>2014-05-03T10:04:44Z</time>
      </trkpt>
      <trkpt lat="39.772389169035" lon="2.984194781236">
        <ele>47.8</ele>
        <time>2014-05-03T10:04:45Z</time>
      </trkpt>
      <trkpt lat="39.772246341459" lon="2.983851710069">
        <ele>47.8</ele>
        <time>2014-05-03T10:04:50Z</time>
      </trkpt>
      <trkpt lat="39.77199563883" lon="2.983165651554">
        <ele>47.8</ele>
        <time>2014-05-03T10:04:59Z</time>
      </trkpt>
      <trkpt lat="39.771804196234" lon="2.982494680459">
        <ele>47.8</ele>
        <time>2014-05-03T10:05:07Z</time>
      </trkpt>
      <trkpt lat="39.771630858542" lon="2.981731592283">
        <ele>47.8</ele>
        <time>2014-05-03T10:05:15Z</time>
      </trkpt>
      <trkpt lat="39.771613591828" lon="2.981643666152">
        <ele>48.2</ele>
        <time>2014-05-03T10:05:16Z</time>
      </trkpt>
      <trkpt lat="39.771597582399" lon="2.981555991478">
        <ele>48.6</ele>
        <time>2014-05-03T10:05:17Z</time>
      </trkpt>
      <trkpt lat="39.771583416988" lon="2.981475944333">
        <ele>49</ele>
        <time>2014-05-03T10:05:18Z</time>
      </trkpt>
      <trkpt lat="39.771567994292" lon="2.981397322111">
        <ele>49.4</ele>
        <time>2014-05-03T10:05:19Z</time>
      </trkpt>
      <trkpt lat="39.771554331795" lon="2.981322639382">
        <ele>49.8</ele>
        <time>2014-05-03T10:05:20Z</time>
      </trkpt>
      <trkpt lat="39.771540082565" lon="2.981246699368">
        <ele>49.8</ele>
        <time>2014-05-03T10:05:21Z</time>
      </trkpt>
      <trkpt lat="39.771528012629" lon="2.981180985272">
        <ele>50.2</ele>
        <time>2014-05-03T10:05:22Z</time>
      </trkpt>
      <trkpt lat="39.771519630729" lon="2.981116109366">
        <ele>50.8</ele>
        <time>2014-05-03T10:05:23Z</time>
      </trkpt>
      <trkpt lat="39.771509991544" lon="2.981049640899">
        <ele>51.2</ele>
        <time>2014-05-03T10:05:24Z</time>
      </trkpt>
      <trkpt lat="39.771500855273" lon="2.980983926803">
        <ele>51.6</ele>
        <time>2014-05-03T10:05:25Z</time>
      </trkpt>
      <trkpt lat="39.771485516396" lon="2.980913686481">
        <ele>52.2</ele>
        <time>2014-05-03T10:05:26Z</time>
      </trkpt>
      <trkpt lat="39.77143824248" lon="2.980714700175">
        <ele>52.2</ele>
        <time>2014-05-03T10:05:29Z</time>
      </trkpt>
      <trkpt lat="39.771370265271" lon="2.980547984184">
        <ele>52.2</ele>
        <time>2014-05-03T10:05:32Z</time>
      </trkpt>
      <trkpt lat="39.77131419036" lon="2.980437929837">
        <ele>52.6</ele>
        <time>2014-05-03T10:05:34Z</time>
      </trkpt>
      <trkpt lat="39.771286613909" lon="2.980384956229">
        <ele>53</ele>
        <time>2014-05-03T10:05:35Z</time>
      </trkpt>
      <trkpt lat="39.771259959467" lon="2.980333407544">
        <ele>53.4</ele>
        <time>2014-05-03T10:05:36Z</time>
      </trkpt>
      <trkpt lat="39.77122953317" lon="2.980287977646">
        <ele>54</ele>
        <time>2014-05-03T10:05:37Z</time>
      </trkpt>
      <trkpt lat="39.771205560936" lon="2.980244307947">
        <ele>54.4</ele>
        <time>2014-05-03T10:05:38Z</time>
      </trkpt>
      <trkpt lat="39.771181923978" lon="2.980200219153">
        <ele>54.4</ele>
        <time>2014-05-03T10:05:39Z</time>
      </trkpt>
      <trkpt lat="39.771013950702" lon="2.979892435785">
        <ele>54.8</ele>
        <time>2014-05-03T10:05:46Z</time>
      </trkpt>
      <trkpt lat="39.770989978468" lon="2.979848346991">
        <ele>55.2</ele>
        <time>2014-05-03T10:05:47Z</time>
      </trkpt>
      <trkpt lat="39.7709671797" lon="2.979807527138">
        <ele>55.6</ele>
        <time>2014-05-03T10:05:48Z</time>
      </trkpt>
      <trkpt lat="39.770945722036" lon="2.97976796457">
        <ele>56</ele>
        <time>2014-05-03T10:05:49Z</time>
      </trkpt>
      <trkpt lat="39.770921330707" lon="2.97972940783">
        <ele>56.4</ele>
        <time>2014-05-03T10:05:50Z</time>
      </trkpt>
      <trkpt lat="39.770895179179" lon="2.979697388972">
        <ele>56.4</ele>
        <time>2014-05-03T10:05:51Z</time>
      </trkpt>
      <trkpt lat="39.770803900288" lon="2.979537881415">
        <ele>56.4</ele>
        <time>2014-05-03T10:05:55Z</time>
      </trkpt>
      <trkpt lat="39.770767019928" lon="2.979454062415">
        <ele>56.8</ele>
        <time>2014-05-03T10:05:57Z</time>
      </trkpt>
      <trkpt lat="39.770744137341" lon="2.979409554526">
        <ele>57.2</ele>
        <time>2014-05-03T10:05:58Z</time>
      </trkpt>
      <trkpt lat="39.770725110428" lon="2.979367561207">
        <ele>57.6</ele>
        <time>2014-05-03T10:05:59Z</time>
      </trkpt>
      <trkpt lat="39.770703066031" lon="2.979323388594">
        <ele>58</ele>
        <time>2014-05-03T10:06:00Z</time>
      </trkpt>
      <trkpt lat="39.770680351082" lon="2.979282401103">
        <ele>58.4</ele>
        <time>2014-05-03T10:06:01Z</time>
      </trkpt>
      <trkpt lat="39.770521094982" lon="2.978961541971">
        <ele>58.4</ele>
        <time>2014-05-03T10:06:08Z</time>
      </trkpt>
      <trkpt lat="39.770431827747" lon="2.97879566417">
        <ele>58.4</ele>
        <time>2014-05-03T10:06:11Z</time>
      </trkpt>
      <trkpt lat="39.770396707586" lon="2.978727519323">
        <ele>58.4</ele>
        <time>2014-05-03T10:06:12Z</time>
      </trkpt>
      <trkpt lat="39.77036284471" lon="2.978662811055">
        <ele>58.8</ele>
        <time>2014-05-03T10:06:13Z</time>
      </trkpt>
      <trkpt lat="39.770335519716" lon="2.978601874642">
        <ele>59.4</ele>
        <time>2014-05-03T10:06:14Z</time>
      </trkpt>
      <trkpt lat="39.770308110903" lon="2.978545548274">
        <ele>59.8</ele>
        <time>2014-05-03T10:06:15Z</time>
      </trkpt>
      <trkpt lat="39.77027902571" lon="2.978496933254">
        <ele>60.2</ele>
        <time>2014-05-03T10:06:16Z</time>
      </trkpt>
      <trkpt lat="39.770256813675" lon="2.978456364858">
        <ele>60.6</ele>
        <time>2014-05-03T10:06:17Z</time>
      </trkpt>
      <trkpt lat="39.770214149804" lon="2.978386124536">
        <ele>61</ele>
        <time>2014-05-03T10:06:19Z</time>
      </trkpt>
      <trkpt lat="39.770192440683" lon="2.978350250004">
        <ele>61.4</ele>
        <time>2014-05-03T10:06:20Z</time>
      </trkpt>
      <trkpt lat="39.77016587006" lon="2.97831873406">
        <ele>61.8</ele>
        <time>2014-05-03T10:06:21Z</time>
      </trkpt>
      <trkpt lat="39.770147513699" lon="2.978276992198">
        <ele>62.4</ele>
        <time>2014-05-03T10:06:22Z</time>
      </trkpt>
      <trkpt lat="39.770121781266" lon="2.978239357467">
        <ele>62.8</ele>
        <time>2014-05-03T10:06:23Z</time>
      </trkpt>
      <trkpt lat="39.769999573164" lon="2.977996450005">
        <ele>62.8</ele>
        <time>2014-05-03T10:06:28Z</time>
      </trkpt>
      <trkpt lat="39.769826319291" lon="2.977675758511">
        <ele>62.8</ele>
        <time>2014-05-03T10:06:33Z</time>
      </trkpt>
      <trkpt lat="39.76979622827" lon="2.97761884541">
        <ele>63.2</ele>
        <time>2014-05-03T10:06:34Z</time>
      </trkpt>
      <trkpt lat="39.769764041774" lon="2.977562854318">
        <ele>63.8</ele>
        <time>2014-05-03T10:06:35Z</time>
      </trkpt>
      <trkpt lat="39.769734621305" lon="2.977502253181">
        <ele>64.2</ele>
        <time>2014-05-03T10:06:36Z</time>
      </trkpt>
      <trkpt lat="39.769702267171" lon="2.977441652044">
        <ele>64.8</ele>
        <time>2014-05-03T10:06:37Z</time>
      </trkpt>
      <trkpt lat="39.769671170322" lon="2.977380631812">
        <ele>65.2</ele>
        <time>2014-05-03T10:06:38Z</time>
      </trkpt>
      <trkpt lat="39.769607886977" lon="2.977260351547">
        <ele>65.2</ele>
        <time>2014-05-03T10:06:40Z</time>
      </trkpt>
      <trkpt lat="39.76954812403" lon="2.97714359168">
        <ele>65.6</ele>
        <time>2014-05-03T10:06:42Z</time>
      </trkpt>
      <trkpt lat="39.769516188991" lon="2.977089025511">
        <ele>66</ele>
        <time>2014-05-03T10:06:43Z</time>
      </trkpt>
      <trkpt lat="39.769487941988" lon="2.977036470998">
        <ele>66.4</ele>
        <time>2014-05-03T10:06:44Z</time>
      </trkpt>
      <trkpt lat="39.769459946442" lon="2.976984000304">
        <ele>66.8</ele>
        <time>2014-05-03T10:06:45Z</time>
      </trkpt>
      <trkpt lat="39.76943161562" lon="2.976930942877">
        <ele>67.2</ele>
        <time>2014-05-03T10:06:46Z</time>
      </trkpt>
      <trkpt lat="39.769349473" lon="2.976762466687">
        <ele>67.2</ele>
        <time>2014-05-03T10:06:49Z</time>
      </trkpt>
      <trkpt lat="39.769294571555" lon="2.97665157415">
        <ele>67.8</ele>
        <time>2014-05-03T10:06:51Z</time>
      </trkpt>
      <trkpt lat="39.769264480534" lon="2.976599941646">
        <ele>68.2</ele>
        <time>2014-05-03T10:06:52Z</time>
      </trkpt>
      <trkpt lat="39.769236401169" lon="2.976550739893">
        <ele>68.6</ele>
        <time>2014-05-03T10:06:53Z</time>
      </trkpt>
      <trkpt lat="39.769204969044" lon="2.97650153814">
        <ele>69</ele>
        <time>2014-05-03T10:06:54Z</time>
      </trkpt>
      <trkpt lat="39.76917680586" lon="2.976452504025">
        <ele>69.4</ele>
        <time>2014-05-03T10:06:55Z</time>
      </trkpt>
      <trkpt lat="39.769148558857" lon="2.976396932028">
        <ele>69.4</ele>
        <time>2014-05-03T10:06:56Z</time>
      </trkpt>
      <trkpt lat="39.769049987713" lon="2.976186294881">
        <ele>69.4</ele>
        <time>2014-05-03T10:06:59Z</time>
      </trkpt>
      <trkpt lat="39.769006234195" lon="2.976111025419">
        <ele>69.4</ele>
        <time>2014-05-03T10:07:00Z</time>
      </trkpt>
      <trkpt lat="39.76874178525" lon="2.975709113314">
        <ele>69.4</ele>
        <time>2014-05-03T10:07:06Z</time>
      </trkpt>
      <trkpt lat="39.768546319342" lon="2.975471905544">
        <ele>69.4</ele>
        <time>2014-05-03T10:07:10Z</time>
      </trkpt>
      <trkpt lat="39.768440288307" lon="2.975369478726">
        <ele>69.4</ele>
        <time>2014-05-03T10:07:12Z</time>
      </trkpt>
      <trkpt lat="39.768104257936" lon="2.975035795287">
        <ele>69.4</ele>
        <time>2014-05-03T10:07:18Z</time>
      </trkpt>
      <trkpt lat="39.768054050355" lon="2.974976954349">
        <ele>69</ele>
        <time>2014-05-03T10:07:19Z</time>
      </trkpt>
      <trkpt lat="39.767995125598" lon="2.974930099528">
        <ele>68.6</ele>
        <time>2014-05-03T10:07:20Z</time>
      </trkpt>
      <trkpt lat="39.767941900533" lon="2.974869833667">
        <ele>68.2</ele>
        <time>2014-05-03T10:07:21Z</time>
      </trkpt>
      <trkpt lat="39.767878784826" lon="2.974822140656">
        <ele>67.8</ele>
        <time>2014-05-03T10:07:22Z</time>
      </trkpt>
      <trkpt lat="39.767826314132" lon="2.974764724641">
        <ele>67.4</ele>
        <time>2014-05-03T10:07:23Z</time>
      </trkpt>
      <trkpt lat="39.76765968196" lon="2.974612509337">
        <ele>67.4</ele>
        <time>2014-05-03T10:07:26Z</time>
      </trkpt>
      <trkpt lat="39.767600002832" lon="2.974571102751">
        <ele>67.4</ele>
        <time>2014-05-03T10:07:27Z</time>
      </trkpt>
      <trkpt lat="39.767553567106" lon="2.974512345632">
        <ele>67.4</ele>
        <time>2014-05-03T10:07:28Z</time>
      </trkpt>
      <trkpt lat="39.767494055616" lon="2.974479153308">
        <ele>67.4</ele>
        <time>2014-05-03T10:07:29Z</time>
      </trkpt>
      <trkpt lat="39.7673545808" lon="2.974324591072">
        <ele>67.4</ele>
        <time>2014-05-03T10:07:32Z</time>
      </trkpt>
      <trkpt lat="39.767304037943" lon="2.974283435943">
        <ele>67.4</ele>
        <time>2014-05-03T10:07:33Z</time>
      </trkpt>
      <trkpt lat="39.767264810651" lon="2.974232725448">
        <ele>67.4</ele>
        <time>2014-05-03T10:07:34Z</time>
      </trkpt>
      <trkpt lat="39.767217452916" lon="2.974197186192">
        <ele>67.4</ele>
        <time>2014-05-03T10:07:35Z</time>
      </trkpt>
      <trkpt lat="39.767172525932" lon="2.974162233669">
        <ele>67.4</ele>
        <time>2014-05-03T10:07:36Z</time>
      </trkpt>
      <trkpt lat="39.767059454101" lon="2.974054526254">
        <ele>67.4</ele>
        <time>2014-05-03T10:07:39Z</time>
      </trkpt>
      <trkpt lat="39.76699080634" lon="2.973989063615">
        <ele>67.4</ele>
        <time>2014-05-03T10:07:41Z</time>
      </trkpt>
      <trkpt lat="39.766897431974" lon="2.973881188562">
        <ele>67.4</ele>
        <time>2014-05-03T10:07:45Z</time>
      </trkpt>
      <trkpt lat="39.766817384829" lon="2.973798710666">
        <ele>67.8</ele>
        <time>2014-05-03T10:07:48Z</time>
      </trkpt>
      <trkpt lat="39.766799112287" lon="2.973776833907">
        <ele>68.2</ele>
        <time>2014-05-03T10:07:49Z</time>
      </trkpt>
      <trkpt lat="39.766778660451" lon="2.973756717347">
        <ele>68.6</ele>
        <time>2014-05-03T10:07:50Z</time>
      </trkpt>
      <trkpt lat="39.766751251638" lon="2.973726793964">
        <ele>69</ele>
        <time>2014-05-03T10:07:51Z</time>
      </trkpt>
      <trkpt lat="39.766729877793" lon="2.973710030164">
        <ele>69.4</ele>
        <time>2014-05-03T10:07:52Z</time>
      </trkpt>
      <trkpt lat="39.766717724038" lon="2.973691422346">
        <ele>69.4</ele>
        <time>2014-05-03T10:07:53Z</time>
      </trkpt>
      <trkpt lat="39.766702049885" lon="2.973667198655">
        <ele>69.4</ele>
        <time>2014-05-03T10:07:54Z</time>
      </trkpt>
      <trkpt lat="39.766637509255" lon="2.973568208416">
        <ele>69.4</ele>
        <time>2014-05-03T10:07:58Z</time>
      </trkpt>
      <trkpt lat="39.766607502053" lon="2.973504254519">
        <ele>69.4</ele>
        <time>2014-05-03T10:08:01Z</time>
      </trkpt>
      <trkpt lat="39.766589397149" lon="2.973442312278">
        <ele>69.4</ele>
        <time>2014-05-03T10:08:03Z</time>
      </trkpt>
      <trkpt lat="39.766577746308" lon="2.973326642058">
        <ele>69.4</ele>
        <time>2014-05-03T10:08:06Z</time>
      </trkpt>
      <trkpt lat="39.766571292245" lon="2.973278194676">
        <ele>69.4</ele>
        <time>2014-05-03T10:08:07Z</time>
      </trkpt>
      <trkpt lat="39.766553606436" lon="2.973218264091">
        <ele>69.4</ele>
        <time>2014-05-03T10:08:08Z</time>
      </trkpt>
      <trkpt lat="39.766454113283" lon="2.973089937202">
        <ele>69.4</ele>
        <time>2014-05-03T10:08:11Z</time>
      </trkpt>
      <trkpt lat="39.766275327356" lon="2.972988432393">
        <ele>69.4</ele>
        <time>2014-05-03T10:08:15Z</time>
      </trkpt>
      <trkpt lat="39.766198968247" lon="2.9729258196">
        <ele>69.8</ele>
        <time>2014-05-03T10:08:17Z</time>
      </trkpt>
      <trkpt lat="39.766171140339" lon="2.972880222064">
        <ele>70.2</ele>
        <time>2014-05-03T10:08:18Z</time>
      </trkpt>
      <trkpt lat="39.766138115653" lon="2.972837222917">
        <ele>70.6</ele>
        <time>2014-05-03T10:08:19Z</time>
      </trkpt>
      <trkpt lat="39.766108779003" lon="2.972790451915">
        <ele>71</ele>
        <time>2014-05-03T10:08:20Z</time>
      </trkpt>
      <trkpt lat="39.76607717924" lon="2.972737562126">
        <ele>71.4</ele>
        <time>2014-05-03T10:08:21Z</time>
      </trkpt>
      <trkpt lat="39.765938794071" lon="2.972496917777">
        <ele>71.4</ele>
        <time>2014-05-03T10:08:26Z</time>
      </trkpt>
      <trkpt lat="39.765728576019" lon="2.972137334267">
        <ele>71.4</ele>
        <time>2014-05-03T10:08:33Z</time>
      </trkpt>
      <trkpt lat="39.765519950528" lon="2.971750258125">
        <ele>71.4</ele>
        <time>2014-05-03T10:08:40Z</time>
      </trkpt>
      <trkpt lat="39.765269415537" lon="2.971289421263">
        <ele>71.4</ele>
        <time>2014-05-03T10:08:48Z</time>
      </trkpt>
      <trkpt lat="39.765204204355" lon="2.971167129342">
        <ele>71.4</ele>
        <time>2014-05-03T10:08:50Z</time>
      </trkpt>
      <trkpt lat="39.764996249416" lon="2.970804863624">
        <ele>71.4</ele>
        <time>2014-05-03T10:08:56Z</time>
      </trkpt>
      <trkpt lat="39.764920728497" lon="2.970667568102">
        <ele>71.4</ele>
        <time>2014-05-03T10:08:58Z</time>
      </trkpt>
      <trkpt lat="39.764677653397" lon="2.970296836665">
        <ele>71.4</ele>
        <time>2014-05-03T10:09:04Z</time>
      </trkpt>
      <trkpt lat="39.764358973559" lon="2.969880088597">
        <ele>71.4</ele>
        <time>2014-05-03T10:09:11Z</time>
      </trkpt>
      <trkpt lat="39.763942979862" lon="2.969326212645">
        <ele>71.4</ele>
        <time>2014-05-03T10:09:20Z</time>
      </trkpt>
      <trkpt lat="39.763844576356" lon="2.969196460833">
        <ele>71.4</ele>
        <time>2014-05-03T10:09:22Z</time>
      </trkpt>
      <trkpt lat="39.763706610282" lon="2.969008370997">
        <ele>71.4</ele>
        <time>2014-05-03T10:09:25Z</time>
      </trkpt>
      <trkpt lat="39.763485579579" lon="2.968706538778">
        <ele>71.4</ele>
        <time>2014-05-03T10:09:30Z</time>
      </trkpt>
      <trkpt lat="39.7630546661" lon="2.968166995875">
        <ele>71.4</ele>
        <time>2014-05-03T10:09:39Z</time>
      </trkpt>
      <trkpt lat="39.76300688927" lon="2.968109663679">
        <ele>71.4</ele>
        <time>2014-05-03T10:09:40Z</time>
      </trkpt>
      <trkpt lat="39.762603971337" lon="2.967615215398">
        <ele>71.4</ele>
        <time>2014-05-03T10:09:48Z</time>
      </trkpt>
      <trkpt lat="39.76255342848" lon="2.967553273157">
        <ele>71.4</ele>
        <time>2014-05-03T10:09:49Z</time>
      </trkpt>
      <trkpt lat="39.762142799199" lon="2.967052538451">
        <ele>71.4</ele>
        <time>2014-05-03T10:09:57Z</time>
      </trkpt>
      <trkpt lat="39.761837278944" lon="2.966691110923">
        <ele>71.4</ele>
        <time>2014-05-03T10:10:03Z</time>
      </trkpt>
      <trkpt lat="39.761404018533" lon="2.966224574369">
        <ele>71.4</ele>
        <time>2014-05-03T10:10:11Z</time>
      </trkpt>
      <trkpt lat="39.761346853975" lon="2.966168834734">
        <ele>71.4</ele>
        <time>2014-05-03T10:10:12Z</time>
      </trkpt>
      <trkpt lat="39.761285917562" lon="2.966117369868">
        <ele>71.4</ele>
        <time>2014-05-03T10:10:13Z</time>
      </trkpt>
      <trkpt lat="39.760945193327" lon="2.965811598156">
        <ele>71.4</ele>
        <time>2014-05-03T10:10:19Z</time>
      </trkpt>
      <trkpt lat="39.760563733058" lon="2.965477076527">
        <ele>71.8</ele>
        <time>2014-05-03T10:10:26Z</time>
      </trkpt>
      <trkpt lat="39.760518722255" lon="2.96542234272">
        <ele>72.4</ele>
        <time>2014-05-03T10:10:27Z</time>
      </trkpt>
      <trkpt lat="39.76049399565" lon="2.965344558688">
        <ele>72.8</ele>
        <time>2014-05-03T10:10:28Z</time>
      </trkpt>
      <trkpt lat="39.760481171343" lon="2.965264343905">
        <ele>73.2</ele>
        <time>2014-05-03T10:10:29Z</time>
      </trkpt>
      <trkpt lat="39.760484356465" lon="2.965184129122">
        <ele>73.6</ele>
        <time>2014-05-03T10:10:30Z</time>
      </trkpt>
      <trkpt lat="39.760497264591" lon="2.96502923161">
        <ele>73.6</ele>
        <time>2014-05-03T10:10:32Z</time>
      </trkpt>
      <trkpt lat="39.760494582383" lon="2.964955219433">
        <ele>73.6</ele>
        <time>2014-05-03T10:10:33Z</time>
      </trkpt>
      <trkpt lat="39.760464491362" lon="2.964812056581">
        <ele>73.6</ele>
        <time>2014-05-03T10:10:35Z</time>
      </trkpt>
      <trkpt lat="39.760359969069" lon="2.96477190728">
        <ele>73.6</ele>
        <time>2014-05-03T10:10:37Z</time>
      </trkpt>
      <trkpt lat="39.760184871178" lon="2.96481884592">
        <ele>73.6</ele>
        <time>2014-05-03T10:10:40Z</time>
      </trkpt>
      <trkpt lat="39.76013105938" lon="2.96484399162">
        <ele>73.6</ele>
        <time>2014-05-03T10:10:41Z</time>
      </trkpt>
      <trkpt lat="39.760073475727" lon="2.964851954425">
        <ele>73.6</ele>
        <time>2014-05-03T10:10:42Z</time>
      </trkpt>
      <trkpt lat="39.759949255969" lon="2.964824042698">
        <ele>73.6</ele>
        <time>2014-05-03T10:10:44Z</time>
      </trkpt>
      <trkpt lat="39.75981003261" lon="2.964761429905">
        <ele>73.6</ele>
        <time>2014-05-03T10:10:46Z</time>
      </trkpt>
      <trkpt lat="39.759743564143" lon="2.96471574855">
        <ele>73.2</ele>
        <time>2014-05-03T10:10:47Z</time>
      </trkpt>
      <trkpt lat="39.759680783712" lon="2.964663696951">
        <ele>72.8</ele>
        <time>2014-05-03T10:10:48Z</time>
      </trkpt>
      <trkpt lat="39.759616326901" lon="2.964605358927">
        <ele>72.4</ele>
        <time>2014-05-03T10:10:49Z</time>
      </trkpt>
      <trkpt lat="39.759557821239" lon="2.96454978693">
        <ele>72</ele>
        <time>2014-05-03T10:10:50Z</time>
      </trkpt>
      <trkpt lat="39.759497471559" lon="2.964500082263">
        <ele>71.6</ele>
        <time>2014-05-03T10:10:51Z</time>
      </trkpt>
      <trkpt lat="39.759325726428" lon="2.96434862133">
        <ele>71.6</ele>
        <time>2014-05-03T10:10:54Z</time>
      </trkpt>
      <trkpt lat="39.758967148746" lon="2.964051734432">
        <ele>71.6</ele>
        <time>2014-05-03T10:11:00Z</time>
      </trkpt>
      <trkpt lat="39.758787692267" lon="2.963910415598">
        <ele>71.6</ele>
        <time>2014-05-03T10:11:03Z</time>
      </trkpt>
      <trkpt lat="39.758530535575" lon="2.963742107046">
        <ele>71.6</ele>
        <time>2014-05-03T10:11:07Z</time>
      </trkpt>
      <trkpt lat="39.758111524394" lon="2.963577318892">
        <ele>71.6</ele>
        <time>2014-05-03T10:11:13Z</time>
      </trkpt>
      <trkpt lat="39.757535855502" lon="2.963399706431">
        <ele>71.6</ele>
        <time>2014-05-03T10:11:21Z</time>
      </trkpt>
      <trkpt lat="39.757472236881" lon="2.963378751681">
        <ele>71.6</ele>
        <time>2014-05-03T10:11:22Z</time>
      </trkpt>
      <trkpt lat="39.757152467396" lon="2.963265428393">
        <ele>71.6</ele>
        <time>2014-05-03T10:11:27Z</time>
      </trkpt>
      <trkpt lat="39.757089938422" lon="2.963240198874">
        <ele>71.6</ele>
        <time>2014-05-03T10:11:28Z</time>
      </trkpt>
      <trkpt lat="39.756904111699" lon="2.963164510317">
        <ele>71.6</ele>
        <time>2014-05-03T10:11:31Z</time>
      </trkpt>
      <trkpt lat="39.756643602247" lon="2.963060407119">
        <ele>71.6</ele>
        <time>2014-05-03T10:11:35Z</time>
      </trkpt>
      <trkpt lat="39.75657881016" lon="2.963032076297">
        <ele>71.6</ele>
        <time>2014-05-03T10:11:36Z</time>
      </trkpt>
      <trkpt lat="39.7563826737" lon="2.962947000012">
        <ele>71.6</ele>
        <time>2014-05-03T10:11:39Z</time>
      </trkpt>
      <trkpt lat="39.755874143827" lon="2.962714737563">
        <ele>71.6</ele>
        <time>2014-05-03T10:11:47Z</time>
      </trkpt>
      <trkpt lat="39.755691586045" lon="2.962619602998">
        <ele>71.6</ele>
        <time>2014-05-03T10:11:50Z</time>
      </trkpt>
      <trkpt lat="39.755631487822" lon="2.962588170873">
        <ele>71.6</ele>
        <time>2014-05-03T10:11:51Z</time>
      </trkpt>
      <trkpt lat="39.755570551409" lon="2.962553385988">
        <ele>71.6</ele>
        <time>2014-05-03T10:11:52Z</time>
      </trkpt>
      <trkpt lat="39.755325045558" lon="2.962431261705">
        <ele>71.6</ele>
        <time>2014-05-03T10:11:56Z</time>
      </trkpt>
      <trkpt lat="39.754815426038" lon="2.962168070045">
        <ele>71.6</ele>
        <time>2014-05-03T10:12:04Z</time>
      </trkpt>
      <trkpt lat="39.754753986711" lon="2.962129597124">
        <ele>71.6</ele>
        <time>2014-05-03T10:12:05Z</time>
      </trkpt>
      <trkpt lat="39.754624067261" lon="2.962061368458">
        <ele>71.6</ele>
        <time>2014-05-03T10:12:07Z</time>
      </trkpt>
      <trkpt lat="39.754561789744" lon="2.962025074831">
        <ele>71.6</ele>
        <time>2014-05-03T10:12:08Z</time>
      </trkpt>
      <trkpt lat="39.754439246366" lon="2.961949889188">
        <ele>71.6</ele>
        <time>2014-05-03T10:12:10Z</time>
      </trkpt>
      <trkpt lat="39.754247049399" lon="2.961830782389">
        <ele>71.6</ele>
        <time>2014-05-03T10:12:13Z</time>
      </trkpt>
      <trkpt lat="39.754059127201" lon="2.96170748464">
        <ele>71.6</ele>
        <time>2014-05-03T10:12:16Z</time>
      </trkpt>
      <trkpt lat="39.753809514219" lon="2.961545378694">
        <ele>71.6</ele>
        <time>2014-05-03T10:12:20Z</time>
      </trkpt>
      <trkpt lat="39.753745644141" lon="2.961504475022">
        <ele>71.6</ele>
        <time>2014-05-03T10:12:21Z</time>
      </trkpt>
      <trkpt lat="39.75323359387" lon="2.961143131313">
        <ele>71.6</ele>
        <time>2014-05-03T10:12:29Z</time>
      </trkpt>
      <trkpt lat="39.753046090767" lon="2.961000806651">
        <ele>71.6</ele>
        <time>2014-05-03T10:12:32Z</time>
      </trkpt>
      <trkpt lat="39.752850792497" lon="2.960853536668">
        <ele>71.6</ele>
        <time>2014-05-03T10:12:35Z</time>
      </trkpt>
      <trkpt lat="39.752456759378" lon="2.960559248159">
        <ele>71.6</ele>
        <time>2014-05-03T10:12:41Z</time>
      </trkpt>
      <trkpt lat="39.752018972741" lon="2.960341486397">
        <ele>71.6</ele>
        <time>2014-05-03T10:12:47Z</time>
      </trkpt>
      <trkpt lat="39.751729126639" lon="2.960164460669">
        <ele>71.6</ele>
        <time>2014-05-03T10:12:51Z</time>
      </trkpt>
      <trkpt lat="39.751598117542" lon="2.960054154865">
        <ele>71.6</ele>
        <time>2014-05-03T10:12:53Z</time>
      </trkpt>
      <trkpt lat="39.751270217614" lon="2.959673532786">
        <ele>71.6</ele>
        <time>2014-05-03T10:12:59Z</time>
      </trkpt>
      <trkpt lat="39.751044744504" lon="2.959334987845">
        <ele>71.6</ele>
        <time>2014-05-03T10:13:04Z</time>
      </trkpt>
      <trkpt lat="39.750944245523" lon="2.959195177753">
        <ele>71.6</ele>
        <time>2014-05-03T10:13:06Z</time>
      </trkpt>
      <trkpt lat="39.750888673526" lon="2.959135247168">
        <ele>71.6</ele>
        <time>2014-05-03T10:13:07Z</time>
      </trkpt>
      <trkpt lat="39.750692704704" lon="2.959014296351">
        <ele>71.6</ele>
        <time>2014-05-03T10:13:10Z</time>
      </trkpt>
      <trkpt lat="39.750623805486" lon="2.958997867827">
        <ele>71.6</ele>
        <time>2014-05-03T10:13:11Z</time>
      </trkpt>
      <trkpt lat="39.750426747017" lon="2.959037346576">
        <ele>71.6</ele>
        <time>2014-05-03T10:13:14Z</time>
      </trkpt>
      <trkpt lat="39.750366397337" lon="2.959068191968">
        <ele>72</ele>
        <time>2014-05-03T10:13:15Z</time>
      </trkpt>
      <trkpt lat="39.75030831077" lon="2.959114208599">
        <ele>72.4</ele>
        <time>2014-05-03T10:13:16Z</time>
      </trkpt>
      <trkpt lat="39.750239914466" lon="2.959153771167">
        <ele>73</ele>
        <time>2014-05-03T10:13:17Z</time>
      </trkpt>
      <trkpt lat="39.750180738252" lon="2.959154693176">
        <ele>73.4</ele>
        <time>2014-05-03T10:13:18Z</time>
      </trkpt>
      <trkpt lat="39.750132374689" lon="2.959113789504">
        <ele>73.8</ele>
        <time>2014-05-03T10:13:19Z</time>
      </trkpt>
      <trkpt lat="39.750112761043" lon="2.959051428168">
        <ele>74.4</ele>
        <time>2014-05-03T10:13:20Z</time>
      </trkpt>
      <trkpt lat="39.75009205775" lon="2.959011362686">
        <ele>75</ele>
        <time>2014-05-03T10:13:21Z</time>
      </trkpt>
      <trkpt lat="39.750076635054" lon="2.958982696588">
        <ele>75.4</ele>
        <time>2014-05-03T10:13:22Z</time>
      </trkpt>
      <trkpt lat="39.750074036665" lon="2.958968614996">
        <ele>76</ele>
        <time>2014-05-03T10:13:23Z</time>
      </trkpt>
      <trkpt lat="39.750063056376" lon="2.958949923359">
        <ele>76.6</ele>
        <time>2014-05-03T10:13:24Z</time>
      </trkpt>
      <trkpt lat="39.750047046947" lon="2.958919497062">
        <ele>77</ele>
        <time>2014-05-03T10:13:25Z</time>
      </trkpt>
      <trkpt lat="39.750032713898" lon="2.958880940322">
        <ele>77.6</ele>
        <time>2014-05-03T10:13:26Z</time>
      </trkpt>
      <trkpt lat="39.750024331998" lon="2.958846825989">
        <ele>78</ele>
        <time>2014-05-03T10:13:27Z</time>
      </trkpt>
      <trkpt lat="39.749999102479" lon="2.958818076072">
        <ele>78.4</ele>
        <time>2014-05-03T10:13:28Z</time>
      </trkpt>
      <trkpt lat="39.749973705322" lon="2.958775076925">
        <ele>78.8</ele>
        <time>2014-05-03T10:13:29Z</time>
      </trkpt>
      <trkpt lat="39.74995291821" lon="2.958705339517">
        <ele>78.8</ele>
        <time>2014-05-03T10:13:30Z</time>
      </trkpt>
      <trkpt lat="39.749937663152" lon="2.958559578276">
        <ele>78.8</ele>
        <time>2014-05-03T10:13:32Z</time>
      </trkpt>
      <trkpt lat="39.749899944602" lon="2.958328489293">
        <ele>78</ele>
        <time>2014-05-03T10:13:35Z</time>
      </trkpt>
      <trkpt lat="39.74987496654" lon="2.958239222058">
        <ele>77.6</ele>
        <time>2014-05-03T10:13:36Z</time>
      </trkpt>
      <trkpt lat="39.749844875519" lon="2.958137046697">
        <ele>77</ele>
        <time>2014-05-03T10:13:37Z</time>
      </trkpt>
      <trkpt lat="39.749804307123" lon="2.958041576856">
        <ele>76.4</ele>
        <time>2014-05-03T10:13:38Z</time>
      </trkpt>
      <trkpt lat="39.749757284664" lon="2.957944765911">
        <ele>75.8</ele>
        <time>2014-05-03T10:13:39Z</time>
      </trkpt>
      <trkpt lat="39.749701293572" lon="2.957852816468">
        <ele>75.2</ele>
        <time>2014-05-03T10:13:40Z</time>
      </trkpt>
      <trkpt lat="39.749637172037" lon="2.957768913649">
        <ele>74.6</ele>
        <time>2014-05-03T10:13:41Z</time>
      </trkpt>
      <trkpt lat="39.749571960855" lon="2.957687776857">
        <ele>74</ele>
        <time>2014-05-03T10:13:42Z</time>
      </trkpt>
      <trkpt lat="39.749505660026" lon="2.957605718056">
        <ele>73.4</ele>
        <time>2014-05-03T10:13:43Z</time>
      </trkpt>
      <trkpt lat="39.749442711957" lon="2.95753329844">
        <ele>73</ele>
        <time>2014-05-03T10:13:44Z</time>
      </trkpt>
      <trkpt lat="39.749384122476" lon="2.957462722842">
        <ele>72.4</ele>
        <time>2014-05-03T10:13:45Z</time>
      </trkpt>
      <trkpt lat="39.749109196156" lon="2.957137756579">
        <ele>72.4</ele>
        <time>2014-05-03T10:13:50Z</time>
      </trkpt>
      <trkpt lat="39.749004841501" lon="2.957001718342">
        <ele>72.4</ele>
        <time>2014-05-03T10:13:52Z</time>
      </trkpt>
      <trkpt lat="39.748743829135" lon="2.956677422631">
        <ele>72.4</ele>
        <time>2014-05-03T10:13:57Z</time>
      </trkpt>
      <trkpt lat="39.748529755409" lon="2.956420433577">
        <ele>72.4</ele>
        <time>2014-05-03T10:14:01Z</time>
      </trkpt>
      <trkpt lat="39.748477787629" lon="2.956358575155">
        <ele>72.4</ele>
        <time>2014-05-03T10:14:02Z</time>
      </trkpt>
      <trkpt lat="39.748379467942" lon="2.956233349569">
        <ele>72.8</ele>
        <time>2014-05-03T10:14:04Z</time>
      </trkpt>
      <trkpt lat="39.748328254533" lon="2.956176436468">
        <ele>73.2</ele>
        <time>2014-05-03T10:14:05Z</time>
      </trkpt>
      <trkpt lat="39.748282992273" lon="2.956120780652">
        <ele>73.6</ele>
        <time>2014-05-03T10:14:06Z</time>
      </trkpt>
      <trkpt lat="39.748236808004" lon="2.956061604438">
        <ele>74</ele>
        <time>2014-05-03T10:14:07Z</time>
      </trkpt>
      <trkpt lat="39.748187187156" lon="2.956003266414">
        <ele>74.4</ele>
        <time>2014-05-03T10:14:08Z</time>
      </trkpt>
      <trkpt lat="39.748036648232" lon="2.955823558478">
        <ele>74.4</ele>
        <time>2014-05-03T10:14:11Z</time>
      </trkpt>
      <trkpt lat="39.747636244869" lon="2.9553405934">
        <ele>74.4</ele>
        <time>2014-05-03T10:14:19Z</time>
      </trkpt>
      <trkpt lat="39.747581846338" lon="2.95527689096">
        <ele>74.4</ele>
        <time>2014-05-03T10:14:20Z</time>
      </trkpt>
      <trkpt lat="39.747381435109" lon="2.955037252439">
        <ele>74.4</ele>
        <time>2014-05-03T10:14:24Z</time>
      </trkpt>
      <trkpt lat="39.747127882634" lon="2.954730642537">
        <ele>74.4</ele>
        <time>2014-05-03T10:14:29Z</time>
      </trkpt>
      <trkpt lat="39.746716415163" lon="2.954248850925">
        <ele>74.4</ele>
        <time>2014-05-03T10:14:37Z</time>
      </trkpt>
      <trkpt lat="39.746667632505" lon="2.954185651399">
        <ele>74.4</ele>
        <time>2014-05-03T10:14:38Z</time>
      </trkpt>
      <trkpt lat="39.746614658897" lon="2.954121194588">
        <ele>74.8</ele>
        <time>2014-05-03T10:14:39Z</time>
      </trkpt>
      <trkpt lat="39.746563948402" lon="2.95406403003">
        <ele>75.2</ele>
        <time>2014-05-03T10:14:40Z</time>
      </trkpt>
      <trkpt lat="39.746511058613" lon="2.953999740857">
        <ele>75.6</ele>
        <time>2014-05-03T10:14:41Z</time>
      </trkpt>
      <trkpt lat="39.746460851032" lon="2.953936122236">
        <ele>76</ele>
        <time>2014-05-03T10:14:42Z</time>
      </trkpt>
      <trkpt lat="39.746409721442" lon="2.953869989045">
        <ele>76.4</ele>
        <time>2014-05-03T10:14:43Z</time>
      </trkpt>
      <trkpt lat="39.746307881357" lon="2.953746523658">
        <ele>76.4</ele>
        <time>2014-05-03T10:14:45Z</time>
      </trkpt>
      <trkpt lat="39.745914937885" lon="2.953269761186">
        <ele>76.4</ele>
        <time>2014-05-03T10:14:53Z</time>
      </trkpt>
      <trkpt lat="39.745565161198" lon="2.952844631218">
        <ele>76.4</ele>
        <time>2014-05-03T10:15:01Z</time>
      </trkpt>
      <trkpt lat="39.745251929595" lon="2.952471385211">
        <ele>76.4</ele>
        <time>2014-05-03T10:15:08Z</time>
      </trkpt>
      <trkpt lat="39.745079430093" lon="2.952259574598">
        <ele>76.8</ele>
        <time>2014-05-03T10:15:12Z</time>
      </trkpt>
      <trkpt lat="39.745036179489" lon="2.952203751144">
        <ele>77.6</ele>
        <time>2014-05-03T10:15:13Z</time>
      </trkpt>
      <trkpt lat="39.744991755419" lon="2.952150693717">
        <ele>78</ele>
        <time>2014-05-03T10:15:14Z</time>
      </trkpt>
      <trkpt lat="39.74494640934" lon="2.952096462824">
        <ele>78.4</ele>
        <time>2014-05-03T10:15:15Z</time>
      </trkpt>
      <trkpt lat="39.74485672301" lon="2.951991102341">
        <ele>78.4</ele>
        <time>2014-05-03T10:15:17Z</time>
      </trkpt>
      <trkpt lat="39.74477206582" lon="2.951889848989">
        <ele>78.4</ele>
        <time>2014-05-03T10:15:19Z</time>
      </trkpt>
      <trkpt lat="39.744683888232" lon="2.951783650316">
        <ele>78.4</ele>
        <time>2014-05-03T10:15:21Z</time>
      </trkpt>
      <trkpt lat="39.744514238576" lon="2.951571420608">
        <ele>78.4</ele>
        <time>2014-05-03T10:15:25Z</time>
      </trkpt>
      <trkpt lat="39.744103693114" lon="2.951087533521">
        <ele>78.4</ele>
        <time>2014-05-03T10:15:34Z</time>
      </trkpt>
      <trkpt lat="39.74372097556" lon="2.950651590902">
        <ele>78.4</ele>
        <time>2014-05-03T10:15:42Z</time>
      </trkpt>
      <trkpt lat="39.743679568974" lon="2.950599539303">
        <ele>78.4</ele>
        <time>2014-05-03T10:15:43Z</time>
      </trkpt>
      <trkpt lat="39.743499022848" lon="2.950367695949">
        <ele>78.4</ele>
        <time>2014-05-03T10:15:47Z</time>
      </trkpt>
      <trkpt lat="39.743095266725" lon="2.949890262925">
        <ele>78.4</ele>
        <time>2014-05-03T10:15:55Z</time>
      </trkpt>
      <trkpt lat="39.742997366133" lon="2.949770485574">
        <ele>78.4</ele>
        <time>2014-05-03T10:15:57Z</time>
      </trkpt>
      <trkpt lat="39.742585395748" lon="2.949283329546">
        <ele>78.4</ele>
        <time>2014-05-03T10:16:05Z</time>
      </trkpt>
      <trkpt lat="39.742535271986" lon="2.949223398961">
        <ele>78.4</ele>
        <time>2014-05-03T10:16:06Z</time>
      </trkpt>
      <trkpt lat="39.742388085822" lon="2.949036231134">
        <ele>78.8</ele>
        <time>2014-05-03T10:16:09Z</time>
      </trkpt>
      <trkpt lat="39.74233880025" lon="2.948974456531">
        <ele>79.2</ele>
        <time>2014-05-03T10:16:10Z</time>
      </trkpt>
      <trkpt lat="39.742288257393" lon="2.948913687756">
        <ele>79.6</ele>
        <time>2014-05-03T10:16:11Z</time>
      </trkpt>
      <trkpt lat="39.742236792527" lon="2.948854511542">
        <ele>80.2</ele>
        <time>2014-05-03T10:16:12Z</time>
      </trkpt>
      <trkpt lat="39.742185243842" lon="2.948797933717">
        <ele>80.6</ele>
        <time>2014-05-03T10:16:13Z</time>
      </trkpt>
      <trkpt lat="39.742133611338" lon="2.948737835494">
        <ele>80.6</ele>
        <time>2014-05-03T10:16:14Z</time>
      </trkpt>
      <trkpt lat="39.741731028681" lon="2.948234670037">
        <ele>80.6</ele>
        <time>2014-05-03T10:16:22Z</time>
      </trkpt>
      <trkpt lat="39.741678809444" lon="2.948171386692">
        <ele>80.6</ele>
        <time>2014-05-03T10:16:23Z</time>
      </trkpt>
      <trkpt lat="39.741269940362" lon="2.947683979207">
        <ele>80.6</ele>
        <time>2014-05-03T10:16:31Z</time>
      </trkpt>
      <trkpt lat="39.741168435553" lon="2.947555652318">
        <ele>80.6</ele>
        <time>2014-05-03T10:16:33Z</time>
      </trkpt>
      <trkpt lat="39.740812288622" lon="2.947124235925">
        <ele>80.6</ele>
        <time>2014-05-03T10:16:40Z</time>
      </trkpt>
      <trkpt lat="39.740612799402" lon="2.946874790581">
        <ele>81</ele>
        <time>2014-05-03T10:16:44Z</time>
      </trkpt>
      <trkpt lat="39.740564268201" lon="2.946815027634">
        <ele>81.4</ele>
        <time>2014-05-03T10:16:45Z</time>
      </trkpt>
      <trkpt lat="39.740514144439" lon="2.946755348506">
        <ele>81.8</ele>
        <time>2014-05-03T10:16:46Z</time>
      </trkpt>
      <trkpt lat="39.740466032333" lon="2.946698686862">
        <ele>82.2</ele>
        <time>2014-05-03T10:16:47Z</time>
      </trkpt>
      <trkpt lat="39.740417333494" lon="2.946641187028">
        <ele>82.6</ele>
        <time>2014-05-03T10:16:48Z</time>
      </trkpt>
      <trkpt lat="39.740367461189" lon="2.946583435737">
        <ele>82.6</ele>
        <time>2014-05-03T10:16:49Z</time>
      </trkpt>
      <trkpt lat="39.740033945388" lon="2.946167274402">
        <ele>83</ele>
        <time>2014-05-03T10:16:56Z</time>
      </trkpt>
      <trkpt lat="39.739987006748" lon="2.946108014369">
        <ele>83.4</ele>
        <time>2014-05-03T10:16:57Z</time>
      </trkpt>
      <trkpt lat="39.739939146099" lon="2.946051185087">
        <ele>83.8</ele>
        <time>2014-05-03T10:16:58Z</time>
      </trkpt>
      <trkpt lat="39.739889022337" lon="2.9459947749">
        <ele>84.2</ele>
        <time>2014-05-03T10:16:59Z</time>
      </trkpt>
      <trkpt lat="39.739835461996" lon="2.945936269238">
        <ele>84.6</ele>
        <time>2014-05-03T10:17:00Z</time>
      </trkpt>
      <trkpt lat="39.739536144347" lon="2.945581463411">
        <ele>84.6</ele>
        <time>2014-05-03T10:17:06Z</time>
      </trkpt>
      <trkpt lat="39.73933305091" lon="2.945342076347">
        <ele>84.6</ele>
        <time>2014-05-03T10:17:10Z</time>
      </trkpt>
      <trkpt lat="39.739186619117" lon="2.945176952917">
        <ele>84.6</ele>
        <time>2014-05-03T10:17:13Z</time>
      </trkpt>
      <trkpt lat="39.739040103505" lon="2.945005878338">
        <ele>85.2</ele>
        <time>2014-05-03T10:17:16Z</time>
      </trkpt>
      <trkpt lat="39.738995008883" lon="2.944954162015">
        <ele>85.6</ele>
        <time>2014-05-03T10:17:17Z</time>
      </trkpt>
      <trkpt lat="39.7389483217" lon="2.944900685493">
        <ele>86</ele>
        <time>2014-05-03T10:17:18Z</time>
      </trkpt>
      <trkpt lat="39.738901215422" lon="2.944849555903">
        <ele>86.4</ele>
        <time>2014-05-03T10:17:19Z</time>
      </trkpt>
      <trkpt lat="39.738853522411" lon="2.944800605607">
        <ele>86.8</ele>
        <time>2014-05-03T10:17:20Z</time>
      </trkpt>
      <trkpt lat="39.738718070907" lon="2.944643696439">
        <ele>86.8</ele>
        <time>2014-05-03T10:17:23Z</time>
      </trkpt>
      <trkpt lat="39.738594186425" lon="2.944502042329">
        <ele>87.4</ele>
        <time>2014-05-03T10:17:26Z</time>
      </trkpt>
      <trkpt lat="39.738560575006" lon="2.944463653227">
        <ele>87.8</ele>
        <time>2014-05-03T10:17:27Z</time>
      </trkpt>
      <trkpt lat="39.73852755032" lon="2.944426856686">
        <ele>88.2</ele>
        <time>2014-05-03T10:17:28Z</time>
      </trkpt>
      <trkpt lat="39.738494190358" lon="2.944392490896">
        <ele>88.6</ele>
        <time>2014-05-03T10:17:29Z</time>
      </trkpt>
      <trkpt lat="39.738461668586" lon="2.944355861993">
        <ele>89.2</ele>
        <time>2014-05-03T10:17:30Z</time>
      </trkpt>
      <trkpt lat="39.738294198224" lon="2.94415997699">
        <ele>89.2</ele>
        <time>2014-05-03T10:17:35Z</time>
      </trkpt>
      <trkpt lat="39.738118262143" lon="2.9439495913">
        <ele>90</ele>
        <time>2014-05-03T10:17:40Z</time>
      </trkpt>
      <trkpt lat="39.738082303792" lon="2.943906424515">
        <ele>90.4</ele>
        <time>2014-05-03T10:17:41Z</time>
      </trkpt>
      <trkpt lat="39.738047015993" lon="2.943863006273">
        <ele>90.8</ele>
        <time>2014-05-03T10:17:42Z</time>
      </trkpt>
      <trkpt lat="39.738012482565" lon="2.943819588031">
        <ele>91.2</ele>
        <time>2014-05-03T10:17:43Z</time>
      </trkpt>
      <trkpt lat="39.737792792966" lon="2.94354809829">
        <ele>91.2</ele>
        <time>2014-05-03T10:17:49Z</time>
      </trkpt>
      <trkpt lat="39.737683409171" lon="2.94340225323">
        <ele>91.2</ele>
        <time>2014-05-03T10:17:52Z</time>
      </trkpt>
      <trkpt lat="39.737483333218" lon="2.943153059343">
        <ele>91.2</ele>
        <time>2014-05-03T10:17:57Z</time>
      </trkpt>
      <trkpt lat="39.737318964159" lon="2.942954995046">
        <ele>91.2</ele>
        <time>2014-05-03T10:18:01Z</time>
      </trkpt>
      <trkpt lat="39.737276384107" lon="2.942907804949">
        <ele>91.2</ele>
        <time>2014-05-03T10:18:02Z</time>
      </trkpt>
      <trkpt lat="39.737233887874" lon="2.942859189929">
        <ele>91.6</ele>
        <time>2014-05-03T10:18:03Z</time>
      </trkpt>
      <trkpt lat="39.737192984202" lon="2.942810407271">
        <ele>92</ele>
        <time>2014-05-03T10:18:04Z</time>
      </trkpt>
      <trkpt lat="39.737153170177" lon="2.942764223002">
        <ele>92.8</ele>
        <time>2014-05-03T10:18:05Z</time>
      </trkpt>
      <trkpt lat="39.737113439971" lon="2.942719044561">
        <ele>93.4</ele>
        <time>2014-05-03T10:18:06Z</time>
      </trkpt>
      <trkpt lat="39.737033560464" lon="2.942620473417">
        <ele>93.4</ele>
        <time>2014-05-03T10:18:08Z</time>
      </trkpt>
      <trkpt lat="39.736873549993" lon="2.942430371925">
        <ele>93.4</ele>
        <time>2014-05-03T10:18:12Z</time>
      </trkpt>
      <trkpt lat="39.73679501159" lon="2.942342948708">
        <ele>93.4</ele>
        <time>2014-05-03T10:18:14Z</time>
      </trkpt>
      <trkpt lat="39.736759723791" lon="2.942296261525">
        <ele>93.4</ele>
        <time>2014-05-03T10:18:15Z</time>
      </trkpt>
      <trkpt lat="39.73652343803" lon="2.942043631059">
        <ele>93.4</ele>
        <time>2014-05-03T10:18:21Z</time>
      </trkpt>
      <trkpt lat="39.736478343408" lon="2.942003817034">
        <ele>93.4</ele>
        <time>2014-05-03T10:18:22Z</time>
      </trkpt>
      <trkpt lat="39.736306514458" lon="2.941829976428">
        <ele>93.4</ele>
        <time>2014-05-03T10:18:26Z</time>
      </trkpt>
      <trkpt lat="39.736016668356" lon="2.941561168895">
        <ele>93.4</ele>
        <time>2014-05-03T10:18:32Z</time>
      </trkpt>
      <trkpt lat="39.735864033957" lon="2.941419682423">
        <ele>93.4</ele>
        <time>2014-05-03T10:18:35Z</time>
      </trkpt>
      <trkpt lat="39.735803935734" lon="2.941364697159">
        <ele>93.4</ele>
        <time>2014-05-03T10:18:36Z</time>
      </trkpt>
      <trkpt lat="39.735683236374" lon="2.941241147953">
        <ele>93.4</ele>
        <time>2014-05-03T10:18:38Z</time>
      </trkpt>
      <trkpt lat="39.735618695744" lon="2.941171075269">
        <ele>93.4</ele>
        <time>2014-05-03T10:18:39Z</time>
      </trkpt>
      <trkpt lat="39.735486764638" lon="2.941047442244">
        <ele>93.8</ele>
        <time>2014-05-03T10:18:41Z</time>
      </trkpt>
      <trkpt lat="39.735424403302" lon="2.940993127532">
        <ele>94.4</ele>
        <time>2014-05-03T10:18:42Z</time>
      </trkpt>
      <trkpt lat="39.735374363359" lon="2.940939399553">
        <ele>94.8</ele>
        <time>2014-05-03T10:18:43Z</time>
      </trkpt>
      <trkpt lat="39.735327843814" lon="2.940896232768">
        <ele>95.4</ele>
        <time>2014-05-03T10:18:44Z</time>
      </trkpt>
      <trkpt lat="39.735285096124" lon="2.94085918477">
        <ele>96.2</ele>
        <time>2014-05-03T10:18:45Z</time>
      </trkpt>
      <trkpt lat="39.735246204108" lon="2.940816604718">
        <ele>96.8</ele>
        <time>2014-05-03T10:18:46Z</time>
      </trkpt>
      <trkpt lat="39.735208485558" lon="2.940772599743">
        <ele>97.4</ele>
        <time>2014-05-03T10:18:47Z</time>
      </trkpt>
      <trkpt lat="39.735169844999" lon="2.94073513265">
        <ele>98.2</ele>
        <time>2014-05-03T10:18:48Z</time>
      </trkpt>
      <trkpt lat="39.735128354594" lon="2.940700683041">
        <ele>98.8</ele>
        <time>2014-05-03T10:18:49Z</time>
      </trkpt>
      <trkpt lat="39.735088624388" lon="2.94066472469">
        <ele>99.4</ele>
        <time>2014-05-03T10:18:50Z</time>
      </trkpt>
      <trkpt lat="39.735052498399" lon="2.940622060819">
        <ele>100.2</ele>
        <time>2014-05-03T10:18:51Z</time>
      </trkpt>
      <trkpt lat="39.735018132609" lon="2.940578642577">
        <ele>100.2</ele>
        <time>2014-05-03T10:18:52Z</time>
      </trkpt>
      <trkpt lat="39.734980665516" lon="2.940537152172">
        <ele>100.6</ele>
        <time>2014-05-03T10:18:53Z</time>
      </trkpt>
      <trkpt lat="39.73494512626" lon="2.940499349803">
        <ele>101.4</ele>
        <time>2014-05-03T10:18:54Z</time>
      </trkpt>
      <trkpt lat="39.734915538153" lon="2.940471018981">
        <ele>101.8</ele>
        <time>2014-05-03T10:18:55Z</time>
      </trkpt>
      <trkpt lat="39.734885028037" lon="2.940437742838">
        <ele>102.2</ele>
        <time>2014-05-03T10:18:56Z</time>
      </trkpt>
      <trkpt lat="39.734824343081" lon="2.940367083421">
        <ele>102.6</ele>
        <time>2014-05-03T10:18:58Z</time>
      </trkpt>
      <trkpt lat="39.734789474377" lon="2.940338249685">
        <ele>103.2</ele>
        <time>2014-05-03T10:18:59Z</time>
      </trkpt>
      <trkpt lat="39.734752845474" lon="2.940307823388">
        <ele>103.6</ele>
        <time>2014-05-03T10:19:00Z</time>
      </trkpt>
      <trkpt lat="39.734719066417" lon="2.940278570557">
        <ele>104</ele>
        <time>2014-05-03T10:19:01Z</time>
      </trkpt>
      <trkpt lat="39.734680844953" lon="2.940251413201">
        <ele>104.4</ele>
        <time>2014-05-03T10:19:02Z</time>
      </trkpt>
      <trkpt lat="39.734598869971" lon="2.940196930851">
        <ele>104.4</ele>
        <time>2014-05-03T10:19:04Z</time>
      </trkpt>
      <trkpt lat="39.734550674046" lon="2.940173629169">
        <ele>104.4</ele>
        <time>2014-05-03T10:19:05Z</time>
      </trkpt>
      <trkpt lat="39.734506585252" lon="2.940153847885">
        <ele>104.8</ele>
        <time>2014-05-03T10:19:06Z</time>
      </trkpt>
      <trkpt lat="39.734470123987" lon="2.940139514836">
        <ele>105.2</ele>
        <time>2014-05-03T10:19:07Z</time>
      </trkpt>
      <trkpt lat="39.734439362414" lon="2.940125265606">
        <ele>105.8</ele>
        <time>2014-05-03T10:19:08Z</time>
      </trkpt>
      <trkpt lat="39.734410109583" lon="2.940107915073">
        <ele>106.2</ele>
        <time>2014-05-03T10:19:09Z</time>
      </trkpt>
      <trkpt lat="39.734377084897" lon="2.940091235092">
        <ele>106.6</ele>
        <time>2014-05-03T10:19:10Z</time>
      </trkpt>
      <trkpt lat="39.734243980325" lon="2.940043290624">
        <ele>107</ele>
        <time>2014-05-03T10:19:14Z</time>
      </trkpt>
      <trkpt lat="39.734218918444" lon="2.94002434753">
        <ele>107.4</ele>
        <time>2014-05-03T10:19:15Z</time>
      </trkpt>
      <trkpt lat="39.734198634246" lon="2.939990484654">
        <ele>107.8</ele>
        <time>2014-05-03T10:19:16Z</time>
      </trkpt>
      <trkpt lat="39.734182792455" lon="2.939951341181">
        <ele>108.2</ele>
        <time>2014-05-03T10:19:17Z</time>
      </trkpt>
      <trkpt lat="39.734169213777" lon="2.939913957907">
        <ele>108.6</ele>
        <time>2014-05-03T10:19:18Z</time>
      </trkpt>
      <trkpt lat="39.734172566537" lon="2.93979133071">
        <ele>108.6</ele>
        <time>2014-05-03T10:19:21Z</time>
      </trkpt>
      <trkpt lat="39.734195030029" lon="2.939753947436">
        <ele>108.6</ele>
        <time>2014-05-03T10:19:22Z</time>
      </trkpt>
      <trkpt lat="39.734327296411" lon="2.939674235567">
        <ele>108.6</ele>
        <time>2014-05-03T10:19:26Z</time>
      </trkpt>
      <trkpt lat="39.734408936117" lon="2.939694519765">
        <ele>108.6</ele>
        <time>2014-05-03T10:19:28Z</time>
      </trkpt>
      <trkpt lat="39.734501388474" lon="2.939722347673">
        <ele>108.6</ele>
        <time>2014-05-03T10:19:30Z</time>
      </trkpt>
      <trkpt lat="39.734641785299" lon="2.939718324361">
        <ele>108.6</ele>
        <time>2014-05-03T10:19:33Z</time>
      </trkpt>
      <trkpt lat="39.734727699774" lon="2.939688903892">
        <ele>108.6</ele>
        <time>2014-05-03T10:19:35Z</time>
      </trkpt>
      <trkpt lat="39.734867006952" lon="2.939585638884">
        <ele>108.6</ele>
        <time>2014-05-03T10:19:38Z</time>
      </trkpt>
      <trkpt lat="39.734904306407" lon="2.939537275321">
        <ele>108.6</ele>
        <time>2014-05-03T10:19:39Z</time>
      </trkpt>
      <trkpt lat="39.734976390747" lon="2.939370894606">
        <ele>108.6</ele>
        <time>2014-05-03T10:19:42Z</time>
      </trkpt>
      <trkpt lat="39.734992567814" lon="2.93931775336">
        <ele>108.6</ele>
        <time>2014-05-03T10:19:43Z</time>
      </trkpt>
      <trkpt lat="39.73500966689" lon="2.939203172787">
        <ele>108.6</ele>
        <time>2014-05-03T10:19:45Z</time>
      </trkpt>
      <trkpt lat="39.735006817044" lon="2.939146930238">
        <ele>108.6</ele>
        <time>2014-05-03T10:19:46Z</time>
      </trkpt>
      <trkpt lat="39.735000530619" lon="2.939089262766">
        <ele>108.6</ele>
        <time>2014-05-03T10:19:47Z</time>
      </trkpt>
      <trkpt lat="39.734981419887" lon="2.938959930049">
        <ele>108.6</ele>
        <time>2014-05-03T10:19:49Z</time>
      </trkpt>
      <trkpt lat="39.734967086838" lon="2.938900418559">
        <ele>108.6</ele>
        <time>2014-05-03T10:19:50Z</time>
      </trkpt>
      <trkpt lat="39.734955938911" lon="2.938846774399">
        <ele>108.6</ele>
        <time>2014-05-03T10:19:51Z</time>
      </trkpt>
      <trkpt lat="39.734947137916" lon="2.938792124411">
        <ele>108.6</ele>
        <time>2014-05-03T10:19:52Z</time>
      </trkpt>
      <trkpt lat="39.734968092666" lon="2.938684584634">
        <ele>108.6</ele>
        <time>2014-05-03T10:19:54Z</time>
      </trkpt>
      <trkpt lat="39.735036991884" lon="2.938624318773">
        <ele>108.6</ele>
        <time>2014-05-03T10:19:56Z</time>
      </trkpt>
      <trkpt lat="39.735068172552" lon="2.938598083426">
        <ele>108.6</ele>
        <time>2014-05-03T10:19:57Z</time>
      </trkpt>
      <trkpt lat="39.735078566108" lon="2.938532788425">
        <ele>108.6</ele>
        <time>2014-05-03T10:19:59Z</time>
      </trkpt>
      <trkpt lat="39.735067837276" lon="2.938508816191">
        <ele>109</ele>
        <time>2014-05-03T10:20:00Z</time>
      </trkpt>
      <trkpt lat="39.735061969946" lon="2.938480569188">
        <ele>109.6</ele>
        <time>2014-05-03T10:20:01Z</time>
      </trkpt>
      <trkpt lat="39.735061299394" lon="2.938453747108">
        <ele>110</ele>
        <time>2014-05-03T10:20:02Z</time>
      </trkpt>
      <trkpt lat="39.735051995485" lon="2.938426254476">
        <ele>110.4</ele>
        <time>2014-05-03T10:20:03Z</time>
      </trkpt>
      <trkpt lat="39.735040093187" lon="2.938394822351">
        <ele>111</ele>
        <time>2014-05-03T10:20:04Z</time>
      </trkpt>
      <trkpt lat="39.735008074329" lon="2.938294574827">
        <ele>111</ele>
        <time>2014-05-03T10:20:07Z</time>
      </trkpt>
      <trkpt lat="39.734986449027" lon="2.938235063337">
        <ele>111</ele>
        <time>2014-05-03T10:20:09Z</time>
      </trkpt>
      <trkpt lat="39.734914448506" lon="2.938126182456">
        <ele>111</ele>
        <time>2014-05-03T10:20:14Z</time>
      </trkpt>
      <trkpt lat="39.734829120764" lon="2.938020570516">
        <ele>111.4</ele>
        <time>2014-05-03T10:20:19Z</time>
      </trkpt>
      <trkpt lat="39.734812776059" lon="2.938005650734">
        <ele>111.8</ele>
        <time>2014-05-03T10:20:20Z</time>
      </trkpt>
      <trkpt lat="39.734792910956" lon="2.937993496979">
        <ele>112.2</ele>
        <time>2014-05-03T10:20:21Z</time>
      </trkpt>
      <trkpt lat="39.734769022541" lon="2.937979415387">
        <ele>112.6</ele>
        <time>2014-05-03T10:20:22Z</time>
      </trkpt>
      <trkpt lat="39.734741865185" lon="2.937968099822">
        <ele>113</ele>
        <time>2014-05-03T10:20:23Z</time>
      </trkpt>
      <trkpt lat="39.73471630039" lon="2.93795234185">
        <ele>113</ele>
        <time>2014-05-03T10:20:24Z</time>
      </trkpt>
      <trkpt lat="39.734689645948" lon="2.937933314937">
        <ele>113</ele>
        <time>2014-05-03T10:20:25Z</time>
      </trkpt>
      <trkpt lat="39.734524103423" lon="2.937827870635">
        <ele>113</ele>
        <time>2014-05-03T10:20:32Z</time>
      </trkpt>
      <trkpt lat="39.734502729578" lon="2.9378140405">
        <ele>113.8</ele>
        <time>2014-05-03T10:20:33Z</time>
      </trkpt>
      <trkpt lat="39.734480852819" lon="2.937799204537">
        <ele>114.2</ele>
        <time>2014-05-03T10:20:34Z</time>
      </trkpt>
      <trkpt lat="39.73445897606" lon="2.937784033298">
        <ele>114.6</ele>
        <time>2014-05-03T10:20:35Z</time>
      </trkpt>
      <trkpt lat="39.734434081817" lon="2.937766096032">
        <ele>115</ele>
        <time>2014-05-03T10:20:36Z</time>
      </trkpt>
      <trkpt lat="39.734376498164" lon="2.937728377482">
        <ele>115</ele>
        <time>2014-05-03T10:20:38Z</time>
      </trkpt>
      <trkpt lat="39.734210452725" lon="2.937638355876">
        <ele>115</ele>
        <time>2014-05-03T10:20:43Z</time>
      </trkpt>
      <trkpt lat="39.73409352522" lon="2.93757347997">
        <ele>115</ele>
        <time>2014-05-03T10:20:47Z</time>
      </trkpt>
      <trkpt lat="39.733876182553" lon="2.93743769319">
        <ele>115</ele>
        <time>2014-05-03T10:20:53Z</time>
      </trkpt>
      <trkpt lat="39.733767050215" lon="2.937382121193">
        <ele>115</ele>
        <time>2014-05-03T10:20:56Z</time>
      </trkpt>
      <trkpt lat="39.733728996389" lon="2.937361334081">
        <ele>115</ele>
        <time>2014-05-03T10:20:57Z</time>
      </trkpt>
      <trkpt lat="39.733656660592" lon="2.937304588618">
        <ele>115</ele>
        <time>2014-05-03T10:20:59Z</time>
      </trkpt>
      <trkpt lat="39.733456081725" lon="2.937106943416">
        <ele>115</ele>
        <time>2014-05-03T10:21:04Z</time>
      </trkpt>
      <trkpt lat="39.733354409278" lon="2.936985154409">
        <ele>115.6</ele>
        <time>2014-05-03T10:21:07Z</time>
      </trkpt>
      <trkpt lat="39.733328844483" lon="2.93694986661">
        <ele>116</ele>
        <time>2014-05-03T10:21:08Z</time>
      </trkpt>
      <trkpt lat="39.73330562662" lon="2.936921284331">
        <ele>116.4</ele>
        <time>2014-05-03T10:21:09Z</time>
      </trkpt>
      <trkpt lat="39.733286934983" lon="2.936894126975">
        <ele>116.8</ele>
        <time>2014-05-03T10:21:10Z</time>
      </trkpt>
      <trkpt lat="39.733193979712" lon="2.936628085469">
        <ele>117.4</ele>
        <time>2014-05-03T10:24:00Z</time>
      </trkpt>
      <trkpt lat="39.733179311387" lon="2.936601263389">
        <ele>117.4</ele>
        <time>2014-05-03T10:24:01Z</time>
      </trkpt>
      <trkpt lat="39.733165145976" lon="2.936575530956">
        <ele>117.8</ele>
        <time>2014-05-03T10:24:02Z</time>
      </trkpt>
      <trkpt lat="39.733150058556" lon="2.936544769383">
        <ele>118.2</ele>
        <time>2014-05-03T10:24:03Z</time>
      </trkpt>
      <trkpt lat="39.733131534557" lon="2.936509313946">
        <ele>118.6</ele>
        <time>2014-05-03T10:24:04Z</time>
      </trkpt>
      <trkpt lat="39.733114435481" lon="2.936469919016">
        <ele>119</ele>
        <time>2014-05-03T10:24:05Z</time>
      </trkpt>
      <trkpt lat="39.733095743844" lon="2.936425411127">
        <ele>119.4</ele>
        <time>2014-05-03T10:24:06Z</time>
      </trkpt>
      <trkpt lat="39.733055594543" lon="2.936336730625">
        <ele>119.4</ele>
        <time>2014-05-03T10:24:08Z</time>
      </trkpt>
      <trkpt lat="39.733001112193" lon="2.93620555389">
        <ele>119.4</ele>
        <time>2014-05-03T10:24:11Z</time>
      </trkpt>
      <trkpt lat="39.732963980376" lon="2.936126093478">
        <ele>119.4</ele>
        <time>2014-05-03T10:24:13Z</time>
      </trkpt>
      <trkpt lat="39.732857027332" lon="2.935906236241">
        <ele>119.4</ele>
        <time>2014-05-03T10:24:18Z</time>
      </trkpt>
      <trkpt lat="39.732773878884" lon="2.935726528305">
        <ele>119.4</ele>
        <time>2014-05-03T10:24:22Z</time>
      </trkpt>
      <trkpt lat="39.732750325745" lon="2.935670118118">
        <ele>119.4</ele>
        <time>2014-05-03T10:24:23Z</time>
      </trkpt>
      <trkpt lat="39.732585118496" lon="2.935305254011">
        <ele>119.4</ele>
        <time>2014-05-03T10:24:29Z</time>
      </trkpt>
      <trkpt lat="39.732513704708" lon="2.935157900209">
        <ele>119.4</ele>
        <time>2014-05-03T10:24:31Z</time>
      </trkpt>
      <trkpt lat="39.732434328115" lon="2.934998644109">
        <ele>119</ele>
        <time>2014-05-03T10:24:33Z</time>
      </trkpt>
      <trkpt lat="39.732396274289" lon="2.934910885616">
        <ele>118.4</ele>
        <time>2014-05-03T10:24:34Z</time>
      </trkpt>
      <trkpt lat="39.732356963178" lon="2.934821953657">
        <ele>118</ele>
        <time>2014-05-03T10:24:35Z</time>
      </trkpt>
      <trkpt lat="39.732314634583" lon="2.934733776069">
        <ele>117.6</ele>
        <time>2014-05-03T10:24:36Z</time>
      </trkpt>
      <trkpt lat="39.732272222169" lon="2.934643586825">
        <ele>117.2</ele>
        <time>2014-05-03T10:24:37Z</time>
      </trkpt>
      <trkpt lat="39.732228803927" lon="2.934550547735">
        <ele>116.6</ele>
        <time>2014-05-03T10:24:38Z</time>
      </trkpt>
      <trkpt lat="39.732181949106" lon="2.934450467849">
        <ele>116.2</ele>
        <time>2014-05-03T10:24:39Z</time>
      </trkpt>
      <trkpt lat="39.732135848656" lon="2.934355584741">
        <ele>115.8</ele>
        <time>2014-05-03T10:24:40Z</time>
      </trkpt>
      <trkpt lat="39.73208773655" lon="2.934260701633">
        <ele>115</ele>
        <time>2014-05-03T10:24:41Z</time>
      </trkpt>
      <trkpt lat="39.731998301677" lon="2.934068756123">
        <ele>114.6</ele>
        <time>2014-05-03T10:24:43Z</time>
      </trkpt>
      <trkpt lat="39.731952368865" lon="2.933972112816">
        <ele>114.2</ele>
        <time>2014-05-03T10:24:44Z</time>
      </trkpt>
      <trkpt lat="39.731907609519" lon="2.933873290215">
        <ele>113.8</ele>
        <time>2014-05-03T10:24:45Z</time>
      </trkpt>
      <trkpt lat="39.731859832689" lon="2.93376977375">
        <ele>113.4</ele>
        <time>2014-05-03T10:24:46Z</time>
      </trkpt>
      <trkpt lat="39.731813396963" lon="2.933667682208">
        <ele>113</ele>
        <time>2014-05-03T10:24:47Z</time>
      </trkpt>
      <trkpt lat="39.731763608477" lon="2.933565171571">
        <ele>113</ele>
        <time>2014-05-03T10:24:48Z</time>
      </trkpt>
      <trkpt lat="39.731716250742" lon="2.933465343142">
        <ele>113</ele>
        <time>2014-05-03T10:24:49Z</time>
      </trkpt>
      <trkpt lat="39.731671910491" lon="2.933368113102">
        <ele>113</ele>
        <time>2014-05-03T10:24:50Z</time>
      </trkpt>
      <trkpt lat="39.731628576068" lon="2.933274906374">
        <ele>113</ele>
        <time>2014-05-03T10:24:51Z</time>
      </trkpt>
      <trkpt lat="39.731587420939" lon="2.933186896424">
        <ele>113</ele>
        <time>2014-05-03T10:24:52Z</time>
      </trkpt>
      <trkpt lat="39.731547523095" lon="2.933101484863">
        <ele>113</ele>
        <time>2014-05-03T10:24:53Z</time>
      </trkpt>
      <trkpt lat="39.731370497367" lon="2.932722622983">
        <ele>113</ele>
        <time>2014-05-03T10:24:58Z</time>
      </trkpt>
      <trkpt lat="39.731338227052" lon="2.932657663258">
        <ele>113.4</ele>
        <time>2014-05-03T10:24:59Z</time>
      </trkpt>
      <trkpt lat="39.731306711108" lon="2.932593038809">
        <ele>113.8</ele>
        <time>2014-05-03T10:25:00Z</time>
      </trkpt>
      <trkpt lat="39.731272429137" lon="2.932521122107">
        <ele>114.2</ele>
        <time>2014-05-03T10:25:01Z</time>
      </trkpt>
      <trkpt lat="39.731237225157" lon="2.932451719975">
        <ele>114.6</ele>
        <time>2014-05-03T10:25:02Z</time>
      </trkpt>
      <trkpt lat="39.731202943186" lon="2.932382904576">
        <ele>115</ele>
        <time>2014-05-03T10:25:03Z</time>
      </trkpt>
      <trkpt lat="39.731168409758" lon="2.932315262643">
        <ele>115</ele>
        <time>2014-05-03T10:25:04Z</time>
      </trkpt>
      <trkpt lat="39.731135636529" lon="2.932245525235">
        <ele>115</ele>
        <time>2014-05-03T10:25:05Z</time>
      </trkpt>
      <trkpt lat="39.731104874956" lon="2.932176123103">
        <ele>115</ele>
        <time>2014-05-03T10:25:06Z</time>
      </trkpt>
      <trkpt lat="39.73107520303" lon="2.932107810618">
        <ele>115</ele>
        <time>2014-05-03T10:25:07Z</time>
      </trkpt>
      <trkpt lat="39.731044106181" lon="2.932038240848">
        <ele>115</ele>
        <time>2014-05-03T10:25:08Z</time>
      </trkpt>
      <trkpt lat="39.731011165314" lon="2.931963893395">
        <ele>115</ele>
        <time>2014-05-03T10:25:09Z</time>
      </trkpt>
      <trkpt lat="39.730949558349" lon="2.931829112443">
        <ele>115</ele>
        <time>2014-05-03T10:25:11Z</time>
      </trkpt>
      <trkpt lat="39.730917707129" lon="2.931761721967">
        <ele>115</ele>
        <time>2014-05-03T10:25:12Z</time>
      </trkpt>
      <trkpt lat="39.730762641979" lon="2.931433989677">
        <ele>115.4</ele>
        <time>2014-05-03T10:25:17Z</time>
      </trkpt>
      <trkpt lat="39.730734394976" lon="2.931373304721">
        <ele>115.8</ele>
        <time>2014-05-03T10:25:18Z</time>
      </trkpt>
      <trkpt lat="39.73070639943" lon="2.931313206498">
        <ele>116.2</ele>
        <time>2014-05-03T10:25:19Z</time>
      </trkpt>
      <trkpt lat="39.730677565694" lon="2.931250426067">
        <ele>116.6</ele>
        <time>2014-05-03T10:25:20Z</time>
      </trkpt>
      <trkpt lat="39.730647558492" lon="2.931186388351">
        <ele>117.2</ele>
        <time>2014-05-03T10:25:21Z</time>
      </trkpt>
      <trkpt lat="39.730435161146" lon="2.93071205663">
        <ele>117.2</ele>
        <time>2014-05-03T10:25:28Z</time>
      </trkpt>
      <trkpt lat="39.730147075243" lon="2.930097411903">
        <ele>117.2</ele>
        <time>2014-05-03T10:25:37Z</time>
      </trkpt>
      <trkpt lat="39.729946077281" lon="2.9296752156">
        <ele>117.2</ele>
        <time>2014-05-03T10:25:43Z</time>
      </trkpt>
      <trkpt lat="39.729874244398" lon="2.929529873454">
        <ele>117.2</ele>
        <time>2014-05-03T10:25:45Z</time>
      </trkpt>
      <trkpt lat="39.729736278324" lon="2.929228125054">
        <ele>117.2</ele>
        <time>2014-05-03T10:25:49Z</time>
      </trkpt>
      <trkpt lat="39.729664193984" lon="2.92907339518">
        <ele>117.2</ele>
        <time>2014-05-03T10:25:51Z</time>
      </trkpt>
      <trkpt lat="39.729553217628" lon="2.928834678668">
        <ele>117.2</ele>
        <time>2014-05-03T10:25:54Z</time>
      </trkpt>
      <trkpt lat="39.729514157974" lon="2.92874650108">
        <ele>116.6</ele>
        <time>2014-05-03T10:25:55Z</time>
      </trkpt>
      <trkpt lat="39.729474092492" lon="2.928664274641">
        <ele>116.2</ele>
        <time>2014-05-03T10:25:56Z</time>
      </trkpt>
      <trkpt lat="39.729432769725" lon="2.928579868908">
        <ele>115.6</ele>
        <time>2014-05-03T10:25:57Z</time>
      </trkpt>
      <trkpt lat="39.729391027863" lon="2.9284933677">
        <ele>115.2</ele>
        <time>2014-05-03T10:25:58Z</time>
      </trkpt>
      <trkpt lat="39.729349705096" lon="2.928402424085">
        <ele>114.6</ele>
        <time>2014-05-03T10:25:59Z</time>
      </trkpt>
      <trkpt lat="39.729308549967" lon="2.928312402479">
        <ele>114.6</ele>
        <time>2014-05-03T10:26:00Z</time>
      </trkpt>
      <trkpt lat="39.729226658804" lon="2.928130096154">
        <ele>114.2</ele>
        <time>2014-05-03T10:26:02Z</time>
      </trkpt>
      <trkpt lat="39.729181061268" lon="2.928035883598">
        <ele>113.6</ele>
        <time>2014-05-03T10:26:03Z</time>
      </trkpt>
      <trkpt lat="39.729137559207" lon="2.927948711838">
        <ele>113</ele>
        <time>2014-05-03T10:26:04Z</time>
      </trkpt>
      <trkpt lat="39.729092716042" lon="2.927857600585">
        <ele>112.6</ele>
        <time>2014-05-03T10:26:05Z</time>
      </trkpt>
      <trkpt lat="39.729048627248" lon="2.92776581878">
        <ele>112</ele>
        <time>2014-05-03T10:26:06Z</time>
      </trkpt>
      <trkpt lat="39.7289570969" lon="2.927573705632">
        <ele>112</ele>
        <time>2014-05-03T10:26:08Z</time>
      </trkpt>
      <trkpt lat="39.728909236251" lon="2.927469518615">
        <ele>111.6</ele>
        <time>2014-05-03T10:26:09Z</time>
      </trkpt>
      <trkpt lat="39.728865901828" lon="2.927369271091">
        <ele>111.2</ele>
        <time>2014-05-03T10:26:10Z</time>
      </trkpt>
      <trkpt lat="39.728823154138" lon="2.927271202861">
        <ele>110.8</ele>
        <time>2014-05-03T10:26:11Z</time>
      </trkpt>
      <trkpt lat="39.728780574086" lon="2.927174727192">
        <ele>110.4</ele>
        <time>2014-05-03T10:26:12Z</time>
      </trkpt>
      <trkpt lat="39.728737994034" lon="2.927080514636">
        <ele>110</ele>
        <time>2014-05-03T10:26:13Z</time>
      </trkpt>
      <trkpt lat="39.72865367212" lon="2.926898878863">
        <ele>110</ele>
        <time>2014-05-03T10:26:15Z</time>
      </trkpt>
      <trkpt lat="39.728369944805" lon="2.926285659059">
        <ele>110</ele>
        <time>2014-05-03T10:26:22Z</time>
      </trkpt>
      <trkpt lat="39.728298698655" lon="2.926124475122">
        <ele>110</ele>
        <time>2014-05-03T10:26:24Z</time>
      </trkpt>
      <trkpt lat="39.728095940494" lon="2.925697501136">
        <ele>110</ele>
        <time>2014-05-03T10:26:29Z</time>
      </trkpt>
      <trkpt lat="39.727813302826" lon="2.925085454798">
        <ele>110</ele>
        <time>2014-05-03T10:26:36Z</time>
      </trkpt>
      <trkpt lat="39.727772818249" lon="2.924999540323">
        <ele>110</ele>
        <time>2014-05-03T10:26:37Z</time>
      </trkpt>
      <trkpt lat="39.727649688138" lon="2.924736348663">
        <ele>110</ele>
        <time>2014-05-03T10:26:40Z</time>
      </trkpt>
      <trkpt lat="39.72741901825" lon="2.924234859586">
        <ele>110</ele>
        <time>2014-05-03T10:26:46Z</time>
      </trkpt>
      <trkpt lat="39.727234448812" lon="2.923833366576">
        <ele>110</ele>
        <time>2014-05-03T10:26:51Z</time>
      </trkpt>
      <trkpt lat="39.727125065017" lon="2.923592638408">
        <ele>110</ele>
        <time>2014-05-03T10:26:54Z</time>
      </trkpt>
      <trkpt lat="39.726936556086" lon="2.923198186194">
        <ele>110</ele>
        <time>2014-05-03T10:26:59Z</time>
      </trkpt>
      <trkpt lat="39.726784759877" lon="2.922873555207">
        <ele>110</ele>
        <time>2014-05-03T10:27:03Z</time>
      </trkpt>
      <trkpt lat="39.726488794988" lon="2.922238374825">
        <ele>110</ele>
        <time>2014-05-03T10:27:11Z</time>
      </trkpt>
      <trkpt lat="39.72644755604" lon="2.922158998232">
        <ele>110</ele>
        <time>2014-05-03T10:27:12Z</time>
      </trkpt>
      <trkpt lat="39.726311936898" lon="2.921926065231">
        <ele>110</ele>
        <time>2014-05-03T10:27:15Z</time>
      </trkpt>
      <trkpt lat="39.726264243887" lon="2.921849789941">
        <ele>110</ele>
        <time>2014-05-03T10:27:16Z</time>
      </trkpt>
      <trkpt lat="39.726164331639" lon="2.921695060067">
        <ele>110</ele>
        <time>2014-05-03T10:27:18Z</time>
      </trkpt>
      <trkpt lat="39.725967524627" lon="2.921412590037">
        <ele>110</ele>
        <time>2014-05-03T10:27:22Z</time>
      </trkpt>
      <trkpt lat="39.725914299562" lon="2.921341762982">
        <ele>110</ele>
        <time>2014-05-03T10:27:23Z</time>
      </trkpt>
      <trkpt lat="39.725802233559" lon="2.921201449976">
        <ele>110</ele>
        <time>2014-05-03T10:27:25Z</time>
      </trkpt>
      <trkpt lat="39.725742051517" lon="2.921131293473">
        <ele>109.6</ele>
        <time>2014-05-03T10:27:26Z</time>
      </trkpt>
      <trkpt lat="39.725684635502" lon="2.921064825006">
        <ele>109</ele>
        <time>2014-05-03T10:27:27Z</time>
      </trkpt>
      <trkpt lat="39.72562529165" lon="2.921000368195">
        <ele>108.6</ele>
        <time>2014-05-03T10:27:28Z</time>
      </trkpt>
      <trkpt lat="39.725564606694" lon="2.920938258316">
        <ele>108.2</ele>
        <time>2014-05-03T10:27:29Z</time>
      </trkpt>
      <trkpt lat="39.725502999729" lon="2.92087505879">
        <ele>107.8</ele>
        <time>2014-05-03T10:27:30Z</time>
      </trkpt>
      <trkpt lat="39.725306192717" lon="2.920699374166">
        <ele>107.8</ele>
        <time>2014-05-03T10:27:33Z</time>
      </trkpt>
      <trkpt lat="39.724823479096" lon="2.920329564738">
        <ele>107.8</ele>
        <time>2014-05-03T10:27:40Z</time>
      </trkpt>
      <trkpt lat="39.724525670189" lon="2.920136278124">
        <ele>107.8</ele>
        <time>2014-05-03T10:27:44Z</time>
      </trkpt>
      <trkpt lat="39.724452496202" lon="2.920090010036">
        <ele>107.8</ele>
        <time>2014-05-03T10:27:45Z</time>
      </trkpt>
      <trkpt lat="39.724304723305" lon="2.91999579748">
        <ele>107.4</ele>
        <time>2014-05-03T10:27:47Z</time>
      </trkpt>
      <trkpt lat="39.724226855454" lon="2.919949277935">
        <ele>107</ele>
        <time>2014-05-03T10:27:48Z</time>
      </trkpt>
      <trkpt lat="39.724153513829" lon="2.919903931856">
        <ele>106.4</ele>
        <time>2014-05-03T10:27:49Z</time>
      </trkpt>
      <trkpt lat="39.724081178032" lon="2.919856155026">
        <ele>106</ele>
        <time>2014-05-03T10:27:50Z</time>
      </trkpt>
      <trkpt lat="39.724009177511" lon="2.919811563318">
        <ele>105.6</ele>
        <time>2014-05-03T10:27:51Z</time>
      </trkpt>
      <trkpt lat="39.723935835886" lon="2.919766468696">
        <ele>105.6</ele>
        <time>2014-05-03T10:27:52Z</time>
      </trkpt>
      <trkpt lat="39.723862326623" lon="2.919722296083">
        <ele>105.6</ele>
        <time>2014-05-03T10:27:53Z</time>
      </trkpt>
      <trkpt lat="39.723787476256" lon="2.919677788194">
        <ele>105.6</ele>
        <time>2014-05-03T10:27:54Z</time>
      </trkpt>
      <trkpt lat="39.723713966993" lon="2.919632190658">
        <ele>105.6</ele>
        <time>2014-05-03T10:27:55Z</time>
      </trkpt>
      <trkpt lat="39.723495283222" lon="2.919490536548">
        <ele>105.6</ele>
        <time>2014-05-03T10:27:58Z</time>
      </trkpt>
      <trkpt lat="39.723201665265" lon="2.919312253535">
        <ele>105.6</ele>
        <time>2014-05-03T10:28:02Z</time>
      </trkpt>
      <trkpt lat="39.722898408123" lon="2.919128019373">
        <ele>105.2</ele>
        <time>2014-05-03T10:28:06Z</time>
      </trkpt>
      <trkpt lat="39.72282406067" lon="2.919082505656">
        <ele>104.8</ele>
        <time>2014-05-03T10:28:07Z</time>
      </trkpt>
      <trkpt lat="39.722751305778" lon="2.91903774631">
        <ele>104.2</ele>
        <time>2014-05-03T10:28:08Z</time>
      </trkpt>
      <trkpt lat="39.722677880334" lon="2.918992232593">
        <ele>103.8</ele>
        <time>2014-05-03T10:28:09Z</time>
      </trkpt>
      <trkpt lat="39.722600850673" lon="2.91894554541">
        <ele>103.4</ele>
        <time>2014-05-03T10:28:10Z</time>
      </trkpt>
      <trkpt lat="39.722526167944" lon="2.918902881539">
        <ele>103.4</ele>
        <time>2014-05-03T10:28:11Z</time>
      </trkpt>
      <trkpt lat="39.722445114971" lon="2.918853763605">
        <ele>103.4</ele>
        <time>2014-05-03T10:28:12Z</time>
      </trkpt>
      <trkpt lat="39.722369845509" lon="2.918806908784">
        <ele>103.4</ele>
        <time>2014-05-03T10:28:13Z</time>
      </trkpt>
      <trkpt lat="39.722297258255" lon="2.918760053963">
        <ele>103.4</ele>
        <time>2014-05-03T10:28:14Z</time>
      </trkpt>
      <trkpt lat="39.722151245557" lon="2.918667182511">
        <ele>103.4</ele>
        <time>2014-05-03T10:28:16Z</time>
      </trkpt>
      <trkpt lat="39.722077903932" lon="2.918622674622">
        <ele>103.4</ele>
        <time>2014-05-03T10:28:17Z</time>
      </trkpt>
      <trkpt lat="39.722005735773" lon="2.918575652163">
        <ele>103.4</ele>
        <time>2014-05-03T10:28:18Z</time>
      </trkpt>
      <trkpt lat="39.72157934852" lon="2.918309945933">
        <ele>103</ele>
        <time>2014-05-03T10:28:24Z</time>
      </trkpt>
      <trkpt lat="39.72150642599" lon="2.918263845483">
        <ele>102.6</ele>
        <time>2014-05-03T10:28:25Z</time>
      </trkpt>
      <trkpt lat="39.721434006374" lon="2.918215901015">
        <ele>102.2</ele>
        <time>2014-05-03T10:28:26Z</time>
      </trkpt>
      <trkpt lat="39.721358736912" lon="2.918166447805">
        <ele>101.8</ele>
        <time>2014-05-03T10:28:27Z</time>
      </trkpt>
      <trkpt lat="39.721288580409" lon="2.918119592984">
        <ele>101.4</ele>
        <time>2014-05-03T10:28:28Z</time>
      </trkpt>
      <trkpt lat="39.72121808863" lon="2.918074163086">
        <ele>101.4</ele>
        <time>2014-05-03T10:28:29Z</time>
      </trkpt>
      <trkpt lat="39.721146674842" lon="2.918031415396">
        <ele>101.4</ele>
        <time>2014-05-03T10:28:30Z</time>
      </trkpt>
      <trkpt lat="39.721077021253" lon="2.917988500068">
        <ele>101.4</ele>
        <time>2014-05-03T10:28:31Z</time>
      </trkpt>
      <trkpt lat="39.720796395241" lon="2.917816419661">
        <ele>101.4</ele>
        <time>2014-05-03T10:28:35Z</time>
      </trkpt>
      <trkpt lat="39.720729172403" lon="2.917774091066">
        <ele>101.4</ele>
        <time>2014-05-03T10:28:36Z</time>
      </trkpt>
      <trkpt lat="39.720599001496" lon="2.917694379197">
        <ele>101.4</ele>
        <time>2014-05-03T10:28:38Z</time>
      </trkpt>
      <trkpt lat="39.72049640704" lon="2.917628665101">
        <ele>101.4</ele>
        <time>2014-05-03T10:28:40Z</time>
      </trkpt>
      <trkpt lat="39.720436979369" lon="2.917587174696">
        <ele>101.4</ele>
        <time>2014-05-03T10:28:42Z</time>
      </trkpt>
      <trkpt lat="39.720416108438" lon="2.91756923743">
        <ele>101.4</ele>
        <time>2014-05-03T10:28:45Z</time>
      </trkpt>
      <trkpt lat="39.720416108438" lon="2.91756923743">
        <ele>101.4</ele>
        <time>2014-05-03T10:28:47Z</time>
      </trkpt>
      <trkpt lat="39.720381658829" lon="2.91754073897">
        <ele>101.4</ele>
        <time>2014-05-03T10:28:50Z</time>
      </trkpt>
      <trkpt lat="39.720290882852" lon="2.917429846433">
        <ele>101.4</ele>
        <time>2014-05-03T10:28:55Z</time>
      </trkpt>
      <trkpt lat="39.7201309562" lon="2.917267069935">
        <ele>101.4</ele>
        <time>2014-05-03T10:29:00Z</time>
      </trkpt>
      <trkpt lat="39.719995504696" lon="2.917251982515">
        <ele>101.4</ele>
        <time>2014-05-03T10:29:03Z</time>
      </trkpt>
      <trkpt lat="39.719948566056" lon="2.917252233972">
        <ele>101.4</ele>
        <time>2014-05-03T10:29:04Z</time>
      </trkpt>
      <trkpt lat="39.719898526113" lon="2.917244271167">
        <ele>101.4</ele>
        <time>2014-05-03T10:29:05Z</time>
      </trkpt>
      <trkpt lat="39.719808504507" lon="2.917211497938">
        <ele>101.4</ele>
        <time>2014-05-03T10:29:07Z</time>
      </trkpt>
      <trkpt lat="39.719676741039" lon="2.917148549869">
        <ele>101.4</ele>
        <time>2014-05-03T10:29:10Z</time>
      </trkpt>
      <trkpt lat="39.719587306166" lon="2.917098342288">
        <ele>102.2</ele>
        <time>2014-05-03T10:29:12Z</time>
      </trkpt>
      <trkpt lat="39.71954589958" lon="2.917073531864">
        <ele>102.6</ele>
        <time>2014-05-03T10:29:13Z</time>
      </trkpt>
      <trkpt lat="39.71950650465" lon="2.917053163847">
        <ele>103.2</ele>
        <time>2014-05-03T10:29:14Z</time>
      </trkpt>
      <trkpt lat="39.719469540471" lon="2.917028772518">
        <ele>103.6</ele>
        <time>2014-05-03T10:29:15Z</time>
      </trkpt>
      <trkpt lat="39.719431402826" lon="2.916997508031">
        <ele>103.6</ele>
        <time>2014-05-03T10:29:16Z</time>
      </trkpt>
      <trkpt lat="39.719344985437" lon="2.916941516939">
        <ele>103.6</ele>
        <time>2014-05-03T10:29:18Z</time>
      </trkpt>
      <trkpt lat="39.719299806996" lon="2.916914946316">
        <ele>104</ele>
        <time>2014-05-03T10:29:19Z</time>
      </trkpt>
      <trkpt lat="39.719256807849" lon="2.916885358209">
        <ele>104.4</ele>
        <time>2014-05-03T10:29:20Z</time>
      </trkpt>
      <trkpt lat="39.719218334928" lon="2.916862978536">
        <ele>104.8</ele>
        <time>2014-05-03T10:29:21Z</time>
      </trkpt>
      <trkpt lat="39.719181454568" lon="2.916837246103">
        <ele>105.2</ele>
        <time>2014-05-03T10:29:22Z</time>
      </trkpt>
      <trkpt lat="39.719145915312" lon="2.916811681308">
        <ele>105.8</ele>
        <time>2014-05-03T10:29:23Z</time>
      </trkpt>
      <trkpt lat="39.719036615336" lon="2.916746302488">
        <ele>105.8</ele>
        <time>2014-05-03T10:29:26Z</time>
      </trkpt>
      <trkpt lat="39.719000992261" lon="2.916723336082">
        <ele>105.8</ele>
        <time>2014-05-03T10:29:27Z</time>
      </trkpt>
      <trkpt lat="39.718961513512" lon="2.916697771287">
        <ele>106.2</ele>
        <time>2014-05-03T10:29:28Z</time>
      </trkpt>
      <trkpt lat="39.718920945116" lon="2.916668015542">
        <ele>106.6</ele>
        <time>2014-05-03T10:29:29Z</time>
      </trkpt>
      <trkpt lat="39.718881969281" lon="2.916635996684">
        <ele>107.2</ele>
        <time>2014-05-03T10:29:30Z</time>
      </trkpt>
      <trkpt lat="39.718840395057" lon="2.916608420233">
        <ele>107.6</ele>
        <time>2014-05-03T10:29:31Z</time>
      </trkpt>
      <trkpt lat="39.718800916308" lon="2.916585034732">
        <ele>108</ele>
        <time>2014-05-03T10:29:32Z</time>
      </trkpt>
      <trkpt lat="39.71856186452" lon="2.916441620423">
        <ele>108.4</ele>
        <time>2014-05-03T10:29:38Z</time>
      </trkpt>
      <trkpt lat="39.718518111002" lon="2.916415971809">
        <ele>109</ele>
        <time>2014-05-03T10:29:39Z</time>
      </trkpt>
      <trkpt lat="39.718473519294" lon="2.91639158048">
        <ele>109.4</ele>
        <time>2014-05-03T10:29:40Z</time>
      </trkpt>
      <trkpt lat="39.718430017233" lon="2.916361657097">
        <ele>109.8</ele>
        <time>2014-05-03T10:29:41Z</time>
      </trkpt>
      <trkpt lat="39.718386347534" lon="2.916332236628">
        <ele>110.2</ele>
        <time>2014-05-03T10:29:42Z</time>
      </trkpt>
      <trkpt lat="39.71824419051" lon="2.916241628289">
        <ele>110.2</ele>
        <time>2014-05-03T10:29:45Z</time>
      </trkpt>
      <trkpt lat="39.717853677789" lon="2.916011964229">
        <ele>110.2</ele>
        <time>2014-05-03T10:29:52Z</time>
      </trkpt>
      <trkpt lat="39.717726692004" lon="2.915930240704">
        <ele>110.2</ele>
        <time>2014-05-03T10:29:54Z</time>
      </trkpt>
      <trkpt lat="39.717590989043" lon="2.915847762808">
        <ele>109.8</ele>
        <time>2014-05-03T10:29:56Z</time>
      </trkpt>
      <trkpt lat="39.717520413445" lon="2.915804093109">
        <ele>109.4</ele>
        <time>2014-05-03T10:29:57Z</time>
      </trkpt>
      <trkpt lat="39.717450005485" lon="2.915764195265">
        <ele>109</ele>
        <time>2014-05-03T10:29:58Z</time>
      </trkpt>
      <trkpt lat="39.717376244765" lon="2.915724632697">
        <ele>108.4</ele>
        <time>2014-05-03T10:29:59Z</time>
      </trkpt>
      <trkpt lat="39.717306758814" lon="2.915682555559">
        <ele>108</ele>
        <time>2014-05-03T10:30:00Z</time>
      </trkpt>
      <trkpt lat="39.717169044197" lon="2.915596724903">
        <ele>108</ele>
        <time>2014-05-03T10:30:02Z</time>
      </trkpt>
      <trkpt lat="39.71710006116" lon="2.91555422867">
        <ele>107.6</ele>
        <time>2014-05-03T10:30:03Z</time>
      </trkpt>
      <trkpt lat="39.717033089779" lon="2.915509301686">
        <ele>107.2</ele>
        <time>2014-05-03T10:30:04Z</time>
      </trkpt>
      <trkpt lat="39.716963017095" lon="2.915466973091">
        <ele>106.8</ele>
        <time>2014-05-03T10:30:05Z</time>
      </trkpt>
      <trkpt lat="39.716890765117" lon="2.915420872641">
        <ele>106.4</ele>
        <time>2014-05-03T10:30:06Z</time>
      </trkpt>
      <trkpt lat="39.716823793736" lon="2.915378795503">
        <ele>106</ele>
        <time>2014-05-03T10:30:07Z</time>
      </trkpt>
      <trkpt lat="39.716704184023" lon="2.915299335091">
        <ele>106</ele>
        <time>2014-05-03T10:30:09Z</time>
      </trkpt>
      <trkpt lat="39.716654311718" lon="2.915257844686">
        <ele>106</ele>
        <time>2014-05-03T10:30:10Z</time>
      </trkpt>
      <trkpt lat="39.716577449695" lon="2.915153825307">
        <ele>106</ele>
        <time>2014-05-03T10:30:12Z</time>
      </trkpt>
      <trkpt lat="39.716536462204" lon="2.915101186975">
        <ele>106</ele>
        <time>2014-05-03T10:30:13Z</time>
      </trkpt>
      <trkpt lat="39.716484242967" lon="2.915057517276">
        <ele>106</ele>
        <time>2014-05-03T10:30:14Z</time>
      </trkpt>
      <trkpt lat="39.716369410937" lon="2.915010830093">
        <ele>106</ele>
        <time>2014-05-03T10:30:16Z</time>
      </trkpt>
      <trkpt lat="39.716310569999" lon="2.91500186146">
        <ele>106</ele>
        <time>2014-05-03T10:30:17Z</time>
      </trkpt>
      <trkpt lat="39.716247873387" lon="2.914992138456">
        <ele>106</ele>
        <time>2014-05-03T10:30:18Z</time>
      </trkpt>
      <trkpt lat="39.716188445716" lon="2.914965484014">
        <ele>106</ele>
        <time>2014-05-03T10:30:19Z</time>
      </trkpt>
      <trkpt lat="39.716126252018" lon="2.914926843455">
        <ele>106</ele>
        <time>2014-05-03T10:30:20Z</time>
      </trkpt>
      <trkpt lat="39.715950986489" lon="2.914808491027">
        <ele>105.6</ele>
        <time>2014-05-03T10:30:23Z</time>
      </trkpt>
      <trkpt lat="39.715895665949" lon="2.914773538504">
        <ele>105.2</ele>
        <time>2014-05-03T10:30:24Z</time>
      </trkpt>
      <trkpt lat="39.715840093952" lon="2.914738250705">
        <ele>104.8</ele>
        <time>2014-05-03T10:30:25Z</time>
      </trkpt>
      <trkpt lat="39.715783683765" lon="2.914701957078">
        <ele>104</ele>
        <time>2014-05-03T10:30:26Z</time>
      </trkpt>
      <trkpt lat="39.715726100112" lon="2.914667172193">
        <ele>104</ele>
        <time>2014-05-03T10:30:27Z</time>
      </trkpt>
      <trkpt lat="39.715320164695" lon="2.914422839808">
        <ele>104</ele>
        <time>2014-05-03T10:30:34Z</time>
      </trkpt>
      <trkpt lat="39.715093518119" lon="2.914289567598">
        <ele>104</ele>
        <time>2014-05-03T10:30:38Z</time>
      </trkpt>
      <trkpt lat="39.714978434632" lon="2.914216645068">
        <ele>104</ele>
        <time>2014-05-03T10:30:40Z</time>
      </trkpt>
      <trkpt lat="39.714918923142" lon="2.914176328129">
        <ele>104.4</ele>
        <time>2014-05-03T10:30:41Z</time>
      </trkpt>
      <trkpt lat="39.714861171851" lon="2.914133412801">
        <ele>104.8</ele>
        <time>2014-05-03T10:30:42Z</time>
      </trkpt>
      <trkpt lat="39.714805013121" lon="2.914098879373">
        <ele>105.2</ele>
        <time>2014-05-03T10:30:43Z</time>
      </trkpt>
      <trkpt lat="39.714745166355" lon="2.914063340117">
        <ele>105.8</ele>
        <time>2014-05-03T10:30:44Z</time>
      </trkpt>
      <trkpt lat="39.714691773652" lon="2.91402872287">
        <ele>106.2</ele>
        <time>2014-05-03T10:30:45Z</time>
      </trkpt>
      <trkpt lat="39.714352641978" lon="2.91382420451">
        <ele>106.2</ele>
        <time>2014-05-03T10:30:51Z</time>
      </trkpt>
      <trkpt lat="39.714137143329" lon="2.91368674135">
        <ele>106.2</ele>
        <time>2014-05-03T10:30:55Z</time>
      </trkpt>
      <trkpt lat="39.714083163893" lon="2.913655057768">
        <ele>106.6</ele>
        <time>2014-05-03T10:30:56Z</time>
      </trkpt>
      <trkpt lat="39.714029855009" lon="2.913619602331">
        <ele>107.2</ele>
        <time>2014-05-03T10:30:57Z</time>
      </trkpt>
      <trkpt lat="39.713975875573" lon="2.913585907093">
        <ele>107.6</ele>
        <time>2014-05-03T10:30:58Z</time>
      </trkpt>
      <trkpt lat="39.71391745373" lon="2.913548859095">
        <ele>108</ele>
        <time>2014-05-03T10:30:59Z</time>
      </trkpt>
      <trkpt lat="39.713863893389" lon="2.913514996219">
        <ele>108.6</ele>
        <time>2014-05-03T10:31:00Z</time>
      </trkpt>
      <trkpt lat="39.71364755655" lon="2.913370576082">
        <ele>108.6</ele>
        <time>2014-05-03T10:31:04Z</time>
      </trkpt>
      <trkpt lat="39.713323931391" lon="2.91315784346">
        <ele>108.6</ele>
        <time>2014-05-03T10:31:10Z</time>
      </trkpt>
      <trkpt lat="39.712798972994" lon="2.912828770066">
        <ele>108.6</ele>
        <time>2014-05-03T10:31:19Z</time>
      </trkpt>
      <trkpt lat="39.712347440041" lon="2.912544958932">
        <ele>108.6</ele>
        <time>2014-05-03T10:31:26Z</time>
      </trkpt>
      <trkpt lat="39.712093971385" lon="2.912368939032">
        <ele>108.6</ele>
        <time>2014-05-03T10:31:30Z</time>
      </trkpt>
      <trkpt lat="39.71190915049" lon="2.912215550262">
        <ele>108.6</ele>
        <time>2014-05-03T10:31:33Z</time>
      </trkpt>
      <trkpt lat="39.711627602469" lon="2.911912963672">
        <ele>108.6</ele>
        <time>2014-05-03T10:31:38Z</time>
      </trkpt>
      <trkpt lat="39.711525343289" lon="2.911783630955">
        <ele>108.6</ele>
        <time>2014-05-03T10:31:40Z</time>
      </trkpt>
      <trkpt lat="39.711295930686" lon="2.911420610866">
        <ele>108.6</ele>
        <time>2014-05-03T10:31:45Z</time>
      </trkpt>
      <trkpt lat="39.711255278471" lon="2.911344419395">
        <ele>108.6</ele>
        <time>2014-05-03T10:31:46Z</time>
      </trkpt>
      <trkpt lat="39.711136926043" lon="2.911118108095">
        <ele>108.6</ele>
        <time>2014-05-03T10:31:49Z</time>
      </trkpt>
      <trkpt lat="39.710995774847" lon="2.910795069669">
        <ele>108.6</ele>
        <time>2014-05-03T10:31:53Z</time>
      </trkpt>
      <trkpt lat="39.710885971957" lon="2.910460799497">
        <ele>108.6</ele>
        <time>2014-05-03T10:31:57Z</time>
      </trkpt>
      <trkpt lat="39.710861664447" lon="2.910372370452">
        <ele>109</ele>
        <time>2014-05-03T10:31:58Z</time>
      </trkpt>
      <trkpt lat="39.710839117136" lon="2.910281510656">
        <ele>109.4</ele>
        <time>2014-05-03T10:31:59Z</time>
      </trkpt>
      <trkpt lat="39.710816905101" lon="2.91018897448">
        <ele>109.8</ele>
        <time>2014-05-03T10:32:00Z</time>
      </trkpt>
      <trkpt lat="39.710797459093" lon="2.910101467444">
        <ele>110.2</ele>
        <time>2014-05-03T10:32:01Z</time>
      </trkpt>
      <trkpt lat="39.710779605646" lon="2.910012619304">
        <ele>110.6</ele>
        <time>2014-05-03T10:32:02Z</time>
      </trkpt>
      <trkpt lat="39.710731158264" lon="2.909679857874">
        <ele>110.6</ele>
        <time>2014-05-03T10:32:06Z</time>
      </trkpt>
      <trkpt lat="39.710728224599" lon="2.909525798552">
        <ele>110.6</ele>
        <time>2014-05-03T10:32:08Z</time>
      </trkpt>
      <trkpt lat="39.710750017539" lon="2.909313233568">
        <ele>110.6</ele>
        <time>2014-05-03T10:32:11Z</time>
      </trkpt>
      <trkpt lat="39.7107851377" lon="2.909085748802">
        <ele>110.6</ele>
        <time>2014-05-03T10:32:14Z</time>
      </trkpt>
      <trkpt lat="39.710748844073" lon="2.908932443851">
        <ele>110.6</ele>
        <time>2014-05-03T10:32:16Z</time>
      </trkpt>
      <trkpt lat="39.71059067762" lon="2.908845020634">
        <ele>110.6</ele>
        <time>2014-05-03T10:32:19Z</time>
      </trkpt>
      <trkpt lat="39.710418261937" lon="2.908936215706">
        <ele>110.6</ele>
        <time>2014-05-03T10:32:22Z</time>
      </trkpt>
      <trkpt lat="39.71031407492" lon="2.909038474886">
        <ele>110.6</ele>
        <time>2014-05-03T10:32:24Z</time>
      </trkpt>
      <trkpt lat="39.710202092736" lon="2.909133441813">
        <ele>110.6</ele>
        <time>2014-05-03T10:32:26Z</time>
      </trkpt>
      <trkpt lat="39.710138977029" lon="2.909173591114">
        <ele>110.6</ele>
        <time>2014-05-03T10:32:27Z</time>
      </trkpt>
      <trkpt lat="39.710073262933" lon="2.909203514497">
        <ele>110.6</ele>
        <time>2014-05-03T10:32:28Z</time>
      </trkpt>
      <trkpt lat="39.710006207733" lon="2.909228492559">
        <ele>110.6</ele>
        <time>2014-05-03T10:32:29Z</time>
      </trkpt>
      <trkpt lat="39.70987067241" lon="2.909266294928">
        <ele>110.6</ele>
        <time>2014-05-03T10:32:31Z</time>
      </trkpt>
      <trkpt lat="39.70980864635" lon="2.909282555814">
        <ele>110.6</ele>
        <time>2014-05-03T10:32:32Z</time>
      </trkpt>
      <trkpt lat="39.709746871747" lon="2.909299068157">
        <ele>110.6</ele>
        <time>2014-05-03T10:32:33Z</time>
      </trkpt>
      <trkpt lat="39.70968207966" lon="2.909319855269">
        <ele>110.6</ele>
        <time>2014-05-03T10:32:34Z</time>
      </trkpt>
      <trkpt lat="39.709616365564" lon="2.909336870526">
        <ele>110.6</ele>
        <time>2014-05-03T10:32:35Z</time>
      </trkpt>
      <trkpt lat="39.7095446165" lon="2.909357070905">
        <ele>110.6</ele>
        <time>2014-05-03T10:32:36Z</time>
      </trkpt>
      <trkpt lat="39.709420480561" lon="2.909394873274">
        <ele>111</ele>
        <time>2014-05-03T10:32:38Z</time>
      </trkpt>
      <trkpt lat="39.709361723442" lon="2.909412223807">
        <ele>111.4</ele>
        <time>2014-05-03T10:32:39Z</time>
      </trkpt>
      <trkpt lat="39.709304977979" lon="2.909428233236">
        <ele>111.8</ele>
        <time>2014-05-03T10:32:40Z</time>
      </trkpt>
      <trkpt lat="39.709243538652" lon="2.909446757235">
        <ele>112.2</ele>
        <time>2014-05-03T10:32:41Z</time>
      </trkpt>
      <trkpt lat="39.709182602239" lon="2.909464359225">
        <ele>112.6</ele>
        <time>2014-05-03T10:32:42Z</time>
      </trkpt>
      <trkpt lat="39.70907439191" lon="2.909496210445">
        <ele>112.6</ele>
        <time>2014-05-03T10:32:44Z</time>
      </trkpt>
      <trkpt lat="39.708754035692" lon="2.909597296159">
        <ele>113</ele>
        <time>2014-05-03T10:32:50Z</time>
      </trkpt>
      <trkpt lat="39.708698296057" lon="2.909611796846">
        <ele>113.4</ele>
        <time>2014-05-03T10:32:51Z</time>
      </trkpt>
      <trkpt lat="39.708641215318" lon="2.909629231198">
        <ele>113.8</ele>
        <time>2014-05-03T10:32:52Z</time>
      </trkpt>
      <trkpt lat="39.708584134579" lon="2.909647419921">
        <ele>114.2</ele>
        <time>2014-05-03T10:32:53Z</time>
      </trkpt>
      <trkpt lat="39.708521354148" lon="2.90966678211">
        <ele>114.6</ele>
        <time>2014-05-03T10:32:54Z</time>
      </trkpt>
      <trkpt lat="39.708268388406" lon="2.909747164531">
        <ele>114.6</ele>
        <time>2014-05-03T10:32:58Z</time>
      </trkpt>
      <trkpt lat="39.707922467393" lon="2.90986375676">
        <ele>114.6</ele>
        <time>2014-05-03T10:33:03Z</time>
      </trkpt>
      <trkpt lat="39.707765390587" lon="2.909903906061">
        <ele>114.2</ele>
        <time>2014-05-03T10:33:05Z</time>
      </trkpt>
      <trkpt lat="39.707683583243" lon="2.909929387037">
        <ele>113.8</ele>
        <time>2014-05-03T10:33:06Z</time>
      </trkpt>
      <trkpt lat="39.707602278813" lon="2.909957466402">
        <ele>113.4</ele>
        <time>2014-05-03T10:33:07Z</time>
      </trkpt>
      <trkpt lat="39.707517705442" lon="2.909984372301">
        <ele>113</ele>
        <time>2014-05-03T10:33:08Z</time>
      </trkpt>
      <trkpt lat="39.707429108759" lon="2.910011445838">
        <ele>112.4</ele>
        <time>2014-05-03T10:33:09Z</time>
      </trkpt>
      <trkpt lat="39.70734436775" lon="2.910040363393">
        <ele>112</ele>
        <time>2014-05-03T10:33:10Z</time>
      </trkpt>
      <trkpt lat="39.70725803418" lon="2.910067856025">
        <ele>111.4</ele>
        <time>2014-05-03T10:33:11Z</time>
      </trkpt>
      <trkpt lat="39.707169856592" lon="2.91009677358">
        <ele>111</ele>
        <time>2014-05-03T10:33:12Z</time>
      </trkpt>
      <trkpt lat="39.707077320416" lon="2.910120913452">
        <ele>110.4</ele>
        <time>2014-05-03T10:33:13Z</time>
      </trkpt>
      <trkpt lat="39.706990064837" lon="2.910145556238">
        <ele>110</ele>
        <time>2014-05-03T10:33:14Z</time>
      </trkpt>
      <trkpt lat="39.706908006036" lon="2.910166846264">
        <ele>109.4</ele>
        <time>2014-05-03T10:33:15Z</time>
      </trkpt>
      <trkpt lat="39.706827036882" lon="2.910191824326">
        <ele>108.8</ele>
        <time>2014-05-03T10:33:16Z</time>
      </trkpt>
      <trkpt lat="39.706741625321" lon="2.910224346098">
        <ele>108.4</ele>
        <time>2014-05-03T10:33:17Z</time>
      </trkpt>
      <trkpt lat="39.706658560692" lon="2.910253598929">
        <ele>108.4</ele>
        <time>2014-05-03T10:33:18Z</time>
      </trkpt>
      <trkpt lat="39.706575663701" lon="2.910271703833">
        <ele>108.4</ele>
        <time>2014-05-03T10:33:19Z</time>
      </trkpt>
      <trkpt lat="39.706407774244" lon="2.910244714115">
        <ele>108.4</ele>
        <time>2014-05-03T10:33:21Z</time>
      </trkpt>
      <trkpt lat="39.706239465692" lon="2.910250665264">
        <ele>108</ele>
        <time>2014-05-03T10:33:23Z</time>
      </trkpt>
      <trkpt lat="39.706161346384" lon="2.910278493172">
        <ele>107.4</ele>
        <time>2014-05-03T10:33:24Z</time>
      </trkpt>
      <trkpt lat="39.706081383058" lon="2.910312104591">
        <ele>107</ele>
        <time>2014-05-03T10:33:25Z</time>
      </trkpt>
      <trkpt lat="39.706002006465" lon="2.910334065169">
        <ele>106.6</ele>
        <time>2014-05-03T10:33:26Z</time>
      </trkpt>
      <trkpt lat="39.705923468062" lon="2.910343452897">
        <ele>106.2</ele>
        <time>2014-05-03T10:33:27Z</time>
      </trkpt>
      <trkpt lat="39.705845935487" lon="2.910349236408">
        <ele>106.2</ele>
        <time>2014-05-03T10:33:28Z</time>
      </trkpt>
      <trkpt lat="39.70569145707" lon="2.910361725439">
        <ele>106.2</ele>
        <time>2014-05-03T10:33:30Z</time>
      </trkpt>
      <trkpt lat="39.705615265599" lon="2.910363737095">
        <ele>106.2</ele>
        <time>2014-05-03T10:33:31Z</time>
      </trkpt>
      <trkpt lat="39.705155602203" lon="2.910389804804">
        <ele>106.2</ele>
        <time>2014-05-03T10:33:38Z</time>
      </trkpt>
      <trkpt lat="39.704993580076" lon="2.910405562776">
        <ele>106.2</ele>
        <time>2014-05-03T10:33:40Z</time>
      </trkpt>
      <trkpt lat="39.704913868207" lon="2.910415537237">
        <ele>106.2</ele>
        <time>2014-05-03T10:33:41Z</time>
      </trkpt>
      <trkpt lat="39.704834240157" lon="2.91042282949">
        <ele>106.2</ele>
        <time>2014-05-03T10:33:42Z</time>
      </trkpt>
      <trkpt lat="39.704753690098" lon="2.910430121743">
        <ele>105.6</ele>
        <time>2014-05-03T10:33:43Z</time>
      </trkpt>
      <trkpt lat="39.704674229686" lon="2.910439258014">
        <ele>105.2</ele>
        <time>2014-05-03T10:33:44Z</time>
      </trkpt>
      <trkpt lat="39.704593344351" lon="2.910449232475">
        <ele>104.4</ele>
        <time>2014-05-03T10:33:45Z</time>
      </trkpt>
      <trkpt lat="39.704510950274" lon="2.910458536384">
        <ele>104</ele>
        <time>2014-05-03T10:33:46Z</time>
      </trkpt>
      <trkpt lat="39.704343731369" lon="2.910484604093">
        <ele>104</ele>
        <time>2014-05-03T10:33:48Z</time>
      </trkpt>
      <trkpt lat="39.704177518292" lon="2.910502708997">
        <ele>103.6</ele>
        <time>2014-05-03T10:33:50Z</time>
      </trkpt>
      <trkpt lat="39.704097052052" lon="2.910508827784">
        <ele>103.2</ele>
        <time>2014-05-03T10:33:51Z</time>
      </trkpt>
      <trkpt lat="39.704018346011" lon="2.910511258535">
        <ele>102.8</ele>
        <time>2014-05-03T10:33:52Z</time>
      </trkpt>
      <trkpt lat="39.703938215047" lon="2.910513102553">
        <ele>102.4</ele>
        <time>2014-05-03T10:33:53Z</time>
      </trkpt>
      <trkpt lat="39.703858251721" lon="2.910513186372">
        <ele>101.8</ele>
        <time>2014-05-03T10:33:54Z</time>
      </trkpt>
      <trkpt lat="39.703693798843" lon="2.910505894119">
        <ele>101.8</ele>
        <time>2014-05-03T10:33:56Z</time>
      </trkpt>
      <trkpt lat="39.703613332603" lon="2.910502708997">
        <ele>101.8</ele>
        <time>2014-05-03T10:33:57Z</time>
      </trkpt>
      <trkpt lat="39.703534375105" lon="2.910497344581">
        <ele>101.8</ele>
        <time>2014-05-03T10:33:58Z</time>
      </trkpt>
      <trkpt lat="39.703457596901" lon="2.910489465595">
        <ele>101.8</ele>
        <time>2014-05-03T10:33:59Z</time>
      </trkpt>
      <trkpt lat="39.70338308181" lon="2.91048401736">
        <ele>101.8</ele>
        <time>2014-05-03T10:34:00Z</time>
      </trkpt>
      <trkpt lat="39.703311165108" lon="2.910474545813">
        <ele>101.8</ele>
        <time>2014-05-03T10:34:01Z</time>
      </trkpt>
      <trkpt lat="39.703088625663" lon="2.910425763155">
        <ele>101.4</ele>
        <time>2014-05-03T10:34:04Z</time>
      </trkpt>
      <trkpt lat="39.703009751984" lon="2.910401623283">
        <ele>101</ele>
        <time>2014-05-03T10:34:05Z</time>
      </trkpt>
      <trkpt lat="39.702933644332" lon="2.910377231954">
        <ele>100.6</ele>
        <time>2014-05-03T10:34:06Z</time>
      </trkpt>
      <trkpt lat="39.702855692662" lon="2.91035242153">
        <ele>100.2</ele>
        <time>2014-05-03T10:34:07Z</time>
      </trkpt>
      <trkpt lat="39.702778327725" lon="2.910326772916">
        <ele>99.8</ele>
        <time>2014-05-03T10:34:08Z</time>
      </trkpt>
      <trkpt lat="39.702700627512" lon="2.910300621388">
        <ele>99.8</ele>
        <time>2014-05-03T10:34:09Z</time>
      </trkpt>
      <trkpt lat="39.702555872099" lon="2.910244043563">
        <ele>99.8</ele>
        <time>2014-05-03T10:34:11Z</time>
      </trkpt>
      <trkpt lat="39.702359400363" lon="2.910152597034">
        <ele>99.8</ele>
        <time>2014-05-03T10:34:14Z</time>
      </trkpt>
      <trkpt lat="39.702298966864" lon="2.910124098574">
        <ele>99.8</ele>
        <time>2014-05-03T10:34:15Z</time>
      </trkpt>
      <trkpt lat="39.702238533365" lon="2.910092247354">
        <ele>99.8</ele>
        <time>2014-05-03T10:34:16Z</time>
      </trkpt>
      <trkpt lat="39.701981711949" lon="2.909957382583">
        <ele>99.8</ele>
        <time>2014-05-03T10:34:20Z</time>
      </trkpt>
      <trkpt lat="39.701916752224" lon="2.909926956286">
        <ele>99.8</ele>
        <time>2014-05-03T10:34:21Z</time>
      </trkpt>
      <trkpt lat="39.701598742938" lon="2.909828804237">
        <ele>99.8</ele>
        <time>2014-05-03T10:34:26Z</time>
      </trkpt>
      <trkpt lat="39.701533112661" lon="2.909821679622">
        <ele>99.8</ele>
        <time>2014-05-03T10:34:27Z</time>
      </trkpt>
      <trkpt lat="39.701396822967" lon="2.909820254699">
        <ele>99.8</ele>
        <time>2014-05-03T10:34:29Z</time>
      </trkpt>
      <trkpt lat="39.701330941233" lon="2.909827630771">
        <ele>99.8</ele>
        <time>2014-05-03T10:34:30Z</time>
      </trkpt>
      <trkpt lat="39.70126497568" lon="2.909844729847">
        <ele>99.8</ele>
        <time>2014-05-03T10:34:31Z</time>
      </trkpt>
      <trkpt lat="39.701200183593" lon="2.909866606606">
        <ele>99.8</ele>
        <time>2014-05-03T10:34:32Z</time>
      </trkpt>
      <trkpt lat="39.7009447871" lon="2.91000038173">
        <ele>99.8</ele>
        <time>2014-05-03T10:34:36Z</time>
      </trkpt>
      <trkpt lat="39.700822159903" lon="2.910088140223">
        <ele>99.8</ele>
        <time>2014-05-03T10:34:38Z</time>
      </trkpt>
      <trkpt lat="39.700763318965" lon="2.910133234845">
        <ele>99.8</ele>
        <time>2014-05-03T10:34:39Z</time>
      </trkpt>
      <trkpt lat="39.700647648745" lon="2.910219568415">
        <ele>99.8</ele>
        <time>2014-05-03T10:34:41Z</time>
      </trkpt>
      <trkpt lat="39.700591573834" lon="2.910260807363">
        <ele>99.8</ele>
        <time>2014-05-03T10:34:42Z</time>
      </trkpt>
      <trkpt lat="39.700530553602" lon="2.910305147614">
        <ele>99.8</ele>
        <time>2014-05-03T10:34:43Z</time>
      </trkpt>
      <trkpt lat="39.700470623017" lon="2.910349404046">
        <ele>99.8</ele>
        <time>2014-05-03T10:34:44Z</time>
      </trkpt>
      <trkpt lat="39.700228553745" lon="2.910536739511">
        <ele>99.8</ele>
        <time>2014-05-03T10:34:48Z</time>
      </trkpt>
      <trkpt lat="39.700161666183" lon="2.910585941264">
        <ele>99.8</ele>
        <time>2014-05-03T10:34:49Z</time>
      </trkpt>
      <trkpt lat="39.700095113897" lon="2.910634640103">
        <ele>99.8</ele>
        <time>2014-05-03T10:34:50Z</time>
      </trkpt>
      <trkpt lat="39.700026717593" lon="2.910686943159">
        <ele>99.8</ele>
        <time>2014-05-03T10:34:51Z</time>
      </trkpt>
      <trkpt lat="39.699961422592" lon="2.910736228731">
        <ele>99.8</ele>
        <time>2014-05-03T10:34:52Z</time>
      </trkpt>
      <trkpt lat="39.699892355736" lon="2.910786520131">
        <ele>99.8</ele>
        <time>2014-05-03T10:34:53Z</time>
      </trkpt>
      <trkpt lat="39.699824881441" lon="2.910837314445">
        <ele>99.8</ele>
        <time>2014-05-03T10:34:54Z</time>
      </trkpt>
      <trkpt lat="39.699753886748" lon="2.910888695492">
        <ele>99.8</ele>
        <time>2014-05-03T10:34:55Z</time>
      </trkpt>
      <trkpt lat="39.699681802408" lon="2.910939322168">
        <ele>99.8</ele>
        <time>2014-05-03T10:34:56Z</time>
      </trkpt>
      <trkpt lat="39.699609047516" lon="2.91098860774">
        <ele>99.8</ele>
        <time>2014-05-03T10:34:57Z</time>
      </trkpt>
      <trkpt lat="39.699531179665" lon="2.911035630199">
        <ele>99.4</ele>
        <time>2014-05-03T10:34:58Z</time>
      </trkpt>
      <trkpt lat="39.699454150004" lon="2.91107913226">
        <ele>99</ele>
        <time>2014-05-03T10:34:59Z</time>
      </trkpt>
      <trkpt lat="39.699371755927" lon="2.911117018448">
        <ele>98.6</ele>
        <time>2014-05-03T10:35:00Z</time>
      </trkpt>
      <trkpt lat="39.699288356022" lon="2.911144678718">
        <ele>98</ele>
        <time>2014-05-03T10:35:01Z</time>
      </trkpt>
      <trkpt lat="39.699205207574" lon="2.911169824418">
        <ele>97.6</ele>
        <time>2014-05-03T10:35:02Z</time>
      </trkpt>
      <trkpt lat="39.69911837109" lon="2.911192036453">
        <ele>97.6</ele>
        <time>2014-05-03T10:35:03Z</time>
      </trkpt>
      <trkpt lat="39.699030696416" lon="2.911209638443">
        <ele>97.6</ele>
        <time>2014-05-03T10:35:04Z</time>
      </trkpt>
      <trkpt lat="39.698675387675" lon="2.911272670331">
        <ele>97.6</ele>
        <time>2014-05-03T10:35:08Z</time>
      </trkpt>
      <trkpt lat="39.69858528225" lon="2.911285578457">
        <ele>97.6</ele>
        <time>2014-05-03T10:35:09Z</time>
      </trkpt>
      <trkpt lat="39.698495260644" lon="2.911295720556">
        <ele>97.6</ele>
        <time>2014-05-03T10:35:10Z</time>
      </trkpt>
      <trkpt lat="39.698405239038" lon="2.91130711994">
        <ele>97.6</ele>
        <time>2014-05-03T10:35:11Z</time>
      </trkpt>
      <trkpt lat="39.698317229088" lon="2.911321201532">
        <ele>97.6</ele>
        <time>2014-05-03T10:35:12Z</time>
      </trkpt>
      <trkpt lat="39.698134503668" lon="2.911355902598">
        <ele>97.6</ele>
        <time>2014-05-03T10:35:14Z</time>
      </trkpt>
      <trkpt lat="39.697956053017" lon="2.911393369691">
        <ele>97.2</ele>
        <time>2014-05-03T10:35:16Z</time>
      </trkpt>
      <trkpt lat="39.69786527704" lon="2.911414659717">
        <ele>96.8</ele>
        <time>2014-05-03T10:35:17Z</time>
      </trkpt>
      <trkpt lat="39.697773411416" lon="2.911436117381">
        <ele>96.4</ele>
        <time>2014-05-03T10:35:18Z</time>
      </trkpt>
      <trkpt lat="39.697682719258" lon="2.911457072131">
        <ele>96</ele>
        <time>2014-05-03T10:35:19Z</time>
      </trkpt>
      <trkpt lat="39.697591524186" lon="2.911481379641">
        <ele>95.6</ele>
        <time>2014-05-03T10:35:20Z</time>
      </trkpt>
      <trkpt lat="39.697412989716" lon="2.911531419584">
        <ele>95.2</ele>
        <time>2014-05-03T10:35:22Z</time>
      </trkpt>
      <trkpt lat="39.697326991422" lon="2.911556984379">
        <ele>94.2</ele>
        <time>2014-05-03T10:35:23Z</time>
      </trkpt>
      <trkpt lat="39.697242082775" lon="2.91158036988">
        <ele>93.8</ele>
        <time>2014-05-03T10:35:24Z</time>
      </trkpt>
      <trkpt lat="39.697156671214" lon="2.91160132463">
        <ele>93.4</ele>
        <time>2014-05-03T10:35:25Z</time>
      </trkpt>
      <trkpt lat="39.696984842264" lon="2.911650023469">
        <ele>93.4</ele>
        <time>2014-05-03T10:35:27Z</time>
      </trkpt>
      <trkpt lat="39.696817371902" lon="2.911699644317">
        <ele>93.4</ele>
        <time>2014-05-03T10:35:29Z</time>
      </trkpt>
      <trkpt lat="39.696732463255" lon="2.911725544388">
        <ele>93.4</ele>
        <time>2014-05-03T10:35:30Z</time>
      </trkpt>
      <trkpt lat="39.6966448724" lon="2.911750857726">
        <ele>93.4</ele>
        <time>2014-05-03T10:35:31Z</time>
      </trkpt>
      <trkpt lat="39.696306578916" lon="2.911855380019">
        <ele>93.4</ele>
        <time>2014-05-03T10:35:35Z</time>
      </trkpt>
      <trkpt lat="39.696133157405" lon="2.911911119654">
        <ele>93.4</ele>
        <time>2014-05-03T10:35:37Z</time>
      </trkpt>
      <trkpt lat="39.695795953568" lon="2.912031064643">
        <ele>93.4</ele>
        <time>2014-05-03T10:35:41Z</time>
      </trkpt>
      <trkpt lat="39.69571112874" lon="2.912062245311">
        <ele>93.4</ele>
        <time>2014-05-03T10:35:42Z</time>
      </trkpt>
      <trkpt lat="39.69562479517" lon="2.912094599445">
        <ele>93.4</ele>
        <time>2014-05-03T10:35:43Z</time>
      </trkpt>
      <trkpt lat="39.695359759492" lon="2.912199037919">
        <ele>93.4</ele>
        <time>2014-05-03T10:35:46Z</time>
      </trkpt>
      <trkpt lat="39.695273174465" lon="2.91223415808">
        <ele>93</ele>
        <time>2014-05-03T10:35:47Z</time>
      </trkpt>
      <trkpt lat="39.695185164515" lon="2.912268691508">
        <ele>92</ele>
        <time>2014-05-03T10:35:48Z</time>
      </trkpt>
      <trkpt lat="39.695098830945" lon="2.912304649859">
        <ele>91.6</ele>
        <time>2014-05-03T10:35:49Z</time>
      </trkpt>
      <trkpt lat="39.695011826823" lon="2.912338345097">
        <ele>91.2</ele>
        <time>2014-05-03T10:35:50Z</time>
      </trkpt>
      <trkpt lat="39.694925996167" lon="2.912371705059">
        <ele>91.2</ele>
        <time>2014-05-03T10:35:51Z</time>
      </trkpt>
      <trkpt lat="39.69439600863" lon="2.912577229247">
        <ele>91.2</ele>
        <time>2014-05-03T10:35:57Z</time>
      </trkpt>
      <trkpt lat="39.694036006025" lon="2.912714357131">
        <ele>90.8</ele>
        <time>2014-05-03T10:36:01Z</time>
      </trkpt>
      <trkpt lat="39.693949588636" lon="2.912746375989">
        <ele>90.4</ele>
        <time>2014-05-03T10:36:02Z</time>
      </trkpt>
      <trkpt lat="39.693863338885" lon="2.912781412331">
        <ele>89.8</ele>
        <time>2014-05-03T10:36:03Z</time>
      </trkpt>
      <trkpt lat="39.693775999487" lon="2.912814604655">
        <ele>89.4</ele>
        <time>2014-05-03T10:36:04Z</time>
      </trkpt>
      <trkpt lat="39.693688240994" lon="2.912847545522">
        <ele>89</ele>
        <time>2014-05-03T10:36:05Z</time>
      </trkpt>
      <trkpt lat="39.69341532633" lon="2.912955755851">
        <ele>89</ele>
        <time>2014-05-03T10:36:08Z</time>
      </trkpt>
      <trkpt lat="39.692873352676" lon="2.913173182337">
        <ele>89</ele>
        <time>2014-05-03T10:36:14Z</time>
      </trkpt>
      <trkpt lat="39.692780565043" lon="2.91320813486">
        <ele>89</ele>
        <time>2014-05-03T10:36:15Z</time>
      </trkpt>
      <trkpt lat="39.692499519936" lon="2.913320703777">
        <ele>89</ele>
        <time>2014-05-03T10:36:18Z</time>
      </trkpt>
      <trkpt lat="39.692317800344" lon="2.913389519176">
        <ele>89</ele>
        <time>2014-05-03T10:36:20Z</time>
      </trkpt>
      <trkpt lat="39.692228784566" lon="2.913423382052">
        <ele>88.6</ele>
        <time>2014-05-03T10:36:21Z</time>
      </trkpt>
      <trkpt lat="39.692140606978" lon="2.913456909652">
        <ele>88.2</ele>
        <time>2014-05-03T10:36:22Z</time>
      </trkpt>
      <trkpt lat="39.692052680847" lon="2.913491359261">
        <ele>87.8</ele>
        <time>2014-05-03T10:36:23Z</time>
      </trkpt>
      <trkpt lat="39.691958803567" lon="2.913527149974">
        <ele>87.2</ele>
        <time>2014-05-03T10:36:24Z</time>
      </trkpt>
      <trkpt lat="39.691868530504" lon="2.913560929031">
        <ele>86.8</ele>
        <time>2014-05-03T10:36:25Z</time>
      </trkpt>
      <trkpt lat="39.691687313826" lon="2.913633516285">
        <ele>86.8</ele>
        <time>2014-05-03T10:36:27Z</time>
      </trkpt>
      <trkpt lat="39.691134695159" lon="2.913847925287">
        <ele>86.8</ele>
        <time>2014-05-03T10:36:33Z</time>
      </trkpt>
      <trkpt lat="39.691049199779" lon="2.913880027964">
        <ele>86.8</ele>
        <time>2014-05-03T10:36:34Z</time>
      </trkpt>
      <trkpt lat="39.690964710227" lon="2.913912801193">
        <ele>86.8</ele>
        <time>2014-05-03T10:36:35Z</time>
      </trkpt>
      <trkpt lat="39.690800089711" lon="2.913972228864">
        <ele>86.8</ele>
        <time>2014-05-03T10:36:37Z</time>
      </trkpt>
      <trkpt lat="39.690548884168" lon="2.914046827774">
        <ele>86.8</ele>
        <time>2014-05-03T10:36:40Z</time>
      </trkpt>
      <trkpt lat="39.690391304448" lon="2.914087563808">
        <ele>86.8</ele>
        <time>2014-05-03T10:36:42Z</time>
      </trkpt>
      <trkpt lat="39.690315280615" lon="2.914105668712">
        <ele>86.8</ele>
        <time>2014-05-03T10:36:43Z</time>
      </trkpt>
      <trkpt lat="39.690161808026" lon="2.91414523128">
        <ele>86.8</ele>
        <time>2014-05-03T10:36:45Z</time>
      </trkpt>
      <trkpt lat="39.689930216129" lon="2.914233325049">
        <ele>86.8</ele>
        <time>2014-05-03T10:36:48Z</time>
      </trkpt>
      <trkpt lat="39.689855030486" lon="2.914263583708">
        <ele>86.8</ele>
        <time>2014-05-03T10:36:49Z</time>
      </trkpt>
      <trkpt lat="39.689782694689" lon="2.91430029643">
        <ele>86.8</ele>
        <time>2014-05-03T10:36:50Z</time>
      </trkpt>
      <trkpt lat="39.689633496869" lon="2.914367016354">
        <ele>86.8</ele>
        <time>2014-05-03T10:36:52Z</time>
      </trkpt>
      <trkpt lat="39.689558646502" lon="2.914403226162">
        <ele>86.8</ele>
        <time>2014-05-03T10:36:53Z</time>
      </trkpt>
      <trkpt lat="39.689485137239" lon="2.914436669943">
        <ele>86.8</ele>
        <time>2014-05-03T10:36:54Z</time>
      </trkpt>
      <trkpt lat="39.689407437026" lon="2.914473131208">
        <ele>86.8</ele>
        <time>2014-05-03T10:36:55Z</time>
      </trkpt>
      <trkpt lat="39.689331329374" lon="2.914506658808">
        <ele>86.8</ele>
        <time>2014-05-03T10:36:56Z</time>
      </trkpt>
      <trkpt lat="39.689046344774" lon="2.914643283778">
        <ele>86.8</ele>
        <time>2014-05-03T10:37:00Z</time>
      </trkpt>
      <trkpt lat="39.688973673701" lon="2.914676224645">
        <ele>86.8</ele>
        <time>2014-05-03T10:37:01Z</time>
      </trkpt>
      <trkpt lat="39.688603109902" lon="2.914840174609">
        <ele>86.8</ele>
        <time>2014-05-03T10:37:06Z</time>
      </trkpt>
      <trkpt lat="39.688455923738" lon="2.914905553429">
        <ele>86.8</ele>
        <time>2014-05-03T10:37:08Z</time>
      </trkpt>
      <trkpt lat="39.688383252665" lon="2.914939248667">
        <ele>86.8</ele>
        <time>2014-05-03T10:37:09Z</time>
      </trkpt>
      <trkpt lat="39.688304714262" lon="2.91497084843">
        <ele>86.8</ele>
        <time>2014-05-03T10:37:10Z</time>
      </trkpt>
      <trkpt lat="39.687926606753" lon="2.915079645492">
        <ele>86.8</ele>
        <time>2014-05-03T10:37:15Z</time>
      </trkpt>
      <trkpt lat="39.687614297159" lon="2.915160614646">
        <ele>86.8</ele>
        <time>2014-05-03T10:37:19Z</time>
      </trkpt>
      <trkpt lat="39.68731917046" lon="2.915229681502">
        <ele>86.8</ele>
        <time>2014-05-03T10:37:23Z</time>
      </trkpt>
      <trkpt lat="39.687158070342" lon="2.915268657337">
        <ele>86.8</ele>
        <time>2014-05-03T10:37:25Z</time>
      </trkpt>
      <trkpt lat="39.687077436464" lon="2.915282990386">
        <ele>86.8</ele>
        <time>2014-05-03T10:37:26Z</time>
      </trkpt>
      <trkpt lat="39.686997892233" lon="2.91529438977">
        <ele>86.8</ele>
        <time>2014-05-03T10:37:27Z</time>
      </trkpt>
      <trkpt lat="39.686745680862" lon="2.91532456461">
        <ele>86.8</ele>
        <time>2014-05-03T10:37:30Z</time>
      </trkpt>
      <trkpt lat="39.686572846084" lon="2.915340825496">
        <ele>86.8</ele>
        <time>2014-05-03T10:37:32Z</time>
      </trkpt>
      <trkpt lat="39.686489194722" lon="2.91534719574">
        <ele>86.8</ele>
        <time>2014-05-03T10:37:33Z</time>
      </trkpt>
      <trkpt lat="39.685969014008" lon="2.915382734996">
        <ele>86.8</ele>
        <time>2014-05-03T10:37:39Z</time>
      </trkpt>
      <trkpt lat="39.685880417325" lon="2.915389691973">
        <ele>86.8</ele>
        <time>2014-05-03T10:37:40Z</time>
      </trkpt>
      <trkpt lat="39.685456544642" lon="2.915459010286">
        <ele>86.8</ele>
        <time>2014-05-03T10:37:45Z</time>
      </trkpt>
      <trkpt lat="39.685372558004" lon="2.915476360819">
        <ele>86.8</ele>
        <time>2014-05-03T10:37:46Z</time>
      </trkpt>
      <trkpt lat="39.685288319909" lon="2.915495974465">
        <ele>86.8</ele>
        <time>2014-05-03T10:37:47Z</time>
      </trkpt>
      <trkpt lat="39.684948936778" lon="2.915576105429">
        <ele>86.8</ele>
        <time>2014-05-03T10:37:51Z</time>
      </trkpt>
      <trkpt lat="39.684869224909" lon="2.915595216161">
        <ele>86.4</ele>
        <time>2014-05-03T10:37:52Z</time>
      </trkpt>
      <trkpt lat="39.684785573547" lon="2.91561206378">
        <ele>85.8</ele>
        <time>2014-05-03T10:37:53Z</time>
      </trkpt>
      <trkpt lat="39.684705861678" lon="2.915627821752">
        <ele>85.4</ele>
        <time>2014-05-03T10:37:54Z</time>
      </trkpt>
      <trkpt lat="39.684624473429" lon="2.915642825353">
        <ele>85</ele>
        <time>2014-05-03T10:37:55Z</time>
      </trkpt>
      <trkpt lat="39.684543839551" lon="2.915657996592">
        <ele>84.4</ele>
        <time>2014-05-03T10:37:56Z</time>
      </trkpt>
      <trkpt lat="39.684459601456" lon="2.915669479795">
        <ele>84.4</ele>
        <time>2014-05-03T10:37:57Z</time>
      </trkpt>
      <trkpt lat="39.684049223632" lon="2.915716250797">
        <ele>84.4</ele>
        <time>2014-05-03T10:38:02Z</time>
      </trkpt>
      <trkpt lat="39.683798604822" lon="2.915751873872">
        <ele>84.4</ele>
        <time>2014-05-03T10:38:05Z</time>
      </trkpt>
      <trkpt lat="39.683716713659" lon="2.915761932152">
        <ele>84.4</ele>
        <time>2014-05-03T10:38:06Z</time>
      </trkpt>
      <trkpt lat="39.683386047704" lon="2.915810547172">
        <ele>84.4</ele>
        <time>2014-05-03T10:38:10Z</time>
      </trkpt>
      <trkpt lat="39.683302647799" lon="2.915828149162">
        <ele>84.4</ele>
        <time>2014-05-03T10:38:11Z</time>
      </trkpt>
      <trkpt lat="39.68321371584" lon="2.915853211043">
        <ele>84.4</ele>
        <time>2014-05-03T10:38:12Z</time>
      </trkpt>
      <trkpt lat="39.682872069596" lon="2.91597164729">
        <ele>84.4</ele>
        <time>2014-05-03T10:38:16Z</time>
      </trkpt>
      <trkpt lat="39.682788837329" lon="2.916004420519">
        <ele>84.4</ele>
        <time>2014-05-03T10:38:17Z</time>
      </trkpt>
      <trkpt lat="39.682708119632" lon="2.916035098273">
        <ele>84.4</ele>
        <time>2014-05-03T10:38:18Z</time>
      </trkpt>
      <trkpt lat="39.682626228469" lon="2.916062674724">
        <ele>84.4</ele>
        <time>2014-05-03T10:38:19Z</time>
      </trkpt>
      <trkpt lat="39.682207301107" lon="2.916190331061">
        <ele>84</ele>
        <time>2014-05-03T10:38:24Z</time>
      </trkpt>
      <trkpt lat="39.682122811555" lon="2.916207094861">
        <ele>83.4</ele>
        <time>2014-05-03T10:38:25Z</time>
      </trkpt>
      <trkpt lat="39.682039327831" lon="2.916222852833">
        <ele>83</ele>
        <time>2014-05-03T10:38:26Z</time>
      </trkpt>
      <trkpt lat="39.681956849935" lon="2.916240371004">
        <ele>82.4</ele>
        <time>2014-05-03T10:38:27Z</time>
      </trkpt>
      <trkpt lat="39.681870600184" lon="2.916255626062">
        <ele>82</ele>
        <time>2014-05-03T10:38:28Z</time>
      </trkpt>
      <trkpt lat="39.681623501772" lon="2.916289740395">
        <ele>82</ele>
        <time>2014-05-03T10:38:31Z</time>
      </trkpt>
      <trkpt lat="39.681540353324" lon="2.916301223598">
        <ele>82</ele>
        <time>2014-05-03T10:38:32Z</time>
      </trkpt>
      <trkpt lat="39.681456366686" lon="2.916311198059">
        <ele>82</ele>
        <time>2014-05-03T10:38:33Z</time>
      </trkpt>
      <trkpt lat="39.681369865478" lon="2.916322262167">
        <ele>82</ele>
        <time>2014-05-03T10:38:34Z</time>
      </trkpt>
      <trkpt lat="39.681280598243" lon="2.916336092302">
        <ele>82</ele>
        <time>2014-05-03T10:38:35Z</time>
      </trkpt>
      <trkpt lat="39.681194767587" lon="2.916350592989">
        <ele>82</ele>
        <time>2014-05-03T10:38:36Z</time>
      </trkpt>
      <trkpt lat="39.680771984551" lon="2.916420665673">
        <ele>82</ele>
        <time>2014-05-03T10:38:41Z</time>
      </trkpt>
      <trkpt lat="39.680690177207" lon="2.91643097541">
        <ele>82</ele>
        <time>2014-05-03T10:38:42Z</time>
      </trkpt>
      <trkpt lat="39.68034878242" lon="2.916441117509">
        <ele>82</ele>
        <time>2014-05-03T10:38:46Z</time>
      </trkpt>
      <trkpt lat="39.680181060601" lon="2.91641924075">
        <ele>82</ele>
        <time>2014-05-03T10:38:48Z</time>
      </trkpt>
      <trkpt lat="39.680098247429" lon="2.916400465294">
        <ele>82</ele>
        <time>2014-05-03T10:38:49Z</time>
      </trkpt>
      <trkpt lat="39.680014847524" lon="2.916377834164">
        <ele>82</ele>
        <time>2014-05-03T10:38:50Z</time>
      </trkpt>
      <trkpt lat="39.679928597773" lon="2.916352520826">
        <ele>82</ele>
        <time>2014-05-03T10:38:51Z</time>
      </trkpt>
      <trkpt lat="39.679846036058" lon="2.916328297135">
        <ele>82</ele>
        <time>2014-05-03T10:38:52Z</time>
      </trkpt>
      <trkpt lat="39.679594662877" lon="2.91626752836">
        <ele>82</ele>
        <time>2014-05-03T10:38:55Z</time>
      </trkpt>
      <trkpt lat="39.679211274771" lon="2.916284711255">
        <ele>82</ele>
        <time>2014-05-03T10:39:00Z</time>
      </trkpt>
      <trkpt lat="39.67914262701" lon="2.916301810331">
        <ele>82</ele>
        <time>2014-05-03T10:39:01Z</time>
      </trkpt>
      <trkpt lat="39.678884213033" lon="2.916393508317">
        <ele>82.4</ele>
        <time>2014-05-03T10:39:05Z</time>
      </trkpt>
      <trkpt lat="39.678818079842" lon="2.916418905474">
        <ele>83.2</ele>
        <time>2014-05-03T10:39:06Z</time>
      </trkpt>
      <trkpt lat="39.678756640515" lon="2.916445895192">
        <ele>83.6</ele>
        <time>2014-05-03T10:39:07Z</time>
      </trkpt>
      <trkpt lat="39.678695117369" lon="2.916471040892">
        <ele>84</ele>
        <time>2014-05-03T10:39:08Z</time>
      </trkpt>
      <trkpt lat="39.678633091309" lon="2.916494426393">
        <ele>84</ele>
        <time>2014-05-03T10:39:09Z</time>
      </trkpt>
      <trkpt lat="39.678330169443" lon="2.916616802133">
        <ele>84</ele>
        <time>2014-05-03T10:39:14Z</time>
      </trkpt>
      <trkpt lat="39.677969831562" lon="2.916767760152">
        <ele>84.4</ele>
        <time>2014-05-03T10:39:20Z</time>
      </trkpt>
      <trkpt lat="39.677908308416" lon="2.916796090974">
        <ele>84.8</ele>
        <time>2014-05-03T10:39:21Z</time>
      </trkpt>
      <trkpt lat="39.677849970392" lon="2.916822661597">
        <ele>85.2</ele>
        <time>2014-05-03T10:39:22Z</time>
      </trkpt>
      <trkpt lat="39.677792219101" lon="2.916847220564">
        <ele>85.6</ele>
        <time>2014-05-03T10:39:23Z</time>
      </trkpt>
      <trkpt lat="39.67773279143" lon="2.91687018697">
        <ele>86</ele>
        <time>2014-05-03T10:39:24Z</time>
      </trkpt>
      <trkpt lat="39.677672022655" lon="2.916892650462">
        <ele>86</ele>
        <time>2014-05-03T10:39:25Z</time>
      </trkpt>
      <trkpt lat="39.677611170061" lon="2.916916203601">
        <ele>86</ele>
        <time>2014-05-03T10:39:26Z</time>
      </trkpt>
      <trkpt lat="39.677551239476" lon="2.91693808036">
        <ele>86</ele>
        <time>2014-05-03T10:39:27Z</time>
      </trkpt>
      <trkpt lat="39.67713600015" lon="2.917122063065">
        <ele>86</ele>
        <time>2014-05-03T10:39:34Z</time>
      </trkpt>
      <trkpt lat="39.677077578307" lon="2.917152992276">
        <ele>86</ele>
        <time>2014-05-03T10:39:35Z</time>
      </trkpt>
      <trkpt lat="39.677018234455" lon="2.917184172944">
        <ele>86.4</ele>
        <time>2014-05-03T10:39:36Z</time>
      </trkpt>
      <trkpt lat="39.676956124576" lon="2.917218203458">
        <ele>86.8</ele>
        <time>2014-05-03T10:39:37Z</time>
      </trkpt>
      <trkpt lat="39.676898624742" lon="2.91725156342">
        <ele>87.2</ele>
        <time>2014-05-03T10:39:38Z</time>
      </trkpt>
      <trkpt lat="39.676838526519" lon="2.9172867674">
        <ele>87.6</ele>
        <time>2014-05-03T10:39:39Z</time>
      </trkpt>
      <trkpt lat="39.67677893121" lon="2.91732113319">
        <ele>88</ele>
        <time>2014-05-03T10:39:40Z</time>
      </trkpt>
      <trkpt lat="39.676720677005" lon="2.917354996066">
        <ele>88</ele>
        <time>2014-05-03T10:39:41Z</time>
      </trkpt>
      <trkpt lat="39.676607018441" lon="2.917426242216">
        <ele>88</ele>
        <time>2014-05-03T10:39:43Z</time>
      </trkpt>
      <trkpt lat="39.676139895154" lon="2.917718854345">
        <ele>88</ele>
        <time>2014-05-03T10:39:51Z</time>
      </trkpt>
      <trkpt lat="39.676080802759" lon="2.917756489076">
        <ele>88</ele>
        <time>2014-05-03T10:39:52Z</time>
      </trkpt>
      <trkpt lat="39.676024057296" lon="2.917790268133">
        <ele>88</ele>
        <time>2014-05-03T10:39:53Z</time>
      </trkpt>
      <trkpt lat="39.675965467815" lon="2.917825304475">
        <ele>88</ele>
        <time>2014-05-03T10:39:54Z</time>
      </trkpt>
      <trkpt lat="39.675657852085" lon="2.917972239182">
        <ele>88</ele>
        <time>2014-05-03T10:39:59Z</time>
      </trkpt>
      <trkpt lat="39.6755224844" lon="2.918020938021">
        <ele>88</ele>
        <time>2014-05-03T10:40:01Z</time>
      </trkpt>
      <trkpt lat="39.675457021761" lon="2.918033427052">
        <ele>88</ele>
        <time>2014-05-03T10:40:02Z</time>
      </trkpt>
      <trkpt lat="39.675389798923" lon="2.918038120916">
        <ele>88</ele>
        <time>2014-05-03T10:40:03Z</time>
      </trkpt>
      <trkpt lat="39.675321654076" lon="2.918037534183">
        <ele>88</ele>
        <time>2014-05-03T10:40:04Z</time>
      </trkpt>
      <trkpt lat="39.675249737374" lon="2.91802856555">
        <ele>88</ele>
        <time>2014-05-03T10:40:05Z</time>
      </trkpt>
      <trkpt lat="39.674940948178" lon="2.917955810658">
        <ele>88</ele>
        <time>2014-05-03T10:40:09Z</time>
      </trkpt>
      <trkpt lat="39.674862074499" lon="2.917926809284">
        <ele>88</ele>
        <time>2014-05-03T10:40:10Z</time>
      </trkpt>
      <trkpt lat="39.674785631571" lon="2.917894203693">
        <ele>88</ele>
        <time>2014-05-03T10:40:11Z</time>
      </trkpt>
      <trkpt lat="39.674712625222" lon="2.917855814591">
        <ele>87.6</ele>
        <time>2014-05-03T10:40:12Z</time>
      </trkpt>
      <trkpt lat="39.674640121787" lon="2.91780979796">
        <ele>87.2</ele>
        <time>2014-05-03T10:40:13Z</time>
      </trkpt>
      <trkpt lat="39.674568205085" lon="2.917759674198">
        <ele>86.8</ele>
        <time>2014-05-03T10:40:14Z</time>
      </trkpt>
      <trkpt lat="39.674498970591" lon="2.917702425821">
        <ele>86.4</ele>
        <time>2014-05-03T10:40:15Z</time>
      </trkpt>
      <trkpt lat="39.674424958414" lon="2.917636879363">
        <ele>86</ele>
        <time>2014-05-03T10:40:16Z</time>
      </trkpt>
      <trkpt lat="39.674287327616" lon="2.917501092583">
        <ele>86</ele>
        <time>2014-05-03T10:40:18Z</time>
      </trkpt>
      <trkpt lat="39.674220942968" lon="2.917432444822">
        <ele>85.4</ele>
        <time>2014-05-03T10:40:19Z</time>
      </trkpt>
      <trkpt lat="39.674153552492" lon="2.917362288319">
        <ele>85</ele>
        <time>2014-05-03T10:40:20Z</time>
      </trkpt>
      <trkpt lat="39.674083731265" lon="2.917294646386">
        <ele>84.6</ele>
        <time>2014-05-03T10:40:21Z</time>
      </trkpt>
      <trkpt lat="39.674014999685" lon="2.917227004453">
        <ele>84</ele>
        <time>2014-05-03T10:40:22Z</time>
      </trkpt>
      <trkpt lat="39.673942999164" lon="2.917155255389">
        <ele>83.6</ele>
        <time>2014-05-03T10:40:23Z</time>
      </trkpt>
      <trkpt lat="39.673586349319" lon="2.916789301635">
        <ele>83.6</ele>
        <time>2014-05-03T10:40:28Z</time>
      </trkpt>
      <trkpt lat="39.673444108476" lon="2.916640774367">
        <ele>83.2</ele>
        <time>2014-05-03T10:40:30Z</time>
      </trkpt>
      <trkpt lat="39.67337001248" lon="2.916564582896">
        <ele>82.8</ele>
        <time>2014-05-03T10:40:31Z</time>
      </trkpt>
      <trkpt lat="39.673299017787" lon="2.916494174936">
        <ele>82.4</ele>
        <time>2014-05-03T10:40:32Z</time>
      </trkpt>
      <trkpt lat="39.673227939275" lon="2.916423096424">
        <ele>82</ele>
        <time>2014-05-03T10:40:33Z</time>
      </trkpt>
      <trkpt lat="39.67315627403" lon="2.916350090075">
        <ele>81.4</ele>
        <time>2014-05-03T10:40:34Z</time>
      </trkpt>
      <trkpt lat="39.673016966852" lon="2.916208268327">
        <ele>81.4</ele>
        <time>2014-05-03T10:40:36Z</time>
      </trkpt>
      <trkpt lat="39.672806664981" lon="2.915995870981">
        <ele>81.4</ele>
        <time>2014-05-03T10:40:39Z</time>
      </trkpt>
      <trkpt lat="39.672531738661" lon="2.915717843358">
        <ele>81.4</ele>
        <time>2014-05-03T10:40:43Z</time>
      </trkpt>
      <trkpt lat="39.672325460102" lon="2.915519276147">
        <ele>81.4</ele>
        <time>2014-05-03T10:40:46Z</time>
      </trkpt>
      <trkpt lat="39.672251783201" lon="2.91545280768">
        <ele>81.4</ele>
        <time>2014-05-03T10:40:47Z</time>
      </trkpt>
      <trkpt lat="39.672046342832" lon="2.915271088088">
        <ele>81.4</ele>
        <time>2014-05-03T10:40:50Z</time>
      </trkpt>
      <trkpt lat="39.671706959701" lon="2.914989540067">
        <ele>81.4</ele>
        <time>2014-05-03T10:40:55Z</time>
      </trkpt>
      <trkpt lat="39.671638479578" lon="2.914933381337">
        <ele>81.4</ele>
        <time>2014-05-03T10:40:56Z</time>
      </trkpt>
      <trkpt lat="39.671144282754" lon="2.914590058713">
        <ele>81.4</ele>
        <time>2014-05-03T10:41:03Z</time>
      </trkpt>
      <trkpt lat="39.671073874794" lon="2.914546891928">
        <ele>81.4</ele>
        <time>2014-05-03T10:41:04Z</time>
      </trkpt>
      <trkpt lat="39.670931047218" lon="2.914456283589">
        <ele>81.4</ele>
        <time>2014-05-03T10:41:06Z</time>
      </trkpt>
      <trkpt lat="39.670778664276" lon="2.914364166508">
        <ele>81.4</ele>
        <time>2014-05-03T10:41:08Z</time>
      </trkpt>
      <trkpt lat="39.670559477591" lon="2.914223266769">
        <ele>81.4</ele>
        <time>2014-05-03T10:41:11Z</time>
      </trkpt>
      <trkpt lat="39.67048663888" lon="2.914176495767">
        <ele>81.4</ele>
        <time>2014-05-03T10:41:12Z</time>
      </trkpt>
      <trkpt lat="39.669980539758" lon="2.913868544761">
        <ele>81.4</ele>
        <time>2014-05-03T10:41:19Z</time>
      </trkpt>
      <trkpt lat="39.669756910666" lon="2.913761004984">
        <ele>81.4</ele>
        <time>2014-05-03T10:41:22Z</time>
      </trkpt>
      <trkpt lat="39.66951936762" lon="2.913705349168">
        <ele>81.4</ele>
        <time>2014-05-03T10:41:25Z</time>
      </trkpt>
      <trkpt lat="39.66943638681" lon="2.913700739123">
        <ele>81</ele>
        <time>2014-05-03T10:41:26Z</time>
      </trkpt>
      <trkpt lat="39.669353406" lon="2.913703002236">
        <ele>80.6</ele>
        <time>2014-05-03T10:41:27Z</time>
      </trkpt>
      <trkpt lat="39.669270341371" lon="2.913708953385">
        <ele>80.2</ele>
        <time>2014-05-03T10:41:28Z</time>
      </trkpt>
      <trkpt lat="39.66918744438" lon="2.913721358597">
        <ele>79.8</ele>
        <time>2014-05-03T10:41:29Z</time>
      </trkpt>
      <trkpt lat="39.669106391407" lon="2.9137412237">
        <ele>79.4</ele>
        <time>2014-05-03T10:41:30Z</time>
      </trkpt>
      <trkpt lat="39.669025170796" lon="2.913762849002">
        <ele>79.4</ele>
        <time>2014-05-03T10:41:31Z</time>
      </trkpt>
      <trkpt lat="39.668939507778" lon="2.913787994702">
        <ele>79.4</ele>
        <time>2014-05-03T10:41:32Z</time>
      </trkpt>
      <trkpt lat="39.668857448977" lon="2.91381163166">
        <ele>79.4</ele>
        <time>2014-05-03T10:41:33Z</time>
      </trkpt>
      <trkpt lat="39.668689475701" lon="2.913857899748">
        <ele>79.4</ele>
        <time>2014-05-03T10:41:35Z</time>
      </trkpt>
      <trkpt lat="39.668260070964" lon="2.913918668523">
        <ele>79.4</ele>
        <time>2014-05-03T10:41:40Z</time>
      </trkpt>
      <trkpt lat="39.668175832869" lon="2.913913723202">
        <ele>79.4</ele>
        <time>2014-05-03T10:41:41Z</time>
      </trkpt>
      <trkpt lat="39.668092600602" lon="2.913897629954">
        <ele>79.4</ele>
        <time>2014-05-03T10:41:42Z</time>
      </trkpt>
      <trkpt lat="39.66792764481" lon="2.913847338554">
        <ele>79.4</ele>
        <time>2014-05-03T10:41:44Z</time>
      </trkpt>
      <trkpt lat="39.667848938769" lon="2.91381749899">
        <ele>79</ele>
        <time>2014-05-03T10:41:45Z</time>
      </trkpt>
      <trkpt lat="39.66777090328" lon="2.913784139028">
        <ele>78.4</ele>
        <time>2014-05-03T10:41:46Z</time>
      </trkpt>
      <trkpt lat="39.667697645474" lon="2.913741642795">
        <ele>78</ele>
        <time>2014-05-03T10:41:47Z</time>
      </trkpt>
      <trkpt lat="39.667624974401" lon="2.913692189585">
        <ele>77.6</ele>
        <time>2014-05-03T10:41:48Z</time>
      </trkpt>
      <trkpt lat="39.667558589753" lon="2.913640473262">
        <ele>77.2</ele>
        <time>2014-05-03T10:41:49Z</time>
      </trkpt>
      <trkpt lat="39.667262205769" lon="2.91337409648">
        <ele>77.6</ele>
        <time>2014-05-03T10:41:54Z</time>
      </trkpt>
      <trkpt lat="39.667203029555" lon="2.913322044881">
        <ele>78</ele>
        <time>2014-05-03T10:41:55Z</time>
      </trkpt>
      <trkpt lat="39.667150558861" lon="2.913275609155">
        <ele>78.4</ele>
        <time>2014-05-03T10:41:56Z</time>
      </trkpt>
      <trkpt lat="39.6670986749" lon="2.913228838153">
        <ele>78.8</ele>
        <time>2014-05-03T10:41:57Z</time>
      </trkpt>
      <trkpt lat="39.667051233346" lon="2.913177373287">
        <ele>79.2</ele>
        <time>2014-05-03T10:41:58Z</time>
      </trkpt>
      <trkpt lat="39.666996918634" lon="2.913126076059">
        <ele>79.8</ele>
        <time>2014-05-03T10:41:59Z</time>
      </trkpt>
      <trkpt lat="39.666942855379" lon="2.913081316713">
        <ele>80.2</ele>
        <time>2014-05-03T10:42:00Z</time>
      </trkpt>
      <trkpt lat="39.66688996559" lon="2.913025828535">
        <ele>80.6</ele>
        <time>2014-05-03T10:42:01Z</time>
      </trkpt>
      <trkpt lat="39.666840260923" lon="2.912975453316">
        <ele>81</ele>
        <time>2014-05-03T10:42:02Z</time>
      </trkpt>
      <trkpt lat="39.666792567912" lon="2.912923401717">
        <ele>81.4</ele>
        <time>2014-05-03T10:42:03Z</time>
      </trkpt>
      <trkpt lat="39.666750658412" lon="2.91287956438">
        <ele>81.4</ele>
        <time>2014-05-03T10:42:04Z</time>
      </trkpt>
      <trkpt lat="39.66670221103" lon="2.912830446446">
        <ele>81.4</ele>
        <time>2014-05-03T10:42:05Z</time>
      </trkpt>
      <trkpt lat="39.666645633205" lon="2.912781663788">
        <ele>81.4</ele>
        <time>2014-05-03T10:42:06Z</time>
      </trkpt>
      <trkpt lat="39.666541530007" lon="2.912686110128">
        <ele>81.4</ele>
        <time>2014-05-03T10:42:08Z</time>
      </trkpt>
      <trkpt lat="39.666443377958" lon="2.912583767129">
        <ele>81.8</ele>
        <time>2014-05-03T10:42:10Z</time>
      </trkpt>
      <trkpt lat="39.666390571988" lon="2.912534984471">
        <ele>82.2</ele>
        <time>2014-05-03T10:42:11Z</time>
      </trkpt>
      <trkpt lat="39.666335922" lon="2.91248226232">
        <ele>82.6</ele>
        <time>2014-05-03T10:42:12Z</time>
      </trkpt>
      <trkpt lat="39.666288396627" lon="2.912431887101">
        <ele>83</ele>
        <time>2014-05-03T10:42:13Z</time>
      </trkpt>
      <trkpt lat="39.666236764123" lon="2.912384110271">
        <ele>83.4</ele>
        <time>2014-05-03T10:42:14Z</time>
      </trkpt>
      <trkpt lat="39.666074658177" lon="2.91223080532">
        <ele>83.4</ele>
        <time>2014-05-03T10:42:17Z</time>
      </trkpt>
      <trkpt lat="39.665680792696" lon="2.911855966752">
        <ele>83.4</ele>
        <time>2014-05-03T10:42:24Z</time>
      </trkpt>
      <trkpt lat="39.665565709209" lon="2.911743733111">
        <ele>83</ele>
        <time>2014-05-03T10:42:26Z</time>
      </trkpt>
      <trkpt lat="39.665509634298" lon="2.911693776987">
        <ele>82.6</ele>
        <time>2014-05-03T10:42:27Z</time>
      </trkpt>
      <trkpt lat="39.665453727025" lon="2.911640468103">
        <ele>82.2</ele>
        <time>2014-05-03T10:42:28Z</time>
      </trkpt>
      <trkpt lat="39.665395724277" lon="2.911583890278">
        <ele>81.8</ele>
        <time>2014-05-03T10:42:29Z</time>
      </trkpt>
      <trkpt lat="39.665336296606" lon="2.911526893358">
        <ele>81.4</ele>
        <time>2014-05-03T10:42:30Z</time>
      </trkpt>
      <trkpt lat="39.664971516318" lon="2.911168986228">
        <ele>81.4</ele>
        <time>2014-05-03T10:42:36Z</time>
      </trkpt>
      <trkpt lat="39.6645170497" lon="2.910729942306">
        <ele>81</ele>
        <time>2014-05-03T10:42:43Z</time>
      </trkpt>
      <trkpt lat="39.664451754699" lon="2.910669927902">
        <ele>80.6</ele>
        <time>2014-05-03T10:42:44Z</time>
      </trkpt>
      <trkpt lat="39.664386459698" lon="2.910610248774">
        <ele>80.2</ele>
        <time>2014-05-03T10:42:45Z</time>
      </trkpt>
      <trkpt lat="39.664319572136" lon="2.910548725628">
        <ele>79.8</ele>
        <time>2014-05-03T10:42:46Z</time>
      </trkpt>
      <trkpt lat="39.664257629895" lon="2.910491141975">
        <ele>79.4</ele>
        <time>2014-05-03T10:42:47Z</time>
      </trkpt>
      <trkpt lat="39.664129051549" lon="2.910371448443">
        <ele>79.4</ele>
        <time>2014-05-03T10:42:49Z</time>
      </trkpt>
      <trkpt lat="39.664066438756" lon="2.910315708808">
        <ele>79.4</ele>
        <time>2014-05-03T10:42:50Z</time>
      </trkpt>
      <trkpt lat="39.664001395212" lon="2.910257203146">
        <ele>79.8</ele>
        <time>2014-05-03T10:42:51Z</time>
      </trkpt>
      <trkpt lat="39.663938447143" lon="2.910195596181">
        <ele>80.2</ele>
        <time>2014-05-03T10:42:52Z</time>
      </trkpt>
      <trkpt lat="39.663876421083" lon="2.910134827406">
        <ele>80.6</ele>
        <time>2014-05-03T10:42:53Z</time>
      </trkpt>
      <trkpt lat="39.663811377539" lon="2.910074058631">
        <ele>81</ele>
        <time>2014-05-03T10:42:54Z</time>
      </trkpt>
      <trkpt lat="39.663748764746" lon="2.910011613476">
        <ele>81.4</ele>
        <time>2014-05-03T10:42:55Z</time>
      </trkpt>
      <trkpt lat="39.663685229944" lon="2.909950257968">
        <ele>81.4</ele>
        <time>2014-05-03T10:42:56Z</time>
      </trkpt>
      <trkpt lat="39.663617755649" lon="2.909886639347">
        <ele>81.4</ele>
        <time>2014-05-03T10:42:57Z</time>
      </trkpt>
      <trkpt lat="39.663553466476" lon="2.909828049866">
        <ele>81.4</ele>
        <time>2014-05-03T10:42:58Z</time>
      </trkpt>
      <trkpt lat="39.663486243638" lon="2.909765017978">
        <ele>81.4</ele>
        <time>2014-05-03T10:42:59Z</time>
      </trkpt>
      <trkpt lat="39.663419607533" lon="2.909707434325">
        <ele>81.4</ele>
        <time>2014-05-03T10:43:00Z</time>
      </trkpt>
      <trkpt lat="39.663350373039" lon="2.909649766853">
        <ele>81.4</ele>
        <time>2014-05-03T10:43:01Z</time>
      </trkpt>
      <trkpt lat="39.663281473821" lon="2.909590590639">
        <ele>81.4</ele>
        <time>2014-05-03T10:43:02Z</time>
      </trkpt>
      <trkpt lat="39.663137137503" lon="2.909485481613">
        <ele>81.4</ele>
        <time>2014-05-03T10:43:04Z</time>
      </trkpt>
      <trkpt lat="39.663066813362" lon="2.909438710611">
        <ele>81.4</ele>
        <time>2014-05-03T10:43:05Z</time>
      </trkpt>
      <trkpt lat="39.662998081782" lon="2.909393615989">
        <ele>81.4</ele>
        <time>2014-05-03T10:43:06Z</time>
      </trkpt>
      <trkpt lat="39.66292616508" lon="2.909350281566">
        <ele>81.4</ele>
        <time>2014-05-03T10:43:07Z</time>
      </trkpt>
      <trkpt lat="39.662702619807" lon="2.909235700993">
        <ele>81.4</ele>
        <time>2014-05-03T10:43:10Z</time>
      </trkpt>
      <trkpt lat="39.662625673965" lon="2.90920410123">
        <ele>81.4</ele>
        <time>2014-05-03T10:43:11Z</time>
      </trkpt>
      <trkpt lat="39.662545291544" lon="2.909171914734">
        <ele>81.4</ele>
        <time>2014-05-03T10:43:12Z</time>
      </trkpt>
      <trkpt lat="39.662467172236" lon="2.909144673559">
        <ele>81.4</ele>
        <time>2014-05-03T10:43:13Z</time>
      </trkpt>
      <trkpt lat="39.662385197254" lon="2.909118186755">
        <ele>81.4</ele>
        <time>2014-05-03T10:43:14Z</time>
      </trkpt>
      <trkpt lat="39.661890832792" lon="2.908978125206">
        <ele>81.4</ele>
        <time>2014-05-03T10:43:20Z</time>
      </trkpt>
      <trkpt lat="39.661812797303" lon="2.908954823524">
        <ele>81.4</ele>
        <time>2014-05-03T10:43:21Z</time>
      </trkpt>
      <trkpt lat="39.661733672167" lon="2.908928169082">
        <ele>81.4</ele>
        <time>2014-05-03T10:43:22Z</time>
      </trkpt>
      <trkpt lat="39.661655720497" lon="2.908898748613">
        <ele>81.4</ele>
        <time>2014-05-03T10:43:23Z</time>
      </trkpt>
      <trkpt lat="39.661577182094" lon="2.908864718099">
        <ele>81.4</ele>
        <time>2014-05-03T10:43:24Z</time>
      </trkpt>
      <trkpt lat="39.661499230424" lon="2.90882775392">
        <ele>81.4</ele>
        <time>2014-05-03T10:43:25Z</time>
      </trkpt>
      <trkpt lat="39.661425385885" lon="2.908789951551">
        <ele>81.4</ele>
        <time>2014-05-03T10:43:26Z</time>
      </trkpt>
      <trkpt lat="39.661346009292" lon="2.908744270196">
        <ele>81.4</ele>
        <time>2014-05-03T10:43:27Z</time>
      </trkpt>
      <trkpt lat="39.661117518698" lon="2.908597167851">
        <ele>81.4</ele>
        <time>2014-05-03T10:43:30Z</time>
      </trkpt>
      <trkpt lat="39.661044596168" lon="2.908543356053">
        <ele>81.4</ele>
        <time>2014-05-03T10:43:31Z</time>
      </trkpt>
      <trkpt lat="39.660833707564" lon="2.908378316442">
        <ele>81.4</ele>
        <time>2014-05-03T10:43:34Z</time>
      </trkpt>
      <trkpt lat="39.660767574373" lon="2.908314865459">
        <ele>81.4</ele>
        <time>2014-05-03T10:43:35Z</time>
      </trkpt>
      <trkpt lat="39.660705464494" lon="2.908254683417">
        <ele>81.4</ele>
        <time>2014-05-03T10:43:36Z</time>
      </trkpt>
      <trkpt lat="39.660513686622" lon="2.908081429544">
        <ele>81.4</ele>
        <time>2014-05-03T10:43:39Z</time>
      </trkpt>
      <trkpt lat="39.660448391621" lon="2.908022672425">
        <ele>81.4</ele>
        <time>2014-05-03T10:43:40Z</time>
      </trkpt>
      <trkpt lat="39.660262983993" lon="2.907861572307">
        <ele>81.4</ele>
        <time>2014-05-03T10:43:43Z</time>
      </trkpt>
      <trkpt lat="39.660197940449" lon="2.907813376382">
        <ele>81.4</ele>
        <time>2014-05-03T10:43:44Z</time>
      </trkpt>
      <trkpt lat="39.660130717611" lon="2.907765012819">
        <ele>81.4</ele>
        <time>2014-05-03T10:43:45Z</time>
      </trkpt>
      <trkpt lat="39.66006206985" lon="2.907722348948">
        <ele>81.4</ele>
        <time>2014-05-03T10:43:46Z</time>
      </trkpt>
      <trkpt lat="39.659992416261" lon="2.907687312606">
        <ele>81.4</ele>
        <time>2014-05-03T10:43:47Z</time>
      </trkpt>
      <trkpt lat="39.659852941445" lon="2.907636602111">
        <ele>81.4</ele>
        <time>2014-05-03T10:43:49Z</time>
      </trkpt>
      <trkpt lat="39.659709024222" lon="2.907595866077">
        <ele>81.4</ele>
        <time>2014-05-03T10:43:51Z</time>
      </trkpt>
      <trkpt lat="39.659295461276" lon="2.907489918861">
        <ele>81.4</ele>
        <time>2014-05-03T10:43:56Z</time>
      </trkpt>
      <trkpt lat="39.659209127706" lon="2.907459073469">
        <ele>81.4</ele>
        <time>2014-05-03T10:43:57Z</time>
      </trkpt>
      <trkpt lat="39.659125141068" lon="2.907423282756">
        <ele>81.4</ele>
        <time>2014-05-03T10:43:58Z</time>
      </trkpt>
      <trkpt lat="39.659046602665" lon="2.90738941988">
        <ele>81.4</ele>
        <time>2014-05-03T10:43:59Z</time>
      </trkpt>
      <trkpt lat="39.658967561348" lon="2.907353461529">
        <ele>81.4</ele>
        <time>2014-05-03T10:44:00Z</time>
      </trkpt>
      <trkpt lat="39.658820542822" lon="2.907286741605">
        <ele>81.4</ele>
        <time>2014-05-03T10:44:02Z</time>
      </trkpt>
      <trkpt lat="39.658751056871" lon="2.907252375815">
        <ele>81.4</ele>
        <time>2014-05-03T10:44:03Z</time>
      </trkpt>
      <trkpt lat="39.658682828205" lon="2.907218177663">
        <ele>81.4</ele>
        <time>2014-05-03T10:44:04Z</time>
      </trkpt>
      <trkpt lat="39.658318467012" lon="2.907051042577">
        <ele>81.4</ele>
        <time>2014-05-03T10:44:09Z</time>
      </trkpt>
      <trkpt lat="39.65825074126" lon="2.907017934072">
        <ele>81.4</ele>
        <time>2014-05-03T10:44:10Z</time>
      </trkpt>
      <trkpt lat="39.658184608069" lon="2.906982143359">
        <ele>81.4</ele>
        <time>2014-05-03T10:44:11Z</time>
      </trkpt>
      <trkpt lat="39.658116211765" lon="2.906947023198">
        <ele>81.4</ele>
        <time>2014-05-03T10:44:12Z</time>
      </trkpt>
      <trkpt lat="39.657907837731" lon="2.906851553357">
        <ele>81.4</ele>
        <time>2014-05-03T10:44:15Z</time>
      </trkpt>
      <trkpt lat="39.65757348374" lon="2.906684082995">
        <ele>81.4</ele>
        <time>2014-05-03T10:44:20Z</time>
      </trkpt>
      <trkpt lat="39.657505171255" lon="2.906649381929">
        <ele>81.4</ele>
        <time>2014-05-03T10:44:21Z</time>
      </trkpt>
      <trkpt lat="39.657438116055" lon="2.906617363071">
        <ele>81.4</ele>
        <time>2014-05-03T10:44:22Z</time>
      </trkpt>
      <trkpt lat="39.657374329796" lon="2.906580147435">
        <ele>81.4</ele>
        <time>2014-05-03T10:44:23Z</time>
      </trkpt>
      <trkpt lat="39.657316746143" lon="2.906544105265">
        <ele>81.4</ele>
        <time>2014-05-03T10:44:24Z</time>
      </trkpt>
      <trkpt lat="39.657251032047" lon="2.906502279584">
        <ele>81.8</ele>
        <time>2014-05-03T10:44:25Z</time>
      </trkpt>
      <trkpt lat="39.657192694023" lon="2.90646321993">
        <ele>82.6</ele>
        <time>2014-05-03T10:44:26Z</time>
      </trkpt>
      <trkpt lat="39.657134439818" lon="2.906424998466">
        <ele>83</ele>
        <time>2014-05-03T10:44:27Z</time>
      </trkpt>
      <trkpt lat="39.657074928328" lon="2.906386274088">
        <ele>83.4</ele>
        <time>2014-05-03T10:44:28Z</time>
      </trkpt>
      <trkpt lat="39.656960850669" lon="2.906297845043">
        <ele>83.4</ele>
        <time>2014-05-03T10:44:30Z</time>
      </trkpt>
      <trkpt lat="39.656652564387" lon="2.90602400837">
        <ele>83.4</ele>
        <time>2014-05-03T10:44:35Z</time>
      </trkpt>
      <trkpt lat="39.6565877723" lon="2.90596114412">
        <ele>83.4</ele>
        <time>2014-05-03T10:44:36Z</time>
      </trkpt>
      <trkpt lat="39.656216537949" lon="2.905608182311">
        <ele>83.4</ele>
        <time>2014-05-03T10:44:42Z</time>
      </trkpt>
      <trkpt lat="39.655822253373" lon="2.905336860208">
        <ele>83.4</ele>
        <time>2014-05-03T10:44:48Z</time>
      </trkpt>
      <trkpt lat="39.655550763632" lon="2.9052084495">
        <ele>83.4</ele>
        <time>2014-05-03T10:44:52Z</time>
      </trkpt>
      <trkpt lat="39.655358399027" lon="2.90513720335">
        <ele>83.4</ele>
        <time>2014-05-03T10:44:55Z</time>
      </trkpt>
      <trkpt lat="39.655296289148" lon="2.905111051822">
        <ele>83.8</ele>
        <time>2014-05-03T10:44:56Z</time>
      </trkpt>
      <trkpt lat="39.655234514545" lon="2.905083391552">
        <ele>84.2</ele>
        <time>2014-05-03T10:44:57Z</time>
      </trkpt>
      <trkpt lat="39.655169219544" lon="2.90505338435">
        <ele>84.6</ele>
        <time>2014-05-03T10:44:58Z</time>
      </trkpt>
      <trkpt lat="39.655106439113" lon="2.905022706596">
        <ele>85</ele>
        <time>2014-05-03T10:44:59Z</time>
      </trkpt>
      <trkpt lat="39.655050196564" lon="2.904992867032">
        <ele>85.4</ele>
        <time>2014-05-03T10:45:00Z</time>
      </trkpt>
      <trkpt lat="39.654938298199" lon="2.904925560375">
        <ele>85.4</ele>
        <time>2014-05-03T10:45:02Z</time>
      </trkpt>
      <trkpt lat="39.654534458257" lon="2.904680222162">
        <ele>85.4</ele>
        <time>2014-05-03T10:45:09Z</time>
      </trkpt>
      <trkpt lat="39.654428678679" lon="2.904605287976">
        <ele>85.8</ele>
        <time>2014-05-03T10:45:11Z</time>
      </trkpt>
      <trkpt lat="39.654378052003" lon="2.904564384304">
        <ele>86.4</ele>
        <time>2014-05-03T10:45:12Z</time>
      </trkpt>
      <trkpt lat="39.654331113363" lon="2.904526665754">
        <ele>86.8</ele>
        <time>2014-05-03T10:45:13Z</time>
      </trkpt>
      <trkpt lat="39.6542827498" lon="2.904482241684">
        <ele>87.2</ele>
        <time>2014-05-03T10:45:14Z</time>
      </trkpt>
      <trkpt lat="39.654239247739" lon="2.904445109867">
        <ele>87.6</ele>
        <time>2014-05-03T10:45:15Z</time>
      </trkpt>
      <trkpt lat="39.654200271904" lon="2.90440630167">
        <ele>87.6</ele>
        <time>2014-05-03T10:45:16Z</time>
      </trkpt>
      <trkpt lat="39.654053253378" lon="2.904245117733">
        <ele>88</ele>
        <time>2014-05-03T10:45:20Z</time>
      </trkpt>
      <trkpt lat="39.654016037742" lon="2.904201112758">
        <ele>88.6</ele>
        <time>2014-05-03T10:45:21Z</time>
      </trkpt>
      <trkpt lat="39.653977481002" lon="2.904156185774">
        <ele>89</ele>
        <time>2014-05-03T10:45:22Z</time>
      </trkpt>
      <trkpt lat="39.653942193203" lon="2.90411377336">
        <ele>89.4</ele>
        <time>2014-05-03T10:45:23Z</time>
      </trkpt>
      <trkpt lat="39.653907911232" lon="2.90407186386">
        <ele>89.8</ele>
        <time>2014-05-03T10:45:24Z</time>
      </trkpt>
      <trkpt lat="39.653590991593" lon="2.903714459644">
        <ele>89.8</ele>
        <time>2014-05-03T10:45:32Z</time>
      </trkpt>
      <trkpt lat="39.65331966949" lon="2.903402485326">
        <ele>89.8</ele>
        <time>2014-05-03T10:45:38Z</time>
      </trkpt>
      <trkpt lat="39.653128059256" lon="2.903190339437">
        <ele>89.8</ele>
        <time>2014-05-03T10:45:42Z</time>
      </trkpt>
      <trkpt lat="39.6529919372" lon="2.903021192695">
        <ele>89.8</ele>
        <time>2014-05-03T10:45:45Z</time>
      </trkpt>
      <trkpt lat="39.65294332218" lon="2.902965872155">
        <ele>89.8</ele>
        <time>2014-05-03T10:45:46Z</time>
      </trkpt>
      <trkpt lat="39.652898311377" lon="2.902913150004">
        <ele>89.8</ele>
        <time>2014-05-03T10:45:47Z</time>
      </trkpt>
      <trkpt lat="39.65285112128" lon="2.902863948251">
        <ele>89.8</ele>
        <time>2014-05-03T10:45:48Z</time>
      </trkpt>
      <trkpt lat="39.65280837359" lon="2.902818602172">
        <ele>89.8</ele>
        <time>2014-05-03T10:45:49Z</time>
      </trkpt>
      <trkpt lat="39.652732182119" lon="2.902738471208">
        <ele>89.8</ele>
        <time>2014-05-03T10:45:51Z</time>
      </trkpt>
      <trkpt lat="39.65269605613" lon="2.902690945835">
        <ele>89.8</ele>
        <time>2014-05-03T10:45:52Z</time>
      </trkpt>
      <trkpt lat="39.65262900093" lon="2.902613999993">
        <ele>90.2</ele>
        <time>2014-05-03T10:45:54Z</time>
      </trkpt>
      <trkpt lat="39.652591450018" lon="2.902574102149">
        <ele>90.6</ele>
        <time>2014-05-03T10:45:55Z</time>
      </trkpt>
      <trkpt lat="39.652558006237" lon="2.90254049073">
        <ele>91.2</ele>
        <time>2014-05-03T10:45:56Z</time>
      </trkpt>
      <trkpt lat="39.65252338899" lon="2.902505119112">
        <ele>91.6</ele>
        <time>2014-05-03T10:45:57Z</time>
      </trkpt>
      <trkpt lat="39.652492292141" lon="2.902469831313">
        <ele>92</ele>
        <time>2014-05-03T10:45:58Z</time>
      </trkpt>
      <trkpt lat="39.652456669066" lon="2.902440410844">
        <ele>92</ele>
        <time>2014-05-03T10:45:59Z</time>
      </trkpt>
      <trkpt lat="39.652349548384" lon="2.902353322903">
        <ele>92</ele>
        <time>2014-05-03T10:46:02Z</time>
      </trkpt>
      <trkpt lat="39.65230545959" lon="2.902321555502">
        <ele>92.4</ele>
        <time>2014-05-03T10:46:03Z</time>
      </trkpt>
      <trkpt lat="39.652261454615" lon="2.902284423685">
        <ele>92.8</ele>
        <time>2014-05-03T10:46:04Z</time>
      </trkpt>
      <trkpt lat="39.652212169043" lon="2.902253326836">
        <ele>93.8</ele>
        <time>2014-05-03T10:46:05Z</time>
      </trkpt>
      <trkpt lat="39.65216464367" lon="2.902224325462">
        <ele>94.2</ele>
        <time>2014-05-03T10:46:06Z</time>
      </trkpt>
      <trkpt lat="39.652115358098" lon="2.902202867798">
        <ele>94.2</ele>
        <time>2014-05-03T10:46:07Z</time>
      </trkpt>
      <trkpt lat="39.651886951323" lon="2.902103123188">
        <ele>94.2</ele>
        <time>2014-05-03T10:46:11Z</time>
      </trkpt>
      <trkpt lat="39.651550585676" lon="2.901991643918">
        <ele>93.8</ele>
        <time>2014-05-03T10:46:16Z</time>
      </trkpt>
      <trkpt lat="39.651482524648" lon="2.90197135972">
        <ele>93.4</ele>
        <time>2014-05-03T10:46:17Z</time>
      </trkpt>
      <trkpt lat="39.651412703421" lon="2.901957781042">
        <ele>93</ele>
        <time>2014-05-03T10:46:18Z</time>
      </trkpt>
      <trkpt lat="39.651342044004" lon="2.901949902056">
        <ele>92.4</ele>
        <time>2014-05-03T10:46:19Z</time>
      </trkpt>
      <trkpt lat="39.6512736477" lon="2.901946716934">
        <ele>92</ele>
        <time>2014-05-03T10:46:20Z</time>
      </trkpt>
      <trkpt lat="39.651202317731" lon="2.901939927595">
        <ele>92</ele>
        <time>2014-05-03T10:46:21Z</time>
      </trkpt>
      <trkpt lat="39.651132747961" lon="2.901935652826">
        <ele>92</ele>
        <time>2014-05-03T10:46:22Z</time>
      </trkpt>
      <trkpt lat="39.651059238698" lon="2.901929701677">
        <ele>92</ele>
        <time>2014-05-03T10:46:23Z</time>
      </trkpt>
      <trkpt lat="39.650989752747" lon="2.901927522383">
        <ele>92</ele>
        <time>2014-05-03T10:46:24Z</time>
      </trkpt>
      <trkpt lat="39.650664199751" lon="2.901913021696">
        <ele>92.6</ele>
        <time>2014-05-03T10:46:29Z</time>
      </trkpt>
      <trkpt lat="39.650606113184" lon="2.901910004212">
        <ele>93</ele>
        <time>2014-05-03T10:46:30Z</time>
      </trkpt>
      <trkpt lat="39.650548529531" lon="2.901907489642">
        <ele>93.6</ele>
        <time>2014-05-03T10:46:31Z</time>
      </trkpt>
      <trkpt lat="39.650498824864" lon="2.901904136882">
        <ele>94</ele>
        <time>2014-05-03T10:46:32Z</time>
      </trkpt>
      <trkpt lat="39.650443755781" lon="2.901898353371">
        <ele>94.6</ele>
        <time>2014-05-03T10:46:33Z</time>
      </trkpt>
      <trkpt lat="39.650388938155" lon="2.901890725842">
        <ele>94.6</ele>
        <time>2014-05-03T10:46:34Z</time>
      </trkpt>
      <trkpt lat="39.650283577672" lon="2.901877650078">
        <ele>95</ele>
        <time>2014-05-03T10:46:36Z</time>
      </trkpt>
      <trkpt lat="39.650234795014" lon="2.901867172703">
        <ele>95.4</ele>
        <time>2014-05-03T10:46:37Z</time>
      </trkpt>
      <trkpt lat="39.650181318492" lon="2.901852923473">
        <ele>95.8</ele>
        <time>2014-05-03T10:46:38Z</time>
      </trkpt>
      <trkpt lat="39.650134212214" lon="2.901836914044">
        <ele>96.2</ele>
        <time>2014-05-03T10:46:39Z</time>
      </trkpt>
      <trkpt lat="39.650090291058" lon="2.90182132371">
        <ele>96.6</ele>
        <time>2014-05-03T10:46:40Z</time>
      </trkpt>
      <trkpt lat="39.650008902809" lon="2.901778408382">
        <ele>96.6</ele>
        <time>2014-05-03T10:46:42Z</time>
      </trkpt>
      <trkpt lat="39.64997026225" lon="2.901752256854">
        <ele>97.2</ele>
        <time>2014-05-03T10:46:43Z</time>
      </trkpt>
      <trkpt lat="39.649932795157" lon="2.901723926032">
        <ele>97.6</ele>
        <time>2014-05-03T10:46:44Z</time>
      </trkpt>
      <trkpt lat="39.649895076607" lon="2.901692410088">
        <ele>98</ele>
        <time>2014-05-03T10:46:45Z</time>
      </trkpt>
      <trkpt lat="39.649856436048" lon="2.901655445909">
        <ele>98.4</ele>
        <time>2014-05-03T10:46:46Z</time>
      </trkpt>
      <trkpt lat="39.649819639507" lon="2.901621163938">
        <ele>99</ele>
        <time>2014-05-03T10:46:47Z</time>
      </trkpt>
      <trkpt lat="39.649784435527" lon="2.901585876139">
        <ele>99</ele>
        <time>2014-05-03T10:46:48Z</time>
      </trkpt>
      <trkpt lat="39.649641859408" lon="2.90144581459">
        <ele>99.4</ele>
        <time>2014-05-03T10:46:52Z</time>
      </trkpt>
      <trkpt lat="39.649605314324" lon="2.901406335841">
        <ele>99.8</ele>
        <time>2014-05-03T10:46:53Z</time>
      </trkpt>
      <trkpt lat="39.649569942706" lon="2.901367611463">
        <ele>100.6</ele>
        <time>2014-05-03T10:46:54Z</time>
      </trkpt>
      <trkpt lat="39.649533984355" lon="2.901327210705">
        <ele>101</ele>
        <time>2014-05-03T10:46:55Z</time>
      </trkpt>
      <trkpt lat="39.649377326644" lon="2.901173738116">
        <ele>101</ele>
        <time>2014-05-03T10:46:59Z</time>
      </trkpt>
      <trkpt lat="39.649301302811" lon="2.901110035676">
        <ele>101</ele>
        <time>2014-05-03T10:47:01Z</time>
      </trkpt>
      <trkpt lat="39.649241623683" lon="2.901041136458">
        <ele>101.4</ele>
        <time>2014-05-03T10:47:03Z</time>
      </trkpt>
      <trkpt lat="39.649217902906" lon="2.901008363229">
        <ele>101.8</ele>
        <time>2014-05-03T10:47:04Z</time>
      </trkpt>
      <trkpt lat="39.649191919016" lon="2.900972823973">
        <ele>102.2</ele>
        <time>2014-05-03T10:47:05Z</time>
      </trkpt>
      <trkpt lat="39.649159983977" lon="2.900939128735">
        <ele>102.6</ele>
        <time>2014-05-03T10:47:06Z</time>
      </trkpt>
      <trkpt lat="39.649131569336" lon="2.900907193696">
        <ele>103.2</ele>
        <time>2014-05-03T10:47:07Z</time>
      </trkpt>
      <trkpt lat="39.649061580471" lon="2.90084399417">
        <ele>103.2</ele>
        <time>2014-05-03T10:47:10Z</time>
      </trkpt>
      <trkpt lat="39.648961249128" lon="2.900719187679">
        <ele>103.2</ele>
        <time>2014-05-03T10:47:15Z</time>
      </trkpt>
      <trkpt lat="39.648833760429" lon="2.900569486945">
        <ele>103.2</ele>
        <time>2014-05-03T10:47:21Z</time>
      </trkpt>
      <trkpt lat="39.648774919491" lon="2.900458342951">
        <ele>103.6</ele>
        <time>2014-05-03T10:47:24Z</time>
      </trkpt>
      <trkpt lat="39.648757485139" lon="2.900424982989">
        <ele>104</ele>
        <time>2014-05-03T10:47:25Z</time>
      </trkpt>
      <trkpt lat="39.648732842353" lon="2.900386929163">
        <ele>104.4</ele>
        <time>2014-05-03T10:47:26Z</time>
      </trkpt>
      <trkpt lat="39.648708283386" lon="2.900341666903">
        <ele>104.8</ele>
        <time>2014-05-03T10:47:27Z</time>
      </trkpt>
      <trkpt lat="39.64868280241" lon="2.900298835394">
        <ele>105.2</ele>
        <time>2014-05-03T10:47:28Z</time>
      </trkpt>
      <trkpt lat="39.648602922903" lon="2.900178638948">
        <ele>105.2</ele>
        <time>2014-05-03T10:47:31Z</time>
      </trkpt>
      <trkpt lat="39.648578363936" lon="2.900140249846">
        <ele>105.2</ele>
        <time>2014-05-03T10:47:32Z</time>
      </trkpt>
      <trkpt lat="39.648510889641" lon="2.900031452784">
        <ele>105.2</ele>
        <time>2014-05-03T10:47:35Z</time>
      </trkpt>
      <trkpt lat="39.648455150006" lon="2.899944197205">
        <ele>105.2</ele>
        <time>2014-05-03T10:47:37Z</time>
      </trkpt>
      <trkpt lat="39.648431010134" lon="2.899893402891">
        <ele>105.2</ele>
        <time>2014-05-03T10:47:38Z</time>
      </trkpt>
      <trkpt lat="39.648407959909" lon="2.89984570988">
        <ele>105.2</ele>
        <time>2014-05-03T10:47:39Z</time>
      </trkpt>
      <trkpt lat="39.648300084856" lon="2.899655356931">
        <ele>105.2</ele>
        <time>2014-05-03T10:47:44Z</time>
      </trkpt>
      <trkpt lat="39.64818491755" lon="2.89946265705">
        <ele>105.2</ele>
        <time>2014-05-03T10:47:48Z</time>
      </trkpt>
      <trkpt lat="39.64813378796" lon="2.899362660983">
        <ele>105.2</ele>
        <time>2014-05-03T10:47:50Z</time>
      </trkpt>
      <trkpt lat="39.647968413073" lon="2.899021517653">
        <ele>105.2</ele>
        <time>2014-05-03T10:47:57Z</time>
      </trkpt>
      <trkpt lat="39.647930275428" lon="2.898985978397">
        <ele>105.2</ele>
        <time>2014-05-03T10:47:58Z</time>
      </trkpt>
      <trkpt lat="39.64786053802" lon="2.898838121681">
        <ele>105.2</ele>
        <time>2014-05-03T10:48:01Z</time>
      </trkpt>
      <trkpt lat="39.647830195542" lon="2.898796966552">
        <ele>105.2</ele>
        <time>2014-05-03T10:48:02Z</time>
      </trkpt>
      <trkpt lat="39.647812677371" lon="2.898760589106">
        <ele>105.6</ele>
        <time>2014-05-03T10:48:03Z</time>
      </trkpt>
      <trkpt lat="39.647791638802" lon="2.898716584131">
        <ele>106</ele>
        <time>2014-05-03T10:48:04Z</time>
      </trkpt>
      <trkpt lat="39.64777755721" lon="2.898681631608">
        <ele>106.4</ele>
        <time>2014-05-03T10:48:05Z</time>
      </trkpt>
      <trkpt lat="39.647762385971" lon="2.898645170343">
        <ele>106.8</ele>
        <time>2014-05-03T10:48:06Z</time>
      </trkpt>
      <trkpt lat="39.647747214732" lon="2.89861357058">
        <ele>107.2</ele>
        <time>2014-05-03T10:48:07Z</time>
      </trkpt>
      <trkpt lat="39.647680662446" lon="2.898470575366">
        <ele>107.2</ele>
        <time>2014-05-03T10:48:11Z</time>
      </trkpt>
      <trkpt lat="39.647605309165" lon="2.898319114433">
        <ele>107.8</ele>
        <time>2014-05-03T10:48:15Z</time>
      </trkpt>
      <trkpt lat="39.647593658324" lon="2.898289526326">
        <ele>108.2</ele>
        <time>2014-05-03T10:48:16Z</time>
      </trkpt>
      <trkpt lat="39.647588461546" lon="2.898263542436">
        <ele>108.6</ele>
        <time>2014-05-03T10:48:17Z</time>
      </trkpt>
      <trkpt lat="39.647576894524" lon="2.898232948501">
        <ele>109</ele>
        <time>2014-05-03T10:48:18Z</time>
      </trkpt>
      <trkpt lat="39.647565243683" lon="2.898202438385">
        <ele>109.4</ele>
        <time>2014-05-03T10:48:19Z</time>
      </trkpt>
      <trkpt lat="39.647553844299" lon="2.898185339309">
        <ele>109.4</ele>
        <time>2014-05-03T10:48:20Z</time>
      </trkpt>
      <trkpt lat="39.64750011632" lon="2.898008732676">
        <ele>109.4</ele>
        <time>2014-05-03T10:48:59Z</time>
      </trkpt>
      <trkpt lat="39.64750011632" lon="2.898008732676">
        <ele>109.4</ele>
        <time>2014-05-03T10:49:00Z</time>
      </trkpt>
      <trkpt lat="39.647500786872" lon="2.897999009672">
        <ele>111.4</ele>
        <time>2014-05-03T10:52:11Z</time>
      </trkpt>
      <trkpt lat="39.647500786872" lon="2.897999009672">
        <ele>111.4</ele>
        <time>2014-05-03T10:52:12Z</time>
      </trkpt>
      <trkpt lat="39.647490812411" lon="2.897987358831">
        <ele>111.4</ele>
        <time>2014-05-03T10:52:14Z</time>
      </trkpt>
      <trkpt lat="39.647479748303" lon="2.897962883683">
        <ele>111.4</ele>
        <time>2014-05-03T10:52:16Z</time>
      </trkpt>
      <trkpt lat="39.647439850459" lon="2.897902198727">
        <ele>111.4</ele>
        <time>2014-05-03T10:52:18Z</time>
      </trkpt>
      <trkpt lat="39.64741462094" lon="2.897863893444">
        <ele>111.4</ele>
        <time>2014-05-03T10:52:19Z</time>
      </trkpt>
      <trkpt lat="39.64738276972" lon="2.897822822134">
        <ele>111.4</ele>
        <time>2014-05-03T10:52:20Z</time>
      </trkpt>
      <trkpt lat="39.6473341547" lon="2.897755850753">
        <ele>111.4</ele>
        <time>2014-05-03T10:52:22Z</time>
      </trkpt>
      <trkpt lat="39.647294173037" lon="2.897695836349">
        <ele>111.4</ele>
        <time>2014-05-03T10:52:24Z</time>
      </trkpt>
      <trkpt lat="39.647254861926" lon="2.897641689275">
        <ele>111.4</ele>
        <time>2014-05-03T10:52:26Z</time>
      </trkpt>
      <trkpt lat="39.64721596991" lon="2.89757170041">
        <ele>111.4</ele>
        <time>2014-05-03T10:52:28Z</time>
      </trkpt>
      <trkpt lat="39.647172467849" lon="2.897432728508">
        <ele>111.4</ele>
        <time>2014-05-03T10:52:32Z</time>
      </trkpt>
      <trkpt lat="39.647152770384" lon="2.897407331351">
        <ele>111.4</ele>
        <time>2014-05-03T10:52:33Z</time>
      </trkpt>
      <trkpt lat="39.647113459273" lon="2.897308676388">
        <ele>111.8</ele>
        <time>2014-05-03T10:52:36Z</time>
      </trkpt>
      <trkpt lat="39.647096360197" lon="2.897273053313">
        <ele>112.4</ele>
        <time>2014-05-03T10:52:37Z</time>
      </trkpt>
      <trkpt lat="39.647077752379" lon="2.897239609532">
        <ele>112.8</ele>
        <time>2014-05-03T10:52:38Z</time>
      </trkpt>
      <trkpt lat="39.647064006063" lon="2.897217062221">
        <ele>113.2</ele>
        <time>2014-05-03T10:52:39Z</time>
      </trkpt>
      <trkpt lat="39.647046739349" lon="2.897185546277">
        <ele>113.6</ele>
        <time>2014-05-03T10:52:40Z</time>
      </trkpt>
      <trkpt lat="39.647022431839" lon="2.897113545756">
        <ele>113.6</ele>
        <time>2014-05-03T10:52:42Z</time>
      </trkpt>
      <trkpt lat="39.646942300875" lon="2.897005503065">
        <ele>113.6</ele>
        <time>2014-05-03T10:52:46Z</time>
      </trkpt>
      <trkpt lat="39.646887231792" lon="2.89691204488">
        <ele>113.6</ele>
        <time>2014-05-03T10:52:48Z</time>
      </trkpt>
      <trkpt lat="39.646710792797" lon="2.896692020005">
        <ele>113.6</ele>
        <time>2014-05-03T10:52:54Z</time>
      </trkpt>
      <trkpt lat="39.646635020421" lon="2.896604596788">
        <ele>113.6</ele>
        <time>2014-05-03T10:52:57Z</time>
      </trkpt>
      <trkpt lat="39.646585483392" lon="2.896554473026">
        <ele>113.6</ele>
        <time>2014-05-03T10:52:59Z</time>
      </trkpt>
      <trkpt lat="39.646564528642" lon="2.896532847724">
        <ele>113.6</ele>
        <time>2014-05-03T10:53:00Z</time>
      </trkpt>
      <trkpt lat="39.646438297228" lon="2.896409466156">
        <ele>113.6</ele>
        <time>2014-05-03T10:53:05Z</time>
      </trkpt>
      <trkpt lat="39.646415079365" lon="2.896377447298">
        <ele>113.6</ele>
        <time>2014-05-03T10:53:06Z</time>
      </trkpt>
      <trkpt lat="39.646332433831" lon="2.896276277765">
        <ele>113.6</ele>
        <time>2014-05-03T10:53:09Z</time>
      </trkpt>
      <trkpt lat="39.646260600948" lon="2.896193045498">
        <ele>113.6</ele>
        <time>2014-05-03T10:53:12Z</time>
      </trkpt>
      <trkpt lat="39.646151300972" lon="2.895990454975">
        <ele>113.6</ele>
        <time>2014-05-03T10:53:17Z</time>
      </trkpt>
      <trkpt lat="39.645998415116" lon="2.895646042704">
        <ele>113.6</ele>
        <time>2014-05-03T10:53:23Z</time>
      </trkpt>
      <trkpt lat="39.645932533382" lon="2.895532300321">
        <ele>113.6</ele>
        <time>2014-05-03T10:53:25Z</time>
      </trkpt>
      <trkpt lat="39.64585558754" lon="2.895420737232">
        <ele>113.6</ele>
        <time>2014-05-03T10:53:27Z</time>
      </trkpt>
      <trkpt lat="39.645816863162" lon="2.895366087244">
        <ele>113.6</ele>
        <time>2014-05-03T10:53:28Z</time>
      </trkpt>
      <trkpt lat="39.645705300073" lon="2.895189312973">
        <ele>113</ele>
        <time>2014-05-03T10:53:31Z</time>
      </trkpt>
      <trkpt lat="39.645661043641" lon="2.895132735148">
        <ele>112.6</ele>
        <time>2014-05-03T10:53:32Z</time>
      </trkpt>
      <trkpt lat="39.645620391426" lon="2.89507305602">
        <ele>112.2</ele>
        <time>2014-05-03T10:53:33Z</time>
      </trkpt>
      <trkpt lat="39.645586612369" lon="2.895019076584">
        <ele>111.8</ele>
        <time>2014-05-03T10:53:34Z</time>
      </trkpt>
      <trkpt lat="39.645556269891" lon="2.894970713021">
        <ele>111.4</ele>
        <time>2014-05-03T10:53:35Z</time>
      </trkpt>
      <trkpt lat="39.645377148688" lon="2.894660163626">
        <ele>111.4</ele>
        <time>2014-05-03T10:53:40Z</time>
      </trkpt>
      <trkpt lat="39.645342363803" lon="2.894601574145">
        <ele>110.8</ele>
        <time>2014-05-03T10:53:41Z</time>
      </trkpt>
      <trkpt lat="39.645309590574" lon="2.894548265261">
        <ele>110.4</ele>
        <time>2014-05-03T10:53:42Z</time>
      </trkpt>
      <trkpt lat="39.645280002467" lon="2.894501075164">
        <ele>110</ele>
        <time>2014-05-03T10:53:43Z</time>
      </trkpt>
      <trkpt lat="39.645253012749" lon="2.89446872103">
        <ele>109.6</ele>
        <time>2014-05-03T10:53:44Z</time>
      </trkpt>
      <trkpt lat="39.645234991664" lon="2.8944544718">
        <ele>109</ele>
        <time>2014-05-03T10:53:45Z</time>
      </trkpt>
      <trkpt lat="39.645107502965" lon="2.894374759931">
        <ele>109</ele>
        <time>2014-05-03T10:53:49Z</time>
      </trkpt>
      <trkpt lat="39.645069030044" lon="2.894347686394">
        <ele>109</ele>
        <time>2014-05-03T10:53:50Z</time>
      </trkpt>
      <trkpt lat="39.644889741203" lon="2.894219359505">
        <ele>109</ele>
        <time>2014-05-03T10:53:54Z</time>
      </trkpt>
      <trkpt lat="39.644846071504" lon="2.89418122186">
        <ele>109</ele>
        <time>2014-05-03T10:53:55Z</time>
      </trkpt>
      <trkpt lat="39.644798881407" lon="2.894141324016">
        <ele>108.6</ele>
        <time>2014-05-03T10:53:56Z</time>
      </trkpt>
      <trkpt lat="39.644752864776" lon="2.894095139747">
        <ele>108.2</ele>
        <time>2014-05-03T10:53:57Z</time>
      </trkpt>
      <trkpt lat="39.644705674679" lon="2.894049542211">
        <ele>107.8</ele>
        <time>2014-05-03T10:53:58Z</time>
      </trkpt>
      <trkpt lat="39.64465949041" lon="2.894012326575">
        <ele>107.4</ele>
        <time>2014-05-03T10:53:59Z</time>
      </trkpt>
      <trkpt lat="39.64461506634" lon="2.893966393763">
        <ele>107</ele>
        <time>2014-05-03T10:54:00Z</time>
      </trkpt>
      <trkpt lat="39.644477938456" lon="2.893825326386">
        <ele>107</ele>
        <time>2014-05-03T10:54:03Z</time>
      </trkpt>
      <trkpt lat="39.644387497755" lon="2.893735137142">
        <ele>107</ele>
        <time>2014-05-03T10:54:05Z</time>
      </trkpt>
      <trkpt lat="39.644302505289" lon="2.89363723655">
        <ele>107</ele>
        <time>2014-05-03T10:54:07Z</time>
      </trkpt>
      <trkpt lat="39.644270486431" lon="2.893578814707">
        <ele>107</ele>
        <time>2014-05-03T10:54:08Z</time>
      </trkpt>
      <trkpt lat="39.644212148407" lon="2.893466497247">
        <ele>107</ele>
        <time>2014-05-03T10:54:10Z</time>
      </trkpt>
      <trkpt lat="39.644155570582" lon="2.893383432618">
        <ele>107</ele>
        <time>2014-05-03T10:54:12Z</time>
      </trkpt>
      <trkpt lat="39.644102764612" lon="2.893277569221">
        <ele>107</ele>
        <time>2014-05-03T10:54:14Z</time>
      </trkpt>
      <trkpt lat="39.644077451274" lon="2.893232558418">
        <ele>107.4</ele>
        <time>2014-05-03T10:54:15Z</time>
      </trkpt>
      <trkpt lat="39.644055323058" lon="2.893189223995">
        <ele>107.8</ele>
        <time>2014-05-03T10:54:16Z</time>
      </trkpt>
      <trkpt lat="39.644032440471" lon="2.893143626459">
        <ele>108.2</ele>
        <time>2014-05-03T10:54:17Z</time>
      </trkpt>
      <trkpt lat="39.644008300599" lon="2.893096939276">
        <ele>108.6</ele>
        <time>2014-05-03T10:54:18Z</time>
      </trkpt>
      <trkpt lat="39.643985501831" lon="2.893050084455">
        <ele>109</ele>
        <time>2014-05-03T10:54:19Z</time>
      </trkpt>
      <trkpt lat="39.643944179064" lon="2.892958051193">
        <ele>109</ele>
        <time>2014-05-03T10:54:21Z</time>
      </trkpt>
      <trkpt lat="39.643925738884" lon="2.892915135865">
        <ele>109</ele>
        <time>2014-05-03T10:54:22Z</time>
      </trkpt>
      <trkpt lat="39.643909645636" lon="2.892866772302">
        <ele>109.4</ele>
        <time>2014-05-03T10:54:23Z</time>
      </trkpt>
      <trkpt lat="39.643898246252" lon="2.892823270241">
        <ele>109.8</ele>
        <time>2014-05-03T10:54:24Z</time>
      </trkpt>
      <trkpt lat="39.643887601239" lon="2.892779684361">
        <ele>110.2</ele>
        <time>2014-05-03T10:54:25Z</time>
      </trkpt>
      <trkpt lat="39.643871424172" lon="2.892736685214">
        <ele>110.6</ele>
        <time>2014-05-03T10:54:26Z</time>
      </trkpt>
      <trkpt lat="39.643852061983" lon="2.892693686067">
        <ele>111</ele>
        <time>2014-05-03T10:54:27Z</time>
      </trkpt>
      <trkpt lat="39.643837309839" lon="2.89264649597">
        <ele>111.6</ele>
        <time>2014-05-03T10:54:28Z</time>
      </trkpt>
      <trkpt lat="39.643820126944" lon="2.892600479339">
        <ele>112</ele>
        <time>2014-05-03T10:54:29Z</time>
      </trkpt>
      <trkpt lat="39.643794897425" lon="2.892564688626">
        <ele>112.4</ele>
        <time>2014-05-03T10:54:30Z</time>
      </trkpt>
      <trkpt lat="39.643758268522" lon="2.892537195994">
        <ele>113.4</ele>
        <time>2014-05-03T10:54:31Z</time>
      </trkpt>
      <trkpt lat="39.643719544144" lon="2.892517498529">
        <ele>113.4</ele>
        <time>2014-05-03T10:54:32Z</time>
      </trkpt>
      <trkpt lat="39.643554001619" lon="2.892437954298">
        <ele>113.4</ele>
        <time>2014-05-03T10:54:36Z</time>
      </trkpt>
      <trkpt lat="39.643391895673" lon="2.892351704547">
        <ele>113.4</ele>
        <time>2014-05-03T10:54:40Z</time>
      </trkpt>
      <trkpt lat="39.643122752864" lon="2.892215582491">
        <ele>113.4</ele>
        <time>2014-05-03T10:54:46Z</time>
      </trkpt>
      <trkpt lat="39.642759481318" lon="2.892031432148">
        <ele>113.4</ele>
        <time>2014-05-03T10:54:53Z</time>
      </trkpt>
      <trkpt lat="39.642426719888" lon="2.8918728466">
        <ele>113.4</ele>
        <time>2014-05-03T10:54:59Z</time>
      </trkpt>
      <trkpt lat="39.64231172022" lon="2.891819453897">
        <ele>113.4</ele>
        <time>2014-05-03T10:55:01Z</time>
      </trkpt>
      <trkpt lat="39.64220778466" lon="2.891759355674">
        <ele>113.4</ele>
        <time>2014-05-03T10:55:03Z</time>
      </trkpt>
      <trkpt lat="39.64204936675" lon="2.891661287444">
        <ele>113.4</ele>
        <time>2014-05-03T10:55:06Z</time>
      </trkpt>
      <trkpt lat="39.641995219676" lon="2.891623736532">
        <ele>113.4</ele>
        <time>2014-05-03T10:55:07Z</time>
      </trkpt>
      <trkpt lat="39.641646532636" lon="2.891367753306">
        <ele>113.4</ele>
        <time>2014-05-03T10:55:14Z</time>
      </trkpt>
      <trkpt lat="39.641595235408" lon="2.891342523787">
        <ele>113.4</ele>
        <time>2014-05-03T10:55:15Z</time>
      </trkpt>
      <trkpt lat="39.641431117806" lon="2.891356102465">
        <ele>113.4</ele>
        <time>2014-05-03T10:55:18Z</time>
      </trkpt>
      <trkpt lat="39.641332295205" lon="2.891412261195">
        <ele>113.4</ele>
        <time>2014-05-03T10:55:20Z</time>
      </trkpt>
      <trkpt lat="39.641198352443" lon="2.891481160413">
        <ele>113.8</ele>
        <time>2014-05-03T10:55:23Z</time>
      </trkpt>
      <trkpt lat="39.641152084355" lon="2.891503623905">
        <ele>114.4</ele>
        <time>2014-05-03T10:55:24Z</time>
      </trkpt>
      <trkpt lat="39.641111683597" lon="2.891531032718">
        <ele>114.8</ele>
        <time>2014-05-03T10:55:25Z</time>
      </trkpt>
      <trkpt lat="39.641068600631" lon="2.891556932789">
        <ele>115.2</ele>
        <time>2014-05-03T10:55:26Z</time>
      </trkpt>
      <trkpt lat="39.64102342219" lon="2.891583335774">
        <ele>115.8</ele>
        <time>2014-05-03T10:55:27Z</time>
      </trkpt>
      <trkpt lat="39.640978579025" lon="2.891606218361">
        <ele>115.8</ele>
        <time>2014-05-03T10:55:28Z</time>
      </trkpt>
      <trkpt lat="39.640837092553" lon="2.891658186141">
        <ele>115.8</ele>
        <time>2014-05-03T10:55:31Z</time>
      </trkpt>
      <trkpt lat="39.640738856685" lon="2.891646032386">
        <ele>115.8</ele>
        <time>2014-05-03T10:55:33Z</time>
      </trkpt>
      <trkpt lat="39.640597202575" lon="2.891610828406">
        <ele>115.8</ele>
        <time>2014-05-03T10:55:36Z</time>
      </trkpt>
      <trkpt lat="39.640552024134" lon="2.891590460389">
        <ele>116.2</ele>
        <time>2014-05-03T10:55:37Z</time>
      </trkpt>
      <trkpt lat="39.640508019159" lon="2.891569840915">
        <ele>116.6</ele>
        <time>2014-05-03T10:55:38Z</time>
      </trkpt>
      <trkpt lat="39.640467618401" lon="2.89155181983">
        <ele>117</ele>
        <time>2014-05-03T10:55:39Z</time>
      </trkpt>
      <trkpt lat="39.640429229299" lon="2.891538324971">
        <ele>117.4</ele>
        <time>2014-05-03T10:55:40Z</time>
      </trkpt>
      <trkpt lat="39.640393857681" lon="2.891524913931">
        <ele>117.8</ele>
        <time>2014-05-03T10:55:41Z</time>
      </trkpt>
      <trkpt lat="39.64028246223" lon="2.8914956611">
        <ele>117.8</ele>
        <time>2014-05-03T10:55:45Z</time>
      </trkpt>
      <trkpt lat="39.640255723969" lon="2.891488285028">
        <ele>117.8</ele>
        <time>2014-05-03T10:55:46Z</time>
      </trkpt>
      <trkpt lat="39.640196799212" lon="2.89147638273">
        <ele>117.8</ele>
        <time>2014-05-03T10:55:48Z</time>
      </trkpt>
      <trkpt lat="39.640130498383" lon="2.891467917011">
        <ele>117.8</ele>
        <time>2014-05-03T10:55:50Z</time>
      </trkpt>
      <trkpt lat="39.639973337758" lon="2.89144034056">
        <ele>117.8</ele>
        <time>2014-05-03T10:55:54Z</time>
      </trkpt>
      <trkpt lat="39.639926147661" lon="2.891429779366">
        <ele>117.8</ele>
        <time>2014-05-03T10:55:55Z</time>
      </trkpt>
      <trkpt lat="39.639877448822" lon="2.891418296163">
        <ele>117.8</ele>
        <time>2014-05-03T10:55:56Z</time>
      </trkpt>
      <trkpt lat="39.639819948988" lon="2.891412345014">
        <ele>117.8</ele>
        <time>2014-05-03T10:55:57Z</time>
      </trkpt>
      <trkpt lat="39.639763035887" lon="2.891405555675">
        <ele>117.8</ele>
        <time>2014-05-03T10:55:58Z</time>
      </trkpt>
      <trkpt lat="39.639704027311" lon="2.8914034602">
        <ele>117.8</ele>
        <time>2014-05-03T10:55:59Z</time>
      </trkpt>
      <trkpt lat="39.639572766757" lon="2.891403795476">
        <ele>117.4</ele>
        <time>2014-05-03T10:56:01Z</time>
      </trkpt>
      <trkpt lat="39.639504957186" lon="2.891390132979">
        <ele>117</ele>
        <time>2014-05-03T10:56:02Z</time>
      </trkpt>
      <trkpt lat="39.639436560882" lon="2.891367753306">
        <ele>116.6</ele>
        <time>2014-05-03T10:56:03Z</time>
      </trkpt>
      <trkpt lat="39.63936715875" lon="2.891328358376">
        <ele>116.2</ele>
        <time>2014-05-03T10:56:04Z</time>
      </trkpt>
      <trkpt lat="39.639305467966" lon="2.891279156623">
        <ele>115.6</ele>
        <time>2014-05-03T10:56:05Z</time>
      </trkpt>
      <trkpt lat="39.639245118286" lon="2.89123414582">
        <ele>115</ele>
        <time>2014-05-03T10:56:06Z</time>
      </trkpt>
      <trkpt lat="39.639189713927" lon="2.891190979035">
        <ele>114.4</ele>
        <time>2014-05-03T10:56:07Z</time>
      </trkpt>
      <trkpt lat="39.639138249061" lon="2.891143537481">
        <ele>113.6</ele>
        <time>2014-05-03T10:56:08Z</time>
      </trkpt>
      <trkpt lat="39.639086448919" lon="2.891095509194">
        <ele>112.2</ele>
        <time>2014-05-03T10:56:09Z</time>
      </trkpt>
      <trkpt lat="39.639030122551" lon="2.891049073468">
        <ele>111.4</ele>
        <time>2014-05-03T10:56:10Z</time>
      </trkpt>
      <trkpt lat="39.638971616889" lon="2.890994088204">
        <ele>110.8</ele>
        <time>2014-05-03T10:56:11Z</time>
      </trkpt>
      <trkpt lat="39.63890699244" lon="2.890932648877">
        <ele>110.2</ele>
        <time>2014-05-03T10:56:12Z</time>
      </trkpt>
      <trkpt lat="39.638841948896" lon="2.890874059396">
        <ele>109.8</ele>
        <time>2014-05-03T10:56:13Z</time>
      </trkpt>
      <trkpt lat="39.638774809877" lon="2.89080499254">
        <ele>109.2</ele>
        <time>2014-05-03T10:56:14Z</time>
      </trkpt>
      <trkpt lat="39.638705156288" lon="2.890734249304">
        <ele>108.6</ele>
        <time>2014-05-03T10:56:15Z</time>
      </trkpt>
      <trkpt lat="39.638632820491" lon="2.890661242955">
        <ele>108</ele>
        <time>2014-05-03T10:56:16Z</time>
      </trkpt>
      <trkpt lat="39.638564927101" lon="2.890590751176">
        <ele>107.2</ele>
        <time>2014-05-03T10:56:17Z</time>
      </trkpt>
      <trkpt lat="39.638502062851" lon="2.89052000794">
        <ele>106.6</ele>
        <time>2014-05-03T10:56:18Z</time>
      </trkpt>
      <trkpt lat="39.638437186945" lon="2.890446414858">
        <ele>106</ele>
        <time>2014-05-03T10:56:19Z</time>
      </trkpt>
      <trkpt lat="39.638376166713" lon="2.890380533124">
        <ele>105.6</ele>
        <time>2014-05-03T10:56:20Z</time>
      </trkpt>
      <trkpt lat="39.638309530608" lon="2.890319764349">
        <ele>105</ele>
        <time>2014-05-03T10:56:21Z</time>
      </trkpt>
      <trkpt lat="39.638237697725" lon="2.890267293655">
        <ele>104.4</ele>
        <time>2014-05-03T10:56:22Z</time>
      </trkpt>
      <trkpt lat="39.638160081331" lon="2.89022412687">
        <ele>103.8</ele>
        <time>2014-05-03T10:56:23Z</time>
      </trkpt>
      <trkpt lat="39.638080788557" lon="2.890177439687">
        <ele>103.8</ele>
        <time>2014-05-03T10:56:24Z</time>
      </trkpt>
      <trkpt lat="39.637998813575" lon="2.890129662857">
        <ele>103.8</ele>
        <time>2014-05-03T10:56:25Z</time>
      </trkpt>
      <trkpt lat="39.637911138901" lon="2.890076437792">
        <ele>103.8</ele>
        <time>2014-05-03T10:56:26Z</time>
      </trkpt>
      <trkpt lat="39.637828744824" lon="2.890021620166">
        <ele>103.4</ele>
        <time>2014-05-03T10:56:27Z</time>
      </trkpt>
      <trkpt lat="39.637750457878" lon="2.889959426468">
        <ele>102.8</ele>
        <time>2014-05-03T10:56:28Z</time>
      </trkpt>
      <trkpt lat="39.637677786805" lon="2.889890946345">
        <ele>102.2</ele>
        <time>2014-05-03T10:56:29Z</time>
      </trkpt>
      <trkpt lat="39.637609139044" lon="2.889819197281">
        <ele>101.8</ele>
        <time>2014-05-03T10:56:30Z</time>
      </trkpt>
      <trkpt lat="39.637541916206" lon="2.889747029122">
        <ele>101.2</ele>
        <time>2014-05-03T10:56:31Z</time>
      </trkpt>
      <trkpt lat="39.63727838927" lon="2.889454333174">
        <ele>101.2</ele>
        <time>2014-05-03T10:56:35Z</time>
      </trkpt>
      <trkpt lat="39.637097591687" lon="2.889242103466">
        <ele>101.2</ele>
        <time>2014-05-03T10:56:38Z</time>
      </trkpt>
      <trkpt lat="39.63692467309" lon="2.889037333649">
        <ele>101.2</ele>
        <time>2014-05-03T10:56:41Z</time>
      </trkpt>
      <trkpt lat="39.636758040918" lon="2.888834240212">
        <ele>101.2</ele>
        <time>2014-05-03T10:56:44Z</time>
      </trkpt>
      <trkpt lat="39.636696182496" lon="2.888783362079">
        <ele>101.2</ele>
        <time>2014-05-03T10:56:45Z</time>
      </trkpt>
      <trkpt lat="39.63662376288" lon="2.888746062624">
        <ele>101.2</ele>
        <time>2014-05-03T10:56:46Z</time>
      </trkpt>
      <trkpt lat="39.636392506259" lon="2.888698788708">
        <ele>100.8</ele>
        <time>2014-05-03T10:56:49Z</time>
      </trkpt>
      <trkpt lat="39.636319248453" lon="2.88868604822">
        <ele>100.4</ele>
        <time>2014-05-03T10:56:50Z</time>
      </trkpt>
      <trkpt lat="39.636248002303" lon="2.888667859497">
        <ele>100</ele>
        <time>2014-05-03T10:56:51Z</time>
      </trkpt>
      <trkpt lat="39.636177091429" lon="2.888650089869">
        <ele>99.4</ele>
        <time>2014-05-03T10:56:52Z</time>
      </trkpt>
      <trkpt lat="39.636102324881" lon="2.888629386576">
        <ele>99</ele>
        <time>2014-05-03T10:56:53Z</time>
      </trkpt>
      <trkpt lat="39.636023283564" lon="2.88860893474">
        <ele>99</ele>
        <time>2014-05-03T10:56:54Z</time>
      </trkpt>
      <trkpt lat="39.635945164256" lon="2.888590326922">
        <ele>99</ele>
        <time>2014-05-03T10:56:55Z</time>
      </trkpt>
      <trkpt lat="39.635866961129" lon="2.888573646941">
        <ele>99</ele>
        <time>2014-05-03T10:56:56Z</time>
      </trkpt>
      <trkpt lat="39.635330268072" lon="2.888456216522">
        <ele>99</ele>
        <time>2014-05-03T10:57:03Z</time>
      </trkpt>
      <trkpt lat="39.635034219364" lon="2.888383293992">
        <ele>98.6</ele>
        <time>2014-05-03T10:57:07Z</time>
      </trkpt>
      <trkpt lat="39.634963979042" lon="2.888368206572">
        <ele>98.2</ele>
        <time>2014-05-03T10:57:08Z</time>
      </trkpt>
      <trkpt lat="39.634895498919" lon="2.888354460256">
        <ele>97.8</ele>
        <time>2014-05-03T10:57:09Z</time>
      </trkpt>
      <trkpt lat="39.634826851158" lon="2.888341971225">
        <ele>97.4</ele>
        <time>2014-05-03T10:57:10Z</time>
      </trkpt>
      <trkpt lat="39.63475795194" lon="2.888333421687">
        <ele>97</ele>
        <time>2014-05-03T10:57:11Z</time>
      </trkpt>
      <trkpt lat="39.634404822493" lon="2.888305845236">
        <ele>97</ele>
        <time>2014-05-03T10:57:16Z</time>
      </trkpt>
      <trkpt lat="39.634339276035" lon="2.888300061725">
        <ele>97</ele>
        <time>2014-05-03T10:57:17Z</time>
      </trkpt>
      <trkpt lat="39.634050854856" lon="2.888279106975">
        <ele>97</ele>
        <time>2014-05-03T10:57:21Z</time>
      </trkpt>
      <trkpt lat="39.633977429412" lon="2.88827282055">
        <ele>97</ele>
        <time>2014-05-03T10:57:22Z</time>
      </trkpt>
      <trkpt lat="39.633908111099" lon="2.888260582976">
        <ele>97</ele>
        <time>2014-05-03T10:57:23Z</time>
      </trkpt>
      <trkpt lat="39.633776179993" lon="2.888229653765">
        <ele>97</ele>
        <time>2014-05-03T10:57:25Z</time>
      </trkpt>
      <trkpt lat="39.633586413777" lon="2.888184223867">
        <ele>97</ele>
        <time>2014-05-03T10:57:28Z</time>
      </trkpt>
      <trkpt lat="39.633403939814" lon="2.888136949951">
        <ele>97</ele>
        <time>2014-05-03T10:57:31Z</time>
      </trkpt>
      <trkpt lat="39.633343422496" lon="2.888121024341">
        <ele>97</ele>
        <time>2014-05-03T10:57:32Z</time>
      </trkpt>
      <trkpt lat="39.63328273754" lon="2.888105434007">
        <ele>97</ele>
        <time>2014-05-03T10:57:33Z</time>
      </trkpt>
      <trkpt lat="39.633221130575" lon="2.88808841875">
        <ele>97</ele>
        <time>2014-05-03T10:57:34Z</time>
      </trkpt>
      <trkpt lat="39.633156003212" lon="2.888068721285">
        <ele>97</ele>
        <time>2014-05-03T10:57:35Z</time>
      </trkpt>
      <trkpt lat="39.633094312428" lon="2.888051957485">
        <ele>97</ele>
        <time>2014-05-03T10:57:36Z</time>
      </trkpt>
      <trkpt lat="39.633035387671" lon="2.888035193685">
        <ele>97</ele>
        <time>2014-05-03T10:57:37Z</time>
      </trkpt>
      <trkpt lat="39.632671026478" lon="2.887923546777">
        <ele>97</ele>
        <time>2014-05-03T10:57:43Z</time>
      </trkpt>
      <trkpt lat="39.632609838608" lon="2.887904268407">
        <ele>97</ele>
        <time>2014-05-03T10:57:44Z</time>
      </trkpt>
      <trkpt lat="39.632486289402" lon="2.887861017803">
        <ele>97</ele>
        <time>2014-05-03T10:57:46Z</time>
      </trkpt>
      <trkpt lat="39.632424514799" lon="2.887836375017">
        <ele>97</ele>
        <time>2014-05-03T10:57:47Z</time>
      </trkpt>
      <trkpt lat="39.63236324311" lon="2.887809720575">
        <ele>97</ele>
        <time>2014-05-03T10:57:48Z</time>
      </trkpt>
      <trkpt lat="39.632298283385" lon="2.887780048649">
        <ele>97</ele>
        <time>2014-05-03T10:57:49Z</time>
      </trkpt>
      <trkpt lat="39.632183451355" lon="2.887729170516">
        <ele>97</ele>
        <time>2014-05-03T10:57:51Z</time>
      </trkpt>
      <trkpt lat="39.632123688408" lon="2.887703018988">
        <ele>97</ele>
        <time>2014-05-03T10:57:52Z</time>
      </trkpt>
      <trkpt lat="39.632066272393" lon="2.88767100013">
        <ele>97</ele>
        <time>2014-05-03T10:57:53Z</time>
      </trkpt>
      <trkpt lat="39.632012209138" lon="2.887639819462">
        <ele>97.4</ele>
        <time>2014-05-03T10:57:54Z</time>
      </trkpt>
      <trkpt lat="39.631959486987" lon="2.887609560803">
        <ele>98</ele>
        <time>2014-05-03T10:57:55Z</time>
      </trkpt>
      <trkpt lat="39.631901903334" lon="2.887582571085">
        <ele>98.4</ele>
        <time>2014-05-03T10:57:56Z</time>
      </trkpt>
      <trkpt lat="39.631841721292" lon="2.887558095937">
        <ele>98.8</ele>
        <time>2014-05-03T10:57:57Z</time>
      </trkpt>
      <trkpt lat="39.631782628897" lon="2.887528926925">
        <ele>99.2</ele>
        <time>2014-05-03T10:57:58Z</time>
      </trkpt>
      <trkpt lat="39.631596634536" lon="2.887436809844">
        <ele>99.2</ele>
        <time>2014-05-03T10:58:01Z</time>
      </trkpt>
      <trkpt lat="39.631533937924" lon="2.887406635004">
        <ele>99.2</ele>
        <time>2014-05-03T10:58:02Z</time>
      </trkpt>
      <trkpt lat="39.631470906036" lon="2.887374532327">
        <ele>99.2</ele>
        <time>2014-05-03T10:58:03Z</time>
      </trkpt>
      <trkpt lat="39.631289354082" lon="2.887294485182">
        <ele>99.2</ele>
        <time>2014-05-03T10:58:06Z</time>
      </trkpt>
      <trkpt lat="39.631175611699" lon="2.887238661728">
        <ele>99.2</ele>
        <time>2014-05-03T10:58:08Z</time>
      </trkpt>
      <trkpt lat="39.631005878224" lon="2.887136486367">
        <ele>99.2</ele>
        <time>2014-05-03T10:58:11Z</time>
      </trkpt>
      <trkpt lat="39.630885681778" lon="2.887092313754">
        <ele>99.2</ele>
        <time>2014-05-03T10:58:13Z</time>
      </trkpt>
      <trkpt lat="39.630650150388" lon="2.887124835526">
        <ele>99.2</ele>
        <time>2014-05-03T10:58:18Z</time>
      </trkpt>
      <trkpt lat="39.630593907839" lon="2.887147718113">
        <ele>99.2</ele>
        <time>2014-05-03T10:58:19Z</time>
      </trkpt>
      <trkpt lat="39.630541772421" lon="2.887170768338">
        <ele>99.2</ele>
        <time>2014-05-03T10:58:20Z</time>
      </trkpt>
      <trkpt lat="39.630315964035" lon="2.887279146305">
        <ele>99.2</ele>
        <time>2014-05-03T10:58:24Z</time>
      </trkpt>
      <trkpt lat="39.629934336128" lon="2.88749162747">
        <ele>99.2</ele>
        <time>2014-05-03T10:58:31Z</time>
      </trkpt>
      <trkpt lat="39.629766362852" lon="2.887578463954">
        <ele>99.2</ele>
        <time>2014-05-03T10:58:34Z</time>
      </trkpt>
      <trkpt lat="39.629711796683" lon="2.887611907735">
        <ele>99.2</ele>
        <time>2014-05-03T10:58:35Z</time>
      </trkpt>
      <trkpt lat="39.629601574698" lon="2.887680136401">
        <ele>99.2</ele>
        <time>2014-05-03T10:58:37Z</time>
      </trkpt>
      <trkpt lat="39.629547679081" lon="2.887712658173">
        <ele>99.2</ele>
        <time>2014-05-03T10:58:38Z</time>
      </trkpt>
      <trkpt lat="39.629434271974" lon="2.887775019509">
        <ele>99.2</ele>
        <time>2014-05-03T10:58:40Z</time>
      </trkpt>
      <trkpt lat="39.629381214547" lon="2.887805278168">
        <ele>99.2</ele>
        <time>2014-05-03T10:58:41Z</time>
      </trkpt>
      <trkpt lat="39.629325810188" lon="2.887834614818">
        <ele>99.2</ele>
        <time>2014-05-03T10:58:42Z</time>
      </trkpt>
      <trkpt lat="39.62921500147" lon="2.887894880679">
        <ele>99.2</ele>
        <time>2014-05-03T10:58:44Z</time>
      </trkpt>
      <trkpt lat="39.629160435301" lon="2.887925558433">
        <ele>99.2</ele>
        <time>2014-05-03T10:58:45Z</time>
      </trkpt>
      <trkpt lat="39.629102097277" lon="2.887958164024">
        <ele>99.2</ele>
        <time>2014-05-03T10:58:46Z</time>
      </trkpt>
      <trkpt lat="39.629044429805" lon="2.887988841778">
        <ele>99.2</ele>
        <time>2014-05-03T10:58:47Z</time>
      </trkpt>
      <trkpt lat="39.628929430137" lon="2.888052963313">
        <ele>99.2</ele>
        <time>2014-05-03T10:58:49Z</time>
      </trkpt>
      <trkpt lat="39.628812502632" lon="2.888121275798">
        <ele>99.2</ele>
        <time>2014-05-03T10:58:51Z</time>
      </trkpt>
      <trkpt lat="39.628753494056" lon="2.888155809226">
        <ele>99.2</ele>
        <time>2014-05-03T10:58:52Z</time>
      </trkpt>
      <trkpt lat="39.628693898747" lon="2.888186570799">
        <ele>99.2</ele>
        <time>2014-05-03T10:58:53Z</time>
      </trkpt>
      <trkpt lat="39.628325514242" lon="2.888385557105">
        <ele>99.2</ele>
        <time>2014-05-03T10:58:59Z</time>
      </trkpt>
      <trkpt lat="39.628200959208" lon="2.888453785771">
        <ele>99.2</ele>
        <time>2014-05-03T10:59:01Z</time>
      </trkpt>
      <trkpt lat="39.627950256579" lon="2.888599798469">
        <ele>99.2</ele>
        <time>2014-05-03T10:59:05Z</time>
      </trkpt>
      <trkpt lat="39.627710198963" lon="2.888738686552">
        <ele>99.2</ele>
        <time>2014-05-03T10:59:09Z</time>
      </trkpt>
      <trkpt lat="39.627650436016" lon="2.888773052342">
        <ele>99.2</ele>
        <time>2014-05-03T10:59:10Z</time>
      </trkpt>
      <trkpt lat="39.627319183328" lon="2.888971703372">
        <ele>99.2</ele>
        <time>2014-05-03T10:59:16Z</time>
      </trkpt>
      <trkpt lat="39.627023805172" lon="2.889161469588">
        <ele>99.2</ele>
        <time>2014-05-03T10:59:22Z</time>
      </trkpt>
      <trkpt lat="39.626975776885" lon="2.889189465134">
        <ele>99.6</ele>
        <time>2014-05-03T10:59:23Z</time>
      </trkpt>
      <trkpt lat="39.626925988399" lon="2.88921662249">
        <ele>100</ele>
        <time>2014-05-03T10:59:24Z</time>
      </trkpt>
      <trkpt lat="39.626871841325" lon="2.889232967195">
        <ele>100.4</ele>
        <time>2014-05-03T10:59:25Z</time>
      </trkpt>
      <trkpt lat="39.626815012043" lon="2.889225172028">
        <ele>100.8</ele>
        <time>2014-05-03T10:59:26Z</time>
      </trkpt>
      <trkpt lat="39.626762206073" lon="2.889196422111">
        <ele>101.2</ele>
        <time>2014-05-03T10:59:27Z</time>
      </trkpt>
      <trkpt lat="39.626671262458" lon="2.889094833483">
        <ele>101.2</ele>
        <time>2014-05-03T10:59:29Z</time>
      </trkpt>
      <trkpt lat="39.626624659094" lon="2.889040099676">
        <ele>101.2</ele>
        <time>2014-05-03T10:59:30Z</time>
      </trkpt>
      <trkpt lat="39.626436066344" lon="2.888828456701">
        <ele>101.6</ele>
        <time>2014-05-03T10:59:34Z</time>
      </trkpt>
      <trkpt lat="39.626393402473" lon="2.888774477265">
        <ele>102</ele>
        <time>2014-05-03T10:59:35Z</time>
      </trkpt>
      <trkpt lat="39.626347302023" lon="2.88872209039">
        <ele>102.6</ele>
        <time>2014-05-03T10:59:36Z</time>
      </trkpt>
      <trkpt lat="39.626297094442" lon="2.888678755967">
        <ele>103</ele>
        <time>2014-05-03T10:59:37Z</time>
      </trkpt>
      <trkpt lat="39.626240432798" lon="2.8886458151">
        <ele>103.4</ele>
        <time>2014-05-03T10:59:38Z</time>
      </trkpt>
      <trkpt lat="39.626073632988" lon="2.888550680535">
        <ele>103.4</ele>
        <time>2014-05-03T10:59:41Z</time>
      </trkpt>
      <trkpt lat="39.625721844645" lon="2.888360662862">
        <ele>103.4</ele>
        <time>2014-05-03T10:59:47Z</time>
      </trkpt>
      <trkpt lat="39.625599133629" lon="2.888318837181">
        <ele>103.4</ele>
        <time>2014-05-03T10:59:49Z</time>
      </trkpt>
      <trkpt lat="39.625408277766" lon="2.888252201076">
        <ele>103.4</ele>
        <time>2014-05-03T10:59:52Z</time>
      </trkpt>
      <trkpt lat="39.62528221399" lon="2.888210543033">
        <ele>104.2</ele>
        <time>2014-05-03T10:59:54Z</time>
      </trkpt>
      <trkpt lat="39.62521851155" lon="2.888192689586">
        <ele>104.6</ele>
        <time>2014-05-03T10:59:55Z</time>
      </trkpt>
      <trkpt lat="39.625153551825" lon="2.888175674329">
        <ele>105</ele>
        <time>2014-05-03T10:59:56Z</time>
      </trkpt>
      <trkpt lat="39.625084233512" lon="2.888161425099">
        <ele>105.4</ele>
        <time>2014-05-03T10:59:57Z</time>
      </trkpt>
      <trkpt lat="39.624893796744" lon="2.888130160612">
        <ele>105.4</ele>
        <time>2014-05-03T11:00:00Z</time>
      </trkpt>
      <trkpt lat="39.624598083312" lon="2.888070397665">
        <ele>105.4</ele>
        <time>2014-05-03T11:00:05Z</time>
      </trkpt>
      <trkpt lat="39.624454501365" lon="2.887901837656">
        <ele>105.4</ele>
        <time>2014-05-03T11:00:08Z</time>
      </trkpt>
      <trkpt lat="39.624419632661" lon="2.88783360899">
        <ele>105.4</ele>
        <time>2014-05-03T11:00:09Z</time>
      </trkpt>
      <trkpt lat="39.624384428681" lon="2.887764290677">
        <ele>106</ele>
        <time>2014-05-03T11:00:10Z</time>
      </trkpt>
      <trkpt lat="39.624346458674" lon="2.887702683712">
        <ele>106.4</ele>
        <time>2014-05-03T11:00:11Z</time>
      </trkpt>
      <trkpt lat="39.624312679617" lon="2.88763663434">
        <ele>107</ele>
        <time>2014-05-03T11:00:12Z</time>
      </trkpt>
      <trkpt lat="39.62427638599" lon="2.887565052914">
        <ele>107.4</ele>
        <time>2014-05-03T11:00:13Z</time>
      </trkpt>
      <trkpt lat="39.624240679096" lon="2.88749498023">
        <ele>107.8</ele>
        <time>2014-05-03T11:00:14Z</time>
      </trkpt>
      <trkpt lat="39.624136911174" lon="2.887286354739">
        <ele>107.8</ele>
        <time>2014-05-03T11:00:17Z</time>
      </trkpt>
      <trkpt lat="39.624071197078" lon="2.887145455">
        <ele>107.8</ele>
        <time>2014-05-03T11:00:19Z</time>
      </trkpt>
      <trkpt lat="39.623811609635" lon="2.886656874049">
        <ele>107.8</ele>
        <time>2014-05-03T11:00:26Z</time>
      </trkpt>
      <trkpt lat="39.623681941642" lon="2.886395610226">
        <ele>107.8</ele>
        <time>2014-05-03T11:00:30Z</time>
      </trkpt>
      <trkpt lat="39.623652521173" lon="2.886338529487">
        <ele>107.8</ele>
        <time>2014-05-03T11:00:31Z</time>
      </trkpt>
      <trkpt lat="39.623622430152" lon="2.886282706033">
        <ele>107.8</ele>
        <time>2014-05-03T11:00:32Z</time>
      </trkpt>
      <trkpt lat="39.62359326114" lon="2.886225541475">
        <ele>107.8</ele>
        <time>2014-05-03T11:00:33Z</time>
      </trkpt>
      <trkpt lat="39.623561577558" lon="2.886166700537">
        <ele>107.8</ele>
        <time>2014-05-03T11:00:34Z</time>
      </trkpt>
      <trkpt lat="39.623530983623" lon="2.886110541807">
        <ele>107.8</ele>
        <time>2014-05-03T11:00:35Z</time>
      </trkpt>
      <trkpt lat="39.623497539842" lon="2.886050862679">
        <ele>107.8</ele>
        <time>2014-05-03T11:00:36Z</time>
      </trkpt>
      <trkpt lat="39.623465940079" lon="2.88599462013">
        <ele>107.8</ele>
        <time>2014-05-03T11:00:37Z</time>
      </trkpt>
      <trkpt lat="39.623394107196" lon="2.885897893004">
        <ele>107.8</ele>
        <time>2014-05-03T11:00:39Z</time>
      </trkpt>
      <trkpt lat="39.623346162728" lon="2.88587308258">
        <ele>107.8</ele>
        <time>2014-05-03T11:00:40Z</time>
      </trkpt>
      <trkpt lat="39.623195204709" lon="2.885934018993">
        <ele>107.8</ele>
        <time>2014-05-03T11:00:43Z</time>
      </trkpt>
      <trkpt lat="39.623139632712" lon="2.885975174122">
        <ele>107.8</ele>
        <time>2014-05-03T11:00:44Z</time>
      </trkpt>
      <trkpt lat="39.622930504307" lon="2.886140129914">
        <ele>107.8</ele>
        <time>2014-05-03T11:00:48Z</time>
      </trkpt>
      <trkpt lat="39.622876943966" lon="2.886183799613">
        <ele>107.8</ele>
        <time>2014-05-03T11:00:49Z</time>
      </trkpt>
      <trkpt lat="39.622705869387" lon="2.886314724891">
        <ele>107.8</ele>
        <time>2014-05-03T11:00:52Z</time>
      </trkpt>
      <trkpt lat="39.622651219399" lon="2.886359735694">
        <ele>107.8</ele>
        <time>2014-05-03T11:00:53Z</time>
      </trkpt>
      <trkpt lat="39.622530939134" lon="2.886449338205">
        <ele>107.8</ele>
        <time>2014-05-03T11:00:55Z</time>
      </trkpt>
      <trkpt lat="39.622409401584" lon="2.886540449458">
        <ele>107.8</ele>
        <time>2014-05-03T11:00:57Z</time>
      </trkpt>
      <trkpt lat="39.622352237026" lon="2.886586298451">
        <ele>108.4</ele>
        <time>2014-05-03T11:00:58Z</time>
      </trkpt>
      <trkpt lat="39.622289708052" lon="2.886634326738">
        <ele>108.8</ele>
        <time>2014-05-03T11:00:59Z</time>
      </trkpt>
      <trkpt lat="39.622228436363" lon="2.886678415532">
        <ele>109.4</ele>
        <time>2014-05-03T11:01:00Z</time>
      </trkpt>
      <trkpt lat="39.622166829398" lon="2.886724515982">
        <ele>109.8</ele>
        <time>2014-05-03T11:01:01Z</time>
      </trkpt>
      <trkpt lat="39.622107066451" lon="2.886770867889">
        <ele>110.4</ele>
        <time>2014-05-03T11:01:02Z</time>
      </trkpt>
      <trkpt lat="39.621874552545" lon="2.886948312712">
        <ele>110.4</ele>
        <time>2014-05-03T11:01:06Z</time>
      </trkpt>
      <trkpt lat="39.621763408551" lon="2.887041016526">
        <ele>110.4</ele>
        <time>2014-05-03T11:01:08Z</time>
      </trkpt>
      <trkpt lat="39.621526703695" lon="2.887223155213">
        <ele>110.4</ele>
        <time>2014-05-03T11:01:12Z</time>
      </trkpt>
      <trkpt lat="39.6214676113" lon="2.887267998378">
        <ele>110.4</ele>
        <time>2014-05-03T11:01:13Z</time>
      </trkpt>
      <trkpt lat="39.621357389315" lon="2.887358439079">
        <ele>110.4</ele>
        <time>2014-05-03T11:01:15Z</time>
      </trkpt>
      <trkpt lat="39.621246412959" lon="2.887439911147">
        <ele>110.8</ele>
        <time>2014-05-03T11:01:17Z</time>
      </trkpt>
      <trkpt lat="39.621190505686" lon="2.887483077932">
        <ele>111.2</ele>
        <time>2014-05-03T11:01:18Z</time>
      </trkpt>
      <trkpt lat="39.621133844042" lon="2.887524652156">
        <ele>111.6</ele>
        <time>2014-05-03T11:01:19Z</time>
      </trkpt>
      <trkpt lat="39.621076595665" lon="2.887564047086">
        <ele>112</ele>
        <time>2014-05-03T11:01:20Z</time>
      </trkpt>
      <trkpt lat="39.621018676736" lon="2.887605788948">
        <ele>112.4</ele>
        <time>2014-05-03T11:01:21Z</time>
      </trkpt>
      <trkpt lat="39.620903174154" lon="2.887697403115">
        <ele>112.4</ele>
        <time>2014-05-03T11:01:23Z</time>
      </trkpt>
      <trkpt lat="39.620845590501" lon="2.887740234624">
        <ele>112.4</ele>
        <time>2014-05-03T11:01:24Z</time>
      </trkpt>
      <trkpt lat="39.620792281617" lon="2.887791280395">
        <ele>112.4</ele>
        <time>2014-05-03T11:01:25Z</time>
      </trkpt>
      <trkpt lat="39.620622212866" lon="2.887921199845">
        <ele>112.4</ele>
        <time>2014-05-03T11:01:28Z</time>
      </trkpt>
      <trkpt lat="39.620445438595" lon="2.888052292761">
        <ele>112.4</ele>
        <time>2014-05-03T11:01:31Z</time>
      </trkpt>
      <trkpt lat="39.620389447503" lon="2.888094202261">
        <ele>112.4</ele>
        <time>2014-05-03T11:01:32Z</time>
      </trkpt>
      <trkpt lat="39.620332199126" lon="2.88813787196">
        <ele>112.4</ele>
        <time>2014-05-03T11:01:33Z</time>
      </trkpt>
      <trkpt lat="39.620216109811" lon="2.888227306833">
        <ele>112.4</ele>
        <time>2014-05-03T11:01:35Z</time>
      </trkpt>
      <trkpt lat="39.620037491522" lon="2.888361920147">
        <ele>112.4</ele>
        <time>2014-05-03T11:01:38Z</time>
      </trkpt>
      <trkpt lat="39.619870104979" lon="2.888498628936">
        <ele>112.4</ele>
        <time>2014-05-03T11:01:41Z</time>
      </trkpt>
      <trkpt lat="39.619758960985" lon="2.888589907827">
        <ele>112.4</ele>
        <time>2014-05-03T11:01:43Z</time>
      </trkpt>
      <trkpt lat="39.619705987377" lon="2.888634248078">
        <ele>112.4</ele>
        <time>2014-05-03T11:01:44Z</time>
      </trkpt>
      <trkpt lat="39.619647565534" lon="2.888674481198">
        <ele>112.4</ele>
        <time>2014-05-03T11:01:45Z</time>
      </trkpt>
      <trkpt lat="39.619546144544" lon="2.888760311854">
        <ele>112.4</ele>
        <time>2014-05-03T11:01:47Z</time>
      </trkpt>
      <trkpt lat="39.619495853144" lon="2.888801969897">
        <ele>112.4</ele>
        <time>2014-05-03T11:01:48Z</time>
      </trkpt>
      <trkpt lat="39.61926736255" lon="2.888970278449">
        <ele>112.4</ele>
        <time>2014-05-03T11:01:53Z</time>
      </trkpt>
      <trkpt lat="39.619225620688" lon="2.888990395009">
        <ele>112.4</ele>
        <time>2014-05-03T11:01:54Z</time>
      </trkpt>
      <trkpt lat="39.619188740328" lon="2.889012020311">
        <ele>112.4</ele>
        <time>2014-05-03T11:01:55Z</time>
      </trkpt>
      <trkpt lat="39.619151440873" lon="2.889035489631">
        <ele>113</ele>
        <time>2014-05-03T11:01:56Z</time>
      </trkpt>
      <trkpt lat="39.619111878305" lon="2.889057953123">
        <ele>114.2</ele>
        <time>2014-05-03T11:01:57Z</time>
      </trkpt>
      <trkpt lat="39.619074411212" lon="2.889070861249">
        <ele>114.8</ele>
        <time>2014-05-03T11:01:58Z</time>
      </trkpt>
      <trkpt lat="39.619040632155" lon="2.889078488778">
        <ele>115.4</ele>
        <time>2014-05-03T11:01:59Z</time>
      </trkpt>
      <trkpt lat="39.619002410691" lon="2.889083098823">
        <ele>115.4</ele>
        <time>2014-05-03T11:02:00Z</time>
      </trkpt>
      <trkpt lat="39.618966787616" lon="2.88907915933">
        <ele>115.4</ele>
        <time>2014-05-03T11:02:01Z</time>
      </trkpt>
      <trkpt lat="39.61889772076" lon="2.88907077743">
        <ele>115.4</ele>
        <time>2014-05-03T11:02:03Z</time>
      </trkpt>
      <trkpt lat="39.618835191786" lon="2.889069184869">
        <ele>115.8</ele>
        <time>2014-05-03T11:02:05Z</time>
      </trkpt>
      <trkpt lat="39.618804094937" lon="2.889060048598">
        <ele>116.2</ele>
        <time>2014-05-03T11:02:06Z</time>
      </trkpt>
      <trkpt lat="39.618775680296" lon="2.889044625902">
        <ele>116.6</ele>
        <time>2014-05-03T11:02:07Z</time>
      </trkpt>
      <trkpt lat="39.618745840732" lon="2.889033310337">
        <ele>117</ele>
        <time>2014-05-03T11:02:08Z</time>
      </trkpt>
      <trkpt lat="39.618719437747" lon="2.889031550138">
        <ele>117.4</ele>
        <time>2014-05-03T11:02:09Z</time>
      </trkpt>
      <trkpt lat="39.618604857174" lon="2.889055773829">
        <ele>117.4</ele>
        <time>2014-05-03T11:02:13Z</time>
      </trkpt>
      <trkpt lat="39.618579795293" lon="2.889075303656">
        <ele>117.4</ele>
        <time>2014-05-03T11:02:14Z</time>
      </trkpt>
      <trkpt lat="39.618566887167" lon="2.889105813772">
        <ele>117.4</ele>
        <time>2014-05-03T11:02:15Z</time>
      </trkpt>
      <trkpt lat="39.618561438932" lon="2.889141939761">
        <ele>117.4</ele>
        <time>2014-05-03T11:02:16Z</time>
      </trkpt>
      <trkpt lat="39.618385419032" lon="2.889227351322">
        <ele>119.6</ele>
        <time>2014-05-03T11:03:49Z</time>
      </trkpt>
      <trkpt lat="39.6183830721" lon="2.889230368806">
        <ele>119.6</ele>
        <time>2014-05-03T11:03:50Z</time>
      </trkpt>
      <trkpt lat="39.618367649404" lon="2.889236655231">
        <ele>119.6</ele>
        <time>2014-05-03T11:03:51Z</time>
      </trkpt>
      <trkpt lat="39.618336217279" lon="2.889249647176">
        <ele>119.6</ele>
        <time>2014-05-03T11:03:53Z</time>
      </trkpt>
      <trkpt lat="39.618280393825" lon="2.889279989654">
        <ele>119.6</ele>
        <time>2014-05-03T11:03:55Z</time>
      </trkpt>
      <trkpt lat="39.618204286173" lon="2.889321228602">
        <ele>119.6</ele>
        <time>2014-05-03T11:03:57Z</time>
      </trkpt>
      <trkpt lat="39.618157096076" lon="2.88933816004">
        <ele>119.6</ele>
        <time>2014-05-03T11:03:58Z</time>
      </trkpt>
      <trkpt lat="39.618067409746" lon="2.889373531658">
        <ele>120.4</ele>
        <time>2014-05-03T11:04:00Z</time>
      </trkpt>
      <trkpt lat="39.618019213821" lon="2.889393312942">
        <ele>120.8</ele>
        <time>2014-05-03T11:04:01Z</time>
      </trkpt>
      <trkpt lat="39.617970598801" lon="2.889415105882">
        <ele>121.2</ele>
        <time>2014-05-03T11:04:02Z</time>
      </trkpt>
      <trkpt lat="39.617923995437" lon="2.889441676505">
        <ele>121.8</ele>
        <time>2014-05-03T11:04:03Z</time>
      </trkpt>
      <trkpt lat="39.617828274139" lon="2.889496242674">
        <ele>121.8</ele>
        <time>2014-05-03T11:04:05Z</time>
      </trkpt>
      <trkpt lat="39.617741437655" lon="2.889555335069">
        <ele>121.8</ele>
        <time>2014-05-03T11:04:07Z</time>
      </trkpt>
      <trkpt lat="39.61769743268" lon="2.889585174633">
        <ele>122.2</ele>
        <time>2014-05-03T11:04:08Z</time>
      </trkpt>
      <trkpt lat="39.617654852628" lon="2.889614259826">
        <ele>122.6</ele>
        <time>2014-05-03T11:04:09Z</time>
      </trkpt>
      <trkpt lat="39.617608249264" lon="2.889642003915">
        <ele>123</ele>
        <time>2014-05-03T11:04:10Z</time>
      </trkpt>
      <trkpt lat="39.617560556253" lon="2.88967511242">
        <ele>123.4</ele>
        <time>2014-05-03T11:04:11Z</time>
      </trkpt>
      <trkpt lat="39.617507750283" lon="2.889709394391">
        <ele>123.8</ele>
        <time>2014-05-03T11:04:12Z</time>
      </trkpt>
      <trkpt lat="39.617403395628" lon="2.889779467075">
        <ele>123.8</ele>
        <time>2014-05-03T11:04:14Z</time>
      </trkpt>
      <trkpt lat="39.617181023821" lon="2.889927323791">
        <ele>123.8</ele>
        <time>2014-05-03T11:04:18Z</time>
      </trkpt>
      <trkpt lat="39.616885561846" lon="2.89013695511">
        <ele>123.8</ele>
        <time>2014-05-03T11:04:23Z</time>
      </trkpt>
      <trkpt lat="39.616700740951" lon="2.890263857076">
        <ele>123.8</ele>
        <time>2014-05-03T11:04:26Z</time>
      </trkpt>
      <trkpt lat="39.616199335693" lon="2.89060215056">
        <ele>123.8</ele>
        <time>2014-05-03T11:04:34Z</time>
      </trkpt>
      <trkpt lat="39.615752245147" lon="2.890908509005">
        <ele>123.8</ele>
        <time>2014-05-03T11:04:41Z</time>
      </trkpt>
      <trkpt lat="39.615261568721" lon="2.891242695358">
        <ele>124.6</ele>
        <time>2014-05-03T11:04:49Z</time>
      </trkpt>
      <trkpt lat="39.615188646191" lon="2.891278988985">
        <ele>125.2</ele>
        <time>2014-05-03T11:04:50Z</time>
      </trkpt>
      <trkpt lat="39.615125698122" lon="2.891321149942">
        <ele>125.6</ele>
        <time>2014-05-03T11:04:51Z</time>
      </trkpt>
      <trkpt lat="39.615065096985" lon="2.891365071098">
        <ele>126</ele>
        <time>2014-05-03T11:04:52Z</time>
      </trkpt>
      <trkpt lat="39.615006675142" lon="2.891410584815">
        <ele>126</ele>
        <time>2014-05-03T11:04:53Z</time>
      </trkpt>
      <trkpt lat="39.614630327832" lon="2.891673944113">
        <ele>126.4</ele>
        <time>2014-05-03T11:04:59Z</time>
      </trkpt>
      <trkpt lat="39.614572241265" lon="2.891717278536">
        <ele>126.8</ele>
        <time>2014-05-03T11:05:00Z</time>
      </trkpt>
      <trkpt lat="39.614515747259" lon="2.89175466181">
        <ele>127.2</ele>
        <time>2014-05-03T11:05:01Z</time>
      </trkpt>
      <trkpt lat="39.614461348728" lon="2.891796655129">
        <ele>127.6</ele>
        <time>2014-05-03T11:05:02Z</time>
      </trkpt>
      <trkpt lat="39.614411141147" lon="2.891833284032">
        <ele>128.2</ele>
        <time>2014-05-03T11:05:03Z</time>
      </trkpt>
      <trkpt lat="39.614360179195" lon="2.89186530289">
        <ele>128.2</ele>
        <time>2014-05-03T11:05:04Z</time>
      </trkpt>
      <trkpt lat="39.61425750092" lon="2.891931771357">
        <ele>128.6</ele>
        <time>2014-05-03T11:05:06Z</time>
      </trkpt>
      <trkpt lat="39.61420134219" lon="2.891950127718">
        <ele>129</ele>
        <time>2014-05-03T11:05:07Z</time>
      </trkpt>
      <trkpt lat="39.614145267279" lon="2.891929256787">
        <ele>129.4</ele>
        <time>2014-05-03T11:05:08Z</time>
      </trkpt>
      <trkpt lat="39.614101262304" lon="2.891875528808">
        <ele>129.8</ele>
        <time>2014-05-03T11:05:09Z</time>
      </trkpt>
      <trkpt lat="39.614066058324" lon="2.891809814712">
        <ele>130.2</ele>
        <time>2014-05-03T11:05:10Z</time>
      </trkpt>
      <trkpt lat="39.613999589857" lon="2.891670675172">
        <ele>130.2</ele>
        <time>2014-05-03T11:05:12Z</time>
      </trkpt>
      <trkpt lat="39.61396245804" lon="2.891593561692">
        <ele>130.2</ele>
        <time>2014-05-03T11:05:13Z</time>
      </trkpt>
      <trkpt lat="39.613675964698" lon="2.89098855615">
        <ele>130.2</ele>
        <time>2014-05-03T11:05:21Z</time>
      </trkpt>
      <trkpt lat="39.613640509261" lon="2.890913621964">
        <ele>130.2</ele>
        <time>2014-05-03T11:05:22Z</time>
      </trkpt>
      <trkpt lat="39.613415790522" lon="2.890418670769">
        <ele>130.2</ele>
        <time>2014-05-03T11:05:28Z</time>
      </trkpt>
      <trkpt lat="39.613099876711" lon="2.88972372744">
        <ele>130.2</ele>
        <time>2014-05-03T11:05:36Z</time>
      </trkpt>
      <trkpt lat="39.613057883392" lon="2.889635298395">
        <ele>130.2</ele>
        <time>2014-05-03T11:05:37Z</time>
      </trkpt>
      <trkpt lat="39.612774072258" lon="2.88902048603">
        <ele>130.2</ele>
        <time>2014-05-03T11:05:44Z</time>
      </trkpt>
      <trkpt lat="39.612475592799" lon="2.888357729197">
        <ele>130.2</ele>
        <time>2014-05-03T11:05:51Z</time>
      </trkpt>
      <trkpt lat="39.612384313908" lon="2.888145834765">
        <ele>129.8</ele>
        <time>2014-05-03T11:05:53Z</time>
      </trkpt>
      <trkpt lat="39.61233804582" lon="2.888043659404">
        <ele>129.2</ele>
        <time>2014-05-03T11:05:54Z</time>
      </trkpt>
      <trkpt lat="39.612290185171" lon="2.887942657509">
        <ele>128.8</ele>
        <time>2014-05-03T11:05:55Z</time>
      </trkpt>
      <trkpt lat="39.612243917083" lon="2.887848612591">
        <ele>128.4</ele>
        <time>2014-05-03T11:05:56Z</time>
      </trkpt>
      <trkpt lat="39.612200750298" lon="2.887757920433">
        <ele>128</ele>
        <time>2014-05-03T11:05:57Z</time>
      </trkpt>
      <trkpt lat="39.612158002608" lon="2.887665551895">
        <ele>128</ele>
        <time>2014-05-03T11:05:58Z</time>
      </trkpt>
      <trkpt lat="39.611922555037" lon="2.887126428087">
        <ele>128</ele>
        <time>2014-05-03T11:06:04Z</time>
      </trkpt>
      <trkpt lat="39.611769501543" lon="2.886794085752">
        <ele>128.4</ele>
        <time>2014-05-03T11:06:08Z</time>
      </trkpt>
      <trkpt lat="39.611735973943" lon="2.886712026951">
        <ele>129</ele>
        <time>2014-05-03T11:06:09Z</time>
      </trkpt>
      <trkpt lat="39.611707475483" lon="2.886638433869">
        <ele>129.4</ele>
        <time>2014-05-03T11:06:10Z</time>
      </trkpt>
      <trkpt lat="39.611670427485" lon="2.886558889638">
        <ele>129.8</ele>
        <time>2014-05-03T11:06:11Z</time>
      </trkpt>
      <trkpt lat="39.611631786926" lon="2.886471717878">
        <ele>130.2</ele>
        <time>2014-05-03T11:06:12Z</time>
      </trkpt>
      <trkpt lat="39.611554170532" lon="2.886296200892">
        <ele>130.2</ele>
        <time>2014-05-03T11:06:14Z</time>
      </trkpt>
      <trkpt lat="39.611512512489" lon="2.886209280589">
        <ele>130.8</ele>
        <time>2014-05-03T11:06:15Z</time>
      </trkpt>
      <trkpt lat="39.611465322392" lon="2.886138621172">
        <ele>131.2</ele>
        <time>2014-05-03T11:06:16Z</time>
      </trkpt>
      <trkpt lat="39.611412264965" lon="2.886088413591">
        <ele>131.8</ele>
        <time>2014-05-03T11:06:17Z</time>
      </trkpt>
      <trkpt lat="39.611350741819" lon="2.886066620651">
        <ele>132.2</ele>
        <time>2014-05-03T11:06:18Z</time>
      </trkpt>
      <trkpt lat="39.611290727415" lon="2.886069302859">
        <ele>132.6</ele>
        <time>2014-05-03T11:06:19Z</time>
      </trkpt>
      <trkpt lat="39.611227946984" lon="2.886098388052">
        <ele>133.2</ele>
        <time>2014-05-03T11:06:20Z</time>
      </trkpt>
      <trkpt lat="39.61117128534" lon="2.88614214157">
        <ele>133.6</ele>
        <time>2014-05-03T11:06:21Z</time>
      </trkpt>
      <trkpt lat="39.611124933433" lon="2.886194276988">
        <ele>134</ele>
        <time>2014-05-03T11:06:22Z</time>
      </trkpt>
      <trkpt lat="39.611083945942" lon="2.886249346071">
        <ele>134.6</ele>
        <time>2014-05-03T11:06:23Z</time>
      </trkpt>
      <trkpt lat="39.6110405277" lon="2.886300978575">
        <ele>135</ele>
        <time>2014-05-03T11:06:24Z</time>
      </trkpt>
      <trkpt lat="39.610994008155" lon="2.886351856708">
        <ele>135</ele>
        <time>2014-05-03T11:06:25Z</time>
      </trkpt>
      <trkpt lat="39.610774234737" lon="2.886622592078">
        <ele>135</ele>
        <time>2014-05-03T11:06:30Z</time>
      </trkpt>
      <trkpt lat="39.610729391572" lon="2.886675314229">
        <ele>135.4</ele>
        <time>2014-05-03T11:06:31Z</time>
      </trkpt>
      <trkpt lat="39.610685386597" lon="2.886725102715">
        <ele>135.8</ele>
        <time>2014-05-03T11:06:32Z</time>
      </trkpt>
      <trkpt lat="39.610637777405" lon="2.886779082151">
        <ele>136.2</ele>
        <time>2014-05-03T11:06:33Z</time>
      </trkpt>
      <trkpt lat="39.610584636159" lon="2.886835576157">
        <ele>136.6</ele>
        <time>2014-05-03T11:06:34Z</time>
      </trkpt>
      <trkpt lat="39.610538368071" lon="2.886886873385">
        <ele>137</ele>
        <time>2014-05-03T11:06:35Z</time>
      </trkpt>
      <trkpt lat="39.610492519078" lon="2.88694764216">
        <ele>137</ele>
        <time>2014-05-03T11:06:36Z</time>
      </trkpt>
      <trkpt lat="39.610163110408" lon="2.887336813777">
        <ele>137</ele>
        <time>2014-05-03T11:06:43Z</time>
      </trkpt>
      <trkpt lat="39.609762036493" lon="2.887785161608">
        <ele>137</ele>
        <time>2014-05-03T11:06:51Z</time>
      </trkpt>
      <trkpt lat="39.609506807638" lon="2.888073079873">
        <ele>137</ele>
        <time>2014-05-03T11:06:56Z</time>
      </trkpt>
      <trkpt lat="39.60945886317" lon="2.888126891671">
        <ele>137</ele>
        <time>2014-05-03T11:06:57Z</time>
      </trkpt>
      <trkpt lat="39.609311174092" lon="2.888288327065">
        <ele>137</ele>
        <time>2014-05-03T11:07:00Z</time>
      </trkpt>
      <trkpt lat="39.60921494988" lon="2.888404500199">
        <ele>137</ele>
        <time>2014-05-03T11:07:02Z</time>
      </trkpt>
      <trkpt lat="39.60912526355" lon="2.88851924841">
        <ele>137</ele>
        <time>2014-05-03T11:07:04Z</time>
      </trkpt>
      <trkpt lat="39.609077402901" lon="2.88856534886">
        <ele>137</ele>
        <time>2014-05-03T11:07:05Z</time>
      </trkpt>
      <trkpt lat="39.608970952771" lon="2.888518996953">
        <ele>137</ele>
        <time>2014-05-03T11:07:07Z</time>
      </trkpt>
      <trkpt lat="39.608846062461" lon="2.888327889633">
        <ele>137</ele>
        <time>2014-05-03T11:07:10Z</time>
      </trkpt>
      <trkpt lat="39.608627294871" lon="2.887920277836">
        <ele>137</ele>
        <time>2014-05-03T11:07:16Z</time>
      </trkpt>
      <trkpt lat="39.608591923253" lon="2.887854228464">
        <ele>137</ele>
        <time>2014-05-03T11:07:17Z</time>
      </trkpt>
      <trkpt lat="39.608491256634" lon="2.887663121144">
        <ele>137.4</ele>
        <time>2014-05-03T11:07:20Z</time>
      </trkpt>
      <trkpt lat="39.608460243604" lon="2.887603693473">
        <ele>137.8</ele>
        <time>2014-05-03T11:07:21Z</time>
      </trkpt>
      <trkpt lat="39.608427638013" lon="2.887545355449">
        <ele>138.2</ele>
        <time>2014-05-03T11:07:22Z</time>
      </trkpt>
      <trkpt lat="39.608396960259" lon="2.887488023253">
        <ele>138.6</ele>
        <time>2014-05-03T11:07:23Z</time>
      </trkpt>
      <trkpt lat="39.608366617781" lon="2.887424656089">
        <ele>139</ele>
        <time>2014-05-03T11:07:24Z</time>
      </trkpt>
      <trkpt lat="39.608267543723" lon="2.887260957582">
        <ele>139</ele>
        <time>2014-05-03T11:07:27Z</time>
      </trkpt>
      <trkpt lat="39.608227142965" lon="2.887214521856">
        <ele>139.4</ele>
        <time>2014-05-03T11:07:28Z</time>
      </trkpt>
      <trkpt lat="39.60817643247" lon="2.887176719487">
        <ele>140</ele>
        <time>2014-05-03T11:07:29Z</time>
      </trkpt>
      <trkpt lat="39.608127063079" lon="2.887152663434">
        <ele>140.4</ele>
        <time>2014-05-03T11:07:30Z</time>
      </trkpt>
      <trkpt lat="39.608082136095" lon="2.887133049788">
        <ele>140.8</ele>
        <time>2014-05-03T11:07:31Z</time>
      </trkpt>
      <trkpt lat="39.608030503591" lon="2.887106311527">
        <ele>141.2</ele>
        <time>2014-05-03T11:07:32Z</time>
      </trkpt>
      <trkpt lat="39.607974763956" lon="2.887084350949">
        <ele>141.2</ele>
        <time>2014-05-03T11:07:33Z</time>
      </trkpt>
      <trkpt lat="39.607745267534" lon="2.887013188618">
        <ele>141.2</ele>
        <time>2014-05-03T11:07:37Z</time>
      </trkpt>
      <trkpt lat="39.607690617546" lon="2.886992652963">
        <ele>141.6</ele>
        <time>2014-05-03T11:07:38Z</time>
      </trkpt>
      <trkpt lat="39.607635045549" lon="2.886979661018">
        <ele>142</ele>
        <time>2014-05-03T11:07:39Z</time>
      </trkpt>
      <trkpt lat="39.607574444412" lon="2.886972704041">
        <ele>142.4</ele>
        <time>2014-05-03T11:07:40Z</time>
      </trkpt>
      <trkpt lat="39.607513927094" lon="2.886969016005">
        <ele>142.8</ele>
        <time>2014-05-03T11:07:41Z</time>
      </trkpt>
      <trkpt lat="39.607452403948" lon="2.88697194967">
        <ele>143.2</ele>
        <time>2014-05-03T11:07:42Z</time>
      </trkpt>
      <trkpt lat="39.607328938561" lon="2.886985444529">
        <ele>143.2</ele>
        <time>2014-05-03T11:07:44Z</time>
      </trkpt>
      <trkpt lat="39.607150320272" lon="2.886993910248">
        <ele>143.6</ele>
        <time>2014-05-03T11:07:47Z</time>
      </trkpt>
      <trkpt lat="39.607085276728" lon="2.88699877175">
        <ele>144</ele>
        <time>2014-05-03T11:07:48Z</time>
      </trkpt>
      <trkpt lat="39.607027525437" lon="2.887006399279">
        <ele>144.4</ele>
        <time>2014-05-03T11:07:49Z</time>
      </trkpt>
      <trkpt lat="39.606971199069" lon="2.887013942989">
        <ele>145</ele>
        <time>2014-05-03T11:07:50Z</time>
      </trkpt>
      <trkpt lat="39.606915878529" lon="2.887018804491">
        <ele>145.4</ele>
        <time>2014-05-03T11:07:51Z</time>
      </trkpt>
      <trkpt lat="39.606626870617" lon="2.887051074806">
        <ele>145.4</ele>
        <time>2014-05-03T11:07:56Z</time>
      </trkpt>
      <trkpt lat="39.606316740317" lon="2.88708342894">
        <ele>145.4</ele>
        <time>2014-05-03T11:08:02Z</time>
      </trkpt>
      <trkpt lat="39.606216073698" lon="2.887087703709">
        <ele>145.8</ele>
        <time>2014-05-03T11:08:04Z</time>
      </trkpt>
      <trkpt lat="39.606164441194" lon="2.88708594351">
        <ele>146.4</ele>
        <time>2014-05-03T11:08:05Z</time>
      </trkpt>
      <trkpt lat="39.606113982156" lon="2.887081584922">
        <ele>147.4</ele>
        <time>2014-05-03T11:08:06Z</time>
      </trkpt>
      <trkpt lat="39.606066456783" lon="2.887070772271">
        <ele>147.8</ele>
        <time>2014-05-03T11:08:07Z</time>
      </trkpt>
      <trkpt lat="39.606017338849" lon="2.887066497502">
        <ele>147.8</ele>
        <time>2014-05-03T11:08:08Z</time>
      </trkpt>
      <trkpt lat="39.605966209259" lon="2.887065994588">
        <ele>147.8</ele>
        <time>2014-05-03T11:08:09Z</time>
      </trkpt>
      <trkpt lat="39.605857328378" lon="2.887041267983">
        <ele>147.8</ele>
        <time>2014-05-03T11:08:11Z</time>
      </trkpt>
      <trkpt lat="39.605677117528" lon="2.887001873053">
        <ele>147.8</ele>
        <time>2014-05-03T11:08:14Z</time>
      </trkpt>
      <trkpt lat="39.605242516013" lon="2.886923837564">
        <ele>147.4</ele>
        <time>2014-05-03T11:08:20Z</time>
      </trkpt>
      <trkpt lat="39.60516984494" lon="2.886908498687">
        <ele>146.8</ele>
        <time>2014-05-03T11:08:21Z</time>
      </trkpt>
      <trkpt lat="39.605100023713" lon="2.886894081819">
        <ele>146.4</ele>
        <time>2014-05-03T11:08:22Z</time>
      </trkpt>
      <trkpt lat="39.605029280477" lon="2.886879329675">
        <ele>146</ele>
        <time>2014-05-03T11:08:23Z</time>
      </trkpt>
      <trkpt lat="39.604962057639" lon="2.886861643866">
        <ele>145.4</ele>
        <time>2014-05-03T11:08:24Z</time>
      </trkpt>
      <trkpt lat="39.604820654986" lon="2.886832139578">
        <ele>145.4</ele>
        <time>2014-05-03T11:08:26Z</time>
      </trkpt>
      <trkpt lat="39.604749995569" lon="2.88681604633">
        <ele>145.4</ele>
        <time>2014-05-03T11:08:27Z</time>
      </trkpt>
      <trkpt lat="39.604603982871" lon="2.886785620033">
        <ele>145.4</ele>
        <time>2014-05-03T11:08:29Z</time>
      </trkpt>
      <trkpt lat="39.60439032824" lon="2.886740693049">
        <ele>145</ele>
        <time>2014-05-03T11:08:32Z</time>
      </trkpt>
      <trkpt lat="39.604318914452" lon="2.886726108543">
        <ele>144.6</ele>
        <time>2014-05-03T11:08:33Z</time>
      </trkpt>
      <trkpt lat="39.604248422673" lon="2.886713368055">
        <ele>144.2</ele>
        <time>2014-05-03T11:08:34Z</time>
      </trkpt>
      <trkpt lat="39.604177260342" lon="2.886698280635">
        <ele>143.8</ele>
        <time>2014-05-03T11:08:35Z</time>
      </trkpt>
      <trkpt lat="39.604104756907" lon="2.886688054717">
        <ele>143.4</ele>
        <time>2014-05-03T11:08:36Z</time>
      </trkpt>
      <trkpt lat="39.604032672567" lon="2.886690150192">
        <ele>143.4</ele>
        <time>2014-05-03T11:08:37Z</time>
      </trkpt>
      <trkpt lat="39.603960923503" lon="2.886705740526">
        <ele>143.4</ele>
        <time>2014-05-03T11:08:38Z</time>
      </trkpt>
      <trkpt lat="39.603893197751" lon="2.886728790751">
        <ele>143.4</ele>
        <time>2014-05-03T11:08:39Z</time>
      </trkpt>
      <trkpt lat="39.603824885266" lon="2.886755529012">
        <ele>143.4</ele>
        <time>2014-05-03T11:08:40Z</time>
      </trkpt>
      <trkpt lat="39.603759338808" lon="2.886777824866">
        <ele>143.4</ele>
        <time>2014-05-03T11:08:41Z</time>
      </trkpt>
      <trkpt lat="39.603690942504" lon="2.886797689969">
        <ele>143.4</ele>
        <time>2014-05-03T11:08:42Z</time>
      </trkpt>
      <trkpt lat="39.603620786001" lon="2.886803641118">
        <ele>143.4</ele>
        <time>2014-05-03T11:08:43Z</time>
      </trkpt>
      <trkpt lat="39.603551216231" lon="2.886796097408">
        <ele>143.4</ele>
        <time>2014-05-03T11:08:44Z</time>
      </trkpt>
      <trkpt lat="39.603279558852" lon="2.886741363601">
        <ele>143.4</ele>
        <time>2014-05-03T11:08:48Z</time>
      </trkpt>
      <trkpt lat="39.603146286642" lon="2.886713451874">
        <ele>143.4</ele>
        <time>2014-05-03T11:08:50Z</time>
      </trkpt>
      <trkpt lat="39.60295283239" lon="2.886674978953">
        <ele>143.4</ele>
        <time>2014-05-03T11:08:53Z</time>
      </trkpt>
      <trkpt lat="39.60282542751" lon="2.886656203497">
        <ele>143.4</ele>
        <time>2014-05-03T11:08:55Z</time>
      </trkpt>
      <trkpt lat="39.602765161649" lon="2.886648324511">
        <ele>143.4</ele>
        <time>2014-05-03T11:08:56Z</time>
      </trkpt>
      <trkpt lat="39.602702129761" lon="2.886635584023">
        <ele>143.4</ele>
        <time>2014-05-03T11:08:57Z</time>
      </trkpt>
      <trkpt lat="39.602644797565" lon="2.886623514087">
        <ele>143.4</ele>
        <time>2014-05-03T11:08:58Z</time>
      </trkpt>
      <trkpt lat="39.602528372974" lon="2.886586801365">
        <ele>143.8</ele>
        <time>2014-05-03T11:09:00Z</time>
      </trkpt>
      <trkpt lat="39.602466430733" lon="2.88657800037">
        <ele>144.4</ele>
        <time>2014-05-03T11:09:01Z</time>
      </trkpt>
      <trkpt lat="39.602399459352" lon="2.886565259882">
        <ele>144.8</ele>
        <time>2014-05-03T11:09:02Z</time>
      </trkpt>
      <trkpt lat="39.602332152695" lon="2.886554195774">
        <ele>145.4</ele>
        <time>2014-05-03T11:09:03Z</time>
      </trkpt>
      <trkpt lat="39.602263253477" lon="2.886538186345">
        <ele>145.8</ele>
        <time>2014-05-03T11:09:04Z</time>
      </trkpt>
      <trkpt lat="39.602055214719" lon="2.886498707596">
        <ele>145.8</ele>
        <time>2014-05-03T11:09:07Z</time>
      </trkpt>
      <trkpt lat="39.601989249166" lon="2.886482111434">
        <ele>145.8</ele>
        <time>2014-05-03T11:09:08Z</time>
      </trkpt>
      <trkpt lat="39.601795208181" lon="2.886439196106">
        <ele>145.8</ele>
        <time>2014-05-03T11:09:11Z</time>
      </trkpt>
      <trkpt lat="39.601297071864" lon="2.886343726265">
        <ele>145.8</ele>
        <time>2014-05-03T11:09:18Z</time>
      </trkpt>
      <trkpt lat="39.601082243767" lon="2.886295446521">
        <ele>145.8</ele>
        <time>2014-05-03T11:09:21Z</time>
      </trkpt>
      <trkpt lat="39.601010997617" lon="2.886277509255">
        <ele>145.8</ele>
        <time>2014-05-03T11:09:22Z</time>
      </trkpt>
      <trkpt lat="39.600864649643" lon="2.886238701058">
        <ele>145.8</ele>
        <time>2014-05-03T11:09:24Z</time>
      </trkpt>
      <trkpt lat="39.6007140269" lon="2.88619075659">
        <ele>145.8</ele>
        <time>2014-05-03T11:09:26Z</time>
      </trkpt>
      <trkpt lat="39.600478998424" lon="2.886106015581">
        <ele>145.8</ele>
        <time>2014-05-03T11:09:29Z</time>
      </trkpt>
      <trkpt lat="39.600401968763" lon="2.88607424818">
        <ele>145.8</ele>
        <time>2014-05-03T11:09:30Z</time>
      </trkpt>
      <trkpt lat="39.600327872767" lon="2.88604574972">
        <ele>145.4</ele>
        <time>2014-05-03T11:09:31Z</time>
      </trkpt>
      <trkpt lat="39.600257967721" lon="2.886020352563">
        <ele>144.8</ele>
        <time>2014-05-03T11:09:32Z</time>
      </trkpt>
      <trkpt lat="39.600183955544" lon="2.885992524655">
        <ele>144.4</ele>
        <time>2014-05-03T11:09:33Z</time>
      </trkpt>
      <trkpt lat="39.600103908399" lon="2.885961176349">
        <ele>143.8</ele>
        <time>2014-05-03T11:09:34Z</time>
      </trkpt>
      <trkpt lat="39.600025956729" lon="2.885929325129">
        <ele>143.4</ele>
        <time>2014-05-03T11:09:35Z</time>
      </trkpt>
      <trkpt lat="39.599780786154" lon="2.885835950763">
        <ele>143.4</ele>
        <time>2014-05-03T11:09:38Z</time>
      </trkpt>
      <trkpt lat="39.599699733181" lon="2.885803177534">
        <ele>143.4</ele>
        <time>2014-05-03T11:09:39Z</time>
      </trkpt>
      <trkpt lat="39.599230765876" lon="2.885567729963">
        <ele>143.4</ele>
        <time>2014-05-03T11:09:45Z</time>
      </trkpt>
      <trkpt lat="39.598879145171" lon="2.885346447803">
        <ele>143.4</ele>
        <time>2014-05-03T11:09:50Z</time>
      </trkpt>
      <trkpt lat="39.598805552089" lon="2.885297413688">
        <ele>143.4</ele>
        <time>2014-05-03T11:09:51Z</time>
      </trkpt>
      <trkpt lat="39.598468348252" lon="2.88505752371">
        <ele>143.4</ele>
        <time>2014-05-03T11:09:56Z</time>
      </trkpt>
      <trkpt lat="39.598404059079" lon="2.885010836527">
        <ele>143.4</ele>
        <time>2014-05-03T11:09:57Z</time>
      </trkpt>
      <trkpt lat="39.59834111101" lon="2.884965071353">
        <ele>143.4</ele>
        <time>2014-05-03T11:09:58Z</time>
      </trkpt>
      <trkpt lat="39.598210437189" lon="2.884880497982">
        <ele>143.4</ele>
        <time>2014-05-03T11:10:00Z</time>
      </trkpt>
      <trkpt lat="39.598144220179" lon="2.884840516319">
        <ele>143.4</ele>
        <time>2014-05-03T11:10:01Z</time>
      </trkpt>
      <trkpt lat="39.597959818379" lon="2.884737921863">
        <ele>143.4</ele>
        <time>2014-05-03T11:10:04Z</time>
      </trkpt>
      <trkpt lat="39.597846075996" lon="2.884696682915">
        <ele>143.4</ele>
        <time>2014-05-03T11:10:06Z</time>
      </trkpt>
      <trkpt lat="39.597730321957" lon="2.884709758679">
        <ele>143.4</ele>
        <time>2014-05-03T11:10:08Z</time>
      </trkpt>
      <trkpt lat="39.597676761616" lon="2.884743621555">
        <ele>143.4</ele>
        <time>2014-05-03T11:10:09Z</time>
      </trkpt>
      <trkpt lat="39.597626470216" lon="2.884777903526">
        <ele>143.8</ele>
        <time>2014-05-03T11:10:10Z</time>
      </trkpt>
      <trkpt lat="39.597572658418" lon="2.884807994547">
        <ele>144.2</ele>
        <time>2014-05-03T11:10:11Z</time>
      </trkpt>
      <trkpt lat="39.597520690638" lon="2.88484378526">
        <ele>144.6</ele>
        <time>2014-05-03T11:10:12Z</time>
      </trkpt>
      <trkpt lat="39.597468136125" lon="2.884886113855">
        <ele>145</ele>
        <time>2014-05-03T11:10:13Z</time>
      </trkpt>
      <trkpt lat="39.597417257992" lon="2.884930537925">
        <ele>145.4</ele>
        <time>2014-05-03T11:10:14Z</time>
      </trkpt>
      <trkpt lat="39.597360596348" lon="2.884977308927">
        <ele>145.4</ele>
        <time>2014-05-03T11:10:15Z</time>
      </trkpt>
      <trkpt lat="39.597306700731" lon="2.88502231973">
        <ele>145.4</ele>
        <time>2014-05-03T11:10:16Z</time>
      </trkpt>
      <trkpt lat="39.597049963134" lon="2.885223652968">
        <ele>145.4</ele>
        <time>2014-05-03T11:10:21Z</time>
      </trkpt>
      <trkpt lat="39.596768918027" lon="2.885434793029">
        <ele>145.4</ele>
        <time>2014-05-03T11:10:26Z</time>
      </trkpt>
      <trkpt lat="39.596664228096" lon="2.885487682818">
        <ele>145.4</ele>
        <time>2014-05-03T11:10:28Z</time>
      </trkpt>
      <trkpt lat="39.596604884244" lon="2.885501261496">
        <ele>146</ele>
        <time>2014-05-03T11:10:29Z</time>
      </trkpt>
      <trkpt lat="39.596537996682" lon="2.88550930812">
        <ele>146.4</ele>
        <time>2014-05-03T11:10:30Z</time>
      </trkpt>
      <trkpt lat="39.596479826296" lon="2.885513666708">
        <ele>146.8</ele>
        <time>2014-05-03T11:10:31Z</time>
      </trkpt>
      <trkpt lat="39.596421152996" lon="2.885516516554">
        <ele>147.2</ele>
        <time>2014-05-03T11:10:32Z</time>
      </trkpt>
      <trkpt lat="39.596364156076" lon="2.885516768011">
        <ele>147.6</ele>
        <time>2014-05-03T11:10:33Z</time>
      </trkpt>
      <trkpt lat="39.596305566595" lon="2.885522970617">
        <ele>147.6</ele>
        <time>2014-05-03T11:10:34Z</time>
      </trkpt>
      <trkpt lat="39.596246725657" lon="2.885532358345">
        <ele>147.6</ele>
        <time>2014-05-03T11:10:35Z</time>
      </trkpt>
      <trkpt lat="39.596186375977" lon="2.885541494616">
        <ele>147.6</ele>
        <time>2014-05-03T11:10:36Z</time>
      </trkpt>
      <trkpt lat="39.596005997489" lon="2.885560186253">
        <ele>147.6</ele>
        <time>2014-05-03T11:10:39Z</time>
      </trkpt>
      <trkpt lat="39.595946569818" lon="2.88556881961">
        <ele>147.6</ele>
        <time>2014-05-03T11:10:40Z</time>
      </trkpt>
      <trkpt lat="39.595829977589" lon="2.885593546215">
        <ele>147.6</ele>
        <time>2014-05-03T11:10:42Z</time>
      </trkpt>
      <trkpt lat="39.595772561574" lon="2.885599665002">
        <ele>147.6</ele>
        <time>2014-05-03T11:10:43Z</time>
      </trkpt>
      <trkpt lat="39.595493947218" lon="2.885633024964">
        <ele>147.6</ele>
        <time>2014-05-03T11:10:48Z</time>
      </trkpt>
      <trkpt lat="39.595386323622" lon="2.885659427949">
        <ele>148.2</ele>
        <time>2014-05-03T11:10:50Z</time>
      </trkpt>
      <trkpt lat="39.595334272023" lon="2.885681807622">
        <ele>148.6</ele>
        <time>2014-05-03T11:10:51Z</time>
      </trkpt>
      <trkpt lat="39.595283142433" lon="2.885713742661">
        <ele>149.2</ele>
        <time>2014-05-03T11:10:52Z</time>
      </trkpt>
      <trkpt lat="39.595237041983" lon="2.885750287745">
        <ele>149.6</ele>
        <time>2014-05-03T11:10:53Z</time>
      </trkpt>
      <trkpt lat="39.595197730872" lon="2.885789682675">
        <ele>150.2</ele>
        <time>2014-05-03T11:10:54Z</time>
      </trkpt>
      <trkpt lat="39.595158587399" lon="2.885826730673">
        <ele>150.2</ele>
        <time>2014-05-03T11:10:55Z</time>
      </trkpt>
      <trkpt lat="39.595115085338" lon="2.885864197766">
        <ele>150.2</ele>
        <time>2014-05-03T11:10:56Z</time>
      </trkpt>
      <trkpt lat="39.595033361813" lon="2.885943239083">
        <ele>150.6</ele>
        <time>2014-05-03T11:10:58Z</time>
      </trkpt>
      <trkpt lat="39.594994553616" lon="2.885986322049">
        <ele>151.4</ele>
        <time>2014-05-03T11:10:59Z</time>
      </trkpt>
      <trkpt lat="39.594953063211" lon="2.886027141902">
        <ele>151.8</ele>
        <time>2014-05-03T11:11:00Z</time>
      </trkpt>
      <trkpt lat="39.59491207572" lon="2.886066872108">
        <ele>152.2</ele>
        <time>2014-05-03T11:11:01Z</time>
      </trkpt>
      <trkpt lat="39.594835716611" lon="2.88614717071">
        <ele>152.2</ele>
        <time>2014-05-03T11:11:03Z</time>
      </trkpt>
      <trkpt lat="39.594795399672" lon="2.886178435197">
        <ele>152.2</ele>
        <time>2014-05-03T11:11:04Z</time>
      </trkpt>
      <trkpt lat="39.594610746415" lon="2.886327633017">
        <ele>152.6</ele>
        <time>2014-05-03T11:11:09Z</time>
      </trkpt>
      <trkpt lat="39.594571938218" lon="2.886349677414">
        <ele>153</ele>
        <time>2014-05-03T11:11:10Z</time>
      </trkpt>
      <trkpt lat="39.594532543288" lon="2.886375242209">
        <ele>153.6</ele>
        <time>2014-05-03T11:11:11Z</time>
      </trkpt>
      <trkpt lat="39.594493315996" lon="2.886398376253">
        <ele>154</ele>
        <time>2014-05-03T11:11:12Z</time>
      </trkpt>
      <trkpt lat="39.594454591618" lon="2.886417151709">
        <ele>154.4</ele>
        <time>2014-05-03T11:11:13Z</time>
      </trkpt>
      <trkpt lat="39.594377981052" lon="2.886464509444">
        <ele>154.4</ele>
        <time>2014-05-03T11:11:15Z</time>
      </trkpt>
      <trkpt lat="39.594227106852" lon="2.886527625151">
        <ele>154.8</ele>
        <time>2014-05-03T11:11:19Z</time>
      </trkpt>
      <trkpt lat="39.594184610619" lon="2.886530977911">
        <ele>155.2</ele>
        <time>2014-05-03T11:11:20Z</time>
      </trkpt>
      <trkpt lat="39.594142365843" lon="2.886530558816">
        <ele>155.6</ele>
        <time>2014-05-03T11:11:21Z</time>
      </trkpt>
      <trkpt lat="39.594096852126" lon="2.88652770897">
        <ele>156</ele>
        <time>2014-05-03T11:11:22Z</time>
      </trkpt>
      <trkpt lat="39.594052344237" lon="2.886526786961">
        <ele>156.4</ele>
        <time>2014-05-03T11:11:23Z</time>
      </trkpt>
      <trkpt lat="39.594004232131" lon="2.886524859124">
        <ele>156.8</ele>
        <time>2014-05-03T11:11:24Z</time>
      </trkpt>
      <trkpt lat="39.593957880224" lon="2.886523434201">
        <ele>157.2</ele>
        <time>2014-05-03T11:11:25Z</time>
      </trkpt>
      <trkpt lat="39.59391546781" lon="2.886524272391">
        <ele>157.6</ele>
        <time>2014-05-03T11:11:26Z</time>
      </trkpt>
      <trkpt lat="39.593873306853" lon="2.886526954599">
        <ele>158</ele>
        <time>2014-05-03T11:11:27Z</time>
      </trkpt>
      <trkpt lat="39.59382997243" lon="2.886536342327">
        <ele>158.4</ele>
        <time>2014-05-03T11:11:28Z</time>
      </trkpt>
      <trkpt lat="39.593786470369" lon="2.886536593784">
        <ele>158.4</ele>
        <time>2014-05-03T11:11:29Z</time>
      </trkpt>
      <trkpt lat="39.593558985603" lon="2.886531480825">
        <ele>159</ele>
        <time>2014-05-03T11:11:34Z</time>
      </trkpt>
      <trkpt lat="39.593512549877" lon="2.886536593784">
        <ele>159.4</ele>
        <time>2014-05-03T11:11:35Z</time>
      </trkpt>
      <trkpt lat="39.593470221282" lon="2.886546652064">
        <ele>159.8</ele>
        <time>2014-05-03T11:11:36Z</time>
      </trkpt>
      <trkpt lat="39.593429066153" lon="2.886567858271">
        <ele>160.2</ele>
        <time>2014-05-03T11:11:37Z</time>
      </trkpt>
      <trkpt lat="39.593387324291" lon="2.886586885184">
        <ele>160.6</ele>
        <time>2014-05-03T11:11:38Z</time>
      </trkpt>
      <trkpt lat="39.593304175843" lon="2.886639523516">
        <ele>160.6</ele>
        <time>2014-05-03T11:11:40Z</time>
      </trkpt>
      <trkpt lat="39.593265116189" lon="2.886668357252">
        <ele>160.6</ele>
        <time>2014-05-03T11:11:41Z</time>
      </trkpt>
      <trkpt lat="39.593149194512" lon="2.886747398569">
        <ele>161</ele>
        <time>2014-05-03T11:11:44Z</time>
      </trkpt>
      <trkpt lat="39.593120528414" lon="2.886782351092">
        <ele>161.4</ele>
        <time>2014-05-03T11:11:45Z</time>
      </trkpt>
      <trkpt lat="39.593091694678" lon="2.886814789045">
        <ele>161.8</ele>
        <time>2014-05-03T11:11:46Z</time>
      </trkpt>
      <trkpt lat="39.593068728272" lon="2.886847562274">
        <ele>162.4</ele>
        <time>2014-05-03T11:11:47Z</time>
      </trkpt>
      <trkpt lat="39.593042241468" lon="2.88687052868">
        <ele>162.8</ele>
        <time>2014-05-03T11:11:48Z</time>
      </trkpt>
      <trkpt lat="39.592945765799" lon="2.88697530243">
        <ele>162.8</ele>
        <time>2014-05-03T11:11:52Z</time>
      </trkpt>
      <trkpt lat="39.592889942345" lon="2.887032466988">
        <ele>162.8</ele>
        <time>2014-05-03T11:11:54Z</time>
      </trkpt>
      <trkpt lat="39.59268919584" lon="2.887192728916">
        <ele>162.8</ele>
        <time>2014-05-03T11:12:00Z</time>
      </trkpt>
      <trkpt lat="39.592599006596" lon="2.887224412498">
        <ele>162.8</ele>
        <time>2014-05-03T11:12:02Z</time>
      </trkpt>
      <trkpt lat="39.592505883687" lon="2.887194740572">
        <ele>162.8</ele>
        <time>2014-05-03T11:12:04Z</time>
      </trkpt>
      <trkpt lat="39.592422986696" lon="2.887141850783">
        <ele>162.8</ele>
        <time>2014-05-03T11:12:06Z</time>
      </trkpt>
      <trkpt lat="39.592340844076" lon="2.887084853863">
        <ele>162.8</ele>
        <time>2014-05-03T11:12:08Z</time>
      </trkpt>
      <trkpt lat="39.592298347843" lon="2.887056690679">
        <ele>162.8</ele>
        <time>2014-05-03T11:12:09Z</time>
      </trkpt>
      <trkpt lat="39.592215702309" lon="2.887024252726">
        <ele>162.8</ele>
        <time>2014-05-03T11:12:11Z</time>
      </trkpt>
      <trkpt lat="39.592172451705" lon="2.887028443676">
        <ele>162.8</ele>
        <time>2014-05-03T11:12:12Z</time>
      </trkpt>
      <trkpt lat="39.592128782006" lon="2.887047135313">
        <ele>162.8</ele>
        <time>2014-05-03T11:12:13Z</time>
      </trkpt>
      <trkpt lat="39.59204965687" lon="2.887116788902">
        <ele>162.8</ele>
        <time>2014-05-03T11:12:15Z</time>
      </trkpt>
      <trkpt lat="39.592013447062" lon="2.887155932375">
        <ele>162.8</ele>
        <time>2014-05-03T11:12:16Z</time>
      </trkpt>
      <trkpt lat="39.591974471227" lon="2.88719742278">
        <ele>162.8</ele>
        <time>2014-05-03T11:12:17Z</time>
      </trkpt>
      <trkpt lat="39.591825776321" lon="2.887367659169">
        <ele>162.8</ele>
        <time>2014-05-03T11:12:21Z</time>
      </trkpt>
      <trkpt lat="39.591705076961" lon="2.887501434293">
        <ele>162.8</ele>
        <time>2014-05-03T11:12:24Z</time>
      </trkpt>
      <trkpt lat="39.591617569925" lon="2.88760562131">
        <ele>162.2</ele>
        <time>2014-05-03T11:12:26Z</time>
      </trkpt>
      <trkpt lat="39.591575325149" lon="2.887654403968">
        <ele>161.8</ele>
        <time>2014-05-03T11:12:27Z</time>
      </trkpt>
      <trkpt lat="39.591531823088" lon="2.887704276273">
        <ele>161.4</ele>
        <time>2014-05-03T11:12:28Z</time>
      </trkpt>
      <trkpt lat="39.591486057914" lon="2.887754400035">
        <ele>161</ele>
        <time>2014-05-03T11:12:29Z</time>
      </trkpt>
      <trkpt lat="39.591437861989" lon="2.887803517969">
        <ele>160.6</ele>
        <time>2014-05-03T11:12:30Z</time>
      </trkpt>
      <trkpt lat="39.591389330788" lon="2.887855066654">
        <ele>160.6</ele>
        <time>2014-05-03T11:12:31Z</time>
      </trkpt>
      <trkpt lat="39.591290843463" lon="2.887970904512">
        <ele>160.2</ele>
        <time>2014-05-03T11:12:33Z</time>
      </trkpt>
      <trkpt lat="39.591241809348" lon="2.888026560328">
        <ele>159.6</ele>
        <time>2014-05-03T11:12:34Z</time>
      </trkpt>
      <trkpt lat="39.591193110509" lon="2.888079869212">
        <ele>159.2</ele>
        <time>2014-05-03T11:12:35Z</time>
      </trkpt>
      <trkpt lat="39.591142986747" lon="2.888136447037">
        <ele>158.8</ele>
        <time>2014-05-03T11:12:36Z</time>
      </trkpt>
      <trkpt lat="39.5910916057" lon="2.888190342654">
        <ele>158.2</ele>
        <time>2014-05-03T11:12:37Z</time>
      </trkpt>
      <trkpt lat="39.591041481938" lon="2.888244154452">
        <ele>157.8</ele>
        <time>2014-05-03T11:12:38Z</time>
      </trkpt>
      <trkpt lat="39.590992196366" lon="2.888299810268">
        <ele>157.4</ele>
        <time>2014-05-03T11:12:39Z</time>
      </trkpt>
      <trkpt lat="39.590941318233" lon="2.888352029505">
        <ele>157</ele>
        <time>2014-05-03T11:12:40Z</time>
      </trkpt>
      <trkpt lat="39.590890775376" lon="2.88841028371">
        <ele>156.6</ele>
        <time>2014-05-03T11:12:41Z</time>
      </trkpt>
      <trkpt lat="39.590841573623" lon="2.888462922042">
        <ele>156.2</ele>
        <time>2014-05-03T11:12:42Z</time>
      </trkpt>
      <trkpt lat="39.590647951733" lon="2.888669954972">
        <ele>156.2</ele>
        <time>2014-05-03T11:12:46Z</time>
      </trkpt>
      <trkpt lat="39.590404206081" lon="2.888942701998">
        <ele>156.2</ele>
        <time>2014-05-03T11:12:51Z</time>
      </trkpt>
      <trkpt lat="39.590316615226" lon="2.889046050825">
        <ele>156.2</ele>
        <time>2014-05-03T11:12:53Z</time>
      </trkpt>
      <trkpt lat="39.590053758842" lon="2.889332627986">
        <ele>156.2</ele>
        <time>2014-05-03T11:12:59Z</time>
      </trkpt>
      <trkpt lat="39.589770366803" lon="2.889651140186">
        <ele>156.2</ele>
        <time>2014-05-03T11:13:06Z</time>
      </trkpt>
      <trkpt lat="39.589724853086" lon="2.889694558428">
        <ele>156.2</ele>
        <time>2014-05-03T11:13:07Z</time>
      </trkpt>
      <trkpt lat="39.589641537" lon="2.889793800124">
        <ele>156.2</ele>
        <time>2014-05-03T11:13:09Z</time>
      </trkpt>
      <trkpt lat="39.589564674977" lon="2.889884073187">
        <ele>156.2</ele>
        <time>2014-05-03T11:13:11Z</time>
      </trkpt>
      <trkpt lat="39.589445651997" lon="2.890009634049">
        <ele>156.2</ele>
        <time>2014-05-03T11:13:14Z</time>
      </trkpt>
      <trkpt lat="39.5893649343" lon="2.890103846605">
        <ele>156.2</ele>
        <time>2014-05-03T11:13:16Z</time>
      </trkpt>
      <trkpt lat="39.589325455551" lon="2.890149611779">
        <ele>156.2</ele>
        <time>2014-05-03T11:13:17Z</time>
      </trkpt>
      <trkpt lat="39.589204504734" lon="2.89028615293">
        <ele>156.2</ele>
        <time>2014-05-03T11:13:20Z</time>
      </trkpt>
      <trkpt lat="39.589084727383" lon="2.89042613066">
        <ele>156.2</ele>
        <time>2014-05-03T11:13:23Z</time>
      </trkpt>
      <trkpt lat="39.589044829539" lon="2.890469213626">
        <ele>156.2</ele>
        <time>2014-05-03T11:13:24Z</time>
      </trkpt>
      <trkpt lat="39.588875515159" lon="2.890643473327">
        <ele>156.2</ele>
        <time>2014-05-03T11:13:28Z</time>
      </trkpt>
      <trkpt lat="39.588797228213" lon="2.890732824381">
        <ele>156.2</ele>
        <time>2014-05-03T11:13:30Z</time>
      </trkpt>
      <trkpt lat="39.588512997984" lon="2.891069273847">
        <ele>156.6</ele>
        <time>2014-05-03T11:13:38Z</time>
      </trkpt>
      <trkpt lat="39.588479302746" lon="2.89110674094">
        <ele>157</ele>
        <time>2014-05-03T11:13:39Z</time>
      </trkpt>
      <trkpt lat="39.588449966096" lon="2.891145213861">
        <ele>157.4</ele>
        <time>2014-05-03T11:13:40Z</time>
      </trkpt>
      <trkpt lat="39.588420210351" lon="2.891178154728">
        <ele>158</ele>
        <time>2014-05-03T11:13:41Z</time>
      </trkpt>
      <trkpt lat="39.588392214805" lon="2.89120816193">
        <ele>158.4</ele>
        <time>2014-05-03T11:13:42Z</time>
      </trkpt>
      <trkpt lat="39.588340749939" lon="2.891256274036">
        <ele>158.4</ele>
        <time>2014-05-03T11:13:44Z</time>
      </trkpt>
      <trkpt lat="39.588220721131" lon="2.89139088735">
        <ele>158.4</ele>
        <time>2014-05-03T11:13:49Z</time>
      </trkpt>
      <trkpt lat="39.588086610731" lon="2.891522902275">
        <ele>158.4</ele>
        <time>2014-05-03T11:13:55Z</time>
      </trkpt>
      <trkpt lat="39.587976807841" lon="2.89159121476">
        <ele>158.8</ele>
        <time>2014-05-03T11:13:59Z</time>
      </trkpt>
      <trkpt lat="39.587947471191" lon="2.89161216951">
        <ele>159.2</ele>
        <time>2014-05-03T11:14:00Z</time>
      </trkpt>
      <trkpt lat="39.587923918052" lon="2.891632621346">
        <ele>159.6</ele>
        <time>2014-05-03T11:14:01Z</time>
      </trkpt>
      <trkpt lat="39.587899191447" lon="2.891651061526">
        <ele>160</ele>
        <time>2014-05-03T11:14:02Z</time>
      </trkpt>
      <trkpt lat="39.587870106254" lon="2.891669250249">
        <ele>160.4</ele>
        <time>2014-05-03T11:14:03Z</time>
      </trkpt>
      <trkpt lat="39.587746724686" lon="2.891751644326">
        <ele>160.4</ele>
        <time>2014-05-03T11:14:07Z</time>
      </trkpt>
      <trkpt lat="39.587715711656" lon="2.891773604904">
        <ele>160.4</ele>
        <time>2014-05-03T11:14:08Z</time>
      </trkpt>
      <trkpt lat="39.58758294236" lon="2.891885503269">
        <ele>161</ele>
        <time>2014-05-03T11:14:12Z</time>
      </trkpt>
      <trkpt lat="39.587549079484" lon="2.891922215991">
        <ele>161.4</ele>
        <time>2014-05-03T11:14:13Z</time>
      </trkpt>
      <trkpt lat="39.587514043142" lon="2.891953899573">
        <ele>161.8</ele>
        <time>2014-05-03T11:14:14Z</time>
      </trkpt>
      <trkpt lat="39.587477749515" lon="2.891992204856">
        <ele>162.6</ele>
        <time>2014-05-03T11:14:15Z</time>
      </trkpt>
      <trkpt lat="39.587408934116" lon="2.892067977232">
        <ele>162.6</ele>
        <time>2014-05-03T11:14:17Z</time>
      </trkpt>
      <trkpt lat="39.587380184199" lon="2.892111814569">
        <ele>162.6</ele>
        <time>2014-05-03T11:14:18Z</time>
      </trkpt>
      <trkpt lat="39.587346488961" lon="2.89214442016">
        <ele>162.6</ele>
        <time>2014-05-03T11:14:19Z</time>
      </trkpt>
      <trkpt lat="39.58715798003" lon="2.892323541363">
        <ele>162.6</ele>
        <time>2014-05-03T11:14:24Z</time>
      </trkpt>
      <trkpt lat="39.587123027507" lon="2.892366624329">
        <ele>162.6</ele>
        <time>2014-05-03T11:14:25Z</time>
      </trkpt>
      <trkpt lat="39.586969974013" lon="2.892532166854">
        <ele>162.6</ele>
        <time>2014-05-03T11:14:29Z</time>
      </trkpt>
      <trkpt lat="39.586890262144" lon="2.892615734397">
        <ele>162.6</ele>
        <time>2014-05-03T11:14:31Z</time>
      </trkpt>
      <trkpt lat="39.586790936629" lon="2.892705253089">
        <ele>162.6</ele>
        <time>2014-05-03T11:14:34Z</time>
      </trkpt>
      <trkpt lat="39.586716756814" lon="2.892779265266">
        <ele>162.6</ele>
        <time>2014-05-03T11:14:36Z</time>
      </trkpt>
      <trkpt lat="39.586614749091" lon="2.892893510563">
        <ele>162.6</ele>
        <time>2014-05-03T11:14:39Z</time>
      </trkpt>
      <trkpt lat="39.586591615047" lon="2.892926032335">
        <ele>162.6</ele>
        <time>2014-05-03T11:14:40Z</time>
      </trkpt>
      <trkpt lat="39.586462701425" lon="2.893088892652">
        <ele>163</ele>
        <time>2014-05-03T11:14:44Z</time>
      </trkpt>
      <trkpt lat="39.586435711707" lon="2.893125186279">
        <ele>163.4</ele>
        <time>2014-05-03T11:14:45Z</time>
      </trkpt>
      <trkpt lat="39.58640277084" lon="2.893164916485">
        <ele>164</ele>
        <time>2014-05-03T11:14:46Z</time>
      </trkpt>
      <trkpt lat="39.586367650679" lon="2.89320389232">
        <ele>164.4</ele>
        <time>2014-05-03T11:14:47Z</time>
      </trkpt>
      <trkpt lat="39.58633487745" lon="2.893244628354">
        <ele>164.8</ele>
        <time>2014-05-03T11:14:48Z</time>
      </trkpt>
      <trkpt lat="39.586274360132" lon="2.893330878105">
        <ele>164.8</ele>
        <time>2014-05-03T11:14:50Z</time>
      </trkpt>
      <trkpt lat="39.586129772357" lon="2.893508658204">
        <ele>165.2</ele>
        <time>2014-05-03T11:14:54Z</time>
      </trkpt>
      <trkpt lat="39.586091969988" lon="2.893547131125">
        <ele>165.8</ele>
        <time>2014-05-03T11:14:55Z</time>
      </trkpt>
      <trkpt lat="39.586062381881" lon="2.89358610696">
        <ele>166.2</ele>
        <time>2014-05-03T11:14:56Z</time>
      </trkpt>
      <trkpt lat="39.586039415475" lon="2.893618041999">
        <ele>166.6</ele>
        <time>2014-05-03T11:14:57Z</time>
      </trkpt>
      <trkpt lat="39.586009156816" lon="2.893654419445">
        <ele>167</ele>
        <time>2014-05-03T11:14:58Z</time>
      </trkpt>
      <trkpt lat="39.585972527913" lon="2.893690210158">
        <ele>167</ele>
        <time>2014-05-03T11:14:59Z</time>
      </trkpt>
      <trkpt lat="39.585940257598" lon="2.893724575948">
        <ele>167</ele>
        <time>2014-05-03T11:15:00Z</time>
      </trkpt>
      <trkpt lat="39.585775637082" lon="2.89392892667">
        <ele>167</ele>
        <time>2014-05-03T11:15:05Z</time>
      </trkpt>
      <trkpt lat="39.585733643763" lon="2.893967818686">
        <ele>167</ele>
        <time>2014-05-03T11:15:06Z</time>
      </trkpt>
      <trkpt lat="39.585582434287" lon="2.894058259387">
        <ele>167</ele>
        <time>2014-05-03T11:15:09Z</time>
      </trkpt>
      <trkpt lat="39.585307507967" lon="2.894154818875">
        <ele>167</ele>
        <time>2014-05-03T11:15:14Z</time>
      </trkpt>
      <trkpt lat="39.585079017373" lon="2.894244421386">
        <ele>166.6</ele>
        <time>2014-05-03T11:15:18Z</time>
      </trkpt>
      <trkpt lat="39.58501975734" lon="2.894267052516">
        <ele>166.2</ele>
        <time>2014-05-03T11:15:19Z</time>
      </trkpt>
      <trkpt lat="39.584961419316" lon="2.894294628967">
        <ele>165.6</ele>
        <time>2014-05-03T11:15:20Z</time>
      </trkpt>
      <trkpt lat="39.584902243102" lon="2.894319607029">
        <ele>165.2</ele>
        <time>2014-05-03T11:15:21Z</time>
      </trkpt>
      <trkpt lat="39.584838875938" lon="2.894345171824">
        <ele>164.8</ele>
        <time>2014-05-03T11:15:22Z</time>
      </trkpt>
      <trkpt lat="39.584654474138" lon="2.894403677486">
        <ele>164.8</ele>
        <time>2014-05-03T11:15:25Z</time>
      </trkpt>
      <trkpt lat="39.58446739013" lon="2.89442764972">
        <ele>164.8</ele>
        <time>2014-05-03T11:15:28Z</time>
      </trkpt>
      <trkpt lat="39.584339314698" lon="2.894431421575">
        <ele>164.8</ele>
        <time>2014-05-03T11:15:30Z</time>
      </trkpt>
      <trkpt lat="39.584042260162" lon="2.894404012762">
        <ele>164.8</ele>
        <time>2014-05-03T11:15:35Z</time>
      </trkpt>
      <trkpt lat="39.583609586484" lon="2.894381800727">
        <ele>164.8</ele>
        <time>2014-05-03T11:15:42Z</time>
      </trkpt>
      <trkpt lat="39.583481343414" lon="2.894376603949">
        <ele>164.8</ele>
        <time>2014-05-03T11:15:44Z</time>
      </trkpt>
      <trkpt lat="39.583085047182" lon="2.894365707479">
        <ele>164.8</ele>
        <time>2014-05-03T11:15:50Z</time>
      </trkpt>
      <trkpt lat="39.582790423397" lon="2.894349446593">
        <ele>164.8</ele>
        <time>2014-05-03T11:15:54Z</time>
      </trkpt>
      <trkpt lat="39.582637788998" lon="2.894354894828">
        <ele>164.8</ele>
        <time>2014-05-03T11:15:56Z</time>
      </trkpt>
      <trkpt lat="39.582561010794" lon="2.894359588692">
        <ele>164.2</ele>
        <time>2014-05-03T11:15:57Z</time>
      </trkpt>
      <trkpt lat="39.582486495703" lon="2.894365120746">
        <ele>163.8</ele>
        <time>2014-05-03T11:15:58Z</time>
      </trkpt>
      <trkpt lat="39.582409214585" lon="2.894372580637">
        <ele>163.4</ele>
        <time>2014-05-03T11:15:59Z</time>
      </trkpt>
      <trkpt lat="39.582338136073" lon="2.89438490203">
        <ele>163</ele>
        <time>2014-05-03T11:16:00Z</time>
      </trkpt>
      <trkpt lat="39.582266973742" lon="2.894380459623">
        <ele>162.6</ele>
        <time>2014-05-03T11:16:01Z</time>
      </trkpt>
      <trkpt lat="39.582196817239" lon="2.894384315297">
        <ele>162.6</ele>
        <time>2014-05-03T11:16:02Z</time>
      </trkpt>
      <trkpt lat="39.582124984356" lon="2.894385572582">
        <ele>162.6</ele>
        <time>2014-05-03T11:16:03Z</time>
      </trkpt>
      <trkpt lat="39.581979977486" lon="2.894384985849">
        <ele>162.6</ele>
        <time>2014-05-03T11:16:05Z</time>
      </trkpt>
      <trkpt lat="39.581697339818" lon="2.894383812383">
        <ele>162.6</ele>
        <time>2014-05-03T11:16:09Z</time>
      </trkpt>
      <trkpt lat="39.581625255478" lon="2.894380878718">
        <ele>162.6</ele>
        <time>2014-05-03T11:16:10Z</time>
      </trkpt>
      <trkpt lat="39.58127137166" lon="2.894398648346">
        <ele>162.6</ele>
        <time>2014-05-03T11:16:15Z</time>
      </trkpt>
      <trkpt lat="39.581205322288" lon="2.894394038301">
        <ele>162.6</ele>
        <time>2014-05-03T11:16:16Z</time>
      </trkpt>
      <trkpt lat="39.581142709495" lon="2.894391439912">
        <ele>162.6</ele>
        <time>2014-05-03T11:16:17Z</time>
      </trkpt>
      <trkpt lat="39.581079929064" lon="2.89439412212">
        <ele>162.6</ele>
        <time>2014-05-03T11:16:18Z</time>
      </trkpt>
      <trkpt lat="39.581015807529" lon="2.894393619206">
        <ele>162.6</ele>
        <time>2014-05-03T11:16:19Z</time>
      </trkpt>
      <trkpt lat="39.580879014921" lon="2.894404767133">
        <ele>162.6</ele>
        <time>2014-05-03T11:16:21Z</time>
      </trkpt>
      <trkpt lat="39.580810450979" lon="2.894413903404">
        <ele>162.6</ele>
        <time>2014-05-03T11:16:22Z</time>
      </trkpt>
      <trkpt lat="39.580736690259" lon="2.894423626408">
        <ele>162.6</ele>
        <time>2014-05-03T11:16:23Z</time>
      </trkpt>
      <trkpt lat="39.580457405351" lon="2.894433768507">
        <ele>162.6</ele>
        <time>2014-05-03T11:16:27Z</time>
      </trkpt>
      <trkpt lat="39.580390936884" lon="2.894432092127">
        <ele>162.6</ele>
        <time>2014-05-03T11:16:28Z</time>
      </trkpt>
      <trkpt lat="39.580325222788" lon="2.89442513515">
        <ele>162.6</ele>
        <time>2014-05-03T11:16:29Z</time>
      </trkpt>
      <trkpt lat="39.580188178723" lon="2.894419351639">
        <ele>162.6</ele>
        <time>2014-05-03T11:16:31Z</time>
      </trkpt>
      <trkpt lat="39.580054655056" lon="2.894393619206">
        <ele>162.6</ele>
        <time>2014-05-03T11:16:33Z</time>
      </trkpt>
      <trkpt lat="39.579924567968" lon="2.894365539841">
        <ele>162.6</ele>
        <time>2014-05-03T11:16:35Z</time>
      </trkpt>
      <trkpt lat="39.579800934943" lon="2.894339053037">
        <ele>162.6</ele>
        <time>2014-05-03T11:16:37Z</time>
      </trkpt>
      <trkpt lat="39.579742094005" lon="2.894336873743">
        <ele>163</ele>
        <time>2014-05-03T11:16:38Z</time>
      </trkpt>
      <trkpt lat="39.57969138351" lon="2.894361516529">
        <ele>163.4</ele>
        <time>2014-05-03T11:16:39Z</time>
      </trkpt>
      <trkpt lat="39.579644612508" lon="2.894393954482">
        <ele>163.8</ele>
        <time>2014-05-03T11:16:40Z</time>
      </trkpt>
      <trkpt lat="39.57959918261" lon="2.89442429696">
        <ele>164.2</ele>
        <time>2014-05-03T11:16:41Z</time>
      </trkpt>
      <trkpt lat="39.57955894949" lon="2.894467966659">
        <ele>164.6</ele>
        <time>2014-05-03T11:16:42Z</time>
      </trkpt>
      <trkpt lat="39.579519806017" lon="2.894515911127">
        <ele>164.6</ele>
        <time>2014-05-03T11:16:43Z</time>
      </trkpt>
      <trkpt lat="39.579479405259" lon="2.894558742636">
        <ele>165</ele>
        <time>2014-05-03T11:16:44Z</time>
      </trkpt>
      <trkpt lat="39.579433807723" lon="2.89459947867">
        <ele>165.4</ele>
        <time>2014-05-03T11:16:45Z</time>
      </trkpt>
      <trkpt lat="39.579374715328" lon="2.894622696533">
        <ele>165.8</ele>
        <time>2014-05-03T11:16:46Z</time>
      </trkpt>
      <trkpt lat="39.579315287657" lon="2.894636023754">
        <ele>166.4</ele>
        <time>2014-05-03T11:16:47Z</time>
      </trkpt>
      <trkpt lat="39.579256279081" lon="2.894651278812">
        <ele>166.8</ele>
        <time>2014-05-03T11:16:48Z</time>
      </trkpt>
      <trkpt lat="39.578894851553" lon="2.894706096438">
        <ele>166.8</ele>
        <time>2014-05-03T11:16:54Z</time>
      </trkpt>
      <trkpt lat="39.578531160912" lon="2.894761165521">
        <ele>166.8</ele>
        <time>2014-05-03T11:17:00Z</time>
      </trkpt>
      <trkpt lat="39.578407108792" lon="2.894781282081">
        <ele>166.8</ele>
        <time>2014-05-03T11:17:02Z</time>
      </trkpt>
      <trkpt lat="39.577934369632" lon="2.894897790491">
        <ele>166.8</ele>
        <time>2014-05-03T11:17:10Z</time>
      </trkpt>
      <trkpt lat="39.577643517702" lon="2.894997367463">
        <ele>167.2</ele>
        <time>2014-05-03T11:17:15Z</time>
      </trkpt>
      <trkpt lat="39.577584090031" lon="2.895022177887">
        <ele>167.6</ele>
        <time>2014-05-03T11:17:16Z</time>
      </trkpt>
      <trkpt lat="39.57752717693" lon="2.895045479569">
        <ele>168</ele>
        <time>2014-05-03T11:17:17Z</time>
      </trkpt>
      <trkpt lat="39.577471269657" lon="2.895072469287">
        <ele>168.4</ele>
        <time>2014-05-03T11:17:18Z</time>
      </trkpt>
      <trkpt lat="39.577415781479" lon="2.895098285539">
        <ele>169</ele>
        <time>2014-05-03T11:17:19Z</time>
      </trkpt>
      <trkpt lat="39.57702091017" lon="2.895234072319">
        <ele>169</ele>
        <time>2014-05-03T11:17:26Z</time>
      </trkpt>
      <trkpt lat="39.576491257909" lon="2.895320908803">
        <ele>169</ele>
        <time>2014-05-03T11:17:35Z</time>
      </trkpt>
      <trkpt lat="39.576247093162" lon="2.895354604041">
        <ele>169</ele>
        <time>2014-05-03T11:17:39Z</time>
      </trkpt>
      <trkpt lat="39.5760041857" lon="2.895341528277">
        <ele>169</ele>
        <time>2014-05-03T11:17:43Z</time>
      </trkpt>
      <trkpt lat="39.575830345094" lon="2.895311688713">
        <ele>169.4</ele>
        <time>2014-05-03T11:17:46Z</time>
      </trkpt>
      <trkpt lat="39.575773264355" lon="2.89530858741">
        <ele>169.8</ele>
        <time>2014-05-03T11:17:47Z</time>
      </trkpt>
      <trkpt lat="39.575715093969" lon="2.895304228822">
        <ele>170.2</ele>
        <time>2014-05-03T11:17:48Z</time>
      </trkpt>
      <trkpt lat="39.575657258859" lon="2.89529852913">
        <ele>170.6</ele>
        <time>2014-05-03T11:17:49Z</time>
      </trkpt>
      <trkpt lat="39.57559933993" lon="2.895299115863">
        <ele>171</ele>
        <time>2014-05-03T11:17:50Z</time>
      </trkpt>
      <trkpt lat="39.575543600295" lon="2.895298277673">
        <ele>171</ele>
        <time>2014-05-03T11:17:51Z</time>
      </trkpt>
      <trkpt lat="39.575489369402" lon="2.895310934342">
        <ele>171</ele>
        <time>2014-05-03T11:17:52Z</time>
      </trkpt>
      <trkpt lat="39.57533866284" lon="2.895361644837">
        <ele>171</ele>
        <time>2014-05-03T11:17:55Z</time>
      </trkpt>
      <trkpt lat="39.57506038376" lon="2.895429789684">
        <ele>171</ele>
        <time>2014-05-03T11:18:00Z</time>
      </trkpt>
      <trkpt lat="39.575014031853" lon="2.895455522117">
        <ele>171</ele>
        <time>2014-05-03T11:18:01Z</time>
      </trkpt>
      <trkpt lat="39.574962231711" lon="2.895474968125">
        <ele>171.4</ele>
        <time>2014-05-03T11:18:02Z</time>
      </trkpt>
      <trkpt lat="39.5749061568" lon="2.895499191816">
        <ele>172</ele>
        <time>2014-05-03T11:18:03Z</time>
      </trkpt>
      <trkpt lat="39.574852177364" lon="2.895513776322">
        <ele>172.4</ele>
        <time>2014-05-03T11:18:04Z</time>
      </trkpt>
      <trkpt lat="39.5747971921" lon="2.895535653081">
        <ele>172.8</ele>
        <time>2014-05-03T11:18:05Z</time>
      </trkpt>
      <trkpt lat="39.574747822709" lon="2.895560295867">
        <ele>173.2</ele>
        <time>2014-05-03T11:18:06Z</time>
      </trkpt>
      <trkpt lat="39.574512626595" lon="2.895646294161">
        <ele>173.2</ele>
        <time>2014-05-03T11:18:11Z</time>
      </trkpt>
      <trkpt lat="39.574457222236" lon="2.895652412948">
        <ele>173.2</ele>
        <time>2014-05-03T11:18:12Z</time>
      </trkpt>
      <trkpt lat="39.574293356091" lon="2.895693651896">
        <ele>173.2</ele>
        <time>2014-05-03T11:18:15Z</time>
      </trkpt>
      <trkpt lat="39.574056651235" lon="2.895776381249">
        <ele>173.2</ele>
        <time>2014-05-03T11:18:20Z</time>
      </trkpt>
      <trkpt lat="39.574009796414" lon="2.895796078714">
        <ele>173.2</ele>
        <time>2014-05-03T11:18:21Z</time>
      </trkpt>
      <trkpt lat="39.57391457803" lon="2.895835892739">
        <ele>173.2</ele>
        <time>2014-05-03T11:18:23Z</time>
      </trkpt>
      <trkpt lat="39.573760937803" lon="2.895922645404">
        <ele>173.2</ele>
        <time>2014-05-03T11:18:26Z</time>
      </trkpt>
      <trkpt lat="39.573499338704" lon="2.89606631117">
        <ele>173.2</ele>
        <time>2014-05-03T11:18:31Z</time>
      </trkpt>
      <trkpt lat="39.57328593553" lon="2.896168989445">
        <ele>173.2</ele>
        <time>2014-05-03T11:18:35Z</time>
      </trkpt>
      <trkpt lat="39.573020396938" lon="2.896273427919">
        <ele>173.2</ele>
        <time>2014-05-03T11:18:40Z</time>
      </trkpt>
      <trkpt lat="39.572965327855" lon="2.896292287194">
        <ele>173.2</ele>
        <time>2014-05-03T11:18:41Z</time>
      </trkpt>
      <trkpt lat="39.572906654555" lon="2.896301339646">
        <ele>173.2</ele>
        <time>2014-05-03T11:18:42Z</time>
      </trkpt>
      <trkpt lat="39.572853094214" lon="2.896314750686">
        <ele>173.2</ele>
        <time>2014-05-03T11:18:43Z</time>
      </trkpt>
      <trkpt lat="39.572745973532" lon="2.896337717092">
        <ele>173.2</ele>
        <time>2014-05-03T11:18:45Z</time>
      </trkpt>
      <trkpt lat="39.572641870334" lon="2.896358085109">
        <ele>173.2</ele>
        <time>2014-05-03T11:18:47Z</time>
      </trkpt>
      <trkpt lat="39.572539443516" lon="2.89637895604">
        <ele>173.2</ele>
        <time>2014-05-03T11:18:49Z</time>
      </trkpt>
      <trkpt lat="39.572432490472" lon="2.89638901432">
        <ele>173.2</ele>
        <time>2014-05-03T11:18:51Z</time>
      </trkpt>
      <trkpt lat="39.572376918475" lon="2.89638733794">
        <ele>173.2</ele>
        <time>2014-05-03T11:18:52Z</time>
      </trkpt>
      <trkpt lat="39.572268037594" lon="2.896386751207">
        <ele>173.2</ele>
        <time>2014-05-03T11:18:54Z</time>
      </trkpt>
      <trkpt lat="39.572159156713" lon="2.896386583569">
        <ele>173.2</ele>
        <time>2014-05-03T11:18:56Z</time>
      </trkpt>
      <trkpt lat="39.57210408763" lon="2.896382224981">
        <ele>173.2</ele>
        <time>2014-05-03T11:18:57Z</time>
      </trkpt>
      <trkpt lat="39.571844416368" lon="2.896366215552">
        <ele>173.2</ele>
        <time>2014-05-03T11:19:02Z</time>
      </trkpt>
      <trkpt lat="39.571790017837" lon="2.896359258575">
        <ele>173.2</ele>
        <time>2014-05-03T11:19:03Z</time>
      </trkpt>
      <trkpt lat="39.571636712886" lon="2.896336375988">
        <ele>173.2</ele>
        <time>2014-05-03T11:19:06Z</time>
      </trkpt>
      <trkpt lat="39.571542416511" lon="2.896321540025">
        <ele>173.2</ele>
        <time>2014-05-03T11:19:08Z</time>
      </trkpt>
      <trkpt lat="39.571413754346" lon="2.896300082361">
        <ele>173.2</ele>
        <time>2014-05-03T11:19:11Z</time>
      </trkpt>
      <trkpt lat="39.571317697772" lon="2.896270326616">
        <ele>173.2</ele>
        <time>2014-05-03T11:19:13Z</time>
      </trkpt>
      <trkpt lat="39.571271932598" lon="2.89626160944">
        <ele>173.2</ele>
        <time>2014-05-03T11:19:14Z</time>
      </trkpt>
      <trkpt lat="39.571180066974" lon="2.896244678002">
        <ele>173.2</ele>
        <time>2014-05-03T11:19:16Z</time>
      </trkpt>
      <trkpt lat="39.571131368135" lon="2.896241911975">
        <ele>173.2</ele>
        <time>2014-05-03T11:19:17Z</time>
      </trkpt>
      <trkpt lat="39.571081412011" lon="2.896231853695">
        <ele>173.2</ele>
        <time>2014-05-03T11:19:18Z</time>
      </trkpt>
      <trkpt lat="39.570983092324" lon="2.896210731307">
        <ele>173.2</ele>
        <time>2014-05-03T11:19:20Z</time>
      </trkpt>
      <trkpt lat="39.570934142028" lon="2.896207713823">
        <ele>173.2</ele>
        <time>2014-05-03T11:19:21Z</time>
      </trkpt>
      <trkpt lat="39.57084847901" lon="2.896189189824">
        <ele>173.6</ele>
        <time>2014-05-03T11:19:23Z</time>
      </trkpt>
      <trkpt lat="39.57080489313" lon="2.896185753245">
        <ele>174</ele>
        <time>2014-05-03T11:19:24Z</time>
      </trkpt>
      <trkpt lat="39.570764995286" lon="2.89617527587">
        <ele>174.6</ele>
        <time>2014-05-03T11:19:25Z</time>
      </trkpt>
      <trkpt lat="39.570730713315" lon="2.896173180395">
        <ele>175</ele>
        <time>2014-05-03T11:19:26Z</time>
      </trkpt>
      <trkpt lat="39.570694838783" lon="2.896171420196">
        <ele>175.4</ele>
        <time>2014-05-03T11:19:27Z</time>
      </trkpt>
      <trkpt lat="39.570623341176" lon="2.896157003328">
        <ele>176</ele>
        <time>2014-05-03T11:19:29Z</time>
      </trkpt>
      <trkpt lat="39.57059618382" lon="2.896159098803">
        <ele>176.4</ele>
        <time>2014-05-03T11:19:30Z</time>
      </trkpt>
      <trkpt lat="39.570560057831" lon="2.896161194278">
        <ele>176.8</ele>
        <time>2014-05-03T11:19:31Z</time>
      </trkpt>
      <trkpt lat="39.570527368421" lon="2.896157003328">
        <ele>177.4</ele>
        <time>2014-05-03T11:19:32Z</time>
      </trkpt>
      <trkpt lat="39.570484788369" lon="2.896153818206">
        <ele>177.8</ele>
        <time>2014-05-03T11:19:33Z</time>
      </trkpt>
      <trkpt lat="39.570356545299" lon="2.896149711075">
        <ele>178.4</ele>
        <time>2014-05-03T11:19:36Z</time>
      </trkpt>
      <trkpt lat="39.570313546152" lon="2.896150884541">
        <ele>178.8</ele>
        <time>2014-05-03T11:19:37Z</time>
      </trkpt>
      <trkpt lat="39.570267948616" lon="2.896154153482">
        <ele>179.2</ele>
        <time>2014-05-03T11:19:38Z</time>
      </trkpt>
      <trkpt lat="39.570223356908" lon="2.896154991672">
        <ele>179.6</ele>
        <time>2014-05-03T11:19:39Z</time>
      </trkpt>
      <trkpt lat="39.570176418268" lon="2.896155243129">
        <ele>180</ele>
        <time>2014-05-03T11:19:40Z</time>
      </trkpt>
      <trkpt lat="39.570087989223" lon="2.896149878713">
        <ele>180</ele>
        <time>2014-05-03T11:19:42Z</time>
      </trkpt>
      <trkpt lat="39.569986484414" lon="2.896145268668">
        <ele>180</ele>
        <time>2014-05-03T11:19:44Z</time>
      </trkpt>
      <trkpt lat="39.569853128385" lon="2.896149878713">
        <ele>180</ele>
        <time>2014-05-03T11:19:47Z</time>
      </trkpt>
      <trkpt lat="39.569814404007" lon="2.896157757699">
        <ele>180.4</ele>
        <time>2014-05-03T11:19:48Z</time>
      </trkpt>
      <trkpt lat="39.569776769276" lon="2.896158344432">
        <ele>180.8</ele>
        <time>2014-05-03T11:19:49Z</time>
      </trkpt>
      <trkpt lat="39.569744415142" lon="2.896152980016">
        <ele>181.2</ele>
        <time>2014-05-03T11:19:50Z</time>
      </trkpt>
      <trkpt lat="39.569714743216" lon="2.896152058007">
        <ele>181.6</ele>
        <time>2014-05-03T11:19:51Z</time>
      </trkpt>
      <trkpt lat="39.569689178421" lon="2.896155494586">
        <ele>182</ele>
        <time>2014-05-03T11:19:52Z</time>
      </trkpt>
      <trkpt lat="39.569621620307" lon="2.896158009156">
        <ele>182</ele>
        <time>2014-05-03T11:19:55Z</time>
      </trkpt>
      <trkpt lat="39.569556073849" lon="2.896158763527">
        <ele>182</ele>
        <time>2014-05-03T11:19:58Z</time>
      </trkpt>
      <trkpt lat="39.5695333589" lon="2.896164882314">
        <ele>182</ele>
        <time>2014-05-03T11:19:59Z</time>
      </trkpt>
      <trkpt lat="39.569485749708" lon="2.896173850947">
        <ele>182</ele>
        <time>2014-05-03T11:20:01Z</time>
      </trkpt>
      <trkpt lat="39.569421795811" lon="2.896182400485">
        <ele>182</ele>
        <time>2014-05-03T11:20:03Z</time>
      </trkpt>
      <trkpt lat="39.569349208557" lon="2.896170749644">
        <ele>182</ele>
        <time>2014-05-03T11:20:05Z</time>
      </trkpt>
      <trkpt lat="39.569258767856" lon="2.896179718277">
        <ele>182</ele>
        <time>2014-05-03T11:20:07Z</time>
      </trkpt>
      <trkpt lat="39.569210823388" lon="2.896189776557">
        <ele>182</ele>
        <time>2014-05-03T11:20:08Z</time>
      </trkpt>
      <trkpt lat="39.569156592495" lon="2.896197990819">
        <ele>181.6</ele>
        <time>2014-05-03T11:20:09Z</time>
      </trkpt>
      <trkpt lat="39.56910001467" lon="2.896210647488">
        <ele>181.2</ele>
        <time>2014-05-03T11:20:10Z</time>
      </trkpt>
      <trkpt lat="39.569041425189" lon="2.896246270563">
        <ele>180.8</ele>
        <time>2014-05-03T11:20:11Z</time>
      </trkpt>
      <trkpt lat="39.568985685554" lon="2.896297567791">
        <ele>180.4</ele>
        <time>2014-05-03T11:20:12Z</time>
      </trkpt>
      <trkpt lat="39.568925754969" lon="2.89636386862">
        <ele>179.8</ele>
        <time>2014-05-03T11:20:13Z</time>
      </trkpt>
      <trkpt lat="39.568868087497" lon="2.896433019295">
        <ele>179.2</ele>
        <time>2014-05-03T11:20:14Z</time>
      </trkpt>
      <trkpt lat="39.568814527156" lon="2.896515161915">
        <ele>178.8</ele>
        <time>2014-05-03T11:20:15Z</time>
      </trkpt>
      <trkpt lat="39.568769516353" lon="2.89660945829">
        <ele>178</ele>
        <time>2014-05-03T11:20:16Z</time>
      </trkpt>
      <trkpt lat="39.568731965441" lon="2.896712220384">
        <ele>177.4</ele>
        <time>2014-05-03T11:20:17Z</time>
      </trkpt>
      <trkpt lat="39.568692067597" lon="2.896810540071">
        <ele>176.6</ele>
        <time>2014-05-03T11:20:18Z</time>
      </trkpt>
      <trkpt lat="39.56864823026" lon="2.896904165894">
        <ele>175.8</ele>
        <time>2014-05-03T11:20:19Z</time>
      </trkpt>
      <trkpt lat="39.568599699059" lon="2.896991086197">
        <ele>175</ele>
        <time>2014-05-03T11:20:20Z</time>
      </trkpt>
      <trkpt lat="39.56854597108" lon="2.897076078663">
        <ele>174.2</ele>
        <time>2014-05-03T11:20:21Z</time>
      </trkpt>
      <trkpt lat="39.56849065054" lon="2.897145564614">
        <ele>173.4</ele>
        <time>2014-05-03T11:20:22Z</time>
      </trkpt>
      <trkpt lat="39.568430971412" lon="2.897204740828">
        <ele>172.6</ele>
        <time>2014-05-03T11:20:23Z</time>
      </trkpt>
      <trkpt lat="39.568370705551" lon="2.897255283685">
        <ele>172.6</ele>
        <time>2014-05-03T11:20:24Z</time>
      </trkpt>
      <trkpt lat="39.568314798278" lon="2.897306580913">
        <ele>172.6</ele>
        <time>2014-05-03T11:20:25Z</time>
      </trkpt>
      <trkpt lat="39.568146322088" lon="2.897413114862">
        <ele>172.6</ele>
        <time>2014-05-03T11:20:28Z</time>
      </trkpt>
      <trkpt lat="39.568094605765" lon="2.897433482879">
        <ele>172.6</ele>
        <time>2014-05-03T11:20:29Z</time>
      </trkpt>
      <trkpt lat="39.568036938293" lon="2.897448067385">
        <ele>173.2</ele>
        <time>2014-05-03T11:20:30Z</time>
      </trkpt>
      <trkpt lat="39.567986227798" lon="2.897464076814">
        <ele>173.6</ele>
        <time>2014-05-03T11:20:31Z</time>
      </trkpt>
      <trkpt lat="39.567940294986" lon="2.89748369046">
        <ele>174</ele>
        <time>2014-05-03T11:20:32Z</time>
      </trkpt>
      <trkpt lat="39.567893523984" lon="2.897502046821">
        <ele>174.4</ele>
        <time>2014-05-03T11:20:33Z</time>
      </trkpt>
      <trkpt lat="39.567844908964" lon="2.897513697662">
        <ele>174.8</ele>
        <time>2014-05-03T11:20:34Z</time>
      </trkpt>
      <trkpt lat="39.567791683899" lon="2.897516966603">
        <ele>174.8</ele>
        <time>2014-05-03T11:20:35Z</time>
      </trkpt>
      <trkpt lat="39.567571910481" lon="2.8975222472">
        <ele>174.8</ele>
        <time>2014-05-03T11:20:39Z</time>
      </trkpt>
      <trkpt lat="39.567474680441" lon="2.897509506712">
        <ele>174.8</ele>
        <time>2014-05-03T11:20:41Z</time>
      </trkpt>
      <trkpt lat="39.567343336068" lon="2.897463070986">
        <ele>174.8</ele>
        <time>2014-05-03T11:20:44Z</time>
      </trkpt>
      <trkpt lat="39.567302851491" lon="2.897426861178">
        <ele>174.8</ele>
        <time>2014-05-03T11:20:45Z</time>
      </trkpt>
      <trkpt lat="39.567235209558" lon="2.897327116568">
        <ele>174.8</ele>
        <time>2014-05-03T11:20:47Z</time>
      </trkpt>
      <trkpt lat="39.567172848222" lon="2.8972288807">
        <ele>174.8</ele>
        <time>2014-05-03T11:20:49Z</time>
      </trkpt>
      <trkpt lat="39.567020800556" lon="2.897167273735">
        <ele>174.8</ele>
        <time>2014-05-03T11:20:52Z</time>
      </trkpt>
      <trkpt lat="39.566859113705" lon="2.897258971721">
        <ele>174.8</ele>
        <time>2014-05-03T11:20:55Z</time>
      </trkpt>
      <trkpt lat="39.566719052156" lon="2.897314711356">
        <ele>174.8</ele>
        <time>2014-05-03T11:20:58Z</time>
      </trkpt>
      <trkpt lat="39.566665743272" lon="2.897313454071">
        <ele>174.8</ele>
        <time>2014-05-03T11:20:59Z</time>
      </trkpt>
      <trkpt lat="39.566617714985" lon="2.897311945329">
        <ele>174.8</ele>
        <time>2014-05-03T11:21:00Z</time>
      </trkpt>
      <trkpt lat="39.566527441922" lon="2.897309849854">
        <ele>174.8</ele>
        <time>2014-05-03T11:21:02Z</time>
      </trkpt>
      <trkpt lat="39.566437671773" lon="2.897295852081">
        <ele>174.8</ele>
        <time>2014-05-03T11:21:04Z</time>
      </trkpt>
      <trkpt lat="39.566395343178" lon="2.897286883448">
        <ele>174.8</ele>
        <time>2014-05-03T11:21:05Z</time>
      </trkpt>
      <trkpt lat="39.566354607144" lon="2.897288476009">
        <ele>174.8</ele>
        <time>2014-05-03T11:21:06Z</time>
      </trkpt>
      <trkpt lat="39.566314793119" lon="2.897288308371">
        <ele>175.2</ele>
        <time>2014-05-03T11:21:07Z</time>
      </trkpt>
      <trkpt lat="39.566272883619" lon="2.897285793801">
        <ele>175.6</ele>
        <time>2014-05-03T11:21:08Z</time>
      </trkpt>
      <trkpt lat="39.566235584164" lon="2.897273472408">
        <ele>176</ele>
        <time>2014-05-03T11:21:09Z</time>
      </trkpt>
      <trkpt lat="39.566200380184" lon="2.897270287286">
        <ele>176.4</ele>
        <time>2014-05-03T11:21:10Z</time>
      </trkpt>
      <trkpt lat="39.566163583643" lon="2.897264839051">
        <ele>176.8</ele>
        <time>2014-05-03T11:21:11Z</time>
      </trkpt>
      <trkpt lat="39.566024025008" lon="2.897236089134">
        <ele>176.8</ele>
        <time>2014-05-03T11:21:14Z</time>
      </trkpt>
      <trkpt lat="39.565916652869" lon="2.8972288807">
        <ele>176.8</ele>
        <time>2014-05-03T11:21:16Z</time>
      </trkpt>
      <trkpt lat="39.565826295987" lon="2.897216559307">
        <ele>176.8</ele>
        <time>2014-05-03T11:21:18Z</time>
      </trkpt>
      <trkpt lat="39.565774244388" lon="2.897205159923">
        <ele>176.8</ele>
        <time>2014-05-03T11:21:19Z</time>
      </trkpt>
      <trkpt lat="39.565680702384" lon="2.89719870586">
        <ele>176.8</ele>
        <time>2014-05-03T11:21:21Z</time>
      </trkpt>
      <trkpt lat="39.565571067132" lon="2.897184624268">
        <ele>176.8</ele>
        <time>2014-05-03T11:21:23Z</time>
      </trkpt>
      <trkpt lat="39.565521111008" lon="2.89716098731">
        <ele>176.8</ele>
        <time>2014-05-03T11:21:24Z</time>
      </trkpt>
      <trkpt lat="39.56543880075" lon="2.897059147225">
        <ele>176.8</ele>
        <time>2014-05-03T11:21:26Z</time>
      </trkpt>
      <trkpt lat="39.565394544318" lon="2.896845241137">
        <ele>176.8</ele>
        <time>2014-05-03T11:21:29Z</time>
      </trkpt>
      <trkpt lat="39.565395801603" lon="2.896778185937">
        <ele>177.2</ele>
        <time>2014-05-03T11:21:30Z</time>
      </trkpt>
      <trkpt lat="39.565394711956" lon="2.896719764094">
        <ele>177.6</ele>
        <time>2014-05-03T11:21:31Z</time>
      </trkpt>
      <trkpt lat="39.565395047232" lon="2.896659330595">
        <ele>178</ele>
        <time>2014-05-03T11:21:32Z</time>
      </trkpt>
      <trkpt lat="39.565391610653" lon="2.896597053078">
        <ele>178.4</ele>
        <time>2014-05-03T11:21:33Z</time>
      </trkpt>
      <trkpt lat="39.565393203214" lon="2.896534524104">
        <ele>178.8</ele>
        <time>2014-05-03T11:21:34Z</time>
      </trkpt>
      <trkpt lat="39.565388844626" lon="2.896406281034">
        <ele>178.8</ele>
        <time>2014-05-03T11:21:36Z</time>
      </trkpt>
      <trkpt lat="39.565385240409" lon="2.896152141826">
        <ele>178.8</ele>
        <time>2014-05-03T11:21:40Z</time>
      </trkpt>
      <trkpt lat="39.565383983124" lon="2.896082488237">
        <ele>178.8</ele>
        <time>2014-05-03T11:21:42Z</time>
      </trkpt>
      <trkpt lat="39.565379624536" lon="2.896028508801">
        <ele>178.8</ele>
        <time>2014-05-03T11:21:44Z</time>
      </trkpt>
      <trkpt lat="39.565352299542" lon="2.896015349218">
        <ele>178.8</ele>
        <time>2014-05-03T11:21:45Z</time>
      </trkpt>
      <trkpt lat="39.565282478315" lon="2.896000345617">
        <ele>178.8</ele>
        <time>2014-05-03T11:21:47Z</time>
      </trkpt>
      <trkpt lat="39.565106123139" lon="2.895986599301">
        <ele>178.8</ele>
        <time>2014-05-03T11:21:52Z</time>
      </trkpt>
      <trkpt lat="39.565063123992" lon="2.895973523537">
        <ele>178.8</ele>
        <time>2014-05-03T11:21:53Z</time>
      </trkpt>
      <trkpt lat="39.564976371327" lon="2.895964387266">
        <ele>178.8</ele>
        <time>2014-05-03T11:21:55Z</time>
      </trkpt>
      <trkpt lat="39.564885176255" lon="2.895945360353">
        <ele>178.8</ele>
        <time>2014-05-03T11:21:57Z</time>
      </trkpt>
      <trkpt lat="39.564580242733" lon="2.895856176937">
        <ele>178.8</ele>
        <time>2014-05-03T11:22:03Z</time>
      </trkpt>
      <trkpt lat="39.564492148964" lon="2.89584251444">
        <ele>178.8</ele>
        <time>2014-05-03T11:22:05Z</time>
      </trkpt>
      <trkpt lat="39.564334485425" lon="2.895805047347">
        <ele>178.8</ele>
        <time>2014-05-03T11:22:08Z</time>
      </trkpt>
      <trkpt lat="39.564281092722" lon="2.895792306859">
        <ele>178.8</ele>
        <time>2014-05-03T11:22:09Z</time>
      </trkpt>
      <trkpt lat="39.564112867989" lon="2.895755258861">
        <ele>178.8</ele>
        <time>2014-05-03T11:22:12Z</time>
      </trkpt>
      <trkpt lat="39.563888903621" lon="2.895703123443">
        <ele>178.8</ele>
        <time>2014-05-03T11:22:16Z</time>
      </trkpt>
      <trkpt lat="39.563769377727" lon="2.89566230359">
        <ele>178.8</ele>
        <time>2014-05-03T11:22:18Z</time>
      </trkpt>
      <trkpt lat="39.563582461357" lon="2.89560949762">
        <ele>178.8</ele>
        <time>2014-05-03T11:22:21Z</time>
      </trkpt>
      <trkpt lat="39.563470814449" lon="2.895574377459">
        <ele>178.8</ele>
        <time>2014-05-03T11:22:23Z</time>
      </trkpt>
      <trkpt lat="39.563375512246" lon="2.895579490418">
        <ele>178.8</ele>
        <time>2014-05-03T11:22:25Z</time>
      </trkpt>
      <trkpt lat="39.563086923429" lon="2.895518218729">
        <ele>178.8</ele>
        <time>2014-05-03T11:22:30Z</time>
      </trkpt>
      <trkpt lat="39.562732788154" lon="2.895446385846">
        <ele>178.8</ele>
        <time>2014-05-03T11:22:36Z</time>
      </trkpt>
      <trkpt lat="39.562512092727" lon="2.895395591532">
        <ele>179.2</ele>
        <time>2014-05-03T11:22:40Z</time>
      </trkpt>
      <trkpt lat="39.56245652073" lon="2.895392238772">
        <ele>179.6</ele>
        <time>2014-05-03T11:22:41Z</time>
      </trkpt>
      <trkpt lat="39.562406396968" lon="2.895379749741">
        <ele>180</ele>
        <time>2014-05-03T11:22:42Z</time>
      </trkpt>
      <trkpt lat="39.56235342336" lon="2.895364494683">
        <ele>180.4</ele>
        <time>2014-05-03T11:22:43Z</time>
      </trkpt>
      <trkpt lat="39.562299611562" lon="2.895344881037">
        <ele>180.8</ele>
        <time>2014-05-03T11:22:44Z</time>
      </trkpt>
      <trkpt lat="39.562242614642" lon="2.89533289492">
        <ele>180.8</ele>
        <time>2014-05-03T11:22:45Z</time>
      </trkpt>
      <trkpt lat="39.562045388535" lon="2.895286207737">
        <ele>180.8</ele>
        <time>2014-05-03T11:22:48Z</time>
      </trkpt>
      <trkpt lat="39.561986212321" lon="2.895268102833">
        <ele>180.8</ele>
        <time>2014-05-03T11:22:49Z</time>
      </trkpt>
      <trkpt lat="39.561941369156" lon="2.895265085349">
        <ele>180.8</ele>
        <time>2014-05-03T11:22:50Z</time>
      </trkpt>
      <trkpt lat="39.561779682305" lon="2.895215967415">
        <ele>180.8</ele>
        <time>2014-05-03T11:22:53Z</time>
      </trkpt>
      <trkpt lat="39.561665353189" lon="2.895173806458">
        <ele>180.8</ele>
        <time>2014-05-03T11:22:55Z</time>
      </trkpt>
      <trkpt lat="39.561606679889" lon="2.895163329083">
        <ele>180.8</ele>
        <time>2014-05-03T11:22:56Z</time>
      </trkpt>
      <trkpt lat="39.561486818719" lon="2.895133824795">
        <ele>180.8</ele>
        <time>2014-05-03T11:22:58Z</time>
      </trkpt>
      <trkpt lat="39.561191943477" lon="2.895119324108">
        <ele>180.8</ele>
        <time>2014-05-03T11:23:03Z</time>
      </trkpt>
      <trkpt lat="39.561138215498" lon="2.8951334057">
        <ele>181.2</ele>
        <time>2014-05-03T11:23:04Z</time>
      </trkpt>
      <trkpt lat="39.561093288514" lon="2.895144553627">
        <ele>181.6</ele>
        <time>2014-05-03T11:23:05Z</time>
      </trkpt>
      <trkpt lat="39.561036123956" lon="2.895162993807">
        <ele>182</ele>
        <time>2014-05-03T11:23:06Z</time>
      </trkpt>
      <trkpt lat="39.560971834783" lon="2.895177410675">
        <ele>182.4</ele>
        <time>2014-05-03T11:23:07Z</time>
      </trkpt>
      <trkpt lat="39.560909892542" lon="2.895191073172">
        <ele>182.8</ele>
        <time>2014-05-03T11:23:08Z</time>
      </trkpt>
      <trkpt lat="39.560746110216" lon="2.895215799777">
        <ele>182.8</ele>
        <time>2014-05-03T11:23:11Z</time>
      </trkpt>
      <trkpt lat="39.560636558783" lon="2.895265672082">
        <ele>182.8</ele>
        <time>2014-05-03T11:23:13Z</time>
      </trkpt>
      <trkpt lat="39.560380743195" lon="2.895317723681">
        <ele>182.8</ele>
        <time>2014-05-03T11:23:18Z</time>
      </trkpt>
      <trkpt lat="39.560264234785" lon="2.895323004278">
        <ele>182.8</ele>
        <time>2014-05-03T11:23:20Z</time>
      </trkpt>
      <trkpt lat="39.56010036864" lon="2.895321411717">
        <ele>183.4</ele>
        <time>2014-05-03T11:23:23Z</time>
      </trkpt>
      <trkpt lat="39.560056363665" lon="2.895322752821">
        <ele>183.8</ele>
        <time>2014-05-03T11:23:24Z</time>
      </trkpt>
      <trkpt lat="39.560012442509" lon="2.895324177744">
        <ele>184.4</ele>
        <time>2014-05-03T11:23:25Z</time>
      </trkpt>
      <trkpt lat="39.559974472502" lon="2.895322082269">
        <ele>184.8</ele>
        <time>2014-05-03T11:23:26Z</time>
      </trkpt>
      <trkpt lat="39.559936586314" lon="2.89530691103">
        <ele>185.2</ele>
        <time>2014-05-03T11:23:27Z</time>
      </trkpt>
      <trkpt lat="39.559895598823" lon="2.895281597692">
        <ele>185.2</ele>
        <time>2014-05-03T11:23:28Z</time>
      </trkpt>
      <trkpt lat="39.559655122112" lon="2.895250333205">
        <ele>185.2</ele>
        <time>2014-05-03T11:23:33Z</time>
      </trkpt>
      <trkpt lat="39.559519838246" lon="2.895260140028">
        <ele>185.8</ele>
        <time>2014-05-03T11:23:36Z</time>
      </trkpt>
      <trkpt lat="39.559478012565" lon="2.895252763956">
        <ele>186.2</ele>
        <time>2014-05-03T11:23:37Z</time>
      </trkpt>
      <trkpt lat="39.559442221852" lon="2.895234491414">
        <ele>186.6</ele>
        <time>2014-05-03T11:23:38Z</time>
      </trkpt>
      <trkpt lat="39.559399893257" lon="2.895230216645">
        <ele>187</ele>
        <time>2014-05-03T11:23:39Z</time>
      </trkpt>
      <trkpt lat="39.55935521773" lon="2.895230971016">
        <ele>187.4</ele>
        <time>2014-05-03T11:23:40Z</time>
      </trkpt>
      <trkpt lat="39.559119099607" lon="2.89522895936">
        <ele>187.4</ele>
        <time>2014-05-03T11:23:46Z</time>
      </trkpt>
      <trkpt lat="39.559062018868" lon="2.895230887197">
        <ele>187.4</ele>
        <time>2014-05-03T11:23:48Z</time>
      </trkpt>
      <trkpt lat="39.559017678617" lon="2.895239939649">
        <ele>187.4</ele>
        <time>2014-05-03T11:23:50Z</time>
      </trkpt>
      <trkpt lat="39.558992700555" lon="2.895233904681">
        <ele>187.4</ele>
        <time>2014-05-03T11:23:51Z</time>
      </trkpt>
      <trkpt lat="39.558975266203" lon="2.895221667107">
        <ele>187.4</ele>
        <time>2014-05-03T11:23:52Z</time>
      </trkpt>
      <trkpt lat="39.558958837679" lon="2.895212279379">
        <ele>187.8</ele>
        <time>2014-05-03T11:23:53Z</time>
      </trkpt>
      <trkpt lat="39.558951377788" lon="2.895197862511">
        <ele>188.2</ele>
        <time>2014-05-03T11:23:54Z</time>
      </trkpt>
      <trkpt lat="39.558845430572" lon="2.89503366109">
        <ele>189.6</ele>
        <time>2014-05-03T11:27:49Z</time>
      </trkpt>
      <trkpt lat="39.558832941541" lon="2.895021004421">
        <ele>189.6</ele>
        <time>2014-05-03T11:27:50Z</time>
      </trkpt>
      <trkpt lat="39.558789188023" lon="2.894959313637">
        <ele>189.6</ele>
        <time>2014-05-03T11:27:53Z</time>
      </trkpt>
      <trkpt lat="39.558774184422" lon="2.894943304208">
        <ele>189.6</ele>
        <time>2014-05-03T11:27:54Z</time>
      </trkpt>
      <trkpt lat="39.55870310591" lon="2.894867448013">
        <ele>189.6</ele>
        <time>2014-05-03T11:27:59Z</time>
      </trkpt>
      <trkpt lat="39.558613251942" lon="2.894772564905">
        <ele>189.6</ele>
        <time>2014-05-03T11:28:03Z</time>
      </trkpt>
      <trkpt lat="39.558561284162" lon="2.89471095794">
        <ele>189.6</ele>
        <time>2014-05-03T11:28:05Z</time>
      </trkpt>
      <trkpt lat="39.558485260329" lon="2.89459780229">
        <ele>189.6</ele>
        <time>2014-05-03T11:28:08Z</time>
      </trkpt>
      <trkpt lat="39.558404794089" lon="2.894464362442">
        <ele>189.6</ele>
        <time>2014-05-03T11:28:11Z</time>
      </trkpt>
      <trkpt lat="39.558306809678" lon="2.894297897908">
        <ele>189.6</ele>
        <time>2014-05-03T11:28:15Z</time>
      </trkpt>
      <trkpt lat="39.558179153341" lon="2.894219191867">
        <ele>189.6</ele>
        <time>2014-05-03T11:28:19Z</time>
      </trkpt>
      <trkpt lat="39.557981005225" lon="2.894189352303">
        <ele>190</ele>
        <time>2014-05-03T11:28:23Z</time>
      </trkpt>
      <trkpt lat="39.55793029473" lon="2.894172672322">
        <ele>190.4</ele>
        <time>2014-05-03T11:28:24Z</time>
      </trkpt>
      <trkpt lat="39.557882182624" lon="2.894149538278">
        <ele>190.8</ele>
        <time>2014-05-03T11:28:25Z</time>
      </trkpt>
      <trkpt lat="39.557833232328" lon="2.894128499709">
        <ele>191.4</ele>
        <time>2014-05-03T11:28:26Z</time>
      </trkpt>
      <trkpt lat="39.557783779118" lon="2.894107209683">
        <ele>191.8</ele>
        <time>2014-05-03T11:28:27Z</time>
      </trkpt>
      <trkpt lat="39.557733487718" lon="2.894088434227">
        <ele>191.8</ele>
        <time>2014-05-03T11:28:28Z</time>
      </trkpt>
      <trkpt lat="39.557506505866" lon="2.893980810631">
        <ele>191.8</ele>
        <time>2014-05-03T11:28:33Z</time>
      </trkpt>
      <trkpt lat="39.557342891178" lon="2.893917275829">
        <ele>191.8</ele>
        <time>2014-05-03T11:28:37Z</time>
      </trkpt>
      <trkpt lat="39.55729410852" lon="2.893914342164">
        <ele>191.8</ele>
        <time>2014-05-03T11:28:38Z</time>
      </trkpt>
      <trkpt lat="39.557020942399" lon="2.893934961638">
        <ele>191.8</ele>
        <time>2014-05-03T11:28:43Z</time>
      </trkpt>
      <trkpt lat="39.556852047114" lon="2.893942756805">
        <ele>191.8</ele>
        <time>2014-05-03T11:28:46Z</time>
      </trkpt>
      <trkpt lat="39.556679379974" lon="2.893982822287">
        <ele>191.8</ele>
        <time>2014-05-03T11:28:49Z</time>
      </trkpt>
      <trkpt lat="39.556384840008" lon="2.894058427025">
        <ele>191.8</ele>
        <time>2014-05-03T11:28:54Z</time>
      </trkpt>
      <trkpt lat="39.556275791489" lon="2.894082902173">
        <ele>192.2</ele>
        <time>2014-05-03T11:28:56Z</time>
      </trkpt>
      <trkpt lat="39.556223907528" lon="2.894096480851">
        <ele>192.6</ele>
        <time>2014-05-03T11:28:57Z</time>
      </trkpt>
      <trkpt lat="39.55617093392" lon="2.894108969882">
        <ele>193</ele>
        <time>2014-05-03T11:28:58Z</time>
      </trkpt>
      <trkpt lat="39.556119301416" lon="2.894123135293">
        <ele>193.4</ele>
        <time>2014-05-03T11:28:59Z</time>
      </trkpt>
      <trkpt lat="39.556068088007" lon="2.894137887437">
        <ele>193.8</ele>
        <time>2014-05-03T11:29:00Z</time>
      </trkpt>
      <trkpt lat="39.555842195802" lon="2.894209133587">
        <ele>193.8</ele>
        <time>2014-05-03T11:29:04Z</time>
      </trkpt>
      <trkpt lat="39.555494179314" lon="2.894309381111">
        <ele>193.8</ele>
        <time>2014-05-03T11:29:10Z</time>
      </trkpt>
      <trkpt lat="39.555322266545" lon="2.894341819064">
        <ele>194.2</ele>
        <time>2014-05-03T11:29:13Z</time>
      </trkpt>
      <trkpt lat="39.555260743399" lon="2.894355313923">
        <ele>194.6</ele>
        <time>2014-05-03T11:29:14Z</time>
      </trkpt>
      <trkpt lat="39.555200477538" lon="2.89436981461">
        <ele>195</ele>
        <time>2014-05-03T11:29:15Z</time>
      </trkpt>
      <trkpt lat="39.555138535297" lon="2.89438909298">
        <ele>195.4</ele>
        <time>2014-05-03T11:29:16Z</time>
      </trkpt>
      <trkpt lat="39.555074413762" lon="2.894418513449">
        <ele>195.8</ele>
        <time>2014-05-03T11:29:17Z</time>
      </trkpt>
      <trkpt lat="39.554893029446" lon="2.894518090421">
        <ele>195.8</ele>
        <time>2014-05-03T11:29:20Z</time>
      </trkpt>
      <trkpt lat="39.554661521368" lon="2.894648596604">
        <ele>195.8</ele>
        <time>2014-05-03T11:29:24Z</time>
      </trkpt>
      <trkpt lat="39.554609050674" lon="2.894679274358">
        <ele>195.8</ele>
        <time>2014-05-03T11:29:25Z</time>
      </trkpt>
      <trkpt lat="39.554354073276" lon="2.894810031998">
        <ele>196.4</ele>
        <time>2014-05-03T11:29:30Z</time>
      </trkpt>
      <trkpt lat="39.554299339469" lon="2.894842050856">
        <ele>196.8</ele>
        <time>2014-05-03T11:29:31Z</time>
      </trkpt>
      <trkpt lat="39.554240079436" lon="2.894877003379">
        <ele>197.4</ele>
        <time>2014-05-03T11:29:32Z</time>
      </trkpt>
      <trkpt lat="39.554184004525" lon="2.894910363341">
        <ele>198</ele>
        <time>2014-05-03T11:29:33Z</time>
      </trkpt>
      <trkpt lat="39.554127678157" lon="2.894942549837">
        <ele>198.4</ele>
        <time>2014-05-03T11:29:34Z</time>
      </trkpt>
      <trkpt lat="39.553956268302" lon="2.895032152348">
        <ele>198.8</ele>
        <time>2014-05-03T11:29:37Z</time>
      </trkpt>
      <trkpt lat="39.553900947762" lon="2.89506467412">
        <ele>199.4</ele>
        <time>2014-05-03T11:29:38Z</time>
      </trkpt>
      <trkpt lat="39.553844621394" lon="2.895096106245">
        <ele>199.8</ele>
        <time>2014-05-03T11:29:39Z</time>
      </trkpt>
      <trkpt lat="39.553785948094" lon="2.895128544198">
        <ele>200.2</ele>
        <time>2014-05-03T11:29:40Z</time>
      </trkpt>
      <trkpt lat="39.553729034993" lon="2.895158635219">
        <ele>200.6</ele>
        <time>2014-05-03T11:29:41Z</time>
      </trkpt>
      <trkpt lat="39.553559385337" lon="2.895255110888">
        <ele>200.6</ele>
        <time>2014-05-03T11:29:44Z</time>
      </trkpt>
      <trkpt lat="39.553106427461" lon="2.895494246495">
        <ele>200.6</ele>
        <time>2014-05-03T11:29:52Z</time>
      </trkpt>
      <trkpt lat="39.553046832152" lon="2.895520984756">
        <ele>201</ele>
        <time>2014-05-03T11:29:53Z</time>
      </trkpt>
      <trkpt lat="39.55298329735" lon="2.895548477388">
        <ele>201.4</ele>
        <time>2014-05-03T11:29:54Z</time>
      </trkpt>
      <trkpt lat="39.552922360937" lon="2.895574209821">
        <ele>201.8</ele>
        <time>2014-05-03T11:29:55Z</time>
      </trkpt>
      <trkpt lat="39.55286008342" lon="2.89559860115">
        <ele>202.2</ele>
        <time>2014-05-03T11:29:56Z</time>
      </trkpt>
      <trkpt lat="39.552798644093" lon="2.895624165945">
        <ele>202.6</ele>
        <time>2014-05-03T11:29:57Z</time>
      </trkpt>
      <trkpt lat="39.552678028552" lon="2.895675882268">
        <ele>203</ele>
        <time>2014-05-03T11:29:59Z</time>
      </trkpt>
      <trkpt lat="39.552617092139" lon="2.895704548366">
        <ele>203.4</ele>
        <time>2014-05-03T11:30:00Z</time>
      </trkpt>
      <trkpt lat="39.552556155726" lon="2.895732292455">
        <ele>203.8</ele>
        <time>2014-05-03T11:30:01Z</time>
      </trkpt>
      <trkpt lat="39.552492453286" lon="2.895758779259">
        <ele>204.2</ele>
        <time>2014-05-03T11:30:02Z</time>
      </trkpt>
      <trkpt lat="39.552429589036" lon="2.895782919131">
        <ele>204.6</ele>
        <time>2014-05-03T11:30:03Z</time>
      </trkpt>
      <trkpt lat="39.552240325734" lon="2.895863133914">
        <ele>204.6</ele>
        <time>2014-05-03T11:30:06Z</time>
      </trkpt>
      <trkpt lat="39.552055923934" lon="2.89594058267">
        <ele>205</ele>
        <time>2014-05-03T11:30:09Z</time>
      </trkpt>
      <trkpt lat="39.55199423315" lon="2.895964973999">
        <ele>205.4</ele>
        <time>2014-05-03T11:30:10Z</time>
      </trkpt>
      <trkpt lat="39.551934218746" lon="2.89598919769">
        <ele>205.8</ele>
        <time>2014-05-03T11:30:11Z</time>
      </trkpt>
      <trkpt lat="39.551871103039" lon="2.896014846304">
        <ele>206.2</ele>
        <time>2014-05-03T11:30:12Z</time>
      </trkpt>
      <trkpt lat="39.551810082807" lon="2.896041249289">
        <ele>206.6</ele>
        <time>2014-05-03T11:30:13Z</time>
      </trkpt>
      <trkpt lat="39.551686449782" lon="2.896096150734">
        <ele>206.6</ele>
        <time>2014-05-03T11:30:15Z</time>
      </trkpt>
      <trkpt lat="39.55137397255" lon="2.896224058528">
        <ele>207.2</ele>
        <time>2014-05-03T11:30:20Z</time>
      </trkpt>
      <trkpt lat="39.551312197947" lon="2.896248952771">
        <ele>207.6</ele>
        <time>2014-05-03T11:30:21Z</time>
      </trkpt>
      <trkpt lat="39.551252602638" lon="2.896275942489">
        <ele>208</ele>
        <time>2014-05-03T11:30:22Z</time>
      </trkpt>
      <trkpt lat="39.55118957075" lon="2.896306955519">
        <ele>208.4</ele>
        <time>2014-05-03T11:30:23Z</time>
      </trkpt>
      <trkpt lat="39.551129723984" lon="2.896336292169">
        <ele>209</ele>
        <time>2014-05-03T11:30:24Z</time>
      </trkpt>
      <trkpt lat="39.550714652296" lon="2.896513988449">
        <ele>209</ele>
        <time>2014-05-03T11:30:31Z</time>
      </trkpt>
      <trkpt lat="39.550592695651" lon="2.896566459143">
        <ele>209.4</ele>
        <time>2014-05-03T11:30:33Z</time>
      </trkpt>
      <trkpt lat="39.550533519437" lon="2.896591604843">
        <ele>209.8</ele>
        <time>2014-05-03T11:30:34Z</time>
      </trkpt>
      <trkpt lat="39.550474091766" lon="2.896618007828">
        <ele>210.4</ele>
        <time>2014-05-03T11:30:35Z</time>
      </trkpt>
      <trkpt lat="39.550413322991" lon="2.896643907899">
        <ele>210.8</ele>
        <time>2014-05-03T11:30:36Z</time>
      </trkpt>
      <trkpt lat="39.550352135121" lon="2.896668634504">
        <ele>211.2</ele>
        <time>2014-05-03T11:30:37Z</time>
      </trkpt>
      <trkpt lat="39.550290528156" lon="2.896690678901">
        <ele>211.2</ele>
        <time>2014-05-03T11:30:38Z</time>
      </trkpt>
      <trkpt lat="39.550053320386" lon="2.896791094063">
        <ele>211.6</ele>
        <time>2014-05-03T11:30:42Z</time>
      </trkpt>
      <trkpt lat="39.549991964878" lon="2.89681984398">
        <ele>212</ele>
        <time>2014-05-03T11:30:43Z</time>
      </trkpt>
      <trkpt lat="39.54993060937" lon="2.896848593897">
        <ele>212.4</ele>
        <time>2014-05-03T11:30:44Z</time>
      </trkpt>
      <trkpt lat="39.549868331853" lon="2.896877846728">
        <ele>213</ele>
        <time>2014-05-03T11:30:45Z</time>
      </trkpt>
      <trkpt lat="39.549805551422" lon="2.89690450117">
        <ele>213.4</ele>
        <time>2014-05-03T11:30:46Z</time>
      </trkpt>
      <trkpt lat="39.549438256564" lon="2.897063673451">
        <ele>213.4</ele>
        <time>2014-05-03T11:30:52Z</time>
      </trkpt>
      <trkpt lat="39.549312360426" lon="2.897117066154">
        <ele>213.8</ele>
        <time>2014-05-03T11:30:54Z</time>
      </trkpt>
      <trkpt lat="39.549251088737" lon="2.897141960397">
        <ele>214.2</ele>
        <time>2014-05-03T11:30:55Z</time>
      </trkpt>
      <trkpt lat="39.54918881122" lon="2.897167860468">
        <ele>214.6</ele>
        <time>2014-05-03T11:30:56Z</time>
      </trkpt>
      <trkpt lat="39.549126617522" lon="2.89719619129">
        <ele>215</ele>
        <time>2014-05-03T11:30:57Z</time>
      </trkpt>
      <trkpt lat="39.549064591462" lon="2.897226617587">
        <ele>215.4</ele>
        <time>2014-05-03T11:30:58Z</time>
      </trkpt>
      <trkpt lat="39.548810703711" lon="2.897335917563">
        <ele>215.8</ele>
        <time>2014-05-03T11:31:02Z</time>
      </trkpt>
      <trkpt lat="39.548746917452" lon="2.897362572005">
        <ele>216.4</ele>
        <time>2014-05-03T11:31:03Z</time>
      </trkpt>
      <trkpt lat="39.548682795917" lon="2.897389729361">
        <ele>216.8</ele>
        <time>2014-05-03T11:31:04Z</time>
      </trkpt>
      <trkpt lat="39.54861884202" lon="2.897413617776">
        <ele>217.2</ele>
        <time>2014-05-03T11:31:05Z</time>
      </trkpt>
      <trkpt lat="39.54855430139" lon="2.897433818155">
        <ele>217.6</ele>
        <time>2014-05-03T11:31:06Z</time>
      </trkpt>
      <trkpt lat="39.548242746167" lon="2.897564072881">
        <ele>218</ele>
        <time>2014-05-03T11:31:11Z</time>
      </trkpt>
      <trkpt lat="39.548184575781" lon="2.897594918273">
        <ele>218.4</ele>
        <time>2014-05-03T11:31:12Z</time>
      </trkpt>
      <trkpt lat="39.548125734843" lon="2.897620399249">
        <ele>218.8</ele>
        <time>2014-05-03T11:31:13Z</time>
      </trkpt>
      <trkpt lat="39.548069240837" lon="2.897646718415">
        <ele>219.2</ele>
        <time>2014-05-03T11:31:14Z</time>
      </trkpt>
      <trkpt lat="39.548012495374" lon="2.897681251843">
        <ele>219.6</ele>
        <time>2014-05-03T11:31:15Z</time>
      </trkpt>
      <trkpt lat="39.547901938113" lon="2.897772446915">
        <ele>219.6</ele>
        <time>2014-05-03T11:31:17Z</time>
      </trkpt>
      <trkpt lat="39.547544030983" lon="2.898125157267">
        <ele>219.6</ele>
        <time>2014-05-03T11:31:23Z</time>
      </trkpt>
      <trkpt lat="39.54717212608" lon="2.898507204269">
        <ele>219.6</ele>
        <time>2014-05-03T11:31:29Z</time>
      </trkpt>
      <trkpt lat="39.54673375271" lon="2.898939291214">
        <ele>219.6</ele>
        <time>2014-05-03T11:31:36Z</time>
      </trkpt>
      <trkpt lat="39.546671559012" lon="2.8989974616">
        <ele>219.6</ele>
        <time>2014-05-03T11:31:37Z</time>
      </trkpt>
      <trkpt lat="39.546410462827" lon="2.899241039614">
        <ele>219.6</ele>
        <time>2014-05-03T11:31:41Z</time>
      </trkpt>
      <trkpt lat="39.546344329636" lon="2.899305161149">
        <ele>219.6</ele>
        <time>2014-05-03T11:31:42Z</time>
      </trkpt>
      <trkpt lat="39.546274089314" lon="2.899370875245">
        <ele>219.6</ele>
        <time>2014-05-03T11:31:43Z</time>
      </trkpt>
      <trkpt lat="39.54620066387" lon="2.899440612653">
        <ele>219.6</ele>
        <time>2014-05-03T11:31:44Z</time>
      </trkpt>
      <trkpt lat="39.546127992797" lon="2.899512277898">
        <ele>219.6</ele>
        <time>2014-05-03T11:31:45Z</time>
      </trkpt>
      <trkpt lat="39.546054651172" lon="2.899583943143">
        <ele>219.6</ele>
        <time>2014-05-03T11:31:46Z</time>
      </trkpt>
      <trkpt lat="39.545983321203" lon="2.899651417438">
        <ele>219.2</ele>
        <time>2014-05-03T11:31:47Z</time>
      </trkpt>
      <trkpt lat="39.545906878275" lon="2.899726016348">
        <ele>218.8</ele>
        <time>2014-05-03T11:31:48Z</time>
      </trkpt>
      <trkpt lat="39.545834626297" lon="2.899795083204">
        <ele>218.4</ele>
        <time>2014-05-03T11:31:49Z</time>
      </trkpt>
      <trkpt lat="39.545762458138" lon="2.899867419001">
        <ele>218</ele>
        <time>2014-05-03T11:31:50Z</time>
      </trkpt>
      <trkpt lat="39.545690709074" lon="2.899940006255">
        <ele>217.6</ele>
        <time>2014-05-03T11:31:51Z</time>
      </trkpt>
      <trkpt lat="39.545474539873" lon="2.900149553755">
        <ele>217.6</ele>
        <time>2014-05-03T11:31:54Z</time>
      </trkpt>
      <trkpt lat="39.545267255486" lon="2.90033940379">
        <ele>217.6</ele>
        <time>2014-05-03T11:31:57Z</time>
      </trkpt>
      <trkpt lat="39.544967434923" lon="2.900628746978">
        <ele>217.6</ele>
        <time>2014-05-03T11:32:02Z</time>
      </trkpt>
      <trkpt lat="39.544912701116" lon="2.900681301491">
        <ele>217.6</ele>
        <time>2014-05-03T11:32:03Z</time>
      </trkpt>
      <trkpt lat="39.54485536892" lon="2.900739974791">
        <ele>217.6</ele>
        <time>2014-05-03T11:32:04Z</time>
      </trkpt>
      <trkpt lat="39.544798288181" lon="2.900787500164">
        <ele>217.6</ele>
        <time>2014-05-03T11:32:05Z</time>
      </trkpt>
      <trkpt lat="39.544737938501" lon="2.900835947546">
        <ele>217.6</ele>
        <time>2014-05-03T11:32:06Z</time>
      </trkpt>
      <trkpt lat="39.544678259373" lon="2.900891687181">
        <ele>217.6</ele>
        <time>2014-05-03T11:32:07Z</time>
      </trkpt>
      <trkpt lat="39.544619250797" lon="2.900952036861">
        <ele>217.6</ele>
        <time>2014-05-03T11:32:08Z</time>
      </trkpt>
      <trkpt lat="39.544558062927" lon="2.90101666131">
        <ele>217.6</ele>
        <time>2014-05-03T11:32:09Z</time>
      </trkpt>
      <trkpt lat="39.544497210333" lon="2.901084387062">
        <ele>218</ele>
        <time>2014-05-03T11:32:10Z</time>
      </trkpt>
      <trkpt lat="39.544385731063" lon="2.901236602366">
        <ele>219</ele>
        <time>2014-05-03T11:32:11Z</time>
      </trkpt>
      <trkpt lat="39.544385731063" lon="2.901236602366">
        <ele>219</ele>
        <time>2014-05-03T11:32:12Z</time>
      </trkpt>
      <trkpt lat="39.544326806306" lon="2.901321594832">
        <ele>219.4</ele>
        <time>2014-05-03T11:32:13Z</time>
      </trkpt>
      <trkpt lat="39.544267378635" lon="2.90140558147">
        <ele>219.8</ele>
        <time>2014-05-03T11:32:14Z</time>
      </trkpt>
      <trkpt lat="39.544033523625" lon="2.901764494428">
        <ele>219.8</ele>
        <time>2014-05-03T11:32:18Z</time>
      </trkpt>
      <trkpt lat="39.543915255016" lon="2.901955266472">
        <ele>219</ele>
        <time>2014-05-03T11:32:20Z</time>
      </trkpt>
      <trkpt lat="39.543855743526" lon="2.902048054105">
        <ele>218.6</ele>
        <time>2014-05-03T11:32:21Z</time>
      </trkpt>
      <trkpt lat="39.543800758262" lon="2.902137488978">
        <ele>218.2</ele>
        <time>2014-05-03T11:32:22Z</time>
      </trkpt>
      <trkpt lat="39.543746611188" lon="2.902224828376">
        <ele>217.8</ele>
        <time>2014-05-03T11:32:23Z</time>
      </trkpt>
      <trkpt lat="39.543689530449" lon="2.902310742851">
        <ele>217.8</ele>
        <time>2014-05-03T11:32:24Z</time>
      </trkpt>
      <trkpt lat="39.543629683683" lon="2.902394394213">
        <ele>217.8</ele>
        <time>2014-05-03T11:32:25Z</time>
      </trkpt>
      <trkpt lat="39.54344134239" lon="2.902629171232">
        <ele>217.8</ele>
        <time>2014-05-03T11:32:28Z</time>
      </trkpt>
      <trkpt lat="39.543265573947" lon="2.90283888637">
        <ele>217.8</ele>
        <time>2014-05-03T11:32:31Z</time>
      </trkpt>
      <trkpt lat="39.5432141929" lon="2.902897308213">
        <ele>217.8</ele>
        <time>2014-05-03T11:32:32Z</time>
      </trkpt>
      <trkpt lat="39.543163314767" lon="2.902954891866">
        <ele>217.8</ele>
        <time>2014-05-03T11:32:33Z</time>
      </trkpt>
      <trkpt lat="39.543110089702" lon="2.903013565166">
        <ele>217.8</ele>
        <time>2014-05-03T11:32:34Z</time>
      </trkpt>
      <trkpt lat="39.54305828956" lon="2.903068298973">
        <ele>217.8</ele>
        <time>2014-05-03T11:32:35Z</time>
      </trkpt>
      <trkpt lat="39.543002717563" lon="2.903124625341">
        <ele>217.8</ele>
        <time>2014-05-03T11:32:36Z</time>
      </trkpt>
      <trkpt lat="39.542944379539" lon="2.903178688596">
        <ele>217.8</ele>
        <time>2014-05-03T11:32:37Z</time>
      </trkpt>
      <trkpt lat="39.542716978592" lon="2.903399467842">
        <ele>217.8</ele>
        <time>2014-05-03T11:32:41Z</time>
      </trkpt>
      <trkpt lat="39.542665262269" lon="2.903452189993">
        <ele>217.8</ele>
        <time>2014-05-03T11:32:42Z</time>
      </trkpt>
      <trkpt lat="39.542616144335" lon="2.90350440923">
        <ele>217.8</ele>
        <time>2014-05-03T11:32:43Z</time>
      </trkpt>
      <trkpt lat="39.542569373333" lon="2.903555119725">
        <ele>217.8</ele>
        <time>2014-05-03T11:32:44Z</time>
      </trkpt>
      <trkpt lat="39.542520423037" lon="2.903608680066">
        <ele>217.8</ele>
        <time>2014-05-03T11:32:45Z</time>
      </trkpt>
      <trkpt lat="39.542304170017" lon="2.90381873048">
        <ele>217.8</ele>
        <time>2014-05-03T11:32:49Z</time>
      </trkpt>
      <trkpt lat="39.542191433462" lon="2.903919900013">
        <ele>217.8</ele>
        <time>2014-05-03T11:32:51Z</time>
      </trkpt>
      <trkpt lat="39.541816594894" lon="2.904307981983">
        <ele>217.8</ele>
        <time>2014-05-03T11:32:58Z</time>
      </trkpt>
      <trkpt lat="39.541706792004" lon="2.904416024674">
        <ele>218.2</ele>
        <time>2014-05-03T11:33:00Z</time>
      </trkpt>
      <trkpt lat="39.54165264493" lon="2.904470674662">
        <ele>218.6</ele>
        <time>2014-05-03T11:33:01Z</time>
      </trkpt>
      <trkpt lat="39.541597911123" lon="2.904529096505">
        <ele>219</ele>
        <time>2014-05-03T11:33:02Z</time>
      </trkpt>
      <trkpt lat="39.541545691886" lon="2.904585590511">
        <ele>219.4</ele>
        <time>2014-05-03T11:33:03Z</time>
      </trkpt>
      <trkpt lat="39.541491125717" lon="2.904641413965">
        <ele>219.8</ele>
        <time>2014-05-03T11:33:04Z</time>
      </trkpt>
      <trkpt lat="39.541438571204" lon="2.904694052297">
        <ele>219.8</ele>
        <time>2014-05-03T11:33:05Z</time>
      </trkpt>
      <trkpt lat="39.541172697336" lon="2.90495280155">
        <ele>220.6</ele>
        <time>2014-05-03T11:33:10Z</time>
      </trkpt>
      <trkpt lat="39.541115951873" lon="2.905006361891">
        <ele>221.2</ele>
        <time>2014-05-03T11:33:11Z</time>
      </trkpt>
      <trkpt lat="39.54106172098" lon="2.905057826757">
        <ele>221.6</ele>
        <time>2014-05-03T11:33:12Z</time>
      </trkpt>
      <trkpt lat="39.541008663553" lon="2.905112812021">
        <ele>222</ele>
        <time>2014-05-03T11:33:13Z</time>
      </trkpt>
      <trkpt lat="39.540640698143" lon="2.905479436327">
        <ele>222</ele>
        <time>2014-05-03T11:33:20Z</time>
      </trkpt>
      <trkpt lat="39.540531733443" lon="2.905586808466">
        <ele>222.4</ele>
        <time>2014-05-03T11:33:22Z</time>
      </trkpt>
      <trkpt lat="39.540477083455" lon="2.905640452626">
        <ele>222.8</ele>
        <time>2014-05-03T11:33:23Z</time>
      </trkpt>
      <trkpt lat="39.540422433467" lon="2.905696024623">
        <ele>223.2</ele>
        <time>2014-05-03T11:33:24Z</time>
      </trkpt>
      <trkpt lat="39.540367029108" lon="2.905751764258">
        <ele>223.8</ele>
        <time>2014-05-03T11:33:25Z</time>
      </trkpt>
      <trkpt lat="39.540311792387" lon="2.905803229124">
        <ele>224.2</ele>
        <time>2014-05-03T11:33:26Z</time>
      </trkpt>
      <trkpt lat="39.540149015889" lon="2.905964748337">
        <ele>224.6</ele>
        <time>2014-05-03T11:33:29Z</time>
      </trkpt>
      <trkpt lat="39.540097131928" lon="2.906016883755">
        <ele>225</ele>
        <time>2014-05-03T11:33:30Z</time>
      </trkpt>
      <trkpt lat="39.540047343442" lon="2.906071869019">
        <ele>225.4</ele>
        <time>2014-05-03T11:33:31Z</time>
      </trkpt>
      <trkpt lat="39.539997471137" lon="2.906128279206">
        <ele>225.8</ele>
        <time>2014-05-03T11:33:32Z</time>
      </trkpt>
      <trkpt lat="39.53994776647" lon="2.9061807499">
        <ele>226.2</ele>
        <time>2014-05-03T11:33:33Z</time>
      </trkpt>
      <trkpt lat="39.539757748797" lon="2.906408318485">
        <ele>226.6</ele>
        <time>2014-05-03T11:33:37Z</time>
      </trkpt>
      <trkpt lat="39.539709804329" lon="2.906472775296">
        <ele>227</ele>
        <time>2014-05-03T11:33:38Z</time>
      </trkpt>
      <trkpt lat="39.53966278187" lon="2.906535220451">
        <ele>227.6</ele>
        <time>2014-05-03T11:33:39Z</time>
      </trkpt>
      <trkpt lat="39.539614418307" lon="2.906600180176">
        <ele>228</ele>
        <time>2014-05-03T11:33:40Z</time>
      </trkpt>
      <trkpt lat="39.539565887106" lon="2.906661535684">
        <ele>228.4</ele>
        <time>2014-05-03T11:33:41Z</time>
      </trkpt>
      <trkpt lat="39.539330271897" lon="2.906987004861">
        <ele>228.4</ele>
        <time>2014-05-03T11:33:46Z</time>
      </trkpt>
      <trkpt lat="39.539033552637" lon="2.907422025471">
        <ele>228.4</ele>
        <time>2014-05-03T11:33:53Z</time>
      </trkpt>
      <trkpt lat="39.538997845743" lon="2.907472987423">
        <ele>228.4</ele>
        <time>2014-05-03T11:33:54Z</time>
      </trkpt>
      <trkpt lat="39.538896843848" lon="2.907613468067">
        <ele>228.8</ele>
        <time>2014-05-03T11:33:57Z</time>
      </trkpt>
      <trkpt lat="39.538862729515" lon="2.907663927105">
        <ele>229.2</ele>
        <time>2014-05-03T11:33:58Z</time>
      </trkpt>
      <trkpt lat="39.538830207743" lon="2.907715224333">
        <ele>230</ele>
        <time>2014-05-03T11:33:59Z</time>
      </trkpt>
      <trkpt lat="39.538797853609" lon="2.907764006991">
        <ele>230.4</ele>
        <time>2014-05-03T11:34:00Z</time>
      </trkpt>
      <trkpt lat="39.53867623224" lon="2.90793927252">
        <ele>230.4</ele>
        <time>2014-05-03T11:34:04Z</time>
      </trkpt>
      <trkpt lat="39.538548240627" lon="2.90813624717">
        <ele>231</ele>
        <time>2014-05-03T11:34:09Z</time>
      </trkpt>
      <trkpt lat="39.538522340556" lon="2.908172456978">
        <ele>231.4</ele>
        <time>2014-05-03T11:34:10Z</time>
      </trkpt>
      <trkpt lat="39.538495602295" lon="2.908206487492">
        <ele>232</ele>
        <time>2014-05-03T11:34:11Z</time>
      </trkpt>
      <trkpt lat="39.538468528758" lon="2.908239679816">
        <ele>232.4</ele>
        <time>2014-05-03T11:34:12Z</time>
      </trkpt>
      <trkpt lat="39.538444221248" lon="2.90827706309">
        <ele>233</ele>
        <time>2014-05-03T11:34:13Z</time>
      </trkpt>
      <trkpt lat="39.538391163821" lon="2.908343783014">
        <ele>233</ele>
        <time>2014-05-03T11:34:15Z</time>
      </trkpt>
      <trkpt lat="39.538209528048" lon="2.90862323556">
        <ele>233</ele>
        <time>2014-05-03T11:34:22Z</time>
      </trkpt>
      <trkpt lat="39.538104502841" lon="2.908771930466">
        <ele>233.4</ele>
        <time>2014-05-03T11:34:26Z</time>
      </trkpt>
      <trkpt lat="39.538078435132" lon="2.908810822482">
        <ele>233.8</ele>
        <time>2014-05-03T11:34:27Z</time>
      </trkpt>
      <trkpt lat="39.538050858681" lon="2.908852815801">
        <ele>234.2</ele>
        <time>2014-05-03T11:34:28Z</time>
      </trkpt>
      <trkpt lat="39.538024539515" lon="2.90889229455">
        <ele>234.6</ele>
        <time>2014-05-03T11:34:29Z</time>
      </trkpt>
      <trkpt lat="39.537999980548" lon="2.908933282041">
        <ele>235.2</ele>
        <time>2014-05-03T11:34:30Z</time>
      </trkpt>
      <trkpt lat="39.53777182523" lon="2.909228911654">
        <ele>235.6</ele>
        <time>2014-05-03T11:34:38Z</time>
      </trkpt>
      <trkpt lat="39.537742320942" lon="2.909263277444">
        <ele>236</ele>
        <time>2014-05-03T11:34:39Z</time>
      </trkpt>
      <trkpt lat="39.53771231374" lon="2.909297643234">
        <ele>236.4</ele>
        <time>2014-05-03T11:34:40Z</time>
      </trkpt>
      <trkpt lat="39.537682725633" lon="2.909331673748">
        <ele>237</ele>
        <time>2014-05-03T11:34:41Z</time>
      </trkpt>
      <trkpt lat="39.537652550793" lon="2.9093658719">
        <ele>237.4</ele>
        <time>2014-05-03T11:34:42Z</time>
      </trkpt>
      <trkpt lat="39.537487762639" lon="2.909513225702">
        <ele>237.4</ele>
        <time>2014-05-03T11:34:47Z</time>
      </trkpt>
      <trkpt lat="39.537454318858" lon="2.909538958135">
        <ele>237.8</ele>
        <time>2014-05-03T11:34:48Z</time>
      </trkpt>
      <trkpt lat="39.537420539801" lon="2.909564690568">
        <ele>238.2</ele>
        <time>2014-05-03T11:34:49Z</time>
      </trkpt>
      <trkpt lat="39.537387431296" lon="2.909589165716">
        <ele>238.6</ele>
        <time>2014-05-03T11:34:50Z</time>
      </trkpt>
      <trkpt lat="39.537353736058" lon="2.909613808502">
        <ele>239</ele>
        <time>2014-05-03T11:34:51Z</time>
      </trkpt>
      <trkpt lat="39.537319370268" lon="2.909638367469">
        <ele>239.4</ele>
        <time>2014-05-03T11:34:52Z</time>
      </trkpt>
      <trkpt lat="39.537175369226" lon="2.909733082939">
        <ele>239.8</ele>
        <time>2014-05-03T11:34:56Z</time>
      </trkpt>
      <trkpt lat="39.537140332884" lon="2.909751690757">
        <ele>240.2</ele>
        <time>2014-05-03T11:34:57Z</time>
      </trkpt>
      <trkpt lat="39.537103117248" lon="2.909769628023">
        <ele>240.6</ele>
        <time>2014-05-03T11:34:58Z</time>
      </trkpt>
      <trkpt lat="39.53706355468" lon="2.909790163678">
        <ele>241</ele>
        <time>2014-05-03T11:34:59Z</time>
      </trkpt>
      <trkpt lat="39.537026087587" lon="2.909811034609">
        <ele>241.4</ele>
        <time>2014-05-03T11:35:00Z</time>
      </trkpt>
      <trkpt lat="39.536846295832" lon="2.909922513879">
        <ele>241.4</ele>
        <time>2014-05-03T11:35:05Z</time>
      </trkpt>
      <trkpt lat="39.536806565626" lon="2.909941456973">
        <ele>241.4</ele>
        <time>2014-05-03T11:35:06Z</time>
      </trkpt>
      <trkpt lat="39.53652124575" lon="2.91008420073">
        <ele>241.4</ele>
        <time>2014-05-03T11:35:13Z</time>
      </trkpt>
      <trkpt lat="39.536439019311" lon="2.910126026411">
        <ele>241.4</ele>
        <time>2014-05-03T11:35:15Z</time>
      </trkpt>
      <trkpt lat="39.536307423481" lon="2.910195344724">
        <ele>241.4</ele>
        <time>2014-05-03T11:35:18Z</time>
      </trkpt>
      <trkpt lat="39.536221341368" lon="2.910240690803">
        <ele>241.4</ele>
        <time>2014-05-03T11:35:20Z</time>
      </trkpt>
      <trkpt lat="39.53617591147" lon="2.910261310277">
        <ele>241.4</ele>
        <time>2014-05-03T11:35:21Z</time>
      </trkpt>
      <trkpt lat="39.536064599838" lon="2.910296681895">
        <ele>241.4</ele>
        <time>2014-05-03T11:35:23Z</time>
      </trkpt>
      <trkpt lat="39.535939038976" lon="2.910327192011">
        <ele>241.4</ele>
        <time>2014-05-03T11:35:25Z</time>
      </trkpt>
      <trkpt lat="39.535739885032" lon="2.910339094309">
        <ele>241.4</ele>
        <time>2014-05-03T11:35:28Z</time>
      </trkpt>
      <trkpt lat="39.535601499863" lon="2.910328365477">
        <ele>241.4</ele>
        <time>2014-05-03T11:35:30Z</time>
      </trkpt>
      <trkpt lat="39.535527487686" lon="2.910320989405">
        <ele>241.4</ele>
        <time>2014-05-03T11:35:31Z</time>
      </trkpt>
      <trkpt lat="39.535381223531" lon="2.910304225605">
        <ele>241</ele>
        <time>2014-05-03T11:35:33Z</time>
      </trkpt>
      <trkpt lat="39.535306205526" lon="2.910294334963">
        <ele>240.6</ele>
        <time>2014-05-03T11:35:34Z</time>
      </trkpt>
      <trkpt lat="39.535232360987" lon="2.910286539796">
        <ele>240.2</ele>
        <time>2014-05-03T11:35:35Z</time>
      </trkpt>
      <trkpt lat="39.535159019362" lon="2.910273296394">
        <ele>239.8</ele>
        <time>2014-05-03T11:35:36Z</time>
      </trkpt>
      <trkpt lat="39.535084001357" lon="2.910258795707">
        <ele>238.8</ele>
        <time>2014-05-03T11:35:37Z</time>
      </trkpt>
      <trkpt lat="39.535006971696" lon="2.9102459714">
        <ele>238.4</ele>
        <time>2014-05-03T11:35:38Z</time>
      </trkpt>
      <trkpt lat="39.534926589275" lon="2.910234907292">
        <ele>237.8</ele>
        <time>2014-05-03T11:35:39Z</time>
      </trkpt>
      <trkpt lat="39.534848386148" lon="2.910224513736">
        <ele>237.4</ele>
        <time>2014-05-03T11:35:40Z</time>
      </trkpt>
      <trkpt lat="39.53460262884" lon="2.910191572869">
        <ele>237.4</ele>
        <time>2014-05-03T11:35:43Z</time>
      </trkpt>
      <trkpt lat="39.534517384917" lon="2.910180005847">
        <ele>236.8</ele>
        <time>2014-05-03T11:35:44Z</time>
      </trkpt>
      <trkpt lat="39.534429877881" lon="2.910167600635">
        <ele>236.4</ele>
        <time>2014-05-03T11:35:45Z</time>
      </trkpt>
      <trkpt lat="39.534334575678" lon="2.910152680853">
        <ele>235.8</ele>
        <time>2014-05-03T11:35:46Z</time>
      </trkpt>
      <trkpt lat="39.534242710054" lon="2.910138431623">
        <ele>235.2</ele>
        <time>2014-05-03T11:35:47Z</time>
      </trkpt>
      <trkpt lat="39.534151514982" lon="2.910123092746">
        <ele>234.6</ele>
        <time>2014-05-03T11:35:48Z</time>
      </trkpt>
      <trkpt lat="39.534056715693" lon="2.910106999498">
        <ele>234</ele>
        <time>2014-05-03T11:35:49Z</time>
      </trkpt>
      <trkpt lat="39.533959569472" lon="2.910094845743">
        <ele>233.2</ele>
        <time>2014-05-03T11:35:50Z</time>
      </trkpt>
      <trkpt lat="39.533859824862" lon="2.910077411391">
        <ele>232.6</ele>
        <time>2014-05-03T11:35:51Z</time>
      </trkpt>
      <trkpt lat="39.533655977054" lon="2.910045476352">
        <ele>232.2</ele>
        <time>2014-05-03T11:35:53Z</time>
      </trkpt>
      <trkpt lat="39.533546928535" lon="2.91003055657">
        <ele>231.8</ele>
        <time>2014-05-03T11:35:54Z</time>
      </trkpt>
      <trkpt lat="39.533442741518" lon="2.910015385331">
        <ele>231</ele>
        <time>2014-05-03T11:35:55Z</time>
      </trkpt>
      <trkpt lat="39.533337632492" lon="2.909998872988">
        <ele>230.4</ele>
        <time>2014-05-03T11:35:56Z</time>
      </trkpt>
      <trkpt lat="39.533232020552" lon="2.909979678437">
        <ele>229.8</ele>
        <time>2014-05-03T11:35:57Z</time>
      </trkpt>
      <trkpt lat="39.533126408612" lon="2.909962998456">
        <ele>229</ele>
        <time>2014-05-03T11:35:58Z</time>
      </trkpt>
      <trkpt lat="39.533024484708" lon="2.909944977371">
        <ele>228.4</ele>
        <time>2014-05-03T11:35:59Z</time>
      </trkpt>
      <trkpt lat="39.532647383027" lon="2.909870629918">
        <ele>228.4</ele>
        <time>2014-05-03T11:36:03Z</time>
      </trkpt>
      <trkpt lat="39.532165842872" lon="2.909787984384">
        <ele>228.8</ele>
        <time>2014-05-03T11:36:09Z</time>
      </trkpt>
      <trkpt lat="39.532090741048" lon="2.909776333543">
        <ele>229.2</ele>
        <time>2014-05-03T11:36:10Z</time>
      </trkpt>
      <trkpt lat="39.532014968672" lon="2.909765017978">
        <ele>229.8</ele>
        <time>2014-05-03T11:36:11Z</time>
      </trkpt>
      <trkpt lat="39.531939531572" lon="2.909754289146">
        <ele>230.2</ele>
        <time>2014-05-03T11:36:12Z</time>
      </trkpt>
      <trkpt lat="39.531866944318" lon="2.909745069056">
        <ele>230.6</ele>
        <time>2014-05-03T11:36:13Z</time>
      </trkpt>
      <trkpt lat="39.531733755927" lon="2.909719001347">
        <ele>230.6</ele>
        <time>2014-05-03T11:36:15Z</time>
      </trkpt>
      <trkpt lat="39.53153233887" lon="2.909685306109">
        <ele>231</ele>
        <time>2014-05-03T11:36:18Z</time>
      </trkpt>
      <trkpt lat="39.531465535127" lon="2.909674996372">
        <ele>231.4</ele>
        <time>2014-05-03T11:36:19Z</time>
      </trkpt>
      <trkpt lat="39.531400156307" lon="2.909662172065">
        <ele>232</ele>
        <time>2014-05-03T11:36:20Z</time>
      </trkpt>
      <trkpt lat="39.531330921813" lon="2.909650940319">
        <ele>232.4</ele>
        <time>2014-05-03T11:36:21Z</time>
      </trkpt>
      <trkpt lat="39.53126495626" lon="2.909641049677">
        <ele>232.8</ele>
        <time>2014-05-03T11:36:22Z</time>
      </trkpt>
      <trkpt lat="39.531198487793" lon="2.909629650293">
        <ele>232.8</ele>
        <time>2014-05-03T11:36:23Z</time>
      </trkpt>
      <trkpt lat="39.53099422089" lon="2.90959302139">
        <ele>232.8</ele>
        <time>2014-05-03T11:36:26Z</time>
      </trkpt>
      <trkpt lat="39.530510669079" lon="2.909527139656">
        <ele>232.8</ele>
        <time>2014-05-03T11:36:33Z</time>
      </trkpt>
      <trkpt lat="39.530298271733" lon="2.909493360599">
        <ele>232.8</ele>
        <time>2014-05-03T11:36:36Z</time>
      </trkpt>
      <trkpt lat="39.530228534325" lon="2.909482128853">
        <ele>232.8</ele>
        <time>2014-05-03T11:36:37Z</time>
      </trkpt>
      <trkpt lat="39.530012951857" lon="2.909451954013">
        <ele>232.8</ele>
        <time>2014-05-03T11:36:40Z</time>
      </trkpt>
      <trkpt lat="39.529945226105" lon="2.909441057543">
        <ele>232.8</ele>
        <time>2014-05-03T11:36:41Z</time>
      </trkpt>
      <trkpt lat="39.529804745461" lon="2.909422701182">
        <ele>232.8</ele>
        <time>2014-05-03T11:36:43Z</time>
      </trkpt>
      <trkpt lat="39.529606262069" lon="2.909390766143">
        <ele>232.8</ele>
        <time>2014-05-03T11:36:46Z</time>
      </trkpt>
      <trkpt lat="39.529172414925" lon="2.909306611867">
        <ele>233.4</ele>
        <time>2014-05-03T11:36:53Z</time>
      </trkpt>
      <trkpt lat="39.529112149064" lon="2.909290853895">
        <ele>233.8</ele>
        <time>2014-05-03T11:36:54Z</time>
      </trkpt>
      <trkpt lat="39.52905213466" lon="2.909271826982">
        <ele>234.4</ele>
        <time>2014-05-03T11:36:55Z</time>
      </trkpt>
      <trkpt lat="39.528988264582" lon="2.909252464793">
        <ele>235</ele>
        <time>2014-05-03T11:36:56Z</time>
      </trkpt>
      <trkpt lat="39.528929088368" lon="2.909236874459">
        <ele>235.6</ele>
        <time>2014-05-03T11:36:57Z</time>
      </trkpt>
      <trkpt lat="39.528754409572" lon="2.909187085973">
        <ele>235.6</ele>
        <time>2014-05-03T11:37:00Z</time>
      </trkpt>
      <trkpt lat="39.528631447099" lon="2.909150792346">
        <ele>236</ele>
        <time>2014-05-03T11:37:02Z</time>
      </trkpt>
      <trkpt lat="39.528569672496" lon="2.909130591967">
        <ele>236.4</ele>
        <time>2014-05-03T11:37:03Z</time>
      </trkpt>
      <trkpt lat="39.528507227341" lon="2.909110475407">
        <ele>236.8</ele>
        <time>2014-05-03T11:37:04Z</time>
      </trkpt>
      <trkpt lat="39.528441513245" lon="2.9090892692">
        <ele>237.2</ele>
        <time>2014-05-03T11:37:05Z</time>
      </trkpt>
      <trkpt lat="39.528375128597" lon="2.909064039681">
        <ele>237.6</ele>
        <time>2014-05-03T11:37:06Z</time>
      </trkpt>
      <trkpt lat="39.528306816112" lon="2.909032356099">
        <ele>237.6</ele>
        <time>2014-05-03T11:37:07Z</time>
      </trkpt>
      <trkpt lat="39.528038511493" lon="2.908893300378">
        <ele>237.2</ele>
        <time>2014-05-03T11:37:11Z</time>
      </trkpt>
      <trkpt lat="39.527975228148" lon="2.908856503837">
        <ele>236.8</ele>
        <time>2014-05-03T11:37:12Z</time>
      </trkpt>
      <trkpt lat="39.527911274251" lon="2.908819874934">
        <ele>236.4</ele>
        <time>2014-05-03T11:37:13Z</time>
      </trkpt>
      <trkpt lat="39.527843967594" lon="2.908783916583">
        <ele>235.8</ele>
        <time>2014-05-03T11:37:14Z</time>
      </trkpt>
      <trkpt lat="39.527776660937" lon="2.908745946576">
        <ele>235.4</ele>
        <time>2014-05-03T11:37:15Z</time>
      </trkpt>
      <trkpt lat="39.527440965842" lon="2.908537404904">
        <ele>235.4</ele>
        <time>2014-05-03T11:37:20Z</time>
      </trkpt>
      <trkpt lat="39.527195879086" lon="2.908349482706">
        <ele>235.4</ele>
        <time>2014-05-03T11:37:24Z</time>
      </trkpt>
      <trkpt lat="39.526709058334" lon="2.907943547289">
        <ele>235.4</ele>
        <time>2014-05-03T11:37:32Z</time>
      </trkpt>
      <trkpt lat="39.526425331019" lon="2.907703992587">
        <ele>235.8</ele>
        <time>2014-05-03T11:37:37Z</time>
      </trkpt>
      <trkpt lat="39.526367328271" lon="2.907658395051">
        <ele>236.4</ele>
        <time>2014-05-03T11:37:38Z</time>
      </trkpt>
      <trkpt lat="39.526309157885" lon="2.907610450583">
        <ele>236.8</ele>
        <time>2014-05-03T11:37:39Z</time>
      </trkpt>
      <trkpt lat="39.526251490413" lon="2.90756124883">
        <ele>237.2</ele>
        <time>2014-05-03T11:37:40Z</time>
      </trkpt>
      <trkpt lat="39.526188207068" lon="2.907509448688">
        <ele>237.6</ele>
        <time>2014-05-03T11:37:41Z</time>
      </trkpt>
      <trkpt lat="39.525893667102" lon="2.907269391072">
        <ele>237.6</ele>
        <time>2014-05-03T11:37:46Z</time>
      </trkpt>
      <trkpt lat="39.525542465492" lon="2.907064537436">
        <ele>237.6</ele>
        <time>2014-05-03T11:37:51Z</time>
      </trkpt>
      <trkpt lat="39.52522160636" lon="2.906937719289">
        <ele>237.6</ele>
        <time>2014-05-03T11:37:55Z</time>
      </trkpt>
      <trkpt lat="39.525135356609" lon="2.906912238313">
        <ele>237</ele>
        <time>2014-05-03T11:37:56Z</time>
      </trkpt>
      <trkpt lat="39.525054471274" lon="2.906889523364">
        <ele>236.6</ele>
        <time>2014-05-03T11:37:57Z</time>
      </trkpt>
      <trkpt lat="39.524974088853" lon="2.906868820071">
        <ele>236</ele>
        <time>2014-05-03T11:37:58Z</time>
      </trkpt>
      <trkpt lat="39.524893538794" lon="2.906849457882">
        <ele>235.6</ele>
        <time>2014-05-03T11:37:59Z</time>
      </trkpt>
      <trkpt lat="39.524816173857" lon="2.906827748761">
        <ele>235</ele>
        <time>2014-05-03T11:38:00Z</time>
      </trkpt>
      <trkpt lat="39.524591203661" lon="2.906755580602">
        <ele>235</ele>
        <time>2014-05-03T11:38:03Z</time>
      </trkpt>
      <trkpt lat="39.524385595654" lon="2.906710150704">
        <ele>235</ele>
        <time>2014-05-03T11:38:06Z</time>
      </trkpt>
      <trkpt lat="39.524331029485" lon="2.906742421019">
        <ele>235</ele>
        <time>2014-05-03T11:38:07Z</time>
      </trkpt>
      <trkpt lat="39.524316528798" lon="2.906852223909">
        <ele>235</ele>
        <time>2014-05-03T11:38:09Z</time>
      </trkpt>
      <trkpt lat="39.524402191816" lon="2.907040229926">
        <ele>235</ele>
        <time>2014-05-03T11:38:13Z</time>
      </trkpt>
      <trkpt lat="39.524424990584" lon="2.907072919336">
        <ele>235.4</ele>
        <time>2014-05-03T11:38:14Z</time>
      </trkpt>
      <trkpt lat="39.524445107144" lon="2.90710611166">
        <ele>235.8</ele>
        <time>2014-05-03T11:38:15Z</time>
      </trkpt>
      <trkpt lat="39.524464972247" lon="2.907138130518">
        <ele>236.2</ele>
        <time>2014-05-03T11:38:16Z</time>
      </trkpt>
      <trkpt lat="39.524486681368" lon="2.907170400833">
        <ele>236.8</ele>
        <time>2014-05-03T11:38:17Z</time>
      </trkpt>
      <trkpt lat="39.524502858435" lon="2.907201916777">
        <ele>237.2</ele>
        <time>2014-05-03T11:38:18Z</time>
      </trkpt>
      <trkpt lat="39.524538565329" lon="2.907309959468">
        <ele>237.6</ele>
        <time>2014-05-03T11:38:21Z</time>
      </trkpt>
      <trkpt lat="39.524553317473" lon="2.907345750181">
        <ele>238</ele>
        <time>2014-05-03T11:38:22Z</time>
      </trkpt>
      <trkpt lat="39.524573434033" lon="2.907382127627">
        <ele>238.4</ele>
        <time>2014-05-03T11:38:23Z</time>
      </trkpt>
      <trkpt lat="39.524593634412" lon="2.907420013815">
        <ele>238.8</ele>
        <time>2014-05-03T11:38:24Z</time>
      </trkpt>
      <trkpt lat="39.524612661325" lon="2.907459744021">
        <ele>239.2</ele>
        <time>2014-05-03T11:38:25Z</time>
      </trkpt>
      <trkpt lat="39.524677704869" lon="2.90756879254">
        <ele>239.2</ele>
        <time>2014-05-03T11:38:28Z</time>
      </trkpt>
      <trkpt lat="39.524700084542" lon="2.907601901045">
        <ele>239.2</ele>
        <time>2014-05-03T11:38:29Z</time>
      </trkpt>
      <trkpt lat="39.524739898567" lon="2.907680439448">
        <ele>239.8</ele>
        <time>2014-05-03T11:38:31Z</time>
      </trkpt>
      <trkpt lat="39.524759512213" lon="2.907721929853">
        <ele>240.2</ele>
        <time>2014-05-03T11:38:32Z</time>
      </trkpt>
      <trkpt lat="39.52477820385" lon="2.907764342267">
        <ele>240.6</ele>
        <time>2014-05-03T11:38:33Z</time>
      </trkpt>
      <trkpt lat="39.524797733677" lon="2.907804826844">
        <ele>241</ele>
        <time>2014-05-03T11:38:34Z</time>
      </trkpt>
      <trkpt lat="39.524822292644" lon="2.907845562878">
        <ele>241.4</ele>
        <time>2014-05-03T11:38:35Z</time>
      </trkpt>
      <trkpt lat="39.524889012568" lon="2.907974392681">
        <ele>241.4</ele>
        <time>2014-05-03T11:38:38Z</time>
      </trkpt>
      <trkpt lat="39.524904938178" lon="2.908018649113">
        <ele>241.4</ele>
        <time>2014-05-03T11:38:39Z</time>
      </trkpt>
      <trkpt lat="39.524949529886" lon="2.908168266028">
        <ele>242</ele>
        <time>2014-05-03T11:38:42Z</time>
      </trkpt>
      <trkpt lat="39.524959504347" lon="2.908219311799">
        <ele>242.4</ele>
        <time>2014-05-03T11:38:43Z</time>
      </trkpt>
      <trkpt lat="39.524970736093" lon="2.908268765009">
        <ele>242.8</ele>
        <time>2014-05-03T11:38:44Z</time>
      </trkpt>
      <trkpt lat="39.524982973667" lon="2.9083181344">
        <ele>243.2</ele>
        <time>2014-05-03T11:38:45Z</time>
      </trkpt>
      <trkpt lat="39.524996887621" lon="2.908367168515">
        <ele>243.6</ele>
        <time>2014-05-03T11:38:46Z</time>
      </trkpt>
      <trkpt lat="39.525030582859" lon="2.90857126778">
        <ele>243.6</ele>
        <time>2014-05-03T11:38:50Z</time>
      </trkpt>
      <trkpt lat="39.525035779637" lon="2.908620469533">
        <ele>243.6</ele>
        <time>2014-05-03T11:38:51Z</time>
      </trkpt>
      <trkpt lat="39.525065367744" lon="2.908771259914">
        <ele>243.6</ele>
        <time>2014-05-03T11:38:54Z</time>
      </trkpt>
      <trkpt lat="39.525092776557" lon="2.908880056976">
        <ele>243.6</ele>
        <time>2014-05-03T11:38:56Z</time>
      </trkpt>
      <trkpt lat="39.525135859523" lon="2.909040067447">
        <ele>243.6</ele>
        <time>2014-05-03T11:38:59Z</time>
      </trkpt>
      <trkpt lat="39.525221941636" lon="2.909232432052">
        <ele>244</ele>
        <time>2014-05-03T11:39:03Z</time>
      </trkpt>
      <trkpt lat="39.525247757888" lon="2.909280879434">
        <ele>244.4</ele>
        <time>2014-05-03T11:39:04Z</time>
      </trkpt>
      <trkpt lat="39.525273909416" lon="2.909326560789">
        <ele>245</ele>
        <time>2014-05-03T11:39:05Z</time>
      </trkpt>
      <trkpt lat="39.525299809487" lon="2.909368302651">
        <ele>245.4</ele>
        <time>2014-05-03T11:39:06Z</time>
      </trkpt>
      <trkpt lat="39.525322608255" lon="2.909406021201">
        <ele>245.8</ele>
        <time>2014-05-03T11:39:07Z</time>
      </trkpt>
      <trkpt lat="39.525355968217" lon="2.909477518808">
        <ele>245.8</ele>
        <time>2014-05-03T11:39:09Z</time>
      </trkpt>
      <trkpt lat="39.525474153007" lon="2.909698381873">
        <ele>246.2</ele>
        <time>2014-05-03T11:39:15Z</time>
      </trkpt>
      <trkpt lat="39.525496365042" lon="2.909743308857">
        <ele>246.6</ele>
        <time>2014-05-03T11:39:16Z</time>
      </trkpt>
      <trkpt lat="39.525520756371" lon="2.909790247497">
        <ele>247</ele>
        <time>2014-05-03T11:39:17Z</time>
      </trkpt>
      <trkpt lat="39.525547410813" lon="2.90983609649">
        <ele>247.4</ele>
        <time>2014-05-03T11:39:18Z</time>
      </trkpt>
      <trkpt lat="39.525572891789" lon="2.909877000162">
        <ele>247.8</ele>
        <time>2014-05-03T11:39:19Z</time>
      </trkpt>
      <trkpt lat="39.525677078806" lon="2.910075735011">
        <ele>248.2</ele>
        <time>2014-05-03T11:39:24Z</time>
      </trkpt>
      <trkpt lat="39.525697949737" lon="2.910114543208">
        <ele>248.6</ele>
        <time>2014-05-03T11:39:25Z</time>
      </trkpt>
      <trkpt lat="39.525721586695" lon="2.910153099948">
        <ele>249</ele>
        <time>2014-05-03T11:39:26Z</time>
      </trkpt>
      <trkpt lat="39.525745056015" lon="2.910195596181">
        <ele>249.4</ele>
        <time>2014-05-03T11:39:27Z</time>
      </trkpt>
      <trkpt lat="39.525766010765" lon="2.910239517337">
        <ele>249.8</ele>
        <time>2014-05-03T11:39:28Z</time>
      </trkpt>
      <trkpt lat="39.52583097049" lon="2.910350912788">
        <ele>249.8</ele>
        <time>2014-05-03T11:39:31Z</time>
      </trkpt>
      <trkpt lat="39.525862318796" lon="2.910422494214">
        <ele>250.4</ele>
        <time>2014-05-03T11:39:33Z</time>
      </trkpt>
      <trkpt lat="39.52588126189" lon="2.910455351262">
        <ele>250.8</ele>
        <time>2014-05-03T11:39:34Z</time>
      </trkpt>
      <trkpt lat="39.525899534432" lon="2.91048569374">
        <ele>251.2</ele>
        <time>2014-05-03T11:39:35Z</time>
      </trkpt>
      <trkpt lat="39.525919231897" lon="2.91051586858">
        <ele>251.6</ele>
        <time>2014-05-03T11:39:36Z</time>
      </trkpt>
      <trkpt lat="39.525939180819" lon="2.910549312361">
        <ele>252.2</ele>
        <time>2014-05-03T11:39:37Z</time>
      </trkpt>
      <trkpt lat="39.52599441754" lon="2.910659366708">
        <ele>252.6</ele>
        <time>2014-05-03T11:39:40Z</time>
      </trkpt>
      <trkpt lat="39.526013109177" lon="2.910694151593">
        <ele>253</ele>
        <time>2014-05-03T11:39:41Z</time>
      </trkpt>
      <trkpt lat="39.526031465538" lon="2.910727679193">
        <ele>253.4</ele>
        <time>2014-05-03T11:39:42Z</time>
      </trkpt>
      <trkpt lat="39.526051665917" lon="2.910758776042">
        <ele>254</ele>
        <time>2014-05-03T11:39:43Z</time>
      </trkpt>
      <trkpt lat="39.526068932631" lon="2.910789453796">
        <ele>254.4</ele>
        <time>2014-05-03T11:39:44Z</time>
      </trkpt>
      <trkpt lat="39.526102879326" lon="2.910851898951">
        <ele>254.4</ele>
        <time>2014-05-03T11:39:46Z</time>
      </trkpt>
      <trkpt lat="39.526136406926" lon="2.910914344106">
        <ele>254.8</ele>
        <time>2014-05-03T11:39:48Z</time>
      </trkpt>
      <trkpt lat="39.526154679468" lon="2.910948290801">
        <ele>255.2</ele>
        <time>2014-05-03T11:39:49Z</time>
      </trkpt>
      <trkpt lat="39.526174544571" lon="2.910981566944">
        <ele>255.6</ele>
        <time>2014-05-03T11:39:50Z</time>
      </trkpt>
      <trkpt lat="39.526193320027" lon="2.911011574146">
        <ele>256</ele>
        <time>2014-05-03T11:39:51Z</time>
      </trkpt>
      <trkpt lat="39.526211089655" lon="2.911040743158">
        <ele>256.6</ele>
        <time>2014-05-03T11:39:52Z</time>
      </trkpt>
      <trkpt lat="39.52622994893" lon="2.911068487247">
        <ele>256.6</ele>
        <time>2014-05-03T11:39:53Z</time>
      </trkpt>
      <trkpt lat="39.526300524528" lon="2.911147780021">
        <ele>257</ele>
        <time>2014-05-03T11:39:56Z</time>
      </trkpt>
      <trkpt lat="39.526327849522" lon="2.911172255169">
        <ele>257.4</ele>
        <time>2014-05-03T11:39:57Z</time>
      </trkpt>
      <trkpt lat="39.526357940543" lon="2.911196395041">
        <ele>257.8</ele>
        <time>2014-05-03T11:39:58Z</time>
      </trkpt>
      <trkpt lat="39.526386187546" lon="2.911221876017">
        <ele>258.4</ele>
        <time>2014-05-03T11:39:59Z</time>
      </trkpt>
      <trkpt lat="39.526410411237" lon="2.911251296486">
        <ele>258.8</ele>
        <time>2014-05-03T11:40:00Z</time>
      </trkpt>
      <trkpt lat="39.526480483921" lon="2.911339725531">
        <ele>259.2</ele>
        <time>2014-05-03T11:40:03Z</time>
      </trkpt>
      <trkpt lat="39.526501773947" lon="2.911369146">
        <ele>259.6</ele>
        <time>2014-05-03T11:40:04Z</time>
      </trkpt>
      <trkpt lat="39.526521219955" lon="2.91140015903">
        <ele>260</ele>
        <time>2014-05-03T11:40:05Z</time>
      </trkpt>
      <trkpt lat="39.526542174705" lon="2.911433435173">
        <ele>260.4</ele>
        <time>2014-05-03T11:40:06Z</time>
      </trkpt>
      <trkpt lat="39.526559525238" lon="2.911467717144">
        <ele>261</ele>
        <time>2014-05-03T11:40:07Z</time>
      </trkpt>
      <trkpt lat="39.526613672312" lon="2.911572658532">
        <ele>261.4</ele>
        <time>2014-05-03T11:40:10Z</time>
      </trkpt>
      <trkpt lat="39.52663228013" lon="2.911610209444">
        <ele>261.8</ele>
        <time>2014-05-03T11:40:11Z</time>
      </trkpt>
      <trkpt lat="39.526650217396" lon="2.911645581062">
        <ele>262.2</ele>
        <time>2014-05-03T11:40:12Z</time>
      </trkpt>
      <trkpt lat="39.526668657576" lon="2.911682042327">
        <ele>262.6</ele>
        <time>2014-05-03T11:40:13Z</time>
      </trkpt>
      <trkpt lat="39.526688187403" lon="2.911721772533">
        <ele>263</ele>
        <time>2014-05-03T11:40:14Z</time>
      </trkpt>
      <trkpt lat="39.526750045825" lon="2.911856385847">
        <ele>263</ele>
        <time>2014-05-03T11:40:17Z</time>
      </trkpt>
      <trkpt lat="39.526841240897" lon="2.9120145523">
        <ele>263.4</ele>
        <time>2014-05-03T11:40:21Z</time>
      </trkpt>
      <trkpt lat="39.526864626398" lon="2.912049001909">
        <ele>264</ele>
        <time>2014-05-03T11:40:22Z</time>
      </trkpt>
      <trkpt lat="39.526893041039" lon="2.912083870613">
        <ele>264.4</ele>
        <time>2014-05-03T11:40:23Z</time>
      </trkpt>
      <trkpt lat="39.526918270558" lon="2.912120331878">
        <ele>264.8</ele>
        <time>2014-05-03T11:40:24Z</time>
      </trkpt>
      <trkpt lat="39.526944254448" lon="2.912153272745">
        <ele>265.2</ele>
        <time>2014-05-03T11:40:25Z</time>
      </trkpt>
      <trkpt lat="39.527052129501" lon="2.912276151399">
        <ele>265.2</ele>
        <time>2014-05-03T11:40:29Z</time>
      </trkpt>
      <trkpt lat="39.527124549117" lon="2.912388552678">
        <ele>265.6</ele>
        <time>2014-05-03T11:40:33Z</time>
      </trkpt>
      <trkpt lat="39.527134858854" lon="2.912425013943">
        <ele>266.2</ele>
        <time>2014-05-03T11:40:34Z</time>
      </trkpt>
      <trkpt lat="39.527140977641" lon="2.912463738321">
        <ele>266.6</ele>
        <time>2014-05-03T11:40:35Z</time>
      </trkpt>
      <trkpt lat="39.527144246582" lon="2.912511431332">
        <ele>267</ele>
        <time>2014-05-03T11:40:36Z</time>
      </trkpt>
      <trkpt lat="39.527144162763" lon="2.912560800723">
        <ele>267.4</ele>
        <time>2014-05-03T11:40:37Z</time>
      </trkpt>
      <trkpt lat="39.527149946274" lon="2.912717458434">
        <ele>267.4</ele>
        <time>2014-05-03T11:40:40Z</time>
      </trkpt>
      <trkpt lat="39.527147683161" lon="2.912876127801">
        <ele>267.4</ele>
        <time>2014-05-03T11:40:43Z</time>
      </trkpt>
      <trkpt lat="39.527099822512" lon="2.913023649241">
        <ele>267.4</ele>
        <time>2014-05-03T11:40:46Z</time>
      </trkpt>
      <trkpt lat="39.527055817537" lon="2.913116185417">
        <ele>267.4</ele>
        <time>2014-05-03T11:40:48Z</time>
      </trkpt>
      <trkpt lat="39.527034359873" lon="2.913159100745">
        <ele>267.8</ele>
        <time>2014-05-03T11:40:49Z</time>
      </trkpt>
      <trkpt lat="39.527013824218" lon="2.913203357177">
        <ele>268.4</ele>
        <time>2014-05-03T11:40:50Z</time>
      </trkpt>
      <trkpt lat="39.526993623839" lon="2.913249792903">
        <ele>268.8</ele>
        <time>2014-05-03T11:40:51Z</time>
      </trkpt>
      <trkpt lat="39.526974932202" lon="2.913294300792">
        <ele>269.2</ele>
        <time>2014-05-03T11:40:52Z</time>
      </trkpt>
      <trkpt lat="39.526955402375" lon="2.913336210292">
        <ele>269.6</ele>
        <time>2014-05-03T11:40:53Z</time>
      </trkpt>
      <trkpt lat="39.526808719125" lon="2.913635025027">
        <ele>269.6</ele>
        <time>2014-05-03T11:41:00Z</time>
      </trkpt>
      <trkpt lat="39.52676722872" lon="2.913724962814">
        <ele>270</ele>
        <time>2014-05-03T11:41:02Z</time>
      </trkpt>
      <trkpt lat="39.526747531255" lon="2.913770476531">
        <ele>270.6</ele>
        <time>2014-05-03T11:41:03Z</time>
      </trkpt>
      <trkpt lat="39.526726911781" lon="2.913814481506">
        <ele>271</ele>
        <time>2014-05-03T11:41:04Z</time>
      </trkpt>
      <trkpt lat="39.526708639239" lon="2.913857145377">
        <ele>271.4</ele>
        <time>2014-05-03T11:41:05Z</time>
      </trkpt>
      <trkpt lat="39.52668843886" lon="2.913899390153">
        <ele>272</ele>
        <time>2014-05-03T11:41:06Z</time>
      </trkpt>
      <trkpt lat="39.526669914861" lon="2.913940796739">
        <ele>272</ele>
        <time>2014-05-03T11:41:07Z</time>
      </trkpt>
      <trkpt lat="39.52657025407" lon="2.914197031422">
        <ele>272</ele>
        <time>2014-05-03T11:41:13Z</time>
      </trkpt>
      <trkpt lat="39.52652331543" lon="2.914329800718">
        <ele>272.4</ele>
        <time>2014-05-03T11:41:16Z</time>
      </trkpt>
      <trkpt lat="39.52651074258" lon="2.914375565892">
        <ele>272.8</ele>
        <time>2014-05-03T11:41:17Z</time>
      </trkpt>
      <trkpt lat="39.526502612137" lon="2.914420325238">
        <ele>273.4</ele>
        <time>2014-05-03T11:41:18Z</time>
      </trkpt>
      <trkpt lat="39.526496409531" lon="2.914466090412">
        <ele>273.8</ele>
        <time>2014-05-03T11:41:19Z</time>
      </trkpt>
      <trkpt lat="39.526490877477" lon="2.914512777595">
        <ele>274.2</ele>
        <time>2014-05-03T11:41:20Z</time>
      </trkpt>
      <trkpt lat="39.526474365134" lon="2.91466239451">
        <ele>275</ele>
        <time>2014-05-03T11:41:23Z</time>
      </trkpt>
      <trkpt lat="39.526466569967" lon="2.914709919883">
        <ele>275.4</ele>
        <time>2014-05-03T11:41:24Z</time>
      </trkpt>
      <trkpt lat="39.526457517515" lon="2.914755852695">
        <ele>275.8</ele>
        <time>2014-05-03T11:41:25Z</time>
      </trkpt>
      <trkpt lat="39.526445615217" lon="2.914803042792">
        <ele>276.2</ele>
        <time>2014-05-03T11:41:26Z</time>
      </trkpt>
      <trkpt lat="39.52643279091" lon="2.914851322536">
        <ele>276.2</ele>
        <time>2014-05-03T11:41:27Z</time>
      </trkpt>
      <trkpt lat="39.526334890318" lon="2.915138151154">
        <ele>276.8</ele>
        <time>2014-05-03T11:41:34Z</time>
      </trkpt>
      <trkpt lat="39.526318126518" lon="2.915183161957">
        <ele>277.2</ele>
        <time>2014-05-03T11:41:35Z</time>
      </trkpt>
      <trkpt lat="39.526300524528" lon="2.915227669846">
        <ele>277.6</ele>
        <time>2014-05-03T11:41:36Z</time>
      </trkpt>
      <trkpt lat="39.526286275298" lon="2.915278799436">
        <ele>278</ele>
        <time>2014-05-03T11:41:37Z</time>
      </trkpt>
      <trkpt lat="39.526273450991" lon="2.915327833551">
        <ele>278.4</ele>
        <time>2014-05-03T11:41:38Z</time>
      </trkpt>
      <trkpt lat="39.526239755753" lon="2.915453478232">
        <ele>278.4</ele>
        <time>2014-05-03T11:41:41Z</time>
      </trkpt>
      <trkpt lat="39.526242689418" lon="2.915538722155">
        <ele>278.8</ele>
        <time>2014-05-03T11:41:43Z</time>
      </trkpt>
      <trkpt lat="39.526262722159" lon="2.915579793465">
        <ele>279.4</ele>
        <time>2014-05-03T11:41:44Z</time>
      </trkpt>
      <trkpt lat="39.52629281318" lon="2.915610890314">
        <ele>279.8</ele>
        <time>2014-05-03T11:41:45Z</time>
      </trkpt>
      <trkpt lat="39.526324412943" lon="2.915638131489">
        <ele>280.2</ele>
        <time>2014-05-03T11:41:46Z</time>
      </trkpt>
      <trkpt lat="39.526346289702" lon="2.915671994365">
        <ele>280.6</ele>
        <time>2014-05-03T11:41:47Z</time>
      </trkpt>
      <trkpt lat="39.526361209484" lon="2.915726392896">
        <ele>281</ele>
        <time>2014-05-03T11:41:48Z</time>
      </trkpt>
      <trkpt lat="39.526357689086" lon="2.915789424784">
        <ele>281.6</ele>
        <time>2014-05-03T11:41:49Z</time>
      </trkpt>
      <trkpt lat="39.526334555042" lon="2.915847930446">
        <ele>282</ele>
        <time>2014-05-03T11:41:50Z</time>
      </trkpt>
      <trkpt lat="39.526312343007" lon="2.915907190479">
        <ele>282.4</ele>
        <time>2014-05-03T11:41:51Z</time>
      </trkpt>
      <trkpt lat="39.526298764329" lon="2.91595488349">
        <ele>283</ele>
        <time>2014-05-03T11:41:52Z</time>
      </trkpt>
      <trkpt lat="39.526285772384" lon="2.916002744139">
        <ele>283</ele>
        <time>2014-05-03T11:41:53Z</time>
      </trkpt>
      <trkpt lat="39.526273786267" lon="2.916044821277">
        <ele>283.4</ele>
        <time>2014-05-03T11:41:54Z</time>
      </trkpt>
      <trkpt lat="39.526262051607" lon="2.916088071881">
        <ele>283.8</ele>
        <time>2014-05-03T11:41:55Z</time>
      </trkpt>
      <trkpt lat="39.526249394938" lon="2.916130149019">
        <ele>284.2</ele>
        <time>2014-05-03T11:41:56Z</time>
      </trkpt>
      <trkpt lat="39.526232295862" lon="2.916170046863">
        <ele>284.6</ele>
        <time>2014-05-03T11:41:57Z</time>
      </trkpt>
      <trkpt lat="39.526213101311" lon="2.91621136963">
        <ele>285</ele>
        <time>2014-05-03T11:41:58Z</time>
      </trkpt>
      <trkpt lat="39.526140681695" lon="2.916296194458">
        <ele>285.4</ele>
        <time>2014-05-03T11:42:01Z</time>
      </trkpt>
      <trkpt lat="39.526108243742" lon="2.916320921063">
        <ele>286</ele>
        <time>2014-05-03T11:42:02Z</time>
      </trkpt>
      <trkpt lat="39.526077649807" lon="2.916346066763">
        <ele>286.4</ele>
        <time>2014-05-03T11:42:03Z</time>
      </trkpt>
      <trkpt lat="39.52604554713" lon="2.916370961006">
        <ele>286.8</ele>
        <time>2014-05-03T11:42:04Z</time>
      </trkpt>
      <trkpt lat="39.526012187168" lon="2.916401052027">
        <ele>287.2</ele>
        <time>2014-05-03T11:42:05Z</time>
      </trkpt>
      <trkpt lat="39.525911352911" lon="2.916457462214">
        <ele>287.6</ele>
        <time>2014-05-03T11:42:08Z</time>
      </trkpt>
      <trkpt lat="39.525878160587" lon="2.91647959043">
        <ele>288.2</ele>
        <time>2014-05-03T11:42:09Z</time>
      </trkpt>
      <trkpt lat="39.525846812281" lon="2.916501048094">
        <ele>288.6</ele>
        <time>2014-05-03T11:42:10Z</time>
      </trkpt>
      <trkpt lat="39.525813536138" lon="2.916525355604">
        <ele>289.2</ele>
        <time>2014-05-03T11:42:11Z</time>
      </trkpt>
      <trkpt lat="39.525777158692" lon="2.916552093865">
        <ele>289.6</ele>
        <time>2014-05-03T11:42:12Z</time>
      </trkpt>
      <trkpt lat="39.525670289467" lon="2.916634990856">
        <ele>289.6</ele>
        <time>2014-05-03T11:42:15Z</time>
      </trkpt>
      <trkpt lat="39.525640366084" lon="2.916667680266">
        <ele>289.6</ele>
        <time>2014-05-03T11:42:16Z</time>
      </trkpt>
      <trkpt lat="39.525562582052" lon="2.916859961052">
        <ele>289.6</ele>
        <time>2014-05-03T11:42:20Z</time>
      </trkpt>
      <trkpt lat="39.52554430951" lon="2.916969596304">
        <ele>290.2</ele>
        <time>2014-05-03T11:42:22Z</time>
      </trkpt>
      <trkpt lat="39.525536598162" lon="2.917018798057">
        <ele>290.6</ele>
        <time>2014-05-03T11:42:23Z</time>
      </trkpt>
      <trkpt lat="39.525529054452" lon="2.917065820516">
        <ele>291</ele>
        <time>2014-05-03T11:42:24Z</time>
      </trkpt>
      <trkpt lat="39.525519247629" lon="2.91711326207">
        <ele>291.6</ele>
        <time>2014-05-03T11:42:25Z</time>
      </trkpt>
      <trkpt lat="39.525501142725" lon="2.917154081923">
        <ele>292</ele>
        <time>2014-05-03T11:42:26Z</time>
      </trkpt>
      <trkpt lat="39.525433500792" lon="2.917269249229">
        <ele>292.4</ele>
        <time>2014-05-03T11:42:29Z</time>
      </trkpt>
      <trkpt lat="39.525413216594" lon="2.917306129589">
        <ele>293</ele>
        <time>2014-05-03T11:42:30Z</time>
      </trkpt>
      <trkpt lat="39.525392513301" lon="2.917343512863">
        <ele>293.4</ele>
        <time>2014-05-03T11:42:31Z</time>
      </trkpt>
      <trkpt lat="39.525371726189" lon="2.917379974128">
        <ele>293.8</ele>
        <time>2014-05-03T11:42:32Z</time>
      </trkpt>
      <trkpt lat="39.525351358172" lon="2.917417357402">
        <ele>294.2</ele>
        <time>2014-05-03T11:42:33Z</time>
      </trkpt>
      <trkpt lat="39.525330235784" lon="2.91745356721">
        <ele>294.2</ele>
        <time>2014-05-03T11:42:34Z</time>
      </trkpt>
      <trkpt lat="39.525284219153" lon="2.917533614355">
        <ele>294.6</ele>
        <time>2014-05-03T11:42:36Z</time>
      </trkpt>
      <trkpt lat="39.525256977978" lon="2.917567477231">
        <ele>295.6</ele>
        <time>2014-05-03T11:42:37Z</time>
      </trkpt>
      <trkpt lat="39.525227892785" lon="2.91759605951">
        <ele>296</ele>
        <time>2014-05-03T11:42:38Z</time>
      </trkpt>
      <trkpt lat="39.525195119556" lon="2.917622546314">
        <ele>296.4</ele>
        <time>2014-05-03T11:42:39Z</time>
      </trkpt>
      <trkpt lat="39.52516293306" lon="2.917649536032">
        <ele>296.4</ele>
        <time>2014-05-03T11:42:40Z</time>
      </trkpt>
      <trkpt lat="39.525101661371" lon="2.917696390853">
        <ele>297</ele>
        <time>2014-05-03T11:42:42Z</time>
      </trkpt>
      <trkpt lat="39.525071067436" lon="2.917716675051">
        <ele>297.4</ele>
        <time>2014-05-03T11:42:43Z</time>
      </trkpt>
      <trkpt lat="39.525040724958" lon="2.917737629801">
        <ele>297.8</ele>
        <time>2014-05-03T11:42:44Z</time>
      </trkpt>
      <trkpt lat="39.525011472127" lon="2.917759422741">
        <ele>298.2</ele>
        <time>2014-05-03T11:42:45Z</time>
      </trkpt>
      <trkpt lat="39.524983225124" lon="2.917781131862">
        <ele>298.6</ele>
        <time>2014-05-03T11:42:46Z</time>
      </trkpt>
      <trkpt lat="39.524894460803" lon="2.917844331388">
        <ele>298.6</ele>
        <time>2014-05-03T11:42:49Z</time>
      </trkpt>
      <trkpt lat="39.524819358979" lon="2.91790870438">
        <ele>299.2</ele>
        <time>2014-05-03T11:42:52Z</time>
      </trkpt>
      <trkpt lat="39.524791447252" lon="2.917923456524">
        <ele>299.6</ele>
        <time>2014-05-03T11:42:53Z</time>
      </trkpt>
      <trkpt lat="39.524763200249" lon="2.917941142333">
        <ele>300.2</ele>
        <time>2014-05-03T11:42:54Z</time>
      </trkpt>
      <trkpt lat="39.524737803092" lon="2.917962599997">
        <ele>300.6</ele>
        <time>2014-05-03T11:42:55Z</time>
      </trkpt>
      <trkpt lat="39.524716513066" lon="2.917990930819">
        <ele>301</ele>
        <time>2014-05-03T11:42:56Z</time>
      </trkpt>
      <trkpt lat="39.52465834268" lon="2.918083718452">
        <ele>301.4</ele>
        <time>2014-05-03T11:42:59Z</time>
      </trkpt>
      <trkpt lat="39.524642500889" lon="2.918113809473">
        <ele>301.8</ele>
        <time>2014-05-03T11:43:00Z</time>
      </trkpt>
      <trkpt lat="39.524628335478" lon="2.91814339758">
        <ele>302.2</ele>
        <time>2014-05-03T11:43:01Z</time>
      </trkpt>
      <trkpt lat="39.524615846447" lon="2.918171812221">
        <ele>303.2</ele>
        <time>2014-05-03T11:43:02Z</time>
      </trkpt>
      <trkpt lat="39.524567315246" lon="2.918339701678">
        <ele>303.2</ele>
        <time>2014-05-03T11:43:08Z</time>
      </trkpt>
      <trkpt lat="39.524552479283" lon="2.91843760227">
        <ele>303.6</ele>
        <time>2014-05-03T11:43:12Z</time>
      </trkpt>
      <trkpt lat="39.524545689944" lon="2.91846190978">
        <ele>304</ele>
        <time>2014-05-03T11:43:13Z</time>
      </trkpt>
      <trkpt lat="39.524538313872" lon="2.918487390756">
        <ele>304.4</ele>
        <time>2014-05-03T11:43:14Z</time>
      </trkpt>
      <trkpt lat="39.524529848153" lon="2.918515637759">
        <ele>304.8</ele>
        <time>2014-05-03T11:43:15Z</time>
      </trkpt>
      <trkpt lat="39.524521801529" lon="2.918544806771">
        <ele>305.2</ele>
        <time>2014-05-03T11:43:16Z</time>
      </trkpt>
      <trkpt lat="39.524508893403" lon="2.918640695707">
        <ele>305.2</ele>
        <time>2014-05-03T11:43:19Z</time>
      </trkpt>
      <trkpt lat="39.524493889802" lon="2.918702805586">
        <ele>305.2</ele>
        <time>2014-05-03T11:43:21Z</time>
      </trkpt>
      <trkpt lat="39.524443011669" lon="2.918863654247">
        <ele>305.6</ele>
        <time>2014-05-03T11:43:26Z</time>
      </trkpt>
      <trkpt lat="39.524433037208" lon="2.918897265666">
        <ele>306</ele>
        <time>2014-05-03T11:43:27Z</time>
      </trkpt>
      <trkpt lat="39.524420883453" lon="2.918933559293">
        <ele>306.4</ele>
        <time>2014-05-03T11:43:28Z</time>
      </trkpt>
      <trkpt lat="39.524410070802" lon="2.918968092721">
        <ele>306.8</ele>
        <time>2014-05-03T11:43:29Z</time>
      </trkpt>
      <trkpt lat="39.524400515436" lon="2.91900421871">
        <ele>307.2</ele>
        <time>2014-05-03T11:43:30Z</time>
      </trkpt>
      <trkpt lat="39.524349385846" lon="2.919108070451">
        <ele>307.2</ele>
        <time>2014-05-03T11:43:33Z</time>
      </trkpt>
      <trkpt lat="39.524242768078" lon="2.919270511673">
        <ele>307.6</ele>
        <time>2014-05-03T11:43:38Z</time>
      </trkpt>
      <trkpt lat="39.524220304586" lon="2.91930764349">
        <ele>308</ele>
        <time>2014-05-03T11:43:39Z</time>
      </trkpt>
      <trkpt lat="39.524198427827" lon="2.919342763651">
        <ele>308.4</ele>
        <time>2014-05-03T11:43:40Z</time>
      </trkpt>
      <trkpt lat="39.524175377602" lon="2.919376207432">
        <ele>309</ele>
        <time>2014-05-03T11:43:41Z</time>
      </trkpt>
      <trkpt lat="39.524149980445" lon="2.919408980661">
        <ele>309.4</ele>
        <time>2014-05-03T11:43:42Z</time>
      </trkpt>
      <trkpt lat="39.524124248012" lon="2.919443597908">
        <ele>309.8</ele>
        <time>2014-05-03T11:43:43Z</time>
      </trkpt>
      <trkpt lat="39.524100527235" lon="2.919478131336">
        <ele>310.2</ele>
        <time>2014-05-03T11:43:44Z</time>
      </trkpt>
      <trkpt lat="39.524076471182" lon="2.919510736927">
        <ele>310.6</ele>
        <time>2014-05-03T11:43:45Z</time>
      </trkpt>
      <trkpt lat="39.524050822568" lon="2.919539989758">
        <ele>311.2</ele>
        <time>2014-05-03T11:43:46Z</time>
      </trkpt>
      <trkpt lat="39.524024587221" lon="2.91956832058">
        <ele>311.6</ele>
        <time>2014-05-03T11:43:47Z</time>
      </trkpt>
      <trkpt lat="39.523996088761" lon="2.919597070497">
        <ele>311.6</ele>
        <time>2014-05-03T11:43:48Z</time>
      </trkpt>
      <trkpt lat="39.52385619485" lon="2.919732857277">
        <ele>312</ele>
        <time>2014-05-03T11:43:53Z</time>
      </trkpt>
      <trkpt lat="39.523826271467" lon="2.919754901674">
        <ele>312.4</ele>
        <time>2014-05-03T11:43:54Z</time>
      </trkpt>
      <trkpt lat="39.523795509894" lon="2.919775269691">
        <ele>313</ele>
        <time>2014-05-03T11:43:55Z</time>
      </trkpt>
      <trkpt lat="39.52376147938" lon="2.91979714645">
        <ele>313.4</ele>
        <time>2014-05-03T11:43:56Z</time>
      </trkpt>
      <trkpt lat="39.523726694495" lon="2.919813658793">
        <ele>313.8</ele>
        <time>2014-05-03T11:43:57Z</time>
      </trkpt>
      <trkpt lat="39.523575736476" lon="2.919904015675">
        <ele>314.4</ele>
        <time>2014-05-03T11:44:02Z</time>
      </trkpt>
      <trkpt lat="39.523548327663" lon="2.919922707312">
        <ele>314.8</ele>
        <time>2014-05-03T11:44:03Z</time>
      </trkpt>
      <trkpt lat="39.523523098144" lon="2.919939890207">
        <ele>315.2</ele>
        <time>2014-05-03T11:44:04Z</time>
      </trkpt>
      <trkpt lat="39.523496862797" lon="2.919955229084">
        <ele>315.8</ele>
        <time>2014-05-03T11:44:05Z</time>
      </trkpt>
      <trkpt lat="39.523469537803" lon="2.919970316504">
        <ele>316.2</ele>
        <time>2014-05-03T11:44:06Z</time>
      </trkpt>
      <trkpt lat="39.523298966138" lon="2.92005782354">
        <ele>316.6</ele>
        <time>2014-05-03T11:44:12Z</time>
      </trkpt>
      <trkpt lat="39.523275748275" lon="2.920071402218">
        <ele>317</ele>
        <time>2014-05-03T11:44:13Z</time>
      </trkpt>
      <trkpt lat="39.523249764385" lon="2.920083304516">
        <ele>317.4</ele>
        <time>2014-05-03T11:44:14Z</time>
      </trkpt>
      <trkpt lat="39.523223612857" lon="2.920096212642">
        <ele>317.8</ele>
        <time>2014-05-03T11:44:15Z</time>
      </trkpt>
      <trkpt lat="39.523197461329" lon="2.92011314408">
        <ele>318.2</ele>
        <time>2014-05-03T11:44:16Z</time>
      </trkpt>
      <trkpt lat="39.523114312881" lon="2.920158993073">
        <ele>318.2</ele>
        <time>2014-05-03T11:44:19Z</time>
      </trkpt>
      <trkpt lat="39.52303141589" lon="2.920213978337">
        <ele>318.6</ele>
        <time>2014-05-03T11:44:22Z</time>
      </trkpt>
      <trkpt lat="39.523001827783" lon="2.920232837612">
        <ele>319.2</ele>
        <time>2014-05-03T11:44:23Z</time>
      </trkpt>
      <trkpt lat="39.522974754246" lon="2.920250355783">
        <ele>319.6</ele>
        <time>2014-05-03T11:44:24Z</time>
      </trkpt>
      <trkpt lat="39.522948602718" lon="2.920267119583">
        <ele>320</ele>
        <time>2014-05-03T11:44:25Z</time>
      </trkpt>
      <trkpt lat="39.522923121742" lon="2.92028245846">
        <ele>320.4</ele>
        <time>2014-05-03T11:44:26Z</time>
      </trkpt>
      <trkpt lat="39.522781299994" lon="2.920359823397">
        <ele>320.4</ele>
        <time>2014-05-03T11:44:31Z</time>
      </trkpt>
      <trkpt lat="39.522751544249" lon="2.920375329912">
        <ele>321</ele>
        <time>2014-05-03T11:44:32Z</time>
      </trkpt>
      <trkpt lat="39.522720866495" lon="2.920394692101">
        <ele>321.4</ele>
        <time>2014-05-03T11:44:33Z</time>
      </trkpt>
      <trkpt lat="39.522695804614" lon="2.920416736498">
        <ele>322</ele>
        <time>2014-05-03T11:44:34Z</time>
      </trkpt>
      <trkpt lat="39.522673005846" lon="2.920444061492">
        <ele>322.4</ele>
        <time>2014-05-03T11:44:35Z</time>
      </trkpt>
      <trkpt lat="39.522650207078" lon="2.920473984875">
        <ele>322.8</ele>
        <time>2014-05-03T11:44:36Z</time>
      </trkpt>
      <trkpt lat="39.522631096346" lon="2.920505333181">
        <ele>322.8</ele>
        <time>2014-05-03T11:44:37Z</time>
      </trkpt>
      <trkpt lat="39.522613075261" lon="2.920541710627">
        <ele>323.2</ele>
        <time>2014-05-03T11:44:38Z</time>
      </trkpt>
      <trkpt lat="39.522610728329" lon="2.920586469973">
        <ele>323.8</ele>
        <time>2014-05-03T11:44:39Z</time>
      </trkpt>
      <trkpt lat="39.522624307007" lon="2.920635587907">
        <ele>324.2</ele>
        <time>2014-05-03T11:44:40Z</time>
      </trkpt>
      <trkpt lat="39.522643920653" lon="2.92067556957">
        <ele>325</ele>
        <time>2014-05-03T11:44:41Z</time>
      </trkpt>
      <trkpt lat="39.522692954768" lon="2.920699206528">
        <ele>325</ele>
        <time>2014-05-03T11:44:43Z</time>
      </trkpt>
      <trkpt lat="39.522824299141" lon="2.920615387528">
        <ele>325</ele>
        <time>2014-05-03T11:44:47Z</time>
      </trkpt>
      <trkpt lat="39.522861179501" lon="2.9205808541">
        <ele>325</ele>
        <time>2014-05-03T11:44:48Z</time>
      </trkpt>
      <trkpt lat="39.523024794189" lon="2.920437355972">
        <ele>325</ele>
        <time>2014-05-03T11:44:52Z</time>
      </trkpt>
      <trkpt lat="39.523070978458" lon="2.920405169476">
        <ele>325</ele>
        <time>2014-05-03T11:44:53Z</time>
      </trkpt>
      <trkpt lat="39.523173489095" lon="2.920416149765">
        <ele>325</ele>
        <time>2014-05-03T11:44:55Z</time>
      </trkpt>
      <trkpt lat="39.523198131881" lon="2.920525282103">
        <ele>325.4</ele>
        <time>2014-05-03T11:44:57Z</time>
      </trkpt>
      <trkpt lat="39.523167789403" lon="2.920569706173">
        <ele>325.8</ele>
        <time>2014-05-03T11:44:58Z</time>
      </trkpt>
      <trkpt lat="39.523118839107" lon="2.920595019511">
        <ele>326.2</ele>
        <time>2014-05-03T11:44:59Z</time>
      </trkpt>
      <trkpt lat="39.523069050621" lon="2.920612370044">
        <ele>326.6</ele>
        <time>2014-05-03T11:45:00Z</time>
      </trkpt>
      <trkpt lat="39.523023788361" lon="2.92063282188">
        <ele>327</ele>
        <time>2014-05-03T11:45:01Z</time>
      </trkpt>
      <trkpt lat="39.522988249105" lon="2.920657213209">
        <ele>327.4</ele>
        <time>2014-05-03T11:45:02Z</time>
      </trkpt>
      <trkpt lat="39.522955308238" lon="2.920689232067">
        <ele>327.8</ele>
        <time>2014-05-03T11:45:03Z</time>
      </trkpt>
      <trkpt lat="39.522927564149" lon="2.920723765495">
        <ele>328.4</ele>
        <time>2014-05-03T11:45:04Z</time>
      </trkpt>
      <trkpt lat="39.522902418449" lon="2.920760478217">
        <ele>329.2</ele>
        <time>2014-05-03T11:45:05Z</time>
      </trkpt>
      <trkpt lat="39.522881966613" lon="2.920797442396">
        <ele>329.6</ele>
        <time>2014-05-03T11:45:06Z</time>
      </trkpt>
      <trkpt lat="39.522866376279" lon="2.92083817843">
        <ele>330.2</ele>
        <time>2014-05-03T11:45:07Z</time>
      </trkpt>
      <trkpt lat="39.522854138705" lon="2.92088092612">
        <ele>330.6</ele>
        <time>2014-05-03T11:45:08Z</time>
      </trkpt>
      <trkpt lat="39.522848103737" lon="2.920925182552">
        <ele>331</ele>
        <time>2014-05-03T11:45:09Z</time>
      </trkpt>
      <trkpt lat="39.522846846452" lon="2.920972707925">
        <ele>331.6</ele>
        <time>2014-05-03T11:45:10Z</time>
      </trkpt>
      <trkpt lat="39.522845924443" lon="2.92102341842">
        <ele>331.6</ele>
        <time>2014-05-03T11:45:11Z</time>
      </trkpt>
      <trkpt lat="39.522838464552" lon="2.921131628749">
        <ele>332</ele>
        <time>2014-05-03T11:45:13Z</time>
      </trkpt>
      <trkpt lat="39.522830501747" lon="2.921183680348">
        <ele>332.4</ele>
        <time>2014-05-03T11:45:14Z</time>
      </trkpt>
      <trkpt lat="39.522817761259" lon="2.921237240689">
        <ele>332.8</ele>
        <time>2014-05-03T11:45:15Z</time>
      </trkpt>
      <trkpt lat="39.522798482889" lon="2.921285268976">
        <ele>333.2</ele>
        <time>2014-05-03T11:45:16Z</time>
      </trkpt>
      <trkpt lat="39.522773840103" lon="2.921322316974">
        <ele>333.6</ele>
        <time>2014-05-03T11:45:17Z</time>
      </trkpt>
      <trkpt lat="39.522737546476" lon="2.921375625858">
        <ele>334.2</ele>
        <time>2014-05-03T11:45:19Z</time>
      </trkpt>
      <trkpt lat="39.522720698857" lon="2.921396580608">
        <ele>334.6</ele>
        <time>2014-05-03T11:45:20Z</time>
      </trkpt>
      <trkpt lat="39.522700749935" lon="2.921413931141">
        <ele>335</ele>
        <time>2014-05-03T11:45:21Z</time>
      </trkpt>
      <trkpt lat="39.522682309755" lon="2.921439412117">
        <ele>335.6</ele>
        <time>2014-05-03T11:45:22Z</time>
      </trkpt>
      <trkpt lat="39.522663785756" lon="2.921468413491">
        <ele>336</ele>
        <time>2014-05-03T11:45:23Z</time>
      </trkpt>
      <trkpt lat="39.522621038066" lon="2.921513508113">
        <ele>336</ele>
        <time>2014-05-03T11:45:25Z</time>
      </trkpt>
      <trkpt lat="39.522570327571" lon="2.921550220835">
        <ele>336.4</ele>
        <time>2014-05-03T11:45:27Z</time>
      </trkpt>
      <trkpt lat="39.522545517147" lon="2.92156656554">
        <ele>336.8</ele>
        <time>2014-05-03T11:45:28Z</time>
      </trkpt>
      <trkpt lat="39.522522550741" lon="2.921582658788">
        <ele>337.2</ele>
        <time>2014-05-03T11:45:29Z</time>
      </trkpt>
      <trkpt lat="39.522496985946" lon="2.921600763692">
        <ele>338.2</ele>
        <time>2014-05-03T11:45:30Z</time>
      </trkpt>
      <trkpt lat="39.522396570784" lon="2.921680475561">
        <ele>338.2</ele>
        <time>2014-05-03T11:45:34Z</time>
      </trkpt>
      <trkpt lat="39.522364803383" lon="2.921695143886">
        <ele>338.2</ele>
        <time>2014-05-03T11:45:35Z</time>
      </trkpt>
      <trkpt lat="39.52230554335" lon="2.921741495793">
        <ele>338.6</ele>
        <time>2014-05-03T11:45:37Z</time>
      </trkpt>
      <trkpt lat="39.522275787605" lon="2.921766306217">
        <ele>339</ele>
        <time>2014-05-03T11:45:38Z</time>
      </trkpt>
      <trkpt lat="39.522246702412" lon="2.921788099157">
        <ele>339.4</ele>
        <time>2014-05-03T11:45:39Z</time>
      </trkpt>
      <trkpt lat="39.522215940839" lon="2.921806623156">
        <ele>339.8</ele>
        <time>2014-05-03T11:45:40Z</time>
      </trkpt>
      <trkpt lat="39.522180736859" lon="2.921826823535">
        <ele>340.2</ele>
        <time>2014-05-03T11:45:41Z</time>
      </trkpt>
      <trkpt lat="39.522021313121" lon="2.921917934788">
        <ele>340.6</ele>
        <time>2014-05-03T11:45:46Z</time>
      </trkpt>
      <trkpt lat="39.521989797177" lon="2.921933189846">
        <ele>341</ele>
        <time>2014-05-03T11:45:47Z</time>
      </trkpt>
      <trkpt lat="39.521958867966" lon="2.92195213294">
        <ele>341.4</ele>
        <time>2014-05-03T11:45:48Z</time>
      </trkpt>
      <trkpt lat="39.521930118049" lon="2.921972333319">
        <ele>341.8</ele>
        <time>2014-05-03T11:45:49Z</time>
      </trkpt>
      <trkpt lat="39.521899272657" lon="2.921991360232">
        <ele>342.2</ele>
        <time>2014-05-03T11:45:50Z</time>
      </trkpt>
      <trkpt lat="39.5217649108" lon="2.922055397948">
        <ele>342.6</ele>
        <time>2014-05-03T11:45:54Z</time>
      </trkpt>
      <trkpt lat="39.521729874458" lon="2.922075263051">
        <ele>343.4</ele>
        <time>2014-05-03T11:45:55Z</time>
      </trkpt>
      <trkpt lat="39.521697436505" lon="2.922095128154">
        <ele>343.8</ele>
        <time>2014-05-03T11:45:56Z</time>
      </trkpt>
      <trkpt lat="39.521664663276" lon="2.922116585818">
        <ele>344.2</ele>
        <time>2014-05-03T11:45:57Z</time>
      </trkpt>
      <trkpt lat="39.521576150412" lon="2.922189424529">
        <ele>344.6</ele>
        <time>2014-05-03T11:46:00Z</time>
      </trkpt>
      <trkpt lat="39.521549076875" lon="2.922220689016">
        <ele>345</ele>
        <time>2014-05-03T11:46:01Z</time>
      </trkpt>
      <trkpt lat="39.521522170976" lon="2.922247594915">
        <ele>345.4</ele>
        <time>2014-05-03T11:46:02Z</time>
      </trkpt>
      <trkpt lat="39.52149501362" lon="2.922277183022">
        <ele>345.8</ele>
        <time>2014-05-03T11:46:03Z</time>
      </trkpt>
      <trkpt lat="39.521467940083" lon="2.922303250731">
        <ele>346.2</ele>
        <time>2014-05-03T11:46:04Z</time>
      </trkpt>
      <trkpt lat="39.521336930986" lon="2.922457393872">
        <ele>346.2</ele>
        <time>2014-05-03T11:46:09Z</time>
      </trkpt>
      <trkpt lat="39.52129468621" lon="2.92252796947">
        <ele>346.8</ele>
        <time>2014-05-03T11:46:11Z</time>
      </trkpt>
      <trkpt lat="39.52127205508" lon="2.922566358572">
        <ele>347.2</ele>
        <time>2014-05-03T11:46:12Z</time>
      </trkpt>
      <trkpt lat="39.521253195805" lon="2.922602652199">
        <ele>347.6</ele>
        <time>2014-05-03T11:46:13Z</time>
      </trkpt>
      <trkpt lat="39.521233749797" lon="2.922633329953">
        <ele>348</ele>
        <time>2014-05-03T11:46:14Z</time>
      </trkpt>
      <trkpt lat="39.521206508622" lon="2.922669120666">
        <ele>348.6</ele>
        <time>2014-05-03T11:46:15Z</time>
      </trkpt>
      <trkpt lat="39.521180357094" lon="2.922707845044">
        <ele>348.6</ele>
        <time>2014-05-03T11:46:16Z</time>
      </trkpt>
      <trkpt lat="39.521138531413" lon="2.922786551085">
        <ele>349</ele>
        <time>2014-05-03T11:46:18Z</time>
      </trkpt>
      <trkpt lat="39.521118750129" lon="2.922830053146">
        <ele>349.8</ele>
        <time>2014-05-03T11:46:19Z</time>
      </trkpt>
      <trkpt lat="39.521094610257" lon="2.922876321234">
        <ele>350.2</ele>
        <time>2014-05-03T11:46:20Z</time>
      </trkpt>
      <trkpt lat="39.521071392394" lon="2.922919823295">
        <ele>350.6</ele>
        <time>2014-05-03T11:46:21Z</time>
      </trkpt>
      <trkpt lat="39.521050521463" lon="2.922964331184">
        <ele>350.6</ele>
        <time>2014-05-03T11:46:22Z</time>
      </trkpt>
      <trkpt lat="39.521011880904" lon="2.923039097732">
        <ele>351</ele>
        <time>2014-05-03T11:46:24Z</time>
      </trkpt>
      <trkpt lat="39.520995703837" lon="2.923080671956">
        <ele>351.6</ele>
        <time>2014-05-03T11:46:25Z</time>
      </trkpt>
      <trkpt lat="39.52097617401" lon="2.923127107682">
        <ele>352</ele>
        <time>2014-05-03T11:46:26Z</time>
      </trkpt>
      <trkpt lat="39.520955973631" lon="2.923168430449">
        <ele>352.6</ele>
        <time>2014-05-03T11:46:27Z</time>
      </trkpt>
      <trkpt lat="39.520932755768" lon="2.923211597234">
        <ele>353</ele>
        <time>2014-05-03T11:46:28Z</time>
      </trkpt>
      <trkpt lat="39.520886822956" lon="2.923283513936">
        <ele>353</ele>
        <time>2014-05-03T11:46:30Z</time>
      </trkpt>
      <trkpt lat="39.520857737763" lon="2.923313437319">
        <ele>353.4</ele>
        <time>2014-05-03T11:46:31Z</time>
      </trkpt>
      <trkpt lat="39.520827395285" lon="2.923343444521">
        <ele>353.8</ele>
        <time>2014-05-03T11:46:32Z</time>
      </trkpt>
      <trkpt lat="39.520795795522" lon="2.923368422583">
        <ele>354.4</ele>
        <time>2014-05-03T11:46:33Z</time>
      </trkpt>
      <trkpt lat="39.520765285406" lon="2.923391556627">
        <ele>354.8</ele>
        <time>2014-05-03T11:46:34Z</time>
      </trkpt>
      <trkpt lat="39.520731925444" lon="2.923416618508">
        <ele>355.2</ele>
        <time>2014-05-03T11:46:35Z</time>
      </trkpt>
      <trkpt lat="39.520697308197" lon="2.923443440588">
        <ele>355.2</ele>
        <time>2014-05-03T11:46:36Z</time>
      </trkpt>
      <trkpt lat="39.520635365956" lon="2.923494067264">
        <ele>355.6</ele>
        <time>2014-05-03T11:46:38Z</time>
      </trkpt>
      <trkpt lat="39.520605274935" lon="2.923522146629">
        <ele>356</ele>
        <time>2014-05-03T11:46:39Z</time>
      </trkpt>
      <trkpt lat="39.520578704312" lon="2.923554919858">
        <ele>356.6</ele>
        <time>2014-05-03T11:46:40Z</time>
      </trkpt>
      <trkpt lat="39.520554815897" lon="2.923589369467">
        <ele>357</ele>
        <time>2014-05-03T11:46:41Z</time>
      </trkpt>
      <trkpt lat="39.520532100948" lon="2.923624238171">
        <ele>357.4</ele>
        <time>2014-05-03T11:46:42Z</time>
      </trkpt>
      <trkpt lat="39.520509385999" lon="2.923656257029">
        <ele>357.4</ele>
        <time>2014-05-03T11:46:43Z</time>
      </trkpt>
      <trkpt lat="39.520486168136" lon="2.923694394674">
        <ele>357.8</ele>
        <time>2014-05-03T11:46:44Z</time>
      </trkpt>
      <trkpt lat="39.520467141223" lon="2.923732532319">
        <ele>358.2</ele>
        <time>2014-05-03T11:46:45Z</time>
      </trkpt>
      <trkpt lat="39.520449874509" lon="2.923776118199">
        <ele>358.6</ele>
        <time>2014-05-03T11:46:46Z</time>
      </trkpt>
      <trkpt lat="39.520431015234" lon="2.923815596948">
        <ele>359.2</ele>
        <time>2014-05-03T11:46:47Z</time>
      </trkpt>
      <trkpt lat="39.520415592538" lon="2.923853902231">
        <ele>359.6</ele>
        <time>2014-05-03T11:46:48Z</time>
      </trkpt>
      <trkpt lat="39.520379969463" lon="2.92397049446">
        <ele>360</ele>
        <time>2014-05-03T11:46:51Z</time>
      </trkpt>
      <trkpt lat="39.520365636414" lon="2.924008380648">
        <ele>360.4</ele>
        <time>2014-05-03T11:46:52Z</time>
      </trkpt>
      <trkpt lat="39.520356332505" lon="2.924050290148">
        <ele>360.8</ele>
        <time>2014-05-03T11:46:53Z</time>
      </trkpt>
      <trkpt lat="39.520354991401" lon="2.924095217132">
        <ele>361.2</ele>
        <time>2014-05-03T11:46:54Z</time>
      </trkpt>
      <trkpt lat="39.520353985573" lon="2.92413897065">
        <ele>361.6</ele>
        <time>2014-05-03T11:46:55Z</time>
      </trkpt>
      <trkpt lat="39.520339484886" lon="2.924213988655">
        <ele>362</ele>
        <time>2014-05-03T11:46:57Z</time>
      </trkpt>
      <trkpt lat="39.520330600072" lon="2.924246175151">
        <ele>362.4</ele>
        <time>2014-05-03T11:46:58Z</time>
      </trkpt>
      <trkpt lat="39.520321379982" lon="2.924279451294">
        <ele>362.8</ele>
        <time>2014-05-03T11:46:59Z</time>
      </trkpt>
      <trkpt lat="39.520312495168" lon="2.92431415236">
        <ele>363.2</ele>
        <time>2014-05-03T11:47:00Z</time>
      </trkpt>
      <trkpt lat="39.520294641721" lon="2.924340303888">
        <ele>363.6</ele>
        <time>2014-05-03T11:47:01Z</time>
      </trkpt>
      <trkpt lat="39.520243931226" lon="2.924373747669">
        <ele>363.6</ele>
        <time>2014-05-03T11:47:03Z</time>
      </trkpt>
      <trkpt lat="39.520157681475" lon="2.924376597515">
        <ele>364.2</ele>
        <time>2014-05-03T11:47:06Z</time>
      </trkpt>
      <trkpt lat="39.520122393676" lon="2.924369975814">
        <ele>364.6</ele>
        <time>2014-05-03T11:47:07Z</time>
      </trkpt>
      <trkpt lat="39.520091296827" lon="2.924368215615">
        <ele>365</ele>
        <time>2014-05-03T11:47:08Z</time>
      </trkpt>
      <trkpt lat="39.520062211634" lon="2.924363857027">
        <ele>365.8</ele>
        <time>2014-05-03T11:47:09Z</time>
      </trkpt>
      <trkpt lat="39.519923742646" lon="2.924333346911">
        <ele>366.2</ele>
        <time>2014-05-03T11:47:13Z</time>
      </trkpt>
      <trkpt lat="39.519889125399" lon="2.924325300287">
        <ele>366.6</ele>
        <time>2014-05-03T11:47:14Z</time>
      </trkpt>
      <trkpt lat="39.519851658306" lon="2.924317169844">
        <ele>367</ele>
        <time>2014-05-03T11:47:15Z</time>
      </trkpt>
      <trkpt lat="39.519815113222" lon="2.924307195383">
        <ele>367.4</ele>
        <time>2014-05-03T11:47:16Z</time>
      </trkpt>
      <trkpt lat="39.519778735776" lon="2.924295209266">
        <ele>367.8</ele>
        <time>2014-05-03T11:47:17Z</time>
      </trkpt>
      <trkpt lat="39.519641440254" lon="2.924245336961">
        <ele>368.2</ele>
        <time>2014-05-03T11:47:21Z</time>
      </trkpt>
      <trkpt lat="39.519610343405" lon="2.924232093559">
        <ele>368.8</ele>
        <time>2014-05-03T11:47:22Z</time>
      </trkpt>
      <trkpt lat="39.519576983443" lon="2.924222454374">
        <ele>369.2</ele>
        <time>2014-05-03T11:47:23Z</time>
      </trkpt>
      <trkpt lat="39.519547311517" lon="2.924205439117">
        <ele>369.6</ele>
        <time>2014-05-03T11:47:24Z</time>
      </trkpt>
      <trkpt lat="39.519519064514" lon="2.924182724168">
        <ele>370</ele>
        <time>2014-05-03T11:47:25Z</time>
      </trkpt>
      <trkpt lat="39.519465587992" lon="2.924128157999">
        <ele>370</ele>
        <time>2014-05-03T11:47:27Z</time>
      </trkpt>
      <trkpt lat="39.519384870295" lon="2.924045261008">
        <ele>370.4</ele>
        <time>2014-05-03T11:47:30Z</time>
      </trkpt>
      <trkpt lat="39.519354360179" lon="2.924019612394">
        <ele>370.8</ele>
        <time>2014-05-03T11:47:31Z</time>
      </trkpt>
      <trkpt lat="39.519323682425" lon="2.923996813626">
        <ele>371.2</ele>
        <time>2014-05-03T11:47:32Z</time>
      </trkpt>
      <trkpt lat="39.51928973573" lon="2.923977283799">
        <ele>372.2</ele>
        <time>2014-05-03T11:47:33Z</time>
      </trkpt>
      <trkpt lat="39.519254112655" lon="2.923964794768">
        <ele>372.2</ele>
        <time>2014-05-03T11:47:34Z</time>
      </trkpt>
      <trkpt lat="39.519180687211" lon="2.923969320994">
        <ele>372.6</ele>
        <time>2014-05-03T11:47:36Z</time>
      </trkpt>
      <trkpt lat="39.519145902326" lon="2.923983989319">
        <ele>373</ele>
        <time>2014-05-03T11:47:37Z</time>
      </trkpt>
      <trkpt lat="39.51911036307" lon="2.924002513318">
        <ele>373.4</ele>
        <time>2014-05-03T11:47:38Z</time>
      </trkpt>
      <trkpt lat="39.519077086927" lon="2.924024641534">
        <ele>373.8</ele>
        <time>2014-05-03T11:47:39Z</time>
      </trkpt>
      <trkpt lat="39.519047079725" lon="2.924047943216">
        <ele>374.2</ele>
        <time>2014-05-03T11:47:40Z</time>
      </trkpt>
      <trkpt lat="39.518974241014" lon="2.924147017274">
        <ele>374.6</ele>
        <time>2014-05-03T11:47:43Z</time>
      </trkpt>
      <trkpt lat="39.518951358427" lon="2.92418590929">
        <ele>375</ele>
        <time>2014-05-03T11:47:44Z</time>
      </trkpt>
      <trkpt lat="39.518929733125" lon="2.92422949517">
        <ele>375.4</ele>
        <time>2014-05-03T11:47:45Z</time>
      </trkpt>
      <trkpt lat="39.518911795859" lon="2.924284480434">
        <ele>376</ele>
        <time>2014-05-03T11:47:46Z</time>
      </trkpt>
      <trkpt lat="39.51888572815" lon="2.924332843997">
        <ele>376.4</ele>
        <time>2014-05-03T11:47:47Z</time>
      </trkpt>
      <trkpt lat="39.518804339901" lon="2.924486568043">
        <ele>376.4</ele>
        <time>2014-05-03T11:47:50Z</time>
      </trkpt>
      <trkpt lat="39.518797634381" lon="2.924601064797">
        <ele>376.4</ele>
        <time>2014-05-03T11:47:52Z</time>
      </trkpt>
      <trkpt lat="39.518907101995" lon="2.924705503271">
        <ele>376.4</ele>
        <time>2014-05-03T11:47:55Z</time>
      </trkpt>
      <trkpt lat="39.518949598228" lon="2.924715142456">
        <ele>376.8</ele>
        <time>2014-05-03T11:47:56Z</time>
      </trkpt>
      <trkpt lat="39.518992262099" lon="2.924720003958">
        <ele>377.2</ele>
        <time>2014-05-03T11:47:57Z</time>
      </trkpt>
      <trkpt lat="39.519034506875" lon="2.924724111089">
        <ele>378.2</ele>
        <time>2014-05-03T11:47:58Z</time>
      </trkpt>
      <trkpt lat="39.519075326728" lon="2.924735594292">
        <ele>378.8</ele>
        <time>2014-05-03T11:47:59Z</time>
      </trkpt>
      <trkpt lat="39.519116146581" lon="2.924751352264">
        <ele>378.8</ele>
        <time>2014-05-03T11:48:00Z</time>
      </trkpt>
      <trkpt lat="39.519157972262" lon="2.924768535159">
        <ele>379.2</ele>
        <time>2014-05-03T11:48:01Z</time>
      </trkpt>
      <trkpt lat="39.519198708296" lon="2.924791417746">
        <ele>379.6</ele>
        <time>2014-05-03T11:48:02Z</time>
      </trkpt>
      <trkpt lat="39.519238941416" lon="2.924819497111">
        <ele>380</ele>
        <time>2014-05-03T11:48:03Z</time>
      </trkpt>
      <trkpt lat="39.519278336346" lon="2.924847827933">
        <ele>380.4</ele>
        <time>2014-05-03T11:48:04Z</time>
      </trkpt>
      <trkpt lat="39.519316222534" lon="2.924877751316">
        <ele>380.8</ele>
        <time>2014-05-03T11:48:05Z</time>
      </trkpt>
      <trkpt lat="39.519353270532" lon="2.924904992491">
        <ele>380.8</ele>
        <time>2014-05-03T11:48:06Z</time>
      </trkpt>
      <trkpt lat="39.519526189129" lon="2.925039521986">
        <ele>380.8</ele>
        <time>2014-05-03T11:48:11Z</time>
      </trkpt>
      <trkpt lat="39.519593747243" lon="2.925106996281">
        <ele>380.8</ele>
        <time>2014-05-03T11:48:13Z</time>
      </trkpt>
      <trkpt lat="39.519697598984" lon="2.925214955153">
        <ele>381.2</ele>
        <time>2014-05-03T11:48:16Z</time>
      </trkpt>
      <trkpt lat="39.519730875127" lon="2.925253930988">
        <ele>381.6</ele>
        <time>2014-05-03T11:48:17Z</time>
      </trkpt>
      <trkpt lat="39.519763564537" lon="2.925285866027">
        <ele>382</ele>
        <time>2014-05-03T11:48:18Z</time>
      </trkpt>
      <trkpt lat="39.519793655558" lon="2.925317046695">
        <ele>382.6</ele>
        <time>2014-05-03T11:48:19Z</time>
      </trkpt>
      <trkpt lat="39.51982114819" lon="2.925347305354">
        <ele>383</ele>
        <time>2014-05-03T11:48:20Z</time>
      </trkpt>
      <trkpt lat="39.519876217273" lon="2.925411175432">
        <ele>384</ele>
        <time>2014-05-03T11:48:22Z</time>
      </trkpt>
      <trkpt lat="39.519904799552" lon="2.925442272281">
        <ele>384.4</ele>
        <time>2014-05-03T11:48:23Z</time>
      </trkpt>
      <trkpt lat="39.519936566953" lon="2.925475380786">
        <ele>384.8</ele>
        <time>2014-05-03T11:48:24Z</time>
      </trkpt>
      <trkpt lat="39.519966406517" lon="2.925509746576">
        <ele>385.4</ele>
        <time>2014-05-03T11:48:25Z</time>
      </trkpt>
      <trkpt lat="39.520028516396" lon="2.925578226699">
        <ele>385.4</ele>
        <time>2014-05-03T11:48:27Z</time>
      </trkpt>
      <trkpt lat="39.520085429497" lon="2.925641677682">
        <ele>385.8</ele>
        <time>2014-05-03T11:48:29Z</time>
      </trkpt>
      <trkpt lat="39.520115101423" lon="2.92567118197">
        <ele>386.2</ele>
        <time>2014-05-03T11:48:30Z</time>
      </trkpt>
      <trkpt lat="39.52014217496" lon="2.925702614095">
        <ele>386.6</ele>
        <time>2014-05-03T11:48:31Z</time>
      </trkpt>
      <trkpt lat="39.520171763067" lon="2.925733878582">
        <ele>387</ele>
        <time>2014-05-03T11:48:32Z</time>
      </trkpt>
      <trkpt lat="39.520200764441" lon="2.925761287395">
        <ele>387.4</ele>
        <time>2014-05-03T11:48:33Z</time>
      </trkpt>
      <trkpt lat="39.520257509904" lon="2.925823313455">
        <ele>387.4</ele>
        <time>2014-05-03T11:48:35Z</time>
      </trkpt>
      <trkpt lat="39.520340909809" lon="2.925907970645">
        <ele>388</ele>
        <time>2014-05-03T11:48:38Z</time>
      </trkpt>
      <trkpt lat="39.520367145156" lon="2.925937642571">
        <ele>388.4</ele>
        <time>2014-05-03T11:48:39Z</time>
      </trkpt>
      <trkpt lat="39.520393129046" lon="2.925966811583">
        <ele>388.8</ele>
        <time>2014-05-03T11:48:40Z</time>
      </trkpt>
      <trkpt lat="39.520420286402" lon="2.925994890948">
        <ele>389.2</ele>
        <time>2014-05-03T11:48:41Z</time>
      </trkpt>
      <trkpt lat="39.520445264464" lon="2.926025903978">
        <ele>389.6</ele>
        <time>2014-05-03T11:48:42Z</time>
      </trkpt>
      <trkpt lat="39.520585074556" lon="2.926191530322">
        <ele>390.2</ele>
        <time>2014-05-03T11:48:47Z</time>
      </trkpt>
      <trkpt lat="39.520611058446" lon="2.926223968275">
        <ele>391</ele>
        <time>2014-05-03T11:48:48Z</time>
      </trkpt>
      <trkpt lat="39.520633857214" lon="2.926255903314">
        <ele>391.4</ele>
        <time>2014-05-03T11:48:49Z</time>
      </trkpt>
      <trkpt lat="39.520658248543" lon="2.92628641343">
        <ele>392</ele>
        <time>2014-05-03T11:48:50Z</time>
      </trkpt>
      <trkpt lat="39.520756484411" lon="2.92641549469">
        <ele>392.4</ele>
        <time>2014-05-03T11:48:54Z</time>
      </trkpt>
      <trkpt lat="39.520781211016" lon="2.926451201584">
        <ele>392.8</ele>
        <time>2014-05-03T11:48:55Z</time>
      </trkpt>
      <trkpt lat="39.520807027268" lon="2.926487327573">
        <ele>393.2</ele>
        <time>2014-05-03T11:48:56Z</time>
      </trkpt>
      <trkpt lat="39.520838040298" lon="2.926529320892">
        <ele>393.6</ele>
        <time>2014-05-03T11:48:57Z</time>
      </trkpt>
      <trkpt lat="39.520864778559" lon="2.92657139803">
        <ele>394</ele>
        <time>2014-05-03T11:48:58Z</time>
      </trkpt>
      <trkpt lat="39.520913058303" lon="2.926652534822">
        <ele>394</ele>
        <time>2014-05-03T11:49:00Z</time>
      </trkpt>
      <trkpt lat="39.520973910897" lon="2.926735599451">
        <ele>394.4</ele>
        <time>2014-05-03T11:49:02Z</time>
      </trkpt>
      <trkpt lat="39.521005845936" lon="2.926778263322">
        <ele>395</ele>
        <time>2014-05-03T11:49:03Z</time>
      </trkpt>
      <trkpt lat="39.521035769319" lon="2.926816065691">
        <ele>395.4</ele>
        <time>2014-05-03T11:49:04Z</time>
      </trkpt>
      <trkpt lat="39.521079103742" lon="2.92685470625">
        <ele>395.8</ele>
        <time>2014-05-03T11:49:05Z</time>
      </trkpt>
      <trkpt lat="39.521105758184" lon="2.926889323497">
        <ele>396.4</ele>
        <time>2014-05-03T11:49:06Z</time>
      </trkpt>
      <trkpt lat="39.521164515303" lon="2.926955037593">
        <ele>396.4</ele>
        <time>2014-05-03T11:49:08Z</time>
      </trkpt>
      <trkpt lat="39.52119829436" lon="2.926985799166">
        <ele>396.8</ele>
        <time>2014-05-03T11:49:09Z</time>
      </trkpt>
      <trkpt lat="39.521236683462" lon="2.927021003146">
        <ele>397.2</ele>
        <time>2014-05-03T11:49:10Z</time>
      </trkpt>
      <trkpt lat="39.521271384528" lon="2.927051513262">
        <ele>397.6</ele>
        <time>2014-05-03T11:49:11Z</time>
      </trkpt>
      <trkpt lat="39.521306672327" lon="2.927074395849">
        <ele>398</ele>
        <time>2014-05-03T11:49:12Z</time>
      </trkpt>
      <trkpt lat="39.521343385049" lon="2.927093758038">
        <ele>398.4</ele>
        <time>2014-05-03T11:49:13Z</time>
      </trkpt>
      <trkpt lat="39.521378756667" lon="2.927114209874">
        <ele>398.8</ele>
        <time>2014-05-03T11:49:14Z</time>
      </trkpt>
      <trkpt lat="39.521412116629" lon="2.927133488244">
        <ele>399.2</ele>
        <time>2014-05-03T11:49:15Z</time>
      </trkpt>
      <trkpt lat="39.521444973677" lon="2.927155281184">
        <ele>399.6</ele>
        <time>2014-05-03T11:49:16Z</time>
      </trkpt>
      <trkpt lat="39.521479339467" lon="2.927171039156">
        <ele>400</ele>
        <time>2014-05-03T11:49:17Z</time>
      </trkpt>
      <trkpt lat="39.521512950886" lon="2.927181851807">
        <ele>400.6</ele>
        <time>2014-05-03T11:49:18Z</time>
      </trkpt>
      <trkpt lat="39.521548909237" lon="2.927207751878">
        <ele>400.6</ele>
        <time>2014-05-03T11:49:19Z</time>
      </trkpt>
      <trkpt lat="39.521574474032" lon="2.927248823188">
        <ele>400.6</ele>
        <time>2014-05-03T11:49:20Z</time>
      </trkpt>
      <trkpt lat="39.521585789597" lon="2.927352674929">
        <ele>400.6</ele>
        <time>2014-05-03T11:49:22Z</time>
      </trkpt>
      <trkpt lat="39.521558380784" lon="2.927380754294">
        <ele>401</ele>
        <time>2014-05-03T11:49:23Z</time>
      </trkpt>
      <trkpt lat="39.521526361926" lon="2.927388717099">
        <ele>401.4</ele>
        <time>2014-05-03T11:49:24Z</time>
      </trkpt>
      <trkpt lat="39.521491409403" lon="2.927378658819">
        <ele>401.8</ele>
        <time>2014-05-03T11:49:25Z</time>
      </trkpt>
      <trkpt lat="39.521458384717" lon="2.92736348758">
        <ele>402.2</ele>
        <time>2014-05-03T11:49:26Z</time>
      </trkpt>
      <trkpt lat="39.521426701135" lon="2.927340521174">
        <ele>402.8</ele>
        <time>2014-05-03T11:49:27Z</time>
      </trkpt>
      <trkpt lat="39.521394179363" lon="2.92731738713">
        <ele>403.4</ele>
        <time>2014-05-03T11:49:28Z</time>
      </trkpt>
      <trkpt lat="39.521358304831" lon="2.927291151783">
        <ele>404</ele>
        <time>2014-05-03T11:49:29Z</time>
      </trkpt>
      <trkpt lat="39.521320083367" lon="2.927261479857">
        <ele>404.4</ele>
        <time>2014-05-03T11:49:30Z</time>
      </trkpt>
      <trkpt lat="39.521281694265" lon="2.927234825415">
        <ele>405</ele>
        <time>2014-05-03T11:49:31Z</time>
      </trkpt>
      <trkpt lat="39.521163593294" lon="2.927142875972">
        <ele>405</ele>
        <time>2014-05-03T11:49:34Z</time>
      </trkpt>
      <trkpt lat="39.521086228357" lon="2.92707347384">
        <ele>405.4</ele>
        <time>2014-05-03T11:49:36Z</time>
      </trkpt>
      <trkpt lat="39.521045408504" lon="2.92703240253">
        <ele>406.2</ele>
        <time>2014-05-03T11:49:37Z</time>
      </trkpt>
      <trkpt lat="39.521001152072" lon="2.926996947093">
        <ele>406.6</ele>
        <time>2014-05-03T11:49:38Z</time>
      </trkpt>
      <trkpt lat="39.520954464889" lon="2.926966688434">
        <ele>407</ele>
        <time>2014-05-03T11:49:39Z</time>
      </trkpt>
      <trkpt lat="39.520906939516" lon="2.926939698716">
        <ele>407</ele>
        <time>2014-05-03T11:49:40Z</time>
      </trkpt>
      <trkpt lat="39.520574848638" lon="2.926716991633">
        <ele>407</ele>
        <time>2014-05-03T11:49:47Z</time>
      </trkpt>
      <trkpt lat="39.520484910851" lon="2.926658066876">
        <ele>407</ele>
        <time>2014-05-03T11:49:49Z</time>
      </trkpt>
      <trkpt lat="39.520398577281" lon="2.926605512363">
        <ele>407.6</ele>
        <time>2014-05-03T11:49:51Z</time>
      </trkpt>
      <trkpt lat="39.520355745772" lon="2.926581959224">
        <ele>408</ele>
        <time>2014-05-03T11:49:52Z</time>
      </trkpt>
      <trkpt lat="39.520313836272" lon="2.926557651714">
        <ele>408.4</ele>
        <time>2014-05-03T11:49:53Z</time>
      </trkpt>
      <trkpt lat="39.520276033903" lon="2.92653116491">
        <ele>409</ele>
        <time>2014-05-03T11:49:54Z</time>
      </trkpt>
      <trkpt lat="39.520239991733" lon="2.926504175192">
        <ele>409.4</ele>
        <time>2014-05-03T11:49:55Z</time>
      </trkpt>
      <trkpt lat="39.520196573491" lon="2.926477604569">
        <ele>409.4</ele>
        <time>2014-05-03T11:49:56Z</time>
      </trkpt>
      <trkpt lat="39.520151311231" lon="2.926453297059">
        <ele>409.8</ele>
        <time>2014-05-03T11:49:57Z</time>
      </trkpt>
      <trkpt lat="39.520101355107" lon="2.926426223522">
        <ele>410.2</ele>
        <time>2014-05-03T11:49:58Z</time>
      </trkpt>
      <trkpt lat="39.520049722603" lon="2.926397473605">
        <ele>410.6</ele>
        <time>2014-05-03T11:49:59Z</time>
      </trkpt>
      <trkpt lat="39.519999263565" lon="2.926368053136">
        <ele>411.2</ele>
        <time>2014-05-03T11:50:00Z</time>
      </trkpt>
      <trkpt lat="39.519951235278" lon="2.926335699002">
        <ele>411.6</ele>
        <time>2014-05-03T11:50:01Z</time>
      </trkpt>
      <trkpt lat="39.519803462381" lon="2.926244587749">
        <ele>411.6</ele>
        <time>2014-05-03T11:50:05Z</time>
      </trkpt>
      <trkpt lat="39.519752248972" lon="2.92621013814">
        <ele>411.6</ele>
        <time>2014-05-03T11:50:06Z</time>
      </trkpt>
      <trkpt lat="39.519437676265" lon="2.926034788792">
        <ele>411.6</ele>
        <time>2014-05-03T11:50:12Z</time>
      </trkpt>
      <trkpt lat="39.519382355725" lon="2.926025401064">
        <ele>411.6</ele>
        <time>2014-05-03T11:50:13Z</time>
      </trkpt>
      <trkpt lat="39.519284538952" lon="2.926092288626">
        <ele>411.6</ele>
        <time>2014-05-03T11:50:15Z</time>
      </trkpt>
      <trkpt lat="39.519293591404" lon="2.926237630772">
        <ele>411.6</ele>
        <time>2014-05-03T11:50:17Z</time>
      </trkpt>
      <trkpt lat="39.519344972451" lon="2.926281551928">
        <ele>412</ele>
        <time>2014-05-03T11:50:18Z</time>
      </trkpt>
      <trkpt lat="39.519397946059" lon="2.926299070099">
        <ele>412.4</ele>
        <time>2014-05-03T11:50:19Z</time>
      </trkpt>
      <trkpt lat="39.519446728717" lon="2.926310050388">
        <ele>412.8</ele>
        <time>2014-05-03T11:50:20Z</time>
      </trkpt>
      <trkpt lat="39.519497690669" lon="2.926318348469">
        <ele>413.2</ele>
        <time>2014-05-03T11:50:21Z</time>
      </trkpt>
      <trkpt lat="39.519545216042" lon="2.92632999931">
        <ele>413.6</ele>
        <time>2014-05-03T11:50:22Z</time>
      </trkpt>
      <trkpt lat="39.519637919856" lon="2.926365706204">
        <ele>413.6</ele>
        <time>2014-05-03T11:50:24Z</time>
      </trkpt>
      <trkpt lat="39.519681254279" lon="2.926395881044">
        <ele>414.2</ele>
        <time>2014-05-03T11:50:25Z</time>
      </trkpt>
      <trkpt lat="39.51972140358" lon="2.9264314203">
        <ele>414.6</ele>
        <time>2014-05-03T11:50:26Z</time>
      </trkpt>
      <trkpt lat="39.519763732175" lon="2.926470647592">
        <ele>415</ele>
        <time>2014-05-03T11:50:27Z</time>
      </trkpt>
      <trkpt lat="39.519802456553" lon="2.926507444133">
        <ele>415.8</ele>
        <time>2014-05-03T11:50:28Z</time>
      </trkpt>
      <trkpt lat="39.519842773492" lon="2.926541474647">
        <ele>415.8</ele>
        <time>2014-05-03T11:50:29Z</time>
      </trkpt>
      <trkpt lat="39.519882503698" lon="2.926574331695">
        <ele>416.2</ele>
        <time>2014-05-03T11:50:30Z</time>
      </trkpt>
      <trkpt lat="39.519920557524" lon="2.926607691657">
        <ele>416.6</ele>
        <time>2014-05-03T11:50:31Z</time>
      </trkpt>
      <trkpt lat="39.519952157287" lon="2.926642057447">
        <ele>417</ele>
        <time>2014-05-03T11:50:32Z</time>
      </trkpt>
      <trkpt lat="39.519986439258" lon="2.926675417409">
        <ele>417.6</ele>
        <time>2014-05-03T11:50:33Z</time>
      </trkpt>
      <trkpt lat="39.520021978514" lon="2.926707939181">
        <ele>418</ele>
        <time>2014-05-03T11:50:34Z</time>
      </trkpt>
      <trkpt lat="39.520059529426" lon="2.926740880048">
        <ele>418.4</ele>
        <time>2014-05-03T11:50:35Z</time>
      </trkpt>
      <trkpt lat="39.520095990691" lon="2.926776167847">
        <ele>418.8</ele>
        <time>2014-05-03T11:50:36Z</time>
      </trkpt>
      <trkpt lat="39.520133709241" lon="2.926807432334">
        <ele>419.2</ele>
        <time>2014-05-03T11:50:37Z</time>
      </trkpt>
      <trkpt lat="39.520168829402" lon="2.926835511699">
        <ele>419.6</ele>
        <time>2014-05-03T11:50:38Z</time>
      </trkpt>
      <trkpt lat="39.520203698106" lon="2.926865015987">
        <ele>420</ele>
        <time>2014-05-03T11:50:39Z</time>
      </trkpt>
      <trkpt lat="39.520274106066" lon="2.926919330699">
        <ele>420.6</ele>
        <time>2014-05-03T11:50:41Z</time>
      </trkpt>
      <trkpt lat="39.52031065115" lon="2.926951265738">
        <ele>421</ele>
        <time>2014-05-03T11:50:42Z</time>
      </trkpt>
      <trkpt lat="39.520345938949" lon="2.92698211113">
        <ele>421.4</ele>
        <time>2014-05-03T11:50:43Z</time>
      </trkpt>
      <trkpt lat="39.520384579508" lon="2.927009436124">
        <ele>422</ele>
        <time>2014-05-03T11:50:44Z</time>
      </trkpt>
      <trkpt lat="39.520418526203" lon="2.927038102222">
        <ele>422.4</ele>
        <time>2014-05-03T11:50:45Z</time>
      </trkpt>
      <trkpt lat="39.520473595286" lon="2.927102391395">
        <ele>422.4</ele>
        <time>2014-05-03T11:50:47Z</time>
      </trkpt>
      <trkpt lat="39.52056881367" lon="2.927202387462">
        <ele>422.8</ele>
        <time>2014-05-03T11:50:50Z</time>
      </trkpt>
      <trkpt lat="39.520606029306" lon="2.927233819587">
        <ele>423.2</ele>
        <time>2014-05-03T11:50:51Z</time>
      </trkpt>
      <trkpt lat="39.520641233286" lon="2.92727044849">
        <ele>423.8</ele>
        <time>2014-05-03T11:50:52Z</time>
      </trkpt>
      <trkpt lat="39.520669647927" lon="2.927301712977">
        <ele>424.6</ele>
        <time>2014-05-03T11:50:53Z</time>
      </trkpt>
      <trkpt lat="39.520780791921" lon="2.92743557192">
        <ele>425</ele>
        <time>2014-05-03T11:50:57Z</time>
      </trkpt>
      <trkpt lat="39.520810463847" lon="2.927470356805">
        <ele>425.6</ele>
        <time>2014-05-03T11:50:58Z</time>
      </trkpt>
      <trkpt lat="39.520842566524" lon="2.927505560785">
        <ele>426</ele>
        <time>2014-05-03T11:50:59Z</time>
      </trkpt>
      <trkpt lat="39.520876513219" lon="2.92753615472">
        <ele>426.4</ele>
        <time>2014-05-03T11:51:00Z</time>
      </trkpt>
      <trkpt lat="39.520908448258" lon="2.927568089759">
        <ele>426.8</ele>
        <time>2014-05-03T11:51:01Z</time>
      </trkpt>
      <trkpt lat="39.520989082136" lon="2.927623661756">
        <ele>426.8</ele>
        <time>2014-05-03T11:51:03Z</time>
      </trkpt>
      <trkpt lat="39.521088826746" lon="2.927687112739">
        <ele>426.8</ele>
        <time>2014-05-03T11:51:05Z</time>
      </trkpt>
      <trkpt lat="39.521373308432" lon="2.927886015226">
        <ele>426.8</ele>
        <time>2014-05-03T11:51:11Z</time>
      </trkpt>
      <trkpt lat="39.521422677823" lon="2.927917028256">
        <ele>427.2</ele>
        <time>2014-05-03T11:51:12Z</time>
      </trkpt>
      <trkpt lat="39.521467856264" lon="2.927950472037">
        <ele>427.6</ele>
        <time>2014-05-03T11:51:13Z</time>
      </trkpt>
      <trkpt lat="39.521509514307" lon="2.927985256922">
        <ele>428</ele>
        <time>2014-05-03T11:51:14Z</time>
      </trkpt>
      <trkpt lat="39.521550837074" lon="2.928021802006">
        <ele>428.4</ele>
        <time>2014-05-03T11:51:15Z</time>
      </trkpt>
      <trkpt lat="39.521587968891" lon="2.928056922167">
        <ele>428.8</ele>
        <time>2014-05-03T11:51:16Z</time>
      </trkpt>
      <trkpt lat="39.52165426972" lon="2.928126911032">
        <ele>428.8</ele>
        <time>2014-05-03T11:51:18Z</time>
      </trkpt>
      <trkpt lat="39.521729287725" lon="2.9281916193">
        <ele>429.4</ele>
        <time>2014-05-03T11:51:20Z</time>
      </trkpt>
      <trkpt lat="39.521764659343" lon="2.928227912927">
        <ele>430</ele>
        <time>2014-05-03T11:51:21Z</time>
      </trkpt>
      <trkpt lat="39.521805311558" lon="2.928259847966">
        <ele>430.4</ele>
        <time>2014-05-03T11:51:22Z</time>
      </trkpt>
      <trkpt lat="39.521845125583" lon="2.928286586227">
        <ele>431</ele>
        <time>2014-05-03T11:51:23Z</time>
      </trkpt>
      <trkpt lat="39.521884269056" lon="2.928318856542">
        <ele>431.6</ele>
        <time>2014-05-03T11:51:24Z</time>
      </trkpt>
      <trkpt lat="39.521920730321" lon="2.928355653083">
        <ele>432</ele>
        <time>2014-05-03T11:51:25Z</time>
      </trkpt>
      <trkpt lat="39.521954677016" lon="2.928391862891">
        <ele>432.4</ele>
        <time>2014-05-03T11:51:26Z</time>
      </trkpt>
      <trkpt lat="39.521990886824" lon="2.928431257821">
        <ele>432.8</ele>
        <time>2014-05-03T11:51:27Z</time>
      </trkpt>
      <trkpt lat="39.522026761356" lon="2.92846989838">
        <ele>433.2</ele>
        <time>2014-05-03T11:51:28Z</time>
      </trkpt>
      <trkpt lat="39.5220582773" lon="2.928514825364">
        <ele>433.6</ele>
        <time>2014-05-03T11:51:29Z</time>
      </trkpt>
      <trkpt lat="39.522092475452" lon="2.928558243606">
        <ele>434</ele>
        <time>2014-05-03T11:51:30Z</time>
      </trkpt>
      <trkpt lat="39.522128433803" lon="2.928599985468">
        <ele>434.4</ele>
        <time>2014-05-03T11:51:31Z</time>
      </trkpt>
      <trkpt lat="39.522160368842" lon="2.928642230244">
        <ele>434.8</ele>
        <time>2014-05-03T11:51:32Z</time>
      </trkpt>
      <trkpt lat="39.522190962777" lon="2.928683804468">
        <ele>435.2</ele>
        <time>2014-05-03T11:51:33Z</time>
      </trkpt>
      <trkpt lat="39.522220550884" lon="2.928727557986">
        <ele>435.6</ele>
        <time>2014-05-03T11:51:34Z</time>
      </trkpt>
      <trkpt lat="39.522282325487" lon="2.928814310651">
        <ele>435.6</ele>
        <time>2014-05-03T11:51:36Z</time>
      </trkpt>
      <trkpt lat="39.522317864743" lon="2.928859069997">
        <ele>436</ele>
        <time>2014-05-03T11:51:37Z</time>
      </trkpt>
      <trkpt lat="39.522347871945" lon="2.928907098284">
        <ele>436.6</ele>
        <time>2014-05-03T11:51:38Z</time>
      </trkpt>
      <trkpt lat="39.522376957138" lon="2.92895269582">
        <ele>437</ele>
        <time>2014-05-03T11:51:39Z</time>
      </trkpt>
      <trkpt lat="39.522404365951" lon="2.929000891745">
        <ele>437.6</ele>
        <time>2014-05-03T11:51:40Z</time>
      </trkpt>
      <trkpt lat="39.522433032049" lon="2.92904573491">
        <ele>438</ele>
        <time>2014-05-03T11:51:41Z</time>
      </trkpt>
      <trkpt lat="39.522462201061" lon="2.929092422093">
        <ele>438</ele>
        <time>2014-05-03T11:51:42Z</time>
      </trkpt>
      <trkpt lat="39.522597065832" lon="2.929291659856">
        <ele>438.4</ele>
        <time>2014-05-03T11:51:47Z</time>
      </trkpt>
      <trkpt lat="39.522620199876" lon="2.929332479709">
        <ele>438.8</ele>
        <time>2014-05-03T11:51:48Z</time>
      </trkpt>
      <trkpt lat="39.522641825178" lon="2.929375730313">
        <ele>439.2</ele>
        <time>2014-05-03T11:51:49Z</time>
      </trkpt>
      <trkpt lat="39.522662193195" lon="2.92941705308">
        <ele>439.6</ele>
        <time>2014-05-03T11:51:50Z</time>
      </trkpt>
      <trkpt lat="39.522686333067" lon="2.929460722779">
        <ele>440</ele>
        <time>2014-05-03T11:51:51Z</time>
      </trkpt>
      <trkpt lat="39.522764620013" lon="2.929620062698">
        <ele>440.4</ele>
        <time>2014-05-03T11:51:55Z</time>
      </trkpt>
      <trkpt lat="39.522785155668" lon="2.929657362153">
        <ele>441</ele>
        <time>2014-05-03T11:51:56Z</time>
      </trkpt>
      <trkpt lat="39.522808792626" lon="2.929693907237">
        <ele>441.4</ele>
        <time>2014-05-03T11:51:57Z</time>
      </trkpt>
      <trkpt lat="39.522835363249" lon="2.929725087905">
        <ele>441.8</ele>
        <time>2014-05-03T11:51:58Z</time>
      </trkpt>
      <trkpt lat="39.522859503121" lon="2.9297590346">
        <ele>442.4</ele>
        <time>2014-05-03T11:51:59Z</time>
      </trkpt>
      <trkpt lat="39.522934269669" lon="2.929867412567">
        <ele>442.4</ele>
        <time>2014-05-03T11:52:02Z</time>
      </trkpt>
      <trkpt lat="39.52301213752" lon="2.929984423891">
        <ele>442.8</ele>
        <time>2014-05-03T11:52:05Z</time>
      </trkpt>
      <trkpt lat="39.523040049247" lon="2.930016275111">
        <ele>443.2</ele>
        <time>2014-05-03T11:52:06Z</time>
      </trkpt>
      <trkpt lat="39.523071984286" lon="2.930048461607">
        <ele>444</ele>
        <time>2014-05-03T11:52:07Z</time>
      </trkpt>
      <trkpt lat="39.523099141642" lon="2.930079642275">
        <ele>444.4</ele>
        <time>2014-05-03T11:52:08Z</time>
      </trkpt>
      <trkpt lat="39.5231898338" lon="2.930172597546">
        <ele>444.8</ele>
        <time>2014-05-03T11:52:11Z</time>
      </trkpt>
      <trkpt lat="39.52321749407" lon="2.930209813182">
        <ele>445.4</ele>
        <time>2014-05-03T11:52:12Z</time>
      </trkpt>
      <trkpt lat="39.523248171824" lon="2.930245687714">
        <ele>445.8</ele>
        <time>2014-05-03T11:52:13Z</time>
      </trkpt>
      <trkpt lat="39.523265354719" lon="2.930293213087">
        <ele>446.2</ele>
        <time>2014-05-03T11:52:14Z</time>
      </trkpt>
      <trkpt lat="39.523249512928" lon="2.930341995745">
        <ele>446.8</ele>
        <time>2014-05-03T11:52:15Z</time>
      </trkpt>
      <trkpt lat="39.523216152966" lon="2.930368650187">
        <ele>446.8</ele>
        <time>2014-05-03T11:52:16Z</time>
      </trkpt>
      <trkpt lat="39.523155719467" lon="2.930363704866">
        <ele>447.2</ele>
        <time>2014-05-03T11:52:18Z</time>
      </trkpt>
      <trkpt lat="39.52312780774" lon="2.930346857247">
        <ele>447.6</ele>
        <time>2014-05-03T11:52:19Z</time>
      </trkpt>
      <trkpt lat="39.52310936756" lon="2.930327997972">
        <ele>448.2</ele>
        <time>2014-05-03T11:52:20Z</time>
      </trkpt>
      <trkpt lat="39.523093944864" lon="2.930291788164">
        <ele>448.6</ele>
        <time>2014-05-03T11:52:21Z</time>
      </trkpt>
      <trkpt lat="39.523057986513" lon="2.930246944999">
        <ele>449</ele>
        <time>2014-05-03T11:52:22Z</time>
      </trkpt>
      <trkpt lat="39.523019597411" lon="2.930204616404">
        <ele>449</ele>
        <time>2014-05-03T11:52:23Z</time>
      </trkpt>
      <trkpt lat="39.522841314398" lon="2.930000014225">
        <ele>449.4</ele>
        <time>2014-05-03T11:52:28Z</time>
      </trkpt>
      <trkpt lat="39.522816168698" lon="2.929958020906">
        <ele>449.8</ele>
        <time>2014-05-03T11:52:29Z</time>
      </trkpt>
      <trkpt lat="39.522787921695" lon="2.92992415803">
        <ele>450.4</ele>
        <time>2014-05-03T11:52:30Z</time>
      </trkpt>
      <trkpt lat="39.522759339416" lon="2.92988979224">
        <ele>450.8</ele>
        <time>2014-05-03T11:52:31Z</time>
      </trkpt>
      <trkpt lat="39.522733606983" lon="2.929856516097">
        <ele>451.2</ele>
        <time>2014-05-03T11:52:32Z</time>
      </trkpt>
      <trkpt lat="39.52267937609" lon="2.929791640191">
        <ele>451.6</ele>
        <time>2014-05-03T11:52:34Z</time>
      </trkpt>
      <trkpt lat="39.522651296725" lon="2.929763477007">
        <ele>452</ele>
        <time>2014-05-03T11:52:35Z</time>
      </trkpt>
      <trkpt lat="39.52262657012" lon="2.929740007687">
        <ele>452.4</ele>
        <time>2014-05-03T11:52:36Z</time>
      </trkpt>
      <trkpt lat="39.522598406936" lon="2.929699942205">
        <ele>453</ele>
        <time>2014-05-03T11:52:37Z</time>
      </trkpt>
      <trkpt lat="39.522566807173" lon="2.929664822044">
        <ele>453.4</ele>
        <time>2014-05-03T11:52:38Z</time>
      </trkpt>
      <trkpt lat="39.522508720606" lon="2.929585277813">
        <ele>453.4</ele>
        <time>2014-05-03T11:52:40Z</time>
      </trkpt>
      <trkpt lat="39.522387350694" lon="2.929452173241">
        <ele>453.8</ele>
        <time>2014-05-03T11:52:44Z</time>
      </trkpt>
      <trkpt lat="39.522361115347" lon="2.929419148555">
        <ele>454.2</ele>
        <time>2014-05-03T11:52:45Z</time>
      </trkpt>
      <trkpt lat="39.522330772869" lon="2.929387045878">
        <ele>454.8</ele>
        <time>2014-05-03T11:52:46Z</time>
      </trkpt>
      <trkpt lat="39.522299173106" lon="2.929360726712">
        <ele>455.2</ele>
        <time>2014-05-03T11:52:47Z</time>
      </trkpt>
      <trkpt lat="39.522268495352" lon="2.929330132777">
        <ele>455.6</ele>
        <time>2014-05-03T11:52:48Z</time>
      </trkpt>
      <trkpt lat="39.522114687487" lon="2.929183868622">
        <ele>456</ele>
        <time>2014-05-03T11:52:53Z</time>
      </trkpt>
      <trkpt lat="39.522081578982" lon="2.929162913872">
        <ele>456.4</ele>
        <time>2014-05-03T11:52:54Z</time>
      </trkpt>
      <trkpt lat="39.522045201536" lon="2.929139863647">
        <ele>456.8</ele>
        <time>2014-05-03T11:52:55Z</time>
      </trkpt>
      <trkpt lat="39.52200547133" lon="2.929115723775">
        <ele>457.2</ele>
        <time>2014-05-03T11:52:56Z</time>
      </trkpt>
      <trkpt lat="39.521967082228" lon="2.929089991342">
        <ele>457.6</ele>
        <time>2014-05-03T11:52:57Z</time>
      </trkpt>
      <trkpt lat="39.521852250198" lon="2.929011620577">
        <ele>457.6</ele>
        <time>2014-05-03T11:53:00Z</time>
      </trkpt>
      <trkpt lat="39.521816962399" lon="2.928983289755">
        <ele>457.6</ele>
        <time>2014-05-03T11:53:01Z</time>
      </trkpt>
      <trkpt lat="39.521709171165" lon="2.928910870139">
        <ele>458.2</ele>
        <time>2014-05-03T11:53:04Z</time>
      </trkpt>
      <trkpt lat="39.521674805375" lon="2.928893771063">
        <ele>458.6</ele>
        <time>2014-05-03T11:53:05Z</time>
      </trkpt>
      <trkpt lat="39.521639769033" lon="2.928878599824">
        <ele>459</ele>
        <time>2014-05-03T11:53:06Z</time>
      </trkpt>
      <trkpt lat="39.521600374103" lon="2.92886468587">
        <ele>459.4</ele>
        <time>2014-05-03T11:53:07Z</time>
      </trkpt>
      <trkpt lat="39.521566175951" lon="2.928849849907">
        <ele>459.8</ele>
        <time>2014-05-03T11:53:08Z</time>
      </trkpt>
      <trkpt lat="39.521423432194" lon="2.928826715863">
        <ele>460.4</ele>
        <time>2014-05-03T11:53:12Z</time>
      </trkpt>
      <trkpt lat="39.521388060576" lon="2.928825710035">
        <ele>460.8</ele>
        <time>2014-05-03T11:53:13Z</time>
      </trkpt>
      <trkpt lat="39.521352269863" lon="2.928819842705">
        <ele>461.2</ele>
        <time>2014-05-03T11:53:14Z</time>
      </trkpt>
      <trkpt lat="39.521311030915" lon="2.92882193818">
        <ele>461.8</ele>
        <time>2014-05-03T11:53:15Z</time>
      </trkpt>
      <trkpt lat="39.521271635985" lon="2.928823949836">
        <ele>462.2</ele>
        <time>2014-05-03T11:53:16Z</time>
      </trkpt>
      <trkpt lat="39.521183626035" lon="2.928834846306">
        <ele>462.2</ele>
        <time>2014-05-03T11:53:18Z</time>
      </trkpt>
      <trkpt lat="39.521103159795" lon="2.928857393617">
        <ele>462.6</ele>
        <time>2014-05-03T11:53:20Z</time>
      </trkpt>
      <trkpt lat="39.521066027978" lon="2.928873319227">
        <ele>463.2</ele>
        <time>2014-05-03T11:53:21Z</time>
      </trkpt>
      <trkpt lat="39.521027052143" lon="2.928895028348">
        <ele>464</ele>
        <time>2014-05-03T11:53:22Z</time>
      </trkpt>
      <trkpt lat="39.520988243946" lon="2.928923023894">
        <ele>464.6</ele>
        <time>2014-05-03T11:53:23Z</time>
      </trkpt>
      <trkpt lat="39.520916913977" lon="2.92899879627">
        <ele>464.6</ele>
        <time>2014-05-03T11:53:25Z</time>
      </trkpt>
      <trkpt lat="39.520891935915" lon="2.929048417118">
        <ele>465</ele>
        <time>2014-05-03T11:53:26Z</time>
      </trkpt>
      <trkpt lat="39.520872154631" lon="2.929104994943">
        <ele>465.4</ele>
        <time>2014-05-03T11:53:27Z</time>
      </trkpt>
      <trkpt lat="39.520864359464" lon="2.929165847537">
        <ele>465.8</ele>
        <time>2014-05-03T11:53:28Z</time>
      </trkpt>
      <trkpt lat="39.520865868206" lon="2.92923013671">
        <ele>466.2</ele>
        <time>2014-05-03T11:53:29Z</time>
      </trkpt>
      <trkpt lat="39.520872154631" lon="2.9292896482">
        <ele>466.6</ele>
        <time>2014-05-03T11:53:30Z</time>
      </trkpt>
      <trkpt lat="39.520941137668" lon="2.929502632279">
        <ele>467</ele>
        <time>2014-05-03T11:53:34Z</time>
      </trkpt>
      <trkpt lat="39.520966702463" lon="2.929548816548">
        <ele>467.6</ele>
        <time>2014-05-03T11:53:35Z</time>
      </trkpt>
      <trkpt lat="39.520993776" lon="2.929599359405">
        <ele>468</ele>
        <time>2014-05-03T11:53:36Z</time>
      </trkpt>
      <trkpt lat="39.521025962496" lon="2.929650740452">
        <ele>468.4</ele>
        <time>2014-05-03T11:53:37Z</time>
      </trkpt>
      <trkpt lat="39.52106166939" lon="2.929691057391">
        <ele>468.8</ele>
        <time>2014-05-03T11:53:38Z</time>
      </trkpt>
      <trkpt lat="39.521136519757" lon="2.929756939125">
        <ele>468.8</ele>
        <time>2014-05-03T11:53:40Z</time>
      </trkpt>
      <trkpt lat="39.521176836696" lon="2.929782001006">
        <ele>469.4</ele>
        <time>2014-05-03T11:53:41Z</time>
      </trkpt>
      <trkpt lat="39.521218662377" lon="2.929805218869">
        <ele>469.8</ele>
        <time>2014-05-03T11:53:42Z</time>
      </trkpt>
      <trkpt lat="39.521259733687" lon="2.929825419248">
        <ele>470.2</ele>
        <time>2014-05-03T11:53:43Z</time>
      </trkpt>
      <trkpt lat="39.521296194952" lon="2.929845032894">
        <ele>470.6</ele>
        <time>2014-05-03T11:53:44Z</time>
      </trkpt>
      <trkpt lat="39.521329638733" lon="2.929873782811">
        <ele>471</ele>
        <time>2014-05-03T11:53:45Z</time>
      </trkpt>
      <trkpt lat="39.52146986792" lon="2.930034380015">
        <ele>471</ele>
        <time>2014-05-03T11:53:50Z</time>
      </trkpt>
      <trkpt lat="39.521527367754" lon="2.93009682517">
        <ele>471.4</ele>
        <time>2014-05-03T11:53:52Z</time>
      </trkpt>
      <trkpt lat="39.521561565906" lon="2.930128089657">
        <ele>471.8</ele>
        <time>2014-05-03T11:53:53Z</time>
      </trkpt>
      <trkpt lat="39.521599619732" lon="2.930158599773">
        <ele>472.2</ele>
        <time>2014-05-03T11:53:54Z</time>
      </trkpt>
      <trkpt lat="39.521649492037" lon="2.930200173997">
        <ele>472.6</ele>
        <time>2014-05-03T11:53:55Z</time>
      </trkpt>
      <trkpt lat="39.52169534103" lon="2.93024267023">
        <ele>473</ele>
        <time>2014-05-03T11:53:56Z</time>
      </trkpt>
      <trkpt lat="39.521744375145" lon="2.930286759024">
        <ele>473</ele>
        <time>2014-05-03T11:53:57Z</time>
      </trkpt>
      <trkpt lat="39.522095744393" lon="2.930613569305">
        <ele>473</ele>
        <time>2014-05-03T11:54:04Z</time>
      </trkpt>
      <trkpt lat="39.522151064933" lon="2.930653886244">
        <ele>473</ele>
        <time>2014-05-03T11:54:05Z</time>
      </trkpt>
      <trkpt lat="39.522401348467" lon="2.930774334147">
        <ele>473</ele>
        <time>2014-05-03T11:54:09Z</time>
      </trkpt>
      <trkpt lat="39.522792447921" lon="2.930952868617">
        <ele>473</ele>
        <time>2014-05-03T11:54:15Z</time>
      </trkpt>
      <trkpt lat="39.523057064504" lon="2.931150681457">
        <ele>473</ele>
        <time>2014-05-03T11:54:20Z</time>
      </trkpt>
      <trkpt lat="39.523189330886" lon="2.931227375842">
        <ele>473.4</ele>
        <time>2014-05-03T11:54:23Z</time>
      </trkpt>
      <trkpt lat="39.523234425508" lon="2.931249839334">
        <ele>474</ele>
        <time>2014-05-03T11:54:24Z</time>
      </trkpt>
      <trkpt lat="39.523283291985" lon="2.931274733577">
        <ele>474.4</ele>
        <time>2014-05-03T11:54:25Z</time>
      </trkpt>
      <trkpt lat="39.523329643892" lon="2.931295772146">
        <ele>474.8</ele>
        <time>2014-05-03T11:54:26Z</time>
      </trkpt>
      <trkpt lat="39.52337926474" lon="2.931313793231">
        <ele>475.4</ele>
        <time>2014-05-03T11:54:27Z</time>
      </trkpt>
      <trkpt lat="39.523429723778" lon="2.931330808488">
        <ele>475.8</ele>
        <time>2014-05-03T11:54:28Z</time>
      </trkpt>
      <trkpt lat="39.523478338798" lon="2.931348075202">
        <ele>476.2</ele>
        <time>2014-05-03T11:54:29Z</time>
      </trkpt>
      <trkpt lat="39.52353013894" lon="2.931364084631">
        <ele>476.8</ele>
        <time>2014-05-03T11:54:30Z</time>
      </trkpt>
      <trkpt lat="39.52358043034" lon="2.931373891454">
        <ele>477.2</ele>
        <time>2014-05-03T11:54:31Z</time>
      </trkpt>
      <trkpt lat="39.523630386464" lon="2.931384117372">
        <ele>477.6</ele>
        <time>2014-05-03T11:54:32Z</time>
      </trkpt>
      <trkpt lat="39.523679672036" lon="2.931390822892">
        <ele>478.2</ele>
        <time>2014-05-03T11:54:33Z</time>
      </trkpt>
      <trkpt lat="39.523731220721" lon="2.931396774041">
        <ele>478.6</ele>
        <time>2014-05-03T11:54:34Z</time>
      </trkpt>
      <trkpt lat="39.52378159594" lon="2.931399037154">
        <ele>479.6</ele>
        <time>2014-05-03T11:54:35Z</time>
      </trkpt>
      <trkpt lat="39.523828283123" lon="2.931400042982">
        <ele>480</ele>
        <time>2014-05-03T11:54:36Z</time>
      </trkpt>
      <trkpt lat="39.523877736333" lon="2.931398198964">
        <ele>480.4</ele>
        <time>2014-05-03T11:54:37Z</time>
      </trkpt>
      <trkpt lat="39.523927608638" lon="2.931397276955">
        <ele>480.8</ele>
        <time>2014-05-03T11:54:38Z</time>
      </trkpt>
      <trkpt lat="39.523978822047" lon="2.931390739073">
        <ele>481.4</ele>
        <time>2014-05-03T11:54:39Z</time>
      </trkpt>
      <trkpt lat="39.524028694352" lon="2.931384620286">
        <ele>481.8</ele>
        <time>2014-05-03T11:54:40Z</time>
      </trkpt>
      <trkpt lat="39.524178311267" lon="2.931363665536">
        <ele>482.2</ele>
        <time>2014-05-03T11:54:43Z</time>
      </trkpt>
      <trkpt lat="39.524223908803" lon="2.931351176505">
        <ele>482.6</ele>
        <time>2014-05-03T11:54:44Z</time>
      </trkpt>
      <trkpt lat="39.524266405036" lon="2.931346231184">
        <ele>483</ele>
        <time>2014-05-03T11:54:45Z</time>
      </trkpt>
      <trkpt lat="39.524309488002" lon="2.931334328886">
        <ele>483.4</ele>
        <time>2014-05-03T11:54:46Z</time>
      </trkpt>
      <trkpt lat="39.524354834081" lon="2.931323180959">
        <ele>483.8</ele>
        <time>2014-05-03T11:54:47Z</time>
      </trkpt>
      <trkpt lat="39.524437479615" lon="2.9313096861">
        <ele>484.2</ele>
        <time>2014-05-03T11:54:49Z</time>
      </trkpt>
      <trkpt lat="39.524477964192" lon="2.931305830426">
        <ele>484.8</ele>
        <time>2014-05-03T11:54:50Z</time>
      </trkpt>
      <trkpt lat="39.524519622235" lon="2.93129878963">
        <ele>485.2</ele>
        <time>2014-05-03T11:54:51Z</time>
      </trkpt>
      <trkpt lat="39.52456278902" lon="2.931295101594">
        <ele>485.6</ele>
        <time>2014-05-03T11:54:52Z</time>
      </trkpt>
      <trkpt lat="39.524601513398" lon="2.931291832653">
        <ele>486</ele>
        <time>2014-05-03T11:54:53Z</time>
      </trkpt>
      <trkpt lat="39.524774599633" lon="2.931285127133">
        <ele>486</ele>
        <time>2014-05-03T11:54:58Z</time>
      </trkpt>
      <trkpt lat="39.524879038107" lon="2.93128202583">
        <ele>486.4</ele>
        <time>2014-05-03T11:55:01Z</time>
      </trkpt>
      <trkpt lat="39.524915750829" lon="2.931278421613">
        <ele>486.8</ele>
        <time>2014-05-03T11:55:02Z</time>
      </trkpt>
      <trkpt lat="39.524950116619" lon="2.931279930355">
        <ele>487.2</ele>
        <time>2014-05-03T11:55:03Z</time>
      </trkpt>
      <trkpt lat="39.524982973667" lon="2.931276912871">
        <ele>487.6</ele>
        <time>2014-05-03T11:55:04Z</time>
      </trkpt>
      <trkpt lat="39.525017255638" lon="2.9312677766">
        <ele>488.2</ele>
        <time>2014-05-03T11:55:05Z</time>
      </trkpt>
      <trkpt lat="39.525121945569" lon="2.931243217633">
        <ele>488.6</ele>
        <time>2014-05-03T11:55:08Z</time>
      </trkpt>
      <trkpt lat="39.525159999395" lon="2.931234584276">
        <ele>489</ele>
        <time>2014-05-03T11:55:09Z</time>
      </trkpt>
      <trkpt lat="39.525195957746" lon="2.931217904295">
        <ele>489.4</ele>
        <time>2014-05-03T11:55:10Z</time>
      </trkpt>
      <trkpt lat="39.525229820622" lon="2.93120239778">
        <ele>489.8</ele>
        <time>2014-05-03T11:55:11Z</time>
      </trkpt>
      <trkpt lat="39.525262174756" lon="2.931181359211">
        <ele>490.2</ele>
        <time>2014-05-03T11:55:12Z</time>
      </trkpt>
      <trkpt lat="39.525336689847" lon="2.931087901026">
        <ele>490.2</ele>
        <time>2014-05-03T11:55:15Z</time>
      </trkpt>
      <trkpt lat="39.525352280181" lon="2.930899727371">
        <ele>490.2</ele>
        <time>2014-05-03T11:55:19Z</time>
      </trkpt>
      <trkpt lat="39.525348759783" lon="2.930795707992">
        <ele>490.6</ele>
        <time>2014-05-03T11:55:21Z</time>
      </trkpt>
      <trkpt lat="39.525344317376" lon="2.930748685533">
        <ele>491</ele>
        <time>2014-05-03T11:55:22Z</time>
      </trkpt>
      <trkpt lat="39.5253356002" lon="2.930702668902">
        <ele>491.4</ele>
        <time>2014-05-03T11:55:23Z</time>
      </trkpt>
      <trkpt lat="39.52532470373" lon="2.930654724434">
        <ele>492.2</ele>
        <time>2014-05-03T11:55:24Z</time>
      </trkpt>
      <trkpt lat="39.525308275206" lon="2.930607953432">
        <ele>492.2</ele>
        <time>2014-05-03T11:55:25Z</time>
      </trkpt>
      <trkpt lat="39.525264773145" lon="2.930516255446">
        <ele>492.6</ele>
        <time>2014-05-03T11:55:27Z</time>
      </trkpt>
      <trkpt lat="39.525239124531" lon="2.930471328462">
        <ele>493</ele>
        <time>2014-05-03T11:55:28Z</time>
      </trkpt>
      <trkpt lat="39.525215152297" lon="2.93042791022">
        <ele>493.4</ele>
        <time>2014-05-03T11:55:29Z</time>
      </trkpt>
      <trkpt lat="39.525192102072" lon="2.930381642132">
        <ele>493.8</ele>
        <time>2014-05-03T11:55:30Z</time>
      </trkpt>
      <trkpt lat="39.525165279992" lon="2.930335793139">
        <ele>494.2</ele>
        <time>2014-05-03T11:55:31Z</time>
      </trkpt>
      <trkpt lat="39.52497350212" lon="2.930088527089">
        <ele>494.6</ele>
        <time>2014-05-03T11:55:37Z</time>
      </trkpt>
      <trkpt lat="39.524938465778" lon="2.930049551254">
        <ele>495</ele>
        <time>2014-05-03T11:55:38Z</time>
      </trkpt>
      <trkpt lat="39.524904686721" lon="2.930004540451">
        <ele>495.4</ele>
        <time>2014-05-03T11:55:39Z</time>
      </trkpt>
      <trkpt lat="39.524870740026" lon="2.929959194372">
        <ele>495.8</ele>
        <time>2014-05-03T11:55:40Z</time>
      </trkpt>
      <trkpt lat="39.524838134435" lon="2.929917368691">
        <ele>496.2</ele>
        <time>2014-05-03T11:55:41Z</time>
      </trkpt>
      <trkpt lat="39.524751549408" lon="2.929787365422">
        <ele>496.2</ele>
        <time>2014-05-03T11:55:44Z</time>
      </trkpt>
      <trkpt lat="39.524525154289" lon="2.929528783807">
        <ele>496.6</ele>
        <time>2014-05-03T11:55:50Z</time>
      </trkpt>
      <trkpt lat="39.524490034128" lon="2.929479246778">
        <ele>497</ele>
        <time>2014-05-03T11:55:51Z</time>
      </trkpt>
      <trkpt lat="39.524464385514" lon="2.929420154383">
        <ele>497.6</ele>
        <time>2014-05-03T11:55:52Z</time>
      </trkpt>
      <trkpt lat="39.524468576464" lon="2.929353266821">
        <ele>498</ele>
        <time>2014-05-03T11:55:53Z</time>
      </trkpt>
      <trkpt lat="39.524497913114" lon="2.929321583239">
        <ele>498.4</ele>
        <time>2014-05-03T11:55:54Z</time>
      </trkpt>
      <trkpt lat="39.524539738795" lon="2.929324935999">
        <ele>498.4</ele>
        <time>2014-05-03T11:55:55Z</time>
      </trkpt>
      <trkpt lat="39.524634538084" lon="2.929448233748">
        <ele>498.4</ele>
        <time>2014-05-03T11:55:58Z</time>
      </trkpt>
      <trkpt lat="39.524696396506" lon="2.929547978358">
        <ele>498.4</ele>
        <time>2014-05-03T11:56:00Z</time>
      </trkpt>
      <trkpt lat="39.524734450332" lon="2.929582260329">
        <ele>498.8</ele>
        <time>2014-05-03T11:56:01Z</time>
      </trkpt>
      <trkpt lat="39.524774767271" lon="2.929617967223">
        <ele>499.2</ele>
        <time>2014-05-03T11:56:02Z</time>
      </trkpt>
      <trkpt lat="39.524812066726" lon="2.929654177031">
        <ele>499.8</ele>
        <time>2014-05-03T11:56:03Z</time>
      </trkpt>
      <trkpt lat="39.524846516335" lon="2.929695415979">
        <ele>500.2</ele>
        <time>2014-05-03T11:56:04Z</time>
      </trkpt>
      <trkpt lat="39.524877613184" lon="2.929734643271">
        <ele>500.6</ele>
        <time>2014-05-03T11:56:05Z</time>
      </trkpt>
      <trkpt lat="39.524912062793" lon="2.929766159215">
        <ele>500.6</ele>
        <time>2014-05-03T11:56:06Z</time>
      </trkpt>
      <trkpt lat="39.525015830715" lon="2.929840590487">
        <ele>500.6</ele>
        <time>2014-05-03T11:56:09Z</time>
      </trkpt>
      <trkpt lat="39.52504893922" lon="2.929867747843">
        <ele>501.2</ele>
        <time>2014-05-03T11:56:10Z</time>
      </trkpt>
      <trkpt lat="39.525084478476" lon="2.929899179968">
        <ele>501.6</ele>
        <time>2014-05-03T11:56:11Z</time>
      </trkpt>
      <trkpt lat="39.525113144574" lon="2.92993421631">
        <ele>502</ele>
        <time>2014-05-03T11:56:12Z</time>
      </trkpt>
      <trkpt lat="39.525147761821" lon="2.929955590155">
        <ele>503</ele>
        <time>2014-05-03T11:56:13Z</time>
      </trkpt>
      <trkpt lat="39.525179948317" lon="2.929982412235">
        <ele>503</ele>
        <time>2014-05-03T11:56:14Z</time>
      </trkpt>
      <trkpt lat="39.525380946279" lon="2.930163712732">
        <ele>503.4</ele>
        <time>2014-05-03T11:56:20Z</time>
      </trkpt>
      <trkpt lat="39.525415060612" lon="2.930194725762">
        <ele>503.8</ele>
        <time>2014-05-03T11:56:21Z</time>
      </trkpt>
      <trkpt lat="39.525449258764" lon="2.930229175371">
        <ele>504.2</ele>
        <time>2014-05-03T11:56:22Z</time>
      </trkpt>
      <trkpt lat="39.525481780536" lon="2.930265385179">
        <ele>504.6</ele>
        <time>2014-05-03T11:56:23Z</time>
      </trkpt>
      <trkpt lat="39.525515978688" lon="2.930301846444">
        <ele>505</ele>
        <time>2014-05-03T11:56:24Z</time>
      </trkpt>
      <trkpt lat="39.525544896243" lon="2.930347276342">
        <ele>505.6</ele>
        <time>2014-05-03T11:56:25Z</time>
      </trkpt>
      <trkpt lat="39.52557532254" lon="2.930392873878">
        <ele>506</ele>
        <time>2014-05-03T11:56:26Z</time>
      </trkpt>
      <trkpt lat="39.525604826828" lon="2.930439309604">
        <ele>506.6</ele>
        <time>2014-05-03T11:56:27Z</time>
      </trkpt>
      <trkpt lat="39.525632906193" lon="2.930483314579">
        <ele>507</ele>
        <time>2014-05-03T11:56:28Z</time>
      </trkpt>
      <trkpt lat="39.525658638626" lon="2.930529498848">
        <ele>507.6</ele>
        <time>2014-05-03T11:56:29Z</time>
      </trkpt>
      <trkpt lat="39.525800125098" lon="2.930798809295">
        <ele>508</ele>
        <time>2014-05-03T11:56:35Z</time>
      </trkpt>
      <trkpt lat="39.525821918038" lon="2.930835186741">
        <ele>508.4</ele>
        <time>2014-05-03T11:56:36Z</time>
      </trkpt>
      <trkpt lat="39.525845135901" lon="2.930870977454">
        <ele>509</ele>
        <time>2014-05-03T11:56:37Z</time>
      </trkpt>
      <trkpt lat="39.525865587737" lon="2.930908863642">
        <ele>509.8</ele>
        <time>2014-05-03T11:56:38Z</time>
      </trkpt>
      <trkpt lat="39.525925434503" lon="2.931032831943">
        <ele>509.8</ele>
        <time>2014-05-03T11:56:41Z</time>
      </trkpt>
      <trkpt lat="39.525981509414" lon="2.931162332298">
        <ele>510.2</ele>
        <time>2014-05-03T11:56:44Z</time>
      </trkpt>
      <trkpt lat="39.525994333721" lon="2.931209522395">
        <ele>510.6</ele>
        <time>2014-05-03T11:56:45Z</time>
      </trkpt>
      <trkpt lat="39.526010929883" lon="2.931250845162">
        <ele>511</ele>
        <time>2014-05-03T11:56:46Z</time>
      </trkpt>
      <trkpt lat="39.526022329267" lon="2.931296945612">
        <ele>511.8</ele>
        <time>2014-05-03T11:56:47Z</time>
      </trkpt>
      <trkpt lat="39.526030794986" lon="2.931344219528">
        <ele>512.4</ele>
        <time>2014-05-03T11:56:48Z</time>
      </trkpt>
      <trkpt lat="39.526040266533" lon="2.931392080177">
        <ele>513</ele>
        <time>2014-05-03T11:56:49Z</time>
      </trkpt>
      <trkpt lat="39.526052420288" lon="2.931441701025">
        <ele>513.6</ele>
        <time>2014-05-03T11:56:50Z</time>
      </trkpt>
      <trkpt lat="39.526063652034" lon="2.931490064588">
        <ele>514.2</ele>
        <time>2014-05-03T11:56:51Z</time>
      </trkpt>
      <trkpt lat="39.526096425263" lon="2.931685111401">
        <ele>514.2</ele>
        <time>2014-05-03T11:56:55Z</time>
      </trkpt>
      <trkpt lat="39.526103549878" lon="2.931737498276">
        <ele>514.2</ele>
        <time>2014-05-03T11:56:56Z</time>
      </trkpt>
      <trkpt lat="39.526123666438" lon="2.931906896475">
        <ele>514.2</ele>
        <time>2014-05-03T11:56:59Z</time>
      </trkpt>
      <trkpt lat="39.526140178781" lon="2.931957858427">
        <ele>514.6</ele>
        <time>2014-05-03T11:57:00Z</time>
      </trkpt>
      <trkpt lat="39.526150656156" lon="2.932018459564">
        <ele>515</ele>
        <time>2014-05-03T11:57:01Z</time>
      </trkpt>
      <trkpt lat="39.526154595649" lon="2.932079060701">
        <ele>516</ele>
        <time>2014-05-03T11:57:02Z</time>
      </trkpt>
      <trkpt lat="39.52616121735" lon="2.932142595503">
        <ele>516.4</ele>
        <time>2014-05-03T11:57:03Z</time>
      </trkpt>
      <trkpt lat="39.526176640046" lon="2.932200346794">
        <ele>516.4</ele>
        <time>2014-05-03T11:57:04Z</time>
      </trkpt>
      <trkpt lat="39.526198432986" lon="2.932259271551">
        <ele>516.8</ele>
        <time>2014-05-03T11:57:05Z</time>
      </trkpt>
      <trkpt lat="39.526220812659" lon="2.932316268471">
        <ele>517.2</ele>
        <time>2014-05-03T11:57:06Z</time>
      </trkpt>
      <trkpt lat="39.526246628911" lon="2.932358680885">
        <ele>517.8</ele>
        <time>2014-05-03T11:57:07Z</time>
      </trkpt>
      <trkpt lat="39.526263392711" lon="2.932409056104">
        <ele>518.4</ele>
        <time>2014-05-03T11:57:08Z</time>
      </trkpt>
      <trkpt lat="39.526286778212" lon="2.932458257857">
        <ele>519</ele>
        <time>2014-05-03T11:57:09Z</time>
      </trkpt>
      <trkpt lat="39.526319719079" lon="2.932502262832">
        <ele>519.6</ele>
        <time>2014-05-03T11:57:10Z</time>
      </trkpt>
      <trkpt lat="39.526360622751" lon="2.932533611138">
        <ele>520.4</ele>
        <time>2014-05-03T11:57:11Z</time>
      </trkpt>
      <trkpt lat="39.52640680702" lon="2.932554984983">
        <ele>521.2</ele>
        <time>2014-05-03T11:57:12Z</time>
      </trkpt>
      <trkpt lat="39.526454667669" lon="2.932562528693">
        <ele>522</ele>
        <time>2014-05-03T11:57:13Z</time>
      </trkpt>
      <trkpt lat="39.526504204698" lon="2.932566216729">
        <ele>522.8</ele>
        <time>2014-05-03T11:57:14Z</time>
      </trkpt>
      <trkpt lat="39.526554160822" lon="2.932567976928">
        <ele>522.8</ele>
        <time>2014-05-03T11:57:15Z</time>
      </trkpt>
      <trkpt lat="39.526751135472" lon="2.93257870576">
        <ele>522.8</ele>
        <time>2014-05-03T11:57:19Z</time>
      </trkpt>
      <trkpt lat="39.526906703536" lon="2.932571748783">
        <ele>522.8</ele>
        <time>2014-05-03T11:57:22Z</time>
      </trkpt>
      <trkpt lat="39.527013321304" lon="2.932505112678">
        <ele>522.8</ele>
        <time>2014-05-03T11:57:24Z</time>
      </trkpt>
      <trkpt lat="39.527086243834" lon="2.932262205216">
        <ele>521.6</ele>
        <time>2014-05-03T11:57:27Z</time>
      </trkpt>
      <trkpt lat="39.527068390387" lon="2.932166567737">
        <ele>521</ele>
        <time>2014-05-03T11:57:28Z</time>
      </trkpt>
      <trkpt lat="39.527035700977" lon="2.93207746814">
        <ele>520.4</ele>
        <time>2014-05-03T11:57:29Z</time>
      </trkpt>
      <trkpt lat="39.526999826445" lon="2.931984764326">
        <ele>519.8</ele>
        <time>2014-05-03T11:57:30Z</time>
      </trkpt>
      <trkpt lat="39.526778292828" lon="2.931300801286">
        <ele>519.8</ele>
        <time>2014-05-03T11:57:37Z</time>
      </trkpt>
      <trkpt lat="39.526607218249" lon="2.930747512067">
        <ele>519.8</ele>
        <time>2014-05-03T11:57:43Z</time>
      </trkpt>
      <trkpt lat="39.526466486148" lon="2.930289022137">
        <ele>520.2</ele>
        <time>2014-05-03T11:57:48Z</time>
      </trkpt>
      <trkpt lat="39.526440586077" lon="2.930199838721">
        <ele>520.6</ele>
        <time>2014-05-03T11:57:49Z</time>
      </trkpt>
      <trkpt lat="39.526412506712" lon="2.93011358897">
        <ele>521</ele>
        <time>2014-05-03T11:57:50Z</time>
      </trkpt>
      <trkpt lat="39.526387863926" lon="2.930026501029">
        <ele>521.4</ele>
        <time>2014-05-03T11:57:51Z</time>
      </trkpt>
      <trkpt lat="39.526364394606" lon="2.929941508563">
        <ele>522.4</ele>
        <time>2014-05-03T11:57:52Z</time>
      </trkpt>
      <trkpt lat="39.526340338553" lon="2.929858108658">
        <ele>522.8</ele>
        <time>2014-05-03T11:57:53Z</time>
      </trkpt>
      <trkpt lat="39.526323658572" lon="2.929775546943">
        <ele>523.2</ele>
        <time>2014-05-03T11:57:54Z</time>
      </trkpt>
      <trkpt lat="39.526321982192" lon="2.929688794278">
        <ele>523.8</ele>
        <time>2014-05-03T11:57:55Z</time>
      </trkpt>
      <trkpt lat="39.526335896146" lon="2.929605059097">
        <ele>524.2</ele>
        <time>2014-05-03T11:57:56Z</time>
      </trkpt>
      <trkpt lat="39.526395491455" lon="2.929434738889">
        <ele>524.6</ele>
        <time>2014-05-03T11:57:58Z</time>
      </trkpt>
      <trkpt lat="39.526448381244" lon="2.929378747797">
        <ele>525</ele>
        <time>2014-05-03T11:57:59Z</time>
      </trkpt>
      <trkpt lat="39.526506719268" lon="2.92932652856">
        <ele>525.4</ele>
        <time>2014-05-03T11:58:00Z</time>
      </trkpt>
      <trkpt lat="39.526562794179" lon="2.929275901884">
        <ele>526</ele>
        <time>2014-05-03T11:58:01Z</time>
      </trkpt>
      <trkpt lat="39.526624568782" lon="2.929230304348">
        <ele>526.4</ele>
        <time>2014-05-03T11:58:02Z</time>
      </trkpt>
      <trkpt lat="39.526686594842" lon="2.929178504206">
        <ele>527</ele>
        <time>2014-05-03T11:58:03Z</time>
      </trkpt>
      <trkpt lat="39.526746776884" lon="2.929127626073">
        <ele>527.6</ele>
        <time>2014-05-03T11:58:04Z</time>
      </trkpt>
      <trkpt lat="39.526814502636" lon="2.929084710745">
        <ele>528</ele>
        <time>2014-05-03T11:58:05Z</time>
      </trkpt>
      <trkpt lat="39.526882396026" lon="2.929034586983">
        <ele>528.6</ele>
        <time>2014-05-03T11:58:06Z</time>
      </trkpt>
      <trkpt lat="39.526937297471" lon="2.928979434081">
        <ele>529</ele>
        <time>2014-05-03T11:58:07Z</time>
      </trkpt>
      <trkpt lat="39.526976105668" lon="2.928902236782">
        <ele>529.6</ele>
        <time>2014-05-03T11:58:08Z</time>
      </trkpt>
      <trkpt lat="39.527005442318" lon="2.928818166325">
        <ele>530.2</ele>
        <time>2014-05-03T11:58:09Z</time>
      </trkpt>
      <trkpt lat="39.527024050136" lon="2.928734347325">
        <ele>531</ele>
        <time>2014-05-03T11:58:10Z</time>
      </trkpt>
      <trkpt lat="39.527038299366" lon="2.928650444506">
        <ele>531.6</ele>
        <time>2014-05-03T11:58:11Z</time>
      </trkpt>
      <trkpt lat="39.527048441465" lon="2.928566541687">
        <ele>532.4</ele>
        <time>2014-05-03T11:58:12Z</time>
      </trkpt>
      <trkpt lat="39.527058415926" lon="2.928483896153">
        <ele>533.2</ele>
        <time>2014-05-03T11:58:13Z</time>
      </trkpt>
      <trkpt lat="39.527115161389" lon="2.928129341783">
        <ele>533.2</ele>
        <time>2014-05-03T11:58:17Z</time>
      </trkpt>
      <trkpt lat="39.527181210761" lon="2.927562892981">
        <ele>532.6</ele>
        <time>2014-05-03T11:58:23Z</time>
      </trkpt>
      <trkpt lat="39.527191185222" lon="2.927460633801">
        <ele>532</ele>
        <time>2014-05-03T11:58:24Z</time>
      </trkpt>
      <trkpt lat="39.527201914054" lon="2.927358206983">
        <ele>531.4</ele>
        <time>2014-05-03T11:58:25Z</time>
      </trkpt>
      <trkpt lat="39.527211301782" lon="2.927253014138">
        <ele>530.8</ele>
        <time>2014-05-03T11:58:26Z</time>
      </trkpt>
      <trkpt lat="39.527221192424" lon="2.927150754958">
        <ele>530.4</ele>
        <time>2014-05-03T11:58:27Z</time>
      </trkpt>
      <trkpt lat="39.527234435826" lon="2.926898962682">
        <ele>530.4</ele>
        <time>2014-05-03T11:58:30Z</time>
      </trkpt>
      <trkpt lat="39.527247763047" lon="2.926748926672">
        <ele>530.4</ele>
        <time>2014-05-03T11:58:32Z</time>
      </trkpt>
      <trkpt lat="39.527323535423" lon="2.926637698859">
        <ele>530.4</ele>
        <time>2014-05-03T11:58:34Z</time>
      </trkpt>
      <trkpt lat="39.527434679417" lon="2.926675668866">
        <ele>530.4</ele>
        <time>2014-05-03T11:58:36Z</time>
      </trkpt>
      <trkpt lat="39.527548505619" lon="2.926806426506">
        <ele>530.4</ele>
        <time>2014-05-03T11:58:39Z</time>
      </trkpt>
      <trkpt lat="39.527573735138" lon="2.92687230824">
        <ele>530.4</ele>
        <time>2014-05-03T11:58:40Z</time>
      </trkpt>
      <trkpt lat="39.527599383752" lon="2.926931987368">
        <ele>530.4</ele>
        <time>2014-05-03T11:58:41Z</time>
      </trkpt>
      <trkpt lat="39.527642215261" lon="2.926972555764">
        <ele>530.4</ele>
        <time>2014-05-03T11:58:42Z</time>
      </trkpt>
      <trkpt lat="39.527678592707" lon="2.926983619872">
        <ele>530.4</ele>
        <time>2014-05-03T11:58:43Z</time>
      </trkpt>
      <trkpt lat="39.527701056199" lon="2.926991834134">
        <ele>530.4</ele>
        <time>2014-05-03T11:58:46Z</time>
      </trkpt>
      <trkpt lat="39.527701056199" lon="2.926991834134">
        <ele>530.4</ele>
        <time>2014-05-03T11:58:50Z</time>
      </trkpt>
      <trkpt lat="39.527701056199" lon="2.926991834134">
        <ele>530.4</ele>
        <time>2014-05-03T11:58:54Z</time>
      </trkpt>
      <trkpt lat="39.527701056199" lon="2.926991834134">
        <ele>530.4</ele>
        <time>2014-05-03T11:58:57Z</time>
      </trkpt>
      <trkpt lat="39.527701056199" lon="2.926991834134">
        <ele>530.4</ele>
        <time>2014-05-03T11:58:59Z</time>
      </trkpt>
      <trkpt lat="39.527701056199" lon="2.926991834134">
        <ele>530.4</ele>
        <time>2014-05-03T11:59:00Z</time>
      </trkpt>
      <trkpt lat="39.527701056199" lon="2.926991834134">
        <ele>530.4</ele>
        <time>2014-05-03T11:59:02Z</time>
      </trkpt>
      <trkpt lat="39.527701056199" lon="2.926991834134">
        <ele>530.4</ele>
        <time>2014-05-03T11:59:07Z</time>
      </trkpt>
      <trkpt lat="39.527701056199" lon="2.926991834134">
        <ele>530.4</ele>
        <time>2014-05-03T11:59:18Z</time>
      </trkpt>
      <trkpt lat="39.527701056199" lon="2.926991834134">
        <ele>530.4</ele>
        <time>2014-05-03T11:59:20Z</time>
      </trkpt>
      <trkpt lat="39.527701056199" lon="2.926991834134">
        <ele>530.4</ele>
        <time>2014-05-03T11:59:21Z</time>
      </trkpt>
      <trkpt lat="39.527705247149" lon="2.926995773627">
        <ele>530.4</ele>
        <time>2014-05-03T11:59:30Z</time>
      </trkpt>
      <trkpt lat="39.527705247149" lon="2.926995773627">
        <ele>530.4</ele>
        <time>2014-05-03T11:59:38Z</time>
      </trkpt>
      <trkpt lat="39.527705247149" lon="2.926995773627">
        <ele>530.4</ele>
        <time>2014-05-03T11:59:39Z</time>
      </trkpt>
      <trkpt lat="39.527705247149" lon="2.926995773627">
        <ele>530.4</ele>
        <time>2014-05-03T11:59:40Z</time>
      </trkpt>
      <trkpt lat="39.527705247149" lon="2.926995773627">
        <ele>530.4</ele>
        <time>2014-05-03T11:59:45Z</time>
      </trkpt>
      <trkpt lat="39.527705247149" lon="2.926995773627">
        <ele>530.4</ele>
        <time>2014-05-03T11:59:50Z</time>
      </trkpt>
      <trkpt lat="39.527705247149" lon="2.926995773627">
        <ele>530.4</ele>
        <time>2014-05-03T12:00:00Z</time>
      </trkpt>
      <trkpt lat="39.527705582425" lon="2.926994851618">
        <ele>530.4</ele>
        <time>2014-05-03T12:00:10Z</time>
      </trkpt>
      <trkpt lat="39.527705582425" lon="2.926994851618">
        <ele>530.4</ele>
        <time>2014-05-03T12:00:12Z</time>
      </trkpt>
      <trkpt lat="39.527705582425" lon="2.926994851618">
        <ele>530.4</ele>
        <time>2014-05-03T12:00:18Z</time>
      </trkpt>
      <trkpt lat="39.527705582425" lon="2.926994851618">
        <ele>530.4</ele>
        <time>2014-05-03T12:00:19Z</time>
      </trkpt>
      <trkpt lat="39.527705582425" lon="2.926994851618">
        <ele>530.4</ele>
        <time>2014-05-03T12:00:25Z</time>
      </trkpt>
      <trkpt lat="39.527705582425" lon="2.926994851618">
        <ele>530.4</ele>
        <time>2014-05-03T12:00:27Z</time>
      </trkpt>
      <trkpt lat="39.527705582425" lon="2.926994851618">
        <ele>530.4</ele>
        <time>2014-05-03T12:00:36Z</time>
      </trkpt>
      <trkpt lat="39.527705498606" lon="2.926995941265">
        <ele>530.4</ele>
        <time>2014-05-03T12:00:47Z</time>
      </trkpt>
      <trkpt lat="39.527705498606" lon="2.926995941265">
        <ele>530.4</ele>
        <time>2014-05-03T12:00:55Z</time>
      </trkpt>
      <trkpt lat="39.527705498606" lon="2.926995941265">
        <ele>530.4</ele>
        <time>2014-05-03T12:00:59Z</time>
      </trkpt>
      <trkpt lat="39.527447168448" lon="2.926945146951">
        <ele>530.4</ele>
        <time>2014-05-03T12:04:59Z</time>
      </trkpt>
      <trkpt lat="39.527419675816" lon="2.926940453087">
        <ele>530.4</ele>
        <time>2014-05-03T12:05:00Z</time>
      </trkpt>
      <trkpt lat="39.527342478517" lon="2.926957635982">
        <ele>530.4</ele>
        <time>2014-05-03T12:05:03Z</time>
      </trkpt>
      <trkpt lat="39.527316326989" lon="2.926965682606">
        <ele>530.4</ele>
        <time>2014-05-03T12:05:04Z</time>
      </trkpt>
      <trkpt lat="39.527251534902" lon="2.927033575996">
        <ele>530.4</ele>
        <time>2014-05-03T12:05:07Z</time>
      </trkpt>
      <trkpt lat="39.527239884061" lon="2.927069701985">
        <ele>530.4</ele>
        <time>2014-05-03T12:05:08Z</time>
      </trkpt>
      <trkpt lat="39.527217923483" lon="2.927169614233">
        <ele>530.4</ele>
        <time>2014-05-03T12:05:10Z</time>
      </trkpt>
      <trkpt lat="39.527206691737" lon="2.927270029395">
        <ele>530.4</ele>
        <time>2014-05-03T12:05:12Z</time>
      </trkpt>
      <trkpt lat="39.527173918508" lon="2.927502543301">
        <ele>530.4</ele>
        <time>2014-05-03T12:05:16Z</time>
      </trkpt>
      <trkpt lat="39.527147347885" lon="2.927698595942">
        <ele>530.4</ele>
        <time>2014-05-03T12:05:19Z</time>
      </trkpt>
      <trkpt lat="39.527138882166" lon="2.927807141547">
        <ele>530.4</ele>
        <time>2014-05-03T12:05:21Z</time>
      </trkpt>
      <trkpt lat="39.527127231325" lon="2.927911496202">
        <ele>530.8</ele>
        <time>2014-05-03T12:05:23Z</time>
      </trkpt>
      <trkpt lat="39.52711843033" lon="2.927966565285">
        <ele>531.2</ele>
        <time>2014-05-03T12:05:24Z</time>
      </trkpt>
      <trkpt lat="39.527108204412" lon="2.928026831146">
        <ele>531.6</ele>
        <time>2014-05-03T12:05:25Z</time>
      </trkpt>
      <trkpt lat="39.527103762005" lon="2.928091958509">
        <ele>532.2</ele>
        <time>2014-05-03T12:05:26Z</time>
      </trkpt>
      <trkpt lat="39.527094374277" lon="2.92815222437">
        <ele>532.6</ele>
        <time>2014-05-03T12:05:27Z</time>
      </trkpt>
      <trkpt lat="39.527069899129" lon="2.928343834604">
        <ele>532.6</ele>
        <time>2014-05-03T12:05:30Z</time>
      </trkpt>
      <trkpt lat="39.527065875817" lon="2.928399741877">
        <ele>532.6</ele>
        <time>2014-05-03T12:05:31Z</time>
      </trkpt>
      <trkpt lat="39.527050453121" lon="2.928582802573">
        <ele>532.6</ele>
        <time>2014-05-03T12:05:34Z</time>
      </trkpt>
      <trkpt lat="39.527038383185" lon="2.928639464217">
        <ele>532.6</ele>
        <time>2014-05-03T12:05:35Z</time>
      </trkpt>
      <trkpt lat="39.527017679892" lon="2.928753290419">
        <ele>532.6</ele>
        <time>2014-05-03T12:05:37Z</time>
      </trkpt>
      <trkpt lat="39.526983230283" lon="2.928868373906">
        <ele>532.6</ele>
        <time>2014-05-03T12:05:39Z</time>
      </trkpt>
      <trkpt lat="39.526879210904" lon="2.929012374948">
        <ele>532.6</ele>
        <time>2014-05-03T12:05:42Z</time>
      </trkpt>
      <trkpt lat="39.526675195458" lon="2.929161656587">
        <ele>532.6</ele>
        <time>2014-05-03T12:05:46Z</time>
      </trkpt>
      <trkpt lat="39.526617360348" lon="2.929205158648">
        <ele>532.6</ele>
        <time>2014-05-03T12:05:47Z</time>
      </trkpt>
      <trkpt lat="39.526374788162" lon="2.929416298709">
        <ele>532</ele>
        <time>2014-05-03T12:05:51Z</time>
      </trkpt>
      <trkpt lat="39.526336482879" lon="2.929512020007">
        <ele>531.6</ele>
        <time>2014-05-03T12:05:52Z</time>
      </trkpt>
      <trkpt lat="39.526313348835" lon="2.929616290843">
        <ele>531</ele>
        <time>2014-05-03T12:05:53Z</time>
      </trkpt>
      <trkpt lat="39.52631125336" lon="2.929735230004">
        <ele>530.2</ele>
        <time>2014-05-03T12:05:54Z</time>
      </trkpt>
      <trkpt lat="39.526329525902" lon="2.929851654595">
        <ele>529.4</ele>
        <time>2014-05-03T12:05:55Z</time>
      </trkpt>
      <trkpt lat="39.526363472597" lon="2.929961625123">
        <ele>528.6</ele>
        <time>2014-05-03T12:05:56Z</time>
      </trkpt>
      <trkpt lat="39.526396664921" lon="2.930071595651">
        <ele>527.8</ele>
        <time>2014-05-03T12:05:57Z</time>
      </trkpt>
      <trkpt lat="39.526430527797" lon="2.930182236731">
        <ele>527</ele>
        <time>2014-05-03T12:05:58Z</time>
      </trkpt>
      <trkpt lat="39.526464139216" lon="2.930298074589">
        <ele>526.2</ele>
        <time>2014-05-03T12:05:59Z</time>
      </trkpt>
      <trkpt lat="39.526497582997" lon="2.93041701375">
        <ele>525.4</ele>
        <time>2014-05-03T12:06:00Z</time>
      </trkpt>
      <trkpt lat="39.526535469185" lon="2.930539892404">
        <ele>524.8</ele>
        <time>2014-05-03T12:06:01Z</time>
      </trkpt>
      <trkpt lat="39.526572601002" lon="2.930658999203">
        <ele>524</ele>
        <time>2014-05-03T12:06:02Z</time>
      </trkpt>
      <trkpt lat="39.526608056439" lon="2.930777603088">
        <ele>523.4</ele>
        <time>2014-05-03T12:06:03Z</time>
      </trkpt>
      <trkpt lat="39.5266431766" lon="2.930895117326">
        <ele>522.2</ele>
        <time>2014-05-03T12:06:04Z</time>
      </trkpt>
      <trkpt lat="39.5266767042" lon="2.931011793374">
        <ele>521.6</ele>
        <time>2014-05-03T12:06:05Z</time>
      </trkpt>
      <trkpt lat="39.526712075818" lon="2.931125368119">
        <ele>521</ele>
        <time>2014-05-03T12:06:06Z</time>
      </trkpt>
      <trkpt lat="39.526745854875" lon="2.931235590104">
        <ele>520.4</ele>
        <time>2014-05-03T12:06:07Z</time>
      </trkpt>
      <trkpt lat="39.526779382475" lon="2.931346817917">
        <ele>519.8</ele>
        <time>2014-05-03T12:06:08Z</time>
      </trkpt>
      <trkpt lat="39.52688206075" lon="2.931665497755">
        <ele>519.8</ele>
        <time>2014-05-03T12:06:11Z</time>
      </trkpt>
      <trkpt lat="39.526914833979" lon="2.931772031704">
        <ele>519.8</ele>
        <time>2014-05-03T12:06:12Z</time>
      </trkpt>
      <trkpt lat="39.526949367407" lon="2.931878398015">
        <ele>519.8</ele>
        <time>2014-05-03T12:06:13Z</time>
      </trkpt>
      <trkpt lat="39.527047687094" lon="2.932189366505">
        <ele>519.8</ele>
        <time>2014-05-03T12:06:16Z</time>
      </trkpt>
      <trkpt lat="39.527082052884" lon="2.93230126487">
        <ele>519.8</ele>
        <time>2014-05-03T12:06:17Z</time>
      </trkpt>
      <trkpt lat="39.527075095907" lon="2.932413163235">
        <ele>519.8</ele>
        <time>2014-05-03T12:06:18Z</time>
      </trkpt>
      <trkpt lat="39.527022373756" lon="2.932498826253">
        <ele>520.2</ele>
        <time>2014-05-03T12:06:19Z</time>
      </trkpt>
      <trkpt lat="39.526960347696" lon="2.932531180387">
        <ele>520.8</ele>
        <time>2014-05-03T12:06:20Z</time>
      </trkpt>
      <trkpt lat="39.526902596405" lon="2.932556661363">
        <ele>521.2</ele>
        <time>2014-05-03T12:06:21Z</time>
      </trkpt>
      <trkpt lat="39.526838223413" lon="2.932558253924">
        <ele>521.6</ele>
        <time>2014-05-03T12:06:22Z</time>
      </trkpt>
      <trkpt lat="39.526774688611" lon="2.932556158449">
        <ele>522.2</ele>
        <time>2014-05-03T12:06:23Z</time>
      </trkpt>
      <trkpt lat="39.526710315619" lon="2.932558253924">
        <ele>522.6</ele>
        <time>2014-05-03T12:06:24Z</time>
      </trkpt>
      <trkpt lat="39.526653067242" lon="2.9325502073">
        <ele>523.2</ele>
        <time>2014-05-03T12:06:25Z</time>
      </trkpt>
      <trkpt lat="39.526605290412" lon="2.932546100169">
        <ele>523.8</ele>
        <time>2014-05-03T12:06:26Z</time>
      </trkpt>
      <trkpt lat="39.526559441419" lon="2.932543753237">
        <ele>524.4</ele>
        <time>2014-05-03T12:06:27Z</time>
      </trkpt>
      <trkpt lat="39.526514011521" lon="2.932539562287">
        <ele>524.4</ele>
        <time>2014-05-03T12:06:28Z</time>
      </trkpt>
      <trkpt lat="39.526469252175" lon="2.932538053545">
        <ele>524.4</ele>
        <time>2014-05-03T12:06:29Z</time>
      </trkpt>
      <trkpt lat="39.526378727655" lon="2.932517769347">
        <ele>524.4</ele>
        <time>2014-05-03T12:06:31Z</time>
      </trkpt>
      <trkpt lat="39.526297507044" lon="2.93243621346">
        <ele>524.4</ele>
        <time>2014-05-03T12:06:33Z</time>
      </trkpt>
      <trkpt lat="39.52624503635" lon="2.932322890172">
        <ele>524.4</ele>
        <time>2014-05-03T12:06:35Z</time>
      </trkpt>
      <trkpt lat="39.526217627537" lon="2.932260528836">
        <ele>524.4</ele>
        <time>2014-05-03T12:06:36Z</time>
      </trkpt>
      <trkpt lat="39.526193152389" lon="2.93219146198">
        <ele>524.4</ele>
        <time>2014-05-03T12:06:37Z</time>
      </trkpt>
      <trkpt lat="39.526172784372" lon="2.932118036536">
        <ele>524</ele>
        <time>2014-05-03T12:06:38Z</time>
      </trkpt>
      <trkpt lat="39.526161301169" lon="2.932038659943">
        <ele>523.6</ele>
        <time>2014-05-03T12:06:39Z</time>
      </trkpt>
      <trkpt lat="39.526153506002" lon="2.931949057432">
        <ele>523.2</ele>
        <time>2014-05-03T12:06:40Z</time>
      </trkpt>
      <trkpt lat="39.52613607165" lon="2.931854006686">
        <ele>522.8</ele>
        <time>2014-05-03T12:06:41Z</time>
      </trkpt>
      <trkpt lat="39.526122744429" lon="2.931758704483">
        <ele>522.2</ele>
        <time>2014-05-03T12:06:42Z</time>
      </trkpt>
      <trkpt lat="39.526105226258" lon="2.931661642081">
        <ele>521.4</ele>
        <time>2014-05-03T12:06:43Z</time>
      </trkpt>
      <trkpt lat="39.526089552105" lon="2.931560137272">
        <ele>520.6</ele>
        <time>2014-05-03T12:06:44Z</time>
      </trkpt>
      <trkpt lat="39.526069435545" lon="2.931458381006">
        <ele>519.8</ele>
        <time>2014-05-03T12:06:45Z</time>
      </trkpt>
      <trkpt lat="39.526046636777" lon="2.931355367455">
        <ele>519</ele>
        <time>2014-05-03T12:06:46Z</time>
      </trkpt>
      <trkpt lat="39.526022748362" lon="2.931252270085">
        <ele>518.2</ele>
        <time>2014-05-03T12:06:47Z</time>
      </trkpt>
      <trkpt lat="39.525994333721" lon="2.931147831611">
        <ele>517.4</ele>
        <time>2014-05-03T12:06:48Z</time>
      </trkpt>
      <trkpt lat="39.525949574375" lon="2.931044650422">
        <ele>516.8</ele>
        <time>2014-05-03T12:06:49Z</time>
      </trkpt>
      <trkpt lat="39.525900204984" lon="2.93095010259">
        <ele>516</ele>
        <time>2014-05-03T12:06:50Z</time>
      </trkpt>
      <trkpt lat="39.525854188353" lon="2.930849603609">
        <ele>515.2</ele>
        <time>2014-05-03T12:06:51Z</time>
      </trkpt>
      <trkpt lat="39.525804232229" lon="2.930747847343">
        <ele>515.2</ele>
        <time>2014-05-03T12:06:52Z</time>
      </trkpt>
      <trkpt lat="39.525744888377" lon="2.930652293683">
        <ele>514.6</ele>
        <time>2014-05-03T12:06:53Z</time>
      </trkpt>
      <trkpt lat="39.52568680181" lon="2.930554896005">
        <ele>513.4</ele>
        <time>2014-05-03T12:06:54Z</time>
      </trkpt>
      <trkpt lat="39.525624608112" lon="2.930458001241">
        <ele>512.8</ele>
        <time>2014-05-03T12:06:55Z</time>
      </trkpt>
      <trkpt lat="39.525565180441" lon="2.930352221663">
        <ele>512</ele>
        <time>2014-05-03T12:06:56Z</time>
      </trkpt>
      <trkpt lat="39.525490413893" lon="2.930246190628">
        <ele>511.2</ele>
        <time>2014-05-03T12:06:57Z</time>
      </trkpt>
      <trkpt lat="39.525406930169" lon="2.93016052761">
        <ele>510.4</ele>
        <time>2014-05-03T12:06:58Z</time>
      </trkpt>
      <trkpt lat="39.525316908563" lon="2.930083917044">
        <ele>509.6</ele>
        <time>2014-05-03T12:06:59Z</time>
      </trkpt>
      <trkpt lat="39.525219343247" lon="2.930009737229">
        <ele>508.6</ele>
        <time>2014-05-03T12:07:00Z</time>
      </trkpt>
      <trkpt lat="39.525125130691" lon="2.929931953197">
        <ele>507.6</ele>
        <time>2014-05-03T12:07:01Z</time>
      </trkpt>
      <trkpt lat="39.525031840144" lon="2.929856180821">
        <ele>506.6</ele>
        <time>2014-05-03T12:07:02Z</time>
      </trkpt>
      <trkpt lat="39.524936118846" lon="2.9297757984">
        <ele>505.4</ele>
        <time>2014-05-03T12:07:03Z</time>
      </trkpt>
      <trkpt lat="39.524841151919" lon="2.929693236685">
        <ele>504.4</ele>
        <time>2014-05-03T12:07:04Z</time>
      </trkpt>
      <trkpt lat="39.524756243272" lon="2.929609166228">
        <ele>503.2</ele>
        <time>2014-05-03T12:07:05Z</time>
      </trkpt>
      <trkpt lat="39.524690026262" lon="2.929525431047">
        <ele>502.2</ele>
        <time>2014-05-03T12:07:06Z</time>
      </trkpt>
      <trkpt lat="39.524599585561" lon="2.929366845499">
        <ele>502.2</ele>
        <time>2014-05-03T12:07:08Z</time>
      </trkpt>
      <trkpt lat="39.524456422709" lon="2.92930892657">
        <ele>502.2</ele>
        <time>2014-05-03T12:07:11Z</time>
      </trkpt>
      <trkpt lat="39.524449214275" lon="2.92946985905">
        <ele>502.2</ele>
        <time>2014-05-03T12:07:13Z</time>
      </trkpt>
      <trkpt lat="39.524497494019" lon="2.929541189019">
        <ele>501.8</ele>
        <time>2014-05-03T12:07:14Z</time>
      </trkpt>
      <trkpt lat="39.524555832043" lon="2.929605981106">
        <ele>501.2</ele>
        <time>2014-05-03T12:07:15Z</time>
      </trkpt>
      <trkpt lat="39.524616265542" lon="2.929659960542">
        <ele>500.8</ele>
        <time>2014-05-03T12:07:16Z</time>
      </trkpt>
      <trkpt lat="39.524674687385" lon="2.929728273027">
        <ele>500.4</ele>
        <time>2014-05-03T12:07:17Z</time>
      </trkpt>
      <trkpt lat="39.524735288522" lon="2.929800860281">
        <ele>500</ele>
        <time>2014-05-03T12:07:18Z</time>
      </trkpt>
      <trkpt lat="39.524795219107" lon="2.929878728132">
        <ele>500</ele>
        <time>2014-05-03T12:07:19Z</time>
      </trkpt>
      <trkpt lat="39.524979620907" lon="2.9301278382">
        <ele>500</ele>
        <time>2014-05-03T12:07:22Z</time>
      </trkpt>
      <trkpt lat="39.525172739883" lon="2.930360687382">
        <ele>499.4</ele>
        <time>2014-05-03T12:07:25Z</time>
      </trkpt>
      <trkpt lat="39.525232754287" lon="2.930448948789">
        <ele>499</ele>
        <time>2014-05-03T12:07:26Z</time>
      </trkpt>
      <trkpt lat="39.525281285488" lon="2.930534444169">
        <ele>498.4</ele>
        <time>2014-05-03T12:07:27Z</time>
      </trkpt>
      <trkpt lat="39.525316238011" lon="2.930639217919">
        <ele>498</ele>
        <time>2014-05-03T12:07:28Z</time>
      </trkpt>
      <trkpt lat="39.525343479186" lon="2.93074390785">
        <ele>497.4</ele>
        <time>2014-05-03T12:07:29Z</time>
      </trkpt>
      <trkpt lat="39.525358818063" lon="2.9308486816">
        <ele>497</ele>
        <time>2014-05-03T12:07:30Z</time>
      </trkpt>
      <trkpt lat="39.52536745142" lon="2.930956640472">
        <ele>496.4</ele>
        <time>2014-05-03T12:07:31Z</time>
      </trkpt>
      <trkpt lat="39.525350268525" lon="2.931064347887">
        <ele>496</ele>
        <time>2014-05-03T12:07:32Z</time>
      </trkpt>
      <trkpt lat="39.525291511406" lon="2.931157638434">
        <ele>495.4</ele>
        <time>2014-05-03T12:07:33Z</time>
      </trkpt>
      <trkpt lat="39.525202830904" lon="2.93122838167">
        <ele>494.8</ele>
        <time>2014-05-03T12:07:34Z</time>
      </trkpt>
      <trkpt lat="39.525104008303" lon="2.931259981433">
        <ele>494.4</ele>
        <time>2014-05-03T12:07:35Z</time>
      </trkpt>
      <trkpt lat="39.525006442987" lon="2.931281271459">
        <ele>493.8</ele>
        <time>2014-05-03T12:07:36Z</time>
      </trkpt>
      <trkpt lat="39.524906698377" lon="2.931280936183">
        <ele>493.2</ele>
        <time>2014-05-03T12:07:37Z</time>
      </trkpt>
      <trkpt lat="39.524808043414" lon="2.931281522916">
        <ele>492.6</ele>
        <time>2014-05-03T12:07:38Z</time>
      </trkpt>
      <trkpt lat="39.524728163907" lon="2.931272135188">
        <ele>492</ele>
        <time>2014-05-03T12:07:39Z</time>
      </trkpt>
      <trkpt lat="39.524661863078" lon="2.93127112936">
        <ele>491.4</ele>
        <time>2014-05-03T12:07:40Z</time>
      </trkpt>
      <trkpt lat="39.524609979117" lon="2.931272135188">
        <ele>490.6</ele>
        <time>2014-05-03T12:07:41Z</time>
      </trkpt>
      <trkpt lat="39.524569662178" lon="2.931270710265">
        <ele>490</ele>
        <time>2014-05-03T12:07:42Z</time>
      </trkpt>
      <trkpt lat="39.524482741875" lon="2.93128118764">
        <ele>490</ele>
        <time>2014-05-03T12:07:44Z</time>
      </trkpt>
      <trkpt lat="39.524447705533" lon="2.931298538173">
        <ele>490</ele>
        <time>2014-05-03T12:07:45Z</time>
      </trkpt>
      <trkpt lat="39.524408142965" lon="2.931300382191">
        <ele>490</ele>
        <time>2014-05-03T12:07:46Z</time>
      </trkpt>
      <trkpt lat="39.524364305628" lon="2.931312619765">
        <ele>490</ele>
        <time>2014-05-03T12:07:47Z</time>
      </trkpt>
      <trkpt lat="39.524319630101" lon="2.931317145991">
        <ele>489.6</ele>
        <time>2014-05-03T12:07:48Z</time>
      </trkpt>
      <trkpt lat="39.524270931262" lon="2.931319157647">
        <ele>489.2</ele>
        <time>2014-05-03T12:07:49Z</time>
      </trkpt>
      <trkpt lat="39.524222902975" lon="2.931321169303">
        <ele>488.8</ele>
        <time>2014-05-03T12:07:50Z</time>
      </trkpt>
      <trkpt lat="39.524171270471" lon="2.931332484868">
        <ele>488.4</ele>
        <time>2014-05-03T12:07:51Z</time>
      </trkpt>
      <trkpt lat="39.524121146709" lon="2.931342878424">
        <ele>488</ele>
        <time>2014-05-03T12:07:52Z</time>
      </trkpt>
      <trkpt lat="39.524068508377" lon="2.931352098514">
        <ele>487.6</ele>
        <time>2014-05-03T12:07:53Z</time>
      </trkpt>
      <trkpt lat="39.524012349647" lon="2.93136081569">
        <ele>487.2</ele>
        <time>2014-05-03T12:07:54Z</time>
      </trkpt>
      <trkpt lat="39.523955017451" lon="2.931372466531">
        <ele>486.6</ele>
        <time>2014-05-03T12:07:55Z</time>
      </trkpt>
      <trkpt lat="39.523891985563" lon="2.931375986929">
        <ele>486.2</ele>
        <time>2014-05-03T12:07:56Z</time>
      </trkpt>
      <trkpt lat="39.523823924535" lon="2.931364000812">
        <ele>485.8</ele>
        <time>2014-05-03T12:07:57Z</time>
      </trkpt>
      <trkpt lat="39.523750079996" lon="2.931345812089">
        <ele>485.8</ele>
        <time>2014-05-03T12:07:58Z</time>
      </trkpt>
      <trkpt lat="39.523676403095" lon="2.931339693302">
        <ele>485.4</ele>
        <time>2014-05-03T12:07:59Z</time>
      </trkpt>
      <trkpt lat="39.52360389966" lon="2.931329048289">
        <ele>484.8</ele>
        <time>2014-05-03T12:08:00Z</time>
      </trkpt>
      <trkpt lat="39.523539694306" lon="2.931318319457">
        <ele>484.2</ele>
        <time>2014-05-03T12:08:01Z</time>
      </trkpt>
      <trkpt lat="39.523475153676" lon="2.931304573141">
        <ele>483.6</ele>
        <time>2014-05-03T12:08:02Z</time>
      </trkpt>
      <trkpt lat="39.523407092648" lon="2.93129124592">
        <ele>483</ele>
        <time>2014-05-03T12:08:03Z</time>
      </trkpt>
      <trkpt lat="39.523337271421" lon="2.931267189867">
        <ele>482.4</ele>
        <time>2014-05-03T12:08:04Z</time>
      </trkpt>
      <trkpt lat="39.523263259244" lon="2.931236595932">
        <ele>481.8</ele>
        <time>2014-05-03T12:08:05Z</time>
      </trkpt>
      <trkpt lat="39.523186732497" lon="2.931193680604">
        <ele>481.2</ele>
        <time>2014-05-03T12:08:06Z</time>
      </trkpt>
      <trkpt lat="39.523107104447" lon="2.931149759448">
        <ele>480.6</ele>
        <time>2014-05-03T12:08:07Z</time>
      </trkpt>
      <trkpt lat="39.523024375094" lon="2.931097540211">
        <ele>479.4</ele>
        <time>2014-05-03T12:08:08Z</time>
      </trkpt>
      <trkpt lat="39.522945669053" lon="2.931037106712">
        <ele>478.8</ele>
        <time>2014-05-03T12:08:09Z</time>
      </trkpt>
      <trkpt lat="39.522864699899" lon="2.930977092308">
        <ele>478.2</ele>
        <time>2014-05-03T12:08:10Z</time>
      </trkpt>
      <trkpt lat="39.522785658582" lon="2.930915904438">
        <ele>477.4</ele>
        <time>2014-05-03T12:08:11Z</time>
      </trkpt>
      <trkpt lat="39.522703432143" lon="2.930863433744">
        <ele>476.6</ele>
        <time>2014-05-03T12:08:12Z</time>
      </trkpt>
      <trkpt lat="39.522619445505" lon="2.930819261131">
        <ele>475.6</ele>
        <time>2014-05-03T12:08:13Z</time>
      </trkpt>
      <trkpt lat="39.522532525202" lon="2.930779698563">
        <ele>474.8</ele>
        <time>2014-05-03T12:08:14Z</time>
      </trkpt>
      <trkpt lat="39.52245138841" lon="2.930749858999">
        <ele>474</ele>
        <time>2014-05-03T12:08:15Z</time>
      </trkpt>
      <trkpt lat="39.522299843658" lon="2.930704261463">
        <ele>474</ele>
        <time>2014-05-03T12:08:17Z</time>
      </trkpt>
      <trkpt lat="39.522229854793" lon="2.930670398587">
        <ele>474</ele>
        <time>2014-05-03T12:08:18Z</time>
      </trkpt>
      <trkpt lat="39.522104210112" lon="2.930597140781">
        <ele>474</ele>
        <time>2014-05-03T12:08:20Z</time>
      </trkpt>
      <trkpt lat="39.522048554296" lon="2.930545927372">
        <ele>474</ele>
        <time>2014-05-03T12:08:21Z</time>
      </trkpt>
      <trkpt lat="39.521853339845" lon="2.930356244975">
        <ele>474.4</ele>
        <time>2014-05-03T12:08:25Z</time>
      </trkpt>
      <trkpt lat="39.52179760021" lon="2.930311150353">
        <ele>474.8</ele>
        <time>2014-05-03T12:08:26Z</time>
      </trkpt>
      <trkpt lat="39.52174730881" lon="2.930266055731">
        <ele>475.2</ele>
        <time>2014-05-03T12:08:27Z</time>
      </trkpt>
      <trkpt lat="39.521694335202" lon="2.930214004132">
        <ele>475.8</ele>
        <time>2014-05-03T12:08:28Z</time>
      </trkpt>
      <trkpt lat="39.521640774861" lon="2.930164215646">
        <ele>476.2</ele>
        <time>2014-05-03T12:08:29Z</time>
      </trkpt>
      <trkpt lat="39.521546897581" lon="2.930074864592">
        <ele>476.2</ele>
        <time>2014-05-03T12:08:31Z</time>
      </trkpt>
      <trkpt lat="39.521459222907" lon="2.929978221285">
        <ele>476.2</ele>
        <time>2014-05-03T12:08:33Z</time>
      </trkpt>
      <trkpt lat="39.521336344253" lon="2.929820809203">
        <ele>476.2</ele>
        <time>2014-05-03T12:08:35Z</time>
      </trkpt>
      <trkpt lat="39.521289321794" lon="2.929785269947">
        <ele>476.2</ele>
        <time>2014-05-03T12:08:38Z</time>
      </trkpt>
      <trkpt lat="39.521232408693" lon="2.929771523631">
        <ele>476.2</ele>
        <time>2014-05-03T12:08:39Z</time>
      </trkpt>
      <trkpt lat="39.52110022613" lon="2.929751993804">
        <ele>476.2</ele>
        <time>2014-05-03T12:08:42Z</time>
      </trkpt>
      <trkpt lat="39.521035434043" lon="2.929704971345">
        <ele>476.2</ele>
        <time>2014-05-03T12:08:45Z</time>
      </trkpt>
      <trkpt lat="39.521020849537" lon="2.929694829246">
        <ele>476.2</ele>
        <time>2014-05-03T12:08:46Z</time>
      </trkpt>
      <trkpt lat="39.521009533972" lon="2.92968695026">
        <ele>475.8</ele>
        <time>2014-05-03T12:08:47Z</time>
      </trkpt>
      <trkpt lat="39.521005426841" lon="2.929687117898">
        <ele>475.2</ele>
        <time>2014-05-03T12:08:48Z</time>
      </trkpt>
      <trkpt lat="39.520987992489" lon="2.929609501504">
        <ele>474</ele>
        <time>2014-05-03T12:10:41Z</time>
      </trkpt>
      <trkpt lat="39.520978856218" lon="2.929581254501">
        <ele>474</ele>
        <time>2014-05-03T12:10:42Z</time>
      </trkpt>
      <trkpt lat="39.520914818502" lon="2.929403809678">
        <ele>474</ele>
        <time>2014-05-03T12:10:46Z</time>
      </trkpt>
      <trkpt lat="39.520879530703" lon="2.929265089233">
        <ele>473.4</ele>
        <time>2014-05-03T12:10:48Z</time>
      </trkpt>
      <trkpt lat="39.520870310613" lon="2.929187472839">
        <ele>473</ele>
        <time>2014-05-03T12:10:49Z</time>
      </trkpt>
      <trkpt lat="39.520872992821" lon="2.929108012427">
        <ele>472.4</ele>
        <time>2014-05-03T12:10:50Z</time>
      </trkpt>
      <trkpt lat="39.52089235501" lon="2.929024863979">
        <ele>471.8</ele>
        <time>2014-05-03T12:10:51Z</time>
      </trkpt>
      <trkpt lat="39.520931917578" lon="2.92894766668">
        <ele>471.2</ele>
        <time>2014-05-03T12:10:52Z</time>
      </trkpt>
      <trkpt lat="39.520993105448" lon="2.92889402252">
        <ele>470.6</ele>
        <time>2014-05-03T12:10:53Z</time>
      </trkpt>
      <trkpt lat="39.521056891707" lon="2.928859908187">
        <ele>470</ele>
        <time>2014-05-03T12:10:54Z</time>
      </trkpt>
      <trkpt lat="39.521129981875" lon="2.92884037836">
        <ele>469.4</ele>
        <time>2014-05-03T12:10:55Z</time>
      </trkpt>
      <trkpt lat="39.521205921889" lon="2.928834175754">
        <ele>468.8</ele>
        <time>2014-05-03T12:10:56Z</time>
      </trkpt>
      <trkpt lat="39.521288064509" lon="2.928831493546">
        <ele>468.2</ele>
        <time>2014-05-03T12:10:57Z</time>
      </trkpt>
      <trkpt lat="39.521375403907" lon="2.928835013944">
        <ele>467.6</ele>
        <time>2014-05-03T12:10:58Z</time>
      </trkpt>
      <trkpt lat="39.521464084409" lon="2.928846161871">
        <ele>467</ele>
        <time>2014-05-03T12:10:59Z</time>
      </trkpt>
      <trkpt lat="39.521554944205" lon="2.928872900132">
        <ele>465.6</ele>
        <time>2014-05-03T12:11:00Z</time>
      </trkpt>
      <trkpt lat="39.521643540888" lon="2.92892000641">
        <ele>464.8</ele>
        <time>2014-05-03T12:11:01Z</time>
      </trkpt>
      <trkpt lat="39.521723588033" lon="2.928969124344">
        <ele>464</ele>
        <time>2014-05-03T12:11:02Z</time>
      </trkpt>
      <trkpt lat="39.521818974055" lon="2.929022936142">
        <ele>463.2</ele>
        <time>2014-05-03T12:11:03Z</time>
      </trkpt>
      <trkpt lat="39.52190991767" lon="2.929080771252">
        <ele>462.4</ele>
        <time>2014-05-03T12:11:04Z</time>
      </trkpt>
      <trkpt lat="39.522003292036" lon="2.929137600534">
        <ele>461.8</ele>
        <time>2014-05-03T12:11:05Z</time>
      </trkpt>
      <trkpt lat="39.522091721081" lon="2.929200297146">
        <ele>461</ele>
        <time>2014-05-03T12:11:06Z</time>
      </trkpt>
      <trkpt lat="39.522176797366" lon="2.929270453649">
        <ele>460.2</ele>
        <time>2014-05-03T12:11:07Z</time>
      </trkpt>
      <trkpt lat="39.522253910846" lon="2.92934664512">
        <ele>459.4</ele>
        <time>2014-05-03T12:11:08Z</time>
      </trkpt>
      <trkpt lat="39.522330353774" lon="2.929428452464">
        <ele>458.4</ele>
        <time>2014-05-03T12:11:09Z</time>
      </trkpt>
      <trkpt lat="39.522411490566" lon="2.929517887337">
        <ele>457.6</ele>
        <time>2014-05-03T12:11:10Z</time>
      </trkpt>
      <trkpt lat="39.522488771684" lon="2.929608244219">
        <ele>456.6</ele>
        <time>2014-05-03T12:11:11Z</time>
      </trkpt>
      <trkpt lat="39.522565214612" lon="2.929695164522">
        <ele>456.6</ele>
        <time>2014-05-03T12:11:12Z</time>
      </trkpt>
      <trkpt lat="39.522638472418" lon="2.929782336282">
        <ele>456.2</ele>
        <time>2014-05-03T12:11:13Z</time>
      </trkpt>
      <trkpt lat="39.522710137663" lon="2.929869088947">
        <ele>455.6</ele>
        <time>2014-05-03T12:11:14Z</time>
      </trkpt>
      <trkpt lat="39.522778450148" lon="2.929958859096">
        <ele>455</ele>
        <time>2014-05-03T12:11:15Z</time>
      </trkpt>
      <trkpt lat="39.522848103737" lon="2.930045947037">
        <ele>454.6</ele>
        <time>2014-05-03T12:11:16Z</time>
      </trkpt>
      <trkpt lat="39.522912644367" lon="2.930131107141">
        <ele>454</ele>
        <time>2014-05-03T12:11:17Z</time>
      </trkpt>
      <trkpt lat="39.522977184997" lon="2.930216434883">
        <ele>453.4</ele>
        <time>2014-05-03T12:11:18Z</time>
      </trkpt>
      <trkpt lat="39.52303309227" lon="2.930294051277">
        <ele>453</ele>
        <time>2014-05-03T12:11:19Z</time>
      </trkpt>
      <trkpt lat="39.523089921552" lon="2.930358591907">
        <ele>452.4</ele>
        <time>2014-05-03T12:11:20Z</time>
      </trkpt>
      <trkpt lat="39.523137782201" lon="2.930408799488">
        <ele>452</ele>
        <time>2014-05-03T12:11:21Z</time>
      </trkpt>
      <trkpt lat="39.52318480466" lon="2.930440902165">
        <ele>452</ele>
        <time>2014-05-03T12:11:22Z</time>
      </trkpt>
      <trkpt lat="39.523240628114" lon="2.930425982383">
        <ele>452</ele>
        <time>2014-05-03T12:11:23Z</time>
      </trkpt>
      <trkpt lat="39.523284633089" lon="2.930266810102">
        <ele>452</ele>
        <time>2014-05-03T12:11:26Z</time>
      </trkpt>
      <trkpt lat="39.523235850431" lon="2.930213082123">
        <ele>451.4</ele>
        <time>2014-05-03T12:11:27Z</time>
      </trkpt>
      <trkpt lat="39.523175500751" lon="2.930139656679">
        <ele>451</ele>
        <time>2014-05-03T12:11:28Z</time>
      </trkpt>
      <trkpt lat="39.523108361732" lon="2.930068745805">
        <ele>450.4</ele>
        <time>2014-05-03T12:11:29Z</time>
      </trkpt>
      <trkpt lat="39.523039043419" lon="2.929984842986">
        <ele>449.8</ele>
        <time>2014-05-03T12:11:30Z</time>
      </trkpt>
      <trkpt lat="39.522969054554" lon="2.929899431425">
        <ele>449</ele>
        <time>2014-05-03T12:11:31Z</time>
      </trkpt>
      <trkpt lat="39.522897221671" lon="2.929804129222">
        <ele>448.2</ele>
        <time>2014-05-03T12:11:32Z</time>
      </trkpt>
      <trkpt lat="39.522828993005" lon="2.929695080703">
        <ele>447.2</ele>
        <time>2014-05-03T12:11:33Z</time>
      </trkpt>
      <trkpt lat="39.522762859814" lon="2.929585948365">
        <ele>446.2</ele>
        <time>2014-05-03T12:11:34Z</time>
      </trkpt>
      <trkpt lat="39.522696475166" lon="2.929478827683">
        <ele>445.4</ele>
        <time>2014-05-03T12:11:35Z</time>
      </trkpt>
      <trkpt lat="39.522631263984" lon="2.929363576558">
        <ele>444.4</ele>
        <time>2014-05-03T12:11:36Z</time>
      </trkpt>
      <trkpt lat="39.522563454413" lon="2.929246313777">
        <ele>444.4</ele>
        <time>2014-05-03T12:11:37Z</time>
      </trkpt>
      <trkpt lat="39.522495896299" lon="2.929123602761">
        <ele>444</ele>
        <time>2014-05-03T12:11:38Z</time>
      </trkpt>
      <trkpt lat="39.522425488339" lon="2.929001646116">
        <ele>443.4</ele>
        <time>2014-05-03T12:11:39Z</time>
      </trkpt>
      <trkpt lat="39.522346279384" lon="2.928889663932">
        <ele>442.6</ele>
        <time>2014-05-03T12:11:40Z</time>
      </trkpt>
      <trkpt lat="39.522258939986" lon="2.928776592101">
        <ele>442</ele>
        <time>2014-05-03T12:11:41Z</time>
      </trkpt>
      <trkpt lat="39.52217981485" lon="2.928664693736">
        <ele>441.2</ele>
        <time>2014-05-03T12:11:42Z</time>
      </trkpt>
      <trkpt lat="39.522100438257" lon="2.92856126109">
        <ele>440.4</ele>
        <time>2014-05-03T12:11:43Z</time>
      </trkpt>
      <trkpt lat="39.522014104687" lon="2.928469311647">
        <ele>439.8</ele>
        <time>2014-05-03T12:11:44Z</time>
      </trkpt>
      <trkpt lat="39.521927184384" lon="2.928379709136">
        <ele>439.2</ele>
        <time>2014-05-03T12:11:45Z</time>
      </trkpt>
      <trkpt lat="39.521828194145" lon="2.928286837684">
        <ele>438.6</ele>
        <time>2014-05-03T12:11:46Z</time>
      </trkpt>
      <trkpt lat="39.521734065408" lon="2.928201007028">
        <ele>437.8</ele>
        <time>2014-05-03T12:11:47Z</time>
      </trkpt>
      <trkpt lat="39.521637086825" lon="2.928106794472">
        <ele>436.8</ele>
        <time>2014-05-03T12:11:48Z</time>
      </trkpt>
      <trkpt lat="39.521544047735" lon="2.928008390966">
        <ele>435.6</ele>
        <time>2014-05-03T12:11:49Z</time>
      </trkpt>
      <trkpt lat="39.521446650057" lon="2.927917112075">
        <ele>433.4</ele>
        <time>2014-05-03T12:11:50Z</time>
      </trkpt>
      <trkpt lat="39.521339529375" lon="2.927829269763">
        <ele>432.2</ele>
        <time>2014-05-03T12:11:51Z</time>
      </trkpt>
      <trkpt lat="39.521223942974" lon="2.9277557605">
        <ele>431.4</ele>
        <time>2014-05-03T12:11:52Z</time>
      </trkpt>
      <trkpt lat="39.521108775668" lon="2.927678814658">
        <ele>430.8</ele>
        <time>2014-05-03T12:11:53Z</time>
      </trkpt>
      <trkpt lat="39.520992434896" lon="2.927595079477">
        <ele>429.6</ele>
        <time>2014-05-03T12:11:54Z</time>
      </trkpt>
      <trkpt lat="39.520897048874" lon="2.927489635175">
        <ele>428.4</ele>
        <time>2014-05-03T12:11:55Z</time>
      </trkpt>
      <trkpt lat="39.520789844373" lon="2.927387627452">
        <ele>427.2</ele>
        <time>2014-05-03T12:11:56Z</time>
      </trkpt>
      <trkpt lat="39.520686830822" lon="2.927298527855">
        <ele>425.8</ele>
        <time>2014-05-03T12:11:57Z</time>
      </trkpt>
      <trkpt lat="39.520578955769" lon="2.92720590786">
        <ele>424.6</ele>
        <time>2014-05-03T12:11:58Z</time>
      </trkpt>
      <trkpt lat="39.520473762924" lon="2.927108929277">
        <ele>424.6</ele>
        <time>2014-05-03T12:11:59Z</time>
      </trkpt>
      <trkpt lat="39.520370246459" lon="2.927013627074">
        <ele>424.2</ele>
        <time>2014-05-03T12:12:00Z</time>
      </trkpt>
      <trkpt lat="39.520272848781" lon="2.926928969884">
        <ele>423.6</ele>
        <time>2014-05-03T12:12:01Z</time>
      </trkpt>
      <trkpt lat="39.520177295121" lon="2.926844815608">
        <ele>423.2</ele>
        <time>2014-05-03T12:12:02Z</time>
      </trkpt>
      <trkpt lat="39.520080400357" lon="2.926752949984">
        <ele>422.6</ele>
        <time>2014-05-03T12:12:03Z</time>
      </trkpt>
      <trkpt lat="39.519975878064" lon="2.926661671093">
        <ele>422</ele>
        <time>2014-05-03T12:12:04Z</time>
      </trkpt>
      <trkpt lat="39.519881749327" lon="2.926579612292">
        <ele>421.4</ele>
        <time>2014-05-03T12:12:05Z</time>
      </trkpt>
      <trkpt lat="39.519792314454" lon="2.926504091373">
        <ele>420.8</ele>
        <time>2014-05-03T12:12:06Z</time>
      </trkpt>
      <trkpt lat="39.519704472142" lon="2.926428570454">
        <ele>420.2</ele>
        <time>2014-05-03T12:12:07Z</time>
      </trkpt>
      <trkpt lat="39.519625179368" lon="2.926363191634">
        <ele>419.8</ele>
        <time>2014-05-03T12:12:08Z</time>
      </trkpt>
      <trkpt lat="39.519541611825" lon="2.926321198315">
        <ele>419.2</ele>
        <time>2014-05-03T12:12:09Z</time>
      </trkpt>
      <trkpt lat="39.519455864988" lon="2.926302841954">
        <ele>418.6</ele>
        <time>2014-05-03T12:12:10Z</time>
      </trkpt>
      <trkpt lat="39.519387049589" lon="2.926297142262">
        <ele>418</ele>
        <time>2014-05-03T12:12:11Z</time>
      </trkpt>
      <trkpt lat="39.519328795384" lon="2.926291358751">
        <ele>417.6</ele>
        <time>2014-05-03T12:12:12Z</time>
      </trkpt>
      <trkpt lat="39.519279006898" lon="2.926248946337">
        <ele>417.6</ele>
        <time>2014-05-03T12:12:13Z</time>
      </trkpt>
      <trkpt lat="39.519259812347" lon="2.926166049346">
        <ele>417.6</ele>
        <time>2014-05-03T12:12:14Z</time>
      </trkpt>
      <trkpt lat="39.519289819549" lon="2.926078961405">
        <ele>417.6</ele>
        <time>2014-05-03T12:12:15Z</time>
      </trkpt>
      <trkpt lat="39.519430886926" lon="2.926035543163">
        <ele>417</ele>
        <time>2014-05-03T12:12:17Z</time>
      </trkpt>
      <trkpt lat="39.519494337909" lon="2.926063287252">
        <ele>416.6</ele>
        <time>2014-05-03T12:12:18Z</time>
      </trkpt>
      <trkpt lat="39.519551670105" lon="2.926116847593">
        <ele>416.2</ele>
        <time>2014-05-03T12:12:19Z</time>
      </trkpt>
      <trkpt lat="39.519620736961" lon="2.926170324115">
        <ele>415.6</ele>
        <time>2014-05-03T12:12:20Z</time>
      </trkpt>
      <trkpt lat="39.519700113554" lon="2.926216592203">
        <ele>415.2</ele>
        <time>2014-05-03T12:12:21Z</time>
      </trkpt>
      <trkpt lat="39.519780831251" lon="2.926259758988">
        <ele>415.2</ele>
        <time>2014-05-03T12:12:22Z</time>
      </trkpt>
      <trkpt lat="39.5198622195" lon="2.926311894406">
        <ele>414.8</ele>
        <time>2014-05-03T12:12:23Z</time>
      </trkpt>
      <trkpt lat="39.519941512274" lon="2.926368136955">
        <ele>414.2</ele>
        <time>2014-05-03T12:12:24Z</time>
      </trkpt>
      <trkpt lat="39.520029773681" lon="2.926426642617">
        <ele>413.8</ele>
        <time>2014-05-03T12:12:25Z</time>
      </trkpt>
      <trkpt lat="39.52011116193" lon="2.926476347284">
        <ele>413.2</ele>
        <time>2014-05-03T12:12:26Z</time>
      </trkpt>
      <trkpt lat="39.520196489672" lon="2.926525129942">
        <ele>412.8</ele>
        <time>2014-05-03T12:12:27Z</time>
      </trkpt>
      <trkpt lat="39.520276872093" lon="2.926570727478">
        <ele>412.8</ele>
        <time>2014-05-03T12:12:28Z</time>
      </trkpt>
      <trkpt lat="39.520355410496" lon="2.926618588127">
        <ele>412.4</ele>
        <time>2014-05-03T12:12:29Z</time>
      </trkpt>
      <trkpt lat="39.520431434329" lon="2.926662090188">
        <ele>411.8</ele>
        <time>2014-05-03T12:12:30Z</time>
      </trkpt>
      <trkpt lat="39.520518186994" lon="2.926713806511">
        <ele>411.4</ele>
        <time>2014-05-03T12:12:31Z</time>
      </trkpt>
      <trkpt lat="39.52060737041" lon="2.926767702128">
        <ele>411</ele>
        <time>2014-05-03T12:12:32Z</time>
      </trkpt>
      <trkpt lat="39.520697978749" lon="2.92682453141">
        <ele>410.6</ele>
        <time>2014-05-03T12:12:33Z</time>
      </trkpt>
      <trkpt lat="39.520788922364" lon="2.926881863606">
        <ele>410.6</ele>
        <time>2014-05-03T12:12:34Z</time>
      </trkpt>
      <trkpt lat="39.520966870101" lon="2.927007089192">
        <ele>410.2</ele>
        <time>2014-05-03T12:12:36Z</time>
      </trkpt>
      <trkpt lat="39.521056221155" lon="2.927068947614">
        <ele>409.6</ele>
        <time>2014-05-03T12:12:37Z</time>
      </trkpt>
      <trkpt lat="39.521141213621" lon="2.927135667538">
        <ele>409.2</ele>
        <time>2014-05-03T12:12:38Z</time>
      </trkpt>
      <trkpt lat="39.521220674033" lon="2.927198531788">
        <ele>408.2</ele>
        <time>2014-05-03T12:12:39Z</time>
      </trkpt>
      <trkpt lat="39.521298122789" lon="2.927261479857">
        <ele>408.2</ele>
        <time>2014-05-03T12:12:40Z</time>
      </trkpt>
      <trkpt lat="39.5214883081" lon="2.927419813948">
        <ele>408.2</ele>
        <time>2014-05-03T12:12:43Z</time>
      </trkpt>
      <trkpt lat="39.521542119898" lon="2.927437918852">
        <ele>408.2</ele>
        <time>2014-05-03T12:12:44Z</time>
      </trkpt>
      <trkpt lat="39.521628118192" lon="2.927336414043">
        <ele>408.2</ele>
        <time>2014-05-03T12:12:46Z</time>
      </trkpt>
      <trkpt lat="39.521555530938" lon="2.927186126576">
        <ele>408.2</ele>
        <time>2014-05-03T12:12:48Z</time>
      </trkpt>
      <trkpt lat="39.52148579353" lon="2.92714052904">
        <ele>407.6</ele>
        <time>2014-05-03T12:12:49Z</time>
      </trkpt>
      <trkpt lat="39.521402225987" lon="2.927096272608">
        <ele>407</ele>
        <time>2014-05-03T12:12:50Z</time>
      </trkpt>
      <trkpt lat="39.521311366191" lon="2.927043969552">
        <ele>406.6</ele>
        <time>2014-05-03T12:12:51Z</time>
      </trkpt>
      <trkpt lat="39.521227128096" lon="2.926983116958">
        <ele>405.8</ele>
        <time>2014-05-03T12:12:52Z</time>
      </trkpt>
      <trkpt lat="39.521145404571" lon="2.926911619351">
        <ele>405</ele>
        <time>2014-05-03T12:12:53Z</time>
      </trkpt>
      <trkpt lat="39.521063261951" lon="2.926824112315">
        <ele>404</ele>
        <time>2014-05-03T12:12:54Z</time>
      </trkpt>
      <trkpt lat="39.520994781828" lon="2.926717494547">
        <ele>403</ele>
        <time>2014-05-03T12:12:55Z</time>
      </trkpt>
      <trkpt lat="39.520922026936" lon="2.926611128236">
        <ele>402.2</ele>
        <time>2014-05-03T12:12:56Z</time>
      </trkpt>
      <trkpt lat="39.520855139374" lon="2.926499565147">
        <ele>401.2</ele>
        <time>2014-05-03T12:12:57Z</time>
      </trkpt>
      <trkpt lat="39.520777439161" lon="2.926384397841">
        <ele>400.2</ele>
        <time>2014-05-03T12:12:58Z</time>
      </trkpt>
      <trkpt lat="39.520695212722" lon="2.926280462281">
        <ele>399.4</ele>
        <time>2014-05-03T12:12:59Z</time>
      </trkpt>
      <trkpt lat="39.520610304075" lon="2.926171497581">
        <ele>398.4</ele>
        <time>2014-05-03T12:13:00Z</time>
      </trkpt>
      <trkpt lat="39.520518186994" lon="2.926068986944">
        <ele>397.4</ele>
        <time>2014-05-03T12:13:01Z</time>
      </trkpt>
      <trkpt lat="39.520420705497" lon="2.925963375004">
        <ele>396.6</ele>
        <time>2014-05-03T12:13:02Z</time>
      </trkpt>
      <trkpt lat="39.520320374154" lon="2.925854829399">
        <ele>394.4</ele>
        <time>2014-05-03T12:13:03Z</time>
      </trkpt>
      <trkpt lat="39.520226245417" lon="2.92575164821">
        <ele>393.4</ele>
        <time>2014-05-03T12:13:04Z</time>
      </trkpt>
      <trkpt lat="39.520127171359" lon="2.925642096777">
        <ele>392.4</ele>
        <time>2014-05-03T12:13:05Z</time>
      </trkpt>
      <trkpt lat="39.520021140324" lon="2.925529695498">
        <ele>391.2</ele>
        <time>2014-05-03T12:13:06Z</time>
      </trkpt>
      <trkpt lat="39.519924580836" lon="2.925417042762">
        <ele>390.2</ele>
        <time>2014-05-03T12:13:07Z</time>
      </trkpt>
      <trkpt lat="39.519823159846" lon="2.925296175764">
        <ele>389.4</ele>
        <time>2014-05-03T12:13:08Z</time>
      </trkpt>
      <trkpt lat="39.519718134639" lon="2.92518419358">
        <ele>388.4</ele>
        <time>2014-05-03T12:13:09Z</time>
      </trkpt>
      <trkpt lat="39.519616965106" lon="2.925072043758">
        <ele>387.4</ele>
        <time>2014-05-03T12:13:10Z</time>
      </trkpt>
      <trkpt lat="39.519513700098" lon="2.924973221157">
        <ele>386.4</ele>
        <time>2014-05-03T12:13:11Z</time>
      </trkpt>
      <trkpt lat="39.519400460629" lon="2.924883199551">
        <ele>385.6</ele>
        <time>2014-05-03T12:13:12Z</time>
      </trkpt>
      <trkpt lat="39.519282443477" lon="2.924802230397">
        <ele>384.6</ele>
        <time>2014-05-03T12:13:13Z</time>
      </trkpt>
      <trkpt lat="39.519190494034" lon="2.924739869061">
        <ele>383.8</ele>
        <time>2014-05-03T12:13:14Z</time>
      </trkpt>
      <trkpt lat="39.519109189604" lon="2.92470307252">
        <ele>383</ele>
        <time>2014-05-03T12:13:15Z</time>
      </trkpt>
      <trkpt lat="39.519027801355" lon="2.924684297064">
        <ele>382.2</ele>
        <time>2014-05-03T12:13:16Z</time>
      </trkpt>
      <trkpt lat="39.518818840588" lon="2.924636184958">
        <ele>382.2</ele>
        <time>2014-05-03T12:13:19Z</time>
      </trkpt>
      <trkpt lat="39.518789084843" lon="2.92457650583">
        <ele>382.2</ele>
        <time>2014-05-03T12:13:20Z</time>
      </trkpt>
      <trkpt lat="39.518792772879" lon="2.924483215283">
        <ele>382.2</ele>
        <time>2014-05-03T12:13:21Z</time>
      </trkpt>
      <trkpt lat="39.5188647734" lon="2.924342147906">
        <ele>382.2</ele>
        <time>2014-05-03T12:13:23Z</time>
      </trkpt>
      <trkpt lat="39.518904419787" lon="2.924267381358">
        <ele>381.6</ele>
        <time>2014-05-03T12:13:24Z</time>
      </trkpt>
      <trkpt lat="39.518949011495" lon="2.924196721941">
        <ele>381</ele>
        <time>2014-05-03T12:13:25Z</time>
      </trkpt>
      <trkpt lat="39.518999302895" lon="2.924125978705">
        <ele>380.6</ele>
        <time>2014-05-03T12:13:26Z</time>
      </trkpt>
      <trkpt lat="39.519057976195" lon="2.924062527722">
        <ele>380</ele>
        <time>2014-05-03T12:13:27Z</time>
      </trkpt>
      <trkpt lat="39.51912628868" lon="2.924023887163">
        <ele>379</ele>
        <time>2014-05-03T12:13:28Z</time>
      </trkpt>
      <trkpt lat="39.519196026088" lon="2.923994382875">
        <ele>378.4</ele>
        <time>2014-05-03T12:13:29Z</time>
      </trkpt>
      <trkpt lat="39.519269283894" lon="2.923993460866">
        <ele>377.6</ele>
        <time>2014-05-03T12:13:30Z</time>
      </trkpt>
      <trkpt lat="39.519338099293" lon="2.924050793062">
        <ele>377</ele>
        <time>2014-05-03T12:13:31Z</time>
      </trkpt>
      <trkpt lat="39.519391324358" lon="2.924133522415">
        <ele>376.2</ele>
        <time>2014-05-03T12:13:32Z</time>
      </trkpt>
      <trkpt lat="39.519453518056" lon="2.924216754682">
        <ele>375.4</ele>
        <time>2014-05-03T12:13:33Z</time>
      </trkpt>
      <trkpt lat="39.519537337056" lon="2.924274254516">
        <ele>374.8</ele>
        <time>2014-05-03T12:13:34Z</time>
      </trkpt>
      <trkpt lat="39.519629454137" lon="2.924300992777">
        <ele>374.2</ele>
        <time>2014-05-03T12:13:35Z</time>
      </trkpt>
      <trkpt lat="39.519721655037" lon="2.92433426892">
        <ele>373.8</ele>
        <time>2014-05-03T12:13:36Z</time>
      </trkpt>
      <trkpt lat="39.519815029403" lon="2.924366203959">
        <ele>373.2</ele>
        <time>2014-05-03T12:13:37Z</time>
      </trkpt>
      <trkpt lat="39.519904715733" lon="2.924393864229">
        <ele>372.6</ele>
        <time>2014-05-03T12:13:38Z</time>
      </trkpt>
      <trkpt lat="39.519989456742" lon="2.924416579178">
        <ele>372</ele>
        <time>2014-05-03T12:13:39Z</time>
      </trkpt>
      <trkpt lat="39.520065396756" lon="2.924431750417">
        <ele>371.4</ele>
        <time>2014-05-03T12:13:40Z</time>
      </trkpt>
      <trkpt lat="39.520133373965" lon="2.924444323267">
        <ele>370.6</ele>
        <time>2014-05-03T12:13:41Z</time>
      </trkpt>
      <trkpt lat="39.520196573491" lon="2.92444742457">
        <ele>370</ele>
        <time>2014-05-03T12:13:42Z</time>
      </trkpt>
      <trkpt lat="39.52025449242" lon="2.924433091521">
        <ele>370</ele>
        <time>2014-05-03T12:13:43Z</time>
      </trkpt>
      <trkpt lat="39.520326492941" lon="2.924346087399">
        <ele>370</ele>
        <time>2014-05-03T12:13:45Z</time>
      </trkpt>
      <trkpt lat="39.520361110188" lon="2.924084991214">
        <ele>369.6</ele>
        <time>2014-05-03T12:13:48Z</time>
      </trkpt>
      <trkpt lat="39.520386004431" lon="2.923975691238">
        <ele>369</ele>
        <time>2014-05-03T12:13:49Z</time>
      </trkpt>
      <trkpt lat="39.520425147904" lon="2.923865469253">
        <ele>368.4</ele>
        <time>2014-05-03T12:13:50Z</time>
      </trkpt>
      <trkpt lat="39.52048164191" lon="2.92376178515">
        <ele>367.6</ele>
        <time>2014-05-03T12:13:51Z</time>
      </trkpt>
      <trkpt lat="39.520548194196" lon="2.923655502658">
        <ele>366</ele>
        <time>2014-05-03T12:13:52Z</time>
      </trkpt>
      <trkpt lat="39.520630588273" lon="2.923566654518">
        <ele>365</ele>
        <time>2014-05-03T12:13:53Z</time>
      </trkpt>
      <trkpt lat="39.520724046458" lon="2.92350362263">
        <ele>364</ele>
        <time>2014-05-03T12:13:54Z</time>
      </trkpt>
      <trkpt lat="39.520805350888" lon="2.923449727013">
        <ele>363</ele>
        <time>2014-05-03T12:13:55Z</time>
      </trkpt>
      <trkpt lat="39.520881290902" lon="2.923379905786">
        <ele>362.2</ele>
        <time>2014-05-03T12:13:56Z</time>
      </trkpt>
      <trkpt lat="39.520937701089" lon="2.923287453429">
        <ele>361.2</ele>
        <time>2014-05-03T12:13:57Z</time>
      </trkpt>
      <trkpt lat="39.520984220634" lon="2.923181087118">
        <ele>360.8</ele>
        <time>2014-05-03T12:13:58Z</time>
      </trkpt>
      <trkpt lat="39.521030237265" lon="2.923077654472">
        <ele>360.4</ele>
        <time>2014-05-03T12:13:59Z</time>
      </trkpt>
      <trkpt lat="39.521073152593" lon="2.922989393065">
        <ele>360</ele>
        <time>2014-05-03T12:14:00Z</time>
      </trkpt>
      <trkpt lat="39.52111698993" lon="2.922898533269">
        <ele>359.6</ele>
        <time>2014-05-03T12:14:01Z</time>
      </trkpt>
      <trkpt lat="39.521164263846" lon="2.92279619027">
        <ele>359.2</ele>
        <time>2014-05-03T12:14:02Z</time>
      </trkpt>
      <trkpt lat="39.521213633237" lon="2.922695356013">
        <ele>358.6</ele>
        <time>2014-05-03T12:14:03Z</time>
      </trkpt>
      <trkpt lat="39.521263756999" lon="2.922594857032">
        <ele>358</ele>
        <time>2014-05-03T12:14:04Z</time>
      </trkpt>
      <trkpt lat="39.521330812199" lon="2.922494358051">
        <ele>357.6</ele>
        <time>2014-05-03T12:14:05Z</time>
      </trkpt>
      <trkpt lat="39.52140365091" lon="2.922399474943">
        <ele>356.8</ele>
        <time>2014-05-03T12:14:06Z</time>
      </trkpt>
      <trkpt lat="39.521477746906" lon="2.922319343979">
        <ele>355.8</ele>
        <time>2014-05-03T12:14:07Z</time>
      </trkpt>
      <trkpt lat="39.521543209545" lon="2.922248684562">
        <ele>354.8</ele>
        <time>2014-05-03T12:14:08Z</time>
      </trkpt>
      <trkpt lat="39.521616383532" lon="2.922184060113">
        <ele>353.6</ele>
        <time>2014-05-03T12:14:09Z</time>
      </trkpt>
      <trkpt lat="39.521698358514" lon="2.922122704605">
        <ele>352.2</ele>
        <time>2014-05-03T12:14:10Z</time>
      </trkpt>
      <trkpt lat="39.52178838012" lon="2.922079454001">
        <ele>351</ele>
        <time>2014-05-03T12:14:11Z</time>
      </trkpt>
      <trkpt lat="39.521878317907" lon="2.922032431542">
        <ele>349.8</ele>
        <time>2014-05-03T12:14:12Z</time>
      </trkpt>
      <trkpt lat="39.521969932074" lon="2.921987923653">
        <ele>348.6</ele>
        <time>2014-05-03T12:14:13Z</time>
      </trkpt>
      <trkpt lat="39.522072358892" lon="2.921936961701">
        <ele>347.8</ele>
        <time>2014-05-03T12:14:14Z</time>
      </trkpt>
      <trkpt lat="39.522163470145" lon="2.921888095224">
        <ele>347.2</ele>
        <time>2014-05-03T12:14:15Z</time>
      </trkpt>
      <trkpt lat="39.522260197271" lon="2.921823722232">
        <ele>345.8</ele>
        <time>2014-05-03T12:14:16Z</time>
      </trkpt>
      <trkpt lat="39.522346195565" lon="2.921766473855">
        <ele>345</ele>
        <time>2014-05-03T12:14:17Z</time>
      </trkpt>
      <trkpt lat="39.522436468628" lon="2.921699586293">
        <ele>344.2</ele>
        <time>2014-05-03T12:14:18Z</time>
      </trkpt>
      <trkpt lat="39.522519449438" lon="2.921640745355">
        <ele>343.4</ele>
        <time>2014-05-03T12:14:19Z</time>
      </trkpt>
      <trkpt lat="39.522596646737" lon="2.921581904417">
        <ele>342.6</ele>
        <time>2014-05-03T12:14:20Z</time>
      </trkpt>
      <trkpt lat="39.522669904543" lon="2.9215196269">
        <ele>342.6</ele>
        <time>2014-05-03T12:14:21Z</time>
      </trkpt>
      <trkpt lat="39.522733606983" lon="2.921451817329">
        <ele>342.2</ele>
        <time>2014-05-03T12:14:22Z</time>
      </trkpt>
      <trkpt lat="39.522789681894" lon="2.921370680537">
        <ele>341.8</ele>
        <time>2014-05-03T12:14:23Z</time>
      </trkpt>
      <trkpt lat="39.52283863219" lon="2.921286023347">
        <ele>341.4</ele>
        <time>2014-05-03T12:14:24Z</time>
      </trkpt>
      <trkpt lat="39.522852462325" lon="2.921167251824">
        <ele>340.8</ele>
        <time>2014-05-03T12:14:25Z</time>
      </trkpt>
      <trkpt lat="39.522848439013" lon="2.921052838889">
        <ele>340.4</ele>
        <time>2014-05-03T12:14:26Z</time>
      </trkpt>
      <trkpt lat="39.522846427357" lon="2.92094881951">
        <ele>339.8</ele>
        <time>2014-05-03T12:14:27Z</time>
      </trkpt>
      <trkpt lat="39.522876183102" lon="2.920861731569">
        <ele>339.2</ele>
        <time>2014-05-03T12:14:28Z</time>
      </trkpt>
      <trkpt lat="39.522932928565" lon="2.920785707736">
        <ele>338.6</ele>
        <time>2014-05-03T12:14:29Z</time>
      </trkpt>
      <trkpt lat="39.522988919657" lon="2.920726363884">
        <ele>338.2</ele>
        <time>2014-05-03T12:14:30Z</time>
      </trkpt>
      <trkpt lat="39.523045832758" lon="2.920679928158">
        <ele>337.8</ele>
        <time>2014-05-03T12:14:31Z</time>
      </trkpt>
      <trkpt lat="39.523107355904" lon="2.920644640359">
        <ele>337.2</ele>
        <time>2014-05-03T12:14:32Z</time>
      </trkpt>
      <trkpt lat="39.523159323684" lon="2.920615387528">
        <ele>336.8</ele>
        <time>2014-05-03T12:14:33Z</time>
      </trkpt>
      <trkpt lat="39.523209615084" lon="2.920582949575">
        <ele>336.4</ele>
        <time>2014-05-03T12:14:34Z</time>
      </trkpt>
      <trkpt lat="39.523241047209" lon="2.920527880492">
        <ele>336</ele>
        <time>2014-05-03T12:14:35Z</time>
      </trkpt>
      <trkpt lat="39.523234844603" lon="2.920449174451">
        <ele>336</ele>
        <time>2014-05-03T12:14:36Z</time>
      </trkpt>
      <trkpt lat="39.523201819917" lon="2.920400894707">
        <ele>335.6</ele>
        <time>2014-05-03T12:14:37Z</time>
      </trkpt>
      <trkpt lat="39.523157898761" lon="2.920369965496">
        <ele>335.2</ele>
        <time>2014-05-03T12:14:38Z</time>
      </trkpt>
      <trkpt lat="39.523096543253" lon="2.920375246093">
        <ele>334.8</ele>
        <time>2014-05-03T12:14:39Z</time>
      </trkpt>
      <trkpt lat="39.523038791962" lon="2.920396703757">
        <ele>334.2</ele>
        <time>2014-05-03T12:14:40Z</time>
      </trkpt>
      <trkpt lat="39.522986405087" lon="2.920456382885">
        <ele>333</ele>
        <time>2014-05-03T12:14:41Z</time>
      </trkpt>
      <trkpt lat="39.522933515298" lon="2.920500890774">
        <ele>332.4</ele>
        <time>2014-05-03T12:14:42Z</time>
      </trkpt>
      <trkpt lat="39.522880374052" lon="2.9205473265">
        <ele>331.8</ele>
        <time>2014-05-03T12:14:43Z</time>
      </trkpt>
      <trkpt lat="39.522783227831" lon="2.920642963979">
        <ele>331.4</ele>
        <time>2014-05-03T12:14:45Z</time>
      </trkpt>
      <trkpt lat="39.522740731598" lon="2.920668277317">
        <ele>331</ele>
        <time>2014-05-03T12:14:46Z</time>
      </trkpt>
      <trkpt lat="39.522707958369" lon="2.920684957298">
        <ele>330.6</ele>
        <time>2014-05-03T12:14:47Z</time>
      </trkpt>
      <trkpt lat="39.522671078009" lon="2.920679089968">
        <ele>330.2</ele>
        <time>2014-05-03T12:14:48Z</time>
      </trkpt>
      <trkpt lat="39.522639645884" lon="2.920638605391">
        <ele>329.8</ele>
        <time>2014-05-03T12:14:49Z</time>
      </trkpt>
      <trkpt lat="39.522634700563" lon="2.920567526879">
        <ele>329.8</ele>
        <time>2014-05-03T12:14:50Z</time>
      </trkpt>
      <trkpt lat="39.522669066353" lon="2.920495107263">
        <ele>329.8</ele>
        <time>2014-05-03T12:14:51Z</time>
      </trkpt>
      <trkpt lat="39.522736121553" lon="2.920453197763">
        <ele>329.8</ele>
        <time>2014-05-03T12:14:52Z</time>
      </trkpt>
      <trkpt lat="39.522800243088" lon="2.920414473385">
        <ele>329.8</ele>
        <time>2014-05-03T12:14:53Z</time>
      </trkpt>
      <trkpt lat="39.522867298288" lon="2.920380275233">
        <ele>329.8</ele>
        <time>2014-05-03T12:14:54Z</time>
      </trkpt>
      <trkpt lat="39.522942148655" lon="2.92034113176">
        <ele>329.4</ele>
        <time>2014-05-03T12:14:55Z</time>
      </trkpt>
      <trkpt lat="39.523018256307" lon="2.920297462061">
        <ele>329</ele>
        <time>2014-05-03T12:14:56Z</time>
      </trkpt>
      <trkpt lat="39.523098806366" lon="2.920246332471">
        <ele>328.6</ele>
        <time>2014-05-03T12:14:57Z</time>
      </trkpt>
      <trkpt lat="39.52318480466" lon="2.920198052727">
        <ele>328</ele>
        <time>2014-05-03T12:14:58Z</time>
      </trkpt>
      <trkpt lat="39.52328454927" lon="2.920140301436">
        <ele>327.4</ele>
        <time>2014-05-03T12:14:59Z</time>
      </trkpt>
      <trkpt lat="39.52338094112" lon="2.920085819086">
        <ele>326.6</ele>
        <time>2014-05-03T12:15:00Z</time>
      </trkpt>
      <trkpt lat="39.523482781205" lon="2.92002848689">
        <ele>326</ele>
        <time>2014-05-03T12:15:01Z</time>
      </trkpt>
      <trkpt lat="39.523583699281" lon="2.919970735599">
        <ele>325.2</ele>
        <time>2014-05-03T12:15:02Z</time>
      </trkpt>
      <trkpt lat="39.523693083076" lon="2.919904937684">
        <ele>324.2</ele>
        <time>2014-05-03T12:15:03Z</time>
      </trkpt>
      <trkpt lat="39.523794336428" lon="2.919842324891">
        <ele>323</ele>
        <time>2014-05-03T12:15:04Z</time>
      </trkpt>
      <trkpt lat="39.523894164857" lon="2.919756410416">
        <ele>322</ele>
        <time>2014-05-03T12:15:05Z</time>
      </trkpt>
      <trkpt lat="39.52398862887" lon="2.919656414349">
        <ele>319.6</ele>
        <time>2014-05-03T12:15:06Z</time>
      </trkpt>
      <trkpt lat="39.524081248865" lon="2.919534709161">
        <ele>318.2</ele>
        <time>2014-05-03T12:15:07Z</time>
      </trkpt>
      <trkpt lat="39.524166576607" lon="2.919415937638">
        <ele>316.8</ele>
        <time>2014-05-03T12:15:08Z</time>
      </trkpt>
      <trkpt lat="39.524246288476" lon="2.919293813355">
        <ele>315.4</ele>
        <time>2014-05-03T12:15:09Z</time>
      </trkpt>
      <trkpt lat="39.524322312309" lon="2.919175460927">
        <ele>314.2</ele>
        <time>2014-05-03T12:15:10Z</time>
      </trkpt>
      <trkpt lat="39.524391211527" lon="2.919053336644">
        <ele>312.8</ele>
        <time>2014-05-03T12:15:11Z</time>
      </trkpt>
      <trkpt lat="39.524438401624" lon="2.918922998099">
        <ele>312</ele>
        <time>2014-05-03T12:15:12Z</time>
      </trkpt>
      <trkpt lat="39.524476623088" lon="2.918770950433">
        <ele>311.4</ele>
        <time>2014-05-03T12:15:13Z</time>
      </trkpt>
      <trkpt lat="39.524505121548" lon="2.918647736503">
        <ele>310.6</ele>
        <time>2014-05-03T12:15:14Z</time>
      </trkpt>
      <trkpt lat="39.524518197312" lon="2.918525528401">
        <ele>309.8</ele>
        <time>2014-05-03T12:15:15Z</time>
      </trkpt>
      <trkpt lat="39.524533787646" lon="2.918421760479">
        <ele>309.2</ele>
        <time>2014-05-03T12:15:16Z</time>
      </trkpt>
      <trkpt lat="39.524555161491" lon="2.918270299546">
        <ele>309.2</ele>
        <time>2014-05-03T12:15:18Z</time>
      </trkpt>
      <trkpt lat="39.524539235881" lon="2.918232413358">
        <ele>309.2</ele>
        <time>2014-05-03T12:15:19Z</time>
      </trkpt>
      <trkpt lat="39.524514090181" lon="2.918185642356">
        <ele>309.2</ele>
        <time>2014-05-03T12:15:21Z</time>
      </trkpt>
      <trkpt lat="39.524839810815" lon="2.91793804103">
        <ele>307.2</ele>
        <time>2014-05-03T12:17:08Z</time>
      </trkpt>
      <trkpt lat="39.524886749455" lon="2.917901579765">
        <ele>307.2</ele>
        <time>2014-05-03T12:17:09Z</time>
      </trkpt>
      <trkpt lat="39.52494081271" lon="2.917859502627">
        <ele>306.8</ele>
        <time>2014-05-03T12:17:10Z</time>
      </trkpt>
      <trkpt lat="39.524999402191" lon="2.917816335842">
        <ele>305.8</ele>
        <time>2014-05-03T12:17:11Z</time>
      </trkpt>
      <trkpt lat="39.525058243129" lon="2.917773169057">
        <ele>305.2</ele>
        <time>2014-05-03T12:17:12Z</time>
      </trkpt>
      <trkpt lat="39.525119850094" lon="2.917725056951">
        <ele>304.6</ele>
        <time>2014-05-03T12:17:13Z</time>
      </trkpt>
      <trkpt lat="39.525182462887" lon="2.91767149661">
        <ele>304</ele>
        <time>2014-05-03T12:17:14Z</time>
      </trkpt>
      <trkpt lat="39.525245327137" lon="2.917608967636">
        <ele>303.4</ele>
        <time>2014-05-03T12:17:15Z</time>
      </trkpt>
      <trkpt lat="39.525302156419" lon="2.917535458373">
        <ele>302.8</ele>
        <time>2014-05-03T12:17:16Z</time>
      </trkpt>
      <trkpt lat="39.52534984943" lon="2.917451807011">
        <ele>302.2</ele>
        <time>2014-05-03T12:17:17Z</time>
      </trkpt>
      <trkpt lat="39.525394692595" lon="2.917366982183">
        <ele>301.8</ele>
        <time>2014-05-03T12:17:18Z</time>
      </trkpt>
      <trkpt lat="39.525438194656" lon="2.917284420468">
        <ele>301.2</ele>
        <time>2014-05-03T12:17:19Z</time>
      </trkpt>
      <trkpt lat="39.525476332301" lon="2.917210995024">
        <ele>300.6</ele>
        <time>2014-05-03T12:17:20Z</time>
      </trkpt>
      <trkpt lat="39.525509776082" lon="2.917130277327">
        <ele>300</ele>
        <time>2014-05-03T12:17:21Z</time>
      </trkpt>
      <trkpt lat="39.525529557366" lon="2.917041261549">
        <ele>299.4</ele>
        <time>2014-05-03T12:17:22Z</time>
      </trkpt>
      <trkpt lat="39.525566437726" lon="2.916861302156">
        <ele>299</ele>
        <time>2014-05-03T12:17:24Z</time>
      </trkpt>
      <trkpt lat="39.525598372765" lon="2.916776980242">
        <ele>298.4</ele>
        <time>2014-05-03T12:17:25Z</time>
      </trkpt>
      <trkpt lat="39.525640617541" lon="2.916700118219">
        <ele>298</ele>
        <time>2014-05-03T12:17:26Z</time>
      </trkpt>
      <trkpt lat="39.525694010244" lon="2.916646976973">
        <ele>297.4</ele>
        <time>2014-05-03T12:17:27Z</time>
      </trkpt>
      <trkpt lat="39.525750923345" lon="2.916606743853">
        <ele>296.6</ele>
        <time>2014-05-03T12:17:28Z</time>
      </trkpt>
      <trkpt lat="39.525809764283" lon="2.91656676219">
        <ele>296</ele>
        <time>2014-05-03T12:17:29Z</time>
      </trkpt>
      <trkpt lat="39.525866677384" lon="2.916530552382">
        <ele>295.4</ele>
        <time>2014-05-03T12:17:30Z</time>
      </trkpt>
      <trkpt lat="39.525921075915" lon="2.916493588203">
        <ele>294.8</ele>
        <time>2014-05-03T12:17:31Z</time>
      </trkpt>
      <trkpt lat="39.526028112778" lon="2.916418234922">
        <ele>294.8</ele>
        <time>2014-05-03T12:17:33Z</time>
      </trkpt>
      <trkpt lat="39.526089216829" lon="2.916373056481">
        <ele>294.8</ele>
        <time>2014-05-03T12:17:34Z</time>
      </trkpt>
      <trkpt lat="39.526146297568" lon="2.916324106185">
        <ele>294.8</ele>
        <time>2014-05-03T12:17:35Z</time>
      </trkpt>
      <trkpt lat="39.52619809771" lon="2.916263253591">
        <ele>294.2</ele>
        <time>2014-05-03T12:17:36Z</time>
      </trkpt>
      <trkpt lat="39.526239755753" lon="2.916186559206">
        <ele>293.6</ele>
        <time>2014-05-03T12:17:37Z</time>
      </trkpt>
      <trkpt lat="39.526272528982" lon="2.916098884532">
        <ele>293.2</ele>
        <time>2014-05-03T12:17:38Z</time>
      </trkpt>
      <trkpt lat="39.526299434881" lon="2.916013472971">
        <ele>292.4</ele>
        <time>2014-05-03T12:17:39Z</time>
      </trkpt>
      <trkpt lat="39.526321982192" lon="2.915934683111">
        <ele>291.8</ele>
        <time>2014-05-03T12:17:40Z</time>
      </trkpt>
      <trkpt lat="39.526339081268" lon="2.915861676762">
        <ele>291.2</ele>
        <time>2014-05-03T12:17:41Z</time>
      </trkpt>
      <trkpt lat="39.526351905575" lon="2.915805434213">
        <ele>290.6</ele>
        <time>2014-05-03T12:17:42Z</time>
      </trkpt>
      <trkpt lat="39.526361460941" lon="2.915759836677">
        <ele>289.8</ele>
        <time>2014-05-03T12:17:43Z</time>
      </trkpt>
      <trkpt lat="39.526363724054" lon="2.91569169183">
        <ele>289.8</ele>
        <time>2014-05-03T12:17:45Z</time>
      </trkpt>
      <trkpt lat="39.526353498136" lon="2.915679538075">
        <ele>289.8</ele>
        <time>2014-05-03T12:17:46Z</time>
      </trkpt>
      <trkpt lat="39.526339416544" lon="2.9156690607">
        <ele>289.8</ele>
        <time>2014-05-03T12:17:47Z</time>
      </trkpt>
      <trkpt lat="39.526318377975" lon="2.915649279416">
        <ele>289.4</ele>
        <time>2014-05-03T12:17:48Z</time>
      </trkpt>
      <trkpt lat="39.526288035497" lon="2.915629246675">
        <ele>289</ele>
        <time>2014-05-03T12:17:49Z</time>
      </trkpt>
      <trkpt lat="39.526257776838" lon="2.915592953048">
        <ele>288.6</ele>
        <time>2014-05-03T12:17:50Z</time>
      </trkpt>
      <trkpt lat="39.526244868712" lon="2.91553159754">
        <ele>288.2</ele>
        <time>2014-05-03T12:17:51Z</time>
      </trkpt>
      <trkpt lat="39.526251322775" lon="2.915456328078">
        <ele>287.8</ele>
        <time>2014-05-03T12:17:52Z</time>
      </trkpt>
      <trkpt lat="39.526273702448" lon="2.91537737058">
        <ele>287.2</ele>
        <time>2014-05-03T12:17:53Z</time>
      </trkpt>
      <trkpt lat="39.526301949451" lon="2.915297323435">
        <ele>286.8</ele>
        <time>2014-05-03T12:17:54Z</time>
      </trkpt>
      <trkpt lat="39.526336650517" lon="2.915215851367">
        <ele>286.2</ele>
        <time>2014-05-03T12:17:55Z</time>
      </trkpt>
      <trkpt lat="39.526369004651" lon="2.915127422322">
        <ele>285.8</ele>
        <time>2014-05-03T12:17:56Z</time>
      </trkpt>
      <trkpt lat="39.52640261607" lon="2.915024408771">
        <ele>285.2</ele>
        <time>2014-05-03T12:17:57Z</time>
      </trkpt>
      <trkpt lat="39.526435054023" lon="2.914917707184">
        <ele>284.6</ele>
        <time>2014-05-03T12:17:58Z</time>
      </trkpt>
      <trkpt lat="39.526463301026" lon="2.914808071932">
        <ele>284</ele>
        <time>2014-05-03T12:17:59Z</time>
      </trkpt>
      <trkpt lat="39.526487021803" lon="2.914691563522">
        <ele>282.8</ele>
        <time>2014-05-03T12:18:00Z</time>
      </trkpt>
      <trkpt lat="39.526507808915" lon="2.914572289085">
        <ele>282.2</ele>
        <time>2014-05-03T12:18:01Z</time>
      </trkpt>
      <trkpt lat="39.526527674018" lon="2.914450080983">
        <ele>281.6</ele>
        <time>2014-05-03T12:18:02Z</time>
      </trkpt>
      <trkpt lat="39.526552819718" lon="2.914324101026">
        <ele>280.8</ele>
        <time>2014-05-03T12:18:03Z</time>
      </trkpt>
      <trkpt lat="39.526589616259" lon="2.91419971363">
        <ele>280.2</ele>
        <time>2014-05-03T12:18:04Z</time>
      </trkpt>
      <trkpt lat="39.526637393089" lon="2.914073901311">
        <ele>279.4</ele>
        <time>2014-05-03T12:18:05Z</time>
      </trkpt>
      <trkpt lat="39.526685672833" lon="2.913958734005">
        <ele>278.6</ele>
        <time>2014-05-03T12:18:06Z</time>
      </trkpt>
      <trkpt lat="39.526738562622" lon="2.913847925287">
        <ele>278</ele>
        <time>2014-05-03T12:18:07Z</time>
      </trkpt>
      <trkpt lat="39.526791368592" lon="2.91373451818">
        <ele>277.4</ele>
        <time>2014-05-03T12:18:08Z</time>
      </trkpt>
      <trkpt lat="39.52684518039" lon="2.913620021426">
        <ele>276.8</ele>
        <time>2014-05-03T12:18:09Z</time>
      </trkpt>
      <trkpt lat="39.526900333292" lon="2.913505357034">
        <ele>276</ele>
        <time>2014-05-03T12:18:10Z</time>
      </trkpt>
      <trkpt lat="39.526960599153" lon="2.913385747321">
        <ele>275.4</ele>
        <time>2014-05-03T12:18:11Z</time>
      </trkpt>
      <trkpt lat="39.52701868572" lon="2.913267981626">
        <ele>274.8</ele>
        <time>2014-05-03T12:18:12Z</time>
      </trkpt>
      <trkpt lat="39.527073503346" lon="2.913147198447">
        <ele>274</ele>
        <time>2014-05-03T12:18:13Z</time>
      </trkpt>
      <trkpt lat="39.527114323199" lon="2.913035886815">
        <ele>273.4</ele>
        <time>2014-05-03T12:18:14Z</time>
      </trkpt>
      <trkpt lat="39.527143492211" lon="2.912900016216">
        <ele>272.8</ele>
        <time>2014-05-03T12:18:15Z</time>
      </trkpt>
      <trkpt lat="39.527153801948" lon="2.912778478666">
        <ele>272.4</ele>
        <time>2014-05-03T12:18:16Z</time>
      </trkpt>
      <trkpt lat="39.527155813604" lon="2.91264151842">
        <ele>271.8</ele>
        <time>2014-05-03T12:18:17Z</time>
      </trkpt>
      <trkpt lat="39.527147599342" lon="2.912517298662">
        <ele>271.4</ele>
        <time>2014-05-03T12:18:18Z</time>
      </trkpt>
      <trkpt lat="39.527126141678" lon="2.912409926523">
        <ele>271</ele>
        <time>2014-05-03T12:18:19Z</time>
      </trkpt>
      <trkpt lat="39.527018350444" lon="2.912237846116">
        <ele>271</ele>
        <time>2014-05-03T12:18:21Z</time>
      </trkpt>
      <trkpt lat="39.52695079233" lon="2.912160900274">
        <ele>271</ele>
        <time>2014-05-03T12:18:22Z</time>
      </trkpt>
      <trkpt lat="39.526887676623" lon="2.912085044079">
        <ele>271</ele>
        <time>2014-05-03T12:18:23Z</time>
      </trkpt>
      <trkpt lat="39.526828248952" lon="2.912000722165">
        <ele>271</ele>
        <time>2014-05-03T12:18:24Z</time>
      </trkpt>
      <trkpt lat="39.526777454638" lon="2.911908437446">
        <ele>271</ele>
        <time>2014-05-03T12:18:25Z</time>
      </trkpt>
      <trkpt lat="39.526729761627" lon="2.911807435551">
        <ele>270.4</ele>
        <time>2014-05-03T12:18:26Z</time>
      </trkpt>
      <trkpt lat="39.526680392236" lon="2.911703416172">
        <ele>270</ele>
        <time>2014-05-03T12:18:27Z</time>
      </trkpt>
      <trkpt lat="39.526630687569" lon="2.911601156992">
        <ele>269.4</ele>
        <time>2014-05-03T12:18:28Z</time>
      </trkpt>
      <trkpt lat="39.526585676766" lon="2.911512308852">
        <ele>269</ele>
        <time>2014-05-03T12:18:29Z</time>
      </trkpt>
      <trkpt lat="39.52653924104" lon="2.911424382721">
        <ele>268.6</ele>
        <time>2014-05-03T12:18:30Z</time>
      </trkpt>
      <trkpt lat="39.526491128934" lon="2.91134483849">
        <ele>268</ele>
        <time>2014-05-03T12:18:31Z</time>
      </trkpt>
      <trkpt lat="39.526435054023" lon="2.911270574856">
        <ele>267.6</ele>
        <time>2014-05-03T12:18:32Z</time>
      </trkpt>
      <trkpt lat="39.526372022135" lon="2.911203435837">
        <ele>267</ele>
        <time>2014-05-03T12:18:33Z</time>
      </trkpt>
      <trkpt lat="39.52630203327" lon="2.911133698429">
        <ele>266.6</ele>
        <time>2014-05-03T12:18:34Z</time>
      </trkpt>
      <trkpt lat="39.52623497807" lon="2.911057842234">
        <ele>266</ele>
        <time>2014-05-03T12:18:35Z</time>
      </trkpt>
      <trkpt lat="39.526173035829" lon="2.910967233895">
        <ele>265.6</ele>
        <time>2014-05-03T12:18:36Z</time>
      </trkpt>
      <trkpt lat="39.526112853787" lon="2.910867405466">
        <ele>265</ele>
        <time>2014-05-03T12:18:37Z</time>
      </trkpt>
      <trkpt lat="39.526054096668" lon="2.910763469906">
        <ele>264.4</ele>
        <time>2014-05-03T12:18:38Z</time>
      </trkpt>
      <trkpt lat="39.525997351205" lon="2.910662048916">
        <ele>263.8</ele>
        <time>2014-05-03T12:18:39Z</time>
      </trkpt>
      <trkpt lat="39.525942282122" lon="2.910560795564">
        <ele>263.2</ele>
        <time>2014-05-03T12:18:40Z</time>
      </trkpt>
      <trkpt lat="39.525882183899" lon="2.910451160312">
        <ele>262.4</ele>
        <time>2014-05-03T12:18:41Z</time>
      </trkpt>
      <trkpt lat="39.525825438436" lon="2.910346135105">
        <ele>261.6</ele>
        <time>2014-05-03T12:18:42Z</time>
      </trkpt>
      <trkpt lat="39.525766010765" lon="2.910234320559">
        <ele>260.6</ele>
        <time>2014-05-03T12:18:43Z</time>
      </trkpt>
      <trkpt lat="39.525707002189" lon="2.91012275747">
        <ele>259.8</ele>
        <time>2014-05-03T12:18:44Z</time>
      </trkpt>
      <trkpt lat="39.525645311405" lon="2.910008093078">
        <ele>259</ele>
        <time>2014-05-03T12:18:45Z</time>
      </trkpt>
      <trkpt lat="39.52558035168" lon="2.909889070098">
        <ele>258</ele>
        <time>2014-05-03T12:18:46Z</time>
      </trkpt>
      <trkpt lat="39.525515224317" lon="2.909765772349">
        <ele>257.2</ele>
        <time>2014-05-03T12:18:47Z</time>
      </trkpt>
      <trkpt lat="39.525448923488" lon="2.909639540935">
        <ele>256.2</ele>
        <time>2014-05-03T12:18:48Z</time>
      </trkpt>
      <trkpt lat="39.525383628487" lon="2.909513225702">
        <ele>255.2</ele>
        <time>2014-05-03T12:18:49Z</time>
      </trkpt>
      <trkpt lat="39.525319423133" lon="2.909390933781">
        <ele>253.2</ele>
        <time>2014-05-03T12:18:50Z</time>
      </trkpt>
      <trkpt lat="39.525252367933" lon="2.909266881661">
        <ele>252.2</ele>
        <time>2014-05-03T12:18:51Z</time>
      </trkpt>
      <trkpt lat="39.525192856443" lon="2.909147355767">
        <ele>251.2</ele>
        <time>2014-05-03T12:18:52Z</time>
      </trkpt>
      <trkpt lat="39.525145917803" lon="2.909020118525">
        <ele>251.2</ele>
        <time>2014-05-03T12:18:53Z</time>
      </trkpt>
      <trkpt lat="39.525111216737" lon="2.908886175763">
        <ele>250.8</ele>
        <time>2014-05-03T12:18:54Z</time>
      </trkpt>
      <trkpt lat="39.525083137372" lon="2.908749466974">
        <ele>250.4</ele>
        <time>2014-05-03T12:18:55Z</time>
      </trkpt>
      <trkpt lat="39.525053633084" lon="2.908613847832">
        <ele>250</ele>
        <time>2014-05-03T12:18:56Z</time>
      </trkpt>
      <trkpt lat="39.525025888995" lon="2.908480156527">
        <ele>249.4</ele>
        <time>2014-05-03T12:18:57Z</time>
      </trkpt>
      <trkpt lat="39.525002419675" lon="2.90834663286">
        <ele>249</ele>
        <time>2014-05-03T12:18:58Z</time>
      </trkpt>
      <trkpt lat="39.524978615079" lon="2.908207912415">
        <ele>249</ele>
        <time>2014-05-03T12:18:59Z</time>
      </trkpt>
      <trkpt lat="39.524950200438" lon="2.908078998793">
        <ele>249</ele>
        <time>2014-05-03T12:19:00Z</time>
      </trkpt>
      <trkpt lat="39.524909212947" lon="2.907954527578">
        <ele>249</ele>
        <time>2014-05-03T12:19:01Z</time>
      </trkpt>
      <trkpt lat="39.524857664262" lon="2.907838773539">
        <ele>249</ele>
        <time>2014-05-03T12:19:02Z</time>
      </trkpt>
      <trkpt lat="39.524797314582" lon="2.90772972502">
        <ele>248.6</ele>
        <time>2014-05-03T12:19:03Z</time>
      </trkpt>
      <trkpt lat="39.524734031237" lon="2.907622939614">
        <ele>248.2</ele>
        <time>2014-05-03T12:19:04Z</time>
      </trkpt>
      <trkpt lat="39.524671250806" lon="2.907512047077">
        <ele>247.8</ele>
        <time>2014-05-03T12:19:05Z</time>
      </trkpt>
      <trkpt lat="39.524611236402" lon="2.907403166196">
        <ele>247.2</ele>
        <time>2014-05-03T12:19:06Z</time>
      </trkpt>
      <trkpt lat="39.524552311645" lon="2.907295458781">
        <ele>246.4</ele>
        <time>2014-05-03T12:19:07Z</time>
      </trkpt>
      <trkpt lat="39.524500427684" lon="2.907198815474">
        <ele>245.8</ele>
        <time>2014-05-03T12:19:08Z</time>
      </trkpt>
      <trkpt lat="39.524453740501" lon="2.907110470248">
        <ele>245</ele>
        <time>2014-05-03T12:19:09Z</time>
      </trkpt>
      <trkpt lat="39.524413423562" lon="2.907033692044">
        <ele>244.4</ele>
        <time>2014-05-03T12:19:10Z</time>
      </trkpt>
      <trkpt lat="39.52431049383" lon="2.906821210879">
        <ele>244.4</ele>
        <time>2014-05-03T12:19:14Z</time>
      </trkpt>
      <trkpt lat="39.524201948225" lon="2.906616105786">
        <ele>242.2</ele>
        <time>2014-05-03T12:19:29Z</time>
      </trkpt>
      <trkpt lat="39.524201948225" lon="2.906616105786">
        <ele>242.2</ele>
        <time>2014-05-03T12:19:30Z</time>
      </trkpt>
      <trkpt lat="39.524201948225" lon="2.906616105786">
        <ele>242.2</ele>
        <time>2014-05-03T12:19:31Z</time>
      </trkpt>
      <trkpt lat="39.524201948225" lon="2.906616105786">
        <ele>242.2</ele>
        <time>2014-05-03T12:19:42Z</time>
      </trkpt>
      <trkpt lat="39.524201948225" lon="2.906616105786">
        <ele>242.2</ele>
        <time>2014-05-03T12:19:46Z</time>
      </trkpt>
      <trkpt lat="39.524201948225" lon="2.906616105786">
        <ele>242.2</ele>
        <time>2014-05-03T12:19:53Z</time>
      </trkpt>
      <trkpt lat="39.524189459194" lon="2.906615351415">
        <ele>242.2</ele>
        <time>2014-05-03T12:19:55Z</time>
      </trkpt>
      <trkpt lat="39.524156769784" lon="2.906608729714">
        <ele>242.2</ele>
        <time>2014-05-03T12:19:57Z</time>
      </trkpt>
      <trkpt lat="39.524085355996" lon="2.906588026421">
        <ele>242.2</ele>
        <time>2014-05-03T12:20:00Z</time>
      </trkpt>
      <trkpt lat="39.524046966894" lon="2.90657553739">
        <ele>242.2</ele>
        <time>2014-05-03T12:20:01Z</time>
      </trkpt>
      <trkpt lat="39.523999944435" lon="2.90656547911">
        <ele>242.2</ele>
        <time>2014-05-03T12:20:02Z</time>
      </trkpt>
      <trkpt lat="39.523947641379" lon="2.906555923744">
        <ele>242.2</ele>
        <time>2014-05-03T12:20:03Z</time>
      </trkpt>
      <trkpt lat="39.519335752361" lon="2.905286065894">
        <ele>226</ele>
        <time>2014-05-03T12:20:54Z</time>
      </trkpt>
      <trkpt lat="39.519248161506" lon="2.905262261298">
        <ele>226</ele>
        <time>2014-05-03T12:20:55Z</time>
      </trkpt>
      <trkpt lat="39.519074069443" lon="2.905215406477">
        <ele>226</ele>
        <time>2014-05-03T12:20:57Z</time>
      </trkpt>
      <trkpt lat="39.518984969846" lon="2.90519252389">
        <ele>226</ele>
        <time>2014-05-03T12:20:58Z</time>
      </trkpt>
      <trkpt lat="39.518894529145" lon="2.905168970751">
        <ele>226</ele>
        <time>2014-05-03T12:20:59Z</time>
      </trkpt>
      <trkpt lat="39.518803082616" lon="2.905146591078">
        <ele>226</ele>
        <time>2014-05-03T12:21:00Z</time>
      </trkpt>
      <trkpt lat="39.518709624431" lon="2.905124965776">
        <ele>226</ele>
        <time>2014-05-03T12:21:01Z</time>
      </trkpt>
      <trkpt lat="39.518146025475" lon="2.905051037418">
        <ele>226</ele>
        <time>2014-05-03T12:21:07Z</time>
      </trkpt>
      <trkpt lat="39.517758446419" lon="2.905024969709">
        <ele>226</ele>
        <time>2014-05-03T12:21:11Z</time>
      </trkpt>
      <trkpt lat="39.517557280819" lon="2.905009379375">
        <ele>226</ele>
        <time>2014-05-03T12:21:13Z</time>
      </trkpt>
      <trkpt lat="39.517457955304" lon="2.905002003303">
        <ele>225.4</ele>
        <time>2014-05-03T12:21:14Z</time>
      </trkpt>
      <trkpt lat="39.517358378332" lon="2.904995297783">
        <ele>225</ele>
        <time>2014-05-03T12:21:15Z</time>
      </trkpt>
      <trkpt lat="39.517260561559" lon="2.90498884372">
        <ele>224.6</ele>
        <time>2014-05-03T12:21:16Z</time>
      </trkpt>
      <trkpt lat="39.517156123085" lon="2.904982808752">
        <ele>224.2</ele>
        <time>2014-05-03T12:21:17Z</time>
      </trkpt>
      <trkpt lat="39.517055791742" lon="2.904976438508">
        <ele>223.6</ele>
        <time>2014-05-03T12:21:18Z</time>
      </trkpt>
      <trkpt lat="39.516849094088" lon="2.904953891197">
        <ele>223.2</ele>
        <time>2014-05-03T12:21:20Z</time>
      </trkpt>
      <trkpt lat="39.516742895415" lon="2.904933104085">
        <ele>222.8</ele>
        <time>2014-05-03T12:21:21Z</time>
      </trkpt>
      <trkpt lat="39.516634685086" lon="2.904909886222">
        <ele>222.4</ele>
        <time>2014-05-03T12:21:22Z</time>
      </trkpt>
      <trkpt lat="39.516516751753" lon="2.904886165445">
        <ele>221.8</ele>
        <time>2014-05-03T12:21:23Z</time>
      </trkpt>
      <trkpt lat="39.516401500628" lon="2.904861606478">
        <ele>221.4</ele>
        <time>2014-05-03T12:21:24Z</time>
      </trkpt>
      <trkpt lat="39.516283902571" lon="2.90483545495">
        <ele>221</ele>
        <time>2014-05-03T12:21:25Z</time>
      </trkpt>
      <trkpt lat="39.516163622306" lon="2.904810225431">
        <ele>220.4</ele>
        <time>2014-05-03T12:21:26Z</time>
      </trkpt>
      <trkpt lat="39.516041498023" lon="2.904786672292">
        <ele>220</ele>
        <time>2014-05-03T12:21:27Z</time>
      </trkpt>
      <trkpt lat="39.515918284093" lon="2.904763538248">
        <ele>219.6</ele>
        <time>2014-05-03T12:21:28Z</time>
      </trkpt>
      <trkpt lat="39.515796914181" lon="2.904739733652">
        <ele>219</ele>
        <time>2014-05-03T12:21:29Z</time>
      </trkpt>
      <trkpt lat="39.515675376631" lon="2.904713665943">
        <ele>218.4</ele>
        <time>2014-05-03T12:21:30Z</time>
      </trkpt>
      <trkpt lat="39.515553503805" lon="2.904684496931">
        <ele>217.8</ele>
        <time>2014-05-03T12:21:31Z</time>
      </trkpt>
      <trkpt lat="39.515425847468" lon="2.904655830833">
        <ele>217</ele>
        <time>2014-05-03T12:21:32Z</time>
      </trkpt>
      <trkpt lat="39.515307411221" lon="2.904628841115">
        <ele>216.4</ele>
        <time>2014-05-03T12:21:33Z</time>
      </trkpt>
      <trkpt lat="39.515192076277" lon="2.904596151705">
        <ele>215.8</ele>
        <time>2014-05-03T12:21:34Z</time>
      </trkpt>
      <trkpt lat="39.515075651686" lon="2.904551140902">
        <ele>215</ele>
        <time>2014-05-03T12:21:35Z</time>
      </trkpt>
      <trkpt lat="39.514963669502" lon="2.904494479258">
        <ele>214.2</ele>
        <time>2014-05-03T12:21:36Z</time>
      </trkpt>
      <trkpt lat="39.514851184404" lon="2.904431363551">
        <ele>213.4</ele>
        <time>2014-05-03T12:21:37Z</time>
      </trkpt>
      <trkpt lat="39.514738866944" lon="2.904361709962">
        <ele>212.6</ele>
        <time>2014-05-03T12:21:38Z</time>
      </trkpt>
      <trkpt lat="39.514623615819" lon="2.904286189043">
        <ele>212</ele>
        <time>2014-05-03T12:21:39Z</time>
      </trkpt>
      <trkpt lat="39.514502245907" lon="2.904203711147">
        <ele>211.2</ele>
        <time>2014-05-03T12:21:40Z</time>
      </trkpt>
      <trkpt lat="39.514380289262" lon="2.904120730337">
        <ele>210.4</ele>
        <time>2014-05-03T12:21:41Z</time>
      </trkpt>
      <trkpt lat="39.514256907694" lon="2.904035905509">
        <ele>209.6</ele>
        <time>2014-05-03T12:21:42Z</time>
      </trkpt>
      <trkpt lat="39.514130341004" lon="2.903950493948">
        <ele>207.4</ele>
        <time>2014-05-03T12:21:43Z</time>
      </trkpt>
      <trkpt lat="39.514001511201" lon="2.903862735455">
        <ele>206.4</ele>
        <time>2014-05-03T12:21:44Z</time>
      </trkpt>
      <trkpt lat="39.513871591751" lon="2.903774725505">
        <ele>205.2</ele>
        <time>2014-05-03T12:21:45Z</time>
      </trkpt>
      <trkpt lat="39.513738487179" lon="2.90368545827">
        <ele>204</ele>
        <time>2014-05-03T12:21:46Z</time>
      </trkpt>
      <trkpt lat="39.513596833069" lon="2.903590575162">
        <ele>203</ele>
        <time>2014-05-03T12:21:47Z</time>
      </trkpt>
      <trkpt lat="39.51346012428" lon="2.903498960995">
        <ele>201.8</ele>
        <time>2014-05-03T12:21:48Z</time>
      </trkpt>
      <trkpt lat="39.513325427147" lon="2.903412292149">
        <ele>200.8</ele>
        <time>2014-05-03T12:21:49Z</time>
      </trkpt>
      <trkpt lat="39.513193747498" lon="2.903324366018">
        <ele>199.8</ele>
        <time>2014-05-03T12:21:50Z</time>
      </trkpt>
      <trkpt lat="39.513063325134" lon="2.903234931145">
        <ele>198.8</ele>
        <time>2014-05-03T12:21:51Z</time>
      </trkpt>
      <trkpt lat="39.512935333521" lon="2.903145077177">
        <ele>198</ele>
        <time>2014-05-03T12:21:52Z</time>
      </trkpt>
      <trkpt lat="39.512807928641" lon="2.903057318684">
        <ele>197.2</ele>
        <time>2014-05-03T12:21:53Z</time>
      </trkpt>
      <trkpt lat="39.512680439942" lon="2.902972410037">
        <ele>196.4</ele>
        <time>2014-05-03T12:21:54Z</time>
      </trkpt>
      <trkpt lat="39.512549766121" lon="2.902883980992">
        <ele>195.6</ele>
        <time>2014-05-03T12:21:55Z</time>
      </trkpt>
      <trkpt lat="39.512429737313" lon="2.902799072345">
        <ele>194.8</ele>
        <time>2014-05-03T12:21:56Z</time>
      </trkpt>
      <trkpt lat="39.512309373229" lon="2.902718438467">
        <ele>194.8</ele>
        <time>2014-05-03T12:21:57Z</time>
      </trkpt>
      <trkpt lat="39.512190182611" lon="2.902640067702">
        <ele>194.4</ele>
        <time>2014-05-03T12:21:58Z</time>
      </trkpt>
      <trkpt lat="39.512075182943" lon="2.90256144548">
        <ele>193.8</ele>
        <time>2014-05-03T12:21:59Z</time>
      </trkpt>
      <trkpt lat="39.511963200759" lon="2.902485673104">
        <ele>193.2</ele>
        <time>2014-05-03T12:22:00Z</time>
      </trkpt>
      <trkpt lat="39.511854068421" lon="2.902414343135">
        <ele>192.6</ele>
        <time>2014-05-03T12:22:01Z</time>
      </trkpt>
      <trkpt lat="39.511740661314" lon="2.902342342614">
        <ele>191.8</ele>
        <time>2014-05-03T12:22:02Z</time>
      </trkpt>
      <trkpt lat="39.511631528976" lon="2.902269084808">
        <ele>191.2</ele>
        <time>2014-05-03T12:22:03Z</time>
      </trkpt>
      <trkpt lat="39.51152474357" lon="2.90219683283">
        <ele>190.6</ele>
        <time>2014-05-03T12:22:04Z</time>
      </trkpt>
      <trkpt lat="39.510976315853" lon="2.901832136361">
        <ele>190</ele>
        <time>2014-05-03T12:22:09Z</time>
      </trkpt>
      <trkpt lat="39.510858466339" lon="2.901753849415">
        <ele>189.4</ele>
        <time>2014-05-03T12:22:10Z</time>
      </trkpt>
      <trkpt lat="39.510743885766" lon="2.90168050779">
        <ele>188.8</ele>
        <time>2014-05-03T12:22:11Z</time>
      </trkpt>
      <trkpt lat="39.510630059564" lon="2.901605825061">
        <ele>188.2</ele>
        <time>2014-05-03T12:22:12Z</time>
      </trkpt>
      <trkpt lat="39.510515143715" lon="2.901529382133">
        <ele>187.6</ele>
        <time>2014-05-03T12:22:13Z</time>
      </trkpt>
      <trkpt lat="39.510399389676" lon="2.901452101015">
        <ele>187</ele>
        <time>2014-05-03T12:22:14Z</time>
      </trkpt>
      <trkpt lat="39.51028422237" lon="2.901376412458">
        <ele>186.4</ele>
        <time>2014-05-03T12:22:15Z</time>
      </trkpt>
      <trkpt lat="39.510167378684" lon="2.901299382797">
        <ele>185.8</ele>
        <time>2014-05-03T12:22:16Z</time>
      </trkpt>
      <trkpt lat="39.510053133387" lon="2.901219922385">
        <ele>185.2</ele>
        <time>2014-05-03T12:22:17Z</time>
      </trkpt>
      <trkpt lat="39.509930673828" lon="2.901135935747">
        <ele>184.4</ele>
        <time>2014-05-03T12:22:18Z</time>
      </trkpt>
      <trkpt lat="39.509815087427" lon="2.901058067896">
        <ele>183.6</ele>
        <time>2014-05-03T12:22:19Z</time>
      </trkpt>
      <trkpt lat="39.509696818818" lon="2.900980032407">
        <ele>183</ele>
        <time>2014-05-03T12:22:20Z</time>
      </trkpt>
      <trkpt lat="39.509579723675" lon="2.900903840936">
        <ele>182.4</ele>
        <time>2014-05-03T12:22:21Z</time>
      </trkpt>
      <trkpt lat="39.509467741491" lon="2.900831924234">
        <ele>181.8</ele>
        <time>2014-05-03T12:22:22Z</time>
      </trkpt>
      <trkpt lat="39.509355256393" lon="2.900758666428">
        <ele>181.4</ele>
        <time>2014-05-03T12:22:23Z</time>
      </trkpt>
      <trkpt lat="39.509247465159" lon="2.900685408622">
        <ele>180.8</ele>
        <time>2014-05-03T12:22:24Z</time>
      </trkpt>
      <trkpt lat="39.509137243174" lon="2.900610390617">
        <ele>180.2</ele>
        <time>2014-05-03T12:22:25Z</time>
      </trkpt>
      <trkpt lat="39.508831890557" lon="2.900416349632">
        <ele>179.6</ele>
        <time>2014-05-03T12:22:28Z</time>
      </trkpt>
      <trkpt lat="39.50873440906" lon="2.900354826486">
        <ele>179.2</ele>
        <time>2014-05-03T12:22:29Z</time>
      </trkpt>
      <trkpt lat="39.508639274495" lon="2.900297159014">
        <ele>178.6</ele>
        <time>2014-05-03T12:22:30Z</time>
      </trkpt>
      <trkpt lat="39.508543637016" lon="2.900242676664">
        <ele>178</ele>
        <time>2014-05-03T12:22:31Z</time>
      </trkpt>
      <trkpt lat="39.508447999537" lon="2.900189451599">
        <ele>176.6</ele>
        <time>2014-05-03T12:22:32Z</time>
      </trkpt>
      <trkpt lat="39.508349763669" lon="2.900135388344">
        <ele>175.8</ele>
        <time>2014-05-03T12:22:33Z</time>
      </trkpt>
      <trkpt lat="39.508245828109" lon="2.900080822175">
        <ele>175.2</ele>
        <time>2014-05-03T12:22:34Z</time>
      </trkpt>
      <trkpt lat="39.508054553151" lon="2.899975461692">
        <ele>175.2</ele>
        <time>2014-05-03T12:22:36Z</time>
      </trkpt>
      <trkpt lat="39.507962687527" lon="2.899926930491">
        <ele>175.2</ele>
        <time>2014-05-03T12:22:37Z</time>
      </trkpt>
      <trkpt lat="39.507600757085" lon="2.899727022176">
        <ele>175.2</ele>
        <time>2014-05-03T12:22:41Z</time>
      </trkpt>
      <trkpt lat="39.507510735479" lon="2.899677317509">
        <ele>175.2</ele>
        <time>2014-05-03T12:22:42Z</time>
      </trkpt>
      <trkpt lat="39.50742599447" lon="2.89963113324">
        <ele>175.2</ele>
        <time>2014-05-03T12:22:43Z</time>
      </trkpt>
      <trkpt lat="39.507251567131" lon="2.899535076666">
        <ele>174.8</ele>
        <time>2014-05-03T12:22:45Z</time>
      </trkpt>
      <trkpt lat="39.507148972675" lon="2.899480091402">
        <ele>174.2</ele>
        <time>2014-05-03T12:22:46Z</time>
      </trkpt>
      <trkpt lat="39.507067416788" lon="2.899436170246">
        <ele>173.8</ele>
        <time>2014-05-03T12:22:47Z</time>
      </trkpt>
      <trkpt lat="39.506979993571" lon="2.899387722864">
        <ele>173.4</ele>
        <time>2014-05-03T12:22:48Z</time>
      </trkpt>
      <trkpt lat="39.506893240906" lon="2.899337682921">
        <ele>173</ele>
        <time>2014-05-03T12:22:49Z</time>
      </trkpt>
      <trkpt lat="39.506808080802" lon="2.899285715141">
        <ele>173</ele>
        <time>2014-05-03T12:22:50Z</time>
      </trkpt>
      <trkpt lat="39.506722585422" lon="2.899231903343">
        <ele>173</ele>
        <time>2014-05-03T12:22:51Z</time>
      </trkpt>
      <trkpt lat="39.506633653463" lon="2.899178007726">
        <ele>173</ele>
        <time>2014-05-03T12:22:52Z</time>
      </trkpt>
      <trkpt lat="39.506541201106" lon="2.899124698842">
        <ele>173</ele>
        <time>2014-05-03T12:22:53Z</time>
      </trkpt>
      <trkpt lat="39.506451598595" lon="2.899074407442">
        <ele>173</ele>
        <time>2014-05-03T12:22:54Z</time>
      </trkpt>
      <trkpt lat="39.506272393573" lon="2.898977177402">
        <ele>173</ele>
        <time>2014-05-03T12:22:56Z</time>
      </trkpt>
      <trkpt lat="39.505753637782" lon="2.898681296332">
        <ele>173</ele>
        <time>2014-05-03T12:23:02Z</time>
      </trkpt>
      <trkpt lat="39.50558281466" lon="2.898585491215">
        <ele>173</ele>
        <time>2014-05-03T12:23:04Z</time>
      </trkpt>
      <trkpt lat="39.505490194665" lon="2.898533271978">
        <ele>172.6</ele>
        <time>2014-05-03T12:23:05Z</time>
      </trkpt>
      <trkpt lat="39.505400759792" lon="2.898484992234">
        <ele>172.2</ele>
        <time>2014-05-03T12:23:06Z</time>
      </trkpt>
      <trkpt lat="39.505309983815" lon="2.898436796309">
        <ele>171.8</ele>
        <time>2014-05-03T12:23:07Z</time>
      </trkpt>
      <trkpt lat="39.505220884218" lon="2.898388265108">
        <ele>171.4</ele>
        <time>2014-05-03T12:23:08Z</time>
      </trkpt>
      <trkpt lat="39.505131616983" lon="2.898339063355">
        <ele>171</ele>
        <time>2014-05-03T12:23:09Z</time>
      </trkpt>
      <trkpt lat="39.504956016178" lon="2.898241330401">
        <ele>171</ele>
        <time>2014-05-03T12:23:11Z</time>
      </trkpt>
      <trkpt lat="39.50486280945" lon="2.898188272974">
        <ele>171</ele>
        <time>2014-05-03T12:23:12Z</time>
      </trkpt>
      <trkpt lat="39.504418317293" lon="2.897954082688">
        <ele>170.4</ele>
        <time>2014-05-03T12:23:17Z</time>
      </trkpt>
      <trkpt lat="39.50432888242" lon="2.897906892591">
        <ele>170</ele>
        <time>2014-05-03T12:23:18Z</time>
      </trkpt>
      <trkpt lat="39.504239615185" lon="2.897856349734">
        <ele>169.6</ele>
        <time>2014-05-03T12:23:19Z</time>
      </trkpt>
      <trkpt lat="39.504145151172" lon="2.89780387904">
        <ele>169.2</ele>
        <time>2014-05-03T12:23:20Z</time>
      </trkpt>
      <trkpt lat="39.504056051575" lon="2.897754761106">
        <ele>168.8</ele>
        <time>2014-05-03T12:23:21Z</time>
      </trkpt>
      <trkpt lat="39.503878942028" lon="2.897658453075">
        <ele>168.4</ele>
        <time>2014-05-03T12:23:23Z</time>
      </trkpt>
      <trkpt lat="39.503789507155" lon="2.897609335141">
        <ele>167.8</ele>
        <time>2014-05-03T12:23:24Z</time>
      </trkpt>
      <trkpt lat="39.503699988463" lon="2.897560636302">
        <ele>167.4</ele>
        <time>2014-05-03T12:23:25Z</time>
      </trkpt>
      <trkpt lat="39.503612732884" lon="2.897510177264">
        <ele>167</ele>
        <time>2014-05-03T12:23:26Z</time>
      </trkpt>
      <trkpt lat="39.503523800925" lon="2.89745854476">
        <ele>166.4</ele>
        <time>2014-05-03T12:23:27Z</time>
      </trkpt>
      <trkpt lat="39.503251305356" lon="2.897296103538">
        <ele>166.4</ele>
        <time>2014-05-03T12:23:30Z</time>
      </trkpt>
      <trkpt lat="39.502898762642" lon="2.897060236872">
        <ele>166.4</ele>
        <time>2014-05-03T12:23:34Z</time>
      </trkpt>
      <trkpt lat="39.502808741036" lon="2.896993014034">
        <ele>166.4</ele>
        <time>2014-05-03T12:23:35Z</time>
      </trkpt>
      <trkpt lat="39.502459634901" lon="2.896721943388">
        <ele>166.4</ele>
        <time>2014-05-03T12:23:39Z</time>
      </trkpt>
      <trkpt lat="39.502376234996" lon="2.896657570396">
        <ele>166.4</ele>
        <time>2014-05-03T12:23:40Z</time>
      </trkpt>
      <trkpt lat="39.502209183729" lon="2.896528824412">
        <ele>166.4</ele>
        <time>2014-05-03T12:23:42Z</time>
      </trkpt>
      <trkpt lat="39.502038444426" lon="2.896389936329">
        <ele>166</ele>
        <time>2014-05-03T12:23:44Z</time>
      </trkpt>
      <trkpt lat="39.501953116684" lon="2.896322378215">
        <ele>165.6</ele>
        <time>2014-05-03T12:23:45Z</time>
      </trkpt>
      <trkpt lat="39.501870219693" lon="2.896259262508">
        <ele>165.2</ele>
        <time>2014-05-03T12:23:46Z</time>
      </trkpt>
      <trkpt lat="39.501789921091" lon="2.896200337751">
        <ele>164.2</ele>
        <time>2014-05-03T12:23:47Z</time>
      </trkpt>
      <trkpt lat="39.501711550326" lon="2.89614091008">
        <ele>163.8</ele>
        <time>2014-05-03T12:23:48Z</time>
      </trkpt>
      <trkpt lat="39.501635694131" lon="2.896078213468">
        <ele>163.2</ele>
        <time>2014-05-03T12:23:49Z</time>
      </trkpt>
      <trkpt lat="39.501558245375" lon="2.896015349218">
        <ele>162.8</ele>
        <time>2014-05-03T12:23:50Z</time>
      </trkpt>
      <trkpt lat="39.501473085271" lon="2.89595315552">
        <ele>162.4</ele>
        <time>2014-05-03T12:23:51Z</time>
      </trkpt>
      <trkpt lat="39.50139018828" lon="2.895898002618">
        <ele>161.8</ele>
        <time>2014-05-03T12:23:52Z</time>
      </trkpt>
      <trkpt lat="39.501136635805" lon="2.895744865305">
        <ele>161.8</ele>
        <time>2014-05-03T12:23:55Z</time>
      </trkpt>
      <trkpt lat="39.500783506358" lon="2.895577478762">
        <ele>161.8</ele>
        <time>2014-05-03T12:23:59Z</time>
      </trkpt>
      <trkpt lat="39.500612096503" lon="2.89551645853">
        <ele>161.8</ele>
        <time>2014-05-03T12:24:01Z</time>
      </trkpt>
      <trkpt lat="39.500528948055" lon="2.895488043889">
        <ele>161.4</ele>
        <time>2014-05-03T12:24:02Z</time>
      </trkpt>
      <trkpt lat="39.500446973073" lon="2.895459042515">
        <ele>161</ele>
        <time>2014-05-03T12:24:03Z</time>
      </trkpt>
      <trkpt lat="39.500365333367" lon="2.895429957322">
        <ele>160.6</ele>
        <time>2014-05-03T12:24:04Z</time>
      </trkpt>
      <trkpt lat="39.500283023109" lon="2.89540078831">
        <ele>160.2</ele>
        <time>2014-05-03T12:24:05Z</time>
      </trkpt>
      <trkpt lat="39.500197024815" lon="2.895371703117">
        <ele>159.8</ele>
        <time>2014-05-03T12:24:06Z</time>
      </trkpt>
      <trkpt lat="39.50011530129" lon="2.895345719227">
        <ele>159.8</ele>
        <time>2014-05-03T12:24:07Z</time>
      </trkpt>
      <trkpt lat="39.500033913041" lon="2.895320573527">
        <ele>159.8</ele>
        <time>2014-05-03T12:24:08Z</time>
      </trkpt>
      <trkpt lat="39.499880859547" lon="2.895269108661">
        <ele>159.8</ele>
        <time>2014-05-03T12:24:10Z</time>
      </trkpt>
      <trkpt lat="39.49980684737" lon="2.895242118943">
        <ele>159.8</ele>
        <time>2014-05-03T12:24:11Z</time>
      </trkpt>
      <trkpt lat="39.499737948152" lon="2.895203981298">
        <ele>159.4</ele>
        <time>2014-05-03T12:24:12Z</time>
      </trkpt>
      <trkpt lat="39.499673491341" lon="2.895149834224">
        <ele>159</ele>
        <time>2014-05-03T12:24:13Z</time>
      </trkpt>
      <trkpt lat="39.499616159145" lon="2.8950831143">
        <ele>158.6</ele>
        <time>2014-05-03T12:24:14Z</time>
      </trkpt>
      <trkpt lat="39.499567460306" lon="2.894999630576">
        <ele>158.2</ele>
        <time>2014-05-03T12:24:15Z</time>
      </trkpt>
      <trkpt lat="39.499524964073" lon="2.894904244554">
        <ele>157.8</ele>
        <time>2014-05-03T12:24:16Z</time>
      </trkpt>
      <trkpt lat="39.499462435099" lon="2.894592605512">
        <ele>157.8</ele>
        <time>2014-05-03T12:24:19Z</time>
      </trkpt>
      <trkpt lat="39.499452879733" lon="2.894364617832">
        <ele>157.8</ele>
        <time>2014-05-03T12:24:21Z</time>
      </trkpt>
      <trkpt lat="39.499437708494" lon="2.893922640245">
        <ele>157.8</ele>
        <time>2014-05-03T12:24:25Z</time>
      </trkpt>
      <trkpt lat="39.499434774829" lon="2.893817279762">
        <ele>157.8</ele>
        <time>2014-05-03T12:24:26Z</time>
      </trkpt>
      <trkpt lat="39.499434523372" lon="2.89371099727">
        <ele>157.8</ele>
        <time>2014-05-03T12:24:27Z</time>
      </trkpt>
      <trkpt lat="39.499434355734" lon="2.893607983719">
        <ele>157.8</ele>
        <time>2014-05-03T12:24:28Z</time>
      </trkpt>
      <trkpt lat="39.499430751517" lon="2.893398603857">
        <ele>157.8</ele>
        <time>2014-05-03T12:24:30Z</time>
      </trkpt>
      <trkpt lat="39.499425554739" lon="2.893300451808">
        <ele>157.8</ele>
        <time>2014-05-03T12:24:31Z</time>
      </trkpt>
      <trkpt lat="39.499420190323" lon="2.893207412718">
        <ele>157.8</ele>
        <time>2014-05-03T12:24:32Z</time>
      </trkpt>
      <trkpt lat="39.499385321619" lon="2.892727884219">
        <ele>157.8</ele>
        <time>2014-05-03T12:24:37Z</time>
      </trkpt>
      <trkpt lat="39.499373754597" lon="2.892626463229">
        <ele>157.8</ele>
        <time>2014-05-03T12:24:38Z</time>
      </trkpt>
      <trkpt lat="39.499361852299" lon="2.892525880429">
        <ele>157.8</ele>
        <time>2014-05-03T12:24:39Z</time>
      </trkpt>
      <trkpt lat="39.499265879544" lon="2.891934118289">
        <ele>157.8</ele>
        <time>2014-05-03T12:24:45Z</time>
      </trkpt>
      <trkpt lat="39.499241572034" lon="2.891836720611">
        <ele>157.8</ele>
        <time>2014-05-03T12:24:46Z</time>
      </trkpt>
      <trkpt lat="39.499152388618" lon="2.891523656646">
        <ele>157.8</ele>
        <time>2014-05-03T12:24:49Z</time>
      </trkpt>
      <trkpt lat="39.499119783027" lon="2.891417038878">
        <ele>157.8</ele>
        <time>2014-05-03T12:24:50Z</time>
      </trkpt>
      <trkpt lat="39.499047028135" lon="2.89120732374">
        <ele>157.4</ele>
        <time>2014-05-03T12:24:52Z</time>
      </trkpt>
      <trkpt lat="39.4990080523" lon="2.891099029592">
        <ele>156.8</ele>
        <time>2014-05-03T12:24:53Z</time>
      </trkpt>
      <trkpt lat="39.498969244103" lon="2.890995764584">
        <ele>156.4</ele>
        <time>2014-05-03T12:24:54Z</time>
      </trkpt>
      <trkpt lat="39.498928088974" lon="2.890891745205">
        <ele>156</ele>
        <time>2014-05-03T12:24:55Z</time>
      </trkpt>
      <trkpt lat="39.498884503094" lon="2.890786803817">
        <ele>155.4</ele>
        <time>2014-05-03T12:24:56Z</time>
      </trkpt>
      <trkpt lat="39.498838570282" lon="2.890678509669">
        <ele>154.8</ele>
        <time>2014-05-03T12:24:57Z</time>
      </trkpt>
      <trkpt lat="39.498790374357" lon="2.890570383159">
        <ele>154.2</ele>
        <time>2014-05-03T12:24:58Z</time>
      </trkpt>
      <trkpt lat="39.498741675518" lon="2.890464352124">
        <ele>153.6</ele>
        <time>2014-05-03T12:24:59Z</time>
      </trkpt>
      <trkpt lat="39.498687444625" lon="2.890350023008">
        <ele>153</ele>
        <time>2014-05-03T12:25:00Z</time>
      </trkpt>
      <trkpt lat="39.498580072486" lon="2.89014701339">
        <ele>153</ele>
        <time>2014-05-03T12:25:02Z</time>
      </trkpt>
      <trkpt lat="39.498521231548" lon="2.890041652907">
        <ele>152.4</ele>
        <time>2014-05-03T12:25:03Z</time>
      </trkpt>
      <trkpt lat="39.49845736147" lon="2.889936795338">
        <ele>152</ele>
        <time>2014-05-03T12:25:04Z</time>
      </trkpt>
      <trkpt lat="39.49838862989" lon="2.889834787615">
        <ele>151.6</ele>
        <time>2014-05-03T12:25:05Z</time>
      </trkpt>
      <trkpt lat="39.498317886654" lon="2.889732025521">
        <ele>151.2</ele>
        <time>2014-05-03T12:25:06Z</time>
      </trkpt>
      <trkpt lat="39.49824697578" lon="2.889631694178">
        <ele>150.8</ele>
        <time>2014-05-03T12:25:07Z</time>
      </trkpt>
      <trkpt lat="39.498175310535" lon="2.889536140518">
        <ele>150.8</ele>
        <time>2014-05-03T12:25:08Z</time>
      </trkpt>
      <trkpt lat="39.498029297837" lon="2.889352325451">
        <ele>150.8</ele>
        <time>2014-05-03T12:25:10Z</time>
      </trkpt>
      <trkpt lat="39.497958303144" lon="2.889261968569">
        <ele>150.8</ele>
        <time>2014-05-03T12:25:11Z</time>
      </trkpt>
      <trkpt lat="39.49788655408" lon="2.889177981931">
        <ele>150.8</ele>
        <time>2014-05-03T12:25:12Z</time>
      </trkpt>
      <trkpt lat="39.497736769527" lon="2.889013948148">
        <ele>150.8</ele>
        <time>2014-05-03T12:25:14Z</time>
      </trkpt>
      <trkpt lat="39.497656973839" lon="2.888936164116">
        <ele>150.8</ele>
        <time>2014-05-03T12:25:15Z</time>
      </trkpt>
      <trkpt lat="39.497487240364" lon="2.8887799255">
        <ele>150.8</ele>
        <time>2014-05-03T12:25:17Z</time>
      </trkpt>
      <trkpt lat="39.497133440365" lon="2.888493935072">
        <ele>150.2</ele>
        <time>2014-05-03T12:25:21Z</time>
      </trkpt>
      <trkpt lat="39.497047190614" lon="2.888428053338">
        <ele>149.6</ele>
        <time>2014-05-03T12:25:22Z</time>
      </trkpt>
      <trkpt lat="39.496962617243" lon="2.888362423061">
        <ele>149</ele>
        <time>2014-05-03T12:25:23Z</time>
      </trkpt>
      <trkpt lat="39.496876618949" lon="2.888294110576">
        <ele>148.4</ele>
        <time>2014-05-03T12:25:24Z</time>
      </trkpt>
      <trkpt lat="39.496794560148" lon="2.888228983213">
        <ele>147.8</ele>
        <time>2014-05-03T12:25:25Z</time>
      </trkpt>
      <trkpt lat="39.496713674813" lon="2.888163185298">
        <ele>146.4</ele>
        <time>2014-05-03T12:25:26Z</time>
      </trkpt>
      <trkpt lat="39.496632202745" lon="2.888097052107">
        <ele>145.8</ele>
        <time>2014-05-03T12:25:27Z</time>
      </trkpt>
      <trkpt lat="39.496390720206" lon="2.887914159049">
        <ele>145.8</ele>
        <time>2014-05-03T12:25:30Z</time>
      </trkpt>
      <trkpt lat="39.496311427432" lon="2.887848864048">
        <ele>145.8</ele>
        <time>2014-05-03T12:25:31Z</time>
      </trkpt>
      <trkpt lat="39.495918903055" lon="2.887537308825">
        <ele>145.8</ele>
        <time>2014-05-03T12:25:36Z</time>
      </trkpt>
      <trkpt lat="39.495843549774" lon="2.887478300249">
        <ele>145.8</ele>
        <time>2014-05-03T12:25:37Z</time>
      </trkpt>
      <trkpt lat="39.495691669746" lon="2.8873633844">
        <ele>145.8</ele>
        <time>2014-05-03T12:25:39Z</time>
      </trkpt>
      <trkpt lat="39.49555722407" lon="2.887229944552">
        <ele>145.8</ele>
        <time>2014-05-03T12:25:41Z</time>
      </trkpt>
      <trkpt lat="39.495521433357" lon="2.887136570186">
        <ele>145.8</ele>
        <time>2014-05-03T12:25:42Z</time>
      </trkpt>
      <trkpt lat="39.495492180526" lon="2.887038334318">
        <ele>145.8</ele>
        <time>2014-05-03T12:25:43Z</time>
      </trkpt>
      <trkpt lat="39.495390675717" lon="2.886904307737">
        <ele>145.8</ele>
        <time>2014-05-03T12:25:45Z</time>
      </trkpt>
      <trkpt lat="39.495301324663" lon="2.886890729059">
        <ele>145.8</ele>
        <time>2014-05-03T12:25:47Z</time>
      </trkpt>
      <trkpt lat="39.495239633879" lon="2.886921322994">
        <ele>145.8</ele>
        <time>2014-05-03T12:25:49Z</time>
      </trkpt>
      <trkpt lat="39.495217505663" lon="2.886931045998">
        <ele>145.8</ele>
        <time>2014-05-03T12:25:50Z</time>
      </trkpt>
      <trkpt lat="39.495195209809" lon="2.886929872532">
        <ele>145.8</ele>
        <time>2014-05-03T12:25:51Z</time>
      </trkpt>
      <trkpt lat="39.495174506516" lon="2.886905481203">
        <ele>145.8</ele>
        <time>2014-05-03T12:25:52Z</time>
      </trkpt>
      <trkpt lat="39.49515489287" lon="2.886866924463">
        <ele>145.8</ele>
        <time>2014-05-03T12:25:53Z</time>
      </trkpt>
      <trkpt lat="39.495129998627" lon="2.886824009135">
        <ele>145.8</ele>
        <time>2014-05-03T12:25:54Z</time>
      </trkpt>
      <trkpt lat="39.495095632837" lon="2.886775561753">
        <ele>145.8</ele>
        <time>2014-05-03T12:25:55Z</time>
      </trkpt>
      <trkpt lat="39.495049616206" lon="2.886735077176">
        <ele>145.8</ele>
        <time>2014-05-03T12:25:56Z</time>
      </trkpt>
      <trkpt lat="39.49499563677" lon="2.886694173504">
        <ele>145.8</ele>
        <time>2014-05-03T12:25:57Z</time>
      </trkpt>
      <trkpt lat="39.494936544375" lon="2.886655197669">
        <ele>145.8</ele>
        <time>2014-05-03T12:25:58Z</time>
      </trkpt>
      <trkpt lat="39.494815928834" lon="2.886569199375">
        <ele>145.8</ele>
        <time>2014-05-03T12:26:00Z</time>
      </trkpt>
      <trkpt lat="39.49475675262" lon="2.886528295703">
        <ele>145.8</ele>
        <time>2014-05-03T12:26:01Z</time>
      </trkpt>
      <trkpt lat="39.494547791853" lon="2.886418408994">
        <ele>145.8</ele>
        <time>2014-05-03T12:26:04Z</time>
      </trkpt>
      <trkpt lat="39.494484005594" lon="2.886383121195">
        <ele>145.8</ele>
        <time>2014-05-03T12:26:05Z</time>
      </trkpt>
      <trkpt lat="39.49442147662" lon="2.886344648274">
        <ele>145.4</ele>
        <time>2014-05-03T12:26:06Z</time>
      </trkpt>
      <trkpt lat="39.494361546035" lon="2.886302990231">
        <ele>145</ele>
        <time>2014-05-03T12:26:07Z</time>
      </trkpt>
      <trkpt lat="39.494302705097" lon="2.886262338016">
        <ele>144.6</ele>
        <time>2014-05-03T12:26:08Z</time>
      </trkpt>
      <trkpt lat="39.494244534711" lon="2.886219590326">
        <ele>144.2</ele>
        <time>2014-05-03T12:26:09Z</time>
      </trkpt>
      <trkpt lat="39.494184520307" lon="2.886175920627">
        <ele>143.8</ele>
        <time>2014-05-03T12:26:10Z</time>
      </trkpt>
      <trkpt lat="39.494075723245" lon="2.886089419419">
        <ele>143.8</ele>
        <time>2014-05-03T12:26:12Z</time>
      </trkpt>
      <trkpt lat="39.49402417456" lon="2.886047677557">
        <ele>143.8</ele>
        <time>2014-05-03T12:26:13Z</time>
      </trkpt>
      <trkpt lat="39.493857793845" lon="2.885930498595">
        <ele>143.8</ele>
        <time>2014-05-03T12:26:16Z</time>
      </trkpt>
      <trkpt lat="39.493800629287" lon="2.885890181656">
        <ele>143.8</ele>
        <time>2014-05-03T12:26:17Z</time>
      </trkpt>
      <trkpt lat="39.493537353808" lon="2.885678119586">
        <ele>143.8</ele>
        <time>2014-05-03T12:26:22Z</time>
      </trkpt>
      <trkpt lat="39.493487146227" lon="2.885640820131">
        <ele>143.4</ele>
        <time>2014-05-03T12:26:23Z</time>
      </trkpt>
      <trkpt lat="39.493435932818" lon="2.885606873436">
        <ele>143</ele>
        <time>2014-05-03T12:26:24Z</time>
      </trkpt>
      <trkpt lat="39.493386060513" lon="2.885569825438">
        <ele>142.6</ele>
        <time>2014-05-03T12:26:25Z</time>
      </trkpt>
      <trkpt lat="39.493340462977" lon="2.885531771612">
        <ele>142.2</ele>
        <time>2014-05-03T12:26:26Z</time>
      </trkpt>
      <trkpt lat="39.49329578745" lon="2.885498076374">
        <ele>141.8</ele>
        <time>2014-05-03T12:26:27Z</time>
      </trkpt>
      <trkpt lat="39.493201155799" lon="2.885428171328">
        <ele>141.8</ele>
        <time>2014-05-03T12:26:29Z</time>
      </trkpt>
      <trkpt lat="39.493153043693" lon="2.885394308452">
        <ele>141.8</ele>
        <time>2014-05-03T12:26:30Z</time>
      </trkpt>
      <trkpt lat="39.49307282891" lon="2.885334210229">
        <ele>141.8</ele>
        <time>2014-05-03T12:26:32Z</time>
      </trkpt>
      <trkpt lat="39.492996972715" lon="2.885266316839">
        <ele>141.8</ele>
        <time>2014-05-03T12:26:34Z</time>
      </trkpt>
      <trkpt lat="39.492802261178" lon="2.885087279455">
        <ele>141.8</ele>
        <time>2014-05-03T12:26:38Z</time>
      </trkpt>
      <trkpt lat="39.49274425843" lon="2.885042855385">
        <ele>141.8</ele>
        <time>2014-05-03T12:26:39Z</time>
      </trkpt>
      <trkpt lat="39.492620960681" lon="2.88495191177">
        <ele>141.4</ele>
        <time>2014-05-03T12:26:41Z</time>
      </trkpt>
      <trkpt lat="39.492564299037" lon="2.884909666994">
        <ele>141</ele>
        <time>2014-05-03T12:26:42Z</time>
      </trkpt>
      <trkpt lat="39.492508559402" lon="2.88486474001">
        <ele>140.6</ele>
        <time>2014-05-03T12:26:43Z</time>
      </trkpt>
      <trkpt lat="39.492455418156" lon="2.88481780137">
        <ele>140.2</ele>
        <time>2014-05-03T12:26:44Z</time>
      </trkpt>
      <trkpt lat="39.492398756512" lon="2.884762229373">
        <ele>139.6</ele>
        <time>2014-05-03T12:26:45Z</time>
      </trkpt>
      <trkpt lat="39.492339245022" lon="2.884713362896">
        <ele>139.6</ele>
        <time>2014-05-03T12:26:46Z</time>
      </trkpt>
      <trkpt lat="39.492278895342" lon="2.884670196111">
        <ele>139.6</ele>
        <time>2014-05-03T12:26:47Z</time>
      </trkpt>
      <trkpt lat="39.492219467671" lon="2.884623928023">
        <ele>139.6</ele>
        <time>2014-05-03T12:26:48Z</time>
      </trkpt>
      <trkpt lat="39.491986199394" lon="2.884453440177">
        <ele>139.6</ele>
        <time>2014-05-03T12:26:52Z</time>
      </trkpt>
      <trkpt lat="39.491877318513" lon="2.884367274245">
        <ele>139.6</ele>
        <time>2014-05-03T12:26:54Z</time>
      </trkpt>
      <trkpt lat="39.491821243602" lon="2.884323353089">
        <ele>139.6</ele>
        <time>2014-05-03T12:26:55Z</time>
      </trkpt>
      <trkpt lat="39.491767850899" lon="2.884282114141">
        <ele>139.6</ele>
        <time>2014-05-03T12:26:56Z</time>
      </trkpt>
      <trkpt lat="39.491611612283" lon="2.884175328735">
        <ele>139.6</ele>
        <time>2014-05-03T12:26:59Z</time>
      </trkpt>
      <trkpt lat="39.491462917377" lon="2.884055635203">
        <ele>139.6</ele>
        <time>2014-05-03T12:27:02Z</time>
      </trkpt>
      <trkpt lat="39.491285388735" lon="2.883902916985">
        <ele>139.6</ele>
        <time>2014-05-03T12:27:05Z</time>
      </trkpt>
      <trkpt lat="39.491222189209" lon="2.88385304468">
        <ele>139.6</ele>
        <time>2014-05-03T12:27:06Z</time>
      </trkpt>
      <trkpt lat="39.491162426262" lon="2.883804094384">
        <ele>139.6</ele>
        <time>2014-05-03T12:27:07Z</time>
      </trkpt>
      <trkpt lat="39.491105345523" lon="2.883756066097">
        <ele>139.2</ele>
        <time>2014-05-03T12:27:08Z</time>
      </trkpt>
      <trkpt lat="39.49104860006" lon="2.883708792181">
        <ele>138.8</ele>
        <time>2014-05-03T12:27:09Z</time>
      </trkpt>
      <trkpt lat="39.490993028063" lon="2.883663110826">
        <ele>138.4</ele>
        <time>2014-05-03T12:27:10Z</time>
      </trkpt>
      <trkpt lat="39.490937372247" lon="2.883617178014">
        <ele>138</ele>
        <time>2014-05-03T12:27:11Z</time>
      </trkpt>
      <trkpt lat="39.490881297336" lon="2.88356973646">
        <ele>137.4</ele>
        <time>2014-05-03T12:27:12Z</time>
      </trkpt>
      <trkpt lat="39.490631851992" lon="2.88334174878">
        <ele>137.4</ele>
        <time>2014-05-03T12:27:16Z</time>
      </trkpt>
      <trkpt lat="39.490376036404" lon="2.883124573751">
        <ele>137.4</ele>
        <time>2014-05-03T12:27:20Z</time>
      </trkpt>
      <trkpt lat="39.490193981536" lon="2.882973951008">
        <ele>137.4</ele>
        <time>2014-05-03T12:27:23Z</time>
      </trkpt>
      <trkpt lat="39.490130614372" lon="2.882921647952">
        <ele>137.4</ele>
        <time>2014-05-03T12:27:24Z</time>
      </trkpt>
      <trkpt lat="39.489837918424" lon="2.88267874049">
        <ele>137</ele>
        <time>2014-05-03T12:27:28Z</time>
      </trkpt>
      <trkpt lat="39.489761391677" lon="2.882624677235">
        <ele>136.6</ele>
        <time>2014-05-03T12:27:29Z</time>
      </trkpt>
      <trkpt lat="39.489689139699" lon="2.882571368351">
        <ele>136.2</ele>
        <time>2014-05-03T12:27:30Z</time>
      </trkpt>
      <trkpt lat="39.489619989024" lon="2.882511605404">
        <ele>135.6</ele>
        <time>2014-05-03T12:27:31Z</time>
      </trkpt>
      <trkpt lat="39.489550419254" lon="2.882450249896">
        <ele>135.2</ele>
        <time>2014-05-03T12:27:32Z</time>
      </trkpt>
      <trkpt lat="39.489478921647" lon="2.88238956494">
        <ele>135.2</ele>
        <time>2014-05-03T12:27:33Z</time>
      </trkpt>
      <trkpt lat="39.489402646357" lon="2.882326030138">
        <ele>135.2</ele>
        <time>2014-05-03T12:27:34Z</time>
      </trkpt>
      <trkpt lat="39.489327879809" lon="2.882265931915">
        <ele>134.8</ele>
        <time>2014-05-03T12:27:35Z</time>
      </trkpt>
      <trkpt lat="39.489253280899" lon="2.882206671882">
        <ele>134.2</ele>
        <time>2014-05-03T12:27:36Z</time>
      </trkpt>
      <trkpt lat="39.489178430532" lon="2.882150261695">
        <ele>133.8</ele>
        <time>2014-05-03T12:27:37Z</time>
      </trkpt>
      <trkpt lat="39.489103915441" lon="2.882093516232">
        <ele>133.4</ele>
        <time>2014-05-03T12:27:38Z</time>
      </trkpt>
      <trkpt lat="39.489031244368" lon="2.882036854588">
        <ele>132.8</ele>
        <time>2014-05-03T12:27:39Z</time>
      </trkpt>
      <trkpt lat="39.488892104828" lon="2.881925962051">
        <ele>132.8</ele>
        <time>2014-05-03T12:27:41Z</time>
      </trkpt>
      <trkpt lat="39.488608964246" lon="2.881688251367">
        <ele>132.8</ele>
        <time>2014-05-03T12:27:45Z</time>
      </trkpt>
      <trkpt lat="39.48853738282" lon="2.881634104293">
        <ele>132.8</ele>
        <time>2014-05-03T12:27:46Z</time>
      </trkpt>
      <trkpt lat="39.488396818357" lon="2.881521619195">
        <ele>132.8</ele>
        <time>2014-05-03T12:27:48Z</time>
      </trkpt>
      <trkpt lat="39.488327583863" lon="2.881465628103">
        <ele>132.8</ele>
        <time>2014-05-03T12:27:49Z</time>
      </trkpt>
      <trkpt lat="39.488051316439" lon="2.881251722015">
        <ele>132.8</ele>
        <time>2014-05-03T12:27:53Z</time>
      </trkpt>
      <trkpt lat="39.487855347617" lon="2.881085173662">
        <ele>132.8</ele>
        <time>2014-05-03T12:27:56Z</time>
      </trkpt>
      <trkpt lat="39.487720399027" lon="2.880979813179">
        <ele>132.8</ele>
        <time>2014-05-03T12:27:58Z</time>
      </trkpt>
      <trkpt lat="39.487587797369" lon="2.880876045257">
        <ele>132.8</ele>
        <time>2014-05-03T12:28:00Z</time>
      </trkpt>
      <trkpt lat="39.487452932598" lon="2.880781832701">
        <ele>132.8</ele>
        <time>2014-05-03T12:28:02Z</time>
      </trkpt>
      <trkpt lat="39.487386045036" lon="2.880739923201">
        <ele>132.8</ele>
        <time>2014-05-03T12:28:03Z</time>
      </trkpt>
      <trkpt lat="39.487318906017" lon="2.880704635402">
        <ele>132.8</ele>
        <time>2014-05-03T12:28:04Z</time>
      </trkpt>
      <trkpt lat="39.48725159936" lon="2.880671610716">
        <ele>132.8</ele>
        <time>2014-05-03T12:28:05Z</time>
      </trkpt>
      <trkpt lat="39.487183203056" lon="2.880642190247">
        <ele>132.8</ele>
        <time>2014-05-03T12:28:06Z</time>
      </trkpt>
      <trkpt lat="39.487124445937" lon="2.880620816402">
        <ele>132.8</ele>
        <time>2014-05-03T12:28:07Z</time>
      </trkpt>
      <trkpt lat="39.487074238356" lon="2.88060589662">
        <ele>132.8</ele>
        <time>2014-05-03T12:28:08Z</time>
      </trkpt>
      <trkpt lat="39.486981115447" lon="2.88054135599">
        <ele>132.8</ele>
        <time>2014-05-03T12:28:11Z</time>
      </trkpt>
      <trkpt lat="39.48688363395" lon="2.880422752105">
        <ele>132.8</ele>
        <time>2014-05-03T12:28:14Z</time>
      </trkpt>
      <trkpt lat="39.486841808269" lon="2.880396684396">
        <ele>132.8</ele>
        <time>2014-05-03T12:28:15Z</time>
      </trkpt>
      <trkpt lat="39.486709458068" lon="2.880412190911">
        <ele>132.8</ele>
        <time>2014-05-03T12:28:18Z</time>
      </trkpt>
      <trkpt lat="39.486620609928" lon="2.880539511972">
        <ele>132.8</ele>
        <time>2014-05-03T12:28:21Z</time>
      </trkpt>
      <trkpt lat="39.486609042906" lon="2.880598688186">
        <ele>132.8</ele>
        <time>2014-05-03T12:28:22Z</time>
      </trkpt>
      <trkpt lat="39.486641313221" lon="2.880779988683">
        <ele>132.8</ele>
        <time>2014-05-03T12:28:25Z</time>
      </trkpt>
      <trkpt lat="39.486670566052" lon="2.880830112445">
        <ele>132.8</ele>
        <time>2014-05-03T12:28:26Z</time>
      </trkpt>
      <trkpt lat="39.486749272093" lon="2.880975454591">
        <ele>132.8</ele>
        <time>2014-05-03T12:28:29Z</time>
      </trkpt>
      <trkpt lat="39.486762683133" lon="2.881031780959">
        <ele>132.8</ele>
        <time>2014-05-03T12:28:30Z</time>
      </trkpt>
      <trkpt lat="39.486797468018" lon="2.881238143337">
        <ele>132.8</ele>
        <time>2014-05-03T12:28:33Z</time>
      </trkpt>
      <trkpt lat="39.486819680053" lon="2.881383317845">
        <ele>132.8</ele>
        <time>2014-05-03T12:28:35Z</time>
      </trkpt>
      <trkpt lat="39.486844155201" lon="2.881531677475">
        <ele>132.8</ele>
        <time>2014-05-03T12:28:37Z</time>
      </trkpt>
      <trkpt lat="39.48687022291" lon="2.881674756508">
        <ele>132.8</ele>
        <time>2014-05-03T12:28:39Z</time>
      </trkpt>
      <trkpt lat="39.486894278963" lon="2.881817164989">
        <ele>132.8</ele>
        <time>2014-05-03T12:28:41Z</time>
      </trkpt>
      <trkpt lat="39.48694482182" lon="2.882120254493">
        <ele>132.8</ele>
        <time>2014-05-03T12:28:45Z</time>
      </trkpt>
      <trkpt lat="39.486957478489" lon="2.882198960534">
        <ele>132.8</ele>
        <time>2014-05-03T12:28:46Z</time>
      </trkpt>
      <trkpt lat="39.48699595141" lon="2.882519232933">
        <ele>132.8</ele>
        <time>2014-05-03T12:28:50Z</time>
      </trkpt>
      <trkpt lat="39.486992431012" lon="2.882690056055">
        <ele>132.8</ele>
        <time>2014-05-03T12:28:52Z</time>
      </trkpt>
      <trkpt lat="39.486963010543" lon="2.883024577684">
        <ele>132.8</ele>
        <time>2014-05-03T12:28:56Z</time>
      </trkpt>
      <trkpt lat="39.486952616987" lon="2.883104121915">
        <ele>132.8</ele>
        <time>2014-05-03T12:28:57Z</time>
      </trkpt>
      <trkpt lat="39.486902409406" lon="2.883489102582">
        <ele>132.8</ele>
        <time>2014-05-03T12:29:02Z</time>
      </trkpt>
      <trkpt lat="39.486815824379" lon="2.884110704286">
        <ele>132.8</ele>
        <time>2014-05-03T12:29:10Z</time>
      </trkpt>
      <trkpt lat="39.486781793865" lon="2.88436014963">
        <ele>132.8</ele>
        <time>2014-05-03T12:29:14Z</time>
      </trkpt>
      <trkpt lat="39.486760755296" lon="2.884474814022">
        <ele>132.8</ele>
        <time>2014-05-03T12:29:16Z</time>
      </trkpt>
      <trkpt lat="39.486741560745" lon="2.884604146739">
        <ele>132.8</ele>
        <time>2014-05-03T12:29:18Z</time>
      </trkpt>
      <trkpt lat="39.486723455841" lon="2.884814029515">
        <ele>132.8</ele>
        <time>2014-05-03T12:29:21Z</time>
      </trkpt>
      <trkpt lat="39.486678696495" lon="2.885201608571">
        <ele>132.8</ele>
        <time>2014-05-03T12:29:26Z</time>
      </trkpt>
      <trkpt lat="39.486645839447" lon="2.885477540719">
        <ele>132.8</ele>
        <time>2014-05-03T12:29:29Z</time>
      </trkpt>
      <trkpt lat="39.486630416751" lon="2.885586673057">
        <ele>132.8</ele>
        <time>2014-05-03T12:29:30Z</time>
      </trkpt>
      <trkpt lat="39.486601918291" lon="2.885780462585">
        <ele>132.8</ele>
        <time>2014-05-03T12:29:32Z</time>
      </trkpt>
      <trkpt lat="39.486564451198" lon="2.886036445811">
        <ele>132.8</ele>
        <time>2014-05-03T12:29:35Z</time>
      </trkpt>
      <trkpt lat="39.486557075126" lon="2.886116409137">
        <ele>132.8</ele>
        <time>2014-05-03T12:29:36Z</time>
      </trkpt>
      <trkpt lat="39.486537712937" lon="2.886288992458">
        <ele>132.8</ele>
        <time>2014-05-03T12:29:38Z</time>
      </trkpt>
      <trkpt lat="39.486498150369" lon="2.88655956019">
        <ele>132.8</ele>
        <time>2014-05-03T12:29:41Z</time>
      </trkpt>
      <trkpt lat="39.486400752691" lon="2.887284091626">
        <ele>132.8</ele>
        <time>2014-05-03T12:29:49Z</time>
      </trkpt>
      <trkpt lat="39.486387593108" lon="2.887379645286">
        <ele>132.8</ele>
        <time>2014-05-03T12:29:50Z</time>
      </trkpt>
      <trkpt lat="39.486311820732" lon="2.887851965351">
        <ele>132.8</ele>
        <time>2014-05-03T12:29:55Z</time>
      </trkpt>
      <trkpt lat="39.486207130801" lon="2.888611197853">
        <ele>132.8</ele>
        <time>2014-05-03T12:30:03Z</time>
      </trkpt>
      <trkpt lat="39.48619464177" lon="2.888703734029">
        <ele>132.8</ele>
        <time>2014-05-03T12:30:04Z</time>
      </trkpt>
      <trkpt lat="39.486172597373" lon="2.888885872716">
        <ele>132.8</ele>
        <time>2014-05-03T12:30:06Z</time>
      </trkpt>
      <trkpt lat="39.486163796378" lon="2.88897773834">
        <ele>132.8</ele>
        <time>2014-05-03T12:30:07Z</time>
      </trkpt>
      <trkpt lat="39.486121635421" lon="2.889261214198">
        <ele>132.8</ele>
        <time>2014-05-03T12:30:10Z</time>
      </trkpt>
      <trkpt lat="39.486108559657" lon="2.88935660022">
        <ele>132.8</ele>
        <time>2014-05-03T12:30:11Z</time>
      </trkpt>
      <trkpt lat="39.486066147243" lon="2.889649379987">
        <ele>132.8</ele>
        <time>2014-05-03T12:30:14Z</time>
      </trkpt>
      <trkpt lat="39.486051562737" lon="2.88974719676">
        <ele>132.8</ele>
        <time>2014-05-03T12:30:15Z</time>
      </trkpt>
      <trkpt lat="39.486020130612" lon="2.889947105075">
        <ele>132.8</ele>
        <time>2014-05-03T12:30:17Z</time>
      </trkpt>
      <trkpt lat="39.486006384296" lon="2.890044335115">
        <ele>132.8</ele>
        <time>2014-05-03T12:30:18Z</time>
      </trkpt>
      <trkpt lat="39.485977969655" lon="2.890239633385">
        <ele>132.8</ele>
        <time>2014-05-03T12:30:20Z</time>
      </trkpt>
      <trkpt lat="39.485936227793" lon="2.890534508627">
        <ele>132.8</ele>
        <time>2014-05-03T12:30:23Z</time>
      </trkpt>
      <trkpt lat="39.485920469821" lon="2.89063483997">
        <ele>132.8</ele>
        <time>2014-05-03T12:30:24Z</time>
      </trkpt>
      <trkpt lat="39.485908902799" lon="2.890731567096">
        <ele>132.8</ele>
        <time>2014-05-03T12:30:25Z</time>
      </trkpt>
      <trkpt lat="39.485880152882" lon="2.890924602253">
        <ele>132.8</ele>
        <time>2014-05-03T12:30:27Z</time>
      </trkpt>
      <trkpt lat="39.485864311091" lon="2.891021413198">
        <ele>132.8</ele>
        <time>2014-05-03T12:30:28Z</time>
      </trkpt>
      <trkpt lat="39.485821060487" lon="2.891319976476">
        <ele>132.8</ele>
        <time>2014-05-03T12:30:31Z</time>
      </trkpt>
      <trkpt lat="39.485806811257" lon="2.891420643095">
        <ele>132.8</ele>
        <time>2014-05-03T12:30:32Z</time>
      </trkpt>
      <trkpt lat="39.485773116019" lon="2.891615857546">
        <ele>132.8</ele>
        <time>2014-05-03T12:30:34Z</time>
      </trkpt>
      <trkpt lat="39.485716789651" lon="2.891967981165">
        <ele>132.8</ele>
        <time>2014-05-03T12:30:38Z</time>
      </trkpt>
      <trkpt lat="39.485682088585" lon="2.892237040155">
        <ele>132.8</ele>
        <time>2014-05-03T12:30:41Z</time>
      </trkpt>
      <trkpt lat="39.485672533219" lon="2.892325385381">
        <ele>132.8</ele>
        <time>2014-05-03T12:30:42Z</time>
      </trkpt>
      <trkpt lat="39.485612686453" lon="2.892780103456">
        <ele>132.8</ele>
        <time>2014-05-03T12:30:47Z</time>
      </trkpt>
      <trkpt lat="39.485544290149" lon="2.893336745435">
        <ele>132.8</ele>
        <time>2014-05-03T12:30:53Z</time>
      </trkpt>
      <trkpt lat="39.485519395906" lon="2.893513100611">
        <ele>132.8</ele>
        <time>2014-05-03T12:30:55Z</time>
      </trkpt>
      <trkpt lat="39.485463907728" lon="2.893872181207">
        <ele>132.8</ele>
        <time>2014-05-03T12:30:59Z</time>
      </trkpt>
      <trkpt lat="39.485449993774" lon="2.893959269148">
        <ele>132.8</ele>
        <time>2014-05-03T12:31:00Z</time>
      </trkpt>
      <trkpt lat="39.485435660725" lon="2.894046189451">
        <ele>132.8</ele>
        <time>2014-05-03T12:31:01Z</time>
      </trkpt>
      <trkpt lat="39.485421243857" lon="2.894131852469">
        <ele>132.8</ele>
        <time>2014-05-03T12:31:02Z</time>
      </trkpt>
      <trkpt lat="39.485406910808" lon="2.894223466636">
        <ele>133.4</ele>
        <time>2014-05-03T12:31:03Z</time>
      </trkpt>
      <trkpt lat="39.485397858356" lon="2.894316086631">
        <ele>133.8</ele>
        <time>2014-05-03T12:31:04Z</time>
      </trkpt>
      <trkpt lat="39.485400540564" lon="2.894408455169">
        <ele>134.2</ele>
        <time>2014-05-03T12:31:05Z</time>
      </trkpt>
      <trkpt lat="39.485420070391" lon="2.894496884214">
        <ele>134.6</ele>
        <time>2014-05-03T12:31:06Z</time>
      </trkpt>
      <trkpt lat="39.485452927439" lon="2.89457852392">
        <ele>135</ele>
        <time>2014-05-03T12:31:07Z</time>
      </trkpt>
      <trkpt lat="39.485542027036" lon="2.89472101622">
        <ele>135</ele>
        <time>2014-05-03T12:31:09Z</time>
      </trkpt>
      <trkpt lat="39.485588378943" lon="2.894787484687">
        <ele>135</ele>
        <time>2014-05-03T12:31:10Z</time>
      </trkpt>
      <trkpt lat="39.485833298061" lon="2.895107337991">
        <ele>135</ele>
        <time>2014-05-03T12:31:15Z</time>
      </trkpt>
      <trkpt lat="39.485880404339" lon="2.895165759834">
        <ele>135</ele>
        <time>2014-05-03T12:31:16Z</time>
      </trkpt>
      <trkpt lat="39.485923990219" lon="2.895221583288">
        <ele>135</ele>
        <time>2014-05-03T12:31:17Z</time>
      </trkpt>
      <trkpt lat="39.485968414289" lon="2.895275981819">
        <ele>135</ele>
        <time>2014-05-03T12:31:18Z</time>
      </trkpt>
      <trkpt lat="39.486134543547" lon="2.895491648106">
        <ele>135</ele>
        <time>2014-05-03T12:31:22Z</time>
      </trkpt>
      <trkpt lat="39.486173603201" lon="2.895549818492">
        <ele>135</ele>
        <time>2014-05-03T12:31:23Z</time>
      </trkpt>
      <trkpt lat="39.486200341462" lon="2.895608743249">
        <ele>135</ele>
        <time>2014-05-03T12:31:24Z</time>
      </trkpt>
      <trkpt lat="39.486209142457" lon="2.895745619676">
        <ele>135</ele>
        <time>2014-05-03T12:31:26Z</time>
      </trkpt>
      <trkpt lat="39.486176536866" lon="2.895800102026">
        <ele>135</ele>
        <time>2014-05-03T12:31:27Z</time>
      </trkpt>
      <trkpt lat="39.486127335113" lon="2.895831031237">
        <ele>135</ele>
        <time>2014-05-03T12:31:28Z</time>
      </trkpt>
      <trkpt lat="39.486072349849" lon="2.895834383997">
        <ele>135</ele>
        <time>2014-05-03T12:31:29Z</time>
      </trkpt>
      <trkpt lat="39.486020968802" lon="2.895812591057">
        <ele>135</ele>
        <time>2014-05-03T12:31:30Z</time>
      </trkpt>
      <trkpt lat="39.485971431773" lon="2.89578048838">
        <ele>135</ele>
        <time>2014-05-03T12:31:31Z</time>
      </trkpt>
      <trkpt lat="39.485921559468" lon="2.895749307712">
        <ele>135</ele>
        <time>2014-05-03T12:31:32Z</time>
      </trkpt>
      <trkpt lat="39.48581410351" lon="2.895687197833">
        <ele>135</ele>
        <time>2014-05-03T12:31:34Z</time>
      </trkpt>
      <trkpt lat="39.485708240113" lon="2.895629278904">
        <ele>135</ele>
        <time>2014-05-03T12:31:36Z</time>
      </trkpt>
      <trkpt lat="39.485613273186" lon="2.895559792953">
        <ele>135</ele>
        <time>2014-05-03T12:31:38Z</time>
      </trkpt>
      <trkpt lat="39.485461979891" lon="2.895452923728">
        <ele>135</ele>
        <time>2014-05-03T12:31:41Z</time>
      </trkpt>
      <trkpt lat="39.485405150609" lon="2.895416294825">
        <ele>135</ele>
        <time>2014-05-03T12:31:42Z</time>
      </trkpt>
      <trkpt lat="39.485348656603" lon="2.895381426121">
        <ele>135</ele>
        <time>2014-05-03T12:31:43Z</time>
      </trkpt>
      <trkpt lat="39.485244553405" lon="2.895311688713">
        <ele>135</ele>
        <time>2014-05-03T12:31:45Z</time>
      </trkpt>
      <trkpt lat="39.485190909245" lon="2.895277825837">
        <ele>135</ele>
        <time>2014-05-03T12:31:46Z</time>
      </trkpt>
      <trkpt lat="39.485037185199" lon="2.895172046259">
        <ele>135</ele>
        <time>2014-05-03T12:31:49Z</time>
      </trkpt>
      <trkpt lat="39.484935009838" lon="2.895101722118">
        <ele>135</ele>
        <time>2014-05-03T12:31:51Z</time>
      </trkpt>
      <trkpt lat="39.48488035985" lon="2.895069870898">
        <ele>135</ele>
        <time>2014-05-03T12:31:52Z</time>
      </trkpt>
      <trkpt lat="39.484830571364" lon="2.89504371937">
        <ele>135</ele>
        <time>2014-05-03T12:31:53Z</time>
      </trkpt>
      <trkpt lat="39.484779357955" lon="2.895009856494">
        <ele>135</ele>
        <time>2014-05-03T12:31:54Z</time>
      </trkpt>
      <trkpt lat="39.484576432156" lon="2.894882451614">
        <ele>135</ele>
        <time>2014-05-03T12:31:58Z</time>
      </trkpt>
      <trkpt lat="39.484529577335" lon="2.894847079996">
        <ele>135</ele>
        <time>2014-05-03T12:31:59Z</time>
      </trkpt>
      <trkpt lat="39.48448138141" lon="2.894812295111">
        <ele>135</ele>
        <time>2014-05-03T12:32:00Z</time>
      </trkpt>
      <trkpt lat="39.484167479255" lon="2.894618337945">
        <ele>135</ele>
        <time>2014-05-03T12:32:06Z</time>
      </trkpt>
      <trkpt lat="39.484114002733" lon="2.894589168933">
        <ele>135</ele>
        <time>2014-05-03T12:32:07Z</time>
      </trkpt>
      <trkpt lat="39.483809488306" lon="2.894405437685">
        <ele>135</ele>
        <time>2014-05-03T12:32:13Z</time>
      </trkpt>
      <trkpt lat="39.483756179422" lon="2.894384734392">
        <ele>135</ele>
        <time>2014-05-03T12:32:14Z</time>
      </trkpt>
      <trkpt lat="39.483642856134" lon="2.894340058865">
        <ele>135</ele>
        <time>2014-05-03T12:32:16Z</time>
      </trkpt>
      <trkpt lat="39.48344956952" lon="2.894264621765">
        <ele>135</ele>
        <time>2014-05-03T12:32:19Z</time>
      </trkpt>
      <trkpt lat="39.483380083569" lon="2.894242828825">
        <ele>135</ele>
        <time>2014-05-03T12:32:20Z</time>
      </trkpt>
      <trkpt lat="39.483309340333" lon="2.89422480774">
        <ele>134.6</ele>
        <time>2014-05-03T12:32:21Z</time>
      </trkpt>
      <trkpt lat="39.483237004536" lon="2.894205780827">
        <ele>134.2</ele>
        <time>2014-05-03T12:32:22Z</time>
      </trkpt>
      <trkpt lat="39.483157963219" lon="2.894186586276">
        <ele>133.8</ele>
        <time>2014-05-03T12:32:23Z</time>
      </trkpt>
      <trkpt lat="39.483083448128" lon="2.894169654838">
        <ele>133.4</ele>
        <time>2014-05-03T12:32:24Z</time>
      </trkpt>
      <trkpt lat="39.483003903897" lon="2.894157501083">
        <ele>133</ele>
        <time>2014-05-03T12:32:25Z</time>
      </trkpt>
      <trkpt lat="39.482921845096" lon="2.894153142495">
        <ele>133</ele>
        <time>2014-05-03T12:32:26Z</time>
      </trkpt>
      <trkpt lat="39.482836349716" lon="2.89415439978">
        <ele>133</ele>
        <time>2014-05-03T12:32:27Z</time>
      </trkpt>
      <trkpt lat="39.482753201268" lon="2.894166050621">
        <ele>133</ele>
        <time>2014-05-03T12:32:28Z</time>
      </trkpt>
      <trkpt lat="39.482515909679" lon="2.894219862419">
        <ele>132.4</ele>
        <time>2014-05-03T12:32:31Z</time>
      </trkpt>
      <trkpt lat="39.482431420127" lon="2.894244421386">
        <ele>132</ele>
        <time>2014-05-03T12:32:32Z</time>
      </trkpt>
      <trkpt lat="39.482345505652" lon="2.894274009493">
        <ele>131.6</ele>
        <time>2014-05-03T12:32:33Z</time>
      </trkpt>
      <trkpt lat="39.482259591177" lon="2.894302843229">
        <ele>131.2</ele>
        <time>2014-05-03T12:32:34Z</time>
      </trkpt>
      <trkpt lat="39.482170072485" lon="2.894330838775">
        <ele>130.6</ele>
        <time>2014-05-03T12:32:35Z</time>
      </trkpt>
      <trkpt lat="39.482084744743" lon="2.89435891814">
        <ele>130.6</ele>
        <time>2014-05-03T12:32:36Z</time>
      </trkpt>
      <trkpt lat="39.481999836096" lon="2.894389176799">
        <ele>130.6</ele>
        <time>2014-05-03T12:32:37Z</time>
      </trkpt>
      <trkpt lat="39.481670678883" lon="2.894497890042">
        <ele>130.6</ele>
        <time>2014-05-03T12:32:41Z</time>
      </trkpt>
      <trkpt lat="39.481584680589" lon="2.894524460665">
        <ele>130.6</ele>
        <time>2014-05-03T12:32:42Z</time>
      </trkpt>
      <trkpt lat="39.481492312051" lon="2.894550696012">
        <ele>130.6</ele>
        <time>2014-05-03T12:32:43Z</time>
      </trkpt>
      <trkpt lat="39.481409247422" lon="2.894572321314">
        <ele>130.6</ele>
        <time>2014-05-03T12:32:44Z</time>
      </trkpt>
      <trkpt lat="39.481233059884" lon="2.89461791885">
        <ele>130.6</ele>
        <time>2014-05-03T12:32:46Z</time>
      </trkpt>
      <trkpt lat="39.481049412455" lon="2.894658571065">
        <ele>130.6</ele>
        <time>2014-05-03T12:32:48Z</time>
      </trkpt>
      <trkpt lat="39.480956289546" lon="2.894678100892">
        <ele>130.6</ele>
        <time>2014-05-03T12:32:49Z</time>
      </trkpt>
      <trkpt lat="39.480860568248" lon="2.894692433941">
        <ele>130.6</ele>
        <time>2014-05-03T12:32:50Z</time>
      </trkpt>
      <trkpt lat="39.480768032072" lon="2.894702659859">
        <ele>130.6</ele>
        <time>2014-05-03T12:32:51Z</time>
      </trkpt>
      <trkpt lat="39.480672729869" lon="2.894710706483">
        <ele>130.6</ele>
        <time>2014-05-03T12:32:52Z</time>
      </trkpt>
      <trkpt lat="39.480483298929" lon="2.894731325957">
        <ele>130.6</ele>
        <time>2014-05-03T12:32:54Z</time>
      </trkpt>
      <trkpt lat="39.480392606771" lon="2.894743563531">
        <ele>130.6</ele>
        <time>2014-05-03T12:32:55Z</time>
      </trkpt>
      <trkpt lat="39.479834707507" lon="2.894807601247">
        <ele>130.6</ele>
        <time>2014-05-03T12:33:01Z</time>
      </trkpt>
      <trkpt lat="39.479745272634" lon="2.894818162441">
        <ele>130.6</ele>
        <time>2014-05-03T12:33:02Z</time>
      </trkpt>
      <trkpt lat="39.479656843589" lon="2.894826795798">
        <ele>130.6</ele>
        <time>2014-05-03T12:33:03Z</time>
      </trkpt>
      <trkpt lat="39.479561289929" lon="2.894837273173">
        <ele>130.2</ele>
        <time>2014-05-03T12:33:04Z</time>
      </trkpt>
      <trkpt lat="39.479468753753" lon="2.894847918186">
        <ele>129.8</ele>
        <time>2014-05-03T12:33:05Z</time>
      </trkpt>
      <trkpt lat="39.479377391043" lon="2.894859736665">
        <ele>129.2</ele>
        <time>2014-05-03T12:33:06Z</time>
      </trkpt>
      <trkpt lat="39.479286866523" lon="2.894873231524">
        <ele>128.8</ele>
        <time>2014-05-03T12:33:07Z</time>
      </trkpt>
      <trkpt lat="39.479196761098" lon="2.894882870709">
        <ele>128.4</ele>
        <time>2014-05-03T12:33:08Z</time>
      </trkpt>
      <trkpt lat="39.478840530348" lon="2.894927546236">
        <ele>128.4</ele>
        <time>2014-05-03T12:33:12Z</time>
      </trkpt>
      <trkpt lat="39.478753442407" lon="2.894939867629">
        <ele>128.4</ele>
        <time>2014-05-03T12:33:13Z</time>
      </trkpt>
      <trkpt lat="39.478416490027" lon="2.89499342797">
        <ele>128.4</ele>
        <time>2014-05-03T12:33:17Z</time>
      </trkpt>
      <trkpt lat="39.478338370719" lon="2.895009688856">
        <ele>128.4</ele>
        <time>2014-05-03T12:33:18Z</time>
      </trkpt>
      <trkpt lat="39.478264945275" lon="2.895024273362">
        <ele>128.4</ele>
        <time>2014-05-03T12:33:19Z</time>
      </trkpt>
      <trkpt lat="39.478191016917" lon="2.895036091841">
        <ele>128.4</ele>
        <time>2014-05-03T12:33:20Z</time>
      </trkpt>
      <trkpt lat="39.47812203388" lon="2.895024524819">
        <ele>128.4</ele>
        <time>2014-05-03T12:33:21Z</time>
      </trkpt>
      <trkpt lat="39.478059672544" lon="2.894980436025">
        <ele>128.4</ele>
        <time>2014-05-03T12:33:22Z</time>
      </trkpt>
      <trkpt lat="39.47800049633" lon="2.894924780209">
        <ele>128.4</ele>
        <time>2014-05-03T12:33:23Z</time>
      </trkpt>
      <trkpt lat="39.477864793369" lon="2.894866274547">
        <ele>128.8</ele>
        <time>2014-05-03T12:33:25Z</time>
      </trkpt>
      <trkpt lat="39.477796061789" lon="2.894882116338">
        <ele>129.2</ele>
        <time>2014-05-03T12:33:26Z</time>
      </trkpt>
      <trkpt lat="39.477733700453" lon="2.894932826833">
        <ele>129.6</ele>
        <time>2014-05-03T12:33:27Z</time>
      </trkpt>
      <trkpt lat="39.477685755985" lon="2.894998373291">
        <ele>130</ele>
        <time>2014-05-03T12:33:28Z</time>
      </trkpt>
      <trkpt lat="39.477637811517" lon="2.895066266681">
        <ele>130.4</ele>
        <time>2014-05-03T12:33:29Z</time>
      </trkpt>
      <trkpt lat="39.477583161529" lon="2.895118737375">
        <ele>130.4</ele>
        <time>2014-05-03T12:33:30Z</time>
      </trkpt>
      <trkpt lat="39.477515435777" lon="2.895144805084">
        <ele>130.4</ele>
        <time>2014-05-03T12:33:31Z</time>
      </trkpt>
      <trkpt lat="39.477443519075" lon="2.89515352226">
        <ele>130.4</ele>
        <time>2014-05-03T12:33:32Z</time>
      </trkpt>
      <trkpt lat="39.477299685671" lon="2.895167268576">
        <ele>130.4</ele>
        <time>2014-05-03T12:33:34Z</time>
      </trkpt>
      <trkpt lat="39.477150990765" lon="2.895184451471">
        <ele>130.8</ele>
        <time>2014-05-03T12:33:36Z</time>
      </trkpt>
      <trkpt lat="39.477076727131" lon="2.895192833371">
        <ele>131.2</ele>
        <time>2014-05-03T12:33:37Z</time>
      </trkpt>
      <trkpt lat="39.477000451841" lon="2.895201466728">
        <ele>131.6</ele>
        <time>2014-05-03T12:33:38Z</time>
      </trkpt>
      <trkpt lat="39.47692258399" lon="2.895207250239">
        <ele>132.2</ele>
        <time>2014-05-03T12:33:39Z</time>
      </trkpt>
      <trkpt lat="39.476848655632" lon="2.895211105913">
        <ele>132.6</ele>
        <time>2014-05-03T12:33:40Z</time>
      </trkpt>
      <trkpt lat="39.476333420239" lon="2.895274473077">
        <ele>132.6</ele>
        <time>2014-05-03T12:33:47Z</time>
      </trkpt>
      <trkpt lat="39.476110126423" lon="2.895285034271">
        <ele>132.6</ele>
        <time>2014-05-03T12:33:50Z</time>
      </trkpt>
      <trkpt lat="39.475972411806" lon="2.895195683217">
        <ele>132.6</ele>
        <time>2014-05-03T12:33:52Z</time>
      </trkpt>
      <trkpt lat="39.475841235071" lon="2.895101303023">
        <ele>132.2</ele>
        <time>2014-05-03T12:33:54Z</time>
      </trkpt>
      <trkpt lat="39.475764289229" lon="2.895111696579">
        <ele>131.6</ele>
        <time>2014-05-03T12:33:55Z</time>
      </trkpt>
      <trkpt lat="39.47569212107" lon="2.895152935527">
        <ele>131.2</ele>
        <time>2014-05-03T12:33:56Z</time>
      </trkpt>
      <trkpt lat="39.475628921544" lon="2.895214123397">
        <ele>130.8</ele>
        <time>2014-05-03T12:33:57Z</time>
      </trkpt>
      <trkpt lat="39.475557423937" lon="2.895277239104">
        <ele>130.2</ele>
        <time>2014-05-03T12:33:58Z</time>
      </trkpt>
      <trkpt lat="39.475478466439" lon="2.895326357038">
        <ele>129.6</ele>
        <time>2014-05-03T12:33:59Z</time>
      </trkpt>
      <trkpt lat="39.475391294679" lon="2.895357453887">
        <ele>129</ele>
        <time>2014-05-03T12:34:00Z</time>
      </trkpt>
      <trkpt lat="39.475299177598" lon="2.895376564619">
        <ele>128.4</ele>
        <time>2014-05-03T12:34:01Z</time>
      </trkpt>
      <trkpt lat="39.475206641422" lon="2.895391484401">
        <ele>127.6</ele>
        <time>2014-05-03T12:34:02Z</time>
      </trkpt>
      <trkpt lat="39.475117290368" lon="2.895409086391">
        <ele>127.6</ele>
        <time>2014-05-03T12:34:03Z</time>
      </trkpt>
      <trkpt lat="39.475026765848" lon="2.895432555711">
        <ele>127.6</ele>
        <time>2014-05-03T12:34:04Z</time>
      </trkpt>
      <trkpt lat="39.474928278523" lon="2.895456611764">
        <ele>127.6</ele>
        <time>2014-05-03T12:34:05Z</time>
      </trkpt>
      <trkpt lat="39.474832473406" lon="2.895477985609">
        <ele>127.6</ele>
        <time>2014-05-03T12:34:06Z</time>
      </trkpt>
      <trkpt lat="39.474636672222" lon="2.89551981129">
        <ele>127.2</ele>
        <time>2014-05-03T12:34:08Z</time>
      </trkpt>
      <trkpt lat="39.474537346707" lon="2.895541771868">
        <ele>126.6</ele>
        <time>2014-05-03T12:34:09Z</time>
      </trkpt>
      <trkpt lat="39.474437853554" lon="2.895564151541">
        <ele>126.2</ele>
        <time>2014-05-03T12:34:10Z</time>
      </trkpt>
      <trkpt lat="39.474337857487" lon="2.895584519558">
        <ele>125.6</ele>
        <time>2014-05-03T12:34:11Z</time>
      </trkpt>
      <trkpt lat="39.474237609963" lon="2.895605055213">
        <ele>125.2</ele>
        <time>2014-05-03T12:34:12Z</time>
      </trkpt>
      <trkpt lat="39.474133171489" lon="2.895623830669">
        <ele>125.2</ele>
        <time>2014-05-03T12:34:13Z</time>
      </trkpt>
      <trkpt lat="39.473932508803" lon="2.895661800676">
        <ele>125.2</ele>
        <time>2014-05-03T12:34:15Z</time>
      </trkpt>
      <trkpt lat="39.47383133927" lon="2.895678815933">
        <ele>124.8</ele>
        <time>2014-05-03T12:34:16Z</time>
      </trkpt>
      <trkpt lat="39.473731510841" lon="2.895698261941">
        <ele>124.4</ele>
        <time>2014-05-03T12:34:17Z</time>
      </trkpt>
      <trkpt lat="39.473627742919" lon="2.895718881415">
        <ele>123.8</ele>
        <time>2014-05-03T12:34:18Z</time>
      </trkpt>
      <trkpt lat="39.473524980825" lon="2.895740674355">
        <ele>123.4</ele>
        <time>2014-05-03T12:34:19Z</time>
      </trkpt>
      <trkpt lat="39.473420039437" lon="2.895766071512">
        <ele>123</ele>
        <time>2014-05-03T12:34:20Z</time>
      </trkpt>
      <trkpt lat="39.473222142778" lon="2.895816614369">
        <ele>123</ele>
        <time>2014-05-03T12:34:22Z</time>
      </trkpt>
      <trkpt lat="39.472924752966" lon="2.895911329839">
        <ele>123</ele>
        <time>2014-05-03T12:34:25Z</time>
      </trkpt>
      <trkpt lat="39.472528037639" lon="2.896121966986">
        <ele>123</ele>
        <time>2014-05-03T12:34:29Z</time>
      </trkpt>
      <trkpt lat="39.472435669101" lon="2.896181227019">
        <ele>123</ele>
        <time>2014-05-03T12:34:30Z</time>
      </trkpt>
      <trkpt lat="39.472344809305" lon="2.896243504536">
        <ele>123</ele>
        <time>2014-05-03T12:34:31Z</time>
      </trkpt>
      <trkpt lat="39.472171052518" lon="2.896377447298">
        <ele>123</ele>
        <time>2014-05-03T12:34:33Z</time>
      </trkpt>
      <trkpt lat="39.472086143871" lon="2.896448358172">
        <ele>122.6</ele>
        <time>2014-05-03T12:34:34Z</time>
      </trkpt>
      <trkpt lat="39.472003079242" lon="2.896518263218">
        <ele>122.2</ele>
        <time>2014-05-03T12:34:35Z</time>
      </trkpt>
      <trkpt lat="39.471918841147" lon="2.896589006454">
        <ele>121.8</ele>
        <time>2014-05-03T12:34:36Z</time>
      </trkpt>
      <trkpt lat="39.471831837025" lon="2.896663018631">
        <ele>121.4</ele>
        <time>2014-05-03T12:34:37Z</time>
      </trkpt>
      <trkpt lat="39.471751203147" lon="2.896735019152">
        <ele>121</ele>
        <time>2014-05-03T12:34:38Z</time>
      </trkpt>
      <trkpt lat="39.471420621011" lon="2.897005000151">
        <ele>121</ele>
        <time>2014-05-03T12:34:42Z</time>
      </trkpt>
      <trkpt lat="39.471174360789" lon="2.89720792595">
        <ele>120.6</ele>
        <time>2014-05-03T12:34:45Z</time>
      </trkpt>
      <trkpt lat="39.471090625608" lon="2.897279255919">
        <ele>120.2</ele>
        <time>2014-05-03T12:34:46Z</time>
      </trkpt>
      <trkpt lat="39.471006974246" lon="2.897350837345">
        <ele>119.8</ele>
        <time>2014-05-03T12:34:47Z</time>
      </trkpt>
      <trkpt lat="39.470923825798" lon="2.8974216644">
        <ele>119.4</ele>
        <time>2014-05-03T12:34:48Z</time>
      </trkpt>
      <trkpt lat="39.470839168608" lon="2.897494251654">
        <ele>119</ele>
        <time>2014-05-03T12:34:49Z</time>
      </trkpt>
      <trkpt lat="39.470753254133" lon="2.897565078709">
        <ele>119</ele>
        <time>2014-05-03T12:34:50Z</time>
      </trkpt>
      <trkpt lat="39.47066717202" lon="2.897634732298">
        <ele>119</ele>
        <time>2014-05-03T12:34:51Z</time>
      </trkpt>
      <trkpt lat="39.470397777754" lon="2.897858948123">
        <ele>119</ele>
        <time>2014-05-03T12:34:54Z</time>
      </trkpt>
      <trkpt lat="39.470307337053" lon="2.897936648336">
        <ele>119</ele>
        <time>2014-05-03T12:34:55Z</time>
      </trkpt>
      <trkpt lat="39.470216561076" lon="2.898012672169">
        <ele>119</ele>
        <time>2014-05-03T12:34:56Z</time>
      </trkpt>
      <trkpt lat="39.4701240249" lon="2.898093808961">
        <ele>118.6</ele>
        <time>2014-05-03T12:34:57Z</time>
      </trkpt>
      <trkpt lat="39.470028722697" lon="2.898175700124">
        <ele>118.2</ele>
        <time>2014-05-03T12:34:58Z</time>
      </trkpt>
      <trkpt lat="39.469931744114" lon="2.898259100029">
        <ele>117.8</ele>
        <time>2014-05-03T12:34:59Z</time>
      </trkpt>
      <trkpt lat="39.469838285929" lon="2.898340572097">
        <ele>117.4</ele>
        <time>2014-05-03T12:35:00Z</time>
      </trkpt>
      <trkpt lat="39.469743067545" lon="2.898412740256">
        <ele>117</ele>
        <time>2014-05-03T12:35:01Z</time>
      </trkpt>
      <trkpt lat="39.46943587091" lon="2.898620108462">
        <ele>117</ele>
        <time>2014-05-03T12:35:04Z</time>
      </trkpt>
      <trkpt lat="39.469330761884" lon="2.89868397854">
        <ele>116.4</ele>
        <time>2014-05-03T12:35:05Z</time>
      </trkpt>
      <trkpt lat="39.469223725021" lon="2.898741394555">
        <ele>116</ele>
        <time>2014-05-03T12:35:06Z</time>
      </trkpt>
      <trkpt lat="39.46911568233" lon="2.898792524145">
        <ele>115.6</ele>
        <time>2014-05-03T12:35:07Z</time>
      </trkpt>
      <trkpt lat="39.469000682662" lon="2.898835523292">
        <ele>115.2</ele>
        <time>2014-05-03T12:35:08Z</time>
      </trkpt>
      <trkpt lat="39.468891717962" lon="2.898871816919">
        <ele>114.8</ele>
        <time>2014-05-03T12:35:09Z</time>
      </trkpt>
      <trkpt lat="39.468782334167" lon="2.898900985931">
        <ele>114.4</ele>
        <time>2014-05-03T12:35:10Z</time>
      </trkpt>
      <trkpt lat="39.468671693087" lon="2.898925544898">
        <ele>114</ele>
        <time>2014-05-03T12:35:11Z</time>
      </trkpt>
      <trkpt lat="39.468562309292" lon="2.898945074725">
        <ele>113.6</ele>
        <time>2014-05-03T12:35:12Z</time>
      </trkpt>
      <trkpt lat="39.468453260773" lon="2.898964436914">
        <ele>113.2</ele>
        <time>2014-05-03T12:35:13Z</time>
      </trkpt>
      <trkpt lat="39.46834538572" lon="2.898981703628">
        <ele>112.8</ele>
        <time>2014-05-03T12:35:14Z</time>
      </trkpt>
      <trkpt lat="39.468237091572" lon="2.898998802704">
        <ele>112.8</ele>
        <time>2014-05-03T12:35:15Z</time>
      </trkpt>
      <trkpt lat="39.468126282854" lon="2.899015566504">
        <ele>112.8</ele>
        <time>2014-05-03T12:35:16Z</time>
      </trkpt>
      <trkpt lat="39.467805758998" lon="2.899086058283">
        <ele>112.8</ele>
        <time>2014-05-03T12:35:19Z</time>
      </trkpt>
      <trkpt lat="39.467489929006" lon="2.899179684106">
        <ele>112.8</ele>
        <time>2014-05-03T12:35:22Z</time>
      </trkpt>
      <trkpt lat="39.467174601928" lon="2.899276997965">
        <ele>112.8</ele>
        <time>2014-05-03T12:35:25Z</time>
      </trkpt>
      <trkpt lat="39.467071085463" lon="2.899309771194">
        <ele>112.8</ele>
        <time>2014-05-03T12:35:26Z</time>
      </trkpt>
      <trkpt lat="39.466865058361" lon="2.899376574937">
        <ele>112.8</ele>
        <time>2014-05-03T12:35:28Z</time>
      </trkpt>
      <trkpt lat="39.466654672671" lon="2.899447234354">
        <ele>112.8</ele>
        <time>2014-05-03T12:35:30Z</time>
      </trkpt>
      <trkpt lat="39.466233230739" lon="2.899583440229">
        <ele>112.8</ele>
        <time>2014-05-03T12:35:34Z</time>
      </trkpt>
      <trkpt lat="39.466131474473" lon="2.899619314761">
        <ele>112.8</ele>
        <time>2014-05-03T12:35:35Z</time>
      </trkpt>
      <trkpt lat="39.466031729863" lon="2.899659044967">
        <ele>112.8</ele>
        <time>2014-05-03T12:35:36Z</time>
      </trkpt>
      <trkpt lat="39.465936260022" lon="2.899705983607">
        <ele>112.8</ele>
        <time>2014-05-03T12:35:37Z</time>
      </trkpt>
      <trkpt lat="39.465748337824" lon="2.899821570008">
        <ele>112.2</ele>
        <time>2014-05-03T12:35:39Z</time>
      </trkpt>
      <trkpt lat="39.465665440833" lon="2.899889463398">
        <ele>111.8</ele>
        <time>2014-05-03T12:35:40Z</time>
      </trkpt>
      <trkpt lat="39.465583465851" lon="2.899966073964">
        <ele>111.4</ele>
        <time>2014-05-03T12:35:41Z</time>
      </trkpt>
      <trkpt lat="39.465506687647" lon="2.900046204928">
        <ele>111</ele>
        <time>2014-05-03T12:35:42Z</time>
      </trkpt>
      <trkpt lat="39.465433932755" lon="2.900131281213">
        <ele>110.6</ele>
        <time>2014-05-03T12:35:43Z</time>
      </trkpt>
      <trkpt lat="39.465297978337" lon="2.900322807628">
        <ele>110.6</ele>
        <time>2014-05-03T12:35:45Z</time>
      </trkpt>
      <trkpt lat="39.465186834343" lon="2.900532355128">
        <ele>110.6</ele>
        <time>2014-05-03T12:35:47Z</time>
      </trkpt>
      <trkpt lat="39.465092286511" lon="2.900755900401">
        <ele>110.6</ele>
        <time>2014-05-03T12:35:49Z</time>
      </trkpt>
      <trkpt lat="39.464839153131" lon="2.901425781849">
        <ele>110.6</ele>
        <time>2014-05-03T12:35:55Z</time>
      </trkpt>
      <trkpt lat="39.464746784593" lon="2.901642537783">
        <ele>110.6</ele>
        <time>2014-05-03T12:35:57Z</time>
      </trkpt>
      <trkpt lat="39.464442605442" lon="2.902124329395">
        <ele>110.6</ele>
        <time>2014-05-03T12:36:02Z</time>
      </trkpt>
      <trkpt lat="39.464109844012" lon="2.902394226575">
        <ele>110.6</ele>
        <time>2014-05-03T12:36:06Z</time>
      </trkpt>
      <trkpt lat="39.463639116508" lon="2.902612826527">
        <ele>110.6</ele>
        <time>2014-05-03T12:36:11Z</time>
      </trkpt>
      <trkpt lat="39.463547753798" lon="2.90265867552">
        <ele>110</ele>
        <time>2014-05-03T12:36:12Z</time>
      </trkpt>
      <trkpt lat="39.463458402744" lon="2.902699998287">
        <ele>109.6</ele>
        <time>2014-05-03T12:36:13Z</time>
      </trkpt>
      <trkpt lat="39.463366788577" lon="2.902741907787">
        <ele>109.2</ele>
        <time>2014-05-03T12:36:14Z</time>
      </trkpt>
      <trkpt lat="39.463274755315" lon="2.902784906934">
        <ele>108.8</ele>
        <time>2014-05-03T12:36:15Z</time>
      </trkpt>
      <trkpt lat="39.463183560243" lon="2.902825642968">
        <ele>108.2</ele>
        <time>2014-05-03T12:36:16Z</time>
      </trkpt>
      <trkpt lat="39.462903940059" lon="2.902958244626">
        <ele>108.2</ele>
        <time>2014-05-03T12:36:19Z</time>
      </trkpt>
      <trkpt lat="39.462349980288" lon="2.903250018565">
        <ele>108.2</ele>
        <time>2014-05-03T12:36:25Z</time>
      </trkpt>
      <trkpt lat="39.462074970149" lon="2.903408687932">
        <ele>108.2</ele>
        <time>2014-05-03T12:36:28Z</time>
      </trkpt>
      <trkpt lat="39.461982601611" lon="2.903457135314">
        <ele>108.2</ele>
        <time>2014-05-03T12:36:29Z</time>
      </trkpt>
      <trkpt lat="39.461511706469" lon="2.903734743842">
        <ele>108.2</ele>
        <time>2014-05-03T12:36:34Z</time>
      </trkpt>
      <trkpt lat="39.461417661551" lon="2.903792411314">
        <ele>108.2</ele>
        <time>2014-05-03T12:36:35Z</time>
      </trkpt>
      <trkpt lat="39.461232756837" lon="2.903901627471">
        <ele>108.2</ele>
        <time>2014-05-03T12:36:37Z</time>
      </trkpt>
      <trkpt lat="39.461046259562" lon="2.904006820316">
        <ele>107.8</ele>
        <time>2014-05-03T12:36:39Z</time>
      </trkpt>
      <trkpt lat="39.460947436961" lon="2.904063062865">
        <ele>107.4</ele>
        <time>2014-05-03T12:36:40Z</time>
      </trkpt>
      <trkpt lat="39.4608536435" lon="2.904114946826">
        <ele>107</ele>
        <time>2014-05-03T12:36:41Z</time>
      </trkpt>
      <trkpt lat="39.460760939686" lon="2.904169010081">
        <ele>106.6</ele>
        <time>2014-05-03T12:36:42Z</time>
      </trkpt>
      <trkpt lat="39.460670498985" lon="2.904223157155">
        <ele>106</ele>
        <time>2014-05-03T12:36:43Z</time>
      </trkpt>
      <trkpt lat="39.460111342436" lon="2.904559019888">
        <ele>106</ele>
        <time>2014-05-03T12:36:49Z</time>
      </trkpt>
      <trkpt lat="39.459923001143" lon="2.904667481674">
        <ele>106</ele>
        <time>2014-05-03T12:36:51Z</time>
      </trkpt>
      <trkpt lat="39.45954355253" lon="2.904896307544">
        <ele>106</ele>
        <time>2014-05-03T12:36:55Z</time>
      </trkpt>
      <trkpt lat="39.459076596881" lon="2.905162935783">
        <ele>106</ele>
        <time>2014-05-03T12:37:00Z</time>
      </trkpt>
      <trkpt lat="39.458576448908" lon="2.905363849926">
        <ele>105.6</ele>
        <time>2014-05-03T12:37:05Z</time>
      </trkpt>
      <trkpt lat="39.458474525004" lon="2.905389833816">
        <ele>105.2</ele>
        <time>2014-05-03T12:37:06Z</time>
      </trkpt>
      <trkpt lat="39.458372852557" lon="2.905411710575">
        <ele>104.8</ele>
        <time>2014-05-03T12:37:07Z</time>
      </trkpt>
      <trkpt lat="39.458268078807" lon="2.905426295081">
        <ele>104.4</ele>
        <time>2014-05-03T12:37:08Z</time>
      </trkpt>
      <trkpt lat="39.45816389179" lon="2.905430486031">
        <ele>104</ele>
        <time>2014-05-03T12:37:09Z</time>
      </trkpt>
      <trkpt lat="39.45805576528" lon="2.905431827135">
        <ele>104</ele>
        <time>2014-05-03T12:37:10Z</time>
      </trkpt>
      <trkpt lat="39.457540948982" lon="2.905365358668">
        <ele>104</ele>
        <time>2014-05-03T12:37:15Z</time>
      </trkpt>
      <trkpt lat="39.457036442421" lon="2.905169389846">
        <ele>104</ele>
        <time>2014-05-03T12:37:20Z</time>
      </trkpt>
      <trkpt lat="39.456472927284" lon="2.904787510482">
        <ele>104</ele>
        <time>2014-05-03T12:37:26Z</time>
      </trkpt>
      <trkpt lat="39.456381313117" lon="2.904714839409">
        <ele>103.6</ele>
        <time>2014-05-03T12:37:27Z</time>
      </trkpt>
      <trkpt lat="39.456288609303" lon="2.904644263811">
        <ele>103.2</ele>
        <time>2014-05-03T12:37:28Z</time>
      </trkpt>
      <trkpt lat="39.45619498348" lon="2.904573017661">
        <ele>102.8</ele>
        <time>2014-05-03T12:37:29Z</time>
      </trkpt>
      <trkpt lat="39.456101609114" lon="2.904500430407">
        <ele>102.4</ele>
        <time>2014-05-03T12:37:30Z</time>
      </trkpt>
      <trkpt lat="39.456005468721" lon="2.904424238936">
        <ele>102</ele>
        <time>2014-05-03T12:37:31Z</time>
      </trkpt>
      <trkpt lat="39.455810924822" lon="2.904270682528">
        <ele>102</ele>
        <time>2014-05-03T12:37:33Z</time>
      </trkpt>
      <trkpt lat="39.455384034655" lon="2.903935322709">
        <ele>102</ele>
        <time>2014-05-03T12:37:37Z</time>
      </trkpt>
      <trkpt lat="39.455283787131" lon="2.903855778478">
        <ele>101.6</ele>
        <time>2014-05-03T12:37:38Z</time>
      </trkpt>
      <trkpt lat="39.455181947046" lon="2.903774390229">
        <ele>100.8</ele>
        <time>2014-05-03T12:37:39Z</time>
      </trkpt>
      <trkpt lat="39.45508354354" lon="2.903694510722">
        <ele>100.4</ele>
        <time>2014-05-03T12:37:40Z</time>
      </trkpt>
      <trkpt lat="39.45497457884" lon="2.903609518256">
        <ele>99.8</ele>
        <time>2014-05-03T12:37:41Z</time>
      </trkpt>
      <trkpt lat="39.454476107247" lon="2.903217580612">
        <ele>99.8</ele>
        <time>2014-05-03T12:37:46Z</time>
      </trkpt>
      <trkpt lat="39.454281144253" lon="2.903056229037">
        <ele>99.4</ele>
        <time>2014-05-03T12:37:48Z</time>
      </trkpt>
      <trkpt lat="39.454176538141" lon="2.90297718772">
        <ele>99</ele>
        <time>2014-05-03T12:37:49Z</time>
      </trkpt>
      <trkpt lat="39.45407771554" lon="2.902896889118">
        <ele>98.6</ele>
        <time>2014-05-03T12:37:50Z</time>
      </trkpt>
      <trkpt lat="39.453980401681" lon="2.90282044619">
        <ele>98.2</ele>
        <time>2014-05-03T12:37:51Z</time>
      </trkpt>
      <trkpt lat="39.45388241727" lon="2.902744506176">
        <ele>97.6</ele>
        <time>2014-05-03T12:37:52Z</time>
      </trkpt>
      <trkpt lat="39.453393501043" lon="2.902349802505">
        <ele>97.6</ele>
        <time>2014-05-03T12:37:57Z</time>
      </trkpt>
      <trkpt lat="39.452904752454" lon="2.901933054437">
        <ele>97.6</ele>
        <time>2014-05-03T12:38:02Z</time>
      </trkpt>
      <trkpt lat="39.452719261007" lon="2.901737588529">
        <ele>97.6</ele>
        <time>2014-05-03T12:38:04Z</time>
      </trkpt>
      <trkpt lat="39.452303937862" lon="2.901204667327">
        <ele>97.6</ele>
        <time>2014-05-03T12:38:09Z</time>
      </trkpt>
      <trkpt lat="39.451891213106" lon="2.900670991754">
        <ele>97.6</ele>
        <time>2014-05-03T12:38:14Z</time>
      </trkpt>
      <trkpt lat="39.451809908676" lon="2.900566134185">
        <ele>97.2</ele>
        <time>2014-05-03T12:38:15Z</time>
      </trkpt>
      <trkpt lat="39.451725670581" lon="2.900462533901">
        <ele>96.8</ele>
        <time>2014-05-03T12:38:16Z</time>
      </trkpt>
      <trkpt lat="39.451642354495" lon="2.900361783463">
        <ele>96.4</ele>
        <time>2014-05-03T12:38:17Z</time>
      </trkpt>
      <trkpt lat="39.451558619314" lon="2.900262038853">
        <ele>96</ele>
        <time>2014-05-03T12:38:18Z</time>
      </trkpt>
      <trkpt lat="39.451473794486" lon="2.900163551528">
        <ele>95.4</ele>
        <time>2014-05-03T12:38:19Z</time>
      </trkpt>
      <trkpt lat="39.451094010597" lon="2.899841016016">
        <ele>95.4</ele>
        <time>2014-05-03T12:38:23Z</time>
      </trkpt>
      <trkpt lat="39.450887480581" lon="2.899738840655">
        <ele>95.4</ele>
        <time>2014-05-03T12:38:25Z</time>
      </trkpt>
      <trkpt lat="39.450777007139" lon="2.899708917272">
        <ele>95.4</ele>
        <time>2014-05-03T12:38:26Z</time>
      </trkpt>
      <trkpt lat="39.45066795862" lon="2.899686621418">
        <ele>95.4</ele>
        <time>2014-05-03T12:38:27Z</time>
      </trkpt>
      <trkpt lat="39.450548265088" lon="2.899672120731">
        <ele>95.4</ele>
        <time>2014-05-03T12:38:28Z</time>
      </trkpt>
      <trkpt lat="39.450429661203" lon="2.899667594505">
        <ele>94.6</ele>
        <time>2014-05-03T12:38:29Z</time>
      </trkpt>
      <trkpt lat="39.450316589372" lon="2.899674467663">
        <ele>94.2</ele>
        <time>2014-05-03T12:38:30Z</time>
      </trkpt>
      <trkpt lat="39.450200751514" lon="2.899689135988">
        <ele>93.6</ele>
        <time>2014-05-03T12:38:31Z</time>
      </trkpt>
      <trkpt lat="39.450085668027" lon="2.899706318883">
        <ele>93</ele>
        <time>2014-05-03T12:38:32Z</time>
      </trkpt>
      <trkpt lat="39.449973685843" lon="2.899722747407">
        <ele>92.4</ele>
        <time>2014-05-03T12:38:33Z</time>
      </trkpt>
      <trkpt lat="39.449864385867" lon="2.899735739352">
        <ele>91.8</ele>
        <time>2014-05-03T12:38:34Z</time>
      </trkpt>
      <trkpt lat="39.449758438651" lon="2.899748982754">
        <ele>91.2</ele>
        <time>2014-05-03T12:38:35Z</time>
      </trkpt>
      <trkpt lat="39.449541263622" lon="2.899765746554">
        <ele>91.2</ele>
        <time>2014-05-03T12:38:37Z</time>
      </trkpt>
      <trkpt lat="39.448946735455" lon="2.899819139257">
        <ele>91.2</ele>
        <time>2014-05-03T12:38:43Z</time>
      </trkpt>
      <trkpt lat="39.448853528727" lon="2.899816289411">
        <ele>91.2</ele>
        <time>2014-05-03T12:38:44Z</time>
      </trkpt>
      <trkpt lat="39.448760489637" lon="2.899812601375">
        <ele>91.6</ele>
        <time>2014-05-03T12:38:45Z</time>
      </trkpt>
      <trkpt lat="39.448666025624" lon="2.899803213647">
        <ele>92</ele>
        <time>2014-05-03T12:38:46Z</time>
      </trkpt>
      <trkpt lat="39.448571477792" lon="2.899796089032">
        <ele>92.4</ele>
        <time>2014-05-03T12:38:47Z</time>
      </trkpt>
      <trkpt lat="39.448478103426" lon="2.899788293865">
        <ele>92.8</ele>
        <time>2014-05-03T12:38:48Z</time>
      </trkpt>
      <trkpt lat="39.448386824535" lon="2.899780582517">
        <ele>93.4</ele>
        <time>2014-05-03T12:38:49Z</time>
      </trkpt>
      <trkpt lat="39.448298730766" lon="2.89977949287">
        <ele>93.4</ele>
        <time>2014-05-03T12:38:50Z</time>
      </trkpt>
      <trkpt lat="39.448114328966" lon="2.899778151766">
        <ele>93.4</ele>
        <time>2014-05-03T12:38:52Z</time>
      </trkpt>
      <trkpt lat="39.447845437614" lon="2.89976272907">
        <ele>93.4</ele>
        <time>2014-05-03T12:38:55Z</time>
      </trkpt>
      <trkpt lat="39.447753991085" lon="2.899757951387">
        <ele>93.4</ele>
        <time>2014-05-03T12:38:56Z</time>
      </trkpt>
      <trkpt lat="39.44766388566" lon="2.899752754609">
        <ele>93.4</ele>
        <time>2014-05-03T12:38:57Z</time>
      </trkpt>
      <trkpt lat="39.447276306604" lon="2.899720149018">
        <ele>93.4</ele>
        <time>2014-05-03T12:39:01Z</time>
      </trkpt>
      <trkpt lat="39.446984281208" lon="2.899685280314">
        <ele>93.4</ele>
        <time>2014-05-03T12:39:04Z</time>
      </trkpt>
      <trkpt lat="39.446409031411" lon="2.899636581475">
        <ele>93.4</ele>
        <time>2014-05-03T12:39:10Z</time>
      </trkpt>
      <trkpt lat="39.446228150009" lon="2.899618979485">
        <ele>93.4</ele>
        <time>2014-05-03T12:39:12Z</time>
      </trkpt>
      <trkpt lat="39.446140810611" lon="2.899611351956">
        <ele>93.4</ele>
        <time>2014-05-03T12:39:13Z</time>
      </trkpt>
      <trkpt lat="39.446041820372" lon="2.899599030563">
        <ele>93.4</ele>
        <time>2014-05-03T12:39:14Z</time>
      </trkpt>
      <trkpt lat="39.445945177065" lon="2.899588972283">
        <ele>93.4</ele>
        <time>2014-05-03T12:39:15Z</time>
      </trkpt>
      <trkpt lat="39.445849288129" lon="2.89957245994">
        <ele>93.4</ele>
        <time>2014-05-03T12:39:16Z</time>
      </trkpt>
      <trkpt lat="39.445754321202" lon="2.899560138547">
        <ele>93.4</ele>
        <time>2014-05-03T12:39:17Z</time>
      </trkpt>
      <trkpt lat="39.445659354275" lon="2.89954982881">
        <ele>93.4</ele>
        <time>2014-05-03T12:39:18Z</time>
      </trkpt>
      <trkpt lat="39.445560364036" lon="2.89953641777">
        <ele>93.4</ele>
        <time>2014-05-03T12:39:19Z</time>
      </trkpt>
      <trkpt lat="39.44546028415" lon="2.899522084721">
        <ele>93.4</ele>
        <time>2014-05-03T12:39:20Z</time>
      </trkpt>
      <trkpt lat="39.445358946979" lon="2.899507500215">
        <ele>93.4</ele>
        <time>2014-05-03T12:39:21Z</time>
      </trkpt>
      <trkpt lat="39.445155266809" lon="2.899479085574">
        <ele>93</ele>
        <time>2014-05-03T12:39:23Z</time>
      </trkpt>
      <trkpt lat="39.445052504715" lon="2.899454191331">
        <ele>92.4</ele>
        <time>2014-05-03T12:39:24Z</time>
      </trkpt>
      <trkpt lat="39.444947479508" lon="2.899430638192">
        <ele>92</ele>
        <time>2014-05-03T12:39:25Z</time>
      </trkpt>
      <trkpt lat="39.444837676618" lon="2.899405241035">
        <ele>91.6</ele>
        <time>2014-05-03T12:39:26Z</time>
      </trkpt>
      <trkpt lat="39.44472854428" lon="2.899373892729">
        <ele>91.2</ele>
        <time>2014-05-03T12:39:27Z</time>
      </trkpt>
      <trkpt lat="39.444618406114" lon="2.899338353473">
        <ele>91.6</ele>
        <time>2014-05-03T12:39:28Z</time>
      </trkpt>
      <trkpt lat="39.444506926844" lon="2.899300132009">
        <ele>92</ele>
        <time>2014-05-03T12:39:29Z</time>
      </trkpt>
      <trkpt lat="39.444401314904" lon="2.899255791758">
        <ele>92.4</ele>
        <time>2014-05-03T12:39:30Z</time>
      </trkpt>
      <trkpt lat="39.444298888086" lon="2.899208098747">
        <ele>93</ele>
        <time>2014-05-03T12:39:31Z</time>
      </trkpt>
      <trkpt lat="39.44419545544" lon="2.899167530351">
        <ele>93.4</ele>
        <time>2014-05-03T12:39:32Z</time>
      </trkpt>
      <trkpt lat="39.444088250939" lon="2.899127129593">
        <ele>93.4</ele>
        <time>2014-05-03T12:39:33Z</time>
      </trkpt>
      <trkpt lat="39.443973502728" lon="2.899086812654">
        <ele>93.4</ele>
        <time>2014-05-03T12:39:34Z</time>
      </trkpt>
      <trkpt lat="39.443856323766" lon="2.899039454919">
        <ele>92.8</ele>
        <time>2014-05-03T12:39:35Z</time>
      </trkpt>
      <trkpt lat="39.443732187827" lon="2.899001820188">
        <ele>92.4</ele>
        <time>2014-05-03T12:39:36Z</time>
      </trkpt>
      <trkpt lat="39.443615176503" lon="2.898968795502">
        <ele>92</ele>
        <time>2014-05-03T12:39:37Z</time>
      </trkpt>
      <trkpt lat="39.443495063876" lon="2.898944068897">
        <ele>91.2</ele>
        <time>2014-05-03T12:39:38Z</time>
      </trkpt>
      <trkpt lat="39.443373358688" lon="2.898932166599">
        <ele>90.4</ele>
        <time>2014-05-03T12:39:39Z</time>
      </trkpt>
      <trkpt lat="39.443253748975" lon="2.898929484391">
        <ele>89.4</ele>
        <time>2014-05-03T12:39:40Z</time>
      </trkpt>
      <trkpt lat="39.443130702683" lon="2.898923449423">
        <ele>88.6</ele>
        <time>2014-05-03T12:39:41Z</time>
      </trkpt>
      <trkpt lat="39.443005980011" lon="2.898928646201">
        <ele>87.6</ele>
        <time>2014-05-03T12:39:42Z</time>
      </trkpt>
      <trkpt lat="39.442887627583" lon="2.898940716137">
        <ele>85.6</ele>
        <time>2014-05-03T12:39:43Z</time>
      </trkpt>
      <trkpt lat="39.442647821424" lon="2.898963263448">
        <ele>85.6</ele>
        <time>2014-05-03T12:39:45Z</time>
      </trkpt>
      <trkpt lat="39.442537683258" lon="2.898972232081">
        <ele>85.6</ele>
        <time>2014-05-03T12:39:46Z</time>
      </trkpt>
      <trkpt lat="39.442322436066" lon="2.89898572694">
        <ele>85.6</ele>
        <time>2014-05-03T12:39:48Z</time>
      </trkpt>
      <trkpt lat="39.442215902117" lon="2.898990420804">
        <ele>85.6</ele>
        <time>2014-05-03T12:39:49Z</time>
      </trkpt>
      <trkpt lat="39.442111212186" lon="2.899000143808">
        <ele>85.6</ele>
        <time>2014-05-03T12:39:50Z</time>
      </trkpt>
      <trkpt lat="39.441997888898" lon="2.899008190432">
        <ele>85.6</ele>
        <time>2014-05-03T12:39:51Z</time>
      </trkpt>
      <trkpt lat="39.441358098471" lon="2.899069713578">
        <ele>85.6</ele>
        <time>2014-05-03T12:39:57Z</time>
      </trkpt>
      <trkpt lat="39.441162381106" lon="2.899094104907">
        <ele>85.6</ele>
        <time>2014-05-03T12:39:59Z</time>
      </trkpt>
      <trkpt lat="39.441071437491" lon="2.899100307513">
        <ele>85.6</ele>
        <time>2014-05-03T12:40:00Z</time>
      </trkpt>
      <trkpt lat="39.4409801586" lon="2.899107013033">
        <ele>85.6</ele>
        <time>2014-05-03T12:40:01Z</time>
      </trkpt>
      <trkpt lat="39.44089131046" lon="2.899117993322">
        <ele>85.6</ele>
        <time>2014-05-03T12:40:02Z</time>
      </trkpt>
      <trkpt lat="39.440483363387" lon="2.899220503959">
        <ele>86.6</ele>
        <time>2014-05-03T12:40:07Z</time>
      </trkpt>
      <trkpt lat="39.440406752821" lon="2.899243386546">
        <ele>87.2</ele>
        <time>2014-05-03T12:40:08Z</time>
      </trkpt>
      <trkpt lat="39.440336596318" lon="2.899270795359">
        <ele>87.6</ele>
        <time>2014-05-03T12:40:09Z</time>
      </trkpt>
      <trkpt lat="39.440263003236" lon="2.899300634923">
        <ele>88.2</ele>
        <time>2014-05-03T12:40:10Z</time>
      </trkpt>
      <trkpt lat="39.440189074878" lon="2.89932854665">
        <ele>88.2</ele>
        <time>2014-05-03T12:40:11Z</time>
      </trkpt>
      <trkpt lat="39.439974582057" lon="2.899428542717">
        <ele>88.2</ele>
        <time>2014-05-03T12:40:14Z</time>
      </trkpt>
      <trkpt lat="39.439901240432" lon="2.899470536036">
        <ele>88.6</ele>
        <time>2014-05-03T12:40:15Z</time>
      </trkpt>
      <trkpt lat="39.439833849956" lon="2.899506997301">
        <ele>89</ele>
        <time>2014-05-03T12:40:16Z</time>
      </trkpt>
      <trkpt lat="39.439766878575" lon="2.899540943996">
        <ele>89.6</ele>
        <time>2014-05-03T12:40:17Z</time>
      </trkpt>
      <trkpt lat="39.439698314633" lon="2.899575728881">
        <ele>90</ele>
        <time>2014-05-03T12:40:18Z</time>
      </trkpt>
      <trkpt lat="39.439632935813" lon="2.899607244825">
        <ele>90.4</ele>
        <time>2014-05-03T12:40:19Z</time>
      </trkpt>
      <trkpt lat="39.43950662058" lon="2.899672791283">
        <ele>90.4</ele>
        <time>2014-05-03T12:40:21Z</time>
      </trkpt>
      <trkpt lat="39.439314004518" lon="2.899770691875">
        <ele>90.4</ele>
        <time>2014-05-03T12:40:24Z</time>
      </trkpt>
      <trkpt lat="39.439250804992" lon="2.899805895855">
        <ele>91</ele>
        <time>2014-05-03T12:40:25Z</time>
      </trkpt>
      <trkpt lat="39.439188862751" lon="2.89983984255">
        <ele>91.4</ele>
        <time>2014-05-03T12:40:26Z</time>
      </trkpt>
      <trkpt lat="39.439127088148" lon="2.899874627435">
        <ele>92</ele>
        <time>2014-05-03T12:40:27Z</time>
      </trkpt>
      <trkpt lat="39.439066487011" lon="2.899903712628">
        <ele>92.4</ele>
        <time>2014-05-03T12:40:28Z</time>
      </trkpt>
      <trkpt lat="39.439005550598" lon="2.899932211088">
        <ele>93</ele>
        <time>2014-05-03T12:40:29Z</time>
      </trkpt>
      <trkpt lat="39.438877056071" lon="2.899999350107">
        <ele>93</ele>
        <time>2014-05-03T12:40:31Z</time>
      </trkpt>
      <trkpt lat="39.438815281468" lon="2.900031368965">
        <ele>93</ele>
        <time>2014-05-03T12:40:32Z</time>
      </trkpt>
      <trkpt lat="39.438750740838" lon="2.900063052547">
        <ele>93</ele>
        <time>2014-05-03T12:40:33Z</time>
      </trkpt>
      <trkpt lat="39.438498697105" lon="2.900196240938">
        <ele>93.4</ele>
        <time>2014-05-03T12:40:37Z</time>
      </trkpt>
      <trkpt lat="39.438434072656" lon="2.900229097986">
        <ele>93.8</ele>
        <time>2014-05-03T12:40:38Z</time>
      </trkpt>
      <trkpt lat="39.438372800967" lon="2.900259021369">
        <ele>94.2</ele>
        <time>2014-05-03T12:40:39Z</time>
      </trkpt>
      <trkpt lat="39.438306583957" lon="2.900290621132">
        <ele>94.6</ele>
        <time>2014-05-03T12:40:40Z</time>
      </trkpt>
      <trkpt lat="39.438241959508" lon="2.900326663302">
        <ele>95</ele>
        <time>2014-05-03T12:40:41Z</time>
      </trkpt>
      <trkpt lat="39.438179346715" lon="2.900359939445">
        <ele>95</ele>
        <time>2014-05-03T12:40:42Z</time>
      </trkpt>
      <trkpt lat="39.438056216604" lon="2.900421881686">
        <ele>95</ele>
        <time>2014-05-03T12:40:44Z</time>
      </trkpt>
      <trkpt lat="39.437721108242" lon="2.900590693152">
        <ele>95</ele>
        <time>2014-05-03T12:40:49Z</time>
      </trkpt>
      <trkpt lat="39.437655226508" lon="2.900624639847">
        <ele>95</ele>
        <time>2014-05-03T12:40:50Z</time>
      </trkpt>
      <trkpt lat="39.437586746385" lon="2.90066210694">
        <ele>95</ele>
        <time>2014-05-03T12:40:51Z</time>
      </trkpt>
      <trkpt lat="39.437088274792" lon="2.900917419614">
        <ele>95</ele>
        <time>2014-05-03T12:40:58Z</time>
      </trkpt>
      <trkpt lat="39.436945363397" lon="2.900992437619">
        <ele>95</ele>
        <time>2014-05-03T12:41:00Z</time>
      </trkpt>
      <trkpt lat="39.436872357048" lon="2.901028898884">
        <ele>95</ele>
        <time>2014-05-03T12:41:01Z</time>
      </trkpt>
      <trkpt lat="39.436797339043" lon="2.901064857235">
        <ele>95</ele>
        <time>2014-05-03T12:41:02Z</time>
      </trkpt>
      <trkpt lat="39.436719974106" lon="2.901104000708">
        <ele>95</ele>
        <time>2014-05-03T12:41:03Z</time>
      </trkpt>
      <trkpt lat="39.436564154585" lon="2.901187903527">
        <ele>95</ele>
        <time>2014-05-03T12:41:05Z</time>
      </trkpt>
      <trkpt lat="39.43648829839" lon="2.90122620881">
        <ele>95</ele>
        <time>2014-05-03T12:41:06Z</time>
      </trkpt>
      <trkpt lat="39.436414202394" lon="2.901268537405">
        <ele>95</ele>
        <time>2014-05-03T12:41:07Z</time>
      </trkpt>
      <trkpt lat="39.43609770185" lon="2.901447071875">
        <ele>95</ele>
        <time>2014-05-03T12:41:11Z</time>
      </trkpt>
      <trkpt lat="39.436015056316" lon="2.901494932524">
        <ele>95</ele>
        <time>2014-05-03T12:41:12Z</time>
      </trkpt>
      <trkpt lat="39.435604929949" lon="2.901767008998">
        <ele>95</ele>
        <time>2014-05-03T12:41:17Z</time>
      </trkpt>
      <trkpt lat="39.43511450498" lon="2.902104464292">
        <ele>95</ele>
        <time>2014-05-03T12:41:23Z</time>
      </trkpt>
      <trkpt lat="39.435016604388" lon="2.902138327168">
        <ele>95</ele>
        <time>2014-05-03T12:41:24Z</time>
      </trkpt>
      <trkpt lat="39.434714269255" lon="2.902199179762">
        <ele>95</ele>
        <time>2014-05-03T12:41:27Z</time>
      </trkpt>
      <trkpt lat="39.434617374491" lon="2.902199179762">
        <ele>95</ele>
        <time>2014-05-03T12:41:28Z</time>
      </trkpt>
      <trkpt lat="39.434231555634" lon="2.902137991892">
        <ele>95</ele>
        <time>2014-05-03T12:41:32Z</time>
      </trkpt>
      <trkpt lat="39.433955204391" lon="2.902023076043">
        <ele>95</ele>
        <time>2014-05-03T12:41:35Z</time>
      </trkpt>
      <trkpt lat="39.433870295744" lon="2.901968258417">
        <ele>95</ele>
        <time>2014-05-03T12:41:36Z</time>
      </trkpt>
      <trkpt lat="39.433438041161" lon="2.901629210562">
        <ele>95</ele>
        <time>2014-05-03T12:41:41Z</time>
      </trkpt>
      <trkpt lat="39.43299807523" lon="2.901281780807">
        <ele>95</ele>
        <time>2014-05-03T12:41:46Z</time>
      </trkpt>
      <trkpt lat="39.432908556538" lon="2.901205421698">
        <ele>95</ele>
        <time>2014-05-03T12:41:47Z</time>
      </trkpt>
      <trkpt lat="39.432813924887" lon="2.901131158064">
        <ele>94.6</ele>
        <time>2014-05-03T12:41:48Z</time>
      </trkpt>
      <trkpt lat="39.432722143082" lon="2.901060833923">
        <ele>94.2</ele>
        <time>2014-05-03T12:41:49Z</time>
      </trkpt>
      <trkpt lat="39.432632875847" lon="2.900986654108">
        <ele>93.8</ele>
        <time>2014-05-03T12:41:50Z</time>
      </trkpt>
      <trkpt lat="39.432545033535" lon="2.90091356394">
        <ele>93.4</ele>
        <time>2014-05-03T12:41:51Z</time>
      </trkpt>
      <trkpt lat="39.432455011929" lon="2.900843407437">
        <ele>93</ele>
        <time>2014-05-03T12:41:52Z</time>
      </trkpt>
      <trkpt lat="39.432183019274" lon="2.900630339539">
        <ele>93</ele>
        <time>2014-05-03T12:41:55Z</time>
      </trkpt>
      <trkpt lat="39.431896609751" lon="2.90041567908">
        <ele>93</ele>
        <time>2014-05-03T12:41:58Z</time>
      </trkpt>
      <trkpt lat="39.431799882625" lon="2.900349545889">
        <ele>93</ele>
        <time>2014-05-03T12:41:59Z</time>
      </trkpt>
      <trkpt lat="39.43161338535" lon="2.900211328358">
        <ele>93</ele>
        <time>2014-05-03T12:42:01Z</time>
      </trkpt>
      <trkpt lat="39.431114327024" lon="2.899905053732">
        <ele>93</ele>
        <time>2014-05-03T12:42:06Z</time>
      </trkpt>
      <trkpt lat="39.431013995681" lon="2.899844284957">
        <ele>93</ele>
        <time>2014-05-03T12:42:07Z</time>
      </trkpt>
      <trkpt lat="39.430608479359" lon="2.899582350582">
        <ele>93</ele>
        <time>2014-05-03T12:42:11Z</time>
      </trkpt>
      <trkpt lat="39.430509656758" lon="2.899514289554">
        <ele>93</ele>
        <time>2014-05-03T12:42:12Z</time>
      </trkpt>
      <trkpt lat="39.43030497076" lon="2.899398200239">
        <ele>93</ele>
        <time>2014-05-03T12:42:14Z</time>
      </trkpt>
      <trkpt lat="39.430203382132" lon="2.899333743428">
        <ele>93</ele>
        <time>2014-05-03T12:42:15Z</time>
      </trkpt>
      <trkpt lat="39.429988721673" lon="2.899218240846">
        <ele>93</ele>
        <time>2014-05-03T12:42:17Z</time>
      </trkpt>
      <trkpt lat="39.429773223024" lon="2.899107851223">
        <ele>93</ele>
        <time>2014-05-03T12:42:19Z</time>
      </trkpt>
      <trkpt lat="39.42923292575" lon="2.898851113626">
        <ele>93</ele>
        <time>2014-05-03T12:42:24Z</time>
      </trkpt>
      <trkpt lat="39.429127397629" lon="2.898798726751">
        <ele>92.6</ele>
        <time>2014-05-03T12:42:25Z</time>
      </trkpt>
      <trkpt lat="39.429018432929" lon="2.89874851917">
        <ele>92.2</ele>
        <time>2014-05-03T12:42:26Z</time>
      </trkpt>
      <trkpt lat="39.428916844301" lon="2.898701161435">
        <ele>91.8</ele>
        <time>2014-05-03T12:42:27Z</time>
      </trkpt>
      <trkpt lat="39.428817434967" lon="2.898636620805">
        <ele>91.2</ele>
        <time>2014-05-03T12:42:28Z</time>
      </trkpt>
      <trkpt lat="39.428724479696" lon="2.898547856484">
        <ele>90.8</ele>
        <time>2014-05-03T12:42:29Z</time>
      </trkpt>
      <trkpt lat="39.428633368443" lon="2.898454482118">
        <ele>90.8</ele>
        <time>2014-05-03T12:42:30Z</time>
      </trkpt>
      <trkpt lat="39.428152917935" lon="2.897972019954">
        <ele>90.8</ele>
        <time>2014-05-03T12:42:35Z</time>
      </trkpt>
      <trkpt lat="39.427694763281" lon="2.897499783708">
        <ele>90.8</ele>
        <time>2014-05-03T12:42:40Z</time>
      </trkpt>
      <trkpt lat="39.427519581571" lon="2.89731102332">
        <ele>90.8</ele>
        <time>2014-05-03T12:42:42Z</time>
      </trkpt>
      <trkpt lat="39.427362420946" lon="2.897123855493">
        <ele>90.8</ele>
        <time>2014-05-03T12:42:44Z</time>
      </trkpt>
      <trkpt lat="39.427060840184" lon="2.896739796835">
        <ele>90.8</ele>
        <time>2014-05-03T12:42:48Z</time>
      </trkpt>
      <trkpt lat="39.426874929642" lon="2.896409633794">
        <ele>90.8</ele>
        <time>2014-05-03T12:42:51Z</time>
      </trkpt>
      <trkpt lat="39.426757583042" lon="2.89619874519">
        <ele>90.8</ele>
        <time>2014-05-03T12:42:53Z</time>
      </trkpt>
      <trkpt lat="39.426405878518" lon="2.895554344718">
        <ele>90.8</ele>
        <time>2014-05-03T12:42:59Z</time>
      </trkpt>
      <trkpt lat="39.426348043408" lon="2.895454683927">
        <ele>90.8</ele>
        <time>2014-05-03T12:43:00Z</time>
      </trkpt>
      <trkpt lat="39.426232540826" lon="2.895249159739">
        <ele>90.8</ele>
        <time>2014-05-03T12:43:02Z</time>
      </trkpt>
      <trkpt lat="39.426172861698" lon="2.895148409301">
        <ele>90.8</ele>
        <time>2014-05-03T12:43:03Z</time>
      </trkpt>
      <trkpt lat="39.426110081267" lon="2.895048664691">
        <ele>90.8</ele>
        <time>2014-05-03T12:43:04Z</time>
      </trkpt>
      <trkpt lat="39.425913022798" lon="2.894776755855">
        <ele>90.8</ele>
        <time>2014-05-03T12:43:07Z</time>
      </trkpt>
      <trkpt lat="39.425575483685" lon="2.894464781537">
        <ele>90.4</ele>
        <time>2014-05-03T12:43:11Z</time>
      </trkpt>
      <trkpt lat="39.425476325808" lon="2.894394541215">
        <ele>90</ele>
        <time>2014-05-03T12:43:12Z</time>
      </trkpt>
      <trkpt lat="39.425381526519" lon="2.894336203191">
        <ele>89.4</ele>
        <time>2014-05-03T12:43:13Z</time>
      </trkpt>
      <trkpt lat="39.425284715574" lon="2.894287085257">
        <ele>89</ele>
        <time>2014-05-03T12:43:14Z</time>
      </trkpt>
      <trkpt lat="39.425187653172" lon="2.894241320083">
        <ele>88.6</ele>
        <time>2014-05-03T12:43:15Z</time>
      </trkpt>
      <trkpt lat="39.425089333485" lon="2.894203350076">
        <ele>88.6</ele>
        <time>2014-05-03T12:43:16Z</time>
      </trkpt>
      <trkpt lat="39.424986571391" lon="2.894169906295">
        <ele>88.6</ele>
        <time>2014-05-03T12:43:17Z</time>
      </trkpt>
      <trkpt lat="39.424880624175" lon="2.894141240197">
        <ele>88.6</ele>
        <time>2014-05-03T12:43:18Z</time>
      </trkpt>
      <trkpt lat="39.424765540688" lon="2.89412254856">
        <ele>88</ele>
        <time>2014-05-03T12:43:19Z</time>
      </trkpt>
      <trkpt lat="39.424651882124" lon="2.894113831384">
        <ele>87.6</ele>
        <time>2014-05-03T12:43:20Z</time>
      </trkpt>
      <trkpt lat="39.424542665967" lon="2.894112071185">
        <ele>87.2</ele>
        <time>2014-05-03T12:43:21Z</time>
      </trkpt>
      <trkpt lat="39.424430767602" lon="2.894109891891">
        <ele>86.8</ele>
        <time>2014-05-03T12:43:22Z</time>
      </trkpt>
      <trkpt lat="39.424321635264" lon="2.894123805845">
        <ele>86.4</ele>
        <time>2014-05-03T12:43:23Z</time>
      </trkpt>
      <trkpt lat="39.424107812995" lon="2.894173594331">
        <ele>86.4</ele>
        <time>2014-05-03T12:43:25Z</time>
      </trkpt>
      <trkpt lat="39.423883261894" lon="2.894246013947">
        <ele>86.4</ele>
        <time>2014-05-03T12:43:27Z</time>
      </trkpt>
      <trkpt lat="39.423781505628" lon="2.894301585944">
        <ele>86.4</ele>
        <time>2014-05-03T12:43:28Z</time>
      </trkpt>
      <trkpt lat="39.423683437398" lon="2.894356571208">
        <ele>86</ele>
        <time>2014-05-03T12:43:29Z</time>
      </trkpt>
      <trkpt lat="39.423585452987" lon="2.894416417974">
        <ele>85.6</ele>
        <time>2014-05-03T12:43:30Z</time>
      </trkpt>
      <trkpt lat="39.423489228775" lon="2.894484562821">
        <ele>85.2</ele>
        <time>2014-05-03T12:43:31Z</time>
      </trkpt>
      <trkpt lat="39.423390238536" lon="2.894554719324">
        <ele>84.6</ele>
        <time>2014-05-03T12:43:32Z</time>
      </trkpt>
      <trkpt lat="39.423293679048" lon="2.894620517239">
        <ele>85</ele>
        <time>2014-05-03T12:43:33Z</time>
      </trkpt>
      <trkpt lat="39.423200053225" lon="2.894686147516">
        <ele>85.4</ele>
        <time>2014-05-03T12:43:34Z</time>
      </trkpt>
      <trkpt lat="39.423101901176" lon="2.894753621811">
        <ele>85.8</ele>
        <time>2014-05-03T12:43:35Z</time>
      </trkpt>
      <trkpt lat="39.423003162394" lon="2.894818413898">
        <ele>86.2</ele>
        <time>2014-05-03T12:43:36Z</time>
      </trkpt>
      <trkpt lat="39.422904255974" lon="2.894883708899">
        <ele>86.6</ele>
        <time>2014-05-03T12:43:37Z</time>
      </trkpt>
      <trkpt lat="39.422806103925" lon="2.894951434651">
        <ele>86.6</ele>
        <time>2014-05-03T12:43:38Z</time>
      </trkpt>
      <trkpt lat="39.422519610583" lon="2.895157797029">
        <ele>86.6</ele>
        <time>2014-05-03T12:43:41Z</time>
      </trkpt>
      <trkpt lat="39.422421290896" lon="2.895222589116">
        <ele>86.6</ele>
        <time>2014-05-03T12:43:42Z</time>
      </trkpt>
      <trkpt lat="39.42231534368" lon="2.89529433818">
        <ele>86.6</ele>
        <time>2014-05-03T12:43:43Z</time>
      </trkpt>
      <trkpt lat="39.421826595091" lon="2.895632296388">
        <ele>86.6</ele>
        <time>2014-05-03T12:43:48Z</time>
      </trkpt>
      <trkpt lat="39.421631967373" lon="2.895766574426">
        <ele>86.6</ele>
        <time>2014-05-03T12:43:50Z</time>
      </trkpt>
      <trkpt lat="39.421340612529" lon="2.895970086958">
        <ele>86.6</ele>
        <time>2014-05-03T12:43:53Z</time>
      </trkpt>
      <trkpt lat="39.42124665143" lon="2.896035801054">
        <ele>86.6</ele>
        <time>2014-05-03T12:43:54Z</time>
      </trkpt>
      <trkpt lat="39.421145900992" lon="2.896098665304">
        <ele>86.2</ele>
        <time>2014-05-03T12:43:55Z</time>
      </trkpt>
      <trkpt lat="39.421048587133" lon="2.896164211762">
        <ele>85.8</ele>
        <time>2014-05-03T12:43:56Z</time>
      </trkpt>
      <trkpt lat="39.420951860007" lon="2.896232105152">
        <ele>85.4</ele>
        <time>2014-05-03T12:43:57Z</time>
      </trkpt>
      <trkpt lat="39.420847505352" lon="2.896298070705">
        <ele>85</ele>
        <time>2014-05-03T12:43:58Z</time>
      </trkpt>
      <trkpt lat="39.420742312507" lon="2.896371160873">
        <ele>84.6</ele>
        <time>2014-05-03T12:43:59Z</time>
      </trkpt>
      <trkpt lat="39.42064399282" lon="2.896437880797">
        <ele>84.6</ele>
        <time>2014-05-03T12:44:00Z</time>
      </trkpt>
      <trkpt lat="39.420546678961" lon="2.89650468454">
        <ele>84.6</ele>
        <time>2014-05-03T12:44:01Z</time>
      </trkpt>
      <trkpt lat="39.420450119473" lon="2.896571991197">
        <ele>84.6</ele>
        <time>2014-05-03T12:44:02Z</time>
      </trkpt>
      <trkpt lat="39.420164212864" lon="2.89676703801">
        <ele>84.6</ele>
        <time>2014-05-03T12:44:05Z</time>
      </trkpt>
      <trkpt lat="39.420062875693" lon="2.89683660778">
        <ele>84</ele>
        <time>2014-05-03T12:44:06Z</time>
      </trkpt>
      <trkpt lat="39.419966986757" lon="2.896901316048">
        <ele>83.6</ele>
        <time>2014-05-03T12:44:07Z</time>
      </trkpt>
      <trkpt lat="39.419875707866" lon="2.896964515574">
        <ele>83.2</ele>
        <time>2014-05-03T12:44:08Z</time>
      </trkpt>
      <trkpt lat="39.419788619925" lon="2.897028134195">
        <ele>82.8</ele>
        <time>2014-05-03T12:44:09Z</time>
      </trkpt>
      <trkpt lat="39.419698598319" lon="2.897086891314">
        <ele>82.2</ele>
        <time>2014-05-03T12:44:10Z</time>
      </trkpt>
      <trkpt lat="39.419328285977" lon="2.897334911735">
        <ele>82.2</ele>
        <time>2014-05-03T12:44:14Z</time>
      </trkpt>
      <trkpt lat="39.419229882471" lon="2.897402721306">
        <ele>82.2</ele>
        <time>2014-05-03T12:44:15Z</time>
      </trkpt>
      <trkpt lat="39.41912938349" lon="2.897470447058">
        <ele>81.8</ele>
        <time>2014-05-03T12:44:16Z</time>
      </trkpt>
      <trkpt lat="39.419028549233" lon="2.897537669896">
        <ele>81.4</ele>
        <time>2014-05-03T12:44:17Z</time>
      </trkpt>
      <trkpt lat="39.418924697492" lon="2.897605563286">
        <ele>81</ele>
        <time>2014-05-03T12:44:18Z</time>
      </trkpt>
      <trkpt lat="39.418819337009" lon="2.897675971246">
        <ele>80.6</ele>
        <time>2014-05-03T12:44:19Z</time>
      </trkpt>
      <trkpt lat="39.418712216327" lon="2.897747049758">
        <ele>80</ele>
        <time>2014-05-03T12:44:20Z</time>
      </trkpt>
      <trkpt lat="39.41860551474" lon="2.897818631184">
        <ele>79.6</ele>
        <time>2014-05-03T12:44:21Z</time>
      </trkpt>
      <trkpt lat="39.41849235909" lon="2.897894068284">
        <ele>79</ele>
        <time>2014-05-03T12:44:22Z</time>
      </trkpt>
      <trkpt lat="39.418383645847" lon="2.897965230615">
        <ele>78.6</ele>
        <time>2014-05-03T12:44:23Z</time>
      </trkpt>
      <trkpt lat="39.418278704459" lon="2.89803521948">
        <ele>78</ele>
        <time>2014-05-03T12:44:24Z</time>
      </trkpt>
      <trkpt lat="39.418174936537" lon="2.898105040707">
        <ele>77.6</ele>
        <time>2014-05-03T12:44:25Z</time>
      </trkpt>
      <trkpt lat="39.41807745504" lon="2.898178633789">
        <ele>77</ele>
        <time>2014-05-03T12:44:26Z</time>
      </trkpt>
      <trkpt lat="39.417978632439" lon="2.898246108084">
        <ele>76.4</ele>
        <time>2014-05-03T12:44:27Z</time>
      </trkpt>
      <trkpt lat="39.417877714363" lon="2.898317438053">
        <ele>76</ele>
        <time>2014-05-03T12:44:28Z</time>
      </trkpt>
      <trkpt lat="39.417776628649" lon="2.89838893566">
        <ele>75.6</ele>
        <time>2014-05-03T12:44:29Z</time>
      </trkpt>
      <trkpt lat="39.417671603442" lon="2.89846269638">
        <ele>75</ele>
        <time>2014-05-03T12:44:30Z</time>
      </trkpt>
      <trkpt lat="39.417573283755" lon="2.898532517607">
        <ele>74.6</ele>
        <time>2014-05-03T12:44:31Z</time>
      </trkpt>
      <trkpt lat="39.417469934928" lon="2.898595717133">
        <ele>74.2</ele>
        <time>2014-05-03T12:44:32Z</time>
      </trkpt>
      <trkpt lat="39.417368933033" lon="2.898665119265">
        <ele>73.8</ele>
        <time>2014-05-03T12:44:33Z</time>
      </trkpt>
      <trkpt lat="39.417271032441" lon="2.898738879985">
        <ele>73.4</ele>
        <time>2014-05-03T12:44:34Z</time>
      </trkpt>
      <trkpt lat="39.417178580084" lon="2.898811886334">
        <ele>73</ele>
        <time>2014-05-03T12:44:35Z</time>
      </trkpt>
      <trkpt lat="39.41708252351" lon="2.898870811091">
        <ele>72.6</ele>
        <time>2014-05-03T12:44:36Z</time>
      </trkpt>
      <trkpt lat="39.416981270158" lon="2.898936441368">
        <ele>72.2</ele>
        <time>2014-05-03T12:44:37Z</time>
      </trkpt>
      <trkpt lat="39.416890326543" lon="2.899003999482">
        <ele>71.8</ele>
        <time>2014-05-03T12:44:38Z</time>
      </trkpt>
      <trkpt lat="39.416797874186" lon="2.899069965035">
        <ele>71.8</ele>
        <time>2014-05-03T12:44:39Z</time>
      </trkpt>
      <trkpt lat="39.416702236707" lon="2.899136433502">
        <ele>71.8</ele>
        <time>2014-05-03T12:44:40Z</time>
      </trkpt>
      <trkpt lat="39.416511045568" lon="2.89926903516">
        <ele>71.8</ele>
        <time>2014-05-03T12:44:42Z</time>
      </trkpt>
      <trkpt lat="39.416418593211" lon="2.899332318505">
        <ele>71.8</ele>
        <time>2014-05-03T12:44:43Z</time>
      </trkpt>
      <trkpt lat="39.416328571605" lon="2.899397697325">
        <ele>71.8</ele>
        <time>2014-05-03T12:44:44Z</time>
      </trkpt>
      <trkpt lat="39.415779054241" lon="2.899789299693">
        <ele>71.2</ele>
        <time>2014-05-03T12:44:50Z</time>
      </trkpt>
      <trkpt lat="39.415684757866" lon="2.89986247368">
        <ele>70.8</ele>
        <time>2014-05-03T12:44:51Z</time>
      </trkpt>
      <trkpt lat="39.41559389807" lon="2.899934138925">
        <ele>70.4</ele>
        <time>2014-05-03T12:44:52Z</time>
      </trkpt>
      <trkpt lat="39.415499517876" lon="2.900007648188">
        <ele>70</ele>
        <time>2014-05-03T12:44:53Z</time>
      </trkpt>
      <trkpt lat="39.415412765211" lon="2.900075960673">
        <ele>69.4</ele>
        <time>2014-05-03T12:44:54Z</time>
      </trkpt>
      <trkpt lat="39.415059384307" lon="2.900341331627">
        <ele>69.4</ele>
        <time>2014-05-03T12:44:58Z</time>
      </trkpt>
      <trkpt lat="39.414698375874" lon="2.900614916843">
        <ele>69.4</ele>
        <time>2014-05-03T12:45:02Z</time>
      </trkpt>
      <trkpt lat="39.414428730151" lon="2.900819016108">
        <ele>69.4</ele>
        <time>2014-05-03T12:45:05Z</time>
      </trkpt>
      <trkpt lat="39.414336864527" lon="2.900888082964">
        <ele>69</ele>
        <time>2014-05-03T12:45:06Z</time>
      </trkpt>
      <trkpt lat="39.41424692674" lon="2.900955389621">
        <ele>68.6</ele>
        <time>2014-05-03T12:45:07Z</time>
      </trkpt>
      <trkpt lat="39.414160006437" lon="2.901023115373">
        <ele>68.2</ele>
        <time>2014-05-03T12:45:08Z</time>
      </trkpt>
      <trkpt lat="39.414071409754" lon="2.901091930772">
        <ele>67.6</ele>
        <time>2014-05-03T12:45:09Z</time>
      </trkpt>
      <trkpt lat="39.413978957397" lon="2.901157980144">
        <ele>67.2</ele>
        <time>2014-05-03T12:45:10Z</time>
      </trkpt>
      <trkpt lat="39.413710233683" lon="2.901364845436">
        <ele>67.2</ele>
        <time>2014-05-03T12:45:13Z</time>
      </trkpt>
      <trkpt lat="39.41316649983" lon="2.901799363132">
        <ele>67.2</ele>
        <time>2014-05-03T12:45:19Z</time>
      </trkpt>
      <trkpt lat="39.412666435676" lon="2.902286183884">
        <ele>67.2</ele>
        <time>2014-05-03T12:45:25Z</time>
      </trkpt>
      <trkpt lat="39.412500390237" lon="2.902440662301">
        <ele>67.2</ele>
        <time>2014-05-03T12:45:27Z</time>
      </trkpt>
      <trkpt lat="39.412420175454" lon="2.902517356686">
        <ele>67.2</ele>
        <time>2014-05-03T12:45:28Z</time>
      </trkpt>
      <trkpt lat="39.412336272635" lon="2.902594805442">
        <ele>67.2</ele>
        <time>2014-05-03T12:45:29Z</time>
      </trkpt>
      <trkpt lat="39.412247424495" lon="2.902673846759">
        <ele>67.2</ele>
        <time>2014-05-03T12:45:30Z</time>
      </trkpt>
      <trkpt lat="39.412082049608" lon="2.902827570805">
        <ele>67.2</ele>
        <time>2014-05-03T12:45:32Z</time>
      </trkpt>
      <trkpt lat="39.412002673015" lon="2.902903175543">
        <ele>67.2</ele>
        <time>2014-05-03T12:45:33Z</time>
      </trkpt>
      <trkpt lat="39.411921452404" lon="2.902980205204">
        <ele>67.2</ele>
        <time>2014-05-03T12:45:34Z</time>
      </trkpt>
      <trkpt lat="39.411443432647" lon="2.903436599659">
        <ele>67.2</ele>
        <time>2014-05-03T12:45:40Z</time>
      </trkpt>
      <trkpt lat="39.411289540963" lon="2.90357900814">
        <ele>67.2</ele>
        <time>2014-05-03T12:45:42Z</time>
      </trkpt>
      <trkpt lat="39.410908918884" lon="2.903935909442">
        <ele>67.2</ele>
        <time>2014-05-03T12:45:47Z</time>
      </trkpt>
      <trkpt lat="39.410832224499" lon="2.904008664334">
        <ele>67.2</ele>
        <time>2014-05-03T12:45:48Z</time>
      </trkpt>
      <trkpt lat="39.410757374132" lon="2.904079826665">
        <ele>67.2</ele>
        <time>2014-05-03T12:45:49Z</time>
      </trkpt>
      <trkpt lat="39.410301314953" lon="2.9045127518">
        <ele>66.8</ele>
        <time>2014-05-03T12:45:55Z</time>
      </trkpt>
      <trkpt lat="39.410222022179" lon="2.904585003778">
        <ele>66.2</ele>
        <time>2014-05-03T12:45:56Z</time>
      </trkpt>
      <trkpt lat="39.410143316138" lon="2.904655076462">
        <ele>65.8</ele>
        <time>2014-05-03T12:45:57Z</time>
      </trkpt>
      <trkpt lat="39.410065699744" lon="2.904728250449">
        <ele>65.4</ele>
        <time>2014-05-03T12:45:58Z</time>
      </trkpt>
      <trkpt lat="39.409988670083" lon="2.90480276554">
        <ele>65</ele>
        <time>2014-05-03T12:45:59Z</time>
      </trkpt>
      <trkpt lat="39.409594385507" lon="2.905178609936">
        <ele>65</ele>
        <time>2014-05-03T12:46:04Z</time>
      </trkpt>
      <trkpt lat="39.409515763285" lon="2.905249772267">
        <ele>65</ele>
        <time>2014-05-03T12:46:05Z</time>
      </trkpt>
      <trkpt lat="39.409433536846" lon="2.905313139431">
        <ele>64.6</ele>
        <time>2014-05-03T12:46:06Z</time>
      </trkpt>
      <trkpt lat="39.409350472217" lon="2.90536938198">
        <ele>64.2</ele>
        <time>2014-05-03T12:46:07Z</time>
      </trkpt>
      <trkpt lat="39.409259947697" lon="2.905421265941">
        <ele>63.8</ele>
        <time>2014-05-03T12:46:08Z</time>
      </trkpt>
      <trkpt lat="39.409173111213" lon="2.905465690011">
        <ele>63.2</ele>
        <time>2014-05-03T12:46:09Z</time>
      </trkpt>
      <trkpt lat="39.409085436539" lon="2.90550935971">
        <ele>62.8</ele>
        <time>2014-05-03T12:46:10Z</time>
      </trkpt>
      <trkpt lat="39.408897430522" lon="2.905567027182">
        <ele>62.8</ele>
        <time>2014-05-03T12:46:12Z</time>
      </trkpt>
      <trkpt lat="39.40870062351" lon="2.905595609461">
        <ele>62.8</ele>
        <time>2014-05-03T12:46:14Z</time>
      </trkpt>
      <trkpt lat="39.408599873072" lon="2.905592508158">
        <ele>62.8</ele>
        <time>2014-05-03T12:46:15Z</time>
      </trkpt>
      <trkpt lat="39.408384709699" lon="2.905584545353">
        <ele>62</ele>
        <time>2014-05-03T12:46:17Z</time>
      </trkpt>
      <trkpt lat="39.408278008112" lon="2.905587562837">
        <ele>61.6</ele>
        <time>2014-05-03T12:46:18Z</time>
      </trkpt>
      <trkpt lat="39.408170468335" lon="2.905591250873">
        <ele>61.2</ele>
        <time>2014-05-03T12:46:19Z</time>
      </trkpt>
      <trkpt lat="39.408058234694" lon="2.90558982595">
        <ele>60.8</ele>
        <time>2014-05-03T12:46:20Z</time>
      </trkpt>
      <trkpt lat="39.407617849668" lon="2.905593094891">
        <ele>60.8</ele>
        <time>2014-05-03T12:46:24Z</time>
      </trkpt>
      <trkpt lat="39.407499748697" lon="2.905593430167">
        <ele>60.8</ele>
        <time>2014-05-03T12:46:25Z</time>
      </trkpt>
      <trkpt lat="39.407386425409" lon="2.905594687452">
        <ele>60.8</ele>
        <time>2014-05-03T12:46:26Z</time>
      </trkpt>
      <trkpt lat="39.407273856492" lon="2.905598459307">
        <ele>60.8</ele>
        <time>2014-05-03T12:46:27Z</time>
      </trkpt>
      <trkpt lat="39.407162628679" lon="2.905599548954">
        <ele>60.8</ele>
        <time>2014-05-03T12:46:28Z</time>
      </trkpt>
      <trkpt lat="39.406728194802" lon="2.905598124031">
        <ele>60.4</ele>
        <time>2014-05-03T12:46:32Z</time>
      </trkpt>
      <trkpt lat="39.406610010012" lon="2.905601057696">
        <ele>60</ele>
        <time>2014-05-03T12:46:33Z</time>
      </trkpt>
      <trkpt lat="39.406501129131" lon="2.905603404628">
        <ele>59.6</ele>
        <time>2014-05-03T12:46:34Z</time>
      </trkpt>
      <trkpt lat="39.406394008449" lon="2.905606338293">
        <ele>59</ele>
        <time>2014-05-03T12:46:35Z</time>
      </trkpt>
      <trkpt lat="39.406289905251" lon="2.905604661913">
        <ele>58.6</ele>
        <time>2014-05-03T12:46:36Z</time>
      </trkpt>
      <trkpt lat="39.406177923067" lon="2.90560575156">
        <ele>58.6</ele>
        <time>2014-05-03T12:46:37Z</time>
      </trkpt>
      <trkpt lat="39.406067784901" lon="2.905604578094">
        <ele>58.6</ele>
        <time>2014-05-03T12:46:38Z</time>
      </trkpt>
      <trkpt lat="39.405956976183" lon="2.905604829551">
        <ele>58.6</ele>
        <time>2014-05-03T12:46:39Z</time>
      </trkpt>
      <trkpt lat="39.405456912029" lon="2.905611451252">
        <ele>58.6</ele>
        <time>2014-05-03T12:46:44Z</time>
      </trkpt>
      <trkpt lat="39.405358089428" lon="2.905615558383">
        <ele>58.6</ele>
        <time>2014-05-03T12:46:45Z</time>
      </trkpt>
      <trkpt lat="39.405053742639" lon="2.905620671342">
        <ele>58.6</ele>
        <time>2014-05-03T12:46:48Z</time>
      </trkpt>
      <trkpt lat="39.404955674409" lon="2.905626119577">
        <ele>58.6</ele>
        <time>2014-05-03T12:46:49Z</time>
      </trkpt>
      <trkpt lat="39.404859617835" lon="2.905627963595">
        <ele>58.6</ele>
        <time>2014-05-03T12:46:50Z</time>
      </trkpt>
      <trkpt lat="39.404664403384" lon="2.905624778473">
        <ele>58.6</ele>
        <time>2014-05-03T12:46:52Z</time>
      </trkpt>
      <trkpt lat="39.404272214283" lon="2.905635339667">
        <ele>58.6</ele>
        <time>2014-05-03T12:46:56Z</time>
      </trkpt>
      <trkpt lat="39.404174648967" lon="2.905638105694">
        <ele>58.6</ele>
        <time>2014-05-03T12:46:57Z</time>
      </trkpt>
      <trkpt lat="39.404078173298" lon="2.905642715739">
        <ele>58.6</ele>
        <time>2014-05-03T12:46:58Z</time>
      </trkpt>
      <trkpt lat="39.403982452" lon="2.905641877549">
        <ele>58.6</ele>
        <time>2014-05-03T12:46:59Z</time>
      </trkpt>
      <trkpt lat="39.403593112745" lon="2.905648750707">
        <ele>58.6</ele>
        <time>2014-05-03T12:47:02Z</time>
      </trkpt>
      <trkpt lat="39.403395886638" lon="2.905660820643">
        <ele>58.6</ele>
        <time>2014-05-03T12:47:05Z</time>
      </trkpt>
      <trkpt lat="39.402907808601" lon="2.905671381837">
        <ele>58.6</ele>
        <time>2014-05-03T12:47:10Z</time>
      </trkpt>
      <trkpt lat="39.402511260912" lon="2.905679260823">
        <ele>58.6</ele>
        <time>2014-05-03T12:47:14Z</time>
      </trkpt>
      <trkpt lat="39.402415455795" lon="2.905684625239">
        <ele>58.6</ele>
        <time>2014-05-03T12:47:15Z</time>
      </trkpt>
      <trkpt lat="39.402319650678" lon="2.905693845329">
        <ele>58.6</ele>
        <time>2014-05-03T12:47:16Z</time>
      </trkpt>
      <trkpt lat="39.402219570792" lon="2.905705077075">
        <ele>58.6</ele>
        <time>2014-05-03T12:47:17Z</time>
      </trkpt>
      <trkpt lat="39.402123765675" lon="2.905715638269">
        <ele>58.6</ele>
        <time>2014-05-03T12:47:18Z</time>
      </trkpt>
      <trkpt lat="39.402026200359" lon="2.905729552223">
        <ele>58.6</ele>
        <time>2014-05-03T12:47:19Z</time>
      </trkpt>
      <trkpt lat="39.401852359753" lon="2.905746064566">
        <ele>58.6</ele>
        <time>2014-05-03T12:47:21Z</time>
      </trkpt>
      <trkpt lat="39.401681871907" lon="2.905752853905">
        <ele>58.6</ele>
        <time>2014-05-03T12:47:23Z</time>
      </trkpt>
      <trkpt lat="39.401227153832" lon="2.905803396762">
        <ele>58.6</ele>
        <time>2014-05-03T12:47:28Z</time>
      </trkpt>
      <trkpt lat="39.401141155538" lon="2.905811778662">
        <ele>58.6</ele>
        <time>2014-05-03T12:47:29Z</time>
      </trkpt>
      <trkpt lat="39.400704207091" lon="2.905855113085">
        <ele>58.6</ele>
        <time>2014-05-03T12:47:34Z</time>
      </trkpt>
      <trkpt lat="39.400618627892" lon="2.905867099202">
        <ele>58.6</ele>
        <time>2014-05-03T12:47:35Z</time>
      </trkpt>
      <trkpt lat="39.400292404344" lon="2.905919066982">
        <ele>58.6</ele>
        <time>2014-05-03T12:47:39Z</time>
      </trkpt>
      <trkpt lat="39.400209172077" lon="2.905933902945">
        <ele>58.6</ele>
        <time>2014-05-03T12:47:40Z</time>
      </trkpt>
      <trkpt lat="39.400128538199" lon="2.905948152175">
        <ele>59</ele>
        <time>2014-05-03T12:47:41Z</time>
      </trkpt>
      <trkpt lat="39.40004128262" lon="2.905963574871">
        <ele>59.6</ele>
        <time>2014-05-03T12:47:42Z</time>
      </trkpt>
      <trkpt lat="39.399956457792" lon="2.90597287878">
        <ele>60</ele>
        <time>2014-05-03T12:47:43Z</time>
      </trkpt>
      <trkpt lat="39.399869956584" lon="2.905983188517">
        <ele>60.4</ele>
        <time>2014-05-03T12:47:44Z</time>
      </trkpt>
      <trkpt lat="39.399784377385" lon="2.905993498254">
        <ele>60.8</ele>
        <time>2014-05-03T12:47:45Z</time>
      </trkpt>
      <trkpt lat="39.399535267317" lon="2.906032054994">
        <ele>60.8</ele>
        <time>2014-05-03T12:47:48Z</time>
      </trkpt>
      <trkpt lat="39.399447173548" lon="2.906049405527">
        <ele>60.8</ele>
        <time>2014-05-03T12:47:49Z</time>
      </trkpt>
      <trkpt lat="39.3989700758" lon="2.906148228128">
        <ele>60.8</ele>
        <time>2014-05-03T12:47:55Z</time>
      </trkpt>
      <trkpt lat="39.398890531569" lon="2.90615979515">
        <ele>60.8</ele>
        <time>2014-05-03T12:47:56Z</time>
      </trkpt>
      <trkpt lat="39.398483841781" lon="2.906244955254">
        <ele>60.8</ele>
        <time>2014-05-03T12:48:01Z</time>
      </trkpt>
      <trkpt lat="39.398318131618" lon="2.906276471198">
        <ele>60.8</ele>
        <time>2014-05-03T12:48:03Z</time>
      </trkpt>
      <trkpt lat="39.398237078645" lon="2.906293234998">
        <ele>60.8</ele>
        <time>2014-05-03T12:48:04Z</time>
      </trkpt>
      <trkpt lat="39.397765680589" lon="2.906383088966">
        <ele>60.8</ele>
        <time>2014-05-03T12:48:10Z</time>
      </trkpt>
      <trkpt lat="39.397687561281" lon="2.906397924929">
        <ele>60.8</ele>
        <time>2014-05-03T12:48:11Z</time>
      </trkpt>
      <trkpt lat="39.397610112525" lon="2.906409994865">
        <ele>60.8</ele>
        <time>2014-05-03T12:48:12Z</time>
      </trkpt>
      <trkpt lat="39.397288750479" lon="2.906474870771">
        <ele>60.8</ele>
        <time>2014-05-03T12:48:16Z</time>
      </trkpt>
      <trkpt lat="39.397129578198" lon="2.906503285412">
        <ele>60.4</ele>
        <time>2014-05-03T12:48:18Z</time>
      </trkpt>
      <trkpt lat="39.397051794166" lon="2.906517534642">
        <ele>59.6</ele>
        <time>2014-05-03T12:48:19Z</time>
      </trkpt>
      <trkpt lat="39.396967388433" lon="2.906533208795">
        <ele>59</ele>
        <time>2014-05-03T12:48:20Z</time>
      </trkpt>
      <trkpt lat="39.396887257469" lon="2.906545781645">
        <ele>58.6</ele>
        <time>2014-05-03T12:48:21Z</time>
      </trkpt>
      <trkpt lat="39.396652312812" lon="2.906598252339">
        <ele>58.6</ele>
        <time>2014-05-03T12:48:24Z</time>
      </trkpt>
      <trkpt lat="39.396577546264" lon="2.906614513225">
        <ele>58.6</ele>
        <time>2014-05-03T12:48:25Z</time>
      </trkpt>
      <trkpt lat="39.396294321863" lon="2.906656674182">
        <ele>58.6</ele>
        <time>2014-05-03T12:48:29Z</time>
      </trkpt>
      <trkpt lat="39.39598276664" lon="2.906730853997">
        <ele>58.6</ele>
        <time>2014-05-03T12:48:33Z</time>
      </trkpt>
      <trkpt lat="39.395905820798" lon="2.906752982213">
        <ele>58.6</ele>
        <time>2014-05-03T12:48:34Z</time>
      </trkpt>
      <trkpt lat="39.395733321296" lon="2.906799585577">
        <ele>58.6</ele>
        <time>2014-05-03T12:48:36Z</time>
      </trkpt>
      <trkpt lat="39.395457892062" lon="2.90687812398">
        <ele>58.6</ele>
        <time>2014-05-03T12:48:39Z</time>
      </trkpt>
      <trkpt lat="39.395359069461" lon="2.906901677119">
        <ele>58.6</ele>
        <time>2014-05-03T12:48:40Z</time>
      </trkpt>
      <trkpt lat="39.39525857048" lon="2.906926655181">
        <ele>58.2</ele>
        <time>2014-05-03T12:48:41Z</time>
      </trkpt>
      <trkpt lat="39.395158574413" lon="2.906960937152">
        <ele>57.6</ele>
        <time>2014-05-03T12:48:42Z</time>
      </trkpt>
      <trkpt lat="39.395054135939" lon="2.906987759232">
        <ele>57.2</ele>
        <time>2014-05-03T12:48:43Z</time>
      </trkpt>
      <trkpt lat="39.39494005828" lon="2.907018604624">
        <ele>56</ele>
        <time>2014-05-03T12:48:44Z</time>
      </trkpt>
      <trkpt lat="39.394832853779" lon="2.907048947102">
        <ele>55.2</ele>
        <time>2014-05-03T12:48:45Z</time>
      </trkpt>
      <trkpt lat="39.394726822744" lon="2.907080798322">
        <ele>54.6</ele>
        <time>2014-05-03T12:48:46Z</time>
      </trkpt>
      <trkpt lat="39.394623976831" lon="2.907111476076">
        <ele>54</ele>
        <time>2014-05-03T12:48:47Z</time>
      </trkpt>
      <trkpt lat="39.394479808151" lon="2.907150032816">
        <ele>54</ele>
        <time>2014-05-03T12:48:49Z</time>
      </trkpt>
      <trkpt lat="39.394098180244" lon="2.907265786855">
        <ele>54</ele>
        <time>2014-05-03T12:48:52Z</time>
      </trkpt>
      <trkpt lat="39.393998519453" lon="2.907290178184">
        <ele>53.4</ele>
        <time>2014-05-03T12:48:53Z</time>
      </trkpt>
      <trkpt lat="39.393902295241" lon="2.907313647504">
        <ele>52.8</ele>
        <time>2014-05-03T12:48:54Z</time>
      </trkpt>
      <trkpt lat="39.393805400477" lon="2.907336362453">
        <ele>52.2</ele>
        <time>2014-05-03T12:48:55Z</time>
      </trkpt>
      <trkpt lat="39.393712193749" lon="2.907366704931">
        <ele>51.6</ele>
        <time>2014-05-03T12:48:56Z</time>
      </trkpt>
      <trkpt lat="39.393621166315" lon="2.90739444902">
        <ele>51</ele>
        <time>2014-05-03T12:48:57Z</time>
      </trkpt>
      <trkpt lat="39.393526283207" lon="2.907413895028">
        <ele>51</ele>
        <time>2014-05-03T12:48:58Z</time>
      </trkpt>
      <trkpt lat="39.39323098887" lon="2.907489415947">
        <ele>51</ele>
        <time>2014-05-03T12:49:01Z</time>
      </trkpt>
      <trkpt lat="39.392832345706" lon="2.907614138619">
        <ele>51</ele>
        <time>2014-05-03T12:49:05Z</time>
      </trkpt>
      <trkpt lat="39.392449544333" lon="2.907716649256">
        <ele>51</ele>
        <time>2014-05-03T12:49:09Z</time>
      </trkpt>
      <trkpt lat="39.392264471981" lon="2.907769371407">
        <ele>51</ele>
        <time>2014-05-03T12:49:11Z</time>
      </trkpt>
      <trkpt lat="39.392174618013" lon="2.90779426565">
        <ele>51</ele>
        <time>2014-05-03T12:49:12Z</time>
      </trkpt>
      <trkpt lat="39.392083590579" lon="2.907818237884">
        <ele>51</ele>
        <time>2014-05-03T12:49:13Z</time>
      </trkpt>
      <trkpt lat="39.391883598445" lon="2.907868948379">
        <ele>50.4</ele>
        <time>2014-05-03T12:49:15Z</time>
      </trkpt>
      <trkpt lat="39.391781423084" lon="2.907896189554">
        <ele>50</ele>
        <time>2014-05-03T12:49:16Z</time>
      </trkpt>
      <trkpt lat="39.391674218583" lon="2.907917395761">
        <ele>49.6</ele>
        <time>2014-05-03T12:49:17Z</time>
      </trkpt>
      <trkpt lat="39.391565253883" lon="2.907941116538">
        <ele>49</ele>
        <time>2014-05-03T12:49:18Z</time>
      </trkpt>
      <trkpt lat="39.391453439337" lon="2.907967268066">
        <ele>48.6</ele>
        <time>2014-05-03T12:49:19Z</time>
      </trkpt>
      <trkpt lat="39.391343804085" lon="2.907993671051">
        <ele>48</ele>
        <time>2014-05-03T12:49:20Z</time>
      </trkpt>
      <trkpt lat="39.391237689231" lon="2.908017056552">
        <ele>47.4</ele>
        <time>2014-05-03T12:49:21Z</time>
      </trkpt>
      <trkpt lat="39.391127299608" lon="2.90803901713">
        <ele>47</ele>
        <time>2014-05-03T12:49:22Z</time>
      </trkpt>
      <trkpt lat="39.39102487279" lon="2.908060307156">
        <ele>46.4</ele>
        <time>2014-05-03T12:49:23Z</time>
      </trkpt>
      <trkpt lat="39.390922697429" lon="2.908082183915">
        <ele>46.4</ele>
        <time>2014-05-03T12:49:24Z</time>
      </trkpt>
      <trkpt lat="39.390823288095" lon="2.908105737054">
        <ele>46</ele>
        <time>2014-05-03T12:49:25Z</time>
      </trkpt>
      <trkpt lat="39.390720945096" lon="2.908131804763">
        <ele>45.6</ele>
        <time>2014-05-03T12:49:26Z</time>
      </trkpt>
      <trkpt lat="39.390618685916" lon="2.908157285739">
        <ele>45.2</ele>
        <time>2014-05-03T12:49:27Z</time>
      </trkpt>
      <trkpt lat="39.390517935478" lon="2.908183521086">
        <ele>44.8</ele>
        <time>2014-05-03T12:49:28Z</time>
      </trkpt>
      <trkpt lat="39.390420453981" lon="2.90820414056">
        <ele>44.4</ele>
        <time>2014-05-03T12:49:29Z</time>
      </trkpt>
      <trkpt lat="39.390218031096" lon="2.908244876594">
        <ele>44.4</ele>
        <time>2014-05-03T12:49:31Z</time>
      </trkpt>
      <trkpt lat="39.390115101364" lon="2.908264406421">
        <ele>44.4</ele>
        <time>2014-05-03T12:49:32Z</time>
      </trkpt>
      <trkpt lat="39.389516549885" lon="2.90839189512">
        <ele>44.4</ele>
        <time>2014-05-03T12:49:38Z</time>
      </trkpt>
      <trkpt lat="39.389326448393" lon="2.908435229543">
        <ele>44.4</ele>
        <time>2014-05-03T12:49:40Z</time>
      </trkpt>
      <trkpt lat="39.389039871232" lon="2.908494657214">
        <ele>44.4</ele>
        <time>2014-05-03T12:49:43Z</time>
      </trkpt>
      <trkpt lat="39.388946915961" lon="2.90851343267">
        <ele>44.4</ele>
        <time>2014-05-03T12:49:44Z</time>
      </trkpt>
      <trkpt lat="39.388849853559" lon="2.908538159275">
        <ele>44</ele>
        <time>2014-05-03T12:49:45Z</time>
      </trkpt>
      <trkpt lat="39.388751030958" lon="2.908557605283">
        <ele>43.6</ele>
        <time>2014-05-03T12:49:46Z</time>
      </trkpt>
      <trkpt lat="39.38865028052" lon="2.908579984956">
        <ele>43.2</ele>
        <time>2014-05-03T12:49:47Z</time>
      </trkpt>
      <trkpt lat="39.388553637213" lon="2.908597084032">
        <ele>42.8</ele>
        <time>2014-05-03T12:49:48Z</time>
      </trkpt>
      <trkpt lat="39.388452886775" lon="2.908619966619">
        <ele>42.4</ele>
        <time>2014-05-03T12:49:49Z</time>
      </trkpt>
      <trkpt lat="39.388352890708" lon="2.908642430111">
        <ele>42.4</ele>
        <time>2014-05-03T12:49:50Z</time>
      </trkpt>
      <trkpt lat="39.388249709519" lon="2.908666569983">
        <ele>42.4</ele>
        <time>2014-05-03T12:49:51Z</time>
      </trkpt>
      <trkpt lat="39.388143929941" lon="2.90868609981">
        <ele>42.4</ele>
        <time>2014-05-03T12:49:52Z</time>
      </trkpt>
      <trkpt lat="39.387935472088" lon="2.908730440061">
        <ele>42.4</ele>
        <time>2014-05-03T12:49:54Z</time>
      </trkpt>
      <trkpt lat="39.387736150506" lon="2.908768577706">
        <ele>42.4</ele>
        <time>2014-05-03T12:49:56Z</time>
      </trkpt>
      <trkpt lat="39.387635064792" lon="2.908790454465">
        <ele>42.4</ele>
        <time>2014-05-03T12:49:57Z</time>
      </trkpt>
      <trkpt lat="39.387237762732" lon="2.908859940416">
        <ele>42.4</ele>
        <time>2014-05-03T12:50:01Z</time>
      </trkpt>
      <trkpt lat="39.387039195521" lon="2.908900508812">
        <ele>42.4</ele>
        <time>2014-05-03T12:50:03Z</time>
      </trkpt>
      <trkpt lat="39.386935427599" lon="2.908918781354">
        <ele>42.4</ele>
        <time>2014-05-03T12:50:04Z</time>
      </trkpt>
      <trkpt lat="39.386506022862" lon="2.909001091612">
        <ele>42.4</ele>
        <time>2014-05-03T12:50:08Z</time>
      </trkpt>
      <trkpt lat="39.386398734542" lon="2.909022130181">
        <ele>42.4</ele>
        <time>2014-05-03T12:50:09Z</time>
      </trkpt>
      <trkpt lat="39.386291697679" lon="2.909044677492">
        <ele>42.4</ele>
        <time>2014-05-03T12:50:10Z</time>
      </trkpt>
      <trkpt lat="39.386181894789" lon="2.909067392441">
        <ele>42.4</ele>
        <time>2014-05-03T12:50:11Z</time>
      </trkpt>
      <trkpt lat="39.386078210686" lon="2.909091951408">
        <ele>41.8</ele>
        <time>2014-05-03T12:50:12Z</time>
      </trkpt>
      <trkpt lat="39.385968826891" lon="2.909114498719">
        <ele>41.4</ele>
        <time>2014-05-03T12:50:13Z</time>
      </trkpt>
      <trkpt lat="39.385868244091" lon="2.909136626935">
        <ele>40.8</ele>
        <time>2014-05-03T12:50:14Z</time>
      </trkpt>
      <trkpt lat="39.385768918576" lon="2.909153306916">
        <ele>40.4</ele>
        <time>2014-05-03T12:50:15Z</time>
      </trkpt>
      <trkpt lat="39.385667581405" lon="2.909171747096">
        <ele>40</ele>
        <time>2014-05-03T12:50:16Z</time>
      </trkpt>
      <trkpt lat="39.385092834522" lon="2.909306947143">
        <ele>40</ele>
        <time>2014-05-03T12:50:22Z</time>
      </trkpt>
      <trkpt lat="39.384477100148" lon="2.90946226375">
        <ele>40</ele>
        <time>2014-05-03T12:50:28Z</time>
      </trkpt>
      <trkpt lat="39.384376768805" lon="2.909482464129">
        <ele>39.6</ele>
        <time>2014-05-03T12:50:29Z</time>
      </trkpt>
      <trkpt lat="39.384272246512" lon="2.909513812435">
        <ele>39.2</ele>
        <time>2014-05-03T12:50:30Z</time>
      </trkpt>
      <trkpt lat="39.384163868545" lon="2.90954859732">
        <ele>38.8</ele>
        <time>2014-05-03T12:50:31Z</time>
      </trkpt>
      <trkpt lat="39.384063453383" lon="2.909574916486">
        <ele>38.4</ele>
        <time>2014-05-03T12:50:32Z</time>
      </trkpt>
      <trkpt lat="39.383964044049" lon="2.909612802674">
        <ele>38</ele>
        <time>2014-05-03T12:50:33Z</time>
      </trkpt>
      <trkpt lat="39.383863796525" lon="2.909643983342">
        <ele>38</ele>
        <time>2014-05-03T12:50:34Z</time>
      </trkpt>
      <trkpt lat="39.383575626803" lon="2.90971120618">
        <ele>37.4</ele>
        <time>2014-05-03T12:50:37Z</time>
      </trkpt>
      <trkpt lat="39.383482168618" lon="2.909730819826">
        <ele>37</ele>
        <time>2014-05-03T12:50:38Z</time>
      </trkpt>
      <trkpt lat="39.383383178379" lon="2.909752528947">
        <ele>36.6</ele>
        <time>2014-05-03T12:50:39Z</time>
      </trkpt>
      <trkpt lat="39.383291228936" lon="2.909773818973">
        <ele>36.2</ele>
        <time>2014-05-03T12:50:40Z</time>
      </trkpt>
      <trkpt lat="39.383197519294" lon="2.909792762067">
        <ele>35.8</ele>
        <time>2014-05-03T12:50:41Z</time>
      </trkpt>
      <trkpt lat="39.383107581507" lon="2.909810615514">
        <ele>35.8</ele>
        <time>2014-05-03T12:50:42Z</time>
      </trkpt>
      <trkpt lat="39.382751434576" lon="2.909894937428">
        <ele>35.8</ele>
        <time>2014-05-03T12:50:46Z</time>
      </trkpt>
      <trkpt lat="39.382662586436" lon="2.909912790875">
        <ele>35.8</ele>
        <time>2014-05-03T12:50:47Z</time>
      </trkpt>
      <trkpt lat="39.382582287834" lon="2.909928381209">
        <ele>35.8</ele>
        <time>2014-05-03T12:50:48Z</time>
      </trkpt>
      <trkpt lat="39.382495702807" lon="2.909949168321">
        <ele>36.2</ele>
        <time>2014-05-03T12:50:49Z</time>
      </trkpt>
      <trkpt lat="39.382411799988" lon="2.90997439784">
        <ele>36.6</ele>
        <time>2014-05-03T12:50:50Z</time>
      </trkpt>
      <trkpt lat="39.382327058979" lon="2.909995520228">
        <ele>37</ele>
        <time>2014-05-03T12:50:51Z</time>
      </trkpt>
      <trkpt lat="39.382245419273" lon="2.910014714779">
        <ele>37.4</ele>
        <time>2014-05-03T12:50:52Z</time>
      </trkpt>
      <trkpt lat="39.382164031024" lon="2.910035418072">
        <ele>37.8</ele>
        <time>2014-05-03T12:50:53Z</time>
      </trkpt>
      <trkpt lat="39.381995303377" lon="2.91007665702">
        <ele>37.8</ele>
        <time>2014-05-03T12:50:55Z</time>
      </trkpt>
      <trkpt lat="39.381545362985" lon="2.91019232724">
        <ele>37.8</ele>
        <time>2014-05-03T12:51:01Z</time>
      </trkpt>
      <trkpt lat="39.381392896224" lon="2.910227782677">
        <ele>38.2</ele>
        <time>2014-05-03T12:51:03Z</time>
      </trkpt>
      <trkpt lat="39.381320811884" lon="2.910246222857">
        <ele>38.6</ele>
        <time>2014-05-03T12:51:04Z</time>
      </trkpt>
      <trkpt lat="39.381248308449" lon="2.91026105882">
        <ele>39</ele>
        <time>2014-05-03T12:51:05Z</time>
      </trkpt>
      <trkpt lat="39.381174212453" lon="2.91028285176">
        <ele>39.4</ele>
        <time>2014-05-03T12:51:06Z</time>
      </trkpt>
      <trkpt lat="39.38111159966" lon="2.91029877737">
        <ele>40</ele>
        <time>2014-05-03T12:51:07Z</time>
      </trkpt>
      <trkpt lat="39.381044795917" lon="2.910316882274">
        <ele>40</ele>
        <time>2014-05-03T12:51:08Z</time>
      </trkpt>
      <trkpt lat="39.380443059316" lon="2.910475886917">
        <ele>40</ele>
        <time>2014-05-03T12:51:16Z</time>
      </trkpt>
      <trkpt lat="39.379849453158" lon="2.910628605135">
        <ele>40</ele>
        <time>2014-05-03T12:51:23Z</time>
      </trkpt>
      <trkpt lat="39.379757252258" lon="2.910649056971">
        <ele>40</ele>
        <time>2014-05-03T12:51:24Z</time>
      </trkpt>
      <trkpt lat="39.379661028046" lon="2.910677723069">
        <ele>40</ele>
        <time>2014-05-03T12:51:25Z</time>
      </trkpt>
      <trkpt lat="39.379473441124" lon="2.910728349745">
        <ele>40</ele>
        <time>2014-05-03T12:51:27Z</time>
      </trkpt>
      <trkpt lat="39.37937486998" lon="2.910759865689">
        <ele>39.6</ele>
        <time>2014-05-03T12:51:28Z</time>
      </trkpt>
      <trkpt lat="39.379276215017" lon="2.91078828033">
        <ele>39.2</ele>
        <time>2014-05-03T12:51:29Z</time>
      </trkpt>
      <trkpt lat="39.37917789533" lon="2.9108159406">
        <ele>38.8</ele>
        <time>2014-05-03T12:51:30Z</time>
      </trkpt>
      <trkpt lat="39.379074881779" lon="2.910839074644">
        <ele>38.4</ele>
        <time>2014-05-03T12:51:31Z</time>
      </trkpt>
      <trkpt lat="39.378967006726" lon="2.910868998027">
        <ele>38</ele>
        <time>2014-05-03T12:51:32Z</time>
      </trkpt>
      <trkpt lat="39.378857287655" lon="2.910901268342">
        <ele>38</ele>
        <time>2014-05-03T12:51:33Z</time>
      </trkpt>
      <trkpt lat="39.378758884149" lon="2.910932029915">
        <ele>38</ele>
        <time>2014-05-03T12:51:34Z</time>
      </trkpt>
      <trkpt lat="39.378659810091" lon="2.910957678529">
        <ele>38</ele>
        <time>2014-05-03T12:51:35Z</time>
      </trkpt>
      <trkpt lat="39.378454034446" lon="2.911014759268">
        <ele>37</ele>
        <time>2014-05-03T12:51:37Z</time>
      </trkpt>
      <trkpt lat="39.37835311637" lon="2.911042922452">
        <ele>36.6</ele>
        <time>2014-05-03T12:51:38Z</time>
      </trkpt>
      <trkpt lat="39.378248929353" lon="2.911071337093">
        <ele>36.2</ele>
        <time>2014-05-03T12:51:39Z</time>
      </trkpt>
      <trkpt lat="39.378143987965" lon="2.911104529417">
        <ele>35.8</ele>
        <time>2014-05-03T12:51:40Z</time>
      </trkpt>
      <trkpt lat="39.377933518456" lon="2.911164124726">
        <ele>35.8</ele>
        <time>2014-05-03T12:51:42Z</time>
      </trkpt>
      <trkpt lat="39.377832684199" lon="2.911191617358">
        <ele>35.8</ele>
        <time>2014-05-03T12:51:43Z</time>
      </trkpt>
      <trkpt lat="39.377623639613" lon="2.911243920414">
        <ele>35.4</ele>
        <time>2014-05-03T12:51:45Z</time>
      </trkpt>
      <trkpt lat="39.377521883347" lon="2.911278034747">
        <ele>35</ele>
        <time>2014-05-03T12:51:46Z</time>
      </trkpt>
      <trkpt lat="39.377420546176" lon="2.911306030293">
        <ele>34.6</ele>
        <time>2014-05-03T12:51:47Z</time>
      </trkpt>
      <trkpt lat="39.377316778254" lon="2.911334109658">
        <ele>34.2</ele>
        <time>2014-05-03T12:51:48Z</time>
      </trkpt>
      <trkpt lat="39.377205215165" lon="2.911363111032">
        <ele>33.8</ele>
        <time>2014-05-03T12:51:49Z</time>
      </trkpt>
      <trkpt lat="39.376890391001" lon="2.911451120982">
        <ele>33.8</ele>
        <time>2014-05-03T12:51:52Z</time>
      </trkpt>
      <trkpt lat="39.376689393039" lon="2.911504513685">
        <ele>33.8</ele>
        <time>2014-05-03T12:51:54Z</time>
      </trkpt>
      <trkpt lat="39.376388818105" lon="2.911582800631">
        <ele>33.8</ele>
        <time>2014-05-03T12:51:57Z</time>
      </trkpt>
      <trkpt lat="39.37611179631" lon="2.911658489188">
        <ele>33.8</ele>
        <time>2014-05-03T12:52:00Z</time>
      </trkpt>
      <trkpt lat="39.375933010383" lon="2.911706517475">
        <ele>33.8</ele>
        <time>2014-05-03T12:52:02Z</time>
      </trkpt>
      <trkpt lat="39.375495391384" lon="2.911841633703">
        <ele>33.8</ele>
        <time>2014-05-03T12:52:07Z</time>
      </trkpt>
      <trkpt lat="39.375404447769" lon="2.911877759692">
        <ele>33.8</ele>
        <time>2014-05-03T12:52:08Z</time>
      </trkpt>
      <trkpt lat="39.375219543055" lon="2.911957723018">
        <ele>33.4</ele>
        <time>2014-05-03T12:52:10Z</time>
      </trkpt>
      <trkpt lat="39.375121474825" lon="2.911990747704">
        <ele>33</ele>
        <time>2014-05-03T12:52:11Z</time>
      </trkpt>
      <trkpt lat="39.375029357744" lon="2.912025029675">
        <ele>32.4</ele>
        <time>2014-05-03T12:52:12Z</time>
      </trkpt>
      <trkpt lat="39.374935396645" lon="2.912060485112">
        <ele>32</ele>
        <time>2014-05-03T12:52:13Z</time>
      </trkpt>
      <trkpt lat="39.374836406406" lon="2.912097700748">
        <ele>31.6</ele>
        <time>2014-05-03T12:52:14Z</time>
      </trkpt>
      <trkpt lat="39.374535077101" lon="2.912218400108">
        <ele>31.2</ele>
        <time>2014-05-03T12:52:17Z</time>
      </trkpt>
      <trkpt lat="39.374418903967" lon="2.912261063979">
        <ele>30.6</ele>
        <time>2014-05-03T12:52:18Z</time>
      </trkpt>
      <trkpt lat="39.374311028914" lon="2.912306493877">
        <ele>30.2</ele>
        <time>2014-05-03T12:52:19Z</time>
      </trkpt>
      <trkpt lat="39.374203153861" lon="2.912350079757">
        <ele>29.8</ele>
        <time>2014-05-03T12:52:20Z</time>
      </trkpt>
      <trkpt lat="39.374089076202" lon="2.912392743628">
        <ele>29.2</ele>
        <time>2014-05-03T12:52:21Z</time>
      </trkpt>
      <trkpt lat="39.373975836733" lon="2.912442364476">
        <ele>28.6</ele>
        <time>2014-05-03T12:52:22Z</time>
      </trkpt>
      <trkpt lat="39.373862345807" lon="2.912480250664">
        <ele>28</ele>
        <time>2014-05-03T12:52:23Z</time>
      </trkpt>
      <trkpt lat="39.373747513777" lon="2.912525261467">
        <ele>27.6</ele>
        <time>2014-05-03T12:52:24Z</time>
      </trkpt>
      <trkpt lat="39.373633017023" lon="2.91257278684">
        <ele>26.8</ele>
        <time>2014-05-03T12:52:25Z</time>
      </trkpt>
      <trkpt lat="39.373512485301" lon="2.912616288901">
        <ele>26.2</ele>
        <time>2014-05-03T12:52:26Z</time>
      </trkpt>
      <trkpt lat="39.373396479805" lon="2.912662389351">
        <ele>24.8</ele>
        <time>2014-05-03T12:52:27Z</time>
      </trkpt>
      <trkpt lat="39.373284246164" lon="2.912706981059">
        <ele>24.2</ele>
        <time>2014-05-03T12:52:28Z</time>
      </trkpt>
      <trkpt lat="39.373172431618" lon="2.912752410957">
        <ele>23.6</ele>
        <time>2014-05-03T12:52:29Z</time>
      </trkpt>
      <trkpt lat="39.37306329928" lon="2.912795074828">
        <ele>23</ele>
        <time>2014-05-03T12:52:30Z</time>
      </trkpt>
      <trkpt lat="39.37295098182" lon="2.91284016945">
        <ele>22.4</ele>
        <time>2014-05-03T12:52:31Z</time>
      </trkpt>
      <trkpt lat="39.372846627165" lon="2.912883084778">
        <ele>21.6</ele>
        <time>2014-05-03T12:52:32Z</time>
      </trkpt>
      <trkpt lat="39.372737578646" lon="2.912923317898">
        <ele>21</ele>
        <time>2014-05-03T12:52:33Z</time>
      </trkpt>
      <trkpt lat="39.372624255358" lon="2.912968999253">
        <ele>20.4</ele>
        <time>2014-05-03T12:52:34Z</time>
      </trkpt>
      <trkpt lat="39.37251428483" lon="2.913013926237">
        <ele>19.6</ele>
        <time>2014-05-03T12:52:35Z</time>
      </trkpt>
      <trkpt lat="39.372403476112" lon="2.913058266488">
        <ele>19</ele>
        <time>2014-05-03T12:52:36Z</time>
      </trkpt>
      <trkpt lat="39.372293421765" lon="2.913102020006">
        <ele>19</ele>
        <time>2014-05-03T12:52:37Z</time>
      </trkpt>
      <trkpt lat="39.371964180733" lon="2.913235962768">
        <ele>18.6</ele>
        <time>2014-05-03T12:52:40Z</time>
      </trkpt>
      <trkpt lat="39.371853288196" lon="2.913282817589">
        <ele>18.2</ele>
        <time>2014-05-03T12:52:41Z</time>
      </trkpt>
      <trkpt lat="39.371740467822" lon="2.913327493116">
        <ele>17.8</ele>
        <time>2014-05-03T12:52:42Z</time>
      </trkpt>
      <trkpt lat="39.371631503122" lon="2.913371078996">
        <ele>17.4</ele>
        <time>2014-05-03T12:52:43Z</time>
      </trkpt>
      <trkpt lat="39.371525555906" lon="2.913414664876">
        <ele>16.8</ele>
        <time>2014-05-03T12:52:44Z</time>
      </trkpt>
      <trkpt lat="39.371416926482" lon="2.913461016783">
        <ele>16.8</ele>
        <time>2014-05-03T12:52:45Z</time>
      </trkpt>
      <trkpt lat="39.371309386705" lon="2.913504267387">
        <ele>16.8</ele>
        <time>2014-05-03T12:52:46Z</time>
      </trkpt>
      <trkpt lat="39.371197572159" lon="2.913545422516">
        <ele>16.4</ele>
        <time>2014-05-03T12:52:47Z</time>
      </trkpt>
      <trkpt lat="39.371087098717" lon="2.91359118769">
        <ele>15.8</ele>
        <time>2014-05-03T12:52:48Z</time>
      </trkpt>
      <trkpt lat="39.370979307483" lon="2.913633516285">
        <ele>15.4</ele>
        <time>2014-05-03T12:52:49Z</time>
      </trkpt>
      <trkpt lat="39.370864223996" lon="2.913679113821">
        <ele>15</ele>
        <time>2014-05-03T12:52:50Z</time>
      </trkpt>
      <trkpt lat="39.370753666735" lon="2.913727058289">
        <ele>14.4</ele>
        <time>2014-05-03T12:52:51Z</time>
      </trkpt>
      <trkpt lat="39.370308839302" lon="2.913883883638">
        <ele>14.4</ele>
        <time>2014-05-03T12:52:55Z</time>
      </trkpt>
      <trkpt lat="39.370199455507" lon="2.913926212233">
        <ele>14.4</ele>
        <time>2014-05-03T12:52:56Z</time>
      </trkpt>
      <trkpt lat="39.370086635133" lon="2.91397172595">
        <ele>14.4</ele>
        <time>2014-05-03T12:52:57Z</time>
      </trkpt>
      <trkpt lat="39.36997205456" lon="2.914018580771">
        <ele>13.8</ele>
        <time>2014-05-03T12:52:58Z</time>
      </trkpt>
      <trkpt lat="39.369858982729" lon="2.914064681221">
        <ele>13</ele>
        <time>2014-05-03T12:52:59Z</time>
      </trkpt>
      <trkpt lat="39.36974322869" lon="2.914109608205">
        <ele>12</ele>
        <time>2014-05-03T12:53:00Z</time>
      </trkpt>
      <trkpt lat="39.369631665601" lon="2.914152020619">
        <ele>10.8</ele>
        <time>2014-05-03T12:53:01Z</time>
      </trkpt>
      <trkpt lat="39.369517587942" lon="2.914197953431">
        <ele>9.8</ele>
        <time>2014-05-03T12:53:02Z</time>
      </trkpt>
      <trkpt lat="39.369405102844" lon="2.914242209863">
        <ele>8.8</ele>
        <time>2014-05-03T12:53:03Z</time>
      </trkpt>
      <trkpt lat="39.369286918054" lon="2.914293842367">
        <ele>8</ele>
        <time>2014-05-03T12:53:04Z</time>
      </trkpt>
      <trkpt lat="39.3691724213" lon="2.91433885317">
        <ele>7.4</ele>
        <time>2014-05-03T12:53:05Z</time>
      </trkpt>
      <trkpt lat="39.369058343641" lon="2.914383528697">
        <ele>6.6</ele>
        <time>2014-05-03T12:53:06Z</time>
      </trkpt>
      <trkpt lat="39.368943930706" lon="2.914430634975">
        <ele>6</ele>
        <time>2014-05-03T12:53:07Z</time>
      </trkpt>
      <trkpt lat="39.36883043978" lon="2.914475142864">
        <ele>5.2</ele>
        <time>2014-05-03T12:53:08Z</time>
      </trkpt>
      <trkpt lat="39.368490386097" lon="2.914601458097">
        <ele>5.2</ele>
        <time>2014-05-03T12:53:11Z</time>
      </trkpt>
      <trkpt lat="39.368264996806" lon="2.914686869658">
        <ele>5.2</ele>
        <time>2014-05-03T12:53:13Z</time>
      </trkpt>
      <trkpt lat="39.36768966319" lon="2.914920305573">
        <ele>5.2</ele>
        <time>2014-05-03T12:53:18Z</time>
      </trkpt>
      <trkpt lat="39.367573825332" lon="2.914972943905">
        <ele>5.2</ele>
        <time>2014-05-03T12:53:19Z</time>
      </trkpt>
      <trkpt lat="39.367463603347" lon="2.915018792898">
        <ele>5.2</ele>
        <time>2014-05-03T12:53:20Z</time>
      </trkpt>
      <trkpt lat="39.36692188115" lon="2.915216270462">
        <ele>4.8</ele>
        <time>2014-05-03T12:53:25Z</time>
      </trkpt>
      <trkpt lat="39.366815179563" lon="2.915253067003">
        <ele>4.4</ele>
        <time>2014-05-03T12:53:26Z</time>
      </trkpt>
      <trkpt lat="39.366705376673" lon="2.91529355158">
        <ele>3.8</ele>
        <time>2014-05-03T12:53:27Z</time>
      </trkpt>
      <trkpt lat="39.366598255991" lon="2.915334874347">
        <ele>3.4</ele>
        <time>2014-05-03T12:53:28Z</time>
      </trkpt>
      <trkpt lat="39.366492141137" lon="2.915374772191">
        <ele>3</ele>
        <time>2014-05-03T12:53:29Z</time>
      </trkpt>
      <trkpt lat="39.366280330524" lon="2.915457166268">
        <ele>3</ele>
        <time>2014-05-03T12:53:31Z</time>
      </trkpt>
      <trkpt lat="39.365874478926" lon="2.915617847291">
        <ele>3</ele>
        <time>2014-05-03T12:53:35Z</time>
      </trkpt>
      <trkpt lat="39.365775153411" lon="2.915660511162">
        <ele>3</ele>
        <time>2014-05-03T12:53:36Z</time>
      </trkpt>
      <trkpt lat="39.365674486792" lon="2.915698481169">
        <ele>3</ele>
        <time>2014-05-03T12:53:37Z</time>
      </trkpt>
      <trkpt lat="39.365574742182" lon="2.915737624642">
        <ele>3</ele>
        <time>2014-05-03T12:53:38Z</time>
      </trkpt>
      <trkpt lat="39.365476171038" lon="2.915776097563">
        <ele>3</ele>
        <time>2014-05-03T12:53:39Z</time>
      </trkpt>
      <trkpt lat="39.365198227234" lon="2.9158786082">
        <ele>3</ele>
        <time>2014-05-03T12:53:42Z</time>
      </trkpt>
      <trkpt lat="39.365118012451" lon="2.915914398913">
        <ele>3</ele>
        <time>2014-05-03T12:53:43Z</time>
      </trkpt>
      <trkpt lat="39.365033941994" lon="2.915947088323">
        <ele>3</ele>
        <time>2014-05-03T12:53:44Z</time>
      </trkpt>
      <trkpt lat="39.364859766112" lon="2.916017412464">
        <ele>3</ele>
        <time>2014-05-03T12:53:46Z</time>
      </trkpt>
      <trkpt lat="39.364576038797" lon="2.916134926702">
        <ele>3</ele>
        <time>2014-05-03T12:53:49Z</time>
      </trkpt>
      <trkpt lat="39.364140431454" lon="2.916335757026">
        <ele>2.4</ele>
        <time>2014-05-03T12:53:53Z</time>
      </trkpt>
      <trkpt lat="39.364035741523" lon="2.916371380101">
        <ele>1.8</ele>
        <time>2014-05-03T12:53:54Z</time>
      </trkpt>
      <trkpt lat="39.363933817619" lon="2.91640918247">
        <ele>1.4</ele>
        <time>2014-05-03T12:53:55Z</time>
      </trkpt>
      <trkpt lat="39.363838683054" lon="2.916443883536">
        <ele>0.8</ele>
        <time>2014-05-03T12:53:56Z</time>
      </trkpt>
      <trkpt lat="39.363744135222" lon="2.916472717272">
        <ele>0.2</ele>
        <time>2014-05-03T12:53:57Z</time>
      </trkpt>
      <trkpt lat="39.363658472204" lon="2.916508340347">
        <ele>0.2</ele>
        <time>2014-05-03T12:53:58Z</time>
      </trkpt>
      <trkpt lat="39.363414475095" lon="2.916628033879">
        <ele>0.6</ele>
        <time>2014-05-03T12:54:01Z</time>
      </trkpt>
      <trkpt lat="39.363336691063" lon="2.916662399669">
        <ele>1</ele>
        <time>2014-05-03T12:54:02Z</time>
      </trkpt>
      <trkpt lat="39.363262930343" lon="2.916691903957">
        <ele>1.4</ele>
        <time>2014-05-03T12:54:03Z</time>
      </trkpt>
      <trkpt lat="39.363185816863" lon="2.916720737693">
        <ele>1.8</ele>
        <time>2014-05-03T12:54:04Z</time>
      </trkpt>
      <trkpt lat="39.363103590424" lon="2.916751834542">
        <ele>2.2</ele>
        <time>2014-05-03T12:54:05Z</time>
      </trkpt>
      <trkpt lat="39.362807038802" lon="2.916890387349">
        <ele>2.2</ele>
        <time>2014-05-03T12:54:09Z</time>
      </trkpt>
      <trkpt lat="39.362509565171" lon="2.917013685098">
        <ele>2.2</ele>
        <time>2014-05-03T12:54:13Z</time>
      </trkpt>
      <trkpt lat="39.362232543376" lon="2.917129774413">
        <ele>2.2</ele>
        <time>2014-05-03T12:54:17Z</time>
      </trkpt>
      <trkpt lat="39.361872959866" lon="2.917274362188">
        <ele>2.2</ele>
        <time>2014-05-03T12:54:22Z</time>
      </trkpt>
      <trkpt lat="39.361665256384" lon="2.917357259179">
        <ele>2.2</ele>
        <time>2014-05-03T12:54:25Z</time>
      </trkpt>
      <trkpt lat="39.361382534897" lon="2.917477287987">
        <ele>1.8</ele>
        <time>2014-05-03T12:54:29Z</time>
      </trkpt>
      <trkpt lat="39.36131103729" lon="2.917511486139">
        <ele>1.4</ele>
        <time>2014-05-03T12:54:30Z</time>
      </trkpt>
      <trkpt lat="39.361240126416" lon="2.917541828617">
        <ele>1</ele>
        <time>2014-05-03T12:54:31Z</time>
      </trkpt>
      <trkpt lat="39.361170808103" lon="2.917572003457">
        <ele>0.6</ele>
        <time>2014-05-03T12:54:32Z</time>
      </trkpt>
      <trkpt lat="39.36110148979" lon="2.917601759202">
        <ele>0.2</ele>
        <time>2014-05-03T12:54:33Z</time>
      </trkpt>
      <trkpt lat="39.360902419665" lon="2.917726984788">
        <ele>0.2</ele>
        <time>2014-05-03T12:54:36Z</time>
      </trkpt>
      <trkpt lat="39.360844584555" lon="2.917785825726">
        <ele>0.2</ele>
        <time>2014-05-03T12:54:37Z</time>
      </trkpt>
      <trkpt lat="39.360740648995" lon="2.917915577538">
        <ele>0.2</ele>
        <time>2014-05-03T12:54:40Z</time>
      </trkpt>
      <trkpt lat="39.360725645394" lon="2.917942651075">
        <ele>0.6</ele>
        <time>2014-05-03T12:54:41Z</time>
      </trkpt>
      <trkpt lat="39.360716090028" lon="2.917971317173">
        <ele>1</ele>
        <time>2014-05-03T12:54:42Z</time>
      </trkpt>
      <trkpt lat="39.360716592942" lon="2.918012220845">
        <ele>1.4</ele>
        <time>2014-05-03T12:54:43Z</time>
      </trkpt>
      <trkpt lat="39.360726735041" lon="2.918063266616">
        <ele>1.8</ele>
        <time>2014-05-03T12:54:44Z</time>
      </trkpt>
      <trkpt lat="39.360754646768" lon="2.91811741369">
        <ele>2.2</ele>
        <time>2014-05-03T12:54:45Z</time>
      </trkpt>
      <trkpt lat="39.360786581807" lon="2.918172315135">
        <ele>2.2</ele>
        <time>2014-05-03T12:54:46Z</time>
      </trkpt>
      <trkpt lat="39.360850619523" lon="2.918265940958">
        <ele>2.2</ele>
        <time>2014-05-03T12:54:48Z</time>
      </trkpt>
      <trkpt lat="39.360950364133" lon="2.918422011936">
        <ele>2.2</ele>
        <time>2014-05-03T12:54:51Z</time>
      </trkpt>
      <trkpt lat="39.36105371296" lon="2.918578585828">
        <ele>2.2</ele>
        <time>2014-05-03T12:54:54Z</time>
      </trkpt>
      <trkpt lat="39.36109143151" lon="2.918640528069">
        <ele>2.2</ele>
        <time>2014-05-03T12:54:55Z</time>
      </trkpt>
      <trkpt lat="39.361327465814" lon="2.919025927831">
        <ele>2.2</ele>
        <time>2014-05-03T12:55:01Z</time>
      </trkpt>
      <trkpt lat="39.361385468562" lon="2.919161882249">
        <ele>2.2</ele>
        <time>2014-05-03T12:55:03Z</time>
      </trkpt>
      <trkpt lat="39.361465767164" lon="2.919382912952">
        <ele>2.2</ele>
        <time>2014-05-03T12:55:06Z</time>
      </trkpt>
      <trkpt lat="39.361633488983" lon="2.919918348724">
        <ele>2.2</ele>
        <time>2014-05-03T12:55:12Z</time>
      </trkpt>
      <trkpt lat="39.361876564083" lon="2.920612202406">
        <ele>2.2</ele>
        <time>2014-05-03T12:55:19Z</time>
      </trkpt>
      <trkpt lat="39.362105976686" lon="2.921340170421">
        <ele>2.2</ele>
        <time>2014-05-03T12:55:26Z</time>
      </trkpt>
      <trkpt lat="39.362135732431" lon="2.921448799845">
        <ele>2.2</ele>
        <time>2014-05-03T12:55:27Z</time>
      </trkpt>
      <trkpt lat="39.362316110919" lon="2.922151370703">
        <ele>2.2</ele>
        <time>2014-05-03T12:55:33Z</time>
      </trkpt>
      <trkpt lat="39.362382998481" lon="2.92240475554">
        <ele>2.2</ele>
        <time>2014-05-03T12:55:35Z</time>
      </trkpt>
      <trkpt lat="39.362560443304" lon="2.923130460442">
        <ele>2.2</ele>
        <time>2014-05-03T12:55:41Z</time>
      </trkpt>
      <trkpt lat="39.362667061072" lon="2.923774106543">
        <ele>1.8</ele>
        <time>2014-05-03T12:55:46Z</time>
      </trkpt>
      <trkpt lat="39.362677957542" lon="2.92390763021">
        <ele>1.4</ele>
        <time>2014-05-03T12:55:47Z</time>
      </trkpt>
      <trkpt lat="39.362682986682" lon="2.924038052574">
        <ele>0.8</ele>
        <time>2014-05-03T12:55:48Z</time>
      </trkpt>
      <trkpt lat="39.362687093813" lon="2.924167804386">
        <ele>0.4</ele>
        <time>2014-05-03T12:55:49Z</time>
      </trkpt>
      <trkpt lat="39.362690949487" lon="2.924297220922">
        <ele>0</ele>
        <time>2014-05-03T12:55:50Z</time>
      </trkpt>
      <trkpt lat="39.362729506227" lon="2.924811869582">
        <ele>0.4</ele>
        <time>2014-05-03T12:55:54Z</time>
      </trkpt>
      <trkpt lat="39.362744509828" lon="2.9249394421">
        <ele>0.8</ele>
        <time>2014-05-03T12:55:55Z</time>
      </trkpt>
      <trkpt lat="39.362757837049" lon="2.925059806184">
        <ele>1.4</ele>
        <time>2014-05-03T12:55:56Z</time>
      </trkpt>
      <trkpt lat="39.362773595021" lon="2.925177404241">
        <ele>1.8</ele>
        <time>2014-05-03T12:55:57Z</time>
      </trkpt>
      <trkpt lat="39.362792621934" lon="2.92529483466">
        <ele>2.2</ele>
        <time>2014-05-03T12:55:58Z</time>
      </trkpt>
      <trkpt lat="39.36283151395" lon="2.925526845652">
        <ele>2.2</ele>
        <time>2014-05-03T12:56:00Z</time>
      </trkpt>
      <trkpt lat="39.362977526648" lon="2.926251628545">
        <ele>2.2</ele>
        <time>2014-05-03T12:56:06Z</time>
      </trkpt>
      <trkpt lat="39.363039971803" lon="2.9264900936">
        <ele>2.2</ele>
        <time>2014-05-03T12:56:08Z</time>
      </trkpt>
      <trkpt lat="39.363149271779" lon="2.926821346288">
        <ele>2.6</ele>
        <time>2014-05-03T12:56:11Z</time>
      </trkpt>
      <trkpt lat="39.36318439194" lon="2.92692427602">
        <ele>3</ele>
        <time>2014-05-03T12:56:12Z</time>
      </trkpt>
      <trkpt lat="39.363219679739" lon="2.92702821158">
        <ele>3.6</ele>
        <time>2014-05-03T12:56:13Z</time>
      </trkpt>
      <trkpt lat="39.363255805728" lon="2.927135835176">
        <ele>4</ele>
        <time>2014-05-03T12:56:14Z</time>
      </trkpt>
      <trkpt lat="39.363293440459" lon="2.92724530279">
        <ele>4.4</ele>
        <time>2014-05-03T12:56:15Z</time>
      </trkpt>
      <trkpt lat="39.363476417336" lon="2.927677725011">
        <ele>4.4</ele>
        <time>2014-05-03T12:56:19Z</time>
      </trkpt>
      <trkpt lat="39.36354649002" lon="2.927767914255">
        <ele>4.4</ele>
        <time>2014-05-03T12:56:20Z</time>
      </trkpt>
      <trkpt lat="39.363954269455" lon="2.928147027592">
        <ele>4.4</ele>
        <time>2014-05-03T12:56:25Z</time>
      </trkpt>
      <trkpt lat="39.36418938175" lon="2.928411895632">
        <ele>4.4</ele>
        <time>2014-05-03T12:56:28Z</time>
      </trkpt>
      <trkpt lat="39.36425056962" lon="2.92852102797">
        <ele>4.4</ele>
        <time>2014-05-03T12:56:29Z</time>
      </trkpt>
      <trkpt lat="39.364302034486" lon="2.928635943819">
        <ele>3.8</ele>
        <time>2014-05-03T12:56:30Z</time>
      </trkpt>
      <trkpt lat="39.36434612328" lon="2.92875404479">
        <ele>3.4</ele>
        <time>2014-05-03T12:56:31Z</time>
      </trkpt>
      <trkpt lat="39.364380824346" lon="2.928877845453">
        <ele>3</ele>
        <time>2014-05-03T12:56:32Z</time>
      </trkpt>
      <trkpt lat="39.364405886227" lon="2.929011033844">
        <ele>2.6</ele>
        <time>2014-05-03T12:56:33Z</time>
      </trkpt>
      <trkpt lat="39.364425248416" lon="2.929137768172">
        <ele>2</ele>
        <time>2014-05-03T12:56:34Z</time>
      </trkpt>
      <trkpt lat="39.364486268648" lon="2.929780156988">
        <ele>2</ele>
        <time>2014-05-03T12:56:39Z</time>
      </trkpt>
      <trkpt lat="39.364537901152" lon="2.93049496542">
        <ele>2</ele>
        <time>2014-05-03T12:56:44Z</time>
      </trkpt>
      <trkpt lat="39.364546115414" lon="2.93065505971">
        <ele>1.6</ele>
        <time>2014-05-03T12:56:45Z</time>
      </trkpt>
      <trkpt lat="39.364554664952" lon="2.930824122633">
        <ele>1.2</ele>
        <time>2014-05-03T12:56:46Z</time>
      </trkpt>
      <trkpt lat="39.364556760427" lon="2.930992934099">
        <ele>0.8</ele>
        <time>2014-05-03T12:56:47Z</time>
      </trkpt>
      <trkpt lat="39.364556676608" lon="2.931162499936">
        <ele>0.2</ele>
        <time>2014-05-03T12:56:48Z</time>
      </trkpt>
      <trkpt lat="39.364555251685" lon="2.931334747981">
        <ele>0</ele>
        <time>2014-05-03T12:56:49Z</time>
      </trkpt>
      <trkpt lat="39.364549049079" lon="2.931645884109">
        <ele>0</ele>
        <time>2014-05-03T12:56:51Z</time>
      </trkpt>
      <trkpt lat="39.364546869785" lon="2.931935562573">
        <ele>0</ele>
        <time>2014-05-03T12:56:53Z</time>
      </trkpt>
      <trkpt lat="39.364547372699" lon="2.932072941914">
        <ele>0</ele>
        <time>2014-05-03T12:56:54Z</time>
      </trkpt>
      <trkpt lat="39.364557263341" lon="2.932477620046">
        <ele>0</ele>
        <time>2014-05-03T12:56:57Z</time>
      </trkpt>
      <trkpt lat="39.364559777911" lon="2.932726813933">
        <ele>0.2</ele>
        <time>2014-05-03T12:56:59Z</time>
      </trkpt>
      <trkpt lat="39.36455986173" lon="2.932847848569">
        <ele>0.6</ele>
        <time>2014-05-03T12:57:00Z</time>
      </trkpt>
      <trkpt lat="39.36455986173" lon="2.93296762592">
        <ele>1.2</ele>
        <time>2014-05-03T12:57:01Z</time>
      </trkpt>
      <trkpt lat="39.364557598617" lon="2.933085726891">
        <ele>1.6</ele>
        <time>2014-05-03T12:57:02Z</time>
      </trkpt>
      <trkpt lat="39.364557263341" lon="2.93320231912">
        <ele>2</ele>
        <time>2014-05-03T12:57:03Z</time>
      </trkpt>
      <trkpt lat="39.364560029368" lon="2.933652091874">
        <ele>2</ele>
        <time>2014-05-03T12:57:07Z</time>
      </trkpt>
      <trkpt lat="39.364560783739" lon="2.933981249087">
        <ele>2</ele>
        <time>2014-05-03T12:57:10Z</time>
      </trkpt>
      <trkpt lat="39.364560951377" lon="2.934522552189">
        <ele>2</ele>
        <time>2014-05-03T12:57:15Z</time>
      </trkpt>
      <trkpt lat="39.364564136499" lon="2.934834945602">
        <ele>2</ele>
        <time>2014-05-03T12:57:18Z</time>
      </trkpt>
      <trkpt lat="39.364567153983" lon="2.935057820323">
        <ele>2</ele>
        <time>2014-05-03T12:57:20Z</time>
      </trkpt>
      <trkpt lat="39.364564639413" lon="2.935171730344">
        <ele>2</ele>
        <time>2014-05-03T12:57:21Z</time>
      </trkpt>
      <trkpt lat="39.364556928065" lon="2.935870613166">
        <ele>2</ele>
        <time>2014-05-03T12:57:27Z</time>
      </trkpt>
      <trkpt lat="39.364557682436" lon="2.93598594811">
        <ele>2</ele>
        <time>2014-05-03T12:57:28Z</time>
      </trkpt>
      <trkpt lat="39.364561370472" lon="2.93678809594">
        <ele>2</ele>
        <time>2014-05-03T12:57:35Z</time>
      </trkpt>
      <trkpt lat="39.364558855902" lon="2.936902760332">
        <ele>2</ele>
        <time>2014-05-03T12:57:36Z</time>
      </trkpt>
      <trkpt lat="39.364552820934" lon="2.937606085561">
        <ele>2</ele>
        <time>2014-05-03T12:57:42Z</time>
      </trkpt>
      <trkpt lat="39.364542343559" lon="2.937841449313">
        <ele>2</ele>
        <time>2014-05-03T12:57:44Z</time>
      </trkpt>
      <trkpt lat="39.364476461825" lon="2.938382668596">
        <ele>2</ele>
        <time>2014-05-03T12:57:49Z</time>
      </trkpt>
      <trkpt lat="39.364364144365" lon="2.938894383591">
        <ele>2</ele>
        <time>2014-05-03T12:57:54Z</time>
      </trkpt>
      <trkpt lat="39.364316032259" lon="2.939088759852">
        <ele>2.4</ele>
        <time>2014-05-03T12:57:56Z</time>
      </trkpt>
      <trkpt lat="39.364292227663" lon="2.939183726779">
        <ele>3</ele>
        <time>2014-05-03T12:57:57Z</time>
      </trkpt>
      <trkpt lat="39.364268087791" lon="2.93928506395">
        <ele>3.4</ele>
        <time>2014-05-03T12:57:58Z</time>
      </trkpt>
      <trkpt lat="39.36424554048" lon="2.939379108868">
        <ele>3.8</ele>
        <time>2014-05-03T12:57:59Z</time>
      </trkpt>
      <trkpt lat="39.364222825531" lon="2.939474411071">
        <ele>4.2</ele>
        <time>2014-05-03T12:58:00Z</time>
      </trkpt>
      <trkpt lat="39.364158117263" lon="2.939745900812">
        <ele>4.2</ele>
        <time>2014-05-03T12:58:03Z</time>
      </trkpt>
      <trkpt lat="39.364135821409" lon="2.939833072572">
        <ele>4.2</ele>
        <time>2014-05-03T12:58:04Z</time>
      </trkpt>
      <trkpt lat="39.364011936927" lon="2.940360126444">
        <ele>4.2</ele>
        <time>2014-05-03T12:58:10Z</time>
      </trkpt>
      <trkpt lat="39.363992155643" lon="2.940442101426">
        <ele>4.2</ele>
        <time>2014-05-03T12:58:11Z</time>
      </trkpt>
      <trkpt lat="39.363902301675" lon="2.940799757099">
        <ele>4.2</ele>
        <time>2014-05-03T12:58:15Z</time>
      </trkpt>
      <trkpt lat="39.363837258131" lon="2.941068313175">
        <ele>4.2</ele>
        <time>2014-05-03T12:58:18Z</time>
      </trkpt>
      <trkpt lat="39.363815046096" lon="2.941161100808">
        <ele>4.2</ele>
        <time>2014-05-03T12:58:19Z</time>
      </trkpt>
      <trkpt lat="39.363727790517" lon="2.94154733876">
        <ele>4.2</ele>
        <time>2014-05-03T12:58:23Z</time>
      </trkpt>
      <trkpt lat="39.36360767789" lon="2.942029381829">
        <ele>4.2</ele>
        <time>2014-05-03T12:58:28Z</time>
      </trkpt>
      <trkpt lat="39.363448505609" lon="2.942697083983">
        <ele>4.2</ele>
        <time>2014-05-03T12:58:35Z</time>
      </trkpt>
      <trkpt lat="39.36337885202" lon="2.942974692511">
        <ele>4.2</ele>
        <time>2014-05-03T12:58:38Z</time>
      </trkpt>
      <trkpt lat="39.363192270926" lon="2.943594031102">
        <ele>4.2</ele>
        <time>2014-05-03T12:58:45Z</time>
      </trkpt>
      <trkpt lat="39.363066877702" lon="2.943943975427">
        <ele>4.2</ele>
        <time>2014-05-03T12:58:50Z</time>
      </trkpt>
      <trkpt lat="39.362987668747" lon="2.94415578604">
        <ele>4.2</ele>
        <time>2014-05-03T12:58:54Z</time>
      </trkpt>
      <trkpt lat="39.362962942142" lon="2.944278916151">
        <ele>8</ele>
        <time>2014-05-03T13:57:49Z</time>
      </trkpt>
      <trkpt lat="39.362959086468" lon="2.944298613616">
        <ele>8</ele>
        <time>2014-05-03T13:57:50Z</time>
      </trkpt>
      <trkpt lat="39.362935868605" lon="2.944355023803">
        <ele>8.6</ele>
        <time>2014-05-03T13:57:52Z</time>
      </trkpt>
      <trkpt lat="39.36292539123" lon="2.944387880851">
        <ele>9.4</ele>
        <time>2014-05-03T13:57:53Z</time>
      </trkpt>
      <trkpt lat="39.362916590235" lon="2.944417888053">
        <ele>9.8</ele>
        <time>2014-05-03T13:57:54Z</time>
      </trkpt>
      <trkpt lat="39.362905861403" lon="2.944451499472">
        <ele>10.2</ele>
        <time>2014-05-03T13:57:55Z</time>
      </trkpt>
      <trkpt lat="39.362841656049" lon="2.944621232947">
        <ele>10.2</ele>
        <time>2014-05-03T13:57:58Z</time>
      </trkpt>
      <trkpt lat="39.362816175073" lon="2.944686276491">
        <ele>10.2</ele>
        <time>2014-05-03T13:57:59Z</time>
      </trkpt>
      <trkpt lat="39.362798237807" lon="2.944751487673">
        <ele>10.2</ele>
        <time>2014-05-03T13:58:00Z</time>
      </trkpt>
      <trkpt lat="39.362757585592" lon="2.944875875069">
        <ele>10.2</ele>
        <time>2014-05-03T13:58:02Z</time>
      </trkpt>
      <trkpt lat="39.362708383839" lon="2.94500151975">
        <ele>10.2</ele>
        <time>2014-05-03T13:58:04Z</time>
      </trkpt>
      <trkpt lat="39.362665803787" lon="2.945122805843">
        <ele>10.2</ele>
        <time>2014-05-03T13:58:06Z</time>
      </trkpt>
      <trkpt lat="39.362577710018" lon="2.945358504871">
        <ele>10.2</ele>
        <time>2014-05-03T13:58:10Z</time>
      </trkpt>
      <trkpt lat="39.362436391184" lon="2.945753543818">
        <ele>10.2</ele>
        <time>2014-05-03T13:58:17Z</time>
      </trkpt>
      <trkpt lat="39.362305298268" lon="2.946112289138">
        <ele>10.2</ele>
        <time>2014-05-03T13:58:23Z</time>
      </trkpt>
      <trkpt lat="39.362187867849" lon="2.946501376936">
        <ele>10.2</ele>
        <time>2014-05-03T13:58:29Z</time>
      </trkpt>
      <trkpt lat="39.362129278368" lon="2.94675585142">
        <ele>10.2</ele>
        <time>2014-05-03T13:58:33Z</time>
      </trkpt>
      <trkpt lat="39.362108323618" lon="2.9468916382">
        <ele>10.2</ele>
        <time>2014-05-03T13:58:35Z</time>
      </trkpt>
      <trkpt lat="39.362102707745" lon="2.947023401668">
        <ele>10.2</ele>
        <time>2014-05-03T13:58:37Z</time>
      </trkpt>
      <trkpt lat="39.362079322244" lon="2.947188608917">
        <ele>10.2</ele>
        <time>2014-05-03T13:58:39Z</time>
      </trkpt>
      <trkpt lat="39.362019224021" lon="2.947705101595">
        <ele>10.2</ele>
        <time>2014-05-03T13:58:45Z</time>
      </trkpt>
      <trkpt lat="39.361970525182" lon="2.948160741679">
        <ele>10.2</ele>
        <time>2014-05-03T13:58:51Z</time>
      </trkpt>
      <trkpt lat="39.361934315374" lon="2.948585536371">
        <ele>10.2</ele>
        <time>2014-05-03T13:58:56Z</time>
      </trkpt>
      <trkpt lat="39.361938087229" lon="2.948772871836">
        <ele>10.2</ele>
        <time>2014-05-03T13:58:58Z</time>
      </trkpt>
      <trkpt lat="39.361957617056" lon="2.948958028007">
        <ele>10.2</ele>
        <time>2014-05-03T13:59:00Z</time>
      </trkpt>
      <trkpt lat="39.362026600093" lon="2.949353486049">
        <ele>10.2</ele>
        <time>2014-05-03T13:59:04Z</time>
      </trkpt>
      <trkpt lat="39.36204612992" lon="2.949444010569">
        <ele>10.2</ele>
        <time>2014-05-03T13:59:05Z</time>
      </trkpt>
      <trkpt lat="39.362074963656" lon="2.949533445442">
        <ele>10.2</ele>
        <time>2014-05-03T13:59:06Z</time>
      </trkpt>
      <trkpt lat="39.362211337169" lon="2.949881294292">
        <ele>10.2</ele>
        <time>2014-05-03T13:59:10Z</time>
      </trkpt>
      <trkpt lat="39.36236380393" lon="2.950296114523">
        <ele>10.2</ele>
        <time>2014-05-03T13:59:15Z</time>
      </trkpt>
      <trkpt lat="39.362428428379" lon="2.950459142478">
        <ele>10.2</ele>
        <time>2014-05-03T13:59:17Z</time>
      </trkpt>
      <trkpt lat="39.362618446052" lon="2.950979909925">
        <ele>10.2</ele>
        <time>2014-05-03T13:59:23Z</time>
      </trkpt>
      <trkpt lat="39.362759597248" lon="2.951361034918">
        <ele>10.2</ele>
        <time>2014-05-03T13:59:28Z</time>
      </trkpt>
      <trkpt lat="39.362787257518" lon="2.951430269412">
        <ele>10.2</ele>
        <time>2014-05-03T13:59:29Z</time>
      </trkpt>
      <trkpt lat="39.362866885568" lon="2.951633446668">
        <ele>10.6</ele>
        <time>2014-05-03T13:59:32Z</time>
      </trkpt>
      <trkpt lat="39.362899155883" lon="2.951707207388">
        <ele>11</ele>
        <time>2014-05-03T13:59:33Z</time>
      </trkpt>
      <trkpt lat="39.362929833637" lon="2.951785410515">
        <ele>11.4</ele>
        <time>2014-05-03T13:59:34Z</time>
      </trkpt>
      <trkpt lat="39.362959002649" lon="2.951875264483">
        <ele>11.8</ele>
        <time>2014-05-03T13:59:35Z</time>
      </trkpt>
      <trkpt lat="39.362992697887" lon="2.951954473438">
        <ele>12.2</ele>
        <time>2014-05-03T13:59:36Z</time>
      </trkpt>
      <trkpt lat="39.363139716413" lon="2.952372897886">
        <ele>12.2</ele>
        <time>2014-05-03T13:59:41Z</time>
      </trkpt>
      <trkpt lat="39.363271731338" lon="2.952730972654">
        <ele>11.8</ele>
        <time>2014-05-03T13:59:45Z</time>
      </trkpt>
      <trkpt lat="39.363305678033" lon="2.952825855762">
        <ele>11.4</ele>
        <time>2014-05-03T13:59:46Z</time>
      </trkpt>
      <trkpt lat="39.363341552565" lon="2.952919733042">
        <ele>11</ele>
        <time>2014-05-03T13:59:47Z</time>
      </trkpt>
      <trkpt lat="39.363373571423" lon="2.953012185399">
        <ele>10.6</ele>
        <time>2014-05-03T13:59:48Z</time>
      </trkpt>
      <trkpt lat="39.363407937213" lon="2.953106481774">
        <ele>10</ele>
        <time>2014-05-03T13:59:49Z</time>
      </trkpt>
      <trkpt lat="39.363592087556" lon="2.953603779901">
        <ele>9.6</ele>
        <time>2014-05-03T13:59:54Z</time>
      </trkpt>
      <trkpt lat="39.363632572133" lon="2.95371115204">
        <ele>9.2</ele>
        <time>2014-05-03T13:59:55Z</time>
      </trkpt>
      <trkpt lat="39.363677415298" lon="2.953823385681">
        <ele>8.2</ele>
        <time>2014-05-03T13:59:56Z</time>
      </trkpt>
      <trkpt lat="39.363720665902" lon="2.953947605439">
        <ele>7.6</ele>
        <time>2014-05-03T13:59:57Z</time>
      </trkpt>
      <trkpt lat="39.36388763335" lon="2.954384134791">
        <ele>7.6</ele>
        <time>2014-05-03T14:00:01Z</time>
      </trkpt>
      <trkpt lat="39.364059127024" lon="2.954773306408">
        <ele>7.6</ele>
        <time>2014-05-03T14:00:05Z</time>
      </trkpt>
      <trkpt lat="39.364132887744" lon="2.954969107592">
        <ele>7.6</ele>
        <time>2014-05-03T14:00:07Z</time>
      </trkpt>
      <trkpt lat="39.364295077509" lon="2.955335648079">
        <ele>7.6</ele>
        <time>2014-05-03T14:00:11Z</time>
      </trkpt>
      <trkpt lat="39.364325671444" lon="2.955441930571">
        <ele>7.6</ele>
        <time>2014-05-03T14:00:12Z</time>
      </trkpt>
      <trkpt lat="39.364389373884" lon="2.955655417564">
        <ele>7.6</ele>
        <time>2014-05-03T14:00:14Z</time>
      </trkpt>
      <trkpt lat="39.364423991131" lon="2.955750803586">
        <ele>7.2</ele>
        <time>2014-05-03T14:00:15Z</time>
      </trkpt>
      <trkpt lat="39.364456848179" lon="2.955848368902">
        <ele>6.8</ele>
        <time>2014-05-03T14:00:16Z</time>
      </trkpt>
      <trkpt lat="39.364491213969" lon="2.955950544263">
        <ele>6.4</ele>
        <time>2014-05-03T14:00:17Z</time>
      </trkpt>
      <trkpt lat="39.36452381956" lon="2.956053222538">
        <ele>6</ele>
        <time>2014-05-03T14:00:18Z</time>
      </trkpt>
      <trkpt lat="39.364560448463" lon="2.956153805338">
        <ele>5.6</ele>
        <time>2014-05-03T14:00:19Z</time>
      </trkpt>
      <trkpt lat="39.364773181085" lon="2.956720170321">
        <ele>5.6</ele>
        <time>2014-05-03T14:00:25Z</time>
      </trkpt>
      <trkpt lat="39.364951380279" lon="2.957207745444">
        <ele>5.6</ele>
        <time>2014-05-03T14:00:30Z</time>
      </trkpt>
      <trkpt lat="39.365064033015" lon="2.957500273754">
        <ele>5.6</ele>
        <time>2014-05-03T14:00:33Z</time>
      </trkpt>
      <trkpt lat="39.365215242491" lon="2.957875447598">
        <ele>5.6</ele>
        <time>2014-05-03T14:00:37Z</time>
      </trkpt>
      <trkpt lat="39.365392100581" lon="2.958258165152">
        <ele>5.6</ele>
        <time>2014-05-03T14:00:41Z</time>
      </trkpt>
      <trkpt lat="39.365618914795" lon="2.958719672566">
        <ele>5.6</ele>
        <time>2014-05-03T14:00:46Z</time>
      </trkpt>
      <trkpt lat="39.365668703281" lon="2.958803659204">
        <ele>5.6</ele>
        <time>2014-05-03T14:00:47Z</time>
      </trkpt>
      <trkpt lat="39.365821086223" lon="2.959061486448">
        <ele>6</ele>
        <time>2014-05-03T14:00:50Z</time>
      </trkpt>
      <trkpt lat="39.365873724555" lon="2.959149580217">
        <ele>6.4</ele>
        <time>2014-05-03T14:00:51Z</time>
      </trkpt>
      <trkpt lat="39.365928542181" lon="2.95923650052">
        <ele>6.8</ele>
        <time>2014-05-03T14:00:52Z</time>
      </trkpt>
      <trkpt lat="39.365985203825" lon="2.959320068063">
        <ele>7.2</ele>
        <time>2014-05-03T14:00:53Z</time>
      </trkpt>
      <trkpt lat="39.366035411406" lon="2.959405479624">
        <ele>7.6</ele>
        <time>2014-05-03T14:00:54Z</time>
      </trkpt>
      <trkpt lat="39.3661381735" lon="2.959573369081">
        <ele>7.6</ele>
        <time>2014-05-03T14:00:56Z</time>
      </trkpt>
      <trkpt lat="39.366530111144" lon="2.960175776234">
        <ele>7.6</ele>
        <time>2014-05-03T14:01:03Z</time>
      </trkpt>
      <trkpt lat="39.366584593494" lon="2.960265211107">
        <ele>7.6</ele>
        <time>2014-05-03T14:01:04Z</time>
      </trkpt>
      <trkpt lat="39.366959012967" lon="2.960868372631">
        <ele>7.6</ele>
        <time>2014-05-03T14:01:11Z</time>
      </trkpt>
      <trkpt lat="39.36733929977" lon="2.961465499187">
        <ele>7.6</ele>
        <time>2014-05-03T14:01:18Z</time>
      </trkpt>
      <trkpt lat="39.367395207043" lon="2.96155493406">
        <ele>7.6</ele>
        <time>2014-05-03T14:01:19Z</time>
      </trkpt>
      <trkpt lat="39.367781947909" lon="2.962170668434">
        <ele>7.6</ele>
        <time>2014-05-03T14:01:26Z</time>
      </trkpt>
      <trkpt lat="39.367901054708" lon="2.962356578976">
        <ele>7.6</ele>
        <time>2014-05-03T14:01:28Z</time>
      </trkpt>
      <trkpt lat="39.368189140611" lon="2.962813979259">
        <ele>7.6</ele>
        <time>2014-05-03T14:01:33Z</time>
      </trkpt>
      <trkpt lat="39.368489967002" lon="2.963282946564">
        <ele>7.6</ele>
        <time>2014-05-03T14:01:38Z</time>
      </trkpt>
      <trkpt lat="39.368764893322" lon="2.963716793708">
        <ele>7.6</ele>
        <time>2014-05-03T14:01:43Z</time>
      </trkpt>
      <trkpt lat="39.368936219358" lon="2.963972776934">
        <ele>7.6</ele>
        <time>2014-05-03T14:01:46Z</time>
      </trkpt>
      <trkpt lat="39.36911207162" lon="2.964240662458">
        <ele>7.6</ele>
        <time>2014-05-03T14:01:49Z</time>
      </trkpt>
      <trkpt lat="39.369410215803" lon="2.964671911213">
        <ele>7.6</ele>
        <time>2014-05-03T14:01:54Z</time>
      </trkpt>
      <trkpt lat="39.369586990074" lon="2.964919931634">
        <ele>7.6</ele>
        <time>2014-05-03T14:01:57Z</time>
      </trkpt>
      <trkpt lat="39.370031733688" lon="2.965474981052">
        <ele>7.6</ele>
        <time>2014-05-03T14:02:04Z</time>
      </trkpt>
      <trkpt lat="39.370161904595" lon="2.965635075342">
        <ele>8</ele>
        <time>2014-05-03T14:02:06Z</time>
      </trkpt>
      <trkpt lat="39.370227618691" lon="2.965711015356">
        <ele>8.6</ele>
        <time>2014-05-03T14:02:07Z</time>
      </trkpt>
      <trkpt lat="39.370296350271" lon="2.965795756365">
        <ele>9</ele>
        <time>2014-05-03T14:02:08Z</time>
      </trkpt>
      <trkpt lat="39.370364578937" lon="2.965874378587">
        <ele>9.4</ele>
        <time>2014-05-03T14:02:09Z</time>
      </trkpt>
      <trkpt lat="39.370433729612" lon="2.965953671361">
        <ele>9.8</ele>
        <time>2014-05-03T14:02:10Z</time>
      </trkpt>
      <trkpt lat="39.370567253279" lon="2.96610211481">
        <ele>9.8</ele>
        <time>2014-05-03T14:02:12Z</time>
      </trkpt>
      <trkpt lat="39.371031023806" lon="2.966632269985">
        <ele>9.8</ele>
        <time>2014-05-03T14:02:19Z</time>
      </trkpt>
      <trkpt lat="39.371448610064" lon="2.96710459005">
        <ele>9.8</ele>
        <time>2014-05-03T14:02:25Z</time>
      </trkpt>
      <trkpt lat="39.371589677441" lon="2.967260241933">
        <ele>9.8</ele>
        <time>2014-05-03T14:02:27Z</time>
      </trkpt>
      <trkpt lat="39.371731163913" lon="2.967409858848">
        <ele>9.8</ele>
        <time>2014-05-03T14:02:29Z</time>
      </trkpt>
      <trkpt lat="39.371951775521" lon="2.9676368407">
        <ele>9.8</ele>
        <time>2014-05-03T14:02:32Z</time>
      </trkpt>
      <trkpt lat="39.372262408735" lon="2.967910761192">
        <ele>9.8</ele>
        <time>2014-05-03T14:02:36Z</time>
      </trkpt>
      <trkpt lat="39.372756270283" lon="2.968280319163">
        <ele>9.8</ele>
        <time>2014-05-03T14:02:42Z</time>
      </trkpt>
      <trkpt lat="39.37292415974" lon="2.96839037351">
        <ele>9.8</ele>
        <time>2014-05-03T14:02:44Z</time>
      </trkpt>
      <trkpt lat="39.373482478099" lon="2.968670245151">
        <ele>9.8</ele>
        <time>2014-05-03T14:02:50Z</time>
      </trkpt>
      <trkpt lat="39.373579289044" lon="2.968709137167">
        <ele>9.8</ele>
        <time>2014-05-03T14:02:51Z</time>
      </trkpt>
      <trkpt lat="39.37417306284" lon="2.968916337735">
        <ele>9.8</ele>
        <time>2014-05-03T14:02:57Z</time>
      </trkpt>
      <trkpt lat="39.374373054974" lon="2.968973083198">
        <ele>9.8</ele>
        <time>2014-05-03T14:02:59Z</time>
      </trkpt>
      <trkpt lat="39.374471709937" lon="2.96899722307">
        <ele>9.8</ele>
        <time>2014-05-03T14:03:00Z</time>
      </trkpt>
      <trkpt lat="39.374573466203" lon="2.969029577204">
        <ele>9.2</ele>
        <time>2014-05-03T14:03:01Z</time>
      </trkpt>
      <trkpt lat="39.374669438958" lon="2.969058494759">
        <ele>8.8</ele>
        <time>2014-05-03T14:03:02Z</time>
      </trkpt>
      <trkpt lat="39.374764908799" lon="2.969083472821">
        <ele>8.4</ele>
        <time>2014-05-03T14:03:03Z</time>
      </trkpt>
      <trkpt lat="39.374858283165" lon="2.969110797815">
        <ele>8</ele>
        <time>2014-05-03T14:03:04Z</time>
      </trkpt>
      <trkpt lat="39.374955010291" lon="2.969139799189">
        <ele>7.4</ele>
        <time>2014-05-03T14:03:05Z</time>
      </trkpt>
      <trkpt lat="39.37524678423" lon="2.96922688713">
        <ele>7.4</ele>
        <time>2014-05-03T14:03:08Z</time>
      </trkpt>
      <trkpt lat="39.375346612659" lon="2.969257564884">
        <ele>7.4</ele>
        <time>2014-05-03T14:03:09Z</time>
      </trkpt>
      <trkpt lat="39.375439232654" lon="2.96928723681">
        <ele>7.4</ele>
        <time>2014-05-03T14:03:10Z</time>
      </trkpt>
      <trkpt lat="39.375810802281" lon="2.969412630034">
        <ele>7.4</ele>
        <time>2014-05-03T14:03:14Z</time>
      </trkpt>
      <trkpt lat="39.375903757552" lon="2.969448253109">
        <ele>7.4</ele>
        <time>2014-05-03T14:03:15Z</time>
      </trkpt>
      <trkpt lat="39.376286894201" lon="2.96958647064">
        <ele>7.4</ele>
        <time>2014-05-03T14:03:19Z</time>
      </trkpt>
      <trkpt lat="39.37647473258" lon="2.969655118401">
        <ele>7.4</ele>
        <time>2014-05-03T14:03:21Z</time>
      </trkpt>
      <trkpt lat="39.377030871645" lon="2.969885285375">
        <ele>7.4</ele>
        <time>2014-05-03T14:03:27Z</time>
      </trkpt>
      <trkpt lat="39.37712097707" lon="2.96992258483">
        <ele>7.4</ele>
        <time>2014-05-03T14:03:28Z</time>
      </trkpt>
      <trkpt lat="39.377677702868" lon="2.970170186156">
        <ele>7.4</ele>
        <time>2014-05-03T14:03:34Z</time>
      </trkpt>
      <trkpt lat="39.377769484673" lon="2.970212347113">
        <ele>7.4</ele>
        <time>2014-05-03T14:03:35Z</time>
      </trkpt>
      <trkpt lat="39.377862356125" lon="2.970256016812">
        <ele>7.4</ele>
        <time>2014-05-03T14:03:36Z</time>
      </trkpt>
      <trkpt lat="39.377953383559" lon="2.970298596864">
        <ele>7.4</ele>
        <time>2014-05-03T14:03:37Z</time>
      </trkpt>
      <trkpt lat="39.378044494812" lon="2.970341260735">
        <ele>7.4</ele>
        <time>2014-05-03T14:03:38Z</time>
      </trkpt>
      <trkpt lat="39.37813937792" lon="2.970383505511">
        <ele>7.4</ele>
        <time>2014-05-03T14:03:39Z</time>
      </trkpt>
      <trkpt lat="39.378685458705" lon="2.970633118493">
        <ele>7.4</ele>
        <time>2014-05-03T14:03:45Z</time>
      </trkpt>
      <trkpt lat="39.378954182419" lon="2.970761864477">
        <ele>7.8</ele>
        <time>2014-05-03T14:03:48Z</time>
      </trkpt>
      <trkpt lat="39.379042695283" lon="2.970803019606">
        <ele>8.2</ele>
        <time>2014-05-03T14:03:49Z</time>
      </trkpt>
      <trkpt lat="39.379132968346" lon="2.970843168907">
        <ele>8.6</ele>
        <time>2014-05-03T14:03:50Z</time>
      </trkpt>
      <trkpt lat="39.3792223194" lon="2.970882815294">
        <ele>9.2</ele>
        <time>2014-05-03T14:03:51Z</time>
      </trkpt>
      <trkpt lat="39.379311838092" lon="2.970925311527">
        <ele>9.6</ele>
        <time>2014-05-03T14:03:52Z</time>
      </trkpt>
      <trkpt lat="39.379404038992" lon="2.970967304846">
        <ele>9.6</ele>
        <time>2014-05-03T14:03:53Z</time>
      </trkpt>
      <trkpt lat="39.379495317883" lon="2.971010806907">
        <ele>9.6</ele>
        <time>2014-05-03T14:03:54Z</time>
      </trkpt>
      <trkpt lat="39.379590620086" lon="2.971053889873">
        <ele>9.6</ele>
        <time>2014-05-03T14:03:55Z</time>
      </trkpt>
      <trkpt lat="39.379774016058" lon="2.971135613398">
        <ele>9.6</ele>
        <time>2014-05-03T14:03:57Z</time>
      </trkpt>
      <trkpt lat="39.379961351523" lon="2.971225383547">
        <ele>10</ele>
        <time>2014-05-03T14:03:59Z</time>
      </trkpt>
      <trkpt lat="39.380056905183" lon="2.971266622495">
        <ele>10.4</ele>
        <time>2014-05-03T14:04:00Z</time>
      </trkpt>
      <trkpt lat="39.380150111911" lon="2.971309705461">
        <ele>10.8</ele>
        <time>2014-05-03T14:04:01Z</time>
      </trkpt>
      <trkpt lat="39.380241726078" lon="2.971351782599">
        <ele>11.2</ele>
        <time>2014-05-03T14:04:02Z</time>
      </trkpt>
      <trkpt lat="39.380338704661" lon="2.971397380135">
        <ele>11.6</ele>
        <time>2014-05-03T14:04:03Z</time>
      </trkpt>
      <trkpt lat="39.380614804447" lon="2.97152268954">
        <ele>11.6</ele>
        <time>2014-05-03T14:04:06Z</time>
      </trkpt>
      <trkpt lat="39.381168428942" lon="2.971765010269">
        <ele>11.6</ele>
        <time>2014-05-03T14:04:12Z</time>
      </trkpt>
      <trkpt lat="39.381437236475" lon="2.971883781792">
        <ele>11.6</ele>
        <time>2014-05-03T14:04:15Z</time>
      </trkpt>
      <trkpt lat="39.381979796862" lon="2.972111350377">
        <ele>12</ele>
        <time>2014-05-03T14:04:21Z</time>
      </trkpt>
      <trkpt lat="39.38206965083" lon="2.972150577669">
        <ele>12.4</ele>
        <time>2014-05-03T14:04:22Z</time>
      </trkpt>
      <trkpt lat="39.382159923893" lon="2.972190056418">
        <ele>12.8</ele>
        <time>2014-05-03T14:04:23Z</time>
      </trkpt>
      <trkpt lat="39.382249358766" lon="2.972229116072">
        <ele>13.2</ele>
        <time>2014-05-03T14:04:24Z</time>
      </trkpt>
      <trkpt lat="39.382339464191" lon="2.972270522658">
        <ele>13.6</ele>
        <time>2014-05-03T14:04:25Z</time>
      </trkpt>
      <trkpt lat="39.382438286792" lon="2.97230639719">
        <ele>13.6</ele>
        <time>2014-05-03T14:04:26Z</time>
      </trkpt>
      <trkpt lat="39.382529565683" lon="2.972342523179">
        <ele>13.6</ele>
        <time>2014-05-03T14:04:27Z</time>
      </trkpt>
      <trkpt lat="39.38261950347" lon="2.972383426851">
        <ele>13.6</ele>
        <time>2014-05-03T14:04:28Z</time>
      </trkpt>
      <trkpt lat="39.383063073618" lon="2.972608564685">
        <ele>13.6</ele>
        <time>2014-05-03T14:04:33Z</time>
      </trkpt>
      <trkpt lat="39.383603789987" lon="2.972897237321">
        <ele>13.6</ele>
        <time>2014-05-03T14:04:39Z</time>
      </trkpt>
      <trkpt lat="39.383791041633" lon="2.972993293895">
        <ele>13.6</ele>
        <time>2014-05-03T14:04:41Z</time>
      </trkpt>
      <trkpt lat="39.38388181761" lon="2.973041070725">
        <ele>13.6</ele>
        <time>2014-05-03T14:04:42Z</time>
      </trkpt>
      <trkpt lat="39.383973767053" lon="2.973087841727">
        <ele>13.6</ele>
        <time>2014-05-03T14:04:43Z</time>
      </trkpt>
      <trkpt lat="39.38415758212" lon="2.973185407043">
        <ele>13.6</ele>
        <time>2014-05-03T14:04:45Z</time>
      </trkpt>
      <trkpt lat="39.38433779297" lon="2.973281715074">
        <ele>13.6</ele>
        <time>2014-05-03T14:04:47Z</time>
      </trkpt>
      <trkpt lat="39.384712296262" lon="2.973479947009">
        <ele>13.6</ele>
        <time>2014-05-03T14:04:51Z</time>
      </trkpt>
      <trkpt lat="39.384895440777" lon="2.973573572832">
        <ele>13.6</ele>
        <time>2014-05-03T14:04:53Z</time>
      </trkpt>
      <trkpt lat="39.384986132935" lon="2.97362319368">
        <ele>13.6</ele>
        <time>2014-05-03T14:04:54Z</time>
      </trkpt>
      <trkpt lat="39.385169780364" lon="2.973723525023">
        <ele>13.6</ele>
        <time>2014-05-03T14:04:56Z</time>
      </trkpt>
      <trkpt lat="39.385258377047" lon="2.97376987693">
        <ele>13.6</ele>
        <time>2014-05-03T14:04:57Z</time>
      </trkpt>
      <trkpt lat="39.385435151318" lon="2.973862664563">
        <ele>13.6</ele>
        <time>2014-05-03T14:04:59Z</time>
      </trkpt>
      <trkpt lat="39.385523161268" lon="2.973910357574">
        <ele>13.6</ele>
        <time>2014-05-03T14:05:00Z</time>
      </trkpt>
      <trkpt lat="39.386068906777" lon="2.974192157052">
        <ele>13.6</ele>
        <time>2014-05-03T14:05:06Z</time>
      </trkpt>
      <trkpt lat="39.386245178134" lon="2.974288297445">
        <ele>14</ele>
        <time>2014-05-03T14:05:08Z</time>
      </trkpt>
      <trkpt lat="39.386332098437" lon="2.974335152266">
        <ele>14.4</ele>
        <time>2014-05-03T14:05:09Z</time>
      </trkpt>
      <trkpt lat="39.386419437835" lon="2.974382426182">
        <ele>14.8</ele>
        <time>2014-05-03T14:05:10Z</time>
      </trkpt>
      <trkpt lat="39.386507447785" lon="2.974428023718">
        <ele>15.2</ele>
        <time>2014-05-03T14:05:11Z</time>
      </trkpt>
      <trkpt lat="39.386599900142" lon="2.974477476928">
        <ele>15.6</ele>
        <time>2014-05-03T14:05:12Z</time>
      </trkpt>
      <trkpt lat="39.387135922647" lon="2.974756761836">
        <ele>15.6</ele>
        <time>2014-05-03T14:05:18Z</time>
      </trkpt>
      <trkpt lat="39.387229045556" lon="2.974809400168">
        <ele>15.6</ele>
        <time>2014-05-03T14:05:19Z</time>
      </trkpt>
      <trkpt lat="39.387767834088" lon="2.975087427791">
        <ele>15.6</ele>
        <time>2014-05-03T14:05:25Z</time>
      </trkpt>
      <trkpt lat="39.388312573769" lon="2.975351876736">
        <ele>15.6</ele>
        <time>2014-05-03T14:05:31Z</time>
      </trkpt>
      <trkpt lat="39.388488845126" lon="2.975441143971">
        <ele>15.6</ele>
        <time>2014-05-03T14:05:33Z</time>
      </trkpt>
      <trkpt lat="39.38858322532" lon="2.975485819498">
        <ele>15.6</ele>
        <time>2014-05-03T14:05:34Z</time>
      </trkpt>
      <trkpt lat="39.388947502694" lon="2.975651697299">
        <ele>15.6</ele>
        <time>2014-05-03T14:05:38Z</time>
      </trkpt>
      <trkpt lat="39.389038613947" lon="2.975692181876">
        <ele>15.6</ele>
        <time>2014-05-03T14:05:39Z</time>
      </trkpt>
      <trkpt lat="39.389412111411" lon="2.975857640582">
        <ele>15.6</ele>
        <time>2014-05-03T14:05:43Z</time>
      </trkpt>
      <trkpt lat="39.389785022142" lon="2.976030223903">
        <ele>16</ele>
        <time>2014-05-03T14:05:47Z</time>
      </trkpt>
      <trkpt lat="39.389878647965" lon="2.976071462851">
        <ele>16.4</ele>
        <time>2014-05-03T14:05:48Z</time>
      </trkpt>
      <trkpt lat="39.389971603236" lon="2.976112115066">
        <ele>17</ele>
        <time>2014-05-03T14:05:49Z</time>
      </trkpt>
      <trkpt lat="39.390068330362" lon="2.976154192204">
        <ele>17.4</ele>
        <time>2014-05-03T14:05:50Z</time>
      </trkpt>
      <trkpt lat="39.390160028348" lon="2.976194173867">
        <ele>17.8</ele>
        <time>2014-05-03T14:05:51Z</time>
      </trkpt>
      <trkpt lat="39.390344430148" lon="2.976283022007">
        <ele>17.8</ele>
        <time>2014-05-03T14:05:53Z</time>
      </trkpt>
      <trkpt lat="39.39043646341" lon="2.976324260955">
        <ele>17.8</ele>
        <time>2014-05-03T14:05:54Z</time>
      </trkpt>
      <trkpt lat="39.390621535762" lon="2.976406738851">
        <ele>17.8</ele>
        <time>2014-05-03T14:05:56Z</time>
      </trkpt>
      <trkpt lat="39.390809038865" lon="2.976504387986">
        <ele>17.8</ele>
        <time>2014-05-03T14:05:58Z</time>
      </trkpt>
      <trkpt lat="39.391082037348" lon="2.976670181968">
        <ele>17.8</ele>
        <time>2014-05-03T14:06:01Z</time>
      </trkpt>
      <trkpt lat="39.391428545094" lon="2.976959944251">
        <ele>17.8</ele>
        <time>2014-05-03T14:06:05Z</time>
      </trkpt>
      <trkpt lat="39.391509933343" lon="2.977043427975">
        <ele>17.8</ele>
        <time>2014-05-03T14:06:06Z</time>
      </trkpt>
      <trkpt lat="39.391875970916" lon="2.977514155479">
        <ele>17.8</ele>
        <time>2014-05-03T14:06:11Z</time>
      </trkpt>
      <trkpt lat="39.392149891408" lon="2.977936184144">
        <ele>18.2</ele>
        <time>2014-05-03T14:06:15Z</time>
      </trkpt>
      <trkpt lat="39.392214934952" lon="2.978042550455">
        <ele>18.6</ele>
        <time>2014-05-03T14:06:16Z</time>
      </trkpt>
      <trkpt lat="39.392280649048" lon="2.978156795752">
        <ele>19</ele>
        <time>2014-05-03T14:06:17Z</time>
      </trkpt>
      <trkpt lat="39.392345776411" lon="2.978266682461">
        <ele>19.6</ele>
        <time>2014-05-03T14:06:18Z</time>
      </trkpt>
      <trkpt lat="39.392411993421" lon="2.978374725152">
        <ele>20</ele>
        <time>2014-05-03T14:06:19Z</time>
      </trkpt>
      <trkpt lat="39.392679040755" lon="2.97881326616">
        <ele>19.6</ele>
        <time>2014-05-03T14:06:23Z</time>
      </trkpt>
      <trkpt lat="39.392742407919" lon="2.978920386842">
        <ele>19</ele>
        <time>2014-05-03T14:06:24Z</time>
      </trkpt>
      <trkpt lat="39.392808289653" lon="2.979027926619">
        <ele>18.6</ele>
        <time>2014-05-03T14:06:25Z</time>
      </trkpt>
      <trkpt lat="39.392877775604" lon="2.979139405889">
        <ele>18.2</ele>
        <time>2014-05-03T14:06:26Z</time>
      </trkpt>
      <trkpt lat="39.392946926279" lon="2.97924912496">
        <ele>17.8</ele>
        <time>2014-05-03T14:06:27Z</time>
      </trkpt>
      <trkpt lat="39.393287399057" lon="2.979804928749">
        <ele>17.8</ele>
        <time>2014-05-03T14:06:32Z</time>
      </trkpt>
      <trkpt lat="39.393632146604" lon="2.980363247108">
        <ele>17.8</ele>
        <time>2014-05-03T14:06:37Z</time>
      </trkpt>
      <trkpt lat="39.393834066575" lon="2.980686285534">
        <ele>17.8</ele>
        <time>2014-05-03T14:06:40Z</time>
      </trkpt>
      <trkpt lat="39.3938990263" lon="2.980796926614">
        <ele>17.8</ele>
        <time>2014-05-03T14:06:41Z</time>
      </trkpt>
      <trkpt lat="39.394089882163" lon="2.981105548172">
        <ele>17.8</ele>
        <time>2014-05-03T14:06:44Z</time>
      </trkpt>
      <trkpt lat="39.3941504833" lon="2.981203448764">
        <ele>17.8</ele>
        <time>2014-05-03T14:06:45Z</time>
      </trkpt>
      <trkpt lat="39.394325078277" lon="2.981500670938">
        <ele>17.8</ele>
        <time>2014-05-03T14:06:48Z</time>
      </trkpt>
      <trkpt lat="39.394359108791" lon="2.981594129123">
        <ele>17.8</ele>
        <time>2014-05-03T14:06:49Z</time>
      </trkpt>
      <trkpt lat="39.394386601423" lon="2.981695633932">
        <ele>17.8</ele>
        <time>2014-05-03T14:06:50Z</time>
      </trkpt>
      <trkpt lat="39.394405879793" lon="2.981807616116">
        <ele>18.2</ele>
        <time>2014-05-03T14:06:51Z</time>
      </trkpt>
      <trkpt lat="39.394426918362" lon="2.981920185033">
        <ele>18.6</ele>
        <time>2014-05-03T14:06:52Z</time>
      </trkpt>
      <trkpt lat="39.394451644967" lon="2.982030993751">
        <ele>19.2</ele>
        <time>2014-05-03T14:06:53Z</time>
      </trkpt>
      <trkpt lat="39.39452263966" lon="2.982117494959">
        <ele>19.6</ele>
        <time>2014-05-03T14:06:54Z</time>
      </trkpt>
      <trkpt lat="39.394612242171" lon="2.982152698939">
        <ele>20</ele>
        <time>2014-05-03T14:06:55Z</time>
      </trkpt>
      <trkpt lat="39.394699246293" lon="2.982169630377">
        <ele>20</ele>
        <time>2014-05-03T14:06:56Z</time>
      </trkpt>
      <trkpt lat="39.394856909832" lon="2.982256969775">
        <ele>20</ele>
        <time>2014-05-03T14:06:58Z</time>
      </trkpt>
      <trkpt lat="39.394997139019" lon="2.982380183705">
        <ele>20</ele>
        <time>2014-05-03T14:07:00Z</time>
      </trkpt>
      <trkpt lat="39.395472057473" lon="2.982916038572">
        <ele>20</ele>
        <time>2014-05-03T14:07:07Z</time>
      </trkpt>
      <trkpt lat="39.395894840509" lon="2.98341828202">
        <ele>20</ele>
        <time>2014-05-03T14:07:13Z</time>
      </trkpt>
      <trkpt lat="39.396040517931" lon="2.983603773467">
        <ele>19.6</ele>
        <time>2014-05-03T14:07:15Z</time>
      </trkpt>
      <trkpt lat="39.396115787393" lon="2.983702679887">
        <ele>19.2</ele>
        <time>2014-05-03T14:07:16Z</time>
      </trkpt>
      <trkpt lat="39.396181082394" lon="2.983792030941">
        <ele>18.8</ele>
        <time>2014-05-03T14:07:17Z</time>
      </trkpt>
      <trkpt lat="39.396247969956" lon="2.983885070031">
        <ele>18.4</ele>
        <time>2014-05-03T14:07:18Z</time>
      </trkpt>
      <trkpt lat="39.396316030984" lon="2.983981461881">
        <ele>18</ele>
        <time>2014-05-03T14:07:19Z</time>
      </trkpt>
      <trkpt lat="39.396717691632" lon="2.984566518501">
        <ele>18</ele>
        <time>2014-05-03T14:07:25Z</time>
      </trkpt>
      <trkpt lat="39.396918941051" lon="2.98486080701">
        <ele>18</ele>
        <time>2014-05-03T14:07:28Z</time>
      </trkpt>
      <trkpt lat="39.397296461827" lon="2.98529163667">
        <ele>18</ele>
        <time>2014-05-03T14:07:33Z</time>
      </trkpt>
      <trkpt lat="39.397807087175" lon="2.985726824918">
        <ele>18</ele>
        <time>2014-05-03T14:07:39Z</time>
      </trkpt>
      <trkpt lat="39.397897276419" lon="2.985793796299">
        <ele>18</ele>
        <time>2014-05-03T14:07:40Z</time>
      </trkpt>
      <trkpt lat="39.398452996389" lon="2.986189589617">
        <ele>18</ele>
        <time>2014-05-03T14:07:46Z</time>
      </trkpt>
      <trkpt lat="39.398731359288" lon="2.986388743561">
        <ele>18</ele>
        <time>2014-05-03T14:07:49Z</time>
      </trkpt>
      <trkpt lat="39.399285821973" lon="2.9867894822">
        <ele>18</ele>
        <time>2014-05-03T14:07:55Z</time>
      </trkpt>
      <trkpt lat="39.399655044668" lon="2.98705099748">
        <ele>18</ele>
        <time>2014-05-03T14:07:59Z</time>
      </trkpt>
      <trkpt lat="39.400216548149" lon="2.987455591793">
        <ele>18</ele>
        <time>2014-05-03T14:08:05Z</time>
      </trkpt>
      <trkpt lat="39.400579232962" lon="2.987716604159">
        <ele>18</ele>
        <time>2014-05-03T14:08:09Z</time>
      </trkpt>
      <trkpt lat="39.401111986526" lon="2.988081300628">
        <ele>18</ele>
        <time>2014-05-03T14:08:15Z</time>
      </trkpt>
      <trkpt lat="39.40120049939" lon="2.988137626996">
        <ele>18.4</ele>
        <time>2014-05-03T14:08:16Z</time>
      </trkpt>
      <trkpt lat="39.401285659494" lon="2.988191103518">
        <ele>18.8</ele>
        <time>2014-05-03T14:08:17Z</time>
      </trkpt>
      <trkpt lat="39.401371238693" lon="2.988243406574">
        <ele>19.4</ele>
        <time>2014-05-03T14:08:18Z</time>
      </trkpt>
      <trkpt lat="39.401455979702" lon="2.988294619983">
        <ele>19.8</ele>
        <time>2014-05-03T14:08:19Z</time>
      </trkpt>
      <trkpt lat="39.40153996634" lon="2.988345498116">
        <ele>20.2</ele>
        <time>2014-05-03T14:08:20Z</time>
      </trkpt>
      <trkpt lat="39.402036845372" lon="2.988623777196">
        <ele>20.2</ele>
        <time>2014-05-03T14:08:26Z</time>
      </trkpt>
      <trkpt lat="39.402196939662" lon="2.988714217897">
        <ele>20.8</ele>
        <time>2014-05-03T14:08:28Z</time>
      </trkpt>
      <trkpt lat="39.40227841173" lon="2.9887592287">
        <ele>21.2</ele>
        <time>2014-05-03T14:08:29Z</time>
      </trkpt>
      <trkpt lat="39.402360219074" lon="2.988802982218">
        <ele>21.6</ele>
        <time>2014-05-03T14:08:30Z</time>
      </trkpt>
      <trkpt lat="39.402441355866" lon="2.988846735736">
        <ele>22</ele>
        <time>2014-05-03T14:08:31Z</time>
      </trkpt>
      <trkpt lat="39.402522911753" lon="2.988892417091">
        <ele>22.6</ele>
        <time>2014-05-03T14:08:32Z</time>
      </trkpt>
      <trkpt lat="39.40260195307" lon="2.988934997143">
        <ele>22.6</ele>
        <time>2014-05-03T14:08:33Z</time>
      </trkpt>
      <trkpt lat="39.402835305166" lon="2.98905846253">
        <ele>23</ele>
        <time>2014-05-03T14:08:36Z</time>
      </trkpt>
      <trkpt lat="39.402912334827" lon="2.989095845804">
        <ele>23.4</ele>
        <time>2014-05-03T14:08:37Z</time>
      </trkpt>
      <trkpt lat="39.402989029212" lon="2.989134989277">
        <ele>23.8</ele>
        <time>2014-05-03T14:08:38Z</time>
      </trkpt>
      <trkpt lat="39.403066142692" lon="2.989177904605">
        <ele>24.4</ele>
        <time>2014-05-03T14:08:39Z</time>
      </trkpt>
      <trkpt lat="39.403140154869" lon="2.989219730286">
        <ele>24.8</ele>
        <time>2014-05-03T14:08:40Z</time>
      </trkpt>
      <trkpt lat="39.403214753779" lon="2.989261472148">
        <ele>24.8</ele>
        <time>2014-05-03T14:08:41Z</time>
      </trkpt>
      <trkpt lat="39.403730743543" lon="2.989540170323">
        <ele>25.2</ele>
        <time>2014-05-03T14:08:48Z</time>
      </trkpt>
      <trkpt lat="39.403803833711" lon="2.989580571081">
        <ele>25.6</ele>
        <time>2014-05-03T14:08:49Z</time>
      </trkpt>
      <trkpt lat="39.403877426793" lon="2.989620804201">
        <ele>26</ele>
        <time>2014-05-03T14:08:50Z</time>
      </trkpt>
      <trkpt lat="39.403950433142" lon="2.989658858027">
        <ele>26.4</ele>
        <time>2014-05-03T14:08:51Z</time>
      </trkpt>
      <trkpt lat="39.404024948233" lon="2.989699761699">
        <ele>27</ele>
        <time>2014-05-03T14:08:52Z</time>
      </trkpt>
      <trkpt lat="39.404549403716" lon="2.989976783494">
        <ele>27</ele>
        <time>2014-05-03T14:08:59Z</time>
      </trkpt>
      <trkpt lat="39.405077547235" lon="2.990257996239">
        <ele>27</ele>
        <time>2014-05-03T14:09:06Z</time>
      </trkpt>
      <trkpt lat="39.405155163629" lon="2.990298816092">
        <ele>27</ele>
        <time>2014-05-03T14:09:07Z</time>
      </trkpt>
      <trkpt lat="39.405724462277" lon="2.990613975532">
        <ele>27</ele>
        <time>2014-05-03T14:09:14Z</time>
      </trkpt>
      <trkpt lat="39.40580802982" lon="2.990659573068">
        <ele>27</ele>
        <time>2014-05-03T14:09:15Z</time>
      </trkpt>
      <trkpt lat="39.406324522498" lon="2.990941707822">
        <ele>27</ele>
        <time>2014-05-03T14:09:21Z</time>
      </trkpt>
      <trkpt lat="39.406492998688" lon="2.991037596758">
        <ele>27</ele>
        <time>2014-05-03T14:09:23Z</time>
      </trkpt>
      <trkpt lat="39.407012592669" lon="2.991337752597">
        <ele>27</ele>
        <time>2014-05-03T14:09:29Z</time>
      </trkpt>
      <trkpt lat="39.407198167935" lon="2.991445543831">
        <ele>27</ele>
        <time>2014-05-03T14:09:31Z</time>
      </trkpt>
      <trkpt lat="39.407379468432" lon="2.991548976477">
        <ele>27</ele>
        <time>2014-05-03T14:09:33Z</time>
      </trkpt>
      <trkpt lat="39.407467562201" lon="2.9916006928">
        <ele>27</ele>
        <time>2014-05-03T14:09:34Z</time>
      </trkpt>
      <trkpt lat="39.407557080893" lon="2.991653666408">
        <ele>27</ele>
        <time>2014-05-03T14:09:35Z</time>
      </trkpt>
      <trkpt lat="39.407740560684" lon="2.99176162528">
        <ele>27</ele>
        <time>2014-05-03T14:09:37Z</time>
      </trkpt>
      <trkpt lat="39.407834940878" lon="2.991817616372">
        <ele>27</ele>
        <time>2014-05-03T14:09:38Z</time>
      </trkpt>
      <trkpt lat="39.40831757068" lon="2.992114419451">
        <ele>27</ele>
        <time>2014-05-03T14:09:43Z</time>
      </trkpt>
      <trkpt lat="39.408414213987" lon="2.992173511846">
        <ele>27</ele>
        <time>2014-05-03T14:09:44Z</time>
      </trkpt>
      <trkpt lat="39.408606913868" lon="2.992291109903">
        <ele>27</ele>
        <time>2014-05-03T14:09:46Z</time>
      </trkpt>
      <trkpt lat="39.408710346514" lon="2.992352800687">
        <ele>27</ele>
        <time>2014-05-03T14:09:47Z</time>
      </trkpt>
      <trkpt lat="39.408807325097" lon="2.992410468159">
        <ele>27</ele>
        <time>2014-05-03T14:09:48Z</time>
      </trkpt>
      <trkpt lat="39.408904555137" lon="2.992468554726">
        <ele>27</ele>
        <time>2014-05-03T14:09:49Z</time>
      </trkpt>
      <trkpt lat="39.40939129207" lon="2.992762675597">
        <ele>27</ele>
        <time>2014-05-03T14:09:54Z</time>
      </trkpt>
      <trkpt lat="39.409689184796" lon="2.992938192583">
        <ele>27</ele>
        <time>2014-05-03T14:09:57Z</time>
      </trkpt>
      <trkpt lat="39.409787253026" lon="2.992994854227">
        <ele>27</ele>
        <time>2014-05-03T14:09:58Z</time>
      </trkpt>
      <trkpt lat="39.409884399247" lon="2.993053024613">
        <ele>27</ele>
        <time>2014-05-03T14:09:59Z</time>
      </trkpt>
      <trkpt lat="39.409979869088" lon="2.99311194937">
        <ele>27</ele>
        <time>2014-05-03T14:10:00Z</time>
      </trkpt>
      <trkpt lat="39.410173993892" lon="2.993229715065">
        <ele>27</ele>
        <time>2014-05-03T14:10:02Z</time>
      </trkpt>
      <trkpt lat="39.410548413365" lon="2.993462396609">
        <ele>27</ele>
        <time>2014-05-03T14:10:06Z</time>
      </trkpt>
      <trkpt lat="39.411025259656" lon="2.993746040105">
        <ele>27</ele>
        <time>2014-05-03T14:10:11Z</time>
      </trkpt>
      <trkpt lat="39.411592546648" lon="2.994094475688">
        <ele>27</ele>
        <time>2014-05-03T14:10:17Z</time>
      </trkpt>
      <trkpt lat="39.411875016678" lon="2.994259934394">
        <ele>27.4</ele>
        <time>2014-05-03T14:10:20Z</time>
      </trkpt>
      <trkpt lat="39.411968391044" lon="2.994314416744">
        <ele>27.8</ele>
        <time>2014-05-03T14:10:21Z</time>
      </trkpt>
      <trkpt lat="39.412060843401" lon="2.994368479999">
        <ele>28.2</ele>
        <time>2014-05-03T14:10:22Z</time>
      </trkpt>
      <trkpt lat="39.412153882491" lon="2.994422543254">
        <ele>28.6</ele>
        <time>2014-05-03T14:10:23Z</time>
      </trkpt>
      <trkpt lat="39.412246837762" lon="2.994478115251">
        <ele>29</ele>
        <time>2014-05-03T14:10:24Z</time>
      </trkpt>
      <trkpt lat="39.412796187488" lon="2.994814899993">
        <ele>29</ele>
        <time>2014-05-03T14:10:30Z</time>
      </trkpt>
      <trkpt lat="39.413335311296" lon="2.995135256211">
        <ele>29</ele>
        <time>2014-05-03T14:10:36Z</time>
      </trkpt>
      <trkpt lat="39.413510409187" lon="2.99525603939">
        <ele>29</ele>
        <time>2014-05-03T14:10:38Z</time>
      </trkpt>
      <trkpt lat="39.413597245671" lon="2.995319909468">
        <ele>29.4</ele>
        <time>2014-05-03T14:10:39Z</time>
      </trkpt>
      <trkpt lat="39.413683998336" lon="2.995382354623">
        <ele>29.8</ele>
        <time>2014-05-03T14:10:40Z</time>
      </trkpt>
      <trkpt lat="39.413774774313" lon="2.995448906909">
        <ele>30.2</ele>
        <time>2014-05-03T14:10:41Z</time>
      </trkpt>
      <trkpt lat="39.41385968296" lon="2.995514369548">
        <ele>30.6</ele>
        <time>2014-05-03T14:10:42Z</time>
      </trkpt>
      <trkpt lat="39.413943334322" lon="2.995583436404">
        <ele>31.2</ele>
        <time>2014-05-03T14:10:43Z</time>
      </trkpt>
      <trkpt lat="39.414180039178" lon="2.995808238962">
        <ele>31.2</ele>
        <time>2014-05-03T14:10:46Z</time>
      </trkpt>
      <trkpt lat="39.414602989852" lon="2.996294472981">
        <ele>31.2</ele>
        <time>2014-05-03T14:10:52Z</time>
      </trkpt>
      <trkpt lat="39.414995681867" lon="2.996787077244">
        <ele>31.2</ele>
        <time>2014-05-03T14:10:58Z</time>
      </trkpt>
      <trkpt lat="39.415182179142" lon="2.997027302498">
        <ele>31.2</ele>
        <time>2014-05-03T14:11:01Z</time>
      </trkpt>
      <trkpt lat="39.415307320909" lon="2.997185636589">
        <ele>31.6</ele>
        <time>2014-05-03T14:11:03Z</time>
      </trkpt>
      <trkpt lat="39.415372867367" lon="2.997267108657">
        <ele>32</ele>
        <time>2014-05-03T14:11:04Z</time>
      </trkpt>
      <trkpt lat="39.415435228703" lon="2.997345898517">
        <ele>32.4</ele>
        <time>2014-05-03T14:11:05Z</time>
      </trkpt>
      <trkpt lat="39.415496919487" lon="2.997425526567">
        <ele>32.8</ele>
        <time>2014-05-03T14:11:06Z</time>
      </trkpt>
      <trkpt lat="39.4155578559" lon="2.997502891504">
        <ele>33.2</ele>
        <time>2014-05-03T14:11:07Z</time>
      </trkpt>
      <trkpt lat="39.415679896364" lon="2.997658208111">
        <ele>33.2</ele>
        <time>2014-05-03T14:11:09Z</time>
      </trkpt>
      <trkpt lat="39.416055489303" lon="2.998135473497">
        <ele>33.6</ele>
        <time>2014-05-03T14:11:15Z</time>
      </trkpt>
      <trkpt lat="39.416117180087" lon="2.998218454307">
        <ele>34</ele>
        <time>2014-05-03T14:11:16Z</time>
      </trkpt>
      <trkpt lat="39.416180044337" lon="2.998300764565">
        <ele>34.4</ele>
        <time>2014-05-03T14:11:17Z</time>
      </trkpt>
      <trkpt lat="39.416242908587" lon="2.998381817538">
        <ele>34.8</ele>
        <time>2014-05-03T14:11:18Z</time>
      </trkpt>
      <trkpt lat="39.416307616855" lon="2.998464295434">
        <ele>35.2</ele>
        <time>2014-05-03T14:11:19Z</time>
      </trkpt>
      <trkpt lat="39.416752109012" lon="2.999034851367">
        <ele>35.2</ele>
        <time>2014-05-03T14:11:26Z</time>
      </trkpt>
      <trkpt lat="39.41687884334" lon="2.999203998109">
        <ele>35.2</ele>
        <time>2014-05-03T14:11:28Z</time>
      </trkpt>
      <trkpt lat="39.417254771555" lon="2.999712863258">
        <ele>35.2</ele>
        <time>2014-05-03T14:11:34Z</time>
      </trkpt>
      <trkpt lat="39.417388211403" lon="2.99988955371">
        <ele>35.2</ele>
        <time>2014-05-03T14:11:36Z</time>
      </trkpt>
      <trkpt lat="39.417774114079" lon="3.000430102441">
        <ele>35.2</ele>
        <time>2014-05-03T14:11:42Z</time>
      </trkpt>
      <trkpt lat="39.417977291335" lon="3.000709052073">
        <ele>35.2</ele>
        <time>2014-05-03T14:11:45Z</time>
      </trkpt>
      <trkpt lat="39.418388758806" lon="3.001301736222">
        <ele>35.2</ele>
        <time>2014-05-03T14:11:51Z</time>
      </trkpt>
      <trkpt lat="39.418604341274" lon="3.001610273961">
        <ele>35.2</ele>
        <time>2014-05-03T14:11:54Z</time>
      </trkpt>
      <trkpt lat="39.418752533266" lon="3.001812696846">
        <ele>34.8</ele>
        <time>2014-05-03T14:11:56Z</time>
      </trkpt>
      <trkpt lat="39.418825539615" lon="3.001915291302">
        <ele>34.4</ele>
        <time>2014-05-03T14:11:57Z</time>
      </trkpt>
      <trkpt lat="39.41889552848" lon="3.002015371188">
        <ele>34</ele>
        <time>2014-05-03T14:11:58Z</time>
      </trkpt>
      <trkpt lat="39.418969037743" lon="3.002119809662">
        <ele>33.4</ele>
        <time>2014-05-03T14:11:59Z</time>
      </trkpt>
      <trkpt lat="39.419038523694" lon="3.002219470453">
        <ele>33</ele>
        <time>2014-05-03T14:12:00Z</time>
      </trkpt>
      <trkpt lat="39.419322083371" lon="3.00261953854">
        <ele>33</ele>
        <time>2014-05-03T14:12:04Z</time>
      </trkpt>
      <trkpt lat="39.419752242479" lon="3.003223705892">
        <ele>33</ele>
        <time>2014-05-03T14:12:10Z</time>
      </trkpt>
      <trkpt lat="39.419893226037" lon="3.003428559528">
        <ele>33</ele>
        <time>2014-05-03T14:12:12Z</time>
      </trkpt>
      <trkpt lat="39.419964556006" lon="3.003532075993">
        <ele>33</ele>
        <time>2014-05-03T14:12:13Z</time>
      </trkpt>
      <trkpt lat="39.420038735821" lon="3.00364045396">
        <ele>33</ele>
        <time>2014-05-03T14:12:14Z</time>
      </trkpt>
      <trkpt lat="39.420181814854" lon="3.003839775542">
        <ele>32.2</ele>
        <time>2014-05-03T14:12:16Z</time>
      </trkpt>
      <trkpt lat="39.420253983013" lon="3.003938095229">
        <ele>31.8</ele>
        <time>2014-05-03T14:12:17Z</time>
      </trkpt>
      <trkpt lat="39.420327240819" lon="3.004038426572">
        <ele>31.4</ele>
        <time>2014-05-03T14:12:18Z</time>
      </trkpt>
      <trkpt lat="39.420395134209" lon="3.004136578621">
        <ele>30.8</ele>
        <time>2014-05-03T14:12:19Z</time>
      </trkpt>
      <trkpt lat="39.420538045604" lon="3.004330619606">
        <ele>30.8</ele>
        <time>2014-05-03T14:12:21Z</time>
      </trkpt>
      <trkpt lat="39.42068925508" lon="3.004517703614">
        <ele>30.8</ele>
        <time>2014-05-03T14:12:23Z</time>
      </trkpt>
      <trkpt lat="39.42076720675" lon="3.004605545926">
        <ele>30.8</ele>
        <time>2014-05-03T14:12:24Z</time>
      </trkpt>
      <trkpt lat="39.420848008266" lon="3.004689532564">
        <ele>30.8</ele>
        <time>2014-05-03T14:12:25Z</time>
      </trkpt>
      <trkpt lat="39.420933419827" lon="3.004767484234">
        <ele>30.8</ele>
        <time>2014-05-03T14:12:26Z</time>
      </trkpt>
      <trkpt lat="39.421022938519" lon="3.00484241842">
        <ele>30.8</ele>
        <time>2014-05-03T14:12:27Z</time>
      </trkpt>
      <trkpt lat="39.421401129847" lon="3.005118015292">
        <ele>31.4</ele>
        <time>2014-05-03T14:12:31Z</time>
      </trkpt>
      <trkpt lat="39.421497773154" lon="3.005182388284">
        <ele>31.8</ele>
        <time>2014-05-03T14:12:32Z</time>
      </trkpt>
      <trkpt lat="39.421592991538" lon="3.005247850923">
        <ele>32.2</ele>
        <time>2014-05-03T14:12:33Z</time>
      </trkpt>
      <trkpt lat="39.421690221578" lon="3.005313062105">
        <ele>32.6</ele>
        <time>2014-05-03T14:12:34Z</time>
      </trkpt>
      <trkpt lat="39.421787116342" lon="3.00537802183">
        <ele>33</ele>
        <time>2014-05-03T14:12:35Z</time>
      </trkpt>
      <trkpt lat="39.421884597839" lon="3.005442478641">
        <ele>33</ele>
        <time>2014-05-03T14:12:36Z</time>
      </trkpt>
      <trkpt lat="39.421983168983" lon="3.005506683995">
        <ele>33</ele>
        <time>2014-05-03T14:12:37Z</time>
      </trkpt>
      <trkpt lat="39.422186597696" lon="3.005636519626">
        <ele>33</ele>
        <time>2014-05-03T14:12:39Z</time>
      </trkpt>
      <trkpt lat="39.42267744176" lon="3.005952768713">
        <ele>33</ele>
        <time>2014-05-03T14:12:44Z</time>
      </trkpt>
      <trkpt lat="39.422876763342" lon="3.00608796876">
        <ele>33</ele>
        <time>2014-05-03T14:12:46Z</time>
      </trkpt>
      <trkpt lat="39.423074408544" lon="3.006215625097">
        <ele>33</ele>
        <time>2014-05-03T14:12:48Z</time>
      </trkpt>
      <trkpt lat="39.423570281748" lon="3.00653975317">
        <ele>32.6</ele>
        <time>2014-05-03T14:12:53Z</time>
      </trkpt>
      <trkpt lat="39.423666003046" lon="3.006605718723">
        <ele>32.2</ele>
        <time>2014-05-03T14:12:54Z</time>
      </trkpt>
      <trkpt lat="39.423763065448" lon="3.006674534122">
        <ele>31.8</ele>
        <time>2014-05-03T14:12:55Z</time>
      </trkpt>
      <trkpt lat="39.423861385135" lon="3.006742008417">
        <ele>31.2</ele>
        <time>2014-05-03T14:12:56Z</time>
      </trkpt>
      <trkpt lat="39.423961632659" lon="3.006806884323">
        <ele>30.8</ele>
        <time>2014-05-03T14:12:57Z</time>
      </trkpt>
      <trkpt lat="39.424366143153" lon="3.007065382119">
        <ele>30.8</ele>
        <time>2014-05-03T14:13:01Z</time>
      </trkpt>
      <trkpt lat="39.424556831378" lon="3.007188093135">
        <ele>30.8</ele>
        <time>2014-05-03T14:13:03Z</time>
      </trkpt>
      <trkpt lat="39.424652720314" lon="3.007250454471">
        <ele>30.8</ele>
        <time>2014-05-03T14:13:04Z</time>
      </trkpt>
      <trkpt lat="39.424748190155" lon="3.00731424073">
        <ele>30.8</ele>
        <time>2014-05-03T14:13:05Z</time>
      </trkpt>
      <trkpt lat="39.42484332472" lon="3.007380290102">
        <ele>30.8</ele>
        <time>2014-05-03T14:13:06Z</time>
      </trkpt>
      <trkpt lat="39.425136272125" lon="3.007586065747">
        <ele>30.8</ele>
        <time>2014-05-03T14:13:09Z</time>
      </trkpt>
      <trkpt lat="39.42531941664" lon="3.00772579202">
        <ele>30.8</ele>
        <time>2014-05-03T14:13:11Z</time>
      </trkpt>
      <trkpt lat="39.425571460373" lon="3.007971297871">
        <ele>30.8</ele>
        <time>2014-05-03T14:13:14Z</time>
      </trkpt>
      <trkpt lat="39.425732728129" lon="3.008153939472">
        <ele>30.8</ele>
        <time>2014-05-03T14:13:16Z</time>
      </trkpt>
      <trkpt lat="39.425807829953" lon="3.008247062381">
        <ele>30.8</ele>
        <time>2014-05-03T14:13:17Z</time>
      </trkpt>
      <trkpt lat="39.426112009104" lon="3.008635144351">
        <ele>30.8</ele>
        <time>2014-05-03T14:13:21Z</time>
      </trkpt>
      <trkpt lat="39.426266822797" lon="3.008838489245">
        <ele>30.8</ele>
        <time>2014-05-03T14:13:23Z</time>
      </trkpt>
      <trkpt lat="39.426651384369" lon="3.009337044657">
        <ele>30.8</ele>
        <time>2014-05-03T14:13:28Z</time>
      </trkpt>
      <trkpt lat="39.426811562478" lon="3.009543658492">
        <ele>30.8</ele>
        <time>2014-05-03T14:13:30Z</time>
      </trkpt>
      <trkpt lat="39.426965035067" lon="3.009743985902">
        <ele>30.8</ele>
        <time>2014-05-03T14:13:32Z</time>
      </trkpt>
      <trkpt lat="39.427196878421" lon="3.010043638827">
        <ele>30.8</ele>
        <time>2014-05-03T14:13:35Z</time>
      </trkpt>
      <trkpt lat="39.427584960391" lon="3.010538254746">
        <ele>30.8</ele>
        <time>2014-05-03T14:13:40Z</time>
      </trkpt>
      <trkpt lat="39.427663917889" lon="3.010636993528">
        <ele>30.8</ele>
        <time>2014-05-03T14:13:41Z</time>
      </trkpt>
      <trkpt lat="39.428061471406" lon="3.011132782913">
        <ele>30.8</ele>
        <time>2014-05-03T14:13:46Z</time>
      </trkpt>
      <trkpt lat="39.42823296508" lon="3.01134174368">
        <ele>30.4</ele>
        <time>2014-05-03T14:13:48Z</time>
      </trkpt>
      <trkpt lat="39.428319466288" lon="3.01145154657">
        <ele>30</ele>
        <time>2014-05-03T14:13:49Z</time>
      </trkpt>
      <trkpt lat="39.428407895333" lon="3.011561014184">
        <ele>29.6</ele>
        <time>2014-05-03T14:13:50Z</time>
      </trkpt>
      <trkpt lat="39.428500766785" lon="3.011674588929">
        <ele>29.2</ele>
        <time>2014-05-03T14:13:51Z</time>
      </trkpt>
      <trkpt lat="39.428593302961" lon="3.01179101352">
        <ele>28.8</ele>
        <time>2014-05-03T14:13:52Z</time>
      </trkpt>
      <trkpt lat="39.428777369485" lon="3.012043643986">
        <ele>28.8</ele>
        <time>2014-05-03T14:13:54Z</time>
      </trkpt>
      <trkpt lat="39.428866720539" lon="3.012169540124">
        <ele>28.4</ele>
        <time>2014-05-03T14:13:55Z</time>
      </trkpt>
      <trkpt lat="39.428952215919" lon="3.012295184805">
        <ele>28</ele>
        <time>2014-05-03T14:13:56Z</time>
      </trkpt>
      <trkpt lat="39.429035196729" lon="3.012420158934">
        <ele>27.6</ele>
        <time>2014-05-03T14:13:57Z</time>
      </trkpt>
      <trkpt lat="39.429114489503" lon="3.012543875778">
        <ele>27</ele>
        <time>2014-05-03T14:13:58Z</time>
      </trkpt>
      <trkpt lat="39.429191519164" lon="3.012667508803">
        <ele>26.6</ele>
        <time>2014-05-03T14:13:59Z</time>
      </trkpt>
      <trkpt lat="39.429407520727" lon="3.012999012948">
        <ele>26.6</ele>
        <time>2014-05-03T14:14:02Z</time>
      </trkpt>
      <trkpt lat="39.42946845714" lon="3.013092219676">
        <ele>26.6</ele>
        <time>2014-05-03T14:14:03Z</time>
      </trkpt>
      <trkpt lat="39.429577254202" lon="3.013258432753">
        <ele>27</ele>
        <time>2014-05-03T14:14:05Z</time>
      </trkpt>
      <trkpt lat="39.429621929729" lon="3.013327248152">
        <ele>27.4</ele>
        <time>2014-05-03T14:14:06Z</time>
      </trkpt>
      <trkpt lat="39.429659983555" lon="3.013384580348">
        <ele>28</ele>
        <time>2014-05-03T14:14:07Z</time>
      </trkpt>
      <trkpt lat="39.429691499499" lon="3.013434285015">
        <ele>28.4</ele>
        <time>2014-05-03T14:14:08Z</time>
      </trkpt>
      <trkpt lat="39.429713543896" lon="3.013466471511">
        <ele>28.8</ele>
        <time>2014-05-03T14:14:09Z</time>
      </trkpt>
      <trkpt lat="39.429731481162" lon="3.013492455401">
        <ele>28.8</ele>
        <time>2014-05-03T14:14:10Z</time>
      </trkpt>
      <trkpt lat="39.429891323995" lon="3.013682473074">
        <ele>30.8</ele>
        <time>2014-05-03T14:15:21Z</time>
      </trkpt>
      <trkpt lat="39.429924348681" lon="3.013724885488">
        <ele>30.8</ele>
        <time>2014-05-03T14:15:22Z</time>
      </trkpt>
      <trkpt lat="39.429983441076" lon="3.013808955945">
        <ele>30.8</ele>
        <time>2014-05-03T14:15:24Z</time>
      </trkpt>
      <trkpt lat="39.430083856238" lon="3.013967122398">
        <ele>30.8</ele>
        <time>2014-05-03T14:15:28Z</time>
      </trkpt>
      <trkpt lat="39.430111684146" lon="3.014015402142">
        <ele>30.8</ele>
        <time>2014-05-03T14:15:29Z</time>
      </trkpt>
      <trkpt lat="39.43024462108" lon="3.014218076484">
        <ele>30.8</ele>
        <time>2014-05-03T14:15:33Z</time>
      </trkpt>
      <trkpt lat="39.430279573603" lon="3.014278426164">
        <ele>30.8</ele>
        <time>2014-05-03T14:15:34Z</time>
      </trkpt>
      <trkpt lat="39.430384095896" lon="3.014447572906">
        <ele>30.8</ele>
        <time>2014-05-03T14:15:37Z</time>
      </trkpt>
      <trkpt lat="39.430522983979" lon="3.014682517563">
        <ele>30.8</ele>
        <time>2014-05-03T14:15:41Z</time>
      </trkpt>
      <trkpt lat="39.430599426907" lon="3.014801037629">
        <ele>30.8</ele>
        <time>2014-05-03T14:15:43Z</time>
      </trkpt>
      <trkpt lat="39.430638151285" lon="3.014862057861">
        <ele>30.4</ele>
        <time>2014-05-03T14:15:44Z</time>
      </trkpt>
      <trkpt lat="39.4306788035" lon="3.014925508844">
        <ele>30</ele>
        <time>2014-05-03T14:15:45Z</time>
      </trkpt>
      <trkpt lat="39.430720629181" lon="3.014989211284">
        <ele>29.6</ele>
        <time>2014-05-03T14:15:46Z</time>
      </trkpt>
      <trkpt lat="39.430761029939" lon="3.015052662267">
        <ele>29</ele>
        <time>2014-05-03T14:15:47Z</time>
      </trkpt>
      <trkpt lat="39.430806040742" lon="3.015120388019">
        <ele>28.6</ele>
        <time>2014-05-03T14:15:48Z</time>
      </trkpt>
      <trkpt lat="39.430855158676" lon="3.015187191762">
        <ele>28.6</ele>
        <time>2014-05-03T14:15:49Z</time>
      </trkpt>
      <trkpt lat="39.431154392506" lon="3.015631013367">
        <ele>28.6</ele>
        <time>2014-05-03T14:15:55Z</time>
      </trkpt>
      <trkpt lat="39.431406184782" lon="3.015934270509">
        <ele>28.6</ele>
        <time>2014-05-03T14:16:00Z</time>
      </trkpt>
      <trkpt lat="39.43172486462" lon="3.016282706092">
        <ele>28.6</ele>
        <time>2014-05-03T14:16:06Z</time>
      </trkpt>
      <trkpt lat="39.431924186202" lon="3.016526200287">
        <ele>28.6</ele>
        <time>2014-05-03T14:16:10Z</time>
      </trkpt>
      <trkpt lat="39.432130883856" lon="3.016886538168">
        <ele>28.6</ele>
        <time>2014-05-03T14:16:15Z</time>
      </trkpt>
      <trkpt lat="39.432250493569" lon="3.017096337125">
        <ele>28.6</ele>
        <time>2014-05-03T14:16:18Z</time>
      </trkpt>
      <trkpt lat="39.43234093427" lon="3.017230782801">
        <ele>28.6</ele>
        <time>2014-05-03T14:16:20Z</time>
      </trkpt>
      <trkpt lat="39.432536735454" lon="3.017561029661">
        <ele>28.6</ele>
        <time>2014-05-03T14:16:25Z</time>
      </trkpt>
      <trkpt lat="39.4327826604" lon="3.017972413313">
        <ele>28.6</ele>
        <time>2014-05-03T14:16:31Z</time>
      </trkpt>
      <trkpt lat="39.432951304228" lon="3.018240550294">
        <ele>28.6</ele>
        <time>2014-05-03T14:16:35Z</time>
      </trkpt>
      <trkpt lat="39.433037302522" lon="3.018376169436">
        <ele>28.6</ele>
        <time>2014-05-03T14:16:37Z</time>
      </trkpt>
      <trkpt lat="39.433073931425" lon="3.018435764745">
        <ele>28.6</ele>
        <time>2014-05-03T14:16:38Z</time>
      </trkpt>
      <trkpt lat="39.433141573358" lon="3.018567025299">
        <ele>28.6</ele>
        <time>2014-05-03T14:16:41Z</time>
      </trkpt>
      <trkpt lat="39.433160516452" lon="3.018768861451">
        <ele>28.6</ele>
        <time>2014-05-03T14:16:45Z</time>
      </trkpt>
      <trkpt lat="39.433171412922" lon="3.018831390425">
        <ele>28.6</ele>
        <time>2014-05-03T14:16:46Z</time>
      </trkpt>
      <trkpt lat="39.433227990747" lon="3.018921831126">
        <ele>28.6</ele>
        <time>2014-05-03T14:16:48Z</time>
      </trkpt>
      <trkpt lat="39.433399819697" lon="3.018970446146">
        <ele>28.6</ele>
        <time>2014-05-03T14:16:52Z</time>
      </trkpt>
      <trkpt lat="39.433449943459" lon="3.018976984028">
        <ele>28.6</ele>
        <time>2014-05-03T14:16:53Z</time>
      </trkpt>
      <trkpt lat="39.433665442108" lon="3.019023587392">
        <ele>28.6</ele>
        <time>2014-05-03T14:16:57Z</time>
      </trkpt>
      <trkpt lat="39.433821513086" lon="3.019093660076">
        <ele>28.6</ele>
        <time>2014-05-03T14:17:00Z</time>
      </trkpt>
      <trkpt lat="39.433877755635" lon="3.019115872111">
        <ele>28.6</ele>
        <time>2014-05-03T14:17:01Z</time>
      </trkpt>
      <trkpt lat="39.434087554592" lon="3.019201116034">
        <ele>28.6</ele>
        <time>2014-05-03T14:17:04Z</time>
      </trkpt>
      <trkpt lat="39.434145641159" lon="3.019216119635">
        <ele>28.6</ele>
        <time>2014-05-03T14:17:05Z</time>
      </trkpt>
      <trkpt lat="39.434200542604" lon="3.019235733281">
        <ele>28.6</ele>
        <time>2014-05-03T14:17:06Z</time>
      </trkpt>
      <trkpt lat="39.434390141182" lon="3.019322485946">
        <ele>28.6</ele>
        <time>2014-05-03T14:17:10Z</time>
      </trkpt>
      <trkpt lat="39.434672611212" lon="3.019423320203">
        <ele>28.6</ele>
        <time>2014-05-03T14:17:15Z</time>
      </trkpt>
      <trkpt lat="39.434730027227" lon="3.019451315749">
        <ele>28.6</ele>
        <time>2014-05-03T14:17:16Z</time>
      </trkpt>
      <trkpt lat="39.434837231728" lon="3.019512168343">
        <ele>28.6</ele>
        <time>2014-05-03T14:17:18Z</time>
      </trkpt>
      <trkpt lat="39.434948962455" lon="3.019559274621">
        <ele>29</ele>
        <time>2014-05-03T14:17:20Z</time>
      </trkpt>
      <trkpt lat="39.434991877783" lon="3.019576373697">
        <ele>29.4</ele>
        <time>2014-05-03T14:17:21Z</time>
      </trkpt>
      <trkpt lat="39.435032865274" lon="3.019603447234">
        <ele>29.8</ele>
        <time>2014-05-03T14:17:22Z</time>
      </trkpt>
      <trkpt lat="39.435055999318" lon="3.019622138871">
        <ele>30.4</ele>
        <time>2014-05-03T14:17:23Z</time>
      </trkpt>
      <trkpt lat="39.435078798086" lon="3.019639908499">
        <ele>30.8</ele>
        <time>2014-05-03T14:17:24Z</time>
      </trkpt>
      <trkpt lat="39.435099501379" lon="3.01966077943">
        <ele>30.8</ele>
        <time>2014-05-03T14:17:25Z</time>
      </trkpt>
      <trkpt lat="39.435180386714" lon="3.019761697506">
        <ele>30.8</ele>
        <time>2014-05-03T14:17:28Z</time>
      </trkpt>
      <trkpt lat="39.435222463852" lon="3.01979488983">
        <ele>30.8</ele>
        <time>2014-05-03T14:17:29Z</time>
      </trkpt>
      <trkpt lat="39.435314413295" lon="3.019823639747">
        <ele>30.8</ele>
        <time>2014-05-03T14:17:31Z</time>
      </trkpt>
      <trkpt lat="39.435466963875" lon="3.019793800183">
        <ele>30.8</ele>
        <time>2014-05-03T14:17:34Z</time>
      </trkpt>
      <trkpt lat="39.435518931655" lon="3.019786424111">
        <ele>30.8</ele>
        <time>2014-05-03T14:17:35Z</time>
      </trkpt>
      <trkpt lat="39.435697298487" lon="3.019836464054">
        <ele>30.8</ele>
        <time>2014-05-03T14:17:38Z</time>
      </trkpt>
      <trkpt lat="39.435919502656" lon="3.019933274999">
        <ele>30.8</ele>
        <time>2014-05-03T14:17:42Z</time>
      </trkpt>
      <trkpt lat="39.435973901187" lon="3.019960348536">
        <ele>30.8</ele>
        <time>2014-05-03T14:17:43Z</time>
      </trkpt>
      <trkpt lat="39.436325857168" lon="3.020102673198">
        <ele>30.8</ele>
        <time>2014-05-03T14:17:49Z</time>
      </trkpt>
      <trkpt lat="39.436775462284" lon="3.020310292861">
        <ele>30.8</ele>
        <time>2014-05-03T14:17:56Z</time>
      </trkpt>
      <trkpt lat="39.437107972257" lon="3.020464771278">
        <ele>30.8</ele>
        <time>2014-05-03T14:18:00Z</time>
      </trkpt>
      <trkpt lat="39.437262702131" lon="3.020538615817">
        <ele>30.8</ele>
        <time>2014-05-03T14:18:02Z</time>
      </trkpt>
      <trkpt lat="39.437491528001" lon="3.020645904137">
        <ele>30.8</ele>
        <time>2014-05-03T14:18:05Z</time>
      </trkpt>
      <trkpt lat="39.437637373061" lon="3.020712875518">
        <ele>30.8</ele>
        <time>2014-05-03T14:18:07Z</time>
      </trkpt>
      <trkpt lat="39.438149088056" lon="3.020924099398">
        <ele>30.8</ele>
        <time>2014-05-03T14:18:14Z</time>
      </trkpt>
      <trkpt lat="39.438705813854" lon="3.021152087078">
        <ele>30.8</ele>
        <time>2014-05-03T14:18:21Z</time>
      </trkpt>
      <trkpt lat="39.438783011153" lon="3.021185111764">
        <ele>30.8</ele>
        <time>2014-05-03T14:18:22Z</time>
      </trkpt>
      <trkpt lat="39.439189617122" lon="3.021321652915">
        <ele>31.6</ele>
        <time>2014-05-03T14:18:27Z</time>
      </trkpt>
      <trkpt lat="39.439272262656" lon="3.021346966253">
        <ele>32</ele>
        <time>2014-05-03T14:18:28Z</time>
      </trkpt>
      <trkpt lat="39.439356836027" lon="3.021368256279">
        <ele>32.6</ele>
        <time>2014-05-03T14:18:29Z</time>
      </trkpt>
      <trkpt lat="39.439440655027" lon="3.021387534649">
        <ele>33</ele>
        <time>2014-05-03T14:18:30Z</time>
      </trkpt>
      <trkpt lat="39.439858408923" lon="3.021448973976">
        <ele>33</ele>
        <time>2014-05-03T14:18:35Z</time>
      </trkpt>
      <trkpt lat="39.440457295678" lon="3.021450063623">
        <ele>33</ele>
        <time>2014-05-03T14:18:42Z</time>
      </trkpt>
      <trkpt lat="39.441057188261" lon="3.021350905746">
        <ele>33</ele>
        <time>2014-05-03T14:18:49Z</time>
      </trkpt>
      <trkpt lat="39.441139330881" lon="3.021336991792">
        <ele>33.4</ele>
        <time>2014-05-03T14:18:50Z</time>
      </trkpt>
      <trkpt lat="39.441222563148" lon="3.021322826381">
        <ele>33.8</ele>
        <time>2014-05-03T14:18:51Z</time>
      </trkpt>
      <trkpt lat="39.44130621451" lon="3.021307906599">
        <ele>34.6</ele>
        <time>2014-05-03T14:18:52Z</time>
      </trkpt>
      <trkpt lat="39.441388021854" lon="3.02129273536">
        <ele>35</ele>
        <time>2014-05-03T14:18:53Z</time>
      </trkpt>
      <trkpt lat="39.441809296148" lon="3.021244539435">
        <ele>35</ele>
        <time>2014-05-03T14:18:58Z</time>
      </trkpt>
      <trkpt lat="39.442151445306" lon="3.021251161136">
        <ele>35</ele>
        <time>2014-05-03T14:19:02Z</time>
      </trkpt>
      <trkpt lat="39.442398543718" lon="3.021281168338">
        <ele>35</ele>
        <time>2014-05-03T14:19:05Z</time>
      </trkpt>
      <trkpt lat="39.442980582854" lon="3.021386947916">
        <ele>35</ele>
        <time>2014-05-03T14:19:12Z</time>
      </trkpt>
      <trkpt lat="39.443066329691" lon="3.021405388096">
        <ele>35</ele>
        <time>2014-05-03T14:19:13Z</time>
      </trkpt>
      <trkpt lat="39.443320971813" lon="3.021459283713">
        <ele>35.4</ele>
        <time>2014-05-03T14:19:16Z</time>
      </trkpt>
      <trkpt lat="39.443407975935" lon="3.02147881354">
        <ele>35.8</ele>
        <time>2014-05-03T14:19:17Z</time>
      </trkpt>
      <trkpt lat="39.443489531822" lon="3.021496918444">
        <ele>36.2</ele>
        <time>2014-05-03T14:19:18Z</time>
      </trkpt>
      <trkpt lat="39.443584331111" lon="3.021519549574">
        <ele>36.6</ele>
        <time>2014-05-03T14:19:19Z</time>
      </trkpt>
      <trkpt lat="39.443663456247" lon="3.021537570659">
        <ele>37</ele>
        <time>2014-05-03T14:19:20Z</time>
      </trkpt>
      <trkpt lat="39.443739815356" lon="3.021556429934">
        <ele>37</ele>
        <time>2014-05-03T14:19:21Z</time>
      </trkpt>
      <trkpt lat="39.44433375679" lon="3.021728007427">
        <ele>37</ele>
        <time>2014-05-03T14:19:28Z</time>
      </trkpt>
      <trkpt lat="39.444499550772" lon="3.02177804737">
        <ele>37</ele>
        <time>2014-05-03T14:19:30Z</time>
      </trkpt>
      <trkpt lat="39.444902720162" lon="3.021875947962">
        <ele>37.6</ele>
        <time>2014-05-03T14:19:35Z</time>
      </trkpt>
      <trkpt lat="39.444981845298" lon="3.021891286839">
        <ele>38</ele>
        <time>2014-05-03T14:19:36Z</time>
      </trkpt>
      <trkpt lat="39.445060216063" lon="3.02190461406">
        <ele>38.4</ele>
        <time>2014-05-03T14:19:37Z</time>
      </trkpt>
      <trkpt lat="39.445139005923" lon="3.021915175254">
        <ele>38.8</ele>
        <time>2014-05-03T14:19:38Z</time>
      </trkpt>
      <trkpt lat="39.445216873774" lon="3.021926826095">
        <ele>39.2</ele>
        <time>2014-05-03T14:19:39Z</time>
      </trkpt>
      <trkpt lat="39.445800086376" lon="3.021993881295">
        <ele>39.2</ele>
        <time>2014-05-03T14:19:46Z</time>
      </trkpt>
      <trkpt lat="39.446413222361" lon="3.022051884043">
        <ele>39.2</ele>
        <time>2014-05-03T14:19:53Z</time>
      </trkpt>
      <trkpt lat="39.44697489348" lon="3.022104773832">
        <ele>39.2</ele>
        <time>2014-05-03T14:19:59Z</time>
      </trkpt>
      <trkpt lat="39.447333890257" lon="3.022141738011">
        <ele>39.2</ele>
        <time>2014-05-03T14:20:03Z</time>
      </trkpt>
      <trkpt lat="39.447607643111" lon="3.022166380797">
        <ele>39.2</ele>
        <time>2014-05-03T14:20:06Z</time>
      </trkpt>
      <trkpt lat="39.44815674138" lon="3.022207284469">
        <ele>39.2</ele>
        <time>2014-05-03T14:20:12Z</time>
      </trkpt>
      <trkpt lat="39.448250283384" lon="3.022217510387">
        <ele>39.2</ele>
        <time>2014-05-03T14:20:13Z</time>
      </trkpt>
      <trkpt lat="39.448802734413" lon="3.022245086838">
        <ele>39.2</ele>
        <time>2014-05-03T14:20:19Z</time>
      </trkpt>
      <trkpt lat="39.448982442349" lon="3.022248020503">
        <ele>39.2</ele>
        <time>2014-05-03T14:20:21Z</time>
      </trkpt>
      <trkpt lat="39.44953891669" lon="3.022245003019">
        <ele>39.2</ele>
        <time>2014-05-03T14:20:27Z</time>
      </trkpt>
      <trkpt lat="39.449631033771" lon="3.022248691055">
        <ele>39.2</ele>
        <time>2014-05-03T14:20:28Z</time>
      </trkpt>
      <trkpt lat="39.450190693234" lon="3.022276016049">
        <ele>39.2</ele>
        <time>2014-05-03T14:20:34Z</time>
      </trkpt>
      <trkpt lat="39.450372245188" lon="3.022298060446">
        <ele>39.2</ele>
        <time>2014-05-03T14:20:36Z</time>
      </trkpt>
      <trkpt lat="39.450936598515" lon="3.022394452296">
        <ele>39.2</ele>
        <time>2014-05-03T14:20:42Z</time>
      </trkpt>
      <trkpt lat="39.451033912374" lon="3.02241590996">
        <ele>39.2</ele>
        <time>2014-05-03T14:20:43Z</time>
      </trkpt>
      <trkpt lat="39.451226025522" lon="3.022464105885">
        <ele>39.6</ele>
        <time>2014-05-03T14:20:45Z</time>
      </trkpt>
      <trkpt lat="39.451321411544" lon="3.022489083947">
        <ele>40</ele>
        <time>2014-05-03T14:20:46Z</time>
      </trkpt>
      <trkpt lat="39.451415288824" lon="3.02251062543">
        <ele>40.6</ele>
        <time>2014-05-03T14:20:47Z</time>
      </trkpt>
      <trkpt lat="39.45151117776" lon="3.022533340379">
        <ele>41</ele>
        <time>2014-05-03T14:20:48Z</time>
      </trkpt>
      <trkpt lat="39.451600528814" lon="3.02255588769">
        <ele>41.4</ele>
        <time>2014-05-03T14:20:49Z</time>
      </trkpt>
      <trkpt lat="39.45169055042" lon="3.022581284847">
        <ele>41.4</ele>
        <time>2014-05-03T14:20:50Z</time>
      </trkpt>
      <trkpt lat="39.452246521847" lon="3.022723358052">
        <ele>41.4</ele>
        <time>2014-05-03T14:20:56Z</time>
      </trkpt>
      <trkpt lat="39.452430588371" lon="3.022770967244">
        <ele>41.4</ele>
        <time>2014-05-03T14:20:58Z</time>
      </trkpt>
      <trkpt lat="39.45298387759" lon="3.022905077644">
        <ele>41.4</ele>
        <time>2014-05-03T14:21:04Z</time>
      </trkpt>
      <trkpt lat="39.453166686829" lon="3.022941035995">
        <ele>41.8</ele>
        <time>2014-05-03T14:21:06Z</time>
      </trkpt>
      <trkpt lat="39.453255032055" lon="3.022951597189">
        <ele>42.2</ele>
        <time>2014-05-03T14:21:07Z</time>
      </trkpt>
      <trkpt lat="39.453343293462" lon="3.022960565822">
        <ele>42.6</ele>
        <time>2014-05-03T14:21:08Z</time>
      </trkpt>
      <trkpt lat="39.45343147105" lon="3.022968780084">
        <ele>43.2</ele>
        <time>2014-05-03T14:21:09Z</time>
      </trkpt>
      <trkpt lat="39.453521492656" lon="3.0229741445">
        <ele>43.6</ele>
        <time>2014-05-03T14:21:10Z</time>
      </trkpt>
      <trkpt lat="39.45397461817" lon="3.022981604391">
        <ele>43.6</ele>
        <time>2014-05-03T14:21:15Z</time>
      </trkpt>
      <trkpt lat="39.454503348422" lon="3.022963164211">
        <ele>44</ele>
        <time>2014-05-03T14:21:21Z</time>
      </trkpt>
      <trkpt lat="39.454588843802" lon="3.022958554166">
        <ele>44.4</ele>
        <time>2014-05-03T14:21:22Z</time>
      </trkpt>
      <trkpt lat="39.454675680286" lon="3.022955033768">
        <ele>44.8</ele>
        <time>2014-05-03T14:21:23Z</time>
      </trkpt>
      <trkpt lat="39.454760756571" lon="3.022951597189">
        <ele>45.2</ele>
        <time>2014-05-03T14:21:24Z</time>
      </trkpt>
      <trkpt lat="39.454847257779" lon="3.022948495886">
        <ele>45.6</ele>
        <time>2014-05-03T14:21:25Z</time>
      </trkpt>
      <trkpt lat="39.455453352968" lon="3.02292469129">
        <ele>45.6</ele>
        <time>2014-05-03T14:21:32Z</time>
      </trkpt>
      <trkpt lat="39.455541530556" lon="3.022920835616">
        <ele>45.6</ele>
        <time>2014-05-03T14:21:33Z</time>
      </trkpt>
      <trkpt lat="39.455898515677" lon="3.022905580558">
        <ele>46</ele>
        <time>2014-05-03T14:21:37Z</time>
      </trkpt>
      <trkpt lat="39.455985938894" lon="3.022902395436">
        <ele>46.4</ele>
        <time>2014-05-03T14:21:38Z</time>
      </trkpt>
      <trkpt lat="39.456068500609" lon="3.022899377952">
        <ele>47</ele>
        <time>2014-05-03T14:21:39Z</time>
      </trkpt>
      <trkpt lat="39.456150727048" lon="3.022894097355">
        <ele>47.4</ele>
        <time>2014-05-03T14:21:40Z</time>
      </trkpt>
      <trkpt lat="39.456232618211" lon="3.022888481482">
        <ele>47.8</ele>
        <time>2014-05-03T14:21:41Z</time>
      </trkpt>
      <trkpt lat="39.45631568284" lon="3.022883703799">
        <ele>47.8</ele>
        <time>2014-05-03T14:21:42Z</time>
      </trkpt>
      <trkpt lat="39.456915240147" lon="3.022855037701">
        <ele>47.8</ele>
        <time>2014-05-03T14:21:49Z</time>
      </trkpt>
      <trkpt lat="39.456998137138" lon="3.022850511475">
        <ele>47.8</ele>
        <time>2014-05-03T14:21:50Z</time>
      </trkpt>
      <trkpt lat="39.457163260568" lon="3.022845733792">
        <ele>48.2</ele>
        <time>2014-05-03T14:21:52Z</time>
      </trkpt>
      <trkpt lat="39.457243307713" lon="3.022844392688">
        <ele>48.6</ele>
        <time>2014-05-03T14:21:53Z</time>
      </trkpt>
      <trkpt lat="39.457325282695" lon="3.022842967765">
        <ele>49</ele>
        <time>2014-05-03T14:21:54Z</time>
      </trkpt>
      <trkpt lat="39.457407509134" lon="3.022840369376">
        <ele>49.6</ele>
        <time>2014-05-03T14:21:55Z</time>
      </trkpt>
      <trkpt lat="39.457492920695" lon="3.022836346064">
        <ele>50</ele>
        <time>2014-05-03T14:21:56Z</time>
      </trkpt>
      <trkpt lat="39.457657373573" lon="3.022828718535">
        <ele>50</ele>
        <time>2014-05-03T14:21:58Z</time>
      </trkpt>
      <trkpt lat="39.457992398116" lon="3.022808769613">
        <ele>50.4</ele>
        <time>2014-05-03T14:22:02Z</time>
      </trkpt>
      <trkpt lat="39.458070936519" lon="3.022804578663">
        <ele>50.8</ele>
        <time>2014-05-03T14:22:03Z</time>
      </trkpt>
      <trkpt lat="39.458153498234" lon="3.022800722989">
        <ele>51.2</ele>
        <time>2014-05-03T14:22:04Z</time>
      </trkpt>
      <trkpt lat="39.458235305578" lon="3.022797956962">
        <ele>51.6</ele>
        <time>2014-05-03T14:22:05Z</time>
      </trkpt>
      <trkpt lat="39.458318370207" lon="3.022795274754">
        <ele>52</ele>
        <time>2014-05-03T14:22:06Z</time>
      </trkpt>
      <trkpt lat="39.458800664733" lon="3.022775828746">
        <ele>52.4</ele>
        <time>2014-05-03T14:22:12Z</time>
      </trkpt>
      <trkpt lat="39.45888054424" lon="3.022772224529">
        <ele>52.8</ele>
        <time>2014-05-03T14:22:13Z</time>
      </trkpt>
      <trkpt lat="39.458960759023" lon="3.022769207045">
        <ele>53.2</ele>
        <time>2014-05-03T14:22:14Z</time>
      </trkpt>
      <trkpt lat="39.459039632702" lon="3.022766524837">
        <ele>53.6</ele>
        <time>2014-05-03T14:22:15Z</time>
      </trkpt>
      <trkpt lat="39.459119763666" lon="3.022763339715">
        <ele>54.2</ele>
        <time>2014-05-03T14:22:16Z</time>
      </trkpt>
      <trkpt lat="39.459273236255" lon="3.02276040605">
        <ele>54.6</ele>
        <time>2014-05-03T14:22:18Z</time>
      </trkpt>
      <trkpt lat="39.459353618676" lon="3.022758478213">
        <ele>55</ele>
        <time>2014-05-03T14:22:19Z</time>
      </trkpt>
      <trkpt lat="39.459430732156" lon="3.02275370053">
        <ele>55.4</ele>
        <time>2014-05-03T14:22:20Z</time>
      </trkpt>
      <trkpt lat="39.459507342722" lon="3.022748252295">
        <ele>55.8</ele>
        <time>2014-05-03T14:22:21Z</time>
      </trkpt>
      <trkpt lat="39.459588228057" lon="3.022744648078">
        <ele>56.2</ele>
        <time>2014-05-03T14:22:22Z</time>
      </trkpt>
      <trkpt lat="39.459896765796" lon="3.022732410504">
        <ele>56.2</ele>
        <time>2014-05-03T14:22:26Z</time>
      </trkpt>
      <trkpt lat="39.460203878612" lon="3.022718161274">
        <ele>56.6</ele>
        <time>2014-05-03T14:22:30Z</time>
      </trkpt>
      <trkpt lat="39.460276382047" lon="3.022714389419">
        <ele>57</ele>
        <time>2014-05-03T14:22:31Z</time>
      </trkpt>
      <trkpt lat="39.460350142767" lon="3.022713551229">
        <ele>57.4</ele>
        <time>2014-05-03T14:22:32Z</time>
      </trkpt>
      <trkpt lat="39.460419377261" lon="3.022712880677">
        <ele>57.8</ele>
        <time>2014-05-03T14:22:33Z</time>
      </trkpt>
      <trkpt lat="39.460489617583" lon="3.022711288116">
        <ele>58.2</ele>
        <time>2014-05-03T14:22:34Z</time>
      </trkpt>
      <trkpt lat="39.460897313199" lon="3.022717239265">
        <ele>58.6</ele>
        <time>2014-05-03T14:22:40Z</time>
      </trkpt>
      <trkpt lat="39.460960764182" lon="3.02271933474">
        <ele>59</ele>
        <time>2014-05-03T14:22:41Z</time>
      </trkpt>
      <trkpt lat="39.461024466622" lon="3.02272184931">
        <ele>59.6</ele>
        <time>2014-05-03T14:22:42Z</time>
      </trkpt>
      <trkpt lat="39.461089929261" lon="3.022724866794">
        <ele>60</ele>
        <time>2014-05-03T14:22:43Z</time>
      </trkpt>
      <trkpt lat="39.461152458235" lon="3.022727968097">
        <ele>60.4</ele>
        <time>2014-05-03T14:22:44Z</time>
      </trkpt>
      <trkpt lat="39.461391677661" lon="3.022734086884">
        <ele>60.4</ele>
        <time>2014-05-03T14:22:48Z</time>
      </trkpt>
      <trkpt lat="39.461622766644" lon="3.022756382738">
        <ele>60.8</ele>
        <time>2014-05-03T14:22:52Z</time>
      </trkpt>
      <trkpt lat="39.461677248994" lon="3.022760322231">
        <ele>61.2</ele>
        <time>2014-05-03T14:22:53Z</time>
      </trkpt>
      <trkpt lat="39.461731815163" lon="3.02276375881">
        <ele>61.6</ele>
        <time>2014-05-03T14:22:54Z</time>
      </trkpt>
      <trkpt lat="39.461786465151" lon="3.022770799606">
        <ele>62</ele>
        <time>2014-05-03T14:22:55Z</time>
      </trkpt>
      <trkpt lat="39.461842204786" lon="3.022779432963">
        <ele>62.6</ele>
        <time>2014-05-03T14:22:56Z</time>
      </trkpt>
      <trkpt lat="39.462007328216" lon="3.022799046609">
        <ele>62.6</ele>
        <time>2014-05-03T14:22:59Z</time>
      </trkpt>
      <trkpt lat="39.462229867661" lon="3.022830143458">
        <ele>62.6</ele>
        <time>2014-05-03T14:23:03Z</time>
      </trkpt>
      <trkpt lat="39.46243698441" lon="3.022855456796">
        <ele>63</ele>
        <time>2014-05-03T14:23:07Z</time>
      </trkpt>
      <trkpt lat="39.462486353801" lon="3.022861575583">
        <ele>63.4</ele>
        <time>2014-05-03T14:23:08Z</time>
      </trkpt>
      <trkpt lat="39.462535471735" lon="3.022867862008">
        <ele>63.8</ele>
        <time>2014-05-03T14:23:09Z</time>
      </trkpt>
      <trkpt lat="39.462586517506" lon="3.022874316071">
        <ele>64.2</ele>
        <time>2014-05-03T14:23:10Z</time>
      </trkpt>
      <trkpt lat="39.46263647363" lon="3.022881859781">
        <ele>64.6</ele>
        <time>2014-05-03T14:23:11Z</time>
      </trkpt>
      <trkpt lat="39.463039475382" lon="3.022913878639">
        <ele>65</ele>
        <time>2014-05-03T14:23:18Z</time>
      </trkpt>
      <trkpt lat="39.463099489786" lon="3.022914297734">
        <ele>65.4</ele>
        <time>2014-05-03T14:23:19Z</time>
      </trkpt>
      <trkpt lat="39.463158917457" lon="3.022913962458">
        <ele>66</ele>
        <time>2014-05-03T14:23:20Z</time>
      </trkpt>
      <trkpt lat="39.463218931861" lon="3.02291211844">
        <ele>66.4</ele>
        <time>2014-05-03T14:23:21Z</time>
      </trkpt>
      <trkpt lat="39.46327685079" lon="3.022908178947">
        <ele>66.8</ele>
        <time>2014-05-03T14:23:22Z</time>
      </trkpt>
      <trkpt lat="39.463440549297" lon="3.022896863382">
        <ele>66.8</ele>
        <time>2014-05-03T14:23:25Z</time>
      </trkpt>
      <trkpt lat="39.463657640507" lon="3.022884877265">
        <ele>67.2</ele>
        <time>2014-05-03T14:23:29Z</time>
      </trkpt>
      <trkpt lat="39.463712961047" lon="3.02287859084">
        <ele>67.6</ele>
        <time>2014-05-03T14:23:30Z</time>
      </trkpt>
      <trkpt lat="39.463771215252" lon="3.022872388234">
        <ele>68</ele>
        <time>2014-05-03T14:23:31Z</time>
      </trkpt>
      <trkpt lat="39.463831900208" lon="3.022864425429">
        <ele>68.4</ele>
        <time>2014-05-03T14:23:32Z</time>
      </trkpt>
      <trkpt lat="39.463897027571" lon="3.022860569755">
        <ele>68.8</ele>
        <time>2014-05-03T14:23:33Z</time>
      </trkpt>
      <trkpt lat="39.463961065287" lon="3.022866520904">
        <ele>68.8</ele>
        <time>2014-05-03T14:23:34Z</time>
      </trkpt>
      <trkpt lat="39.464103725225" lon="3.022853780416">
        <ele>68.8</ele>
        <time>2014-05-03T14:23:36Z</time>
      </trkpt>
      <trkpt lat="39.464443275994" lon="3.022833999132">
        <ele>68.8</ele>
        <time>2014-05-03T14:23:40Z</time>
      </trkpt>
      <trkpt lat="39.464731361897" lon="3.022800555351">
        <ele>68.8</ele>
        <time>2014-05-03T14:23:43Z</time>
      </trkpt>
      <trkpt lat="39.464825406815" lon="3.022787563406">
        <ele>69.2</ele>
        <time>2014-05-03T14:23:44Z</time>
      </trkpt>
      <trkpt lat="39.464920289923" lon="3.022773649452">
        <ele>69.8</ele>
        <time>2014-05-03T14:23:45Z</time>
      </trkpt>
      <trkpt lat="39.465007377864" lon="3.022760573688">
        <ele>70.2</ele>
        <time>2014-05-03T14:23:46Z</time>
      </trkpt>
      <trkpt lat="39.465090274855" lon="3.022751940331">
        <ele>70.8</ele>
        <time>2014-05-03T14:23:47Z</time>
      </trkpt>
      <trkpt lat="39.465170489638" lon="3.022746240639">
        <ele>71.2</ele>
        <time>2014-05-03T14:23:48Z</time>
      </trkpt>
      <trkpt lat="39.465245172367" lon="3.022743809888">
        <ele>72.2</ele>
        <time>2014-05-03T14:23:49Z</time>
      </trkpt>
      <trkpt lat="39.465317759621" lon="3.022742636422">
        <ele>72.6</ele>
        <time>2014-05-03T14:23:50Z</time>
      </trkpt>
      <trkpt lat="39.465387161753" lon="3.022736852911">
        <ele>73</ele>
        <time>2014-05-03T14:23:51Z</time>
      </trkpt>
      <trkpt lat="39.465453965496" lon="3.022730566486">
        <ele>73.6</ele>
        <time>2014-05-03T14:23:52Z</time>
      </trkpt>
      <trkpt lat="39.465577011788" lon="3.022720759663">
        <ele>74</ele>
        <time>2014-05-03T14:23:54Z</time>
      </trkpt>
      <trkpt lat="39.465632080871" lon="3.022714976152">
        <ele>74.4</ele>
        <time>2014-05-03T14:23:55Z</time>
      </trkpt>
      <trkpt lat="39.46568580885" lon="3.022710282288">
        <ele>74.8</ele>
        <time>2014-05-03T14:23:56Z</time>
      </trkpt>
      <trkpt lat="39.465736016431" lon="3.022705420786">
        <ele>75.2</ele>
        <time>2014-05-03T14:23:57Z</time>
      </trkpt>
      <trkpt lat="39.465782703614" lon="3.022701229836">
        <ele>75.6</ele>
        <time>2014-05-03T14:23:58Z</time>
      </trkpt>
      <trkpt lat="39.465926285561" lon="3.022687064425">
        <ele>75.6</ele>
        <time>2014-05-03T14:24:01Z</time>
      </trkpt>
      <trkpt lat="39.465988060164" lon="3.022686980606">
        <ele>75.6</ele>
        <time>2014-05-03T14:24:02Z</time>
      </trkpt>
      <trkpt lat="39.466194422542" lon="3.022651357531">
        <ele>75.6</ele>
        <time>2014-05-03T14:24:05Z</time>
      </trkpt>
      <trkpt lat="39.466333562082" lon="3.022620931234">
        <ele>76</ele>
        <time>2014-05-03T14:24:07Z</time>
      </trkpt>
      <trkpt lat="39.466396929246" lon="3.022610286221">
        <ele>76.4</ele>
        <time>2014-05-03T14:24:08Z</time>
      </trkpt>
      <trkpt lat="39.466464068265" lon="3.022587403634">
        <ele>77</ele>
        <time>2014-05-03T14:24:09Z</time>
      </trkpt>
      <trkpt lat="39.466526932515" lon="3.022560246278">
        <ele>77.4</ele>
        <time>2014-05-03T14:24:10Z</time>
      </trkpt>
      <trkpt lat="39.466592478973" lon="3.022539878261">
        <ele>77.8</ele>
        <time>2014-05-03T14:24:11Z</time>
      </trkpt>
      <trkpt lat="39.466787106691" lon="3.022441642393">
        <ele>77.8</ele>
        <time>2014-05-03T14:24:14Z</time>
      </trkpt>
      <trkpt lat="39.467147360753" lon="3.022174092145">
        <ele>77.8</ele>
        <time>2014-05-03T14:24:20Z</time>
      </trkpt>
      <trkpt lat="39.467587745779" lon="3.02175206348">
        <ele>77.8</ele>
        <time>2014-05-03T14:24:28Z</time>
      </trkpt>
      <trkpt lat="39.467643401595" lon="3.021707807048">
        <ele>78.2</ele>
        <time>2014-05-03T14:24:29Z</time>
      </trkpt>
      <trkpt lat="39.467699308868" lon="3.021663969711">
        <ele>78.6</ele>
        <time>2014-05-03T14:24:30Z</time>
      </trkpt>
      <trkpt lat="39.467759323272" lon="3.021626502618">
        <ele>79</ele>
        <time>2014-05-03T14:24:31Z</time>
      </trkpt>
      <trkpt lat="39.467823528626" lon="3.021589119344">
        <ele>79.4</ele>
        <time>2014-05-03T14:24:32Z</time>
      </trkpt>
      <trkpt lat="39.467885889962" lon="3.021555340287">
        <ele>79.8</ele>
        <time>2014-05-03T14:24:33Z</time>
      </trkpt>
      <trkpt lat="39.468075404721" lon="3.021474203495">
        <ele>80.4</ele>
        <time>2014-05-03T14:24:36Z</time>
      </trkpt>
      <trkpt lat="39.46814002917" lon="3.021456517686">
        <ele>80.8</ele>
        <time>2014-05-03T14:24:37Z</time>
      </trkpt>
      <trkpt lat="39.468203144877" lon="3.021440005343">
        <ele>81.6</ele>
        <time>2014-05-03T14:24:38Z</time>
      </trkpt>
      <trkpt lat="39.46826659586" lon="3.021423325362">
        <ele>82</ele>
        <time>2014-05-03T14:24:39Z</time>
      </trkpt>
      <trkpt lat="39.468695246226" lon="3.021319641259">
        <ele>82.6</ele>
        <time>2014-05-03T14:24:46Z</time>
      </trkpt>
      <trkpt lat="39.468754841535" lon="3.021306649314">
        <ele>83</ele>
        <time>2014-05-03T14:24:47Z</time>
      </trkpt>
      <trkpt lat="39.468815442672" lon="3.021293908826">
        <ele>83.4</ele>
        <time>2014-05-03T14:24:48Z</time>
      </trkpt>
      <trkpt lat="39.46887260723" lon="3.021283599089">
        <ele>83.8</ele>
        <time>2014-05-03T14:24:49Z</time>
      </trkpt>
      <trkpt lat="39.468928933598" lon="3.021273373171">
        <ele>84.2</ele>
        <time>2014-05-03T14:24:50Z</time>
      </trkpt>
      <trkpt lat="39.469100930186" lon="3.021239258838">
        <ele>84.6</ele>
        <time>2014-05-03T14:24:53Z</time>
      </trkpt>
      <trkpt lat="39.469159771124" lon="3.021225763979">
        <ele>85</ele>
        <time>2014-05-03T14:24:54Z</time>
      </trkpt>
      <trkpt lat="39.46921626513" lon="3.021212101482">
        <ele>85.4</ele>
        <time>2014-05-03T14:24:55Z</time>
      </trkpt>
      <trkpt lat="39.469273429688" lon="3.021197684614">
        <ele>85.8</ele>
        <time>2014-05-03T14:24:56Z</time>
      </trkpt>
      <trkpt lat="39.469326738572" lon="3.021186033773">
        <ele>86.2</ele>
        <time>2014-05-03T14:24:57Z</time>
      </trkpt>
      <trkpt lat="39.46943587091" lon="3.0211636541">
        <ele>86.6</ele>
        <time>2014-05-03T14:24:59Z</time>
      </trkpt>
      <trkpt lat="39.469494376572" lon="3.021151667983">
        <ele>87</ele>
        <time>2014-05-03T14:25:00Z</time>
      </trkpt>
      <trkpt lat="39.469553636605" lon="3.021137586391">
        <ele>87.6</ele>
        <time>2014-05-03T14:25:01Z</time>
      </trkpt>
      <trkpt lat="39.469611806991" lon="3.021121576962">
        <ele>88</ele>
        <time>2014-05-03T14:25:02Z</time>
      </trkpt>
      <trkpt lat="39.469671737576" lon="3.02110581899">
        <ele>88.4</ele>
        <time>2014-05-03T14:25:03Z</time>
      </trkpt>
      <trkpt lat="39.469785982873" lon="3.021084696602">
        <ele>88.8</ele>
        <time>2014-05-03T14:25:05Z</time>
      </trkpt>
      <trkpt lat="39.469841303413" lon="3.021076649978">
        <ele>89.4</ele>
        <time>2014-05-03T14:25:06Z</time>
      </trkpt>
      <trkpt lat="39.469895953401" lon="3.021074470684">
        <ele>89.8</ele>
        <time>2014-05-03T14:25:07Z</time>
      </trkpt>
      <trkpt lat="39.469950938665" lon="3.021070028277">
        <ele>90.2</ele>
        <time>2014-05-03T14:25:08Z</time>
      </trkpt>
      <trkpt lat="39.470005421015" lon="3.02106223311">
        <ele>90.8</ele>
        <time>2014-05-03T14:25:09Z</time>
      </trkpt>
      <trkpt lat="39.47017347811" lon="3.021031303899">
        <ele>91.2</ele>
        <time>2014-05-03T14:25:12Z</time>
      </trkpt>
      <trkpt lat="39.470227541365" lon="3.0210211618">
        <ele>91.6</ele>
        <time>2014-05-03T14:25:13Z</time>
      </trkpt>
      <trkpt lat="39.470280850249" lon="3.021009594778">
        <ele>92</ele>
        <time>2014-05-03T14:25:14Z</time>
      </trkpt>
      <trkpt lat="39.47033524878" lon="3.020998446851">
        <ele>92.4</ele>
        <time>2014-05-03T14:25:15Z</time>
      </trkpt>
      <trkpt lat="39.470388641483" lon="3.020990819322">
        <ele>92.8</ele>
        <time>2014-05-03T14:25:16Z</time>
      </trkpt>
      <trkpt lat="39.470442788557" lon="3.020981934508">
        <ele>92.8</ele>
        <time>2014-05-03T14:25:17Z</time>
      </trkpt>
      <trkpt lat="39.470497438545" lon="3.020969780753">
        <ele>93.2</ele>
        <time>2014-05-03T14:25:18Z</time>
      </trkpt>
      <trkpt lat="39.470554100189" lon="3.02095578298">
        <ele>93.6</ele>
        <time>2014-05-03T14:25:19Z</time>
      </trkpt>
      <trkpt lat="39.470606989978" lon="3.020944383596">
        <ele>94</ele>
        <time>2014-05-03T14:25:20Z</time>
      </trkpt>
      <trkpt lat="39.470659041577" lon="3.020931391651">
        <ele>94.6</ele>
        <time>2014-05-03T14:25:21Z</time>
      </trkpt>
      <trkpt lat="39.470711679909" lon="3.020919573172">
        <ele>95</ele>
        <time>2014-05-03T14:25:22Z</time>
      </trkpt>
      <trkpt lat="39.470818465315" lon="3.020896858223">
        <ele>95</ele>
        <time>2014-05-03T14:25:24Z</time>
      </trkpt>
      <trkpt lat="39.470927262377" lon="3.020875149102">
        <ele>95</ele>
        <time>2014-05-03T14:25:26Z</time>
      </trkpt>
      <trkpt lat="39.471039579837" lon="3.02085771475">
        <ele>95.8</ele>
        <time>2014-05-03T14:25:28Z</time>
      </trkpt>
      <trkpt lat="39.471091966712" lon="3.020848746117">
        <ele>96.2</ele>
        <time>2014-05-03T14:25:29Z</time>
      </trkpt>
      <trkpt lat="39.471146281424" lon="3.020840364217">
        <ele>96.6</ele>
        <time>2014-05-03T14:25:30Z</time>
      </trkpt>
      <trkpt lat="39.471202188697" lon="3.020831647041">
        <ele>97</ele>
        <time>2014-05-03T14:25:31Z</time>
      </trkpt>
      <trkpt lat="39.471436043707" lon="3.020790324274">
        <ele>97.4</ele>
        <time>2014-05-03T14:25:35Z</time>
      </trkpt>
      <trkpt lat="39.471494130274" lon="3.020784456944">
        <ele>97.8</ele>
        <time>2014-05-03T14:25:36Z</time>
      </trkpt>
      <trkpt lat="39.471549534633" lon="3.020779679261">
        <ele>98.4</ele>
        <time>2014-05-03T14:25:37Z</time>
      </trkpt>
      <trkpt lat="39.471605274268" lon="3.020775907406">
        <ele>98.8</ele>
        <time>2014-05-03T14:25:38Z</time>
      </trkpt>
      <trkpt lat="39.471659337523" lon="3.020775991225">
        <ele>99.2</ele>
        <time>2014-05-03T14:25:39Z</time>
      </trkpt>
      <trkpt lat="39.471873830344" lon="3.020801388382">
        <ele>99.6</ele>
        <time>2014-05-03T14:25:43Z</time>
      </trkpt>
      <trkpt lat="39.471923702649" lon="3.020810440834">
        <ele>100</ele>
        <time>2014-05-03T14:25:44Z</time>
      </trkpt>
      <trkpt lat="39.471975418972" lon="3.020821337304">
        <ele>100.6</ele>
        <time>2014-05-03T14:25:45Z</time>
      </trkpt>
      <trkpt lat="39.472026632381" lon="3.02083340724">
        <ele>101</ele>
        <time>2014-05-03T14:25:46Z</time>
      </trkpt>
      <trkpt lat="39.472077594333" lon="3.02084430371">
        <ele>101.4</ele>
        <time>2014-05-03T14:25:47Z</time>
      </trkpt>
      <trkpt lat="39.472216733873" lon="3.020874562369">
        <ele>101.8</ele>
        <time>2014-05-03T14:25:50Z</time>
      </trkpt>
      <trkpt lat="39.472260822667" lon="3.020890487979">
        <ele>102.4</ele>
        <time>2014-05-03T14:25:51Z</time>
      </trkpt>
      <trkpt lat="39.472305330556" lon="3.02091052072">
        <ele>103.2</ele>
        <time>2014-05-03T14:25:52Z</time>
      </trkpt>
      <trkpt lat="39.472351179549" lon="3.020935414963">
        <ele>103.8</ele>
        <time>2014-05-03T14:25:53Z</time>
      </trkpt>
      <trkpt lat="39.472395603619" lon="3.020960728301">
        <ele>104.2</ele>
        <time>2014-05-03T14:25:54Z</time>
      </trkpt>
      <trkpt lat="39.472439608594" lon="3.020981515413">
        <ele>104.6</ele>
        <time>2014-05-03T14:25:55Z</time>
      </trkpt>
      <trkpt lat="39.472483362112" lon="3.02100104524">
        <ele>105</ele>
        <time>2014-05-03T14:25:56Z</time>
      </trkpt>
      <trkpt lat="39.472518314635" lon="3.02101613266">
        <ele>105.4</ele>
        <time>2014-05-03T14:25:57Z</time>
      </trkpt>
      <trkpt lat="39.472544466163" lon="3.021031639175">
        <ele>105.8</ele>
        <time>2014-05-03T14:25:58Z</time>
      </trkpt>
      <trkpt lat="39.472566845836" lon="3.021048989708">
        <ele>106.2</ele>
        <time>2014-05-03T14:25:59Z</time>
      </trkpt>
      <trkpt lat="39.472591907717" lon="3.021063490395">
        <ele>106.8</ele>
        <time>2014-05-03T14:26:00Z</time>
      </trkpt>
      <trkpt lat="39.472616550503" lon="3.021073632494">
        <ele>107.2</ele>
        <time>2014-05-03T14:26:01Z</time>
      </trkpt>
      <trkpt lat="39.472640690375" lon="3.021091988855">
        <ele>107.6</ele>
        <time>2014-05-03T14:26:02Z</time>
      </trkpt>
      <trkpt lat="39.472665668437" lon="3.021110931949">
        <ele>108.2</ele>
        <time>2014-05-03T14:26:03Z</time>
      </trkpt>
      <trkpt lat="39.472714283457" lon="3.02115108125">
        <ele>108.6</ele>
        <time>2014-05-03T14:26:05Z</time>
      </trkpt>
      <trkpt lat="39.472741608451" lon="3.021169353792">
        <ele>109</ele>
        <time>2014-05-03T14:26:06Z</time>
      </trkpt>
      <trkpt lat="39.472770442187" lon="3.021186201411">
        <ele>109.4</ele>
        <time>2014-05-03T14:26:07Z</time>
      </trkpt>
      <trkpt lat="39.472797515724" lon="3.021198941899">
        <ele>109.8</ele>
        <time>2014-05-03T14:26:08Z</time>
      </trkpt>
      <trkpt lat="39.472824421623" lon="3.021215705699">
        <ele>110.2</ele>
        <time>2014-05-03T14:26:09Z</time>
      </trkpt>
      <trkpt lat="39.472845795468" lon="3.021236911906">
        <ele>110.2</ele>
        <time>2014-05-03T14:26:10Z</time>
      </trkpt>
      <trkpt lat="39.472929782106" lon="3.021317713422">
        <ele>110.6</ele>
        <time>2014-05-03T14:26:14Z</time>
      </trkpt>
      <trkpt lat="39.472951155951" lon="3.021338919629">
        <ele>111.2</ele>
        <time>2014-05-03T14:26:15Z</time>
      </trkpt>
      <trkpt lat="39.472974122357" lon="3.021357778904">
        <ele>111.6</ele>
        <time>2014-05-03T14:26:16Z</time>
      </trkpt>
      <trkpt lat="39.472998429867" lon="3.021378566016">
        <ele>112.6</ele>
        <time>2014-05-03T14:26:17Z</time>
      </trkpt>
      <trkpt lat="39.473019384617" lon="3.021400526594">
        <ele>112.6</ele>
        <time>2014-05-03T14:26:18Z</time>
      </trkpt>
      <trkpt lat="39.473039836453" lon="3.021423493">
        <ele>113</ele>
        <time>2014-05-03T14:26:19Z</time>
      </trkpt>
      <trkpt lat="39.473061294117" lon="3.021448135786">
        <ele>113.4</ele>
        <time>2014-05-03T14:26:20Z</time>
      </trkpt>
      <trkpt lat="39.473081494496" lon="3.021471102192">
        <ele>113.8</ele>
        <time>2014-05-03T14:26:21Z</time>
      </trkpt>
      <trkpt lat="39.473101694875" lon="3.021493481865">
        <ele>114.2</ele>
        <time>2014-05-03T14:26:22Z</time>
      </trkpt>
      <trkpt lat="39.473120805607" lon="3.021518627565">
        <ele>114.6</ele>
        <time>2014-05-03T14:26:23Z</time>
      </trkpt>
      <trkpt lat="39.4732085641" lon="3.021621222021">
        <ele>114.6</ele>
        <time>2014-05-03T14:26:27Z</time>
      </trkpt>
      <trkpt lat="39.473252736713" lon="3.021681320244">
        <ele>115</ele>
        <time>2014-05-03T14:26:29Z</time>
      </trkpt>
      <trkpt lat="39.473271763626" lon="3.021711997998">
        <ele>115.4</ele>
        <time>2014-05-03T14:26:30Z</time>
      </trkpt>
      <trkpt lat="39.473291628729" lon="3.021739658268">
        <ele>115.8</ele>
        <time>2014-05-03T14:26:31Z</time>
      </trkpt>
      <trkpt lat="39.473310990918" lon="3.021765642158">
        <ele>116.2</ele>
        <time>2014-05-03T14:26:32Z</time>
      </trkpt>
      <trkpt lat="39.473333035315" lon="3.021791793686">
        <ele>116.6</ele>
        <time>2014-05-03T14:26:33Z</time>
      </trkpt>
      <trkpt lat="39.473419871799" lon="3.021907547725">
        <ele>116.6</ele>
        <time>2014-05-03T14:26:37Z</time>
      </trkpt>
      <trkpt lat="39.473440910368" lon="3.021938309298">
        <ele>117</ele>
        <time>2014-05-03T14:26:38Z</time>
      </trkpt>
      <trkpt lat="39.473464379688" lon="3.02196412555">
        <ele>117.4</ele>
        <time>2014-05-03T14:26:39Z</time>
      </trkpt>
      <trkpt lat="39.473485585895" lon="3.021987930146">
        <ele>117.8</ele>
        <time>2014-05-03T14:26:40Z</time>
      </trkpt>
      <trkpt lat="39.473506456826" lon="3.022010561276">
        <ele>118.4</ele>
        <time>2014-05-03T14:26:41Z</time>
      </trkpt>
      <trkpt lat="39.473522130979" lon="3.022039059736">
        <ele>118.8</ele>
        <time>2014-05-03T14:26:42Z</time>
      </trkpt>
      <trkpt lat="39.473538475684" lon="3.022068480205">
        <ele>118.8</ele>
        <time>2014-05-03T14:26:43Z</time>
      </trkpt>
      <trkpt lat="39.473632017688" lon="3.022222120432">
        <ele>119.2</ele>
        <time>2014-05-03T14:26:48Z</time>
      </trkpt>
      <trkpt lat="39.473650457868" lon="3.022251708539">
        <ele>119.6</ele>
        <time>2014-05-03T14:26:49Z</time>
      </trkpt>
      <trkpt lat="39.473671831713" lon="3.022282302474">
        <ele>120</ele>
        <time>2014-05-03T14:26:50Z</time>
      </trkpt>
      <trkpt lat="39.473692870282" lon="3.022313399323">
        <ele>120.4</ele>
        <time>2014-05-03T14:26:51Z</time>
      </trkpt>
      <trkpt lat="39.473715082317" lon="3.022343238887">
        <ele>120.8</ele>
        <time>2014-05-03T14:26:52Z</time>
      </trkpt>
      <trkpt lat="39.473848354527" lon="3.02252319828">
        <ele>120.8</ele>
        <time>2014-05-03T14:26:57Z</time>
      </trkpt>
      <trkpt lat="39.473901914868" lon="3.022602071959">
        <ele>121.2</ele>
        <time>2014-05-03T14:26:59Z</time>
      </trkpt>
      <trkpt lat="39.473926138559" lon="3.022636856844">
        <ele>121.8</ele>
        <time>2014-05-03T14:27:00Z</time>
      </trkpt>
      <trkpt lat="39.47395120044" lon="3.02266904334">
        <ele>122.2</ele>
        <time>2014-05-03T14:27:01Z</time>
      </trkpt>
      <trkpt lat="39.473975759407" lon="3.022703325311">
        <ele>122.6</ele>
        <time>2014-05-03T14:27:02Z</time>
      </trkpt>
      <trkpt lat="39.474001659478" lon="3.022736852911">
        <ele>123</ele>
        <time>2014-05-03T14:27:03Z</time>
      </trkpt>
      <trkpt lat="39.47405429781" lon="3.022810529812">
        <ele>123</ele>
        <time>2014-05-03T14:27:05Z</time>
      </trkpt>
      <trkpt lat="39.474244231664" lon="3.023078750612">
        <ele>123.4</ele>
        <time>2014-05-03T14:27:12Z</time>
      </trkpt>
      <trkpt lat="39.47427138902" lon="3.023121163026">
        <ele>123.8</ele>
        <time>2014-05-03T14:27:13Z</time>
      </trkpt>
      <trkpt lat="39.474299971299" lon="3.023163743078">
        <ele>124.2</ele>
        <time>2014-05-03T14:27:14Z</time>
      </trkpt>
      <trkpt lat="39.474327966845" lon="3.023205568759">
        <ele>124.6</ele>
        <time>2014-05-03T14:27:15Z</time>
      </trkpt>
      <trkpt lat="39.474356381486" lon="3.023244963689">
        <ele>125</ele>
        <time>2014-05-03T14:27:16Z</time>
      </trkpt>
      <trkpt lat="39.474520163812" lon="3.023475633577">
        <ele>125</ele>
        <time>2014-05-03T14:27:22Z</time>
      </trkpt>
      <trkpt lat="39.474633235643" lon="3.023633380935">
        <ele>125.4</ele>
        <time>2014-05-03T14:27:26Z</time>
      </trkpt>
      <trkpt lat="39.474661231189" lon="3.02367570953">
        <ele>126</ele>
        <time>2014-05-03T14:27:27Z</time>
      </trkpt>
      <trkpt lat="39.474692076581" lon="3.02371510446">
        <ele>126.4</ele>
        <time>2014-05-03T14:27:28Z</time>
      </trkpt>
      <trkpt lat="39.474723927801" lon="3.023755672856">
        <ele>126.8</ele>
        <time>2014-05-03T14:27:29Z</time>
      </trkpt>
      <trkpt lat="39.474753851184" lon="3.0237955707">
        <ele>127.4</ele>
        <time>2014-05-03T14:27:30Z</time>
      </trkpt>
      <trkpt lat="39.474932637111" lon="3.024041328008">
        <ele>127.4</ele>
        <time>2014-05-03T14:27:36Z</time>
      </trkpt>
      <trkpt lat="39.474990053126" lon="3.024121375153">
        <ele>127.4</ele>
        <time>2014-05-03T14:27:38Z</time>
      </trkpt>
      <trkpt lat="39.47503917106" lon="3.02420460742">
        <ele>127.4</ele>
        <time>2014-05-03T14:27:40Z</time>
      </trkpt>
      <trkpt lat="39.475125253173" lon="3.024322540753">
        <ele>127.4</ele>
        <time>2014-05-03T14:27:43Z</time>
      </trkpt>
      <trkpt lat="39.475216448245" lon="3.024454807135">
        <ele>127.8</ele>
        <time>2014-05-03T14:27:46Z</time>
      </trkpt>
      <trkpt lat="39.475247796551" lon="3.024500069395">
        <ele>128.2</ele>
        <time>2014-05-03T14:27:47Z</time>
      </trkpt>
      <trkpt lat="39.475280653599" lon="3.024546169845">
        <ele>128.6</ele>
        <time>2014-05-03T14:27:48Z</time>
      </trkpt>
      <trkpt lat="39.475313343009" lon="3.024594784865">
        <ele>129</ele>
        <time>2014-05-03T14:27:49Z</time>
      </trkpt>
      <trkpt lat="39.475349720455" lon="3.024639376573">
        <ele>129.4</ele>
        <time>2014-05-03T14:27:50Z</time>
      </trkpt>
      <trkpt lat="39.475384840616" lon="3.024681202254">
        <ele>129.4</ele>
        <time>2014-05-03T14:27:51Z</time>
      </trkpt>
      <trkpt lat="39.475658761108" lon="3.024973562926">
        <ele>129.4</ele>
        <time>2014-05-03T14:27:58Z</time>
      </trkpt>
      <trkpt lat="39.475828997497" lon="3.025119240348">
        <ele>129.4</ele>
        <time>2014-05-03T14:28:02Z</time>
      </trkpt>
      <trkpt lat="39.475970735426" lon="3.025210770696">
        <ele>129.4</ele>
        <time>2014-05-03T14:28:05Z</time>
      </trkpt>
      <trkpt lat="39.476229149403" lon="3.025343120897">
        <ele>129.4</ele>
        <time>2014-05-03T14:28:10Z</time>
      </trkpt>
      <trkpt lat="39.476325876529" lon="3.025393328478">
        <ele>129.4</ele>
        <time>2014-05-03T14:28:12Z</time>
      </trkpt>
      <trkpt lat="39.47647582872" lon="3.025443871335">
        <ele>129.4</ele>
        <time>2014-05-03T14:28:15Z</time>
      </trkpt>
      <trkpt lat="39.476576160063" lon="3.025468849397">
        <ele>129.4</ele>
        <time>2014-05-03T14:28:17Z</time>
      </trkpt>
      <trkpt lat="39.476678838338" lon="3.025489636509">
        <ele>129.4</ele>
        <time>2014-05-03T14:28:19Z</time>
      </trkpt>
      <trkpt lat="39.476731225213" lon="3.02549961097">
        <ele>129.4</ele>
        <time>2014-05-03T14:28:20Z</time>
      </trkpt>
      <trkpt lat="39.476936330306" lon="3.025516207132">
        <ele>129.4</ele>
        <time>2014-05-03T14:28:24Z</time>
      </trkpt>
      <trkpt lat="39.476977569254" lon="3.025512519096">
        <ele>129.4</ele>
        <time>2014-05-03T14:28:25Z</time>
      </trkpt>
      <trkpt lat="39.477265152243" lon="3.025488127767">
        <ele>129.4</ele>
        <time>2014-05-03T14:30:59Z</time>
      </trkpt>
      <trkpt lat="39.477306977924" lon="3.025482511894">
        <ele>129.4</ele>
        <time>2014-05-03T14:31:00Z</time>
      </trkpt>
      <trkpt lat="39.477486015308" lon="3.025445044801">
        <ele>129.4</ele>
        <time>2014-05-03T14:31:04Z</time>
      </trkpt>
      <trkpt lat="39.477592130162" lon="3.025410092278">
        <ele>129.4</ele>
        <time>2014-05-03T14:31:06Z</time>
      </trkpt>
      <trkpt lat="39.477725402372" lon="3.025369775339">
        <ele>128.8</ele>
        <time>2014-05-03T14:31:08Z</time>
      </trkpt>
      <trkpt lat="39.47778759607" lon="3.025350748426">
        <ele>128.4</ele>
        <time>2014-05-03T14:31:09Z</time>
      </trkpt>
      <trkpt lat="39.477849286854" lon="3.025333314074">
        <ele>128</ele>
        <time>2014-05-03T14:31:10Z</time>
      </trkpt>
      <trkpt lat="39.477912654018" lon="3.025312359324">
        <ele>127.4</ele>
        <time>2014-05-03T14:31:11Z</time>
      </trkpt>
      <trkpt lat="39.477976775553" lon="3.025294589696">
        <ele>127</ele>
        <time>2014-05-03T14:31:12Z</time>
      </trkpt>
      <trkpt lat="39.478183808483" lon="3.025227450677">
        <ele>127</ele>
        <time>2014-05-03T14:31:15Z</time>
      </trkpt>
      <trkpt lat="39.478258910307" lon="3.025204065176">
        <ele>127</ele>
        <time>2014-05-03T14:31:16Z</time>
      </trkpt>
      <trkpt lat="39.478573734471" lon="3.025106835136">
        <ele>127</ele>
        <time>2014-05-03T14:31:20Z</time>
      </trkpt>
      <trkpt lat="39.478813624449" lon="3.025030392208">
        <ele>127</ele>
        <time>2014-05-03T14:31:23Z</time>
      </trkpt>
      <trkpt lat="39.479160802747" lon="3.024931569607">
        <ele>126.6</ele>
        <time>2014-05-03T14:31:27Z</time>
      </trkpt>
      <trkpt lat="39.479248812697" lon="3.02490533426">
        <ele>126.2</ele>
        <time>2014-05-03T14:31:28Z</time>
      </trkpt>
      <trkpt lat="39.479341348873" lon="3.024879015094">
        <ele>125.8</ele>
        <time>2014-05-03T14:31:29Z</time>
      </trkpt>
      <trkpt lat="39.479436399619" lon="3.02484666096">
        <ele>125.4</ele>
        <time>2014-05-03T14:31:30Z</time>
      </trkpt>
      <trkpt lat="39.479530695994" lon="3.024817240491">
        <ele>125</ele>
        <time>2014-05-03T14:31:31Z</time>
      </trkpt>
      <trkpt lat="39.480005362991" lon="3.024671227793">
        <ele>125</ele>
        <time>2014-05-03T14:31:36Z</time>
      </trkpt>
      <trkpt lat="39.48010267685" lon="3.024637197279">
        <ele>124.4</ele>
        <time>2014-05-03T14:31:37Z</time>
      </trkpt>
      <trkpt lat="39.480202170003" lon="3.024607357715">
        <ele>124</ele>
        <time>2014-05-03T14:31:38Z</time>
      </trkpt>
      <trkpt lat="39.480307446667" lon="3.024577769608">
        <ele>123.6</ele>
        <time>2014-05-03T14:31:39Z</time>
      </trkpt>
      <trkpt lat="39.480415070263" lon="3.024543739094">
        <ele>123.2</ele>
        <time>2014-05-03T14:31:40Z</time>
      </trkpt>
      <trkpt lat="39.480533674148" lon="3.02450467944">
        <ele>122.2</ele>
        <time>2014-05-03T14:31:41Z</time>
      </trkpt>
      <trkpt lat="39.480646243065" lon="3.024465452148">
        <ele>121.6</ele>
        <time>2014-05-03T14:31:42Z</time>
      </trkpt>
      <trkpt lat="39.480761242733" lon="3.024424883752">
        <ele>121</ele>
        <time>2014-05-03T14:31:43Z</time>
      </trkpt>
      <trkpt lat="39.480876493858" lon="3.024382052243">
        <ele>120.2</ele>
        <time>2014-05-03T14:31:44Z</time>
      </trkpt>
      <trkpt lat="39.480993169906" lon="3.024339723648">
        <ele>119.4</ele>
        <time>2014-05-03T14:31:45Z</time>
      </trkpt>
      <trkpt lat="39.481113366352" lon="3.024297227415">
        <ele>118.6</ele>
        <time>2014-05-03T14:31:46Z</time>
      </trkpt>
      <trkpt lat="39.481236245006" lon="3.02425238425">
        <ele>118</ele>
        <time>2014-05-03T14:31:47Z</time>
      </trkpt>
      <trkpt lat="39.481359710393" lon="3.024208463094">
        <ele>117.4</ele>
        <time>2014-05-03T14:31:48Z</time>
      </trkpt>
      <trkpt lat="39.481491390042" lon="3.024162865558">
        <ele>116.6</ele>
        <time>2014-05-03T14:31:49Z</time>
      </trkpt>
      <trkpt lat="39.481613765782" lon="3.024116765108">
        <ele>115.8</ele>
        <time>2014-05-03T14:31:50Z</time>
      </trkpt>
      <trkpt lat="39.481739242825" lon="3.024069155916">
        <ele>115</ele>
        <time>2014-05-03T14:31:51Z</time>
      </trkpt>
      <trkpt lat="39.481865138963" lon="3.024023977475">
        <ele>114.2</ele>
        <time>2014-05-03T14:31:52Z</time>
      </trkpt>
      <trkpt lat="39.481988436712" lon="3.02397829612">
        <ele>113.6</ele>
        <time>2014-05-03T14:31:53Z</time>
      </trkpt>
      <trkpt lat="39.482110812452" lon="3.023932782403">
        <ele>113</ele>
        <time>2014-05-03T14:31:54Z</time>
      </trkpt>
      <trkpt lat="39.482231344174" lon="3.023889364161">
        <ele>112.4</ele>
        <time>2014-05-03T14:31:55Z</time>
      </trkpt>
      <trkpt lat="39.482350199516" lon="3.023849047222">
        <ele>111.8</ele>
        <time>2014-05-03T14:31:56Z</time>
      </trkpt>
      <trkpt lat="39.482474251636" lon="3.023805126066">
        <ele>111.4</ele>
        <time>2014-05-03T14:31:57Z</time>
      </trkpt>
      <trkpt lat="39.482933328299" lon="3.023632291288">
        <ele>111.4</ele>
        <time>2014-05-03T14:32:01Z</time>
      </trkpt>
      <trkpt lat="39.483277656751" lon="3.023511172833">
        <ele>110.4</ele>
        <time>2014-05-03T14:32:04Z</time>
      </trkpt>
      <trkpt lat="39.483394584256" lon="3.023467503134">
        <ele>109.8</ele>
        <time>2014-05-03T14:32:05Z</time>
      </trkpt>
      <trkpt lat="39.48351327196" lon="3.0234267671">
        <ele>109.4</ele>
        <time>2014-05-03T14:32:06Z</time>
      </trkpt>
      <trkpt lat="39.483634306596" lon="3.023385276695">
        <ele>109</ele>
        <time>2014-05-03T14:32:07Z</time>
      </trkpt>
      <trkpt lat="39.483876878782" lon="3.023297266745">
        <ele>109</ele>
        <time>2014-05-03T14:32:09Z</time>
      </trkpt>
      <trkpt lat="39.484116684941" lon="3.023214118297">
        <ele>109</ele>
        <time>2014-05-03T14:32:11Z</time>
      </trkpt>
      <trkpt lat="39.484451709484" lon="3.023095179136">
        <ele>109</ele>
        <time>2014-05-03T14:32:14Z</time>
      </trkpt>
      <trkpt lat="39.484770724598" lon="3.022988561368">
        <ele>109</ele>
        <time>2014-05-03T14:32:17Z</time>
      </trkpt>
      <trkpt lat="39.485219072429" lon="3.022885044903">
        <ele>109</ele>
        <time>2014-05-03T14:32:21Z</time>
      </trkpt>
      <trkpt lat="39.485337760133" lon="3.022860653574">
        <ele>109</ele>
        <time>2014-05-03T14:32:22Z</time>
      </trkpt>
      <trkpt lat="39.48558695402" lon="3.022825701051">
        <ele>109</ele>
        <time>2014-05-03T14:32:24Z</time>
      </trkpt>
      <trkpt lat="39.48583338188" lon="3.022803237559">
        <ele>109</ele>
        <time>2014-05-03T14:32:26Z</time>
      </trkpt>
      <trkpt lat="39.485951399032" lon="3.022799130428">
        <ele>109</ele>
        <time>2014-05-03T14:32:27Z</time>
      </trkpt>
      <trkpt lat="39.486174609029" lon="3.02280063917">
        <ele>109.8</ele>
        <time>2014-05-03T14:32:29Z</time>
      </trkpt>
      <trkpt lat="39.486285920661" lon="3.022805165396">
        <ele>110.4</ele>
        <time>2014-05-03T14:32:30Z</time>
      </trkpt>
      <trkpt lat="39.486397986664" lon="3.022811116545">
        <ele>110.8</ele>
        <time>2014-05-03T14:32:31Z</time>
      </trkpt>
      <trkpt lat="39.486510890857" lon="3.02281991754">
        <ele>111.2</ele>
        <time>2014-05-03T14:32:32Z</time>
      </trkpt>
      <trkpt lat="39.486622370127" lon="3.0228316522">
        <ele>111.2</ele>
        <time>2014-05-03T14:32:33Z</time>
      </trkpt>
      <trkpt lat="39.486957562308" lon="3.02287775265">
        <ele>111.2</ele>
        <time>2014-05-03T14:32:36Z</time>
      </trkpt>
      <trkpt lat="39.487269368988" lon="3.022941203633">
        <ele>111.6</ele>
        <time>2014-05-03T14:32:39Z</time>
      </trkpt>
      <trkpt lat="39.487371125254" lon="3.022968780084">
        <ele>112</ele>
        <time>2014-05-03T14:32:40Z</time>
      </trkpt>
      <trkpt lat="39.487474138805" lon="3.023000631304">
        <ele>112.4</ele>
        <time>2014-05-03T14:32:41Z</time>
      </trkpt>
      <trkpt lat="39.487572207035" lon="3.02302862685">
        <ele>112.8</ele>
        <time>2014-05-03T14:32:42Z</time>
      </trkpt>
      <trkpt lat="39.487663653564" lon="3.023057544405">
        <ele>113.2</ele>
        <time>2014-05-03T14:32:43Z</time>
      </trkpt>
      <trkpt lat="39.48793472421" lon="3.02316273725">
        <ele>113.2</ele>
        <time>2014-05-03T14:32:46Z</time>
      </trkpt>
      <trkpt lat="39.488386340982" lon="3.023361136823">
        <ele>113.6</ele>
        <time>2014-05-03T14:32:51Z</time>
      </trkpt>
      <trkpt lat="39.488473261285" lon="3.023403549237">
        <ele>114.2</ele>
        <time>2014-05-03T14:32:52Z</time>
      </trkpt>
      <trkpt lat="39.488555739181" lon="3.023447470393">
        <ele>115</ele>
        <time>2014-05-03T14:32:53Z</time>
      </trkpt>
      <trkpt lat="39.488639390543" lon="3.023488709341">
        <ele>115.4</ele>
        <time>2014-05-03T14:32:54Z</time>
      </trkpt>
      <trkpt lat="39.489153368651" lon="3.023730610975">
        <ele>115.4</ele>
        <time>2014-05-03T14:33:00Z</time>
      </trkpt>
      <trkpt lat="39.489579923542" lon="3.023920880105">
        <ele>115.4</ele>
        <time>2014-05-03T14:33:05Z</time>
      </trkpt>
      <trkpt lat="39.489759547659" lon="3.023986342744">
        <ele>115.4</ele>
        <time>2014-05-03T14:33:07Z</time>
      </trkpt>
      <trkpt lat="39.490305879901" lon="3.024146185577">
        <ele>115.4</ele>
        <time>2014-05-03T14:33:13Z</time>
      </trkpt>
      <trkpt lat="39.490480726335" lon="3.024196728434">
        <ele>115.4</ele>
        <time>2014-05-03T14:33:15Z</time>
      </trkpt>
      <trkpt lat="39.491022783808" lon="3.024335448879">
        <ele>115.4</ele>
        <time>2014-05-03T14:33:21Z</time>
      </trkpt>
      <trkpt lat="39.491115487622" lon="3.024358415285">
        <ele>115.4</ele>
        <time>2014-05-03T14:33:22Z</time>
      </trkpt>
      <trkpt lat="39.49146350411" lon="3.024442234285">
        <ele>115.8</ele>
        <time>2014-05-03T14:33:26Z</time>
      </trkpt>
      <trkpt lat="39.49154899949" lon="3.024462518483">
        <ele>116.2</ele>
        <time>2014-05-03T14:33:27Z</time>
      </trkpt>
      <trkpt lat="39.491636841802" lon="3.024485065794">
        <ele>116.6</ele>
        <time>2014-05-03T14:33:28Z</time>
      </trkpt>
      <trkpt lat="39.4917241812" lon="3.024505685268">
        <ele>117</ele>
        <time>2014-05-03T14:33:29Z</time>
      </trkpt>
      <trkpt lat="39.491812945521" lon="3.024528735493">
        <ele>117.4</ele>
        <time>2014-05-03T14:33:30Z</time>
      </trkpt>
      <trkpt lat="39.492421974375" lon="3.024649937767">
        <ele>117.4</ele>
        <time>2014-05-03T14:33:37Z</time>
      </trkpt>
      <trkpt lat="39.492507385936" lon="3.024655050726">
        <ele>117.4</ele>
        <time>2014-05-03T14:33:38Z</time>
      </trkpt>
      <trkpt lat="39.492931342438" lon="3.024643399885">
        <ele>118.2</ele>
        <time>2014-05-03T14:33:43Z</time>
      </trkpt>
      <trkpt lat="39.49301164104" lon="3.024631078492">
        <ele>118.8</ele>
        <time>2014-05-03T14:33:44Z</time>
      </trkpt>
      <trkpt lat="39.493088503063" lon="3.02461448233">
        <ele>119.2</ele>
        <time>2014-05-03T14:33:45Z</time>
      </trkpt>
      <trkpt lat="39.493162766697" lon="3.024601490385">
        <ele>119.6</ele>
        <time>2014-05-03T14:33:46Z</time>
      </trkpt>
      <trkpt lat="39.493535593609" lon="3.024544661103">
        <ele>119.6</ele>
        <time>2014-05-03T14:33:51Z</time>
      </trkpt>
      <trkpt lat="39.493946725804" lon="3.024491855133">
        <ele>119.6</ele>
        <time>2014-05-03T14:33:57Z</time>
      </trkpt>
      <trkpt lat="39.494008332769" lon="3.024486155441">
        <ele>119.6</ele>
        <time>2014-05-03T14:33:58Z</time>
      </trkpt>
      <trkpt lat="39.494194746225" lon="3.024472492944">
        <ele>119.6</ele>
        <time>2014-05-03T14:34:01Z</time>
      </trkpt>
      <trkpt lat="39.494317960155" lon="3.024467044709">
        <ele>120</ele>
        <time>2014-05-03T14:34:03Z</time>
      </trkpt>
      <trkpt lat="39.494377555464" lon="3.024458411352">
        <ele>120.4</ele>
        <time>2014-05-03T14:34:04Z</time>
      </trkpt>
      <trkpt lat="39.494433965651" lon="3.024447263425">
        <ele>120.8</ele>
        <time>2014-05-03T14:34:05Z</time>
      </trkpt>
      <trkpt lat="39.494483167404" lon="3.0244325951">
        <ele>121.2</ele>
        <time>2014-05-03T14:34:06Z</time>
      </trkpt>
      <trkpt lat="39.494529435492" lon="3.024394960369">
        <ele>121.6</ele>
        <time>2014-05-03T14:34:07Z</time>
      </trkpt>
      <trkpt lat="39.4945740272" lon="3.024353889059">
        <ele>121.6</ele>
        <time>2014-05-03T14:34:08Z</time>
      </trkpt>
      <trkpt lat="39.494651056861" lon="3.024192202208">
        <ele>121.6</ele>
        <time>2014-05-03T14:34:11Z</time>
      </trkpt>
      <trkpt lat="39.494664635539" lon="3.024130092329">
        <ele>121.6</ele>
        <time>2014-05-03T14:34:12Z</time>
      </trkpt>
      <trkpt lat="39.494731104006" lon="3.023905541228">
        <ele>121.6</ele>
        <time>2014-05-03T14:34:16Z</time>
      </trkpt>
      <trkpt lat="39.494750298557" lon="3.023852735258">
        <ele>121.6</ele>
        <time>2014-05-03T14:34:17Z</time>
      </trkpt>
      <trkpt lat="39.494821712345" lon="3.023688952932">
        <ele>121.6</ele>
        <time>2014-05-03T14:34:20Z</time>
      </trkpt>
      <trkpt lat="39.49491852329" lon="3.023528020452">
        <ele>121.6</ele>
        <time>2014-05-03T14:34:23Z</time>
      </trkpt>
      <trkpt lat="39.495090771335" lon="3.023294752175">
        <ele>121.6</ele>
        <time>2014-05-03T14:34:28Z</time>
      </trkpt>
      <trkpt lat="39.495130752998" lon="3.023245634241">
        <ele>121.6</ele>
        <time>2014-05-03T14:34:29Z</time>
      </trkpt>
      <trkpt lat="39.495301492301" lon="3.023039607139">
        <ele>121.6</ele>
        <time>2014-05-03T14:34:33Z</time>
      </trkpt>
      <trkpt lat="39.495424370955" lon="3.022882362695">
        <ele>121.6</ele>
        <time>2014-05-03T14:34:36Z</time>
      </trkpt>
      <trkpt lat="39.495562001753" lon="3.022712964496">
        <ele>121.6</ele>
        <time>2014-05-03T14:34:39Z</time>
      </trkpt>
      <trkpt lat="39.495605336176" lon="3.02265982325">
        <ele>121.6</ele>
        <time>2014-05-03T14:34:40Z</time>
      </trkpt>
      <trkpt lat="39.495935163941" lon="3.022256318584">
        <ele>121.6</ele>
        <time>2014-05-03T14:34:47Z</time>
      </trkpt>
      <trkpt lat="39.496264991706" lon="3.021967143034">
        <ele>121.6</ele>
        <time>2014-05-03T14:34:53Z</time>
      </trkpt>
      <trkpt lat="39.496499181992" lon="3.021795565541">
        <ele>122.6</ele>
        <time>2014-05-03T14:34:57Z</time>
      </trkpt>
      <trkpt lat="39.496559531672" lon="3.02175122529">
        <ele>123</ele>
        <time>2014-05-03T14:34:58Z</time>
      </trkpt>
      <trkpt lat="39.496626503053" lon="3.021705711573">
        <ele>123.4</ele>
        <time>2014-05-03T14:34:59Z</time>
      </trkpt>
      <trkpt lat="39.496692468606" lon="3.021657683286">
        <ele>123.8</ele>
        <time>2014-05-03T14:35:00Z</time>
      </trkpt>
      <trkpt lat="39.496758769435" lon="3.021608900628">
        <ele>123.8</ele>
        <time>2014-05-03T14:35:01Z</time>
      </trkpt>
      <trkpt lat="39.497028163701" lon="3.021398598757">
        <ele>123.2</ele>
        <time>2014-05-03T14:35:05Z</time>
      </trkpt>
      <trkpt lat="39.497096476186" lon="3.021345876606">
        <ele>122.8</ele>
        <time>2014-05-03T14:35:06Z</time>
      </trkpt>
      <trkpt lat="39.497165291585" lon="3.021291394256">
        <ele>122.2</ele>
        <time>2014-05-03T14:35:07Z</time>
      </trkpt>
      <trkpt lat="39.497239974314" lon="3.021233559146">
        <ele>121.8</ele>
        <time>2014-05-03T14:35:08Z</time>
      </trkpt>
      <trkpt lat="39.497314573224" lon="3.02117957971">
        <ele>121.2</ele>
        <time>2014-05-03T14:35:09Z</time>
      </trkpt>
      <trkpt lat="39.497629397388" lon="3.020950334745">
        <ele>121.2</ele>
        <time>2014-05-03T14:35:13Z</time>
      </trkpt>
      <trkpt lat="39.497704499212" lon="3.020892834911">
        <ele>121.2</ele>
        <time>2014-05-03T14:35:14Z</time>
      </trkpt>
      <trkpt lat="39.498076152658" lon="3.020598881678">
        <ele>121.2</ele>
        <time>2014-05-03T14:35:19Z</time>
      </trkpt>
      <trkpt lat="39.49822518284" lon="3.020489414064">
        <ele>121.2</ele>
        <time>2014-05-03T14:35:21Z</time>
      </trkpt>
      <trkpt lat="39.498750476513" lon="3.020086999045">
        <ele>121.2</ele>
        <time>2014-05-03T14:35:28Z</time>
      </trkpt>
      <trkpt lat="39.498906379853" lon="3.019970742092">
        <ele>121.2</ele>
        <time>2014-05-03T14:35:30Z</time>
      </trkpt>
      <trkpt lat="39.499439133417" lon="3.019559777535">
        <ele>121.2</ele>
        <time>2014-05-03T14:35:37Z</time>
      </trkpt>
      <trkpt lat="39.49995185424" lon="3.019145544037">
        <ele>121.2</ele>
        <time>2014-05-03T14:35:44Z</time>
      </trkpt>
      <trkpt lat="39.500165676509" lon="3.018974637096">
        <ele>121.2</ele>
        <time>2014-05-03T14:35:47Z</time>
      </trkpt>
      <trkpt lat="39.500436495698" lon="3.018753941669">
        <ele>121.6</ele>
        <time>2014-05-03T14:35:51Z</time>
      </trkpt>
      <trkpt lat="39.500502042156" lon="3.018700465147">
        <ele>122</ele>
        <time>2014-05-03T14:35:52Z</time>
      </trkpt>
      <trkpt lat="39.50057043846" lon="3.018643719684">
        <ele>122.4</ele>
        <time>2014-05-03T14:35:53Z</time>
      </trkpt>
      <trkpt lat="39.500635984918" lon="3.018588315325">
        <ele>123</ele>
        <time>2014-05-03T14:35:54Z</time>
      </trkpt>
      <trkpt lat="39.500701363738" lon="3.018537185735">
        <ele>123.4</ele>
        <time>2014-05-03T14:35:55Z</time>
      </trkpt>
      <trkpt lat="39.500962962837" lon="3.018334595212">
        <ele>123.4</ele>
        <time>2014-05-03T14:35:59Z</time>
      </trkpt>
      <trkpt lat="39.501467972312" lon="3.017921199904">
        <ele>123.4</ele>
        <time>2014-05-03T14:36:07Z</time>
      </trkpt>
      <trkpt lat="39.501652374112" lon="3.017769990428">
        <ele>123.8</ele>
        <time>2014-05-03T14:36:10Z</time>
      </trkpt>
      <trkpt lat="39.50171372962" lon="3.017715256621">
        <ele>124.6</ele>
        <time>2014-05-03T14:36:11Z</time>
      </trkpt>
      <trkpt lat="39.50177659387" lon="3.017662785927">
        <ele>125</ele>
        <time>2014-05-03T14:36:12Z</time>
      </trkpt>
      <trkpt lat="39.501840380129" lon="3.017613332717">
        <ele>125.4</ele>
        <time>2014-05-03T14:36:13Z</time>
      </trkpt>
      <trkpt lat="39.501976837461" lon="3.017510402985">
        <ele>125.4</ele>
        <time>2014-05-03T14:36:15Z</time>
      </trkpt>
      <trkpt lat="39.502504729523" lon="3.017095415116">
        <ele>125.4</ele>
        <time>2014-05-03T14:36:23Z</time>
      </trkpt>
      <trkpt lat="39.502992639922" lon="3.016722169109">
        <ele>125.4</ele>
        <time>2014-05-03T14:36:30Z</time>
      </trkpt>
      <trkpt lat="39.503073022343" lon="3.016685791663">
        <ele>125.4</ele>
        <time>2014-05-03T14:36:31Z</time>
      </trkpt>
      <trkpt lat="39.503318360556" lon="3.016662657619">
        <ele>125.4</ele>
        <time>2014-05-03T14:36:34Z</time>
      </trkpt>
      <trkpt lat="39.503573002678" lon="3.016669363139">
        <ele>125.8</ele>
        <time>2014-05-03T14:36:37Z</time>
      </trkpt>
      <trkpt lat="39.503657576049" lon="3.01666927932">
        <ele>126.2</ele>
        <time>2014-05-03T14:36:38Z</time>
      </trkpt>
      <trkpt lat="39.503744831628" lon="3.016670871881">
        <ele>126.6</ele>
        <time>2014-05-03T14:36:39Z</time>
      </trkpt>
      <trkpt lat="39.503826136058" lon="3.01667263208">
        <ele>127</ele>
        <time>2014-05-03T14:36:40Z</time>
      </trkpt>
      <trkpt lat="39.503907775764" lon="3.016673051175">
        <ele>127.4</ele>
        <time>2014-05-03T14:36:41Z</time>
      </trkpt>
      <trkpt lat="39.503989080194" lon="3.016675062831">
        <ele>127.4</ele>
        <time>2014-05-03T14:36:42Z</time>
      </trkpt>
      <trkpt lat="39.50454178268" lon="3.016680678704">
        <ele>128</ele>
        <time>2014-05-03T14:36:49Z</time>
      </trkpt>
      <trkpt lat="39.504620153445" lon="3.016679505238">
        <ele>128.4</ele>
        <time>2014-05-03T14:36:50Z</time>
      </trkpt>
      <trkpt lat="39.504698105115" lon="3.016678918505">
        <ele>128.8</ele>
        <time>2014-05-03T14:36:51Z</time>
      </trkpt>
      <trkpt lat="39.504779325726" lon="3.016680594885">
        <ele>129.2</ele>
        <time>2014-05-03T14:36:52Z</time>
      </trkpt>
      <trkpt lat="39.504860127242" lon="3.016679253781">
        <ele>129.8</ele>
        <time>2014-05-03T14:36:53Z</time>
      </trkpt>
      <trkpt lat="39.505206215893" lon="3.016684702016">
        <ele>129.8</ele>
        <time>2014-05-03T14:36:57Z</time>
      </trkpt>
      <trkpt lat="39.505748357185" lon="3.016681516894">
        <ele>129.8</ele>
        <time>2014-05-03T14:37:03Z</time>
      </trkpt>
      <trkpt lat="39.505842485922" lon="3.01668017579">
        <ele>129.8</ele>
        <time>2014-05-03T14:37:04Z</time>
      </trkpt>
      <trkpt lat="39.506413712407" lon="3.016638433928">
        <ele>129.8</ele>
        <time>2014-05-03T14:37:10Z</time>
      </trkpt>
      <trkpt lat="39.506980496485" lon="3.016553776738">
        <ele>129.8</ele>
        <time>2014-05-03T14:37:16Z</time>
      </trkpt>
      <trkpt lat="39.507267492741" lon="3.016496444542">
        <ele>129.8</ele>
        <time>2014-05-03T14:37:19Z</time>
      </trkpt>
      <trkpt lat="39.507832265163" lon="3.0163775892">
        <ele>129.8</ele>
        <time>2014-05-03T14:37:25Z</time>
      </trkpt>
      <trkpt lat="39.508021193189" lon="3.016341127935">
        <ele>129.8</ele>
        <time>2014-05-03T14:37:27Z</time>
      </trkpt>
      <trkpt lat="39.508302908848" lon="3.016282119359">
        <ele>129.8</ele>
        <time>2014-05-03T14:37:30Z</time>
      </trkpt>
      <trkpt lat="39.508879164473" lon="3.016160917085">
        <ele>129.8</ele>
        <time>2014-05-03T14:37:36Z</time>
      </trkpt>
      <trkpt lat="39.509449301311" lon="3.016074332058">
        <ele>129.8</ele>
        <time>2014-05-03T14:37:42Z</time>
      </trkpt>
      <trkpt lat="39.509540664021" lon="3.016064692873">
        <ele>129.8</ele>
        <time>2014-05-03T14:37:43Z</time>
      </trkpt>
      <trkpt lat="39.510007116756" lon="3.016012557455">
        <ele>129.8</ele>
        <time>2014-05-03T14:37:48Z</time>
      </trkpt>
      <trkpt lat="39.510560238337" lon="3.015961511684">
        <ele>129.8</ele>
        <time>2014-05-03T14:37:54Z</time>
      </trkpt>
      <trkpt lat="39.511014369679" lon="3.015930666292">
        <ele>129.8</ele>
        <time>2014-05-03T14:37:59Z</time>
      </trkpt>
      <trkpt lat="39.511611328597" lon="3.01587886615">
        <ele>129.8</ele>
        <time>2014-05-03T14:38:06Z</time>
      </trkpt>
      <trkpt lat="39.511849793652" lon="3.015892444828">
        <ele>129.8</ele>
        <time>2014-05-03T14:38:09Z</time>
      </trkpt>
      <trkpt lat="39.512027573751" lon="3.015950615214">
        <ele>129.8</ele>
        <time>2014-05-03T14:38:11Z</time>
      </trkpt>
      <trkpt lat="39.512114494054" lon="3.015965618815">
        <ele>129.8</ele>
        <time>2014-05-03T14:38:12Z</time>
      </trkpt>
      <trkpt lat="39.512276683819" lon="3.01591826108">
        <ele>129.8</ele>
        <time>2014-05-03T14:38:14Z</time>
      </trkpt>
      <trkpt lat="39.512430491684" lon="3.015882638005">
        <ele>129.8</ele>
        <time>2014-05-03T14:38:16Z</time>
      </trkpt>
      <trkpt lat="39.512514394503" lon="3.015879871978">
        <ele>129.8</ele>
        <time>2014-05-03T14:38:17Z</time>
      </trkpt>
      <trkpt lat="39.512600895711" lon="3.015887667145">
        <ele>129.8</ele>
        <time>2014-05-03T14:38:18Z</time>
      </trkpt>
      <trkpt lat="39.51278119038" lon="3.015890768448">
        <ele>129.8</ele>
        <time>2014-05-03T14:38:20Z</time>
      </trkpt>
      <trkpt lat="39.513122668986" lon="3.015898731253">
        <ele>129.8</ele>
        <time>2014-05-03T14:38:24Z</time>
      </trkpt>
      <trkpt lat="39.513751395305" lon="3.015939551106">
        <ele>129.8</ele>
        <time>2014-05-03T14:38:31Z</time>
      </trkpt>
      <trkpt lat="39.513938814589" lon="3.015944831703">
        <ele>129.8</ele>
        <time>2014-05-03T14:38:33Z</time>
      </trkpt>
      <trkpt lat="39.514488415772" lon="3.015879788159">
        <ele>129.8</ele>
        <time>2014-05-03T14:38:39Z</time>
      </trkpt>
      <trkpt lat="39.515039190421" lon="3.015715335281">
        <ele>129.8</ele>
        <time>2014-05-03T14:38:45Z</time>
      </trkpt>
      <trkpt lat="39.515210684095" lon="3.015654398868">
        <ele>129.8</ele>
        <time>2014-05-03T14:38:47Z</time>
      </trkpt>
      <trkpt lat="39.515301543891" lon="3.015618272879">
        <ele>130.2</ele>
        <time>2014-05-03T14:38:48Z</time>
      </trkpt>
      <trkpt lat="39.515388631832" lon="3.015588936229">
        <ele>130.6</ele>
        <time>2014-05-03T14:38:49Z</time>
      </trkpt>
      <trkpt lat="39.515476390325" lon="3.015562533244">
        <ele>131</ele>
        <time>2014-05-03T14:38:50Z</time>
      </trkpt>
      <trkpt lat="39.515563729723" lon="3.015537974277">
        <ele>131.6</ele>
        <time>2014-05-03T14:38:51Z</time>
      </trkpt>
      <trkpt lat="39.515650230931" lon="3.015519450278">
        <ele>132</ele>
        <time>2014-05-03T14:38:52Z</time>
      </trkpt>
      <trkpt lat="39.515735893949" lon="3.015505703962">
        <ele>132</ele>
        <time>2014-05-03T14:38:53Z</time>
      </trkpt>
      <trkpt lat="39.515901268836" lon="3.015485838859">
        <ele>132.4</ele>
        <time>2014-05-03T14:38:55Z</time>
      </trkpt>
      <trkpt lat="39.515983327637" lon="3.015483994841">
        <ele>132.8</ele>
        <time>2014-05-03T14:38:56Z</time>
      </trkpt>
      <trkpt lat="39.516060022022" lon="3.015483994841">
        <ele>133.2</ele>
        <time>2014-05-03T14:38:57Z</time>
      </trkpt>
      <trkpt lat="39.516134704751" lon="3.015484665393">
        <ele>133.6</ele>
        <time>2014-05-03T14:38:58Z</time>
      </trkpt>
      <trkpt lat="39.516207459643" lon="3.015486341773">
        <ele>134.2</ele>
        <time>2014-05-03T14:38:59Z</time>
      </trkpt>
      <trkpt lat="39.516280968906" lon="3.015488101972">
        <ele>134.6</ele>
        <time>2014-05-03T14:39:00Z</time>
      </trkpt>
      <trkpt lat="39.516357495653" lon="3.015493801664">
        <ele>135</ele>
        <time>2014-05-03T14:39:01Z</time>
      </trkpt>
      <trkpt lat="39.516435112047" lon="3.015501261555">
        <ele>135.6</ele>
        <time>2014-05-03T14:39:02Z</time>
      </trkpt>
      <trkpt lat="39.516513398993" lon="3.01550754798">
        <ele>136</ele>
        <time>2014-05-03T14:39:03Z</time>
      </trkpt>
      <trkpt lat="39.516771142418" lon="3.015532442223">
        <ele>136</ele>
        <time>2014-05-03T14:39:06Z</time>
      </trkpt>
      <trkpt lat="39.517337339763" lon="3.015591199342">
        <ele>136</ele>
        <time>2014-05-03T14:39:12Z</time>
      </trkpt>
      <trkpt lat="39.517957432725" lon="3.01565171666">
        <ele>136</ele>
        <time>2014-05-03T14:39:18Z</time>
      </trkpt>
      <trkpt lat="39.518069666366" lon="3.015660769112">
        <ele>136</ele>
        <time>2014-05-03T14:39:19Z</time>
      </trkpt>
      <trkpt lat="39.518180726541" lon="3.015674180152">
        <ele>135.6</ele>
        <time>2014-05-03T14:39:20Z</time>
      </trkpt>
      <trkpt lat="39.518286925214" lon="3.01568021512">
        <ele>135.2</ele>
        <time>2014-05-03T14:39:21Z</time>
      </trkpt>
      <trkpt lat="39.518394381172" lon="3.015688261744">
        <ele>134.8</ele>
        <time>2014-05-03T14:39:22Z</time>
      </trkpt>
      <trkpt lat="39.518506447175" lon="3.015695470178">
        <ele>134.2</ele>
        <time>2014-05-03T14:39:23Z</time>
      </trkpt>
      <trkpt lat="39.518617339712" lon="3.01570116987">
        <ele>133.8</ele>
        <time>2014-05-03T14:39:24Z</time>
      </trkpt>
      <trkpt lat="39.519063340611" lon="3.01568356788">
        <ele>133.4</ele>
        <time>2014-05-03T14:39:28Z</time>
      </trkpt>
      <trkpt lat="39.519170126017" lon="3.015654398868">
        <ele>132.8</ele>
        <time>2014-05-03T14:39:29Z</time>
      </trkpt>
      <trkpt lat="39.519273558663" lon="3.015622296191">
        <ele>132.4</ele>
        <time>2014-05-03T14:39:30Z</time>
      </trkpt>
      <trkpt lat="39.519378080956" lon="3.015582901261">
        <ele>132</ele>
        <time>2014-05-03T14:39:31Z</time>
      </trkpt>
      <trkpt lat="39.519480507774" lon="3.015543254874">
        <ele>131.4</ele>
        <time>2014-05-03T14:39:32Z</time>
      </trkpt>
      <trkpt lat="39.519682260107" lon="3.015464967928">
        <ele>131.4</ele>
        <time>2014-05-03T14:39:34Z</time>
      </trkpt>
      <trkpt lat="39.520282739423" lon="3.015265981622">
        <ele>131.4</ele>
        <time>2014-05-03T14:39:40Z</time>
      </trkpt>
      <trkpt lat="39.520734942928" lon="3.01511024592">
        <ele>131.4</ele>
        <time>2014-05-03T14:39:45Z</time>
      </trkpt>
      <trkpt lat="39.520909537905" lon="3.015047968403">
        <ele>131.4</ele>
        <time>2014-05-03T14:39:47Z</time>
      </trkpt>
      <trkpt lat="39.521085557805" lon="3.014983427773">
        <ele>131.8</ele>
        <time>2014-05-03T14:39:49Z</time>
      </trkpt>
      <trkpt lat="39.521171639918" lon="3.014950654544">
        <ele>132.4</ele>
        <time>2014-05-03T14:39:50Z</time>
      </trkpt>
      <trkpt lat="39.521261829162" lon="3.014917881315">
        <ele>132.8</ele>
        <time>2014-05-03T14:39:51Z</time>
      </trkpt>
      <trkpt lat="39.521347659818" lon="3.014887035923">
        <ele>133.2</ele>
        <time>2014-05-03T14:39:52Z</time>
      </trkpt>
      <trkpt lat="39.521434161026" lon="3.014855184703">
        <ele>133.8</ele>
        <time>2014-05-03T14:39:53Z</time>
      </trkpt>
      <trkpt lat="39.521695424849" lon="3.014752925523">
        <ele>133.8</ele>
        <time>2014-05-03T14:39:56Z</time>
      </trkpt>
      <trkpt lat="39.521783602437" lon="3.014715793706">
        <ele>134.2</ele>
        <time>2014-05-03T14:39:57Z</time>
      </trkpt>
      <trkpt lat="39.521877312079" lon="3.014674638577">
        <ele>134.6</ele>
        <time>2014-05-03T14:39:58Z</time>
      </trkpt>
      <trkpt lat="39.521966998409" lon="3.014632896715">
        <ele>135</ele>
        <time>2014-05-03T14:39:59Z</time>
      </trkpt>
      <trkpt lat="39.522059031671" lon="3.014587969731">
        <ele>135.4</ele>
        <time>2014-05-03T14:40:00Z</time>
      </trkpt>
      <trkpt lat="39.52214964001" lon="3.014540444358">
        <ele>135.8</ele>
        <time>2014-05-03T14:40:01Z</time>
      </trkpt>
      <trkpt lat="39.522334712362" lon="3.014442040852">
        <ele>135.8</ele>
        <time>2014-05-03T14:40:03Z</time>
      </trkpt>
      <trkpt lat="39.522778114872" lon="3.014156050424">
        <ele>135.8</ele>
        <time>2014-05-03T14:40:07Z</time>
      </trkpt>
      <trkpt lat="39.522869142306" lon="3.014097628581">
        <ele>135.8</ele>
        <time>2014-05-03T14:40:09Z</time>
      </trkpt>
      <trkpt lat="39.523390915581" lon="3.01371968871">
        <ele>135.8</ele>
        <time>2014-05-03T14:40:15Z</time>
      </trkpt>
      <trkpt lat="39.523472806744" lon="3.01366269179">
        <ele>135.8</ele>
        <time>2014-05-03T14:40:16Z</time>
      </trkpt>
      <trkpt lat="39.523984270282" lon="3.013344431047">
        <ele>135.8</ele>
        <time>2014-05-03T14:40:22Z</time>
      </trkpt>
      <trkpt lat="39.524067754006" lon="3.013305790488">
        <ele>135.8</ele>
        <time>2014-05-03T14:40:23Z</time>
      </trkpt>
      <trkpt lat="39.524473605604" lon="3.013212416122">
        <ele>136.2</ele>
        <time>2014-05-03T14:40:28Z</time>
      </trkpt>
      <trkpt lat="39.524560442088" lon="3.013210991199">
        <ele>136.6</ele>
        <time>2014-05-03T14:40:29Z</time>
      </trkpt>
      <trkpt lat="39.524645015459" lon="3.013220546565">
        <ele>137</ele>
        <time>2014-05-03T14:40:30Z</time>
      </trkpt>
      <trkpt lat="39.524730175563" lon="3.013236304537">
        <ele>137.4</ele>
        <time>2014-05-03T14:40:31Z</time>
      </trkpt>
      <trkpt lat="39.524812904916" lon="3.013259773857">
        <ele>137.8</ele>
        <time>2014-05-03T14:40:32Z</time>
      </trkpt>
      <trkpt lat="39.525144409061" lon="3.013306963954">
        <ele>137.8</ele>
        <time>2014-05-03T14:40:36Z</time>
      </trkpt>
      <trkpt lat="39.525228647156" lon="3.013281231521">
        <ele>137.8</ele>
        <time>2014-05-03T14:40:37Z</time>
      </trkpt>
      <trkpt lat="39.525466274021" lon="3.013223815506">
        <ele>138.4</ele>
        <time>2014-05-03T14:40:40Z</time>
      </trkpt>
      <trkpt lat="39.525547746089" lon="3.013220881841">
        <ele>139.4</ele>
        <time>2014-05-03T14:40:41Z</time>
      </trkpt>
      <trkpt lat="39.525630056347" lon="3.013231694492">
        <ele>139.8</ele>
        <time>2014-05-03T14:40:42Z</time>
      </trkpt>
      <trkpt lat="39.525712618062" lon="3.013243680609">
        <ele>140.4</ele>
        <time>2014-05-03T14:40:43Z</time>
      </trkpt>
      <trkpt lat="39.526214442415" lon="3.013278214037">
        <ele>140.4</ele>
        <time>2014-05-03T14:40:49Z</time>
      </trkpt>
      <trkpt lat="39.526843587829" lon="3.013262120789">
        <ele>140.4</ele>
        <time>2014-05-03T14:40:56Z</time>
      </trkpt>
      <trkpt lat="39.52715363431" lon="3.013241333677">
        <ele>139.8</ele>
        <time>2014-05-03T14:40:59Z</time>
      </trkpt>
      <trkpt lat="39.527266538503" lon="3.013233287053">
        <ele>139.2</ele>
        <time>2014-05-03T14:41:00Z</time>
      </trkpt>
      <trkpt lat="39.527374832651" lon="3.01322348023">
        <ele>138.8</ele>
        <time>2014-05-03T14:41:01Z</time>
      </trkpt>
      <trkpt lat="39.527486144283" lon="3.013219959832">
        <ele>138.2</ele>
        <time>2014-05-03T14:41:02Z</time>
      </trkpt>
      <trkpt lat="39.527596030992" lon="3.013216607072">
        <ele>137.8</ele>
        <time>2014-05-03T14:41:03Z</time>
      </trkpt>
      <trkpt lat="39.527707929357" lon="3.013210739742">
        <ele>137.2</ele>
        <time>2014-05-03T14:41:04Z</time>
      </trkpt>
      <trkpt lat="39.527820414455" lon="3.013203531308">
        <ele>136.6</ele>
        <time>2014-05-03T14:41:05Z</time>
      </trkpt>
      <trkpt lat="39.527934156838" lon="3.013197077245">
        <ele>135.6</ele>
        <time>2014-05-03T14:41:06Z</time>
      </trkpt>
      <trkpt lat="39.528507897893" lon="3.013152904632">
        <ele>135.6</ele>
        <time>2014-05-03T14:41:11Z</time>
      </trkpt>
      <trkpt lat="39.529064875148" lon="3.013121472507">
        <ele>135.6</ele>
        <time>2014-05-03T14:41:16Z</time>
      </trkpt>
      <trkpt lat="39.529389506135" lon="3.013104960164">
        <ele>135.6</ele>
        <time>2014-05-03T14:41:19Z</time>
      </trkpt>
      <trkpt lat="39.530023764508" lon="3.013062212474">
        <ele>135.6</ele>
        <time>2014-05-03T14:41:25Z</time>
      </trkpt>
      <trkpt lat="39.530226103574" lon="3.013048969072">
        <ele>135.6</ele>
        <time>2014-05-03T14:41:27Z</time>
      </trkpt>
      <trkpt lat="39.530815434963" lon="3.013037318231">
        <ele>136</ele>
        <time>2014-05-03T14:41:33Z</time>
      </trkpt>
      <trkpt lat="39.530908138777" lon="3.013048047063">
        <ele>136.4</ele>
        <time>2014-05-03T14:41:34Z</time>
      </trkpt>
      <trkpt lat="39.530998914754" lon="3.013060536094">
        <ele>136.8</ele>
        <time>2014-05-03T14:41:35Z</time>
      </trkpt>
      <trkpt lat="39.531087092342" lon="3.013073528039">
        <ele>137.2</ele>
        <time>2014-05-03T14:41:36Z</time>
      </trkpt>
      <trkpt lat="39.531173928826" lon="3.01309104621">
        <ele>137.6</ele>
        <time>2014-05-03T14:41:37Z</time>
      </trkpt>
      <trkpt lat="39.531256155265" lon="3.013109737847">
        <ele>138.2</ele>
        <time>2014-05-03T14:41:38Z</time>
      </trkpt>
      <trkpt lat="39.531339890446" lon="3.013134967366">
        <ele>138.6</ele>
        <time>2014-05-03T14:41:39Z</time>
      </trkpt>
      <trkpt lat="39.531414573175" lon="3.013157598496">
        <ele>139</ele>
        <time>2014-05-03T14:41:40Z</time>
      </trkpt>
      <trkpt lat="39.531487160429" lon="3.013182576558">
        <ele>139.4</ele>
        <time>2014-05-03T14:41:41Z</time>
      </trkpt>
      <trkpt lat="39.531559412407" lon="3.013209398638">
        <ele>139.8</ele>
        <time>2014-05-03T14:41:42Z</time>
      </trkpt>
      <trkpt lat="39.531700479784" lon="3.013263964807">
        <ele>140.4</ele>
        <time>2014-05-03T14:41:44Z</time>
      </trkpt>
      <trkpt lat="39.531768037898" lon="3.013297660045">
        <ele>140.8</ele>
        <time>2014-05-03T14:41:45Z</time>
      </trkpt>
      <trkpt lat="39.531836685659" lon="3.013336132966">
        <ele>141.2</ele>
        <time>2014-05-03T14:41:46Z</time>
      </trkpt>
      <trkpt lat="39.531900974832" lon="3.013375276439">
        <ele>141.8</ele>
        <time>2014-05-03T14:41:47Z</time>
      </trkpt>
      <trkpt lat="39.531965347824" lon="3.013410815695">
        <ele>142.2</ele>
        <time>2014-05-03T14:41:48Z</time>
      </trkpt>
      <trkpt lat="39.532377904942" lon="3.013689597689">
        <ele>143</ele>
        <time>2014-05-03T14:41:55Z</time>
      </trkpt>
      <trkpt lat="39.532431046188" lon="3.01373477613">
        <ele>143.4</ele>
        <time>2014-05-03T14:41:56Z</time>
      </trkpt>
      <trkpt lat="39.532483013968" lon="3.013779032562">
        <ele>144</ele>
        <time>2014-05-03T14:41:57Z</time>
      </trkpt>
      <trkpt lat="39.53253313773" lon="3.013822534623">
        <ele>144.4</ele>
        <time>2014-05-03T14:41:58Z</time>
      </trkpt>
      <trkpt lat="39.532866234436" lon="3.014118248055">
        <ele>144.8</ele>
        <time>2014-05-03T14:42:05Z</time>
      </trkpt>
      <trkpt lat="39.532912921619" lon="3.014156972433">
        <ele>145.2</ele>
        <time>2014-05-03T14:42:06Z</time>
      </trkpt>
      <trkpt lat="39.532959608802" lon="3.014194355707">
        <ele>145.6</ele>
        <time>2014-05-03T14:42:07Z</time>
      </trkpt>
      <trkpt lat="39.533004032872" lon="3.014231906619">
        <ele>146</ele>
        <time>2014-05-03T14:42:08Z</time>
      </trkpt>
      <trkpt lat="39.533049798046" lon="3.014271133911">
        <ele>146.4</ele>
        <time>2014-05-03T14:42:09Z</time>
      </trkpt>
      <trkpt lat="39.53313160539" lon="3.01434162569">
        <ele>146.4</ele>
        <time>2014-05-03T14:42:11Z</time>
      </trkpt>
      <trkpt lat="39.53321039525" lon="3.014417984799">
        <ele>146.4</ele>
        <time>2014-05-03T14:42:13Z</time>
      </trkpt>
      <trkpt lat="39.533378200888" lon="3.014560058004">
        <ele>146.8</ele>
        <time>2014-05-03T14:42:17Z</time>
      </trkpt>
      <trkpt lat="39.533420948578" lon="3.014593250328">
        <ele>147.2</ele>
        <time>2014-05-03T14:42:18Z</time>
      </trkpt>
      <trkpt lat="39.533461265517" lon="3.014632226163">
        <ele>147.6</ele>
        <time>2014-05-03T14:42:19Z</time>
      </trkpt>
      <trkpt lat="39.533501750094" lon="3.014671621093">
        <ele>148.4</ele>
        <time>2014-05-03T14:42:20Z</time>
      </trkpt>
      <trkpt lat="39.533541396481" lon="3.014705064874">
        <ele>148.4</ele>
        <time>2014-05-03T14:42:21Z</time>
      </trkpt>
      <trkpt lat="39.533698976201" lon="3.014848060088">
        <ele>148.8</ele>
        <time>2014-05-03T14:42:25Z</time>
      </trkpt>
      <trkpt lat="39.533735605104" lon="3.014883766982">
        <ele>149.2</ele>
        <time>2014-05-03T14:42:26Z</time>
      </trkpt>
      <trkpt lat="39.533771228179" lon="3.014909834691">
        <ele>149.6</ele>
        <time>2014-05-03T14:42:27Z</time>
      </trkpt>
      <trkpt lat="39.533806180702" lon="3.014936656771">
        <ele>150</ele>
        <time>2014-05-03T14:42:28Z</time>
      </trkpt>
      <trkpt lat="39.533846665279" lon="3.01496691543">
        <ele>150.6</ele>
        <time>2014-05-03T14:42:29Z</time>
      </trkpt>
      <trkpt lat="39.533963173689" lon="3.015056769398">
        <ele>150.6</ele>
        <time>2014-05-03T14:42:32Z</time>
      </trkpt>
      <trkpt lat="39.534088650732" lon="3.015136816543">
        <ele>151</ele>
        <time>2014-05-03T14:42:35Z</time>
      </trkpt>
      <trkpt lat="39.534130560232" lon="3.015163303347">
        <ele>151.4</ele>
        <time>2014-05-03T14:42:36Z</time>
      </trkpt>
      <trkpt lat="39.534172218275" lon="3.01518568302">
        <ele>151.8</ele>
        <time>2014-05-03T14:42:37Z</time>
      </trkpt>
      <trkpt lat="39.534216893802" lon="3.015203620286">
        <ele>152.2</ele>
        <time>2014-05-03T14:42:38Z</time>
      </trkpt>
      <trkpt lat="39.534261317872" lon="3.015222731018">
        <ele>152.6</ele>
        <time>2014-05-03T14:42:39Z</time>
      </trkpt>
      <trkpt lat="39.534433985012" lon="3.015297329928">
        <ele>152.6</ele>
        <time>2014-05-03T14:42:43Z</time>
      </trkpt>
      <trkpt lat="39.534512020501" lon="3.01532733713">
        <ele>152.6</ele>
        <time>2014-05-03T14:42:45Z</time>
      </trkpt>
      <trkpt lat="39.534554097639" lon="3.015343011283">
        <ele>153</ele>
        <time>2014-05-03T14:42:46Z</time>
      </trkpt>
      <trkpt lat="39.534596510053" lon="3.015355500314">
        <ele>153.4</ele>
        <time>2014-05-03T14:42:47Z</time>
      </trkpt>
      <trkpt lat="39.534639006286" lon="3.015368156983">
        <ele>153.8</ele>
        <time>2014-05-03T14:42:48Z</time>
      </trkpt>
      <trkpt lat="39.534681586338" lon="3.015377460892">
        <ele>154.2</ele>
        <time>2014-05-03T14:42:49Z</time>
      </trkpt>
      <trkpt lat="39.534724920761" lon="3.015386345706">
        <ele>154.6</ele>
        <time>2014-05-03T14:42:50Z</time>
      </trkpt>
      <trkpt lat="39.53497813796" lon="3.015425740636">
        <ele>155</ele>
        <time>2014-05-03T14:42:56Z</time>
      </trkpt>
      <trkpt lat="39.535020801831" lon="3.015430602138">
        <ele>155.4</ele>
        <time>2014-05-03T14:42:57Z</time>
      </trkpt>
      <trkpt lat="39.535064303892" lon="3.015435212183">
        <ele>155.8</ele>
        <time>2014-05-03T14:42:58Z</time>
      </trkpt>
      <trkpt lat="39.535105961935" lon="3.015439151676">
        <ele>156.2</ele>
        <time>2014-05-03T14:42:59Z</time>
      </trkpt>
      <trkpt lat="39.53514745234" lon="3.015443091169">
        <ele>156.8</ele>
        <time>2014-05-03T14:43:00Z</time>
      </trkpt>
      <trkpt lat="39.535363956817" lon="3.015429680129">
        <ele>157.2</ele>
        <time>2014-05-03T14:43:05Z</time>
      </trkpt>
      <trkpt lat="39.535405950136" lon="3.015428925758">
        <ele>157.6</ele>
        <time>2014-05-03T14:43:06Z</time>
      </trkpt>
      <trkpt lat="39.53544668617" lon="3.015428339025">
        <ele>158</ele>
        <time>2014-05-03T14:43:07Z</time>
      </trkpt>
      <trkpt lat="39.53548105196" lon="3.015424315713">
        <ele>158.4</ele>
        <time>2014-05-03T14:43:08Z</time>
      </trkpt>
      <trkpt lat="39.535520614528" lon="3.015416017632">
        <ele>158.8</ele>
        <time>2014-05-03T14:43:09Z</time>
      </trkpt>
      <trkpt lat="39.53564617539" lon="3.015393302683">
        <ele>158.8</ele>
        <time>2014-05-03T14:43:12Z</time>
      </trkpt>
      <trkpt lat="39.535732928055" lon="3.015371845019">
        <ele>159.2</ele>
        <time>2014-05-03T14:43:14Z</time>
      </trkpt>
      <trkpt lat="39.53577441846" lon="3.015360110359">
        <ele>159.8</ele>
        <time>2014-05-03T14:43:15Z</time>
      </trkpt>
      <trkpt lat="39.535820099815" lon="3.015353237201">
        <ele>160.2</ele>
        <time>2014-05-03T14:43:16Z</time>
      </trkpt>
      <trkpt lat="39.535865864989" lon="3.015340999627">
        <ele>160.6</ele>
        <time>2014-05-03T14:43:17Z</time>
      </trkpt>
      <trkpt lat="39.535911797801" lon="3.015326163664">
        <ele>161</ele>
        <time>2014-05-03T14:43:18Z</time>
      </trkpt>
      <trkpt lat="39.535954713129" lon="3.01531476428">
        <ele>161</ele>
        <time>2014-05-03T14:43:19Z</time>
      </trkpt>
      <trkpt lat="39.536227376336" lon="3.015226502873">
        <ele>161.4</ele>
        <time>2014-05-03T14:43:25Z</time>
      </trkpt>
      <trkpt lat="39.536269453474" lon="3.015207392141">
        <ele>161.8</ele>
        <time>2014-05-03T14:43:26Z</time>
      </trkpt>
      <trkpt lat="39.53630415454" lon="3.015192891454">
        <ele>162.2</ele>
        <time>2014-05-03T14:43:27Z</time>
      </trkpt>
      <trkpt lat="39.536340951081" lon="3.015177133482">
        <ele>162.6</ele>
        <time>2014-05-03T14:43:28Z</time>
      </trkpt>
      <trkpt lat="39.536379926916" lon="3.015158609483">
        <ele>163.2</ele>
        <time>2014-05-03T14:43:29Z</time>
      </trkpt>
      <trkpt lat="39.536499033715" lon="3.015095242319">
        <ele>163.2</ele>
        <time>2014-05-03T14:43:32Z</time>
      </trkpt>
      <trkpt lat="39.536582349801" lon="3.015043945091">
        <ele>164</ele>
        <time>2014-05-03T14:43:34Z</time>
      </trkpt>
      <trkpt lat="39.536622834378" lon="3.015019218486">
        <ele>164.4</ele>
        <time>2014-05-03T14:43:35Z</time>
      </trkpt>
      <trkpt lat="39.536661894032" lon="3.014991642035">
        <ele>164.8</ele>
        <time>2014-05-03T14:43:36Z</time>
      </trkpt>
      <trkpt lat="39.536700953686" lon="3.014964568498">
        <ele>165.2</ele>
        <time>2014-05-03T14:43:37Z</time>
      </trkpt>
      <trkpt lat="39.536890384626" lon="3.014819729266">
        <ele>165.2</ele>
        <time>2014-05-03T14:43:42Z</time>
      </trkpt>
      <trkpt lat="39.536966240821" lon="3.014751249143">
        <ele>165.6</ele>
        <time>2014-05-03T14:43:44Z</time>
      </trkpt>
      <trkpt lat="39.537005468113" lon="3.014717050991">
        <ele>166</ele>
        <time>2014-05-03T14:43:45Z</time>
      </trkpt>
      <trkpt lat="39.537045282138" lon="3.014685954142">
        <ele>166.4</ele>
        <time>2014-05-03T14:43:46Z</time>
      </trkpt>
      <trkpt lat="39.537081575765" lon="3.014648822325">
        <ele>166.8</ele>
        <time>2014-05-03T14:43:47Z</time>
      </trkpt>
      <trkpt lat="39.53711971341" lon="3.014616049096">
        <ele>167.2</ele>
        <time>2014-05-03T14:43:48Z</time>
      </trkpt>
      <trkpt lat="39.537157767236" lon="3.014579755469">
        <ele>167.2</ele>
        <time>2014-05-03T14:43:49Z</time>
      </trkpt>
      <trkpt lat="39.537393633902" lon="3.014370794702">
        <ele>167.2</ele>
        <time>2014-05-03T14:43:55Z</time>
      </trkpt>
      <trkpt lat="39.537432693556" lon="3.014345062269">
        <ele>167.2</ele>
        <time>2014-05-03T14:43:56Z</time>
      </trkpt>
      <trkpt lat="39.537469573916" lon="3.014311953764">
        <ele>167.2</ele>
        <time>2014-05-03T14:43:57Z</time>
      </trkpt>
      <trkpt lat="39.537573593295" lon="3.01422679366">
        <ele>167.2</ele>
        <time>2014-05-03T14:44:01Z</time>
      </trkpt>
      <trkpt lat="39.537594799502" lon="3.014196954096">
        <ele>167.2</ele>
        <time>2014-05-03T14:44:02Z</time>
      </trkpt>
      <trkpt lat="39.537642241056" lon="3.014154290225">
        <ele>167.8</ele>
        <time>2014-05-03T14:44:04Z</time>
      </trkpt>
      <trkpt lat="39.537668392584" lon="3.01413291638">
        <ele>168.2</ele>
        <time>2014-05-03T14:44:05Z</time>
      </trkpt>
      <trkpt lat="39.537692280999" lon="3.014111710173">
        <ele>168.6</ele>
        <time>2014-05-03T14:44:06Z</time>
      </trkpt>
      <trkpt lat="39.537714995948" lon="3.014093437631">
        <ele>169</ele>
        <time>2014-05-03T14:44:07Z</time>
      </trkpt>
      <trkpt lat="39.538997594286" lon="3.01294352477">
        <ele>167.4</ele>
        <time>2014-05-03T14:44:44Z</time>
      </trkpt>
      <trkpt lat="39.539060877631" lon="3.012898011053">
        <ele>167.4</ele>
        <time>2014-05-03T14:44:45Z</time>
      </trkpt>
      <trkpt lat="39.53931158026" lon="3.012732803804">
        <ele>167.4</ele>
        <time>2014-05-03T14:44:49Z</time>
      </trkpt>
      <trkpt lat="39.539379222193" lon="3.012695085254">
        <ele>167.4</ele>
        <time>2014-05-03T14:44:50Z</time>
      </trkpt>
      <trkpt lat="39.539522217407" lon="3.01263255628">
        <ele>167</ele>
        <time>2014-05-03T14:44:52Z</time>
      </trkpt>
      <trkpt lat="39.53959069753" lon="3.012600285965">
        <ele>166.6</ele>
        <time>2014-05-03T14:44:53Z</time>
      </trkpt>
      <trkpt lat="39.539661021671" lon="3.01257304479">
        <ele>166.2</ele>
        <time>2014-05-03T14:44:54Z</time>
      </trkpt>
      <trkpt lat="39.539731848726" lon="3.012549240194">
        <ele>165.8</ele>
        <time>2014-05-03T14:44:55Z</time>
      </trkpt>
      <trkpt lat="39.539802172867" lon="3.012526273788">
        <ele>165.2</ele>
        <time>2014-05-03T14:44:56Z</time>
      </trkpt>
      <trkpt lat="39.540021275733" lon="3.012464750642">
        <ele>165.2</ele>
        <time>2014-05-03T14:44:59Z</time>
      </trkpt>
      <trkpt lat="39.540332244223" lon="3.012398533632">
        <ele>165.2</ele>
        <time>2014-05-03T14:45:03Z</time>
      </trkpt>
      <trkpt lat="39.540639859953" lon="3.012356624132">
        <ele>165.2</ele>
        <time>2014-05-03T14:45:07Z</time>
      </trkpt>
      <trkpt lat="39.540943368552" lon="3.012322761256">
        <ele>165.2</ele>
        <time>2014-05-03T14:45:11Z</time>
      </trkpt>
      <trkpt lat="39.541021739317" lon="3.012318067392">
        <ele>165.2</ele>
        <time>2014-05-03T14:45:12Z</time>
      </trkpt>
      <trkpt lat="39.541177977933" lon="3.012293005511">
        <ele>164.4</ele>
        <time>2014-05-03T14:45:14Z</time>
      </trkpt>
      <trkpt lat="39.541256097241" lon="3.012278253367">
        <ele>164</ele>
        <time>2014-05-03T14:45:15Z</time>
      </trkpt>
      <trkpt lat="39.541336982576" lon="3.012272553675">
        <ele>163.6</ele>
        <time>2014-05-03T14:45:16Z</time>
      </trkpt>
      <trkpt lat="39.541414431332" lon="3.0122620763">
        <ele>163.2</ele>
        <time>2014-05-03T14:45:17Z</time>
      </trkpt>
      <trkpt lat="39.54149171245" lon="3.012254448771">
        <ele>163.2</ele>
        <time>2014-05-03T14:45:18Z</time>
      </trkpt>
      <trkpt lat="39.54171970013" lon="3.01222519594">
        <ele>163.2</ele>
        <time>2014-05-03T14:45:21Z</time>
      </trkpt>
      <trkpt lat="39.542080038011" lon="3.01215897893">
        <ele>163.2</ele>
        <time>2014-05-03T14:45:26Z</time>
      </trkpt>
      <trkpt lat="39.542503491599" lon="3.01203995595">
        <ele>163.2</ele>
        <time>2014-05-03T14:45:32Z</time>
      </trkpt>
      <trkpt lat="39.543033562955" lon="3.011829654079">
        <ele>163.2</ele>
        <time>2014-05-03T14:45:40Z</time>
      </trkpt>
      <trkpt lat="39.54352097044" lon="3.011556739415">
        <ele>163.2</ele>
        <time>2014-05-03T14:45:48Z</time>
      </trkpt>
      <trkpt lat="39.543816600053" lon="3.011345766992">
        <ele>163.2</ele>
        <time>2014-05-03T14:45:53Z</time>
      </trkpt>
      <trkpt lat="39.543931515902" lon="3.011266641856">
        <ele>163.2</ele>
        <time>2014-05-03T14:45:55Z</time>
      </trkpt>
      <trkpt lat="39.544045342104" lon="3.011181062657">
        <ele>163.2</ele>
        <time>2014-05-03T14:45:57Z</time>
      </trkpt>
      <trkpt lat="39.54433150017" lon="3.010943351973">
        <ele>163.2</ele>
        <time>2014-05-03T14:46:02Z</time>
      </trkpt>
      <trkpt lat="39.544449601141" lon="3.01083799149">
        <ele>163.2</ele>
        <time>2014-05-03T14:46:04Z</time>
      </trkpt>
      <trkpt lat="39.544630566362" lon="3.010637747899">
        <ele>163.2</ele>
        <time>2014-05-03T14:46:07Z</time>
      </trkpt>
      <trkpt lat="39.544874395833" lon="3.010366844891">
        <ele>163.2</ele>
        <time>2014-05-03T14:46:11Z</time>
      </trkpt>
      <trkpt lat="39.545035747408" lon="3.010156291563">
        <ele>162.8</ele>
        <time>2014-05-03T14:46:14Z</time>
      </trkpt>
      <trkpt lat="39.545087799007" lon="3.010085967422">
        <ele>162.4</ele>
        <time>2014-05-03T14:46:15Z</time>
      </trkpt>
      <trkpt lat="39.545139096235" lon="3.010012122883">
        <ele>161.8</ele>
        <time>2014-05-03T14:46:16Z</time>
      </trkpt>
      <trkpt lat="39.545186789246" lon="3.009940373819">
        <ele>161.4</ele>
        <time>2014-05-03T14:46:17Z</time>
      </trkpt>
      <trkpt lat="39.545241439234" lon="3.009867283651">
        <ele>161</ele>
        <time>2014-05-03T14:46:18Z</time>
      </trkpt>
      <trkpt lat="39.545434977305" lon="3.009574503884">
        <ele>161</ele>
        <time>2014-05-03T14:46:22Z</time>
      </trkpt>
      <trkpt lat="39.545580822365" lon="3.009345594195">
        <ele>161</ele>
        <time>2014-05-03T14:46:25Z</time>
      </trkpt>
      <trkpt lat="39.545819455058" lon="3.008945861384">
        <ele>161</ele>
        <time>2014-05-03T14:46:30Z</time>
      </trkpt>
      <trkpt lat="39.546067475479" lon="3.008538501044">
        <ele>161</ele>
        <time>2014-05-03T14:46:35Z</time>
      </trkpt>
      <trkpt lat="39.546212063254" lon="3.008300287446">
        <ele>160.4</ele>
        <time>2014-05-03T14:46:38Z</time>
      </trkpt>
      <trkpt lat="39.546263444301" lon="3.008212864229">
        <ele>160</ele>
        <time>2014-05-03T14:46:39Z</time>
      </trkpt>
      <trkpt lat="39.546310634398" lon="3.008132565627">
        <ele>159.6</ele>
        <time>2014-05-03T14:46:40Z</time>
      </trkpt>
      <trkpt lat="39.546361931626" lon="3.00804514241">
        <ele>159</ele>
        <time>2014-05-03T14:46:41Z</time>
      </trkpt>
      <trkpt lat="39.546412223026" lon="3.00796802893">
        <ele>158.6</ele>
        <time>2014-05-03T14:46:42Z</time>
      </trkpt>
      <trkpt lat="39.546562007579" lon="3.007723948002">
        <ele>158.6</ele>
        <time>2014-05-03T14:46:45Z</time>
      </trkpt>
      <trkpt lat="39.54692905098" lon="3.007111147293">
        <ele>158.6</ele>
        <time>2014-05-03T14:46:52Z</time>
      </trkpt>
      <trkpt lat="39.547291484336" lon="3.006560288825">
        <ele>158.6</ele>
        <time>2014-05-03T14:46:58Z</time>
      </trkpt>
      <trkpt lat="39.547356024966" lon="3.006476637463">
        <ele>158.6</ele>
        <time>2014-05-03T14:46:59Z</time>
      </trkpt>
      <trkpt lat="39.547767408618" lon="3.005997192783">
        <ele>158.2</ele>
        <time>2014-05-03T14:47:05Z</time>
      </trkpt>
      <trkpt lat="39.547841169338" lon="3.005923348244">
        <ele>157.8</ele>
        <time>2014-05-03T14:47:06Z</time>
      </trkpt>
      <trkpt lat="39.547915265334" lon="3.00584740823">
        <ele>157.4</ele>
        <time>2014-05-03T14:47:07Z</time>
      </trkpt>
      <trkpt lat="39.547989948063" lon="3.00577113294">
        <ele>156.8</ele>
        <time>2014-05-03T14:47:08Z</time>
      </trkpt>
      <trkpt lat="39.548064379335" lon="3.005695276745">
        <ele>156.4</ele>
        <time>2014-05-03T14:47:09Z</time>
      </trkpt>
      <trkpt lat="39.548356320912" lon="3.005401574969">
        <ele>156.4</ele>
        <time>2014-05-03T14:47:13Z</time>
      </trkpt>
      <trkpt lat="39.548795867748" lon="3.004956579898">
        <ele>156.4</ele>
        <time>2014-05-03T14:47:19Z</time>
      </trkpt>
      <trkpt lat="39.549091078266" lon="3.004657346068">
        <ele>156.4</ele>
        <time>2014-05-03T14:47:23Z</time>
      </trkpt>
      <trkpt lat="39.549537917355" lon="3.004219894707">
        <ele>156.4</ele>
        <time>2014-05-03T14:47:29Z</time>
      </trkpt>
      <trkpt lat="39.549761797904" lon="3.003993751045">
        <ele>156.4</ele>
        <time>2014-05-03T14:47:32Z</time>
      </trkpt>
      <trkpt lat="39.550196064143" lon="3.003554790942">
        <ele>156.4</ele>
        <time>2014-05-03T14:47:38Z</time>
      </trkpt>
      <trkpt lat="39.550412149525" lon="3.003341890682">
        <ele>156.4</ele>
        <time>2014-05-03T14:47:41Z</time>
      </trkpt>
      <trkpt lat="39.550840632253" lon="3.002914162325">
        <ele>156.4</ele>
        <time>2014-05-03T14:47:47Z</time>
      </trkpt>
      <trkpt lat="39.551057304368" lon="3.002700256237">
        <ele>156</ele>
        <time>2014-05-03T14:47:50Z</time>
      </trkpt>
      <trkpt lat="39.551128801975" lon="3.00262959682">
        <ele>155.6</ele>
        <time>2014-05-03T14:47:51Z</time>
      </trkpt>
      <trkpt lat="39.551200383401" lon="3.002559356498">
        <ele>155.2</ele>
        <time>2014-05-03T14:47:52Z</time>
      </trkpt>
      <trkpt lat="39.55126836061" lon="3.002490624918">
        <ele>154.8</ele>
        <time>2014-05-03T14:47:53Z</time>
      </trkpt>
      <trkpt lat="39.551341869873" lon="3.002417283293">
        <ele>154.4</ele>
        <time>2014-05-03T14:47:54Z</time>
      </trkpt>
      <trkpt lat="39.551699944641" lon="3.00205962762">
        <ele>154.4</ele>
        <time>2014-05-03T14:47:59Z</time>
      </trkpt>
      <trkpt lat="39.552128008274" lon="3.001625361381">
        <ele>154.4</ele>
        <time>2014-05-03T14:48:05Z</time>
      </trkpt>
      <trkpt lat="39.552347027321" lon="3.001403743945">
        <ele>154.4</ele>
        <time>2014-05-03T14:48:08Z</time>
      </trkpt>
      <trkpt lat="39.552563615617" lon="3.001187826201">
        <ele>154.4</ele>
        <time>2014-05-03T14:48:11Z</time>
      </trkpt>
      <trkpt lat="39.552854467547" lon="3.000899153565">
        <ele>154.4</ele>
        <time>2014-05-03T14:48:15Z</time>
      </trkpt>
      <trkpt lat="39.553068541273" lon="3.000680134518">
        <ele>154.4</ele>
        <time>2014-05-03T14:48:18Z</time>
      </trkpt>
      <trkpt lat="39.553557541319" lon="3.000183842219">
        <ele>154.4</ele>
        <time>2014-05-03T14:48:25Z</time>
      </trkpt>
      <trkpt lat="39.553771531226" lon="2.999974629995">
        <ele>154.4</ele>
        <time>2014-05-03T14:48:28Z</time>
      </trkpt>
      <trkpt lat="39.554268913172" lon="2.999486887234">
        <ele>154.4</ele>
        <time>2014-05-03T14:48:35Z</time>
      </trkpt>
      <trkpt lat="39.554418362449" lon="2.999337689414">
        <ele>154.4</ele>
        <time>2014-05-03T14:48:37Z</time>
      </trkpt>
      <trkpt lat="39.554869643945" lon="2.998920689889">
        <ele>154.4</ele>
        <time>2014-05-03T14:48:43Z</time>
      </trkpt>
      <trkpt lat="39.555187820869" lon="2.998639644782">
        <ele>154.4</ele>
        <time>2014-05-03T14:48:47Z</time>
      </trkpt>
      <trkpt lat="39.555504740508" lon="2.998364215548">
        <ele>154</ele>
        <time>2014-05-03T14:48:51Z</time>
      </trkpt>
      <trkpt lat="39.555590654983" lon="2.998293304674">
        <ele>153.4</ele>
        <time>2014-05-03T14:48:52Z</time>
      </trkpt>
      <trkpt lat="39.555673468155" lon="2.998223148171">
        <ele>153</ele>
        <time>2014-05-03T14:48:53Z</time>
      </trkpt>
      <trkpt lat="39.555757454793" lon="2.998149219813">
        <ele>152.2</ele>
        <time>2014-05-03T14:48:54Z</time>
      </trkpt>
      <trkpt lat="39.55584068706" lon="2.998078057482">
        <ele>152.2</ele>
        <time>2014-05-03T14:48:55Z</time>
      </trkpt>
      <trkpt lat="39.556340918852" lon="2.997656028817">
        <ele>152.2</ele>
        <time>2014-05-03T14:49:01Z</time>
      </trkpt>
      <trkpt lat="39.556506629015" lon="2.997520661132">
        <ele>152.2</ele>
        <time>2014-05-03T14:49:03Z</time>
      </trkpt>
      <trkpt lat="39.556588520178" lon="2.997450336991">
        <ele>152.2</ele>
        <time>2014-05-03T14:49:04Z</time>
      </trkpt>
      <trkpt lat="39.556667729133" lon="2.997386047818">
        <ele>152.2</ele>
        <time>2014-05-03T14:49:05Z</time>
      </trkpt>
      <trkpt lat="39.557151532401" lon="2.99698522536">
        <ele>151.6</ele>
        <time>2014-05-03T14:49:11Z</time>
      </trkpt>
      <trkpt lat="39.557232333917" lon="2.996920181816">
        <ele>151.2</ele>
        <time>2014-05-03T14:49:12Z</time>
      </trkpt>
      <trkpt lat="39.557311961967" lon="2.996853545711">
        <ele>150.8</ele>
        <time>2014-05-03T14:49:13Z</time>
      </trkpt>
      <trkpt lat="39.557393098759" lon="2.996782718656">
        <ele>150.4</ele>
        <time>2014-05-03T14:49:14Z</time>
      </trkpt>
      <trkpt lat="39.557473648818" lon="2.996716836922">
        <ele>149.8</ele>
        <time>2014-05-03T14:49:15Z</time>
      </trkpt>
      <trkpt lat="39.557632569642" lon="2.996583983807">
        <ele>149.8</ele>
        <time>2014-05-03T14:49:17Z</time>
      </trkpt>
      <trkpt lat="39.557793083027" lon="2.996454315814">
        <ele>149.8</ele>
        <time>2014-05-03T14:49:19Z</time>
      </trkpt>
      <trkpt lat="39.55827227625" lon="2.996060198876">
        <ele>149.8</ele>
        <time>2014-05-03T14:49:25Z</time>
      </trkpt>
      <trkpt lat="39.558431029436" lon="2.995928183951">
        <ele>149.8</ele>
        <time>2014-05-03T14:49:27Z</time>
      </trkpt>
      <trkpt lat="39.558826403659" lon="2.99560221186">
        <ele>149.8</ele>
        <time>2014-05-03T14:49:32Z</time>
      </trkpt>
      <trkpt lat="39.558976020574" lon="2.995479333206">
        <ele>149.8</ele>
        <time>2014-05-03T14:49:34Z</time>
      </trkpt>
      <trkpt lat="39.559431325382" lon="2.995134250383">
        <ele>149.4</ele>
        <time>2014-05-03T14:49:40Z</time>
      </trkpt>
      <trkpt lat="39.559508271224" lon="2.995092424702">
        <ele>149</ele>
        <time>2014-05-03T14:49:41Z</time>
      </trkpt>
      <trkpt lat="39.559587647817" lon="2.995064680613">
        <ele>148.6</ele>
        <time>2014-05-03T14:49:42Z</time>
      </trkpt>
      <trkpt lat="39.559664677478" lon="2.995037607076">
        <ele>147.6</ele>
        <time>2014-05-03T14:49:43Z</time>
      </trkpt>
      <trkpt lat="39.559803230285" lon="2.994945238538">
        <ele>147.6</ele>
        <time>2014-05-03T14:49:45Z</time>
      </trkpt>
      <trkpt lat="39.559852934952" lon="2.994863850289">
        <ele>147.6</ele>
        <time>2014-05-03T14:49:46Z</time>
      </trkpt>
      <trkpt lat="39.559889563855" lon="2.99477324195">
        <ele>147.2</ele>
        <time>2014-05-03T14:49:47Z</time>
      </trkpt>
      <trkpt lat="39.559922588541" lon="2.994679532308">
        <ele>146.8</ele>
        <time>2014-05-03T14:49:48Z</time>
      </trkpt>
      <trkpt lat="39.559967264068" lon="2.994588588693">
        <ele>146.4</ele>
        <time>2014-05-03T14:49:49Z</time>
      </trkpt>
      <trkpt lat="39.560039096951" lon="2.994530669764">
        <ele>146</ele>
        <time>2014-05-03T14:49:50Z</time>
      </trkpt>
      <trkpt lat="39.56010875054" lon="2.994472164102">
        <ele>145.6</ele>
        <time>2014-05-03T14:49:51Z</time>
      </trkpt>
      <trkpt lat="39.560189468237" lon="2.994408294024">
        <ele>145.6</ele>
        <time>2014-05-03T14:49:52Z</time>
      </trkpt>
      <trkpt lat="39.560269180106" lon="2.994345178317">
        <ele>145.6</ele>
        <time>2014-05-03T14:49:53Z</time>
      </trkpt>
      <trkpt lat="39.5603635603" lon="2.994274435081">
        <ele>145</ele>
        <time>2014-05-03T14:49:54Z</time>
      </trkpt>
      <trkpt lat="39.560452576078" lon="2.994195561402">
        <ele>144.4</ele>
        <time>2014-05-03T14:49:55Z</time>
      </trkpt>
      <trkpt lat="39.560547291548" lon="2.994125823994">
        <ele>143.4</ele>
        <time>2014-05-03T14:49:56Z</time>
      </trkpt>
      <trkpt lat="39.560638151344" lon="2.994054494025">
        <ele>142.6</ele>
        <time>2014-05-03T14:49:57Z</time>
      </trkpt>
      <trkpt lat="39.560713253168" lon="2.993981822952">
        <ele>141.6</ele>
        <time>2014-05-03T14:49:58Z</time>
      </trkpt>
      <trkpt lat="39.560788271173" lon="2.993907140223">
        <ele>140.6</ele>
        <time>2014-05-03T14:49:59Z</time>
      </trkpt>
      <trkpt lat="39.560867731585" lon="2.993830948752">
        <ele>139.8</ele>
        <time>2014-05-03T14:50:00Z</time>
      </trkpt>
      <trkpt lat="39.561201163567" lon="2.993584269435">
        <ele>139.8</ele>
        <time>2014-05-03T14:50:04Z</time>
      </trkpt>
      <trkpt lat="39.561459745182" lon="2.993362651999">
        <ele>140.8</ele>
        <time>2014-05-03T14:50:08Z</time>
      </trkpt>
      <trkpt lat="39.561517915568" lon="2.993320071947">
        <ele>141.4</ele>
        <time>2014-05-03T14:50:09Z</time>
      </trkpt>
      <trkpt lat="39.561574493393" lon="2.993281096112">
        <ele>142</ele>
        <time>2014-05-03T14:50:10Z</time>
      </trkpt>
      <trkpt lat="39.561634675435" lon="2.993238348422">
        <ele>142.8</ele>
        <time>2014-05-03T14:50:11Z</time>
      </trkpt>
      <trkpt lat="39.561688990147" lon="2.993204066451">
        <ele>143.4</ele>
        <time>2014-05-03T14:50:12Z</time>
      </trkpt>
      <trkpt lat="39.561749675103" lon="2.993183027882">
        <ele>144</ele>
        <time>2014-05-03T14:50:13Z</time>
      </trkpt>
      <trkpt lat="39.561812455534" lon="2.99319912113">
        <ele>144.8</ele>
        <time>2014-05-03T14:50:14Z</time>
      </trkpt>
      <trkpt lat="39.562022841224" lon="2.993243209924">
        <ele>144.8</ele>
        <time>2014-05-03T14:50:17Z</time>
      </trkpt>
      <trkpt lat="39.562125519499" lon="2.993132736482">
        <ele>144.8</ele>
        <time>2014-05-03T14:50:19Z</time>
      </trkpt>
      <trkpt lat="39.562210176689" lon="2.99286216875">
        <ele>144.8</ele>
        <time>2014-05-03T14:50:22Z</time>
      </trkpt>
      <trkpt lat="39.562370690074" lon="2.992683047547">
        <ele>144.8</ele>
        <time>2014-05-03T14:50:25Z</time>
      </trkpt>
      <trkpt lat="39.562489796873" lon="2.992629319568">
        <ele>144.8</ele>
        <time>2014-05-03T14:50:27Z</time>
      </trkpt>
      <trkpt lat="39.562601192324" lon="2.992567377327">
        <ele>144.8</ele>
        <time>2014-05-03T14:50:29Z</time>
      </trkpt>
      <trkpt lat="39.56287980668" lon="2.992423627742">
        <ele>144.8</ele>
        <time>2014-05-03T14:50:33Z</time>
      </trkpt>
      <trkpt lat="39.563366878889" lon="2.992187341981">
        <ele>144.8</ele>
        <time>2014-05-03T14:50:40Z</time>
      </trkpt>
      <trkpt lat="39.563708357495" lon="2.992046358423">
        <ele>144.8</ele>
        <time>2014-05-03T14:50:45Z</time>
      </trkpt>
      <trkpt lat="39.563831487606" lon="2.99199296572">
        <ele>144.8</ele>
        <time>2014-05-03T14:50:47Z</time>
      </trkpt>
      <trkpt lat="39.564044220228" lon="2.991919372638">
        <ele>144.8</ele>
        <time>2014-05-03T14:50:50Z</time>
      </trkpt>
      <trkpt lat="39.564425261402" lon="2.991760032719">
        <ele>144.8</ele>
        <time>2014-05-03T14:50:55Z</time>
      </trkpt>
      <trkpt lat="39.564947956686" lon="2.991492231014">
        <ele>144.8</ele>
        <time>2014-05-03T14:51:02Z</time>
      </trkpt>
      <trkpt lat="39.565018616103" lon="2.991445208555">
        <ele>144.8</ele>
        <time>2014-05-03T14:51:03Z</time>
      </trkpt>
      <trkpt lat="39.565505939769" lon="2.991102388845">
        <ele>144.8</ele>
        <time>2014-05-03T14:51:10Z</time>
      </trkpt>
      <trkpt lat="39.565639798712" lon="2.991007673375">
        <ele>144.8</ele>
        <time>2014-05-03T14:51:12Z</time>
      </trkpt>
      <trkpt lat="39.566106670542" lon="2.990662003819">
        <ele>145.2</ele>
        <time>2014-05-03T14:51:19Z</time>
      </trkpt>
      <trkpt lat="39.566172133181" lon="2.990611460962">
        <ele>145.6</ele>
        <time>2014-05-03T14:51:20Z</time>
      </trkpt>
      <trkpt lat="39.566241032399" lon="2.990561085743">
        <ele>146</ele>
        <time>2014-05-03T14:51:21Z</time>
      </trkpt>
      <trkpt lat="39.566306746495" lon="2.990512386904">
        <ele>147</ele>
        <time>2014-05-03T14:51:22Z</time>
      </trkpt>
      <trkpt lat="39.566685943651" lon="2.990236203299">
        <ele>147</ele>
        <time>2014-05-03T14:51:28Z</time>
      </trkpt>
      <trkpt lat="39.567124149383" lon="2.989905704982">
        <ele>147</ele>
        <time>2014-05-03T14:51:35Z</time>
      </trkpt>
      <trkpt lat="39.567381808989" lon="2.989763799415">
        <ele>147</ele>
        <time>2014-05-03T14:51:39Z</time>
      </trkpt>
      <trkpt lat="39.56744878037" lon="2.989736139145">
        <ele>147</ele>
        <time>2014-05-03T14:51:40Z</time>
      </trkpt>
      <trkpt lat="39.56751667376" lon="2.9896896196">
        <ele>147</ele>
        <time>2014-05-03T14:51:41Z</time>
      </trkpt>
      <trkpt lat="39.567731418038" lon="2.989564310195">
        <ele>147</ele>
        <time>2014-05-03T14:51:44Z</time>
      </trkpt>
      <trkpt lat="39.56800869129" lon="2.989416118203">
        <ele>147</ele>
        <time>2014-05-03T14:51:48Z</time>
      </trkpt>
      <trkpt lat="39.568145148622" lon="2.989303633105">
        <ele>147</ele>
        <time>2014-05-03T14:51:50Z</time>
      </trkpt>
      <trkpt lat="39.568557035188" lon="2.988900966629">
        <ele>147</ele>
        <time>2014-05-03T14:51:56Z</time>
      </trkpt>
      <trkpt lat="39.56902541576" lon="2.988443482527">
        <ele>147</ele>
        <time>2014-05-03T14:52:03Z</time>
      </trkpt>
      <trkpt lat="39.569090710761" lon="2.988381037372">
        <ele>147</ele>
        <time>2014-05-03T14:52:04Z</time>
      </trkpt>
      <trkpt lat="39.569574514029" lon="2.987910728963">
        <ele>147</ele>
        <time>2014-05-03T14:52:12Z</time>
      </trkpt>
      <trkpt lat="39.569900989034" lon="2.987635383548">
        <ele>147.4</ele>
        <time>2014-05-03T14:52:18Z</time>
      </trkpt>
      <trkpt lat="39.569948682045" lon="2.98760168831">
        <ele>147.8</ele>
        <time>2014-05-03T14:52:19Z</time>
      </trkpt>
      <trkpt lat="39.569998638169" lon="2.987570172366">
        <ele>148.4</ele>
        <time>2014-05-03T14:52:20Z</time>
      </trkpt>
      <trkpt lat="39.570048175198" lon="2.987539997526">
        <ele>148.8</ele>
        <time>2014-05-03T14:52:21Z</time>
      </trkpt>
      <trkpt lat="39.570094191829" lon="2.987517366396">
        <ele>149.4</ele>
        <time>2014-05-03T14:52:22Z</time>
      </trkpt>
      <trkpt lat="39.570139621727" lon="2.987497668931">
        <ele>150</ele>
        <time>2014-05-03T14:52:23Z</time>
      </trkpt>
      <trkpt lat="39.570188236747" lon="2.987480066941">
        <ele>150.4</ele>
        <time>2014-05-03T14:52:24Z</time>
      </trkpt>
      <trkpt lat="39.570235343025" lon="2.987457771087">
        <ele>151</ele>
        <time>2014-05-03T14:52:25Z</time>
      </trkpt>
      <trkpt lat="39.570279264181" lon="2.987440085278">
        <ele>151.6</ele>
        <time>2014-05-03T14:52:26Z</time>
      </trkpt>
      <trkpt lat="39.570323939708" lon="2.987425919867">
        <ele>152.2</ele>
        <time>2014-05-03T14:52:27Z</time>
      </trkpt>
      <trkpt lat="39.570367693226" lon="2.987407647325">
        <ele>153</ele>
        <time>2014-05-03T14:52:28Z</time>
      </trkpt>
      <trkpt lat="39.570406249966" lon="2.987390715887">
        <ele>153.6</ele>
        <time>2014-05-03T14:52:29Z</time>
      </trkpt>
      <trkpt lat="39.570490823337" lon="2.987363809988">
        <ele>154</ele>
        <time>2014-05-03T14:52:31Z</time>
      </trkpt>
      <trkpt lat="39.570534660674" lon="2.987352159147">
        <ele>154.4</ele>
        <time>2014-05-03T14:52:32Z</time>
      </trkpt>
      <trkpt lat="39.570575731984" lon="2.987338245193">
        <ele>154.8</ele>
        <time>2014-05-03T14:52:33Z</time>
      </trkpt>
      <trkpt lat="39.570620826606" lon="2.987330617664">
        <ele>155.2</ele>
        <time>2014-05-03T14:52:34Z</time>
      </trkpt>
      <trkpt lat="39.570665585952" lon="2.987324917972">
        <ele>155.6</ele>
        <time>2014-05-03T14:52:35Z</time>
      </trkpt>
      <trkpt lat="39.570708082185" lon="2.987320643203">
        <ele>156</ele>
        <time>2014-05-03T14:52:36Z</time>
      </trkpt>
      <trkpt lat="39.570746387468" lon="2.987320978479">
        <ele>156.8</ele>
        <time>2014-05-03T14:52:37Z</time>
      </trkpt>
      <trkpt lat="39.570778825421" lon="2.987319553556">
        <ele>157.4</ele>
        <time>2014-05-03T14:52:38Z</time>
      </trkpt>
      <trkpt lat="39.570812939754" lon="2.987322990135">
        <ele>157.8</ele>
        <time>2014-05-03T14:52:39Z</time>
      </trkpt>
      <trkpt lat="39.570893908908" lon="2.987322319583">
        <ele>158.2</ele>
        <time>2014-05-03T14:52:41Z</time>
      </trkpt>
      <trkpt lat="39.570929951078" lon="2.987322068126">
        <ele>158.6</ele>
        <time>2014-05-03T14:52:42Z</time>
      </trkpt>
      <trkpt lat="39.570962808126" lon="2.98732760018">
        <ele>159.2</ele>
        <time>2014-05-03T14:52:43Z</time>
      </trkpt>
      <trkpt lat="39.570997760649" lon="2.98732676199">
        <ele>159.6</ele>
        <time>2014-05-03T14:52:44Z</time>
      </trkpt>
      <trkpt lat="39.571033551362" lon="2.987334221881">
        <ele>160</ele>
        <time>2014-05-03T14:52:45Z</time>
      </trkpt>
      <trkpt lat="39.571132373963" lon="2.987370515508">
        <ele>160.4</ele>
        <time>2014-05-03T14:52:48Z</time>
      </trkpt>
      <trkpt lat="39.571172690902" lon="2.987375963743">
        <ele>161</ele>
        <time>2014-05-03T14:52:49Z</time>
      </trkpt>
      <trkpt lat="39.5712181208" lon="2.987385351471">
        <ele>161.4</ele>
        <time>2014-05-03T14:52:50Z</time>
      </trkpt>
      <trkpt lat="39.571262293413" lon="2.98739884633">
        <ele>161.8</ele>
        <time>2014-05-03T14:52:51Z</time>
      </trkpt>
      <trkpt lat="39.571301436886" lon="2.987426758057">
        <ele>162.2</ele>
        <time>2014-05-03T14:52:52Z</time>
      </trkpt>
      <trkpt lat="39.57134804025" lon="2.987449640644">
        <ele>162.2</ele>
        <time>2014-05-03T14:52:53Z</time>
      </trkpt>
      <trkpt lat="39.57143269744" lon="2.987486269547">
        <ele>162.6</ele>
        <time>2014-05-03T14:52:55Z</time>
      </trkpt>
      <trkpt lat="39.571474355483" lon="2.9875019437">
        <ele>163</ele>
        <time>2014-05-03T14:52:56Z</time>
      </trkpt>
      <trkpt lat="39.571512493128" lon="2.987523066088">
        <ele>163.6</ele>
        <time>2014-05-03T14:52:57Z</time>
      </trkpt>
      <trkpt lat="39.571548954393" lon="2.987547708874">
        <ele>164</ele>
        <time>2014-05-03T14:52:58Z</time>
      </trkpt>
      <trkpt lat="39.571585834753" lon="2.987567741615">
        <ele>164.4</ele>
        <time>2014-05-03T14:52:59Z</time>
      </trkpt>
      <trkpt lat="39.571652554677" lon="2.987602610319">
        <ele>164.8</ele>
        <time>2014-05-03T14:53:01Z</time>
      </trkpt>
      <trkpt lat="39.571685411725" lon="2.98762180487">
        <ele>165.6</ele>
        <time>2014-05-03T14:53:02Z</time>
      </trkpt>
      <trkpt lat="39.571717179126" lon="2.98763773048">
        <ele>166</ele>
        <time>2014-05-03T14:53:03Z</time>
      </trkpt>
      <trkpt lat="39.571750539088" lon="2.987656422117">
        <ele>166.4</ele>
        <time>2014-05-03T14:53:04Z</time>
      </trkpt>
      <trkpt lat="39.571846260386" lon="2.98769640378">
        <ele>166.4</ele>
        <time>2014-05-03T14:53:07Z</time>
      </trkpt>
      <trkpt lat="39.572018759888" lon="2.98779363382">
        <ele>166.4</ele>
        <time>2014-05-03T14:53:12Z</time>
      </trkpt>
      <trkpt lat="39.572097298291" lon="2.9878372197">
        <ele>166.4</ele>
        <time>2014-05-03T14:53:14Z</time>
      </trkpt>
      <trkpt lat="39.572220428402" lon="2.987922463623">
        <ele>166.4</ele>
        <time>2014-05-03T14:53:17Z</time>
      </trkpt>
      <trkpt lat="39.572257560219" lon="2.987969988996">
        <ele>166.4</ele>
        <time>2014-05-03T14:53:18Z</time>
      </trkpt>
      <trkpt lat="39.572354203526" lon="2.988197306124">
        <ele>166.4</ele>
        <time>2014-05-03T14:53:22Z</time>
      </trkpt>
      <trkpt lat="39.572396699759" lon="2.988305013539">
        <ele>166.8</ele>
        <time>2014-05-03T14:53:24Z</time>
      </trkpt>
      <trkpt lat="39.572420839631" lon="2.988356813681">
        <ele>167.2</ele>
        <time>2014-05-03T14:53:25Z</time>
      </trkpt>
      <trkpt lat="39.572445733874" lon="2.988407272719">
        <ele>168.2</ele>
        <time>2014-05-03T14:53:26Z</time>
      </trkpt>
      <trkpt lat="39.572465515158" lon="2.988448092572">
        <ele>168.6</ele>
        <time>2014-05-03T14:53:27Z</time>
      </trkpt>
      <trkpt lat="39.572492588695" lon="2.988506346777">
        <ele>168.6</ele>
        <time>2014-05-03T14:53:28Z</time>
      </trkpt>
      <trkpt lat="39.572532151263" lon="2.98856979776">
        <ele>169</ele>
        <time>2014-05-03T14:53:29Z</time>
      </trkpt>
      <trkpt lat="39.572562493741" lon="2.988636433865">
        <ele>169.4</ele>
        <time>2014-05-03T14:53:30Z</time>
      </trkpt>
      <trkpt lat="39.572592081848" lon="2.98870223178">
        <ele>169.8</ele>
        <time>2014-05-03T14:53:31Z</time>
      </trkpt>
      <trkpt lat="39.572613958607" lon="2.98877096336">
        <ele>170.2</ele>
        <time>2014-05-03T14:53:32Z</time>
      </trkpt>
      <trkpt lat="39.572639607221" lon="2.988837348008">
        <ele>170.6</ele>
        <time>2014-05-03T14:53:33Z</time>
      </trkpt>
      <trkpt lat="39.572708087344" lon="2.988967267458">
        <ele>170.6</ele>
        <time>2014-05-03T14:53:35Z</time>
      </trkpt>
      <trkpt lat="39.572735579976" lon="2.98903080226">
        <ele>171.2</ele>
        <time>2014-05-03T14:53:36Z</time>
      </trkpt>
      <trkpt lat="39.572759971305" lon="2.989082937678">
        <ele>171.6</ele>
        <time>2014-05-03T14:53:37Z</time>
      </trkpt>
      <trkpt lat="39.572774471992" lon="2.989138761132">
        <ele>172</ele>
        <time>2014-05-03T14:53:38Z</time>
      </trkpt>
      <trkpt lat="39.572802635176" lon="2.989196093328">
        <ele>172.4</ele>
        <time>2014-05-03T14:53:39Z</time>
      </trkpt>
      <trkpt lat="39.572834318758" lon="2.989247222918">
        <ele>173</ele>
        <time>2014-05-03T14:53:40Z</time>
      </trkpt>
      <trkpt lat="39.572866672892" lon="2.989298268689">
        <ele>173.4</ele>
        <time>2014-05-03T14:53:41Z</time>
      </trkpt>
      <trkpt lat="39.572889723117" lon="2.989351745211">
        <ele>173.8</ele>
        <time>2014-05-03T14:53:42Z</time>
      </trkpt>
      <trkpt lat="39.572913527713" lon="2.989404215905">
        <ele>174.2</ele>
        <time>2014-05-03T14:53:43Z</time>
      </trkpt>
      <trkpt lat="39.57293976306" lon="2.989458949712">
        <ele>174.6</ele>
        <time>2014-05-03T14:53:44Z</time>
      </trkpt>
      <trkpt lat="39.572967758606" lon="2.9895135997">
        <ele>175</ele>
        <time>2014-05-03T14:53:45Z</time>
      </trkpt>
      <trkpt lat="39.573025426078" lon="2.989625833341">
        <ele>175</ele>
        <time>2014-05-03T14:53:47Z</time>
      </trkpt>
      <trkpt lat="39.573127852896" lon="2.989830100244">
        <ele>175.4</ele>
        <time>2014-05-03T14:53:50Z</time>
      </trkpt>
      <trkpt lat="39.57316439798" lon="2.989890198467">
        <ele>176.4</ele>
        <time>2014-05-03T14:53:51Z</time>
      </trkpt>
      <trkpt lat="39.573196333019" lon="2.989945099912">
        <ele>176.8</ele>
        <time>2014-05-03T14:53:52Z</time>
      </trkpt>
      <trkpt lat="39.573223741832" lon="2.990000252814">
        <ele>177.2</ele>
        <time>2014-05-03T14:53:53Z</time>
      </trkpt>
      <trkpt lat="39.573299430389" lon="2.990127573875">
        <ele>177.6</ele>
        <time>2014-05-03T14:53:56Z</time>
      </trkpt>
      <trkpt lat="39.573318122026" lon="2.990173925782">
        <ele>178</ele>
        <time>2014-05-03T14:53:57Z</time>
      </trkpt>
      <trkpt lat="39.573338992957" lon="2.990222876078">
        <ele>178.4</ele>
        <time>2014-05-03T14:53:58Z</time>
      </trkpt>
      <trkpt lat="39.57336304901" lon="2.990270233813">
        <ele>178.8</ele>
        <time>2014-05-03T14:53:59Z</time>
      </trkpt>
      <trkpt lat="39.573388027072" lon="2.990329829122">
        <ele>179.2</ele>
        <time>2014-05-03T14:54:00Z</time>
      </trkpt>
      <trkpt lat="39.573416022618" lon="2.990376432486">
        <ele>179.2</ele>
        <time>2014-05-03T14:54:01Z</time>
      </trkpt>
      <trkpt lat="39.573440916861" lon="2.990418425805">
        <ele>179.2</ele>
        <time>2014-05-03T14:54:02Z</time>
      </trkpt>
      <trkpt lat="39.573483245456" lon="2.990510375248">
        <ele>179.2</ele>
        <time>2014-05-03T14:54:04Z</time>
      </trkpt>
      <trkpt lat="39.573527837164" lon="2.990615651912">
        <ele>179.2</ele>
        <time>2014-05-03T14:54:06Z</time>
      </trkpt>
      <trkpt lat="39.573592042518" lon="2.990727215001">
        <ele>179.2</ele>
        <time>2014-05-03T14:54:08Z</time>
      </trkpt>
      <trkpt lat="39.573642836832" lon="2.990843388135">
        <ele>179.2</ele>
        <time>2014-05-03T14:54:10Z</time>
      </trkpt>
      <trkpt lat="39.573795303593" lon="2.991166175104">
        <ele>179.2</ele>
        <time>2014-05-03T14:54:15Z</time>
      </trkpt>
      <trkpt lat="39.573892282176" lon="2.991382344305">
        <ele>179.2</ele>
        <time>2014-05-03T14:54:18Z</time>
      </trkpt>
      <trkpt lat="39.574041228539" lon="2.991675710805">
        <ele>179.6</ele>
        <time>2014-05-03T14:54:22Z</time>
      </trkpt>
      <trkpt lat="39.574075342872" lon="2.991748381878">
        <ele>180</ele>
        <time>2014-05-03T14:54:23Z</time>
      </trkpt>
      <trkpt lat="39.574105936807" lon="2.991819544209">
        <ele>180.4</ele>
        <time>2014-05-03T14:54:24Z</time>
      </trkpt>
      <trkpt lat="39.574132339792" lon="2.991887018504">
        <ele>180.8</ele>
        <time>2014-05-03T14:54:25Z</time>
      </trkpt>
      <trkpt lat="39.574162514632" lon="2.991965473088">
        <ele>181.2</ele>
        <time>2014-05-03T14:54:26Z</time>
      </trkpt>
      <trkpt lat="39.574253039152" lon="2.992173847122">
        <ele>181.2</ele>
        <time>2014-05-03T14:54:29Z</time>
      </trkpt>
      <trkpt lat="39.574337696342" lon="2.992363697157">
        <ele>181.2</ele>
        <time>2014-05-03T14:54:32Z</time>
      </trkpt>
      <trkpt lat="39.574380946946" lon="2.992480037929">
        <ele>181.2</ele>
        <time>2014-05-03T14:54:34Z</time>
      </trkpt>
      <trkpt lat="39.574481613565" lon="2.992710037265">
        <ele>181.2</ele>
        <time>2014-05-03T14:54:38Z</time>
      </trkpt>
      <trkpt lat="39.574531234413" lon="2.992835179032">
        <ele>181.6</ele>
        <time>2014-05-03T14:54:40Z</time>
      </trkpt>
      <trkpt lat="39.574555458104" lon="2.992900809309">
        <ele>182</ele>
        <time>2014-05-03T14:54:41Z</time>
      </trkpt>
      <trkpt lat="39.574581358175" lon="2.992959734066">
        <ele>182.4</ele>
        <time>2014-05-03T14:54:42Z</time>
      </trkpt>
      <trkpt lat="39.574607593522" lon="2.993019497013">
        <ele>182.8</ele>
        <time>2014-05-03T14:54:43Z</time>
      </trkpt>
      <trkpt lat="39.574635756706" lon="2.993082025987">
        <ele>183.2</ele>
        <time>2014-05-03T14:54:44Z</time>
      </trkpt>
      <trkpt lat="39.5746630817" lon="2.993146566617">
        <ele>183.2</ele>
        <time>2014-05-03T14:54:45Z</time>
      </trkpt>
      <trkpt lat="39.574788894019" lon="2.993493493458">
        <ele>183.2</ele>
        <time>2014-05-03T14:54:50Z</time>
      </trkpt>
      <trkpt lat="39.574842873455" lon="2.993629699333">
        <ele>183.2</ele>
        <time>2014-05-03T14:54:52Z</time>
      </trkpt>
      <trkpt lat="39.574895511787" lon="2.993771940176">
        <ele>183.2</ele>
        <time>2014-05-03T14:54:54Z</time>
      </trkpt>
      <trkpt lat="39.574948485395" lon="2.993910073888">
        <ele>183.2</ele>
        <time>2014-05-03T14:54:56Z</time>
      </trkpt>
      <trkpt lat="39.575007158695" lon="2.994074442947">
        <ele>183.2</ele>
        <time>2014-05-03T14:54:58Z</time>
      </trkpt>
      <trkpt lat="39.575087624935" lon="2.994298658772">
        <ele>183.2</ele>
        <time>2014-05-03T14:55:01Z</time>
      </trkpt>
      <trkpt lat="39.575257442229" lon="2.994784473696">
        <ele>182.8</ele>
        <time>2014-05-03T14:55:07Z</time>
      </trkpt>
      <trkpt lat="39.57528418049" lon="2.994862425366">
        <ele>182.4</ele>
        <time>2014-05-03T14:55:08Z</time>
      </trkpt>
      <trkpt lat="39.575308320362" lon="2.994945238538">
        <ele>182</ele>
        <time>2014-05-03T14:55:09Z</time>
      </trkpt>
      <trkpt lat="39.575335142442" lon="2.995039199637">
        <ele>181.6</ele>
        <time>2014-05-03T14:55:10Z</time>
      </trkpt>
      <trkpt lat="39.575361377789" lon="2.995122180447">
        <ele>181.2</ele>
        <time>2014-05-03T14:55:11Z</time>
      </trkpt>
      <trkpt lat="39.575579726284" lon="2.995792983904">
        <ele>181.2</ele>
        <time>2014-05-03T14:55:19Z</time>
      </trkpt>
      <trkpt lat="39.575630185322" lon="2.99596011899">
        <ele>181.2</ele>
        <time>2014-05-03T14:55:21Z</time>
      </trkpt>
      <trkpt lat="39.575682572197" lon="2.996124907144">
        <ele>181.2</ele>
        <time>2014-05-03T14:55:23Z</time>
      </trkpt>
      <trkpt lat="39.575736300176" lon="2.996292964239">
        <ele>181.2</ele>
        <time>2014-05-03T14:55:25Z</time>
      </trkpt>
      <trkpt lat="39.575792207449" lon="2.996467307759">
        <ele>181.2</ele>
        <time>2014-05-03T14:55:27Z</time>
      </trkpt>
      <trkpt lat="39.575819532443" lon="2.996552048768">
        <ele>181.6</ele>
        <time>2014-05-03T14:55:28Z</time>
      </trkpt>
      <trkpt lat="39.575846522161" lon="2.996634442845">
        <ele>182.4</ele>
        <time>2014-05-03T14:55:29Z</time>
      </trkpt>
      <trkpt lat="39.575874350069" lon="2.996716334008">
        <ele>182.8</ele>
        <time>2014-05-03T14:55:30Z</time>
      </trkpt>
      <trkpt lat="39.575900920692" lon="2.996800572103">
        <ele>183.2</ele>
        <time>2014-05-03T14:55:31Z</time>
      </trkpt>
      <trkpt lat="39.575958001431" lon="2.996973993614">
        <ele>183.2</ele>
        <time>2014-05-03T14:55:33Z</time>
      </trkpt>
      <trkpt lat="39.576052465444" lon="2.997237352912">
        <ele>183.2</ele>
        <time>2014-05-03T14:55:36Z</time>
      </trkpt>
      <trkpt lat="39.576141481222" lon="2.997489229007">
        <ele>183.2</ele>
        <time>2014-05-03T14:55:39Z</time>
      </trkpt>
      <trkpt lat="39.576205938033" lon="2.997657369921">
        <ele>183.2</ele>
        <time>2014-05-03T14:55:41Z</time>
      </trkpt>
      <trkpt lat="39.576272909414" lon="2.997835820572">
        <ele>183.8</ele>
        <time>2014-05-03T14:55:43Z</time>
      </trkpt>
      <trkpt lat="39.576306101738" lon="2.997917795554">
        <ele>184.2</ele>
        <time>2014-05-03T14:55:44Z</time>
      </trkpt>
      <trkpt lat="39.576338958786" lon="2.99799943526">
        <ele>184.6</ele>
        <time>2014-05-03T14:55:45Z</time>
      </trkpt>
      <trkpt lat="39.57637466568" lon="2.998079817681">
        <ele>185</ele>
        <time>2014-05-03T14:55:46Z</time>
      </trkpt>
      <trkpt lat="39.576412216592" lon="2.998161792663">
        <ele>185.4</ele>
        <time>2014-05-03T14:55:47Z</time>
      </trkpt>
      <trkpt lat="39.576558145471" lon="2.998487178021">
        <ele>185.4</ele>
        <time>2014-05-03T14:55:51Z</time>
      </trkpt>
      <trkpt lat="39.576668702732" lon="2.998720194841">
        <ele>186</ele>
        <time>2014-05-03T14:55:54Z</time>
      </trkpt>
      <trkpt lat="39.576706505101" lon="2.998794207018">
        <ele>186.4</ele>
        <time>2014-05-03T14:55:55Z</time>
      </trkpt>
      <trkpt lat="39.576743720737" lon="2.998864782616">
        <ele>186.8</ele>
        <time>2014-05-03T14:55:56Z</time>
      </trkpt>
      <trkpt lat="39.576783031848" lon="2.998946925236">
        <ele>187.2</ele>
        <time>2014-05-03T14:55:57Z</time>
      </trkpt>
      <trkpt lat="39.576822594416" lon="2.999022697612">
        <ele>187.6</ele>
        <time>2014-05-03T14:55:58Z</time>
      </trkpt>
      <trkpt lat="39.576861151156" lon="2.999098386169">
        <ele>188</ele>
        <time>2014-05-03T14:55:59Z</time>
      </trkpt>
      <trkpt lat="39.576898702068" lon="2.999172482165">
        <ele>188.6</ele>
        <time>2014-05-03T14:56:00Z</time>
      </trkpt>
      <trkpt lat="39.576936001523" lon="2.999247583989">
        <ele>189</ele>
        <time>2014-05-03T14:56:01Z</time>
      </trkpt>
      <trkpt lat="39.576975815548" lon="2.999320925614">
        <ele>189.4</ele>
        <time>2014-05-03T14:56:02Z</time>
      </trkpt>
      <trkpt lat="39.57701420465" lon="2.999393596687">
        <ele>189.8</ele>
        <time>2014-05-03T14:56:03Z</time>
      </trkpt>
      <trkpt lat="39.577200199011" lon="2.999732393085">
        <ele>189.8</ele>
        <time>2014-05-03T14:56:08Z</time>
      </trkpt>
      <trkpt lat="39.577260464872" lon="2.999847811848">
        <ele>190.2</ele>
        <time>2014-05-03T14:56:10Z</time>
      </trkpt>
      <trkpt lat="39.577288711875" lon="2.999904389673">
        <ele>190.8</ele>
        <time>2014-05-03T14:56:11Z</time>
      </trkpt>
      <trkpt lat="39.577315617774" lon="2.999958788204">
        <ele>191.2</ele>
        <time>2014-05-03T14:56:12Z</time>
      </trkpt>
      <trkpt lat="39.577344702967" lon="3.000009163423">
        <ele>191.6</ele>
        <time>2014-05-03T14:56:13Z</time>
      </trkpt>
      <trkpt lat="39.577371357409" lon="3.000055850606">
        <ele>192</ele>
        <time>2014-05-03T14:56:14Z</time>
      </trkpt>
      <trkpt lat="39.577423828103" lon="3.000149141153">
        <ele>192</ele>
        <time>2014-05-03T14:56:16Z</time>
      </trkpt>
      <trkpt lat="39.5775129277" lon="3.000333040039">
        <ele>192</ele>
        <time>2014-05-03T14:56:20Z</time>
      </trkpt>
      <trkpt lat="39.577537151391" lon="3.000377464109">
        <ele>192</ele>
        <time>2014-05-03T14:56:21Z</time>
      </trkpt>
      <trkpt lat="39.577583587117" lon="3.000467569534">
        <ele>192</ele>
        <time>2014-05-03T14:56:23Z</time>
      </trkpt>
      <trkpt lat="39.577666065013" lon="3.000660353234">
        <ele>192</ele>
        <time>2014-05-03T14:56:27Z</time>
      </trkpt>
      <trkpt lat="39.577704537934" lon="3.000753057048">
        <ele>192</ele>
        <time>2014-05-03T14:56:29Z</time>
      </trkpt>
      <trkpt lat="39.57772415158" lon="3.000801588249">
        <ele>192</ele>
        <time>2014-05-03T14:56:30Z</time>
      </trkpt>
      <trkpt lat="39.577763127415" lon="3.000888508552">
        <ele>192</ele>
        <time>2014-05-03T14:56:32Z</time>
      </trkpt>
      <trkpt lat="39.577780394129" lon="3.000933519355">
        <ele>192</ele>
        <time>2014-05-03T14:56:33Z</time>
      </trkpt>
      <trkpt lat="39.577798582852" lon="3.000977021416">
        <ele>192</ele>
        <time>2014-05-03T14:56:34Z</time>
      </trkpt>
      <trkpt lat="39.577834373565" lon="3.001092943093">
        <ele>192</ele>
        <time>2014-05-03T15:02:29Z</time>
      </trkpt>
      <trkpt lat="39.577843426017" lon="3.001106186495">
        <ele>192</ele>
        <time>2014-05-03T15:02:30Z</time>
      </trkpt>
      <trkpt lat="39.577860357455" lon="3.001129655815">
        <ele>192</ele>
        <time>2014-05-03T15:02:32Z</time>
      </trkpt>
      <trkpt lat="39.577871170106" lon="3.001146503434">
        <ele>192</ele>
        <time>2014-05-03T15:02:33Z</time>
      </trkpt>
      <trkpt lat="39.577896902539" lon="3.001226550579">
        <ele>192</ele>
        <time>2014-05-03T15:02:35Z</time>
      </trkpt>
      <trkpt lat="39.577914336891" lon="3.001278685997">
        <ele>192</ele>
        <time>2014-05-03T15:02:36Z</time>
      </trkpt>
      <trkpt lat="39.577947026301" lon="3.001391003457">
        <ele>192</ele>
        <time>2014-05-03T15:02:38Z</time>
      </trkpt>
      <trkpt lat="39.577981308272" lon="3.001514887939">
        <ele>192</ele>
        <time>2014-05-03T15:02:40Z</time>
      </trkpt>
      <trkpt lat="39.57801416532" lon="3.001647992511">
        <ele>192</ele>
        <time>2014-05-03T15:02:42Z</time>
      </trkpt>
      <trkpt lat="39.578122962382" lon="3.002096172704">
        <ele>192</ele>
        <time>2014-05-03T15:02:48Z</time>
      </trkpt>
      <trkpt lat="39.578206446106" lon="3.002673517976">
        <ele>192</ele>
        <time>2014-05-03T15:02:55Z</time>
      </trkpt>
      <trkpt lat="39.578225137743" lon="3.002824308357">
        <ele>192</ele>
        <time>2014-05-03T15:02:57Z</time>
      </trkpt>
      <trkpt lat="39.578236453308" lon="3.00289781762">
        <ele>192</ele>
        <time>2014-05-03T15:02:58Z</time>
      </trkpt>
      <trkpt lat="39.578269729451" lon="3.003121195255">
        <ele>192</ele>
        <time>2014-05-03T15:03:01Z</time>
      </trkpt>
      <trkpt lat="39.578292528219" lon="3.003363767441">
        <ele>192</ele>
        <time>2014-05-03T15:03:04Z</time>
      </trkpt>
      <trkpt lat="39.578308872924" lon="3.003524951378">
        <ele>192</ele>
        <time>2014-05-03T15:03:06Z</time>
      </trkpt>
      <trkpt lat="39.57837458702" lon="3.004030715224">
        <ele>192</ele>
        <time>2014-05-03T15:03:12Z</time>
      </trkpt>
      <trkpt lat="39.578449353568" lon="3.004572688878">
        <ele>191.2</ele>
        <time>2014-05-03T15:03:18Z</time>
      </trkpt>
      <trkpt lat="39.578467207015" lon="3.00466472214">
        <ele>190.8</ele>
        <time>2014-05-03T15:03:19Z</time>
      </trkpt>
      <trkpt lat="39.578485311919" lon="3.004755581936">
        <ele>190.4</ele>
        <time>2014-05-03T15:03:20Z</time>
      </trkpt>
      <trkpt lat="39.578505177022" lon="3.004845687361">
        <ele>190</ele>
        <time>2014-05-03T15:03:21Z</time>
      </trkpt>
      <trkpt lat="39.578643059277" lon="3.005312391553">
        <ele>190</ele>
        <time>2014-05-03T15:03:26Z</time>
      </trkpt>
      <trkpt lat="39.578721346223" lon="3.00550794128">
        <ele>189.6</ele>
        <time>2014-05-03T15:03:28Z</time>
      </trkpt>
      <trkpt lat="39.578767195216" lon="3.005608943175">
        <ele>189.2</ele>
        <time>2014-05-03T15:03:29Z</time>
      </trkpt>
      <trkpt lat="39.578816396969" lon="3.005710867079">
        <ele>188.8</ele>
        <time>2014-05-03T15:03:30Z</time>
      </trkpt>
      <trkpt lat="39.578871885147" lon="3.005820167055">
        <ele>188.4</ele>
        <time>2014-05-03T15:03:31Z</time>
      </trkpt>
      <trkpt lat="39.578928546791" lon="3.005925862814">
        <ele>188</ele>
        <time>2014-05-03T15:03:32Z</time>
      </trkpt>
      <trkpt lat="39.578988561195" lon="3.006034073143">
        <ele>187.6</ele>
        <time>2014-05-03T15:03:33Z</time>
      </trkpt>
      <trkpt lat="39.579053353282" lon="3.006142702567">
        <ele>187</ele>
        <time>2014-05-03T15:03:34Z</time>
      </trkpt>
      <trkpt lat="39.579120827577" lon="3.006254600932">
        <ele>186.6</ele>
        <time>2014-05-03T15:03:35Z</time>
      </trkpt>
      <trkpt lat="39.579191654632" lon="3.006372785722">
        <ele>185.8</ele>
        <time>2014-05-03T15:03:36Z</time>
      </trkpt>
      <trkpt lat="39.579264493343" lon="3.006494993824">
        <ele>185</ele>
        <time>2014-05-03T15:03:37Z</time>
      </trkpt>
      <trkpt lat="39.579343031746" lon="3.006625332369">
        <ele>184.2</ele>
        <time>2014-05-03T15:03:38Z</time>
      </trkpt>
      <trkpt lat="39.579423414167" lon="3.00675768257">
        <ele>183.2</ele>
        <time>2014-05-03T15:03:39Z</time>
      </trkpt>
      <trkpt lat="39.57950949628" lon="3.00690185125">
        <ele>182.2</ele>
        <time>2014-05-03T15:03:40Z</time>
      </trkpt>
      <trkpt lat="39.579590633072" lon="3.007048869776">
        <ele>181.2</ele>
        <time>2014-05-03T15:03:41Z</time>
      </trkpt>
      <trkpt lat="39.579664896706" lon="3.007198319053">
        <ele>180.2</ele>
        <time>2014-05-03T15:03:42Z</time>
      </trkpt>
      <trkpt lat="39.579735472304" lon="3.007357575153">
        <ele>178</ele>
        <time>2014-05-03T15:03:43Z</time>
      </trkpt>
      <trkpt lat="39.579798588011" lon="3.007526638076">
        <ele>177.2</ele>
        <time>2014-05-03T15:03:44Z</time>
      </trkpt>
      <trkpt lat="39.579856926035" lon="3.007701149234">
        <ele>176.4</ele>
        <time>2014-05-03T15:03:45Z</time>
      </trkpt>
      <trkpt lat="39.579911156928" lon="3.007883790835">
        <ele>175</ele>
        <time>2014-05-03T15:03:46Z</time>
      </trkpt>
      <trkpt lat="39.57995708974" lon="3.008065594246">
        <ele>173.6</ele>
        <time>2014-05-03T15:03:47Z</time>
      </trkpt>
      <trkpt lat="39.580002854914" lon="3.008260305783">
        <ele>172.2</ele>
        <time>2014-05-03T15:03:48Z</time>
      </trkpt>
      <trkpt lat="39.580044512957" lon="3.00844412085">
        <ele>170.6</ele>
        <time>2014-05-03T15:03:49Z</time>
      </trkpt>
      <trkpt lat="39.580084243163" lon="3.008628941745">
        <ele>169.2</ele>
        <time>2014-05-03T15:03:50Z</time>
      </trkpt>
      <trkpt lat="39.580122129351" lon="3.008811080432">
        <ele>167.8</ele>
        <time>2014-05-03T15:03:51Z</time>
      </trkpt>
      <trkpt lat="39.580160602272" lon="3.008993554395">
        <ele>166.2</ele>
        <time>2014-05-03T15:03:52Z</time>
      </trkpt>
      <trkpt lat="39.580200416297" lon="3.009172172684">
        <ele>164.8</ele>
        <time>2014-05-03T15:03:53Z</time>
      </trkpt>
      <trkpt lat="39.580240733236" lon="3.009353892276">
        <ele>164.4</ele>
        <time>2014-05-03T15:03:54Z</time>
      </trkpt>
      <trkpt lat="39.580281804546" lon="3.009543993768">
        <ele>163.8</ele>
        <time>2014-05-03T15:03:55Z</time>
      </trkpt>
      <trkpt lat="39.580318852544" lon="3.009721354772">
        <ele>163.4</ele>
        <time>2014-05-03T15:03:56Z</time>
      </trkpt>
      <trkpt lat="39.580358498931" lon="3.009901649441">
        <ele>162.8</ele>
        <time>2014-05-03T15:03:57Z</time>
      </trkpt>
      <trkpt lat="39.580399151146" lon="3.010082530843">
        <ele>162.2</ele>
        <time>2014-05-03T15:03:58Z</time>
      </trkpt>
      <trkpt lat="39.580442066474" lon="3.010263663702">
        <ele>161.8</ele>
        <time>2014-05-03T15:03:59Z</time>
      </trkpt>
      <trkpt lat="39.580481126128" lon="3.01043901305">
        <ele>161.2</ele>
        <time>2014-05-03T15:04:00Z</time>
      </trkpt>
      <trkpt lat="39.580519431411" lon="3.010610925819">
        <ele>160.6</ele>
        <time>2014-05-03T15:04:01Z</time>
      </trkpt>
      <trkpt lat="39.580558155789" lon="3.01078099457">
        <ele>160</ele>
        <time>2014-05-03T15:04:02Z</time>
      </trkpt>
      <trkpt lat="39.580700480451" lon="3.011451043656">
        <ele>160</ele>
        <time>2014-05-03T15:04:06Z</time>
      </trkpt>
      <trkpt lat="39.580735600612" lon="3.011616502362">
        <ele>159.6</ele>
        <time>2014-05-03T15:04:07Z</time>
      </trkpt>
      <trkpt lat="39.580770804592" lon="3.011780871421">
        <ele>159.2</ele>
        <time>2014-05-03T15:04:08Z</time>
      </trkpt>
      <trkpt lat="39.580807517314" lon="3.011945743394">
        <ele>158.6</ele>
        <time>2014-05-03T15:04:09Z</time>
      </trkpt>
      <trkpt lat="39.580845319683" lon="3.012113213756">
        <ele>158.2</ele>
        <time>2014-05-03T15:04:10Z</time>
      </trkpt>
      <trkpt lat="39.580882283862" lon="3.012277415177">
        <ele>157.8</ele>
        <time>2014-05-03T15:04:11Z</time>
      </trkpt>
      <trkpt lat="39.580918912765" lon="3.012436755096">
        <ele>157.4</ele>
        <time>2014-05-03T15:04:12Z</time>
      </trkpt>
      <trkpt lat="39.580960067894" lon="3.01259399954">
        <ele>157</ele>
        <time>2014-05-03T15:04:13Z</time>
      </trkpt>
      <trkpt lat="39.581005916887" lon="3.012749399966">
        <ele>156.6</ele>
        <time>2014-05-03T15:04:14Z</time>
      </trkpt>
      <trkpt lat="39.581056208287" lon="3.012902118184">
        <ele>156.2</ele>
        <time>2014-05-03T15:04:15Z</time>
      </trkpt>
      <trkpt lat="39.581110355361" lon="3.013048969072">
        <ele>155.8</ele>
        <time>2014-05-03T15:04:16Z</time>
      </trkpt>
      <trkpt lat="39.58116995067" lon="3.013190287906">
        <ele>155.4</ele>
        <time>2014-05-03T15:04:17Z</time>
      </trkpt>
      <trkpt lat="39.581237089689" lon="3.013333450758">
        <ele>154.8</ele>
        <time>2014-05-03T15:04:18Z</time>
      </trkpt>
      <trkpt lat="39.58130489926" lon="3.013466136235">
        <ele>154.4</ele>
        <time>2014-05-03T15:04:19Z</time>
      </trkpt>
      <trkpt lat="39.581376732143" lon="3.013595468952">
        <ele>154</ele>
        <time>2014-05-03T15:04:20Z</time>
      </trkpt>
      <trkpt lat="39.581451750148" lon="3.013721532728">
        <ele>153.6</ele>
        <time>2014-05-03T15:04:21Z</time>
      </trkpt>
      <trkpt lat="39.581531294379" lon="3.013839968975">
        <ele>153.2</ele>
        <time>2014-05-03T15:04:22Z</time>
      </trkpt>
      <trkpt lat="39.581617711768" lon="3.013963350543">
        <ele>152.6</ele>
        <time>2014-05-03T15:04:23Z</time>
      </trkpt>
      <trkpt lat="39.581703961519" lon="3.014081535333">
        <ele>152.2</ele>
        <time>2014-05-03T15:04:24Z</time>
      </trkpt>
      <trkpt lat="39.581793228754" lon="3.014197373191">
        <ele>151.8</ele>
        <time>2014-05-03T15:04:25Z</time>
      </trkpt>
      <trkpt lat="39.581882747446" lon="3.014314133058">
        <ele>151.4</ele>
        <time>2014-05-03T15:04:26Z</time>
      </trkpt>
      <trkpt lat="39.581972852871" lon="3.014433658952">
        <ele>151</ele>
        <time>2014-05-03T15:04:27Z</time>
      </trkpt>
      <trkpt lat="39.582062958296" lon="3.014552933389">
        <ele>150.6</ele>
        <time>2014-05-03T15:04:28Z</time>
      </trkpt>
      <trkpt lat="39.582154321006" lon="3.014671956369">
        <ele>150.2</ele>
        <time>2014-05-03T15:04:29Z</time>
      </trkpt>
      <trkpt lat="39.582244929345" lon="3.014786620761">
        <ele>149.8</ele>
        <time>2014-05-03T15:04:30Z</time>
      </trkpt>
      <trkpt lat="39.582334615675" lon="3.014900446963">
        <ele>149.2</ele>
        <time>2014-05-03T15:04:31Z</time>
      </trkpt>
      <trkpt lat="39.582421535978" lon="3.015014608441">
        <ele>148</ele>
        <time>2014-05-03T15:04:32Z</time>
      </trkpt>
      <trkpt lat="39.582509545928" lon="3.015131284489">
        <ele>147.4</ele>
        <time>2014-05-03T15:04:33Z</time>
      </trkpt>
      <trkpt lat="39.582593448747" lon="3.015239578637">
        <ele>146.8</ele>
        <time>2014-05-03T15:04:34Z</time>
      </trkpt>
      <trkpt lat="39.582757817806" lon="3.015455161105">
        <ele>146.8</ele>
        <time>2014-05-03T15:04:36Z</time>
      </trkpt>
      <trkpt lat="39.582841804444" lon="3.015565299271">
        <ele>146.4</ele>
        <time>2014-05-03T15:04:37Z</time>
      </trkpt>
      <trkpt lat="39.582925539625" lon="3.015676778541">
        <ele>146</ele>
        <time>2014-05-03T15:04:38Z</time>
      </trkpt>
      <trkpt lat="39.58300893953" lon="3.015785324146">
        <ele>145.6</ele>
        <time>2014-05-03T15:04:39Z</time>
      </trkpt>
      <trkpt lat="39.583091249788" lon="3.015893869751">
        <ele>145.2</ele>
        <time>2014-05-03T15:04:40Z</time>
      </trkpt>
      <trkpt lat="39.583178337729" lon="3.016010210523">
        <ele>144.6</ele>
        <time>2014-05-03T15:04:41Z</time>
      </trkpt>
      <trkpt lat="39.58325955834" lon="3.016116157739">
        <ele>144.2</ele>
        <time>2014-05-03T15:04:42Z</time>
      </trkpt>
      <trkpt lat="39.583338180562" lon="3.016218919833">
        <ele>143.8</ele>
        <time>2014-05-03T15:04:43Z</time>
      </trkpt>
      <trkpt lat="39.583414874947" lon="3.01631723952">
        <ele>143</ele>
        <time>2014-05-03T15:04:44Z</time>
      </trkpt>
      <trkpt lat="39.583492072246" lon="3.016411619714">
        <ele>142.2</ele>
        <time>2014-05-03T15:04:45Z</time>
      </trkpt>
      <trkpt lat="39.583570107735" lon="3.016502563329">
        <ele>141.4</ele>
        <time>2014-05-03T15:04:46Z</time>
      </trkpt>
      <trkpt lat="39.583647472672" lon="3.016587304338">
        <ele>140.8</ele>
        <time>2014-05-03T15:04:47Z</time>
      </trkpt>
      <trkpt lat="39.583726011075" lon="3.016665758922">
        <ele>140</ele>
        <time>2014-05-03T15:04:48Z</time>
      </trkpt>
      <trkpt lat="39.583810835903" lon="3.016743710592">
        <ele>140</ele>
        <time>2014-05-03T15:04:49Z</time>
      </trkpt>
      <trkpt lat="39.584142088591" lon="3.016999358542">
        <ele>140.4</ele>
        <time>2014-05-03T15:04:53Z</time>
      </trkpt>
      <trkpt lat="39.584245605056" lon="3.017069347407">
        <ele>141.4</ele>
        <time>2014-05-03T15:04:54Z</time>
      </trkpt>
      <trkpt lat="39.584327160943" lon="3.017125925232">
        <ele>142</ele>
        <time>2014-05-03T15:04:55Z</time>
      </trkpt>
      <trkpt lat="39.584408800649" lon="3.017184011799">
        <ele>142.4</ele>
        <time>2014-05-03T15:04:56Z</time>
      </trkpt>
      <trkpt lat="39.58450175592" lon="3.017247462782">
        <ele>142.4</ele>
        <time>2014-05-03T15:04:57Z</time>
      </trkpt>
      <trkpt lat="39.584587754214" lon="3.017307644824">
        <ele>142.4</ele>
        <time>2014-05-03T15:04:58Z</time>
      </trkpt>
      <trkpt lat="39.584676183259" lon="3.017371850178">
        <ele>142.4</ele>
        <time>2014-05-03T15:04:59Z</time>
      </trkpt>
      <trkpt lat="39.584764277028" lon="3.017441671405">
        <ele>142.4</ele>
        <time>2014-05-03T15:05:00Z</time>
      </trkpt>
      <trkpt lat="39.584854717729" lon="3.017517276143">
        <ele>142.4</ele>
        <time>2014-05-03T15:05:01Z</time>
      </trkpt>
      <trkpt lat="39.585024702661" lon="3.017678208623">
        <ele>142.4</ele>
        <time>2014-05-03T15:05:03Z</time>
      </trkpt>
      <trkpt lat="39.58519745362" lon="3.017873255436">
        <ele>142</ele>
        <time>2014-05-03T15:05:05Z</time>
      </trkpt>
      <trkpt lat="39.58527791986" lon="3.017983142145">
        <ele>141.6</ele>
        <time>2014-05-03T15:05:06Z</time>
      </trkpt>
      <trkpt lat="39.585359475747" lon="3.01809923146">
        <ele>141.2</ele>
        <time>2014-05-03T15:05:07Z</time>
      </trkpt>
      <trkpt lat="39.58543801415" lon="3.018224037951">
        <ele>140.6</ele>
        <time>2014-05-03T15:05:08Z</time>
      </trkpt>
      <trkpt lat="39.585514037983" lon="3.018349766451">
        <ele>140</ele>
        <time>2014-05-03T15:05:09Z</time>
      </trkpt>
      <trkpt lat="39.585587128151" lon="3.018480188815">
        <ele>139.4</ele>
        <time>2014-05-03T15:05:10Z</time>
      </trkpt>
      <trkpt lat="39.585656697921" lon="3.018611952283">
        <ele>139</ele>
        <time>2014-05-03T15:05:11Z</time>
      </trkpt>
      <trkpt lat="39.58573221884" lon="3.018758551714">
        <ele>138.4</ele>
        <time>2014-05-03T15:05:12Z</time>
      </trkpt>
      <trkpt lat="39.585803548809" lon="3.018891404829">
        <ele>137.8</ele>
        <time>2014-05-03T15:05:13Z</time>
      </trkpt>
      <trkpt lat="39.585872364208" lon="3.019020737546">
        <ele>137.2</ele>
        <time>2014-05-03T15:05:14Z</time>
      </trkpt>
      <trkpt lat="39.58594092815" lon="3.019148729159">
        <ele>136</ele>
        <time>2014-05-03T15:05:15Z</time>
      </trkpt>
      <trkpt lat="39.586008402445" lon="3.019275714944">
        <ele>136</ele>
        <time>2014-05-03T15:05:16Z</time>
      </trkpt>
      <trkpt lat="39.586074451817" lon="3.01940010234">
        <ele>135.6</ele>
        <time>2014-05-03T15:05:17Z</time>
      </trkpt>
      <trkpt lat="39.586139830637" lon="3.019522394261">
        <ele>135</ele>
        <time>2014-05-03T15:05:18Z</time>
      </trkpt>
      <trkpt lat="39.586206466742" lon="3.019646697838">
        <ele>134.6</ele>
        <time>2014-05-03T15:05:19Z</time>
      </trkpt>
      <trkpt lat="39.586270839734" lon="3.019769408854">
        <ele>134</ele>
        <time>2014-05-03T15:05:20Z</time>
      </trkpt>
      <trkpt lat="39.586339487495" lon="3.019894382983">
        <ele>133.4</ele>
        <time>2014-05-03T15:05:21Z</time>
      </trkpt>
      <trkpt lat="39.586534785765" lon="3.020258827995">
        <ele>133.4</ele>
        <time>2014-05-03T15:05:24Z</time>
      </trkpt>
      <trkpt lat="39.586838294364" lon="3.020837179095">
        <ele>133.4</ele>
        <time>2014-05-03T15:05:29Z</time>
      </trkpt>
      <trkpt lat="39.586896716207" lon="3.020948826003">
        <ele>133.4</ele>
        <time>2014-05-03T15:05:30Z</time>
      </trkpt>
      <trkpt lat="39.587010626228" lon="3.021170443439">
        <ele>133.4</ele>
        <time>2014-05-03T15:05:32Z</time>
      </trkpt>
      <trkpt lat="39.587124620068" lon="3.02138493626">
        <ele>133</ele>
        <time>2014-05-03T15:05:34Z</time>
      </trkpt>
      <trkpt lat="39.587179102418" lon="3.021486608707">
        <ele>132.6</ele>
        <time>2014-05-03T15:05:35Z</time>
      </trkpt>
      <trkpt lat="39.587237691899" lon="3.021597249787">
        <ele>132</ele>
        <time>2014-05-03T15:05:36Z</time>
      </trkpt>
      <trkpt lat="39.587294605" lon="3.02170261027">
        <ele>131.6</ele>
        <time>2014-05-03T15:05:37Z</time>
      </trkpt>
      <trkpt lat="39.587351015187" lon="3.021807970753">
        <ele>131</ele>
        <time>2014-05-03T15:05:38Z</time>
      </trkpt>
      <trkpt lat="39.58740189332" lon="3.0219096432">
        <ele>131</ele>
        <time>2014-05-03T15:05:39Z</time>
      </trkpt>
      <trkpt lat="39.587453777281" lon="3.02201106419">
        <ele>131</ele>
        <time>2014-05-03T15:05:40Z</time>
      </trkpt>
      <trkpt lat="39.587505912699" lon="3.022113071913">
        <ele>131</ele>
        <time>2014-05-03T15:05:41Z</time>
      </trkpt>
      <trkpt lat="39.58761646996" lon="3.022315075703">
        <ele>131</ele>
        <time>2014-05-03T15:05:43Z</time>
      </trkpt>
      <trkpt lat="39.587835656645" lon="3.022724950613">
        <ele>131</ele>
        <time>2014-05-03T15:05:47Z</time>
      </trkpt>
      <trkpt lat="39.58788804352" lon="3.022823437938">
        <ele>131</ele>
        <time>2014-05-03T15:05:48Z</time>
      </trkpt>
      <trkpt lat="39.587941352404" lon="3.022920751797">
        <ele>131</ele>
        <time>2014-05-03T15:05:49Z</time>
      </trkpt>
      <trkpt lat="39.587992984908" lon="3.023015551086">
        <ele>131</ele>
        <time>2014-05-03T15:05:50Z</time>
      </trkpt>
      <trkpt lat="39.588102033427" lon="3.02322141055">
        <ele>131</ele>
        <time>2014-05-03T15:05:52Z</time>
      </trkpt>
      <trkpt lat="39.588153582112" lon="3.023323921187">
        <ele>131</ele>
        <time>2014-05-03T15:05:53Z</time>
      </trkpt>
      <trkpt lat="39.588206388082" lon="3.023424420168">
        <ele>131</ele>
        <time>2014-05-03T15:05:54Z</time>
      </trkpt>
      <trkpt lat="39.588258942595" lon="3.023528020452">
        <ele>131</ele>
        <time>2014-05-03T15:05:55Z</time>
      </trkpt>
      <trkpt lat="39.588310994194" lon="3.023628435614">
        <ele>130.6</ele>
        <time>2014-05-03T15:05:56Z</time>
      </trkpt>
      <trkpt lat="39.588363883983" lon="3.023727090577">
        <ele>130.2</ele>
        <time>2014-05-03T15:05:57Z</time>
      </trkpt>
      <trkpt lat="39.588416689953" lon="3.023824236798">
        <ele>129.8</ele>
        <time>2014-05-03T15:05:58Z</time>
      </trkpt>
      <trkpt lat="39.588471591398" lon="3.023928088539">
        <ele>129.2</ele>
        <time>2014-05-03T15:05:59Z</time>
      </trkpt>
      <trkpt lat="39.588524145911" lon="3.02402439657">
        <ele>128.8</ele>
        <time>2014-05-03T15:06:00Z</time>
      </trkpt>
      <trkpt lat="39.588738471094" lon="3.024405605382">
        <ele>128.8</ele>
        <time>2014-05-03T15:06:04Z</time>
      </trkpt>
      <trkpt lat="39.588965285308" lon="3.024780360131">
        <ele>128.8</ele>
        <time>2014-05-03T15:06:08Z</time>
      </trkpt>
      <trkpt lat="39.589022701323" lon="3.024872477212">
        <ele>128.8</ele>
        <time>2014-05-03T15:06:09Z</time>
      </trkpt>
      <trkpt lat="39.589079362967" lon="3.02496484575">
        <ele>128.8</ele>
        <time>2014-05-03T15:06:10Z</time>
      </trkpt>
      <trkpt lat="39.589199056499" lon="3.025142709668">
        <ele>128.8</ele>
        <time>2014-05-03T15:06:12Z</time>
      </trkpt>
      <trkpt lat="39.589570039393" lon="3.025674876499">
        <ele>128.8</ele>
        <time>2014-05-03T15:06:18Z</time>
      </trkpt>
      <trkpt lat="39.589705909992" lon="3.025856260815">
        <ele>128.4</ele>
        <time>2014-05-03T15:06:20Z</time>
      </trkpt>
      <trkpt lat="39.589777156142" lon="3.025947539706">
        <ele>128</ele>
        <time>2014-05-03T15:06:21Z</time>
      </trkpt>
      <trkpt lat="39.589852509423" lon="3.026043177185">
        <ele>127.6</ele>
        <time>2014-05-03T15:06:22Z</time>
      </trkpt>
      <trkpt lat="39.589925180496" lon="3.026130684221">
        <ele>127.2</ele>
        <time>2014-05-03T15:06:23Z</time>
      </trkpt>
      <trkpt lat="39.589999527949" lon="3.02621961618">
        <ele>126.8</ele>
        <time>2014-05-03T15:06:24Z</time>
      </trkpt>
      <trkpt lat="39.590070522642" lon="3.026307793768">
        <ele>126.8</ele>
        <time>2014-05-03T15:06:25Z</time>
      </trkpt>
      <trkpt lat="39.590439912975" lon="3.026761841291">
        <ele>126.8</ele>
        <time>2014-05-03T15:06:30Z</time>
      </trkpt>
      <trkpt lat="39.590743924488" lon="3.027126873036">
        <ele>126.4</ele>
        <time>2014-05-03T15:06:34Z</time>
      </trkpt>
      <trkpt lat="39.590823049624" lon="3.027212452235">
        <ele>126</ele>
        <time>2014-05-03T15:06:35Z</time>
      </trkpt>
      <trkpt lat="39.590902761493" lon="3.027295349226">
        <ele>125.6</ele>
        <time>2014-05-03T15:06:36Z</time>
      </trkpt>
      <trkpt lat="39.590987418683" lon="3.027375396371">
        <ele>125.2</ele>
        <time>2014-05-03T15:06:37Z</time>
      </trkpt>
      <trkpt lat="39.591071740597" lon="3.027449492367">
        <ele>124.8</ele>
        <time>2014-05-03T15:06:38Z</time>
      </trkpt>
      <trkpt lat="39.591243988642" lon="3.027581172016">
        <ele>124.4</ele>
        <time>2014-05-03T15:06:40Z</time>
      </trkpt>
      <trkpt lat="39.591330825126" lon="3.02763951004">
        <ele>124</ele>
        <time>2014-05-03T15:06:41Z</time>
      </trkpt>
      <trkpt lat="39.591416739601" lon="3.027699440625">
        <ele>123.6</ele>
        <time>2014-05-03T15:06:42Z</time>
      </trkpt>
      <trkpt lat="39.591505168646" lon="3.027751743681">
        <ele>123.2</ele>
        <time>2014-05-03T15:06:43Z</time>
      </trkpt>
      <trkpt lat="39.591595525528" lon="3.027799855787">
        <ele>122.8</ele>
        <time>2014-05-03T15:06:44Z</time>
      </trkpt>
      <trkpt lat="39.591856956989" lon="3.027906641193">
        <ele>122.8</ele>
        <time>2014-05-03T15:06:47Z</time>
      </trkpt>
      <trkpt lat="39.591940105437" lon="3.02793371473">
        <ele>122.8</ele>
        <time>2014-05-03T15:06:48Z</time>
      </trkpt>
      <trkpt lat="39.592106402333" lon="3.027977468248">
        <ele>122.8</ele>
        <time>2014-05-03T15:06:50Z</time>
      </trkpt>
      <trkpt lat="39.592188880229" lon="3.027996076066">
        <ele>122.8</ele>
        <time>2014-05-03T15:06:51Z</time>
      </trkpt>
      <trkpt lat="39.592355009487" lon="3.028031447684">
        <ele>123.2</ele>
        <time>2014-05-03T15:06:53Z</time>
      </trkpt>
      <trkpt lat="39.592436733012" lon="3.028046451285">
        <ele>123.8</ele>
        <time>2014-05-03T15:06:54Z</time>
      </trkpt>
      <trkpt lat="39.592514517044" lon="3.02806111961">
        <ele>124.2</ele>
        <time>2014-05-03T15:06:55Z</time>
      </trkpt>
      <trkpt lat="39.592589535049" lon="3.028073860098">
        <ele>124.8</ele>
        <time>2014-05-03T15:06:56Z</time>
      </trkpt>
      <trkpt lat="39.592668157271" lon="3.028089869527">
        <ele>125.2</ele>
        <time>2014-05-03T15:06:57Z</time>
      </trkpt>
      <trkpt lat="39.592891367268" lon="3.028151727949">
        <ele>125.2</ele>
        <time>2014-05-03T15:07:00Z</time>
      </trkpt>
      <trkpt lat="39.593036541776" lon="3.028200929702">
        <ele>125.2</ele>
        <time>2014-05-03T15:07:02Z</time>
      </trkpt>
      <trkpt lat="39.593107871745" lon="3.028234541121">
        <ele>125.6</ele>
        <time>2014-05-03T15:07:03Z</time>
      </trkpt>
      <trkpt lat="39.593183392664" lon="3.02826647616">
        <ele>126.2</ele>
        <time>2014-05-03T15:07:04Z</time>
      </trkpt>
      <trkpt lat="39.593257907755" lon="3.028300171398">
        <ele>126.6</ele>
        <time>2014-05-03T15:07:05Z</time>
      </trkpt>
      <trkpt lat="39.593328399534" lon="3.028341577984">
        <ele>127</ele>
        <time>2014-05-03T15:07:06Z</time>
      </trkpt>
      <trkpt lat="39.593399897141" lon="3.028385247683">
        <ele>127.4</ele>
        <time>2014-05-03T15:07:07Z</time>
      </trkpt>
      <trkpt lat="39.593530990057" lon="3.028475856022">
        <ele>127.4</ele>
        <time>2014-05-03T15:07:09Z</time>
      </trkpt>
      <trkpt lat="39.593598296714" lon="3.028528242897">
        <ele>127.4</ele>
        <time>2014-05-03T15:07:10Z</time>
      </trkpt>
      <trkpt lat="39.593725701594" lon="3.028629077154">
        <ele>127.4</ele>
        <time>2014-05-03T15:07:12Z</time>
      </trkpt>
      <trkpt lat="39.593927118651" lon="3.028797553344">
        <ele>127.4</ele>
        <time>2014-05-03T15:07:16Z</time>
      </trkpt>
      <trkpt lat="39.594273291121" lon="3.029087483265">
        <ele>127.4</ele>
        <time>2014-05-03T15:07:21Z</time>
      </trkpt>
      <trkpt lat="39.594740917322" lon="3.029358470092">
        <ele>127.4</ele>
        <time>2014-05-03T15:07:27Z</time>
      </trkpt>
      <trkpt lat="39.595170992611" lon="3.029449329888">
        <ele>127.4</ele>
        <time>2014-05-03T15:07:32Z</time>
      </trkpt>
      <trkpt lat="39.59554658555" lon="3.029523342065">
        <ele>127.4</ele>
        <time>2014-05-03T15:07:37Z</time>
      </trkpt>
      <trkpt lat="39.595735681214" lon="3.029404989637">
        <ele>127.4</ele>
        <time>2014-05-03T15:07:40Z</time>
      </trkpt>
      <trkpt lat="39.595788068089" lon="3.029346316337">
        <ele>127.4</ele>
        <time>2014-05-03T15:07:41Z</time>
      </trkpt>
      <trkpt lat="39.595906252879" lon="3.029240620578">
        <ele>127</ele>
        <time>2014-05-03T15:07:43Z</time>
      </trkpt>
      <trkpt lat="39.595972553708" lon="3.029206338607">
        <ele>126.6</ele>
        <time>2014-05-03T15:07:44Z</time>
      </trkpt>
      <trkpt lat="39.596043296944" lon="3.029180857631">
        <ele>126.2</ele>
        <time>2014-05-03T15:07:45Z</time>
      </trkpt>
      <trkpt lat="39.596116890026" lon="3.02915831032">
        <ele>125.8</ele>
        <time>2014-05-03T15:07:46Z</time>
      </trkpt>
      <trkpt lat="39.596191321298" lon="3.029134757181">
        <ele>125.4</ele>
        <time>2014-05-03T15:07:47Z</time>
      </trkpt>
      <trkpt lat="39.596263824733" lon="3.029108521834">
        <ele>125.4</ele>
        <time>2014-05-03T15:07:48Z</time>
      </trkpt>
      <trkpt lat="39.596498601752" lon="3.029017578219">
        <ele>125.4</ele>
        <time>2014-05-03T15:07:51Z</time>
      </trkpt>
      <trkpt lat="39.596737150626" lon="3.028904841664">
        <ele>125.4</ele>
        <time>2014-05-03T15:07:54Z</time>
      </trkpt>
      <trkpt lat="39.596813509735" lon="3.028870559693">
        <ele>125.4</ele>
        <time>2014-05-03T15:07:55Z</time>
      </trkpt>
      <trkpt lat="39.597143924233" lon="3.02872580428">
        <ele>125.4</ele>
        <time>2014-05-03T15:07:59Z</time>
      </trkpt>
      <trkpt lat="39.597324637997" lon="3.028645421859">
        <ele>125.4</ele>
        <time>2014-05-03T15:08:01Z</time>
      </trkpt>
      <trkpt lat="39.597421532761" lon="3.028600662513">
        <ele>125.4</ele>
        <time>2014-05-03T15:08:02Z</time>
      </trkpt>
      <trkpt lat="39.597598558489" lon="3.028516927332">
        <ele>125.4</ele>
        <time>2014-05-03T15:08:04Z</time>
      </trkpt>
      <trkpt lat="39.597684975878" lon="3.028472000348">
        <ele>125.4</ele>
        <time>2014-05-03T15:08:05Z</time>
      </trkpt>
      <trkpt lat="39.597767956688" lon="3.02842657045">
        <ele>125.4</ele>
        <time>2014-05-03T15:08:06Z</time>
      </trkpt>
      <trkpt lat="39.598274139629" lon="3.028096407409">
        <ele>125.4</ele>
        <time>2014-05-03T15:08:12Z</time>
      </trkpt>
      <trkpt lat="39.598356868982" lon="3.028038237023">
        <ele>125.4</ele>
        <time>2014-05-03T15:08:13Z</time>
      </trkpt>
      <trkpt lat="39.598441442353" lon="3.027979396085">
        <ele>125.4</ele>
        <time>2014-05-03T15:08:14Z</time>
      </trkpt>
      <trkpt lat="39.598703041452" lon="3.02779038424">
        <ele>125.4</ele>
        <time>2014-05-03T15:08:17Z</time>
      </trkpt>
      <trkpt lat="39.599029600276" lon="3.027546135674">
        <ele>125.4</ele>
        <time>2014-05-03T15:08:21Z</time>
      </trkpt>
      <trkpt lat="39.59911224581" lon="3.027485031623">
        <ele>125.4</ele>
        <time>2014-05-03T15:08:22Z</time>
      </trkpt>
      <trkpt lat="39.599363199896" lon="3.027279758892">
        <ele>125</ele>
        <time>2014-05-03T15:08:25Z</time>
      </trkpt>
      <trkpt lat="39.599444336688" lon="3.027213793339">
        <ele>124.6</ele>
        <time>2014-05-03T15:08:26Z</time>
      </trkpt>
      <trkpt lat="39.599522036901" lon="3.027151096727">
        <ele>124</ele>
        <time>2014-05-03T15:08:27Z</time>
      </trkpt>
      <trkpt lat="39.599606191177" lon="3.027081191681">
        <ele>123.6</ele>
        <time>2014-05-03T15:08:28Z</time>
      </trkpt>
      <trkpt lat="39.599684981037" lon="3.027016315775">
        <ele>123.2</ele>
        <time>2014-05-03T15:08:29Z</time>
      </trkpt>
      <trkpt lat="39.599918919866" lon="3.026828058301">
        <ele>122.8</ele>
        <time>2014-05-03T15:08:32Z</time>
      </trkpt>
      <trkpt lat="39.599995195156" lon="3.026759494359">
        <ele>122</ele>
        <time>2014-05-03T15:08:33Z</time>
      </trkpt>
      <trkpt lat="39.600070129342" lon="3.026691852426">
        <ele>121.6</ele>
        <time>2014-05-03T15:08:34Z</time>
      </trkpt>
      <trkpt lat="39.60014573408" lon="3.026626641244">
        <ele>121</ele>
        <time>2014-05-03T15:08:35Z</time>
      </trkpt>
      <trkpt lat="39.600220500628" lon="3.026559586044">
        <ele>121</ele>
        <time>2014-05-03T15:08:36Z</time>
      </trkpt>
      <trkpt lat="39.600294848081" lon="3.026495715966">
        <ele>121</ele>
        <time>2014-05-03T15:08:37Z</time>
      </trkpt>
      <trkpt lat="39.600440525503" lon="3.026371160932">
        <ele>120.6</ele>
        <time>2014-05-03T15:08:39Z</time>
      </trkpt>
      <trkpt lat="39.600514453861" lon="3.026304608646">
        <ele>120.2</ele>
        <time>2014-05-03T15:08:40Z</time>
      </trkpt>
      <trkpt lat="39.600582850165" lon="3.026241576758">
        <ele>119.8</ele>
        <time>2014-05-03T15:08:41Z</time>
      </trkpt>
      <trkpt lat="39.600651665564" lon="3.026177119947">
        <ele>119.2</ele>
        <time>2014-05-03T15:08:42Z</time>
      </trkpt>
      <trkpt lat="39.600719726592" lon="3.026107550177">
        <ele>118.8</ele>
        <time>2014-05-03T15:08:43Z</time>
      </trkpt>
      <trkpt lat="39.600788290534" lon="3.026038650959">
        <ele>118.8</ele>
        <time>2014-05-03T15:08:44Z</time>
      </trkpt>
      <trkpt lat="39.600988366487" lon="3.02581644679">
        <ele>118.8</ele>
        <time>2014-05-03T15:08:47Z</time>
      </trkpt>
      <trkpt lat="39.601186179327" lon="3.025577646459">
        <ele>118.8</ele>
        <time>2014-05-03T15:08:50Z</time>
      </trkpt>
      <trkpt lat="39.601464039312" lon="3.025241867545">
        <ele>118.4</ele>
        <time>2014-05-03T15:08:54Z</time>
      </trkpt>
      <trkpt lat="39.601539560231" lon="3.025147068256">
        <ele>118</ele>
        <time>2014-05-03T15:08:55Z</time>
      </trkpt>
      <trkpt lat="39.601613488589" lon="3.025055537908">
        <ele>117.6</ele>
        <time>2014-05-03T15:08:56Z</time>
      </trkpt>
      <trkpt lat="39.601691775535" lon="3.024965264845">
        <ele>117.2</ele>
        <time>2014-05-03T15:08:57Z</time>
      </trkpt>
      <trkpt lat="39.601775091621" lon="3.024879685646">
        <ele>116.2</ele>
        <time>2014-05-03T15:08:58Z</time>
      </trkpt>
      <trkpt lat="39.601858575345" lon="3.02479636956">
        <ele>115.8</ele>
        <time>2014-05-03T15:08:59Z</time>
      </trkpt>
      <trkpt lat="39.601946836752" lon="3.02471841789">
        <ele>115.2</ele>
        <time>2014-05-03T15:09:00Z</time>
      </trkpt>
      <trkpt lat="39.602037109815" lon="3.024644154256">
        <ele>114.8</ele>
        <time>2014-05-03T15:09:01Z</time>
      </trkpt>
      <trkpt lat="39.602128723982" lon="3.024575590314">
        <ele>114.2</ele>
        <time>2014-05-03T15:09:02Z</time>
      </trkpt>
      <trkpt lat="39.602318909293" lon="3.024452627841">
        <ele>113.8</ele>
        <time>2014-05-03T15:09:04Z</time>
      </trkpt>
      <trkpt lat="39.602413205668" lon="3.024398732224">
        <ele>113.4</ele>
        <time>2014-05-03T15:09:05Z</time>
      </trkpt>
      <trkpt lat="39.602507418224" lon="3.024352464136">
        <ele>113</ele>
        <time>2014-05-03T15:09:06Z</time>
      </trkpt>
      <trkpt lat="39.602600624952" lon="3.024311225188">
        <ele>112.6</ele>
        <time>2014-05-03T15:09:07Z</time>
      </trkpt>
      <trkpt lat="39.602692322938" lon="3.024272752267">
        <ele>112.2</ele>
        <time>2014-05-03T15:09:08Z</time>
      </trkpt>
      <trkpt lat="39.602872282331" lon="3.024196812253">
        <ele>112.2</ele>
        <time>2014-05-03T15:09:10Z</time>
      </trkpt>
      <trkpt lat="39.602966913982" lon="3.024156411495">
        <ele>112.2</ele>
        <time>2014-05-03T15:09:11Z</time>
      </trkpt>
      <trkpt lat="39.603323144732" lon="3.024004363829">
        <ele>112.2</ele>
        <time>2014-05-03T15:09:15Z</time>
      </trkpt>
      <trkpt lat="39.603414255985" lon="3.023968405478">
        <ele>112.2</ele>
        <time>2014-05-03T15:09:16Z</time>
      </trkpt>
      <trkpt lat="39.603691361599" lon="3.023850723602">
        <ele>112.2</ele>
        <time>2014-05-03T15:09:19Z</time>
      </trkpt>
      <trkpt lat="39.603781634662" lon="3.023813843242">
        <ele>112.2</ele>
        <time>2014-05-03T15:09:20Z</time>
      </trkpt>
      <trkpt lat="39.60387232682" lon="3.02377713052">
        <ele>111.6</ele>
        <time>2014-05-03T15:09:21Z</time>
      </trkpt>
      <trkpt lat="39.603965617367" lon="3.023737903228">
        <ele>110.8</ele>
        <time>2014-05-03T15:09:22Z</time>
      </trkpt>
      <trkpt lat="39.604057315353" lon="3.023698005384">
        <ele>110.4</ele>
        <time>2014-05-03T15:09:23Z</time>
      </trkpt>
      <trkpt lat="39.604150102986" lon="3.023658358997">
        <ele>110</ele>
        <time>2014-05-03T15:09:24Z</time>
      </trkpt>
      <trkpt lat="39.604240124592" lon="3.023620640447">
        <ele>110</ele>
        <time>2014-05-03T15:09:25Z</time>
      </trkpt>
      <trkpt lat="39.604334420967" lon="3.023583005716">
        <ele>110</ele>
        <time>2014-05-03T15:09:26Z</time>
      </trkpt>
      <trkpt lat="39.604423939659" lon="3.023547047365">
        <ele>110</ele>
        <time>2014-05-03T15:09:27Z</time>
      </trkpt>
      <trkpt lat="39.60451354217" lon="3.023510418462">
        <ele>110</ele>
        <time>2014-05-03T15:09:28Z</time>
      </trkpt>
      <trkpt lat="39.604692579554" lon="3.023433807896">
        <ele>109.6</ele>
        <time>2014-05-03T15:09:30Z</time>
      </trkpt>
      <trkpt lat="39.604782098246" lon="3.023396424622">
        <ele>109</ele>
        <time>2014-05-03T15:09:31Z</time>
      </trkpt>
      <trkpt lat="39.604870862567" lon="3.023357113511">
        <ele>108.6</ele>
        <time>2014-05-03T15:09:32Z</time>
      </trkpt>
      <trkpt lat="39.604963734019" lon="3.023317215667">
        <ele>108.2</ele>
        <time>2014-05-03T15:09:33Z</time>
      </trkpt>
      <trkpt lat="39.605052330702" lon="3.023281089678">
        <ele>107.8</ele>
        <time>2014-05-03T15:09:34Z</time>
      </trkpt>
      <trkpt lat="39.605228434421" lon="3.023207077501">
        <ele>107.8</ele>
        <time>2014-05-03T15:09:36Z</time>
      </trkpt>
      <trkpt lat="39.605317450199" lon="3.02317028096">
        <ele>107.8</ele>
        <time>2014-05-03T15:09:37Z</time>
      </trkpt>
      <trkpt lat="39.605834278153" lon="3.022950507542">
        <ele>107.8</ele>
        <time>2014-05-03T15:09:43Z</time>
      </trkpt>
      <trkpt lat="39.606076598882" lon="3.02284590143">
        <ele>107.8</ele>
        <time>2014-05-03T15:09:46Z</time>
      </trkpt>
      <trkpt lat="39.606411874882" lon="3.0227059237">
        <ele>107.8</ele>
        <time>2014-05-03T15:09:50Z</time>
      </trkpt>
      <trkpt lat="39.606752682936" lon="3.022586230168">
        <ele>107.8</ele>
        <time>2014-05-03T15:09:54Z</time>
      </trkpt>
      <trkpt lat="39.606930630673" lon="3.022545242677">
        <ele>107.8</ele>
        <time>2014-05-03T15:09:56Z</time>
      </trkpt>
      <trkpt lat="39.607198348559" lon="3.022513642914">
        <ele>107.8</ele>
        <time>2014-05-03T15:09:59Z</time>
      </trkpt>
      <trkpt lat="39.607287280518" lon="3.022509535783">
        <ele>107.8</ele>
        <time>2014-05-03T15:10:00Z</time>
      </trkpt>
      <trkpt lat="39.607556339508" lon="3.022527975963">
        <ele>107.8</ele>
        <time>2014-05-03T15:10:03Z</time>
      </trkpt>
      <trkpt lat="39.607734119607" lon="3.022549768903">
        <ele>107.8</ele>
        <time>2014-05-03T15:10:05Z</time>
      </trkpt>
      <trkpt lat="39.607820536996" lon="3.022561671201">
        <ele>107.8</ele>
        <time>2014-05-03T15:10:06Z</time>
      </trkpt>
      <trkpt lat="39.608090601814" lon="3.022603580701">
        <ele>107.8</ele>
        <time>2014-05-03T15:10:09Z</time>
      </trkpt>
      <trkpt lat="39.608453118989" lon="3.022674743032">
        <ele>107.8</ele>
        <time>2014-05-03T15:10:13Z</time>
      </trkpt>
      <trkpt lat="39.608544230242" lon="3.022690081909">
        <ele>107.4</ele>
        <time>2014-05-03T15:10:14Z</time>
      </trkpt>
      <trkpt lat="39.608634587124" lon="3.0227059237">
        <ele>107</ele>
        <time>2014-05-03T15:10:15Z</time>
      </trkpt>
      <trkpt lat="39.608724273454" lon="3.022720675844">
        <ele>106.6</ele>
        <time>2014-05-03T15:10:16Z</time>
      </trkpt>
      <trkpt lat="39.608814797974" lon="3.022735930902">
        <ele>106.2</ele>
        <time>2014-05-03T15:10:17Z</time>
      </trkpt>
      <trkpt lat="39.608906915055" lon="3.02275202415">
        <ele>105.8</ele>
        <time>2014-05-03T15:10:18Z</time>
      </trkpt>
      <trkpt lat="39.609094334339" lon="3.022785887026">
        <ele>105.8</ele>
        <time>2014-05-03T15:10:20Z</time>
      </trkpt>
      <trkpt lat="39.609185780868" lon="3.022802650826">
        <ele>105.8</ele>
        <time>2014-05-03T15:10:21Z</time>
      </trkpt>
      <trkpt lat="39.609637230002" lon="3.022889403491">
        <ele>105.8</ele>
        <time>2014-05-03T15:10:26Z</time>
      </trkpt>
      <trkpt lat="39.609917772195" lon="3.022957632157">
        <ele>105.8</ele>
        <time>2014-05-03T15:10:29Z</time>
      </trkpt>
      <trkpt lat="39.610464858808" lon="3.023124515786">
        <ele>105.8</ele>
        <time>2014-05-03T15:10:35Z</time>
      </trkpt>
      <trkpt lat="39.610728050468" lon="3.023212693374">
        <ele>105.8</ele>
        <time>2014-05-03T15:10:38Z</time>
      </trkpt>
      <trkpt lat="39.611263737697" lon="3.02340916511">
        <ele>105.8</ele>
        <time>2014-05-03T15:10:44Z</time>
      </trkpt>
      <trkpt lat="39.611525504434" lon="3.023504299675">
        <ele>105.8</ele>
        <time>2014-05-03T15:10:47Z</time>
      </trkpt>
      <trkpt lat="39.612059012369" lon="3.023689874941">
        <ele>105.8</ele>
        <time>2014-05-03T15:10:53Z</time>
      </trkpt>
      <trkpt lat="39.6123145765" lon="3.023783500764">
        <ele>105.8</ele>
        <time>2014-05-03T15:10:56Z</time>
      </trkpt>
      <trkpt lat="39.612895023075" lon="3.023995479015">
        <ele>105.8</ele>
        <time>2014-05-03T15:11:03Z</time>
      </trkpt>
      <trkpt lat="39.612976159867" lon="3.024022049638">
        <ele>105.8</ele>
        <time>2014-05-03T15:11:04Z</time>
      </trkpt>
      <trkpt lat="39.613460298411" lon="3.024183149756">
        <ele>105.8</ele>
        <time>2014-05-03T15:11:10Z</time>
      </trkpt>
      <trkpt lat="39.613545458515" lon="3.024205277972">
        <ele>105.8</ele>
        <time>2014-05-03T15:11:11Z</time>
      </trkpt>
      <trkpt lat="39.614052814922" lon="3.024273925733">
        <ele>105.8</ele>
        <time>2014-05-03T15:11:17Z</time>
      </trkpt>
      <trkpt lat="39.614397981564" lon="3.024280463615">
        <ele>105.8</ele>
        <time>2014-05-03T15:11:21Z</time>
      </trkpt>
      <trkpt lat="39.61467072859" lon="3.024269231869">
        <ele>105.8</ele>
        <time>2014-05-03T15:11:24Z</time>
      </trkpt>
      <trkpt lat="39.614761336929" lon="3.024261855797">
        <ele>105.8</ele>
        <time>2014-05-03T15:11:25Z</time>
      </trkpt>
      <trkpt lat="39.615320409659" lon="3.024228244378">
        <ele>105.8</ele>
        <time>2014-05-03T15:11:31Z</time>
      </trkpt>
      <trkpt lat="39.615704133041" lon="3.024209552741">
        <ele>105.8</ele>
        <time>2014-05-03T15:11:35Z</time>
      </trkpt>
      <trkpt lat="39.616305282909" lon="3.024172588562">
        <ele>105.8</ele>
        <time>2014-05-03T15:11:41Z</time>
      </trkpt>
      <trkpt lat="39.616614826476" lon="3.024156579133">
        <ele>105.8</ele>
        <time>2014-05-03T15:11:44Z</time>
      </trkpt>
      <trkpt lat="39.616718678217" lon="3.024152304364">
        <ele>105.4</ele>
        <time>2014-05-03T15:11:45Z</time>
      </trkpt>
      <trkpt lat="39.616822278501" lon="3.024143587188">
        <ele>105</ele>
        <time>2014-05-03T15:11:46Z</time>
      </trkpt>
      <trkpt lat="39.616923448034" lon="3.024134953831">
        <ele>104.6</ele>
        <time>2014-05-03T15:11:47Z</time>
      </trkpt>
      <trkpt lat="39.617022773549" lon="3.024128248311">
        <ele>104.2</ele>
        <time>2014-05-03T15:11:48Z</time>
      </trkpt>
      <trkpt lat="39.617121344693" lon="3.024120704601">
        <ele>103.8</ele>
        <time>2014-05-03T15:11:49Z</time>
      </trkpt>
      <trkpt lat="39.617220334932" lon="3.02411575928">
        <ele>103.8</ele>
        <time>2014-05-03T15:11:50Z</time>
      </trkpt>
      <trkpt lat="39.61731773261" lon="3.024110646321">
        <ele>103.8</ele>
        <time>2014-05-03T15:11:51Z</time>
      </trkpt>
      <trkpt lat="39.617511689776" lon="3.024103270249">
        <ele>103.8</ele>
        <time>2014-05-03T15:11:53Z</time>
      </trkpt>
      <trkpt lat="39.617889042914" lon="3.024082818413">
        <ele>103.8</ele>
        <time>2014-05-03T15:11:57Z</time>
      </trkpt>
      <trkpt lat="39.617984261298" lon="3.024074436513">
        <ele>103.8</ele>
        <time>2014-05-03T15:11:58Z</time>
      </trkpt>
      <trkpt lat="39.61807880913" lon="3.02406714426">
        <ele>103.8</ele>
        <time>2014-05-03T15:11:59Z</time>
      </trkpt>
      <trkpt lat="39.618179559568" lon="3.024059684369">
        <ele>103.8</ele>
        <time>2014-05-03T15:12:00Z</time>
      </trkpt>
      <trkpt lat="39.618364548101" lon="3.024049793727">
        <ele>103.8</ele>
        <time>2014-05-03T15:12:02Z</time>
      </trkpt>
      <trkpt lat="39.618454402069" lon="3.02404618951">
        <ele>103.8</ele>
        <time>2014-05-03T15:12:03Z</time>
      </trkpt>
      <trkpt lat="39.618542412019" lon="3.024042166198">
        <ele>103.8</ele>
        <time>2014-05-03T15:12:04Z</time>
      </trkpt>
      <trkpt lat="39.618633523272" lon="3.024035963592">
        <ele>103.8</ele>
        <time>2014-05-03T15:12:05Z</time>
      </trkpt>
      <trkpt lat="39.618723796335" lon="3.024029593348">
        <ele>103.8</ele>
        <time>2014-05-03T15:12:06Z</time>
      </trkpt>
      <trkpt lat="39.618816583968" lon="3.024020373258">
        <ele>103.8</ele>
        <time>2014-05-03T15:12:07Z</time>
      </trkpt>
      <trkpt lat="39.618906857031" lon="3.02400847096">
        <ele>103.8</ele>
        <time>2014-05-03T15:12:08Z</time>
      </trkpt>
      <trkpt lat="39.618996459542" lon="3.023993215902">
        <ele>103.8</ele>
        <time>2014-05-03T15:12:09Z</time>
      </trkpt>
      <trkpt lat="39.619085978234" lon="3.023974524265">
        <ele>103.8</ele>
        <time>2014-05-03T15:12:10Z</time>
      </trkpt>
      <trkpt lat="39.619173736727" lon="3.023952396049">
        <ele>103.8</ele>
        <time>2014-05-03T15:12:11Z</time>
      </trkpt>
      <trkpt lat="39.619677321279" lon="3.023765479679">
        <ele>103.8</ele>
        <time>2014-05-03T15:12:17Z</time>
      </trkpt>
      <trkpt lat="39.619758038976" lon="3.023727006758">
        <ele>103.8</ele>
        <time>2014-05-03T15:12:18Z</time>
      </trkpt>
      <trkpt lat="39.619835487732" lon="3.023685432534">
        <ele>103.8</ele>
        <time>2014-05-03T15:12:19Z</time>
      </trkpt>
      <trkpt lat="39.619914026135" lon="3.023642014292">
        <ele>103.8</ele>
        <time>2014-05-03T15:12:20Z</time>
      </trkpt>
      <trkpt lat="39.620240836416" lon="3.023448643859">
        <ele>103.8</ele>
        <time>2014-05-03T15:12:24Z</time>
      </trkpt>
      <trkpt lat="39.620478044186" lon="3.023298859306">
        <ele>103.8</ele>
        <time>2014-05-03T15:12:27Z</time>
      </trkpt>
      <trkpt lat="39.620558761883" lon="3.023247645897">
        <ele>103.8</ele>
        <time>2014-05-03T15:12:28Z</time>
      </trkpt>
      <trkpt lat="39.620727908625" lon="3.023148236563">
        <ele>103.8</ele>
        <time>2014-05-03T15:12:30Z</time>
      </trkpt>
      <trkpt lat="39.620895546625" lon="3.023042792261">
        <ele>103.8</ele>
        <time>2014-05-03T15:12:32Z</time>
      </trkpt>
      <trkpt lat="39.620977437788" lon="3.022991495033">
        <ele>103.8</ele>
        <time>2014-05-03T15:12:33Z</time>
      </trkpt>
      <trkpt lat="39.621061172969" lon="3.022940868357">
        <ele>103.8</ele>
        <time>2014-05-03T15:12:34Z</time>
      </trkpt>
      <trkpt lat="39.621565847168" lon="3.022628474944">
        <ele>103.8</ele>
        <time>2014-05-03T15:12:40Z</time>
      </trkpt>
      <trkpt lat="39.621649917625" lon="3.022579524648">
        <ele>103.8</ele>
        <time>2014-05-03T15:12:41Z</time>
      </trkpt>
      <trkpt lat="39.622163728095" lon="3.022256570041">
        <ele>103.8</ele>
        <time>2014-05-03T15:12:47Z</time>
      </trkpt>
      <trkpt lat="39.622248301466" lon="3.022202506786">
        <ele>103.8</ele>
        <time>2014-05-03T15:12:48Z</time>
      </trkpt>
      <trkpt lat="39.622332707199" lon="3.022151209558">
        <ele>103.4</ele>
        <time>2014-05-03T15:12:49Z</time>
      </trkpt>
      <trkpt lat="39.622419627502" lon="3.022097733036">
        <ele>103</ele>
        <time>2014-05-03T15:12:50Z</time>
      </trkpt>
      <trkpt lat="39.622508894737" lon="3.022039311193">
        <ele>102.4</ele>
        <time>2014-05-03T15:12:51Z</time>
      </trkpt>
      <trkpt lat="39.6225991678" lon="3.021983571558">
        <ele>102</ele>
        <time>2014-05-03T15:12:52Z</time>
      </trkpt>
      <trkpt lat="39.622689273225" lon="3.021927748104">
        <ele>101.6</ele>
        <time>2014-05-03T15:12:53Z</time>
      </trkpt>
      <trkpt lat="39.622870238446" lon="3.02181157497">
        <ele>101.6</ele>
        <time>2014-05-03T15:12:55Z</time>
      </trkpt>
      <trkpt lat="39.623048772916" lon="3.021694982741">
        <ele>101.6</ele>
        <time>2014-05-03T15:12:57Z</time>
      </trkpt>
      <trkpt lat="39.623134855029" lon="3.021634800699">
        <ele>101.6</ele>
        <time>2014-05-03T15:12:58Z</time>
      </trkpt>
      <trkpt lat="39.623221607694" lon="3.021572187906">
        <ele>101.6</ele>
        <time>2014-05-03T15:12:59Z</time>
      </trkpt>
      <trkpt lat="39.623308444178" lon="3.021510916217">
        <ele>101.6</ele>
        <time>2014-05-03T15:13:00Z</time>
      </trkpt>
      <trkpt lat="39.623401064173" lon="3.021444280112">
        <ele>101.6</ele>
        <time>2014-05-03T15:13:01Z</time>
      </trkpt>
      <trkpt lat="39.623837090611" lon="3.021114284709">
        <ele>101.6</ele>
        <time>2014-05-03T15:13:06Z</time>
      </trkpt>
      <trkpt lat="39.624011015036" lon="3.020979671395">
        <ele>101.6</ele>
        <time>2014-05-03T15:13:08Z</time>
      </trkpt>
      <trkpt lat="39.624521808022" lon="3.020559235291">
        <ele>101.6</ele>
        <time>2014-05-03T15:13:14Z</time>
      </trkpt>
      <trkpt lat="39.624691876773" lon="3.02041012129">
        <ele>101.6</ele>
        <time>2014-05-03T15:13:16Z</time>
      </trkpt>
      <trkpt lat="39.62477678542" lon="3.020336192932">
        <ele>101.6</ele>
        <time>2014-05-03T15:13:17Z</time>
      </trkpt>
      <trkpt lat="39.624862113162" lon="3.020262516031">
        <ele>101.6</ele>
        <time>2014-05-03T15:13:18Z</time>
      </trkpt>
      <trkpt lat="39.624946015981" lon="3.020188671492">
        <ele>101.6</ele>
        <time>2014-05-03T15:13:19Z</time>
      </trkpt>
      <trkpt lat="39.625028158601" lon="3.020114491677">
        <ele>101.6</ele>
        <time>2014-05-03T15:13:20Z</time>
      </trkpt>
      <trkpt lat="39.625362512592" lon="3.019815676942">
        <ele>101.6</ele>
        <time>2014-05-03T15:13:24Z</time>
      </trkpt>
      <trkpt lat="39.625443565565" lon="3.019747532095">
        <ele>101.6</ele>
        <time>2014-05-03T15:13:25Z</time>
      </trkpt>
      <trkpt lat="39.625942037158" lon="3.019322066851">
        <ele>101.6</ele>
        <time>2014-05-03T15:13:31Z</time>
      </trkpt>
      <trkpt lat="39.626110848624" lon="3.01918384932">
        <ele>101.6</ele>
        <time>2014-05-03T15:13:33Z</time>
      </trkpt>
      <trkpt lat="39.626191398683" lon="3.019116961758">
        <ele>101.6</ele>
        <time>2014-05-03T15:13:34Z</time>
      </trkpt>
      <trkpt lat="39.626606218914" lon="3.018781769577">
        <ele>101.6</ele>
        <time>2014-05-03T15:13:39Z</time>
      </trkpt>
      <trkpt lat="39.626856418629" lon="3.018587393316">
        <ele>101.6</ele>
        <time>2014-05-03T15:13:42Z</time>
      </trkpt>
      <trkpt lat="39.626936549593" lon="3.01852587017">
        <ele>101.6</ele>
        <time>2014-05-03T15:13:43Z</time>
      </trkpt>
      <trkpt lat="39.627093458761" lon="3.018404835534">
        <ele>101.6</ele>
        <time>2014-05-03T15:13:45Z</time>
      </trkpt>
      <trkpt lat="39.627177193942" lon="3.018342474198">
        <ele>101.6</ele>
        <time>2014-05-03T15:13:46Z</time>
      </trkpt>
      <trkpt lat="39.627255816164" lon="3.018283381803">
        <ele>101.6</ele>
        <time>2014-05-03T15:13:47Z</time>
      </trkpt>
      <trkpt lat="39.627335695671" lon="3.018224624684">
        <ele>101.6</ele>
        <time>2014-05-03T15:13:48Z</time>
      </trkpt>
      <trkpt lat="39.627493191572" lon="3.018110044111">
        <ele>101.6</ele>
        <time>2014-05-03T15:13:50Z</time>
      </trkpt>
      <trkpt lat="39.627572735803" lon="3.018055058847">
        <ele>101.6</ele>
        <time>2014-05-03T15:13:51Z</time>
      </trkpt>
      <trkpt lat="39.627651441844" lon="3.01799864866">
        <ele>101.6</ele>
        <time>2014-05-03T15:13:52Z</time>
      </trkpt>
      <trkpt lat="39.627807764279" lon="3.017887085571">
        <ele>101.6</ele>
        <time>2014-05-03T15:13:54Z</time>
      </trkpt>
      <trkpt lat="39.62788647032" lon="3.017829921013">
        <ele>101.6</ele>
        <time>2014-05-03T15:13:55Z</time>
      </trkpt>
      <trkpt lat="39.627960147221" lon="3.017776444491">
        <ele>101.6</ele>
        <time>2014-05-03T15:13:56Z</time>
      </trkpt>
      <trkpt lat="39.628107165747" lon="3.017673933854">
        <ele>101.6</ele>
        <time>2014-05-03T15:13:58Z</time>
      </trkpt>
      <trkpt lat="39.628181177924" lon="3.017621966074">
        <ele>101.6</ele>
        <time>2014-05-03T15:13:59Z</time>
      </trkpt>
      <trkpt lat="39.628250831513" lon="3.017571590855">
        <ele>102</ele>
        <time>2014-05-03T15:14:00Z</time>
      </trkpt>
      <trkpt lat="39.628320485102" lon="3.017523227292">
        <ele>102.4</ele>
        <time>2014-05-03T15:14:01Z</time>
      </trkpt>
      <trkpt lat="39.62839273708" lon="3.017472516797">
        <ele>102.8</ele>
        <time>2014-05-03T15:14:02Z</time>
      </trkpt>
      <trkpt lat="39.628458786452" lon="3.017428344184">
        <ele>103.2</ele>
        <time>2014-05-03T15:14:03Z</time>
      </trkpt>
      <trkpt lat="39.628525254919" lon="3.017383165743">
        <ele>103.6</ele>
        <time>2014-05-03T15:14:04Z</time>
      </trkpt>
      <trkpt lat="39.628714518221" lon="3.017252575741">
        <ele>103.6</ele>
        <time>2014-05-03T15:14:07Z</time>
      </trkpt>
      <trkpt lat="39.629065887469" lon="3.017006147881">
        <ele>104</ele>
        <time>2014-05-03T15:14:13Z</time>
      </trkpt>
      <trkpt lat="39.629120956552" lon="3.016966417675">
        <ele>104.4</ele>
        <time>2014-05-03T15:14:14Z</time>
      </trkpt>
      <trkpt lat="39.629180551861" lon="3.016929453496">
        <ele>105</ele>
        <time>2014-05-03T15:14:15Z</time>
      </trkpt>
      <trkpt lat="39.629238135514" lon="3.016890896756">
        <ele>105.4</ele>
        <time>2014-05-03T15:14:16Z</time>
      </trkpt>
      <trkpt lat="39.629290354751" lon="3.01685116655">
        <ele>105.8</ele>
        <time>2014-05-03T15:14:17Z</time>
      </trkpt>
      <trkpt lat="39.629344837101" lon="3.016809592326">
        <ele>106.2</ele>
        <time>2014-05-03T15:14:18Z</time>
      </trkpt>
      <trkpt lat="39.629396721062" lon="3.016766760817">
        <ele>107</ele>
        <time>2014-05-03T15:14:19Z</time>
      </trkpt>
      <trkpt lat="39.629442570055" lon="3.016721917652">
        <ele>107.6</ele>
        <time>2014-05-03T15:14:20Z</time>
      </trkpt>
      <trkpt lat="39.629493196731" lon="3.016679421419">
        <ele>108</ele>
        <time>2014-05-03T15:14:21Z</time>
      </trkpt>
      <trkpt lat="39.629542230846" lon="3.016637595738">
        <ele>108</ele>
        <time>2014-05-03T15:14:22Z</time>
      </trkpt>
      <trkpt lat="39.629591516418" lon="3.01659468041">
        <ele>108.4</ele>
        <time>2014-05-03T15:14:23Z</time>
      </trkpt>
      <trkpt lat="39.629640718171" lon="3.016550507797">
        <ele>109</ele>
        <time>2014-05-03T15:14:24Z</time>
      </trkpt>
      <trkpt lat="39.629693440322" lon="3.016502982424">
        <ele>109.4</ele>
        <time>2014-05-03T15:14:25Z</time>
      </trkpt>
      <trkpt lat="39.629746833025" lon="3.016457803983">
        <ele>109.8</ele>
        <time>2014-05-03T15:14:26Z</time>
      </trkpt>
      <trkpt lat="39.62979838171" lon="3.016411535895">
        <ele>110.4</ele>
        <time>2014-05-03T15:14:27Z</time>
      </trkpt>
      <trkpt lat="39.629897371949" lon="3.016319083538">
        <ele>110.8</ele>
        <time>2014-05-03T15:14:29Z</time>
      </trkpt>
      <trkpt lat="39.629945484055" lon="3.016269295052">
        <ele>111.2</ele>
        <time>2014-05-03T15:14:30Z</time>
      </trkpt>
      <trkpt lat="39.629993512342" lon="3.016222272593">
        <ele>111.6</ele>
        <time>2014-05-03T15:14:31Z</time>
      </trkpt>
      <trkpt lat="39.630040953896" lon="3.016174831039">
        <ele>112.2</ele>
        <time>2014-05-03T15:14:32Z</time>
      </trkpt>
      <trkpt lat="39.630093843685" lon="3.016127138028">
        <ele>112.6</ele>
        <time>2014-05-03T15:14:33Z</time>
      </trkpt>
      <trkpt lat="39.630148074578" lon="3.016079612655">
        <ele>113</ele>
        <time>2014-05-03T15:14:34Z</time>
      </trkpt>
      <trkpt lat="39.630196270503" lon="3.016021861364">
        <ele>113.4</ele>
        <time>2014-05-03T15:14:35Z</time>
      </trkpt>
      <trkpt lat="39.630246058989" lon="3.015974252172">
        <ele>113.8</ele>
        <time>2014-05-03T15:14:36Z</time>
      </trkpt>
      <trkpt lat="39.630293416724" lon="3.015926559161">
        <ele>114.2</ele>
        <time>2014-05-03T15:14:37Z</time>
      </trkpt>
      <trkpt lat="39.630347647617" lon="3.015876435399">
        <ele>114.6</ele>
        <time>2014-05-03T15:14:38Z</time>
      </trkpt>
      <trkpt lat="39.630402632881" lon="3.015827149827">
        <ele>115.2</ele>
        <time>2014-05-03T15:14:39Z</time>
      </trkpt>
      <trkpt lat="39.630450996444" lon="3.015774343857">
        <ele>115.6</ele>
        <time>2014-05-03T15:14:40Z</time>
      </trkpt>
      <trkpt lat="39.630506568441" lon="3.015723801">
        <ele>116.2</ele>
        <time>2014-05-03T15:14:41Z</time>
      </trkpt>
      <trkpt lat="39.630554932004" lon="3.015676694722">
        <ele>116.6</ele>
        <time>2014-05-03T15:14:42Z</time>
      </trkpt>
      <trkpt lat="39.630658280831" lon="3.015576531017">
        <ele>117.6</ele>
        <time>2014-05-03T15:14:44Z</time>
      </trkpt>
      <trkpt lat="39.630707482584" lon="3.015526491074">
        <ele>118</ele>
        <time>2014-05-03T15:14:45Z</time>
      </trkpt>
      <trkpt lat="39.630756265242" lon="3.015468404507">
        <ele>118.4</ele>
        <time>2014-05-03T15:14:46Z</time>
      </trkpt>
      <trkpt lat="39.630805299357" lon="3.015407216637">
        <ele>118.8</ele>
        <time>2014-05-03T15:14:47Z</time>
      </trkpt>
      <trkpt lat="39.630863805019" lon="3.015348208061">
        <ele>118.8</ele>
        <time>2014-05-03T15:14:48Z</time>
      </trkpt>
      <trkpt lat="39.630928764744" lon="3.015284254164">
        <ele>119.4</ele>
        <time>2014-05-03T15:14:49Z</time>
      </trkpt>
      <trkpt lat="39.630987270406" lon="3.015215354946">
        <ele>119.8</ele>
        <time>2014-05-03T15:14:50Z</time>
      </trkpt>
      <trkpt lat="39.631055918167" lon="3.015152909791">
        <ele>120.2</ele>
        <time>2014-05-03T15:14:51Z</time>
      </trkpt>
      <trkpt lat="39.631116603123" lon="3.015097002518">
        <ele>120.6</ele>
        <time>2014-05-03T15:14:52Z</time>
      </trkpt>
      <trkpt lat="39.631175276423" lon="3.015040927607">
        <ele>121.2</ele>
        <time>2014-05-03T15:14:53Z</time>
      </trkpt>
      <trkpt lat="39.631234033542" lon="3.014982338126">
        <ele>121.6</ele>
        <time>2014-05-03T15:14:54Z</time>
      </trkpt>
      <trkpt lat="39.631291784833" lon="3.014916707849">
        <ele>122.2</ele>
        <time>2014-05-03T15:14:55Z</time>
      </trkpt>
      <trkpt lat="39.631356409282" lon="3.014853675961">
        <ele>122.6</ele>
        <time>2014-05-03T15:14:56Z</time>
      </trkpt>
      <trkpt lat="39.631414244392" lon="3.014796176127">
        <ele>123.2</ele>
        <time>2014-05-03T15:14:57Z</time>
      </trkpt>
      <trkpt lat="39.631469229656" lon="3.014741274682">
        <ele>123.6</ele>
        <time>2014-05-03T15:14:58Z</time>
      </trkpt>
      <trkpt lat="39.631733427144" lon="3.014478921212">
        <ele>124.2</ele>
        <time>2014-05-03T15:15:03Z</time>
      </trkpt>
      <trkpt lat="39.631788747684" lon="3.014422427206">
        <ele>124.6</ele>
        <time>2014-05-03T15:15:04Z</time>
      </trkpt>
      <trkpt lat="39.631842140387" lon="3.014368950684">
        <ele>125</ele>
        <time>2014-05-03T15:15:05Z</time>
      </trkpt>
      <trkpt lat="39.631898969669" lon="3.014315474162">
        <ele>125.4</ele>
        <time>2014-05-03T15:15:06Z</time>
      </trkpt>
      <trkpt lat="39.631949512526" lon="3.014263925477">
        <ele>125.8</ele>
        <time>2014-05-03T15:15:07Z</time>
      </trkpt>
      <trkpt lat="39.632141458036" lon="3.014065442085">
        <ele>126.4</ele>
        <time>2014-05-03T15:15:11Z</time>
      </trkpt>
      <trkpt lat="39.632192503807" lon="3.01401724616">
        <ele>126.8</ele>
        <time>2014-05-03T15:15:12Z</time>
      </trkpt>
      <trkpt lat="39.632242879026" lon="3.013967876769">
        <ele>127.2</ele>
        <time>2014-05-03T15:15:13Z</time>
      </trkpt>
      <trkpt lat="39.632290991132" lon="3.013918507378">
        <ele>127.6</ele>
        <time>2014-05-03T15:15:14Z</time>
      </trkpt>
      <trkpt lat="39.632339522333" lon="3.013870646729">
        <ele>128</ele>
        <time>2014-05-03T15:15:15Z</time>
      </trkpt>
      <trkpt lat="39.632575137542" lon="3.013625140878">
        <ele>128</ele>
        <time>2014-05-03T15:15:20Z</time>
      </trkpt>
      <trkpt lat="39.632625764218" lon="3.013574346564">
        <ele>128.6</ele>
        <time>2014-05-03T15:15:21Z</time>
      </trkpt>
      <trkpt lat="39.632675301247" lon="3.013522881698">
        <ele>129</ele>
        <time>2014-05-03T15:15:22Z</time>
      </trkpt>
      <trkpt lat="39.632726933751" lon="3.013472841755">
        <ele>129.4</ele>
        <time>2014-05-03T15:15:23Z</time>
      </trkpt>
      <trkpt lat="39.63277563259" lon="3.013424562011">
        <ele>129.8</ele>
        <time>2014-05-03T15:15:24Z</time>
      </trkpt>
      <trkpt lat="39.632822319773" lon="3.013376952819">
        <ele>130.2</ele>
        <time>2014-05-03T15:15:25Z</time>
      </trkpt>
      <trkpt lat="39.63290974299" lon="3.01329221181">
        <ele>130.2</ele>
        <time>2014-05-03T15:15:27Z</time>
      </trkpt>
      <trkpt lat="39.633107388192" lon="3.013098925196">
        <ele>130.2</ele>
        <time>2014-05-03T15:15:31Z</time>
      </trkpt>
      <trkpt lat="39.633164720388" lon="3.013048801434">
        <ele>130.2</ele>
        <time>2014-05-03T15:15:32Z</time>
      </trkpt>
      <trkpt lat="39.633321378099" lon="3.012884600013">
        <ele>130.6</ele>
        <time>2014-05-03T15:15:35Z</time>
      </trkpt>
      <trkpt lat="39.633379045571" lon="3.012828441283">
        <ele>131.2</ele>
        <time>2014-05-03T15:15:36Z</time>
      </trkpt>
      <trkpt lat="39.633434785206" lon="3.012767923965">
        <ele>131.6</ele>
        <time>2014-05-03T15:15:37Z</time>
      </trkpt>
      <trkpt lat="39.633493793782" lon="3.012703718611">
        <ele>132</ele>
        <time>2014-05-03T15:15:38Z</time>
      </trkpt>
      <trkpt lat="39.63355263472" lon="3.012642782198">
        <ele>132.4</ele>
        <time>2014-05-03T15:15:39Z</time>
      </trkpt>
      <trkpt lat="39.633611978572" lon="3.012585450002">
        <ele>133</ele>
        <time>2014-05-03T15:15:40Z</time>
      </trkpt>
      <trkpt lat="39.633672412071" lon="3.012526692883">
        <ele>133.4</ele>
        <time>2014-05-03T15:15:41Z</time>
      </trkpt>
      <trkpt lat="39.633738042348" lon="3.012469863601">
        <ele>134</ele>
        <time>2014-05-03T15:15:42Z</time>
      </trkpt>
      <trkpt lat="39.633793949621" lon="3.012410100654">
        <ele>134.4</ele>
        <time>2014-05-03T15:15:43Z</time>
      </trkpt>
      <trkpt lat="39.634249924981" lon="3.011955801674">
        <ele>134.4</ele>
        <time>2014-05-03T15:15:51Z</time>
      </trkpt>
      <trkpt lat="39.634696261156" lon="3.01157895145">
        <ele>134.4</ele>
        <time>2014-05-03T15:15:58Z</time>
      </trkpt>
      <trkpt lat="39.635187189039" lon="3.011268318236">
        <ele>134.4</ele>
        <time>2014-05-03T15:16:05Z</time>
      </trkpt>
      <trkpt lat="39.63560955298" lon="3.011099171494">
        <ele>134.4</ele>
        <time>2014-05-03T15:16:10Z</time>
      </trkpt>
      <trkpt lat="39.635922784583" lon="3.010986099663">
        <ele>134</ele>
        <time>2014-05-03T15:16:13Z</time>
      </trkpt>
      <trkpt lat="39.636035018224" lon="3.010942262326">
        <ele>133.6</ele>
        <time>2014-05-03T15:16:14Z</time>
      </trkpt>
      <trkpt lat="39.636149766435" lon="3.010898927903">
        <ele>133.2</ele>
        <time>2014-05-03T15:16:15Z</time>
      </trkpt>
      <trkpt lat="39.636267196854" lon="3.010857018403">
        <ele>132.8</ele>
        <time>2014-05-03T15:16:16Z</time>
      </trkpt>
      <trkpt lat="39.636385381644" lon="3.010815947093">
        <ele>132.2</ele>
        <time>2014-05-03T15:16:17Z</time>
      </trkpt>
      <trkpt lat="39.636504069348" lon="3.010782084217">
        <ele>131.6</ele>
        <time>2014-05-03T15:16:18Z</time>
      </trkpt>
      <trkpt lat="39.636626528907" lon="3.01075417249">
        <ele>131.2</ele>
        <time>2014-05-03T15:16:19Z</time>
      </trkpt>
      <trkpt lat="39.63674865319" lon="3.010730367894">
        <ele>130.6</ele>
        <time>2014-05-03T15:16:20Z</time>
      </trkpt>
      <trkpt lat="39.636876980079" lon="3.010716789216">
        <ele>130.2</ele>
        <time>2014-05-03T15:16:21Z</time>
      </trkpt>
      <trkpt lat="39.636999439638" lon="3.010715867207">
        <ele>129.8</ele>
        <time>2014-05-03T15:16:22Z</time>
      </trkpt>
      <trkpt lat="39.637121228645" lon="3.010716034845">
        <ele>128.8</ele>
        <time>2014-05-03T15:16:23Z</time>
      </trkpt>
      <trkpt lat="39.63723983253" lon="3.01071813032">
        <ele>128.4</ele>
        <time>2014-05-03T15:16:24Z</time>
      </trkpt>
      <trkpt lat="39.637359609881" lon="3.010719722881">
        <ele>128</ele>
        <time>2014-05-03T15:16:25Z</time>
      </trkpt>
      <trkpt lat="39.637478465223" lon="3.010720980166">
        <ele>128</ele>
        <time>2014-05-03T15:16:26Z</time>
      </trkpt>
      <trkpt lat="39.637594303081" lon="3.010721818356">
        <ele>127.6</ele>
        <time>2014-05-03T15:16:27Z</time>
      </trkpt>
      <trkpt lat="39.637707039636" lon="3.010723830012">
        <ele>127.2</ele>
        <time>2014-05-03T15:16:28Z</time>
      </trkpt>
      <trkpt lat="39.637820949657" lon="3.010726847496">
        <ele>126.8</ele>
        <time>2014-05-03T15:16:29Z</time>
      </trkpt>
      <trkpt lat="39.637928573253" lon="3.010726428401">
        <ele>126.4</ele>
        <time>2014-05-03T15:16:30Z</time>
      </trkpt>
      <trkpt lat="39.638035023383" lon="3.010721063985">
        <ele>126</ele>
        <time>2014-05-03T15:16:31Z</time>
      </trkpt>
      <trkpt lat="39.638135187088" lon="3.010712598266">
        <ele>126</ele>
        <time>2014-05-03T15:16:32Z</time>
      </trkpt>
      <trkpt lat="39.638240715209" lon="3.010717878863">
        <ele>126</ele>
        <time>2014-05-03T15:16:33Z</time>
      </trkpt>
      <trkpt lat="39.638531399501" lon="3.010681501417">
        <ele>126</ele>
        <time>2014-05-03T15:16:36Z</time>
      </trkpt>
      <trkpt lat="39.63862200784" lon="3.01066364797">
        <ele>126.4</ele>
        <time>2014-05-03T15:16:37Z</time>
      </trkpt>
      <trkpt lat="39.638711358894" lon="3.010642106487">
        <ele>126.8</ele>
        <time>2014-05-03T15:16:38Z</time>
      </trkpt>
      <trkpt lat="39.638770786565" lon="3.010624420678">
        <ele>127.2</ele>
        <time>2014-05-03T15:16:39Z</time>
      </trkpt>
      <trkpt lat="39.638823843992" lon="3.010620984099">
        <ele>127.6</ele>
        <time>2014-05-03T15:16:40Z</time>
      </trkpt>
      <trkpt lat="39.6388768176" lon="3.010604052661">
        <ele>128</ele>
        <time>2014-05-03T15:16:41Z</time>
      </trkpt>
      <trkpt lat="39.638953763442" lon="3.010577565857">
        <ele>128</ele>
        <time>2014-05-03T15:16:43Z</time>
      </trkpt>
      <trkpt lat="39.63911402537" lon="3.010649650197">
        <ele>130.4</ele>
        <time>2014-05-03T15:20:34Z</time>
      </trkpt>
      <trkpt lat="39.639130370075" lon="3.010672113689">
        <ele>130.4</ele>
        <time>2014-05-03T15:20:35Z</time>
      </trkpt>
      <trkpt lat="39.639196419447" lon="3.010769846643">
        <ele>130.4</ele>
        <time>2014-05-03T15:20:38Z</time>
      </trkpt>
      <trkpt lat="39.639225588459" lon="3.010814019256">
        <ele>130.4</ele>
        <time>2014-05-03T15:20:39Z</time>
      </trkpt>
      <trkpt lat="39.639319046644" lon="3.010939077204">
        <ele>130.4</ele>
        <time>2014-05-03T15:20:42Z</time>
      </trkpt>
      <trkpt lat="39.639427927525" lon="3.011089783766">
        <ele>130.4</ele>
        <time>2014-05-03T15:20:45Z</time>
      </trkpt>
      <trkpt lat="39.639551644369" lon="3.011247363486">
        <ele>130.4</ele>
        <time>2014-05-03T15:20:48Z</time>
      </trkpt>
      <trkpt lat="39.639636050102" lon="3.01135850748">
        <ele>130.4</ele>
        <time>2014-05-03T15:20:50Z</time>
      </trkpt>
      <trkpt lat="39.639902175427" lon="3.011707865072">
        <ele>129.6</ele>
        <time>2014-05-03T15:20:56Z</time>
      </trkpt>
      <trkpt lat="39.639946850954" lon="3.011766789829">
        <ele>129.2</ele>
        <time>2014-05-03T15:20:57Z</time>
      </trkpt>
      <trkpt lat="39.639993705775" lon="3.011824792577">
        <ele>128.8</ele>
        <time>2014-05-03T15:20:58Z</time>
      </trkpt>
      <trkpt lat="39.640043997175" lon="3.011887489189">
        <ele>128.4</ele>
        <time>2014-05-03T15:20:59Z</time>
      </trkpt>
      <trkpt lat="39.640315486916" lon="3.012255119323">
        <ele>128.4</ele>
        <time>2014-05-03T15:21:05Z</time>
      </trkpt>
      <trkpt lat="39.640734162821" lon="3.012797344434">
        <ele>128.4</ele>
        <time>2014-05-03T15:21:14Z</time>
      </trkpt>
      <trkpt lat="39.641117383289" lon="3.013305036117">
        <ele>128.4</ele>
        <time>2014-05-03T15:21:22Z</time>
      </trkpt>
      <trkpt lat="39.641209416551" lon="3.013433279187">
        <ele>128.4</ele>
        <time>2014-05-03T15:21:24Z</time>
      </trkpt>
      <trkpt lat="39.641289715153" lon="3.01356629994">
        <ele>128.4</ele>
        <time>2014-05-03T15:21:26Z</time>
      </trkpt>
      <trkpt lat="39.641476966799" lon="3.01390325232">
        <ele>128.4</ele>
        <time>2014-05-03T15:21:31Z</time>
      </trkpt>
      <trkpt lat="39.641747534531" lon="3.014388396692">
        <ele>128.4</ele>
        <time>2014-05-03T15:21:38Z</time>
      </trkpt>
      <trkpt lat="39.64179623337" lon="3.01444556125">
        <ele>128.4</ele>
        <time>2014-05-03T15:21:39Z</time>
      </trkpt>
      <trkpt lat="39.641904276061" lon="3.014540109082">
        <ele>128.4</ele>
        <time>2014-05-03T15:21:41Z</time>
      </trkpt>
      <trkpt lat="39.642017180254" lon="3.014609175938">
        <ele>128.4</ele>
        <time>2014-05-03T15:21:43Z</time>
      </trkpt>
      <trkpt lat="39.642343152345" lon="3.014803300742">
        <ele>128.4</ele>
        <time>2014-05-03T15:21:49Z</time>
      </trkpt>
      <trkpt lat="39.642400652179" lon="3.014811095909">
        <ele>128.4</ele>
        <time>2014-05-03T15:21:50Z</time>
      </trkpt>
      <trkpt lat="39.642523363195" lon="3.014777316852">
        <ele>128.4</ele>
        <time>2014-05-03T15:21:52Z</time>
      </trkpt>
      <trkpt lat="39.642642637632" lon="3.014772539169">
        <ele>128.4</ele>
        <time>2014-05-03T15:21:54Z</time>
      </trkpt>
      <trkpt lat="39.642720589302" lon="3.014882425878">
        <ele>128.4</ele>
        <time>2014-05-03T15:21:56Z</time>
      </trkpt>
      <trkpt lat="39.642826033604" lon="3.015024079988">
        <ele>128.4</ele>
        <time>2014-05-03T15:21:59Z</time>
      </trkpt>
      <trkpt lat="39.64300155059" lon="3.015000862125">
        <ele>128.4</ele>
        <time>2014-05-03T15:22:02Z</time>
      </trkpt>
      <trkpt lat="39.643104731779" lon="3.014946463594">
        <ele>128.4</ele>
        <time>2014-05-03T15:22:04Z</time>
      </trkpt>
      <trkpt lat="39.643157034835" lon="3.014930789441">
        <ele>128.4</ele>
        <time>2014-05-03T15:22:05Z</time>
      </trkpt>
      <trkpt lat="39.643280416403" lon="3.014889215217">
        <ele>128.4</ele>
        <time>2014-05-03T15:22:07Z</time>
      </trkpt>
      <trkpt lat="39.643568083211" lon="3.01477748449">
        <ele>128.4</ele>
        <time>2014-05-03T15:22:12Z</time>
      </trkpt>
      <trkpt lat="39.643671012943" lon="3.014746387641">
        <ele>128.4</ele>
        <time>2014-05-03T15:22:14Z</time>
      </trkpt>
      <trkpt lat="39.64377100901" lon="3.014708920548">
        <ele>128.4</ele>
        <time>2014-05-03T15:22:16Z</time>
      </trkpt>
      <trkpt lat="39.643865808299" lon="3.014667011048">
        <ele>128.4</ele>
        <time>2014-05-03T15:22:18Z</time>
      </trkpt>
      <trkpt lat="39.64395121986" lon="3.014617138743">
        <ele>128.4</ele>
        <time>2014-05-03T15:22:20Z</time>
      </trkpt>
      <trkpt lat="39.644162192283" lon="3.014535079942">
        <ele>128.4</ele>
        <time>2014-05-03T15:22:24Z</time>
      </trkpt>
      <trkpt lat="39.644265289653" lon="3.014499708324">
        <ele>128.4</ele>
        <time>2014-05-03T15:22:26Z</time>
      </trkpt>
      <trkpt lat="39.644321532202" lon="3.014488057483">
        <ele>128.4</ele>
        <time>2014-05-03T15:22:27Z</time>
      </trkpt>
      <trkpt lat="39.64448347051" lon="3.014421169921">
        <ele>128.4</ele>
        <time>2014-05-03T15:22:30Z</time>
      </trkpt>
      <trkpt lat="39.644543652552" lon="3.014401304818">
        <ele>128.4</ele>
        <time>2014-05-03T15:22:31Z</time>
      </trkpt>
      <trkpt lat="39.644786308557" lon="3.01430306895">
        <ele>128.4</ele>
        <time>2014-05-03T15:22:35Z</time>
      </trkpt>
      <trkpt lat="39.644840287993" lon="3.01427624687">
        <ele>128.4</ele>
        <time>2014-05-03T15:22:36Z</time>
      </trkpt>
      <trkpt lat="39.645002813034" lon="3.014181279943">
        <ele>128</ele>
        <time>2014-05-03T15:22:39Z</time>
      </trkpt>
      <trkpt lat="39.645056541013" lon="3.014145740687">
        <ele>127.6</ele>
        <time>2014-05-03T15:22:40Z</time>
      </trkpt>
      <trkpt lat="39.645111861553" lon="3.014120092073">
        <ele>127.2</ele>
        <time>2014-05-03T15:22:41Z</time>
      </trkpt>
      <trkpt lat="39.645166762998" lon="3.014092264165">
        <ele>126.8</ele>
        <time>2014-05-03T15:22:42Z</time>
      </trkpt>
      <trkpt lat="39.645215880932" lon="3.014058820384">
        <ele>126.4</ele>
        <time>2014-05-03T15:22:43Z</time>
      </trkpt>
      <trkpt lat="39.645265753237" lon="3.014017078522">
        <ele>126.4</ele>
        <time>2014-05-03T15:22:44Z</time>
      </trkpt>
      <trkpt lat="39.645359043784" lon="3.013946167648">
        <ele>126.4</ele>
        <time>2014-05-03T15:22:46Z</time>
      </trkpt>
      <trkpt lat="39.645449484485" lon="3.013894367506">
        <ele>126.4</ele>
        <time>2014-05-03T15:22:48Z</time>
      </trkpt>
      <trkpt lat="39.645536991521" lon="3.013859414983">
        <ele>126.4</ele>
        <time>2014-05-03T15:22:50Z</time>
      </trkpt>
      <trkpt lat="39.645576386451" lon="3.013840052794">
        <ele>126.4</ele>
        <time>2014-05-03T15:22:51Z</time>
      </trkpt>
      <trkpt lat="39.645669760817" lon="3.013923033604">
        <ele>126.4</ele>
        <time>2014-05-03T15:22:54Z</time>
      </trkpt>
      <trkpt lat="39.6457248299" lon="3.014021018015">
        <ele>126.4</ele>
        <time>2014-05-03T15:22:56Z</time>
      </trkpt>
      <trkpt lat="39.645793226204" lon="3.014175915527">
        <ele>126.8</ele>
        <time>2014-05-03T15:22:59Z</time>
      </trkpt>
      <trkpt lat="39.645821640845" lon="3.014223189443">
        <ele>127.6</ele>
        <time>2014-05-03T15:23:00Z</time>
      </trkpt>
      <trkpt lat="39.645861119594" lon="3.014269038436">
        <ele>128</ele>
        <time>2014-05-03T15:23:01Z</time>
      </trkpt>
      <trkpt lat="39.645901939447" lon="3.014324442795">
        <ele>128.4</ele>
        <time>2014-05-03T15:23:02Z</time>
      </trkpt>
      <trkpt lat="39.645940663825" lon="3.014375740023">
        <ele>128.8</ele>
        <time>2014-05-03T15:23:03Z</time>
      </trkpt>
      <trkpt lat="39.645969749018" lon="3.014431060563">
        <ele>129.2</ele>
        <time>2014-05-03T15:23:04Z</time>
      </trkpt>
      <trkpt lat="39.646001600238" lon="3.014492332252">
        <ele>129.6</ele>
        <time>2014-05-03T15:23:05Z</time>
      </trkpt>
      <trkpt lat="39.646036133666" lon="3.014543545661">
        <ele>130</ele>
        <time>2014-05-03T15:23:06Z</time>
      </trkpt>
      <trkpt lat="39.646069996542" lon="3.014586880084">
        <ele>130.4</ele>
        <time>2014-05-03T15:23:07Z</time>
      </trkpt>
      <trkpt lat="39.646135375362" lon="3.014697353526">
        <ele>130.4</ele>
        <time>2014-05-03T15:23:09Z</time>
      </trkpt>
      <trkpt lat="39.646174518835" lon="3.014766252744">
        <ele>130.8</ele>
        <time>2014-05-03T15:23:10Z</time>
      </trkpt>
      <trkpt lat="39.646227911538" lon="3.014825596596">
        <ele>131.2</ele>
        <time>2014-05-03T15:23:11Z</time>
      </trkpt>
      <trkpt lat="39.646271162142" lon="3.014899441135">
        <ele>131.6</ele>
        <time>2014-05-03T15:23:12Z</time>
      </trkpt>
      <trkpt lat="39.646313993651" lon="3.014968507991">
        <ele>132</ele>
        <time>2014-05-03T15:23:13Z</time>
      </trkpt>
      <trkpt lat="39.646355567875" lon="3.015047549308">
        <ele>132.4</ele>
        <time>2014-05-03T15:23:14Z</time>
      </trkpt>
      <trkpt lat="39.646400830135" lon="3.015119717467">
        <ele>132.4</ele>
        <time>2014-05-03T15:23:15Z</time>
      </trkpt>
      <trkpt lat="39.646444080739" lon="3.015190795979">
        <ele>133</ele>
        <time>2014-05-03T15:23:16Z</time>
      </trkpt>
      <trkpt lat="39.646489594456" lon="3.015273776789">
        <ele>133.4</ele>
        <time>2014-05-03T15:23:17Z</time>
      </trkpt>
      <trkpt lat="39.646539047666" lon="3.015350554993">
        <ele>133.8</ele>
        <time>2014-05-03T15:23:18Z</time>
      </trkpt>
      <trkpt lat="39.646585064297" lon="3.015427584654">
        <ele>134.2</ele>
        <time>2014-05-03T15:23:19Z</time>
      </trkpt>
      <trkpt lat="39.646633176403" lon="3.015503859944">
        <ele>134.6</ele>
        <time>2014-05-03T15:23:20Z</time>
      </trkpt>
      <trkpt lat="39.64668371926" lon="3.015592037532">
        <ele>135</ele>
        <time>2014-05-03T15:23:21Z</time>
      </trkpt>
      <trkpt lat="39.646735267945" lon="3.01567183322">
        <ele>135.4</ele>
        <time>2014-05-03T15:23:22Z</time>
      </trkpt>
      <trkpt lat="39.646776171617" lon="3.015749449614">
        <ele>135.8</ele>
        <time>2014-05-03T15:23:23Z</time>
      </trkpt>
      <trkpt lat="39.646813387253" lon="3.015820025212">
        <ele>136.8</ele>
        <time>2014-05-03T15:23:24Z</time>
      </trkpt>
      <trkpt lat="39.64684968088" lon="3.015889092068">
        <ele>137.2</ele>
        <time>2014-05-03T15:23:25Z</time>
      </trkpt>
      <trkpt lat="39.646876251503" lon="3.015959919123">
        <ele>137.8</ele>
        <time>2014-05-03T15:23:26Z</time>
      </trkpt>
      <trkpt lat="39.646899217909" lon="3.016022280459">
        <ele>138.2</ele>
        <time>2014-05-03T15:23:27Z</time>
      </trkpt>
      <trkpt lat="39.646924866523" lon="3.016079109741">
        <ele>138.8</ele>
        <time>2014-05-03T15:23:28Z</time>
      </trkpt>
      <trkpt lat="39.646945988911" lon="3.016134178824">
        <ele>139.4</ele>
        <time>2014-05-03T15:23:29Z</time>
      </trkpt>
      <trkpt lat="39.646966356928" lon="3.01619234921">
        <ele>139.8</ele>
        <time>2014-05-03T15:23:30Z</time>
      </trkpt>
      <trkpt lat="39.64698462947" lon="3.016249178492">
        <ele>140.4</ele>
        <time>2014-05-03T15:23:31Z</time>
      </trkpt>
      <trkpt lat="39.646984042737" lon="3.016308522344">
        <ele>141</ele>
        <time>2014-05-03T15:23:32Z</time>
      </trkpt>
      <trkpt lat="39.646976918122" lon="3.016365351626">
        <ele>141</ele>
        <time>2014-05-03T15:23:33Z</time>
      </trkpt>
      <trkpt lat="39.646990161524" lon="3.016601553568">
        <ele>141</ele>
        <time>2014-05-03T15:23:37Z</time>
      </trkpt>
      <trkpt lat="39.647112537264" lon="3.016765252075">
        <ele>141.4</ele>
        <time>2014-05-03T15:23:41Z</time>
      </trkpt>
      <trkpt lat="39.647152686565" lon="3.016801378064">
        <ele>141.8</ele>
        <time>2014-05-03T15:23:42Z</time>
      </trkpt>
      <trkpt lat="39.647191243305" lon="3.016845969772">
        <ele>142.2</ele>
        <time>2014-05-03T15:23:43Z</time>
      </trkpt>
      <trkpt lat="39.647232146977" lon="3.016886286711">
        <ele>142.6</ele>
        <time>2014-05-03T15:23:44Z</time>
      </trkpt>
      <trkpt lat="39.647271038993" lon="3.016932806256">
        <ele>143</ele>
        <time>2014-05-03T15:23:45Z</time>
      </trkpt>
      <trkpt lat="39.64730565624" lon="3.016987037149">
        <ele>143</ele>
        <time>2014-05-03T15:23:46Z</time>
      </trkpt>
      <trkpt lat="39.647478491018" lon="3.017335388913">
        <ele>143</ele>
        <time>2014-05-03T15:23:52Z</time>
      </trkpt>
      <trkpt lat="39.647614696893" lon="3.01751249846">
        <ele>143</ele>
        <time>2014-05-03T15:23:56Z</time>
      </trkpt>
      <trkpt lat="39.647660042972" lon="3.017523730206">
        <ele>143</ele>
        <time>2014-05-03T15:23:57Z</time>
      </trkpt>
      <trkpt lat="39.64779599739" lon="3.017548624449">
        <ele>143</ele>
        <time>2014-05-03T15:24:00Z</time>
      </trkpt>
      <trkpt lat="39.647937400043" lon="3.017570165932">
        <ele>143</ele>
        <time>2014-05-03T15:24:03Z</time>
      </trkpt>
      <trkpt lat="39.647980483009" lon="3.017572931959">
        <ele>143</ele>
        <time>2014-05-03T15:24:04Z</time>
      </trkpt>
      <trkpt lat="39.648024236527" lon="3.017583828429">
        <ele>143</ele>
        <time>2014-05-03T15:24:06Z</time>
      </trkpt>
      <trkpt lat="39.648214338019" lon="3.017667395972">
        <ele>143</ele>
        <time>2014-05-03T15:24:59Z</time>
      </trkpt>
      <trkpt lat="39.648250464008" lon="3.017689943283">
        <ele>143</ele>
        <time>2014-05-03T15:25:00Z</time>
      </trkpt>
      <trkpt lat="39.64829472044" lon="3.017706790902">
        <ele>143</ele>
        <time>2014-05-03T15:25:01Z</time>
      </trkpt>
      <trkpt lat="39.648390525557" lon="3.017750795877">
        <ele>143</ele>
        <time>2014-05-03T15:25:03Z</time>
      </trkpt>
      <trkpt lat="39.648494377298" lon="3.017799913811">
        <ele>143</ele>
        <time>2014-05-03T15:25:05Z</time>
      </trkpt>
      <trkpt lat="39.648760586442" lon="3.017926648139">
        <ele>143</ele>
        <time>2014-05-03T15:25:10Z</time>
      </trkpt>
      <trkpt lat="39.648864605821" lon="3.017975514616">
        <ele>142.6</ele>
        <time>2014-05-03T15:25:12Z</time>
      </trkpt>
      <trkpt lat="39.648914729583" lon="3.017998816298">
        <ele>142.2</ele>
        <time>2014-05-03T15:25:13Z</time>
      </trkpt>
      <trkpt lat="39.648962674051" lon="3.018025973654">
        <ele>141.8</ele>
        <time>2014-05-03T15:25:14Z</time>
      </trkpt>
      <trkpt lat="39.649012713994" lon="3.018048772422">
        <ele>141.4</ele>
        <time>2014-05-03T15:25:15Z</time>
      </trkpt>
      <trkpt lat="39.649063005394" lon="3.018069308077">
        <ele>141</ele>
        <time>2014-05-03T15:25:16Z</time>
      </trkpt>
      <trkpt lat="39.649165264574" lon="3.018120018572">
        <ele>141</ele>
        <time>2014-05-03T15:25:18Z</time>
      </trkpt>
      <trkpt lat="39.649341200655" lon="3.018203502296">
        <ele>141</ele>
        <time>2014-05-03T15:25:21Z</time>
      </trkpt>
      <trkpt lat="39.649535325459" lon="3.01830207344">
        <ele>141</ele>
        <time>2014-05-03T15:25:24Z</time>
      </trkpt>
      <trkpt lat="39.64978586045" lon="3.018456132762">
        <ele>141</ele>
        <time>2014-05-03T15:25:28Z</time>
      </trkpt>
      <trkpt lat="39.649902117403" lon="3.018534335889">
        <ele>141</ele>
        <time>2014-05-03T15:25:30Z</time>
      </trkpt>
      <trkpt lat="39.649963053816" lon="3.01856275053">
        <ele>141</ele>
        <time>2014-05-03T15:25:31Z</time>
      </trkpt>
      <trkpt lat="39.650242925457" lon="3.018732651643">
        <ele>141</ele>
        <time>2014-05-03T15:25:36Z</time>
      </trkpt>
      <trkpt lat="39.65063327054" lon="3.019015456949">
        <ele>141</ele>
        <time>2014-05-03T15:25:43Z</time>
      </trkpt>
      <trkpt lat="39.651084719674" lon="3.019306811793">
        <ele>141</ele>
        <time>2014-05-03T15:25:51Z</time>
      </trkpt>
      <trkpt lat="39.651504401407" lon="3.019577966258">
        <ele>141</ele>
        <time>2014-05-03T15:25:59Z</time>
      </trkpt>
      <trkpt lat="39.651555782454" lon="3.019610823306">
        <ele>141</ele>
        <time>2014-05-03T15:26:00Z</time>
      </trkpt>
      <trkpt lat="39.651657203444" lon="3.01969095427">
        <ele>141</ele>
        <time>2014-05-03T15:26:02Z</time>
      </trkpt>
      <trkpt lat="39.651798689916" lon="3.01980243354">
        <ele>141</ele>
        <time>2014-05-03T15:26:05Z</time>
      </trkpt>
      <trkpt lat="39.651950821401" lon="3.01991391281">
        <ele>141.4</ele>
        <time>2014-05-03T15:26:08Z</time>
      </trkpt>
      <trkpt lat="39.652003795009" lon="3.019961857278">
        <ele>141.8</ele>
        <time>2014-05-03T15:26:09Z</time>
      </trkpt>
      <trkpt lat="39.652047883803" lon="3.020004269692">
        <ele>142.2</ele>
        <time>2014-05-03T15:26:10Z</time>
      </trkpt>
      <trkpt lat="39.652086524362" lon="3.020023883338">
        <ele>142.6</ele>
        <time>2014-05-03T15:26:11Z</time>
      </trkpt>
      <trkpt lat="39.652128014767" lon="3.020071827806">
        <ele>143.2</ele>
        <time>2014-05-03T15:26:12Z</time>
      </trkpt>
      <trkpt lat="39.652170259543" lon="3.020132093667">
        <ele>143.2</ele>
        <time>2014-05-03T15:26:13Z</time>
      </trkpt>
      <trkpt lat="39.652290120713" lon="3.020291601224">
        <ele>143.2</ele>
        <time>2014-05-03T15:26:16Z</time>
      </trkpt>
      <trkpt lat="39.652373436799" lon="3.020394530956">
        <ele>143.6</ele>
        <time>2014-05-03T15:26:18Z</time>
      </trkpt>
      <trkpt lat="39.652421045991" lon="3.020446414917">
        <ele>144</ele>
        <time>2014-05-03T15:26:19Z</time>
      </trkpt>
      <trkpt lat="39.652466475889" lon="3.020498550335">
        <ele>144.4</ele>
        <time>2014-05-03T15:26:20Z</time>
      </trkpt>
      <trkpt lat="39.652513163072" lon="3.020551859219">
        <ele>144.8</ele>
        <time>2014-05-03T15:26:21Z</time>
      </trkpt>
      <trkpt lat="39.652561442816" lon="3.020611119252">
        <ele>145.2</ele>
        <time>2014-05-03T15:26:22Z</time>
      </trkpt>
      <trkpt lat="39.652653476078" lon="3.020731902431">
        <ele>145.2</ele>
        <time>2014-05-03T15:26:24Z</time>
      </trkpt>
      <trkpt lat="39.652867130709" lon="3.021027951139">
        <ele>145.2</ele>
        <time>2014-05-03T15:26:29Z</time>
      </trkpt>
      <trkpt lat="39.652943657456" lon="3.021171113991">
        <ele>145.2</ele>
        <time>2014-05-03T15:26:31Z</time>
      </trkpt>
      <trkpt lat="39.653017837271" lon="3.021309834436">
        <ele>145.2</ele>
        <time>2014-05-03T15:26:33Z</time>
      </trkpt>
      <trkpt lat="39.653231408083" lon="3.021734796766">
        <ele>145.2</ele>
        <time>2014-05-03T15:26:39Z</time>
      </trkpt>
      <trkpt lat="39.653439279203" lon="3.022236369662">
        <ele>145.2</ele>
        <time>2014-05-03T15:26:46Z</time>
      </trkpt>
      <trkpt lat="39.653672379842" lon="3.022713215953">
        <ele>145.2</ele>
        <time>2014-05-03T15:26:53Z</time>
      </trkpt>
      <trkpt lat="39.653867342836" lon="3.023062238269">
        <ele>145.2</ele>
        <time>2014-05-03T15:26:58Z</time>
      </trkpt>
      <trkpt lat="39.653963147953" lon="3.023187212398">
        <ele>145.2</ele>
        <time>2014-05-03T15:27:00Z</time>
      </trkpt>
      <trkpt lat="39.654130953591" lon="3.023361555918">
        <ele>145.2</ele>
        <time>2014-05-03T15:27:03Z</time>
      </trkpt>
      <trkpt lat="39.654234218599" lon="3.023461887261">
        <ele>145.2</ele>
        <time>2014-05-03T15:27:05Z</time>
      </trkpt>
      <trkpt lat="39.654436892941" lon="3.023709404768">
        <ele>145.6</ele>
        <time>2014-05-03T15:27:09Z</time>
      </trkpt>
      <trkpt lat="39.654479472993" lon="3.023780064185">
        <ele>146</ele>
        <time>2014-05-03T15:27:10Z</time>
      </trkpt>
      <trkpt lat="39.654522136864" lon="3.023849801593">
        <ele>146.6</ele>
        <time>2014-05-03T15:27:11Z</time>
      </trkpt>
      <trkpt lat="39.654563291993" lon="3.023918616992">
        <ele>147</ele>
        <time>2014-05-03T15:27:12Z</time>
      </trkpt>
      <trkpt lat="39.654602770742" lon="3.023982989984">
        <ele>147.4</ele>
        <time>2014-05-03T15:27:13Z</time>
      </trkpt>
      <trkpt lat="39.654682901706" lon="3.024094301616">
        <ele>147.4</ele>
        <time>2014-05-03T15:27:15Z</time>
      </trkpt>
      <trkpt lat="39.654774432054" lon="3.024199243004">
        <ele>147.4</ele>
        <time>2014-05-03T15:27:17Z</time>
      </trkpt>
      <trkpt lat="39.655075090807" lon="3.024513815711">
        <ele>147.4</ele>
        <time>2014-05-03T15:27:23Z</time>
      </trkpt>
      <trkpt lat="39.655258319141" lon="3.024812211351">
        <ele>147.4</ele>
        <time>2014-05-03T15:27:27Z</time>
      </trkpt>
      <trkpt lat="39.655298803718" lon="3.024903993156">
        <ele>147.4</ele>
        <time>2014-05-03T15:27:28Z</time>
      </trkpt>
      <trkpt lat="39.655375665741" lon="3.025101386901">
        <ele>146.8</ele>
        <time>2014-05-03T15:27:30Z</time>
      </trkpt>
      <trkpt lat="39.655413216653" lon="3.025198533122">
        <ele>146.4</ele>
        <time>2014-05-03T15:27:31Z</time>
      </trkpt>
      <trkpt lat="39.655451102841" lon="3.025302049587">
        <ele>145.4</ele>
        <time>2014-05-03T15:27:32Z</time>
      </trkpt>
      <trkpt lat="39.655487815563" lon="3.025395591591">
        <ele>144.8</ele>
        <time>2014-05-03T15:27:33Z</time>
      </trkpt>
      <trkpt lat="39.655525534113" lon="3.025491815803">
        <ele>144.8</ele>
        <time>2014-05-03T15:27:34Z</time>
      </trkpt>
      <trkpt lat="39.655554703125" lon="3.025598098295">
        <ele>144.8</ele>
        <time>2014-05-03T15:27:35Z</time>
      </trkpt>
      <trkpt lat="39.655645814378" lon="3.0258826638">
        <ele>144.8</ele>
        <time>2014-05-03T15:27:38Z</time>
      </trkpt>
      <trkpt lat="39.655689651715" lon="3.025981318763">
        <ele>144.4</ele>
        <time>2014-05-03T15:27:39Z</time>
      </trkpt>
      <trkpt lat="39.655738350554" lon="3.026070837455">
        <ele>144</ele>
        <time>2014-05-03T15:27:40Z</time>
      </trkpt>
      <trkpt lat="39.655782020253" lon="3.026160020871">
        <ele>143.4</ele>
        <time>2014-05-03T15:27:41Z</time>
      </trkpt>
      <trkpt lat="39.655826109047" lon="3.026249371925">
        <ele>143</ele>
        <time>2014-05-03T15:27:42Z</time>
      </trkpt>
      <trkpt lat="39.655870784574" lon="3.026333945296">
        <ele>142.6</ele>
        <time>2014-05-03T15:27:43Z</time>
      </trkpt>
      <trkpt lat="39.655918226128" lon="3.026414411536">
        <ele>142.6</ele>
        <time>2014-05-03T15:27:44Z</time>
      </trkpt>
      <trkpt lat="39.656019898575" lon="3.026584647925">
        <ele>142.6</ele>
        <time>2014-05-03T15:27:46Z</time>
      </trkpt>
      <trkpt lat="39.656129450008" lon="3.026761506015">
        <ele>142.2</ele>
        <time>2014-05-03T15:27:48Z</time>
      </trkpt>
      <trkpt lat="39.65618795567" lon="3.02685328782">
        <ele>141.8</ele>
        <time>2014-05-03T15:27:49Z</time>
      </trkpt>
      <trkpt lat="39.65624495259" lon="3.026947584195">
        <ele>141.4</ele>
        <time>2014-05-03T15:27:50Z</time>
      </trkpt>
      <trkpt lat="39.656305721365" lon="3.027043976045">
        <ele>140.8</ele>
        <time>2014-05-03T15:27:51Z</time>
      </trkpt>
      <trkpt lat="39.65636816652" lon="3.027144307388">
        <ele>140.4</ele>
        <time>2014-05-03T15:27:52Z</time>
      </trkpt>
      <trkpt lat="39.65642935439" lon="3.027247069482">
        <ele>139.8</ele>
        <time>2014-05-03T15:27:53Z</time>
      </trkpt>
      <trkpt lat="39.656496158133" lon="3.027358129657">
        <ele>139.4</ele>
        <time>2014-05-03T15:27:54Z</time>
      </trkpt>
      <trkpt lat="39.656574109803" lon="3.027483019967">
        <ele>138.4</ele>
        <time>2014-05-03T15:27:55Z</time>
      </trkpt>
      <trkpt lat="39.656646864695" lon="3.027609921933">
        <ele>137.6</ele>
        <time>2014-05-03T15:27:56Z</time>
      </trkpt>
      <trkpt lat="39.656723810537" lon="3.027735147519">
        <ele>135.6</ele>
        <time>2014-05-03T15:27:57Z</time>
      </trkpt>
      <trkpt lat="39.656800756379" lon="3.027860959838">
        <ele>134.6</ele>
        <time>2014-05-03T15:27:58Z</time>
      </trkpt>
      <trkpt lat="39.656873930366" lon="3.027989789641">
        <ele>133.6</ele>
        <time>2014-05-03T15:27:59Z</time>
      </trkpt>
      <trkpt lat="39.656949954199" lon="3.028121134014">
        <ele>132.6</ele>
        <time>2014-05-03T15:28:00Z</time>
      </trkpt>
      <trkpt lat="39.65703033662" lon="3.028258848631">
        <ele>131.4</ele>
        <time>2014-05-03T15:28:01Z</time>
      </trkpt>
      <trkpt lat="39.657111557231" lon="3.028395473601">
        <ele>130.2</ele>
        <time>2014-05-03T15:28:02Z</time>
      </trkpt>
      <trkpt lat="39.657192526385" lon="3.028539893738">
        <ele>129.4</ele>
        <time>2014-05-03T15:28:03Z</time>
      </trkpt>
      <trkpt lat="39.657274585186" lon="3.028678949459">
        <ele>128.6</ele>
        <time>2014-05-03T15:28:04Z</time>
      </trkpt>
      <trkpt lat="39.657356224892" lon="3.028821274121">
        <ele>127.6</ele>
        <time>2014-05-03T15:28:05Z</time>
      </trkpt>
      <trkpt lat="39.657440043892" lon="3.02896301205">
        <ele>126.8</ele>
        <time>2014-05-03T15:28:06Z</time>
      </trkpt>
      <trkpt lat="39.657531155145" lon="3.029100894305">
        <ele>126.2</ele>
        <time>2014-05-03T15:28:07Z</time>
      </trkpt>
      <trkpt lat="39.657629223375" lon="3.029224862606">
        <ele>125.4</ele>
        <time>2014-05-03T15:28:08Z</time>
      </trkpt>
      <trkpt lat="39.65773190165" lon="3.02933935936">
        <ele>124.8</ele>
        <time>2014-05-03T15:28:09Z</time>
      </trkpt>
      <trkpt lat="39.657836843038" lon="3.02945754415">
        <ele>124.2</ele>
        <time>2014-05-03T15:28:10Z</time>
      </trkpt>
      <trkpt lat="39.65794647829" lon="3.029554606552">
        <ele>123.4</ele>
        <time>2014-05-03T15:28:11Z</time>
      </trkpt>
      <trkpt lat="39.658155941971" lon="3.029754766324">
        <ele>123.4</ele>
        <time>2014-05-03T15:28:13Z</time>
      </trkpt>
      <trkpt lat="39.658260128988" lon="3.02985316983">
        <ele>123.4</ele>
        <time>2014-05-03T15:28:14Z</time>
      </trkpt>
      <trkpt lat="39.658371775896" lon="3.029924835075">
        <ele>123.4</ele>
        <time>2014-05-03T15:28:15Z</time>
      </trkpt>
      <trkpt lat="39.658482165519" lon="3.030004211668">
        <ele>124</ele>
        <time>2014-05-03T15:28:16Z</time>
      </trkpt>
      <trkpt lat="39.658586603993" lon="3.030085767555">
        <ele>124.4</ele>
        <time>2014-05-03T15:28:17Z</time>
      </trkpt>
      <trkpt lat="39.658692132114" lon="3.030168245451">
        <ele>124.8</ele>
        <time>2014-05-03T15:28:18Z</time>
      </trkpt>
      <trkpt lat="39.658790870896" lon="3.030240832705">
        <ele>125.4</ele>
        <time>2014-05-03T15:28:19Z</time>
      </trkpt>
      <trkpt lat="39.658885754004" lon="3.030314006692">
        <ele>125.8</ele>
        <time>2014-05-03T15:28:20Z</time>
      </trkpt>
      <trkpt lat="39.658979715103" lon="3.030384749928">
        <ele>125.8</ele>
        <time>2014-05-03T15:28:21Z</time>
      </trkpt>
      <trkpt lat="39.659072838012" lon="3.030454571155">
        <ele>125.8</ele>
        <time>2014-05-03T15:28:22Z</time>
      </trkpt>
      <trkpt lat="39.659163027256" lon="3.030531014083">
        <ele>125.8</ele>
        <time>2014-05-03T15:28:23Z</time>
      </trkpt>
      <trkpt lat="39.659250534292" lon="3.030602344052">
        <ele>125.8</ele>
        <time>2014-05-03T15:28:24Z</time>
      </trkpt>
      <trkpt lat="39.659588743957" lon="3.030863356418">
        <ele>126.2</ele>
        <time>2014-05-03T15:28:28Z</time>
      </trkpt>
      <trkpt lat="39.659667785274" lon="3.030922197356">
        <ele>126.6</ele>
        <time>2014-05-03T15:28:29Z</time>
      </trkpt>
      <trkpt lat="39.659747916238" lon="3.030981289751">
        <ele>127</ele>
        <time>2014-05-03T15:28:30Z</time>
      </trkpt>
      <trkpt lat="39.659823437157" lon="3.031043483449">
        <ele>127.4</ele>
        <time>2014-05-03T15:28:31Z</time>
      </trkpt>
      <trkpt lat="39.659899712447" lon="3.031103916948">
        <ele>127.8</ele>
        <time>2014-05-03T15:28:32Z</time>
      </trkpt>
      <trkpt lat="39.66032777608" lon="3.031447071934">
        <ele>128.2</ele>
        <time>2014-05-03T15:28:37Z</time>
      </trkpt>
      <trkpt lat="39.660392149072" lon="3.031499961723">
        <ele>128.8</ele>
        <time>2014-05-03T15:28:40Z</time>
      </trkpt>
      <trkpt lat="39.660455348598" lon="3.031546229811">
        <ele>129.2</ele>
        <time>2014-05-03T15:28:41Z</time>
      </trkpt>
      <trkpt lat="39.660513099889" lon="3.031589396596">
        <ele>129.6</ele>
        <time>2014-05-03T15:28:42Z</time>
      </trkpt>
      <trkpt lat="39.660572359922" lon="3.031627198965">
        <ele>130</ele>
        <time>2014-05-03T15:28:43Z</time>
      </trkpt>
      <trkpt lat="39.660628937747" lon="3.031659301642">
        <ele>130</ele>
        <time>2014-05-03T15:28:44Z</time>
      </trkpt>
      <trkpt lat="39.6606781395" lon="3.031673634691">
        <ele>130.6</ele>
        <time>2014-05-03T15:28:45Z</time>
      </trkpt>
      <trkpt lat="39.660730777832" lon="3.031673886148">
        <ele>131</ele>
        <time>2014-05-03T15:28:46Z</time>
      </trkpt>
      <trkpt lat="39.66077956049" lon="3.031659301642">
        <ele>131.6</ele>
        <time>2014-05-03T15:28:47Z</time>
      </trkpt>
      <trkpt lat="39.660828259329" lon="3.031651255018">
        <ele>132.6</ele>
        <time>2014-05-03T15:28:48Z</time>
      </trkpt>
      <trkpt lat="39.660882741679" lon="3.031649327181">
        <ele>132.6</ele>
        <time>2014-05-03T15:28:49Z</time>
      </trkpt>
      <trkpt lat="39.660940744427" lon="3.031654356321">
        <ele>133</ele>
        <time>2014-05-03T15:28:50Z</time>
      </trkpt>
      <trkpt lat="39.660995142958" lon="3.031663241135">
        <ele>133.4</ele>
        <time>2014-05-03T15:28:51Z</time>
      </trkpt>
      <trkpt lat="39.661049038575" lon="3.031670114293">
        <ele>133.8</ele>
        <time>2014-05-03T15:28:52Z</time>
      </trkpt>
      <trkpt lat="39.661107879513" lon="3.031692661604">
        <ele>134.2</ele>
        <time>2014-05-03T15:28:53Z</time>
      </trkpt>
      <trkpt lat="39.661165714623" lon="3.031710682689">
        <ele>134.6</ele>
        <time>2014-05-03T15:28:54Z</time>
      </trkpt>
      <trkpt lat="39.661345254921" lon="3.031798189725">
        <ele>134.6</ele>
        <time>2014-05-03T15:28:57Z</time>
      </trkpt>
      <trkpt lat="39.661742724619" lon="3.032055597874">
        <ele>134.6</ele>
        <time>2014-05-03T15:29:03Z</time>
      </trkpt>
      <trkpt lat="39.661813551674" lon="3.032114271174">
        <ele>134.2</ele>
        <time>2014-05-03T15:29:04Z</time>
      </trkpt>
      <trkpt lat="39.661885636014" lon="3.03217411794">
        <ele>133.8</ele>
        <time>2014-05-03T15:29:05Z</time>
      </trkpt>
      <trkpt lat="39.66196392296" lon="3.032241089321">
        <ele>133.4</ele>
        <time>2014-05-03T15:29:06Z</time>
      </trkpt>
      <trkpt lat="39.662042629001" lon="3.032301774277">
        <ele>132.8</ele>
        <time>2014-05-03T15:29:07Z</time>
      </trkpt>
      <trkpt lat="39.662126280363" lon="3.032363381242">
        <ele>132.2</ele>
        <time>2014-05-03T15:29:08Z</time>
      </trkpt>
      <trkpt lat="39.662214877046" lon="3.032418701782">
        <ele>131.4</ele>
        <time>2014-05-03T15:29:09Z</time>
      </trkpt>
      <trkpt lat="39.662309508697" lon="3.032457007065">
        <ele>130.8</ele>
        <time>2014-05-03T15:29:10Z</time>
      </trkpt>
      <trkpt lat="39.66240816366" lon="3.032495396167">
        <ele>130.2</ele>
        <time>2014-05-03T15:29:11Z</time>
      </trkpt>
      <trkpt lat="39.662508159727" lon="3.032523894627">
        <ele>129.2</ele>
        <time>2014-05-03T15:29:12Z</time>
      </trkpt>
      <trkpt lat="39.662609413079" lon="3.032555913485">
        <ele>128.4</ele>
        <time>2014-05-03T15:29:13Z</time>
      </trkpt>
      <trkpt lat="39.662711336983" lon="3.032578628434">
        <ele>127.8</ele>
        <time>2014-05-03T15:29:14Z</time>
      </trkpt>
      <trkpt lat="39.66281049486" lon="3.03259488932">
        <ele>127</ele>
        <time>2014-05-03T15:29:15Z</time>
      </trkpt>
      <trkpt lat="39.662908311633" lon="3.032613413319">
        <ele>126.4</ele>
        <time>2014-05-03T15:29:16Z</time>
      </trkpt>
      <trkpt lat="39.663001769818" lon="3.032637888467">
        <ele>125.8</ele>
        <time>2014-05-03T15:29:17Z</time>
      </trkpt>
      <trkpt lat="39.663096652926" lon="3.032654903724">
        <ele>125.8</ele>
        <time>2014-05-03T15:29:18Z</time>
      </trkpt>
      <trkpt lat="39.66370819635" lon="3.03278264388">
        <ele>125.2</ele>
        <time>2014-05-03T15:29:24Z</time>
      </trkpt>
      <trkpt lat="39.663812467186" lon="3.032806783752">
        <ele>124.6</ele>
        <time>2014-05-03T15:29:25Z</time>
      </trkpt>
      <trkpt lat="39.663917240936" lon="3.032830336891">
        <ele>124.2</ele>
        <time>2014-05-03T15:29:26Z</time>
      </trkpt>
      <trkpt lat="39.664021344134" lon="3.032850788727">
        <ele>123.6</ele>
        <time>2014-05-03T15:29:27Z</time>
      </trkpt>
      <trkpt lat="39.664126285522" lon="3.032873419857">
        <ele>123</ele>
        <time>2014-05-03T15:29:28Z</time>
      </trkpt>
      <trkpt lat="39.664232987109" lon="3.032902756507">
        <ele>123</ele>
        <time>2014-05-03T15:29:29Z</time>
      </trkpt>
      <trkpt lat="39.66433935342" lon="3.032926309646">
        <ele>122.6</ele>
        <time>2014-05-03T15:29:30Z</time>
      </trkpt>
      <trkpt lat="39.664445635912" lon="3.032947934948">
        <ele>122.2</ele>
        <time>2014-05-03T15:29:31Z</time>
      </trkpt>
      <trkpt lat="39.664553846241" lon="3.032974002657">
        <ele>121.8</ele>
        <time>2014-05-03T15:29:32Z</time>
      </trkpt>
      <trkpt lat="39.66466373295" lon="3.032999064538">
        <ele>121.2</ele>
        <time>2014-05-03T15:29:33Z</time>
      </trkpt>
      <trkpt lat="39.664772530012" lon="3.033021276573">
        <ele>120.8</ele>
        <time>2014-05-03T15:29:34Z</time>
      </trkpt>
      <trkpt lat="39.664879483056" lon="3.033041812228">
        <ele>120.4</ele>
        <time>2014-05-03T15:29:35Z</time>
      </trkpt>
      <trkpt lat="39.664991046145" lon="3.033063940444">
        <ele>119.8</ele>
        <time>2014-05-03T15:29:36Z</time>
      </trkpt>
      <trkpt lat="39.66510713546" lon="3.033090594886">
        <ele>119</ele>
        <time>2014-05-03T15:29:37Z</time>
      </trkpt>
      <trkpt lat="39.665218195635" lon="3.033115656767">
        <ele>118.6</ele>
        <time>2014-05-03T15:29:38Z</time>
      </trkpt>
      <trkpt lat="39.665328669077" lon="3.033136276241">
        <ele>118.2</ele>
        <time>2014-05-03T15:29:39Z</time>
      </trkpt>
      <trkpt lat="39.665439477795" lon="3.033162930683">
        <ele>117.6</ele>
        <time>2014-05-03T15:29:40Z</time>
      </trkpt>
      <trkpt lat="39.665548191038" lon="3.033188663116">
        <ele>117.2</ele>
        <time>2014-05-03T15:29:41Z</time>
      </trkpt>
      <trkpt lat="39.665663777439" lon="3.033211964798">
        <ele>116.8</ele>
        <time>2014-05-03T15:29:42Z</time>
      </trkpt>
      <trkpt lat="39.665774586157" lon="3.033237529593">
        <ele>116.4</ele>
        <time>2014-05-03T15:29:43Z</time>
      </trkpt>
      <trkpt lat="39.666004166398" lon="3.033289078278">
        <ele>116</ele>
        <time>2014-05-03T15:29:45Z</time>
      </trkpt>
      <trkpt lat="39.666115897125" lon="3.033312715236">
        <ele>115.4</ele>
        <time>2014-05-03T15:29:46Z</time>
      </trkpt>
      <trkpt lat="39.66622528092" lon="3.033334675814">
        <ele>115</ele>
        <time>2014-05-03T15:29:47Z</time>
      </trkpt>
      <trkpt lat="39.666336173457" lon="3.033357390763">
        <ele>114.4</ele>
        <time>2014-05-03T15:29:48Z</time>
      </trkpt>
      <trkpt lat="39.666443629415" lon="3.033379267522">
        <ele>114</ele>
        <time>2014-05-03T15:29:49Z</time>
      </trkpt>
      <trkpt lat="39.666762476891" lon="3.033518658519">
        <ele>114</ele>
        <time>2014-05-03T15:29:52Z</time>
      </trkpt>
      <trkpt lat="39.666859204017" lon="3.033591078135">
        <ele>114</ele>
        <time>2014-05-03T15:29:53Z</time>
      </trkpt>
      <trkpt lat="39.666955260591" lon="3.033666431416">
        <ele>114</ele>
        <time>2014-05-03T15:29:54Z</time>
      </trkpt>
      <trkpt lat="39.667246950711" lon="3.033886372472">
        <ele>114</ele>
        <time>2014-05-03T15:29:57Z</time>
      </trkpt>
      <trkpt lat="39.66764014564" lon="3.034174290737">
        <ele>114</ele>
        <time>2014-05-03T15:30:01Z</time>
      </trkpt>
      <trkpt lat="39.667732514178" lon="3.034245955982">
        <ele>114</ele>
        <time>2014-05-03T15:30:02Z</time>
      </trkpt>
      <trkpt lat="39.668007189041" lon="3.034448881781">
        <ele>114</ele>
        <time>2014-05-03T15:30:05Z</time>
      </trkpt>
      <trkpt lat="39.668089834575" lon="3.03451937356">
        <ele>114</ele>
        <time>2014-05-03T15:30:06Z</time>
      </trkpt>
      <trkpt lat="39.668176754878" lon="3.03457888505">
        <ele>114.4</ele>
        <time>2014-05-03T15:30:07Z</time>
      </trkpt>
      <trkpt lat="39.668267782312" lon="3.034643174223">
        <ele>115</ele>
        <time>2014-05-03T15:30:08Z</time>
      </trkpt>
      <trkpt lat="39.668348583828" lon="3.034710816156">
        <ele>115.4</ele>
        <time>2014-05-03T15:30:09Z</time>
      </trkpt>
      <trkpt lat="39.6684397789" lon="3.034762951574">
        <ele>115.8</ele>
        <time>2014-05-03T15:30:10Z</time>
      </trkpt>
      <trkpt lat="39.66853365618" lon="3.0348261511">
        <ele>116.2</ele>
        <time>2014-05-03T15:30:11Z</time>
      </trkpt>
      <trkpt lat="39.669018381457" lon="3.035113482632">
        <ele>116.2</ele>
        <time>2014-05-03T15:30:16Z</time>
      </trkpt>
      <trkpt lat="39.669391795102" lon="3.035317581897">
        <ele>116.8</ele>
        <time>2014-05-03T15:30:20Z</time>
      </trkpt>
      <trkpt lat="39.669488186952" lon="3.035360832501">
        <ele>117.4</ele>
        <time>2014-05-03T15:30:21Z</time>
      </trkpt>
      <trkpt lat="39.669576615997" lon="3.035415314851">
        <ele>118</ele>
        <time>2014-05-03T15:30:22Z</time>
      </trkpt>
      <trkpt lat="39.669662865748" lon="3.035479520205">
        <ele>118.4</ele>
        <time>2014-05-03T15:30:23Z</time>
      </trkpt>
      <trkpt lat="39.669731094414" lon="3.03558806581">
        <ele>119</ele>
        <time>2014-05-03T15:30:24Z</time>
      </trkpt>
      <trkpt lat="39.669762107444" lon="3.035713961948">
        <ele>119</ele>
        <time>2014-05-03T15:30:25Z</time>
      </trkpt>
      <trkpt lat="39.669832347766" lon="3.035935327927">
        <ele>119</ele>
        <time>2014-05-03T15:30:27Z</time>
      </trkpt>
      <trkpt lat="39.6698730838" lon="3.036038928211">
        <ele>119</ele>
        <time>2014-05-03T15:30:28Z</time>
      </trkpt>
      <trkpt lat="39.669959585008" lon="3.036237579241">
        <ele>119</ele>
        <time>2014-05-03T15:30:30Z</time>
      </trkpt>
      <trkpt lat="39.67009604234" lon="3.036541842211">
        <ele>119.4</ele>
        <time>2014-05-03T15:30:33Z</time>
      </trkpt>
      <trkpt lat="39.670149770319" lon="3.036634629844">
        <ele>120</ele>
        <time>2014-05-03T15:30:34Z</time>
      </trkpt>
      <trkpt lat="39.670203582117" lon="3.036731440789">
        <ele>120.4</ele>
        <time>2014-05-03T15:30:35Z</time>
      </trkpt>
      <trkpt lat="39.670249514929" lon="3.036817019988">
        <ele>120.8</ele>
        <time>2014-05-03T15:30:36Z</time>
      </trkpt>
      <trkpt lat="39.67030726622" lon="3.036890864527">
        <ele>121.2</ele>
        <time>2014-05-03T15:30:37Z</time>
      </trkpt>
      <trkpt lat="39.670462918103" lon="3.036987340196">
        <ele>121.2</ele>
        <time>2014-05-03T15:30:39Z</time>
      </trkpt>
      <trkpt lat="39.670910930658" lon="3.037256483005">
        <ele>121.2</ele>
        <time>2014-05-03T15:30:44Z</time>
      </trkpt>
      <trkpt lat="39.671001538997" lon="3.037328567345">
        <ele>120.6</ele>
        <time>2014-05-03T15:30:45Z</time>
      </trkpt>
      <trkpt lat="39.671090638594" lon="3.037408027757">
        <ele>120</ele>
        <time>2014-05-03T15:30:46Z</time>
      </trkpt>
      <trkpt lat="39.671176301612" lon="3.037486817617">
        <ele>119.6</ele>
        <time>2014-05-03T15:30:47Z</time>
      </trkpt>
      <trkpt lat="39.67126280282" lon="3.037566110391">
        <ele>118.8</ele>
        <time>2014-05-03T15:30:48Z</time>
      </trkpt>
      <trkpt lat="39.671349052571" lon="3.0376340876">
        <ele>118.2</ele>
        <time>2014-05-03T15:30:49Z</time>
      </trkpt>
      <trkpt lat="39.67143546996" lon="3.037696532755">
        <ele>116.8</ele>
        <time>2014-05-03T15:30:50Z</time>
      </trkpt>
      <trkpt lat="39.671519708055" lon="3.03776233067">
        <ele>116.2</ele>
        <time>2014-05-03T15:30:51Z</time>
      </trkpt>
      <trkpt lat="39.671870574389" lon="3.037977577862">
        <ele>116.2</ele>
        <time>2014-05-03T15:30:55Z</time>
      </trkpt>
      <trkpt lat="39.672400059012" lon="3.038265831403">
        <ele>116.2</ele>
        <time>2014-05-03T15:31:01Z</time>
      </trkpt>
      <trkpt lat="39.672488152781" lon="3.038315787527">
        <ele>116.8</ele>
        <time>2014-05-03T15:31:02Z</time>
      </trkpt>
      <trkpt lat="39.672580102224" lon="3.038368844954">
        <ele>117.2</ele>
        <time>2014-05-03T15:31:03Z</time>
      </trkpt>
      <trkpt lat="39.67267180021" lon="3.038418801078">
        <ele>117.8</ele>
        <time>2014-05-03T15:31:04Z</time>
      </trkpt>
      <trkpt lat="39.672770538992" lon="3.038458112189">
        <ele>118.2</ele>
        <time>2014-05-03T15:31:05Z</time>
      </trkpt>
      <trkpt lat="39.672873049629" lon="3.038479318396">
        <ele>118.8</ele>
        <time>2014-05-03T15:31:06Z</time>
      </trkpt>
      <trkpt lat="39.67297606318" lon="3.038492729436">
        <ele>118.8</ele>
        <time>2014-05-03T15:31:07Z</time>
      </trkpt>
      <trkpt lat="39.673081088387" lon="3.038506727209">
        <ele>118.4</ele>
        <time>2014-05-03T15:31:08Z</time>
      </trkpt>
      <trkpt lat="39.673191142734" lon="3.038518797145">
        <ele>118</ele>
        <time>2014-05-03T15:31:09Z</time>
      </trkpt>
      <trkpt lat="39.673301616176" lon="3.038524496837">
        <ele>117.6</ele>
        <time>2014-05-03T15:31:10Z</time>
      </trkpt>
      <trkpt lat="39.673414101274" lon="3.038529861253">
        <ele>117.2</ele>
        <time>2014-05-03T15:31:11Z</time>
      </trkpt>
      <trkpt lat="39.673517617739" lon="3.038536147678">
        <ele>116.8</ele>
        <time>2014-05-03T15:31:12Z</time>
      </trkpt>
      <trkpt lat="39.673620128376" lon="3.038543607569">
        <ele>116.8</ele>
        <time>2014-05-03T15:31:13Z</time>
      </trkpt>
      <trkpt lat="39.67422580447" lon="3.03858291868">
        <ele>116.8</ele>
        <time>2014-05-03T15:31:19Z</time>
      </trkpt>
      <trkpt lat="39.67432471089" lon="3.038593228417">
        <ele>116.8</ele>
        <time>2014-05-03T15:31:20Z</time>
      </trkpt>
      <trkpt lat="39.67488797457" lon="3.038623906171">
        <ele>116.8</ele>
        <time>2014-05-03T15:31:26Z</time>
      </trkpt>
      <trkpt lat="39.674976655072" lon="3.03862985732">
        <ele>117.2</ele>
        <time>2014-05-03T15:31:27Z</time>
      </trkpt>
      <trkpt lat="39.675058378597" lon="3.03863656284">
        <ele>117.8</ele>
        <time>2014-05-03T15:31:28Z</time>
      </trkpt>
      <trkpt lat="39.675140772674" lon="3.038652404631">
        <ele>118.2</ele>
        <time>2014-05-03T15:31:29Z</time>
      </trkpt>
      <trkpt lat="39.675220987457" lon="3.03867595777">
        <ele>118.6</ele>
        <time>2014-05-03T15:31:30Z</time>
      </trkpt>
      <trkpt lat="39.675294999634" lon="3.038723315505">
        <ele>119.2</ele>
        <time>2014-05-03T15:31:31Z</time>
      </trkpt>
      <trkpt lat="39.675362473929" lon="3.038781904986">
        <ele>119.2</ele>
        <time>2014-05-03T15:31:32Z</time>
      </trkpt>
      <trkpt lat="39.675867567223" lon="3.039187169851">
        <ele>119.2</ele>
        <time>2014-05-03T15:31:39Z</time>
      </trkpt>
      <trkpt lat="39.675949039291" lon="3.039249112092">
        <ele>119.2</ele>
        <time>2014-05-03T15:31:40Z</time>
      </trkpt>
      <trkpt lat="39.676417755139" lon="3.039702405244">
        <ele>119.2</ele>
        <time>2014-05-03T15:31:46Z</time>
      </trkpt>
      <trkpt lat="39.676499394845" lon="3.03979242685">
        <ele>118.6</ele>
        <time>2014-05-03T15:31:47Z</time>
      </trkpt>
      <trkpt lat="39.676573909936" lon="3.039876497307">
        <ele>118.2</ele>
        <time>2014-05-03T15:31:48Z</time>
      </trkpt>
      <trkpt lat="39.676651191054" lon="3.039961573592">
        <ele>117.6</ele>
        <time>2014-05-03T15:31:49Z</time>
      </trkpt>
      <trkpt lat="39.676729813276" lon="3.040044805859">
        <ele>117.2</ele>
        <time>2014-05-03T15:31:50Z</time>
      </trkpt>
      <trkpt lat="39.676809860421" lon="3.04012937923">
        <ele>116.6</ele>
        <time>2014-05-03T15:31:51Z</time>
      </trkpt>
      <trkpt lat="39.67706140124" lon="3.04037832166">
        <ele>116.6</ele>
        <time>2014-05-03T15:31:54Z</time>
      </trkpt>
      <trkpt lat="39.677148992095" lon="3.040453172027">
        <ele>116.2</ele>
        <time>2014-05-03T15:31:55Z</time>
      </trkpt>
      <trkpt lat="39.677245467764" lon="3.040524334358">
        <ele>115.6</ele>
        <time>2014-05-03T15:31:56Z</time>
      </trkpt>
      <trkpt lat="39.677342613985" lon="3.040592395386">
        <ele>115.2</ele>
        <time>2014-05-03T15:31:57Z</time>
      </trkpt>
      <trkpt lat="39.67742936665" lon="3.040650481953">
        <ele>114.6</ele>
        <time>2014-05-03T15:31:58Z</time>
      </trkpt>
      <trkpt lat="39.677527015785" lon="3.040702952647">
        <ele>114</ele>
        <time>2014-05-03T15:31:59Z</time>
      </trkpt>
      <trkpt lat="39.677924569302" lon="3.040902441867">
        <ele>113.6</ele>
        <time>2014-05-03T15:32:03Z</time>
      </trkpt>
      <trkpt lat="39.678022888989" lon="3.040950134878">
        <ele>113.2</ele>
        <time>2014-05-03T15:32:04Z</time>
      </trkpt>
      <trkpt lat="39.678119532296" lon="3.040997827889">
        <ele>112.6</ele>
        <time>2014-05-03T15:32:05Z</time>
      </trkpt>
      <trkpt lat="39.678215421232" lon="3.04104719728">
        <ele>112.2</ele>
        <time>2014-05-03T15:32:06Z</time>
      </trkpt>
      <trkpt lat="39.678313824738" lon="3.041097572499">
        <ele>111.8</ele>
        <time>2014-05-03T15:32:07Z</time>
      </trkpt>
      <trkpt lat="39.678908017629" lon="3.041352214621">
        <ele>111.8</ele>
        <time>2014-05-03T15:32:13Z</time>
      </trkpt>
      <trkpt lat="39.679477232458" lon="3.041518762974">
        <ele>111.8</ele>
        <time>2014-05-03T15:32:19Z</time>
      </trkpt>
      <trkpt lat="39.679661885715" lon="3.041565450157">
        <ele>111.8</ele>
        <time>2014-05-03T15:32:21Z</time>
      </trkpt>
      <trkpt lat="39.680187598483" lon="3.041755970744">
        <ele>111.8</ele>
        <time>2014-05-03T15:32:27Z</time>
      </trkpt>
      <trkpt lat="39.680271082207" lon="3.041798634615">
        <ele>111.8</ele>
        <time>2014-05-03T15:32:28Z</time>
      </trkpt>
      <trkpt lat="39.680412317222" lon="3.041889159135">
        <ele>112.2</ele>
        <time>2014-05-03T15:32:30Z</time>
      </trkpt>
      <trkpt lat="39.680471912531" lon="3.041926626228">
        <ele>113.2</ele>
        <time>2014-05-03T15:32:31Z</time>
      </trkpt>
      <trkpt lat="39.680519018809" lon="3.041981360035">
        <ele>114</ele>
        <time>2014-05-03T15:32:32Z</time>
      </trkpt>
      <trkpt lat="39.680565454535" lon="3.042018827128">
        <ele>115.4</ele>
        <time>2014-05-03T15:32:33Z</time>
      </trkpt>
      <trkpt lat="39.680596802841" lon="3.042064257026">
        <ele>116.6</ele>
        <time>2014-05-03T15:32:34Z</time>
      </trkpt>
      <trkpt lat="39.680629911346" lon="3.042098958092">
        <ele>117.8</ele>
        <time>2014-05-03T15:32:35Z</time>
      </trkpt>
      <trkpt lat="39.680659247996" lon="3.042130557855">
        <ele>117.8</ele>
        <time>2014-05-03T15:32:36Z</time>
      </trkpt>
      <trkpt lat="39.680686489171" lon="3.042158553401">
        <ele>117.6</ele>
        <time>2014-05-03T15:32:37Z</time>
      </trkpt>
      <trkpt lat="39.680710964319" lon="3.042179843427">
        <ele>117.6</ele>
        <time>2014-05-03T15:32:38Z</time>
      </trkpt>
      <trkpt lat="39.680735271829" lon="3.042199457073">
        <ele>118</ele>
        <time>2014-05-03T15:32:39Z</time>
      </trkpt>
      <trkpt lat="39.680763099737" lon="3.042215550321">
        <ele>118.4</ele>
        <time>2014-05-03T15:32:40Z</time>
      </trkpt>
      <trkpt lat="39.68078296484" lon="3.042246311894">
        <ele>118.8</ele>
        <time>2014-05-03T15:32:41Z</time>
      </trkpt>
      <trkpt lat="39.680806098884" lon="3.042267769558">
        <ele>119.2</ele>
        <time>2014-05-03T15:32:42Z</time>
      </trkpt>
      <trkpt lat="39.680823281779" lon="3.042287802299">
        <ele>119.6</ele>
        <time>2014-05-03T15:32:43Z</time>
      </trkpt>
      <trkpt lat="39.680838955932" lon="3.042298195855">
        <ele>119.6</ele>
        <time>2014-05-03T15:32:47Z</time>
      </trkpt>
      <trkpt lat="39.680838955932" lon="3.042298195855">
        <ele>119.6</ele>
        <time>2014-05-03T15:32:54Z</time>
      </trkpt>
      <trkpt lat="39.680834010611" lon="3.042321916632">
        <ele>120.2</ele>
        <time>2014-05-03T15:42:37Z</time>
      </trkpt>
      <trkpt lat="39.680836609" lon="3.042323676831">
        <ele>120.2</ele>
        <time>2014-05-03T15:42:38Z</time>
      </trkpt>
      <trkpt lat="39.680852702248" lon="3.04234220083">
        <ele>120.2</ele>
        <time>2014-05-03T15:42:40Z</time>
      </trkpt>
      <trkpt lat="39.680899892345" lon="3.042373130041">
        <ele>120.2</ele>
        <time>2014-05-03T15:42:42Z</time>
      </trkpt>
      <trkpt lat="39.680998631127" lon="3.042425014002">
        <ele>120.2</ele>
        <time>2014-05-03T15:42:45Z</time>
      </trkpt>
      <trkpt lat="39.681062417386" lon="3.042460050344">
        <ele>120.6</ele>
        <time>2014-05-03T15:42:48Z</time>
      </trkpt>
      <trkpt lat="39.681078510634" lon="3.042474551031">
        <ele>121.2</ele>
        <time>2014-05-03T15:42:49Z</time>
      </trkpt>
      <trkpt lat="39.681100052117" lon="3.042495254324">
        <ele>121.6</ele>
        <time>2014-05-03T15:42:50Z</time>
      </trkpt>
      <trkpt lat="39.681127796206" lon="3.042519980929">
        <ele>122</ele>
        <time>2014-05-03T15:42:51Z</time>
      </trkpt>
      <trkpt lat="39.68116182672" lon="3.042545797181">
        <ele>122.4</ele>
        <time>2014-05-03T15:42:52Z</time>
      </trkpt>
      <trkpt lat="39.681237347639" lon="3.042596675314">
        <ele>122.4</ele>
        <time>2014-05-03T15:42:54Z</time>
      </trkpt>
      <trkpt lat="39.681367602365" lon="3.042682003056">
        <ele>122.4</ele>
        <time>2014-05-03T15:42:57Z</time>
      </trkpt>
      <trkpt lat="39.681412194073" lon="3.042714189552">
        <ele>122.4</ele>
        <time>2014-05-03T15:42:58Z</time>
      </trkpt>
      <trkpt lat="39.681551417432" lon="3.042802618597">
        <ele>122.4</ele>
        <time>2014-05-03T15:43:01Z</time>
      </trkpt>
      <trkpt lat="39.68164713873" lon="3.042850730703">
        <ele>122.4</ele>
        <time>2014-05-03T15:43:03Z</time>
      </trkpt>
      <trkpt lat="39.681793486704" lon="3.042926754536">
        <ele>122.4</ele>
        <time>2014-05-03T15:43:06Z</time>
      </trkpt>
      <trkpt lat="39.681973027002" lon="3.043014010115">
        <ele>122.8</ele>
        <time>2014-05-03T15:43:10Z</time>
      </trkpt>
      <trkpt lat="39.682014685045" lon="3.04303538396">
        <ele>123.4</ele>
        <time>2014-05-03T15:43:11Z</time>
      </trkpt>
      <trkpt lat="39.682055001984" lon="3.043051141932">
        <ele>123.8</ele>
        <time>2014-05-03T15:43:12Z</time>
      </trkpt>
      <trkpt lat="39.682094229276" lon="3.043066732266">
        <ele>124.8</ele>
        <time>2014-05-03T15:43:13Z</time>
      </trkpt>
      <trkpt lat="39.6821693311" lon="3.043102187703">
        <ele>125.2</ele>
        <time>2014-05-03T15:43:15Z</time>
      </trkpt>
      <trkpt lat="39.682206379098" lon="3.043116939847">
        <ele>125.6</ele>
        <time>2014-05-03T15:43:16Z</time>
      </trkpt>
      <trkpt lat="39.682243510915" lon="3.043131356715">
        <ele>126</ele>
        <time>2014-05-03T15:43:17Z</time>
      </trkpt>
      <trkpt lat="39.682283660216" lon="3.043144600117">
        <ele>126.4</ele>
        <time>2014-05-03T15:43:18Z</time>
      </trkpt>
      <trkpt lat="39.682324060974" lon="3.043155999501">
        <ele>126.8</ele>
        <time>2014-05-03T15:43:19Z</time>
      </trkpt>
      <trkpt lat="39.682406203594" lon="3.043168488532">
        <ele>127.2</ele>
        <time>2014-05-03T15:43:21Z</time>
      </trkpt>
      <trkpt lat="39.682448532189" lon="3.043178211536">
        <ele>127.6</ele>
        <time>2014-05-03T15:43:22Z</time>
      </trkpt>
      <trkpt lat="39.68249119606" lon="3.043186090522">
        <ele>128</ele>
        <time>2014-05-03T15:43:23Z</time>
      </trkpt>
      <trkpt lat="39.68253562013" lon="3.043185755246">
        <ele>128.4</ele>
        <time>2014-05-03T15:43:24Z</time>
      </trkpt>
      <trkpt lat="39.682582139675" lon="3.043187599264">
        <ele>128.8</ele>
        <time>2014-05-03T15:43:25Z</time>
      </trkpt>
      <trkpt lat="39.682627066659" lon="3.04319212549">
        <ele>129.4</ele>
        <time>2014-05-03T15:43:26Z</time>
      </trkpt>
      <trkpt lat="39.682675849317" lon="3.043199585381">
        <ele>129.8</ele>
        <time>2014-05-03T15:43:27Z</time>
      </trkpt>
      <trkpt lat="39.682726559812" lon="3.043206123263">
        <ele>130.2</ele>
        <time>2014-05-03T15:43:28Z</time>
      </trkpt>
      <trkpt lat="39.682772073529" lon="3.043212493507">
        <ele>130.8</ele>
        <time>2014-05-03T15:43:29Z</time>
      </trkpt>
      <trkpt lat="39.682813815391" lon="3.04322062395">
        <ele>131.2</ele>
        <time>2014-05-03T15:43:30Z</time>
      </trkpt>
      <trkpt lat="39.68285497052" lon="3.043233783533">
        <ele>131.2</ele>
        <time>2014-05-03T15:43:31Z</time>
      </trkpt>
      <trkpt lat="39.682896460925" lon="3.04325079879">
        <ele>131.2</ele>
        <time>2014-05-03T15:43:32Z</time>
      </trkpt>
      <trkpt lat="39.682996456992" lon="3.043280051621">
        <ele>131.2</ele>
        <time>2014-05-03T15:43:34Z</time>
      </trkpt>
      <trkpt lat="39.683162334793" lon="3.043328079908">
        <ele>131.2</ele>
        <time>2014-05-03T15:43:37Z</time>
      </trkpt>
      <trkpt lat="39.683607916597" lon="3.043449785096">
        <ele>131.2</ele>
        <time>2014-05-03T15:43:44Z</time>
      </trkpt>
      <trkpt lat="39.68367891129" lon="3.043452634942">
        <ele>131.2</ele>
        <time>2014-05-03T15:43:45Z</time>
      </trkpt>
      <trkpt lat="39.683913520671" lon="3.043440648825">
        <ele>130.6</ele>
        <time>2014-05-03T15:43:48Z</time>
      </trkpt>
      <trkpt lat="39.684001027707" lon="3.043441989929">
        <ele>130.2</ele>
        <time>2014-05-03T15:43:49Z</time>
      </trkpt>
      <trkpt lat="39.684090881675" lon="3.043446013241">
        <ele>129.8</ele>
        <time>2014-05-03T15:43:50Z</time>
      </trkpt>
      <trkpt lat="39.684185597145" lon="3.043448863087">
        <ele>129</ele>
        <time>2014-05-03T15:43:51Z</time>
      </trkpt>
      <trkpt lat="39.684283497737" lon="3.043447186707">
        <ele>128.2</ele>
        <time>2014-05-03T15:43:52Z</time>
      </trkpt>
      <trkpt lat="39.684383577623" lon="3.043443917766">
        <ele>127.4</ele>
        <time>2014-05-03T15:43:53Z</time>
      </trkpt>
      <trkpt lat="39.684490027753" lon="3.043445007413">
        <ele>126.4</ele>
        <time>2014-05-03T15:43:54Z</time>
      </trkpt>
      <trkpt lat="39.684602261394" lon="3.04346118448">
        <ele>125.4</ele>
        <time>2014-05-03T15:43:55Z</time>
      </trkpt>
      <trkpt lat="39.684710471723" lon="3.043504435084">
        <ele>124.4</ele>
        <time>2014-05-03T15:43:56Z</time>
      </trkpt>
      <trkpt lat="39.684824214106" lon="3.043563276022">
        <ele>123.4</ele>
        <time>2014-05-03T15:43:57Z</time>
      </trkpt>
      <trkpt lat="39.684929826046" lon="3.043622871331">
        <ele>122.2</ele>
        <time>2014-05-03T15:43:58Z</time>
      </trkpt>
      <trkpt lat="39.685037198185" lon="3.043682382821">
        <ele>121.2</ele>
        <time>2014-05-03T15:43:59Z</time>
      </trkpt>
      <trkpt lat="39.685145408514" lon="3.043740804664">
        <ele>120.2</ele>
        <time>2014-05-03T15:44:00Z</time>
      </trkpt>
      <trkpt lat="39.685256803965" lon="3.043800148516">
        <ele>119.2</ele>
        <time>2014-05-03T15:44:01Z</time>
      </trkpt>
      <trkpt lat="39.685370127253" lon="3.043850188459">
        <ele>117.2</ele>
        <time>2014-05-03T15:44:02Z</time>
      </trkpt>
      <trkpt lat="39.685481941799" lon="3.043905089904">
        <ele>116.6</ele>
        <time>2014-05-03T15:44:03Z</time>
      </trkpt>
      <trkpt lat="39.685599372218" lon="3.04396745124">
        <ele>116</ele>
        <time>2014-05-03T15:44:04Z</time>
      </trkpt>
      <trkpt lat="39.685710516212" lon="3.04402863911">
        <ele>115.2</ele>
        <time>2014-05-03T15:44:05Z</time>
      </trkpt>
      <trkpt lat="39.685822749853" lon="3.044089491704">
        <ele>114.4</ele>
        <time>2014-05-03T15:44:06Z</time>
      </trkpt>
      <trkpt lat="39.685934229123" lon="3.044151266307">
        <ele>113.6</ele>
        <time>2014-05-03T15:44:07Z</time>
      </trkpt>
      <trkpt lat="39.686044451108" lon="3.044212705634">
        <ele>112.8</ele>
        <time>2014-05-03T15:44:08Z</time>
      </trkpt>
      <trkpt lat="39.68615743912" lon="3.044273642047">
        <ele>111.8</ele>
        <time>2014-05-03T15:44:09Z</time>
      </trkpt>
      <trkpt lat="39.686269086028" lon="3.044330303691">
        <ele>110.8</ele>
        <time>2014-05-03T15:44:10Z</time>
      </trkpt>
      <trkpt lat="39.686379224194" lon="3.044391910656">
        <ele>109.8</ele>
        <time>2014-05-03T15:44:11Z</time>
      </trkpt>
      <trkpt lat="39.686497325165" lon="3.044453349983">
        <ele>108.6</ele>
        <time>2014-05-03T15:44:12Z</time>
      </trkpt>
      <trkpt lat="39.686606960417" lon="3.044509676351">
        <ele>107.6</ele>
        <time>2014-05-03T15:44:13Z</time>
      </trkpt>
      <trkpt lat="39.686713075271" lon="3.044567343823">
        <ele>106.6</ele>
        <time>2014-05-03T15:44:14Z</time>
      </trkpt>
      <trkpt lat="39.686817262288" lon="3.044625346571">
        <ele>106</ele>
        <time>2014-05-03T15:44:15Z</time>
      </trkpt>
      <trkpt lat="39.686920443477" lon="3.044679493645">
        <ele>105.4</ele>
        <time>2014-05-03T15:44:16Z</time>
      </trkpt>
      <trkpt lat="39.687025133408" lon="3.04473020414">
        <ele>105</ele>
        <time>2014-05-03T15:44:17Z</time>
      </trkpt>
      <trkpt lat="39.687129655701" lon="3.044780076445">
        <ele>104.4</ele>
        <time>2014-05-03T15:44:18Z</time>
      </trkpt>
      <trkpt lat="39.687232250157" lon="3.044842940695">
        <ele>103.8</ele>
        <time>2014-05-03T15:44:19Z</time>
      </trkpt>
      <trkpt lat="39.687332665319" lon="3.044928603713">
        <ele>103.8</ele>
        <time>2014-05-03T15:44:20Z</time>
      </trkpt>
      <trkpt lat="39.68741807688" lon="3.04503362892">
        <ele>103.2</ele>
        <time>2014-05-03T15:44:21Z</time>
      </trkpt>
      <trkpt lat="39.687496447645" lon="3.045148963864">
        <ele>102.8</ele>
        <time>2014-05-03T15:44:22Z</time>
      </trkpt>
      <trkpt lat="39.687579763731" lon="3.045265639912">
        <ele>102</ele>
        <time>2014-05-03T15:44:23Z</time>
      </trkpt>
      <trkpt lat="39.687670958803" lon="3.045381393951">
        <ele>101.2</ele>
        <time>2014-05-03T15:44:24Z</time>
      </trkpt>
      <trkpt lat="39.687768272662" lon="3.045492537945">
        <ele>100.2</ele>
        <time>2014-05-03T15:44:25Z</time>
      </trkpt>
      <trkpt lat="39.687874638973" lon="3.045610974192">
        <ele>99.4</ele>
        <time>2014-05-03T15:44:26Z</time>
      </trkpt>
      <trkpt lat="39.687980586189" lon="3.045714406838">
        <ele>97</ele>
        <time>2014-05-03T15:44:27Z</time>
      </trkpt>
      <trkpt lat="39.688087203957" lon="3.045813899991">
        <ele>96</ele>
        <time>2014-05-03T15:44:28Z</time>
      </trkpt>
      <trkpt lat="39.688191307155" lon="3.045912638773">
        <ele>94.8</ele>
        <time>2014-05-03T15:44:29Z</time>
      </trkpt>
      <trkpt lat="39.688296416181" lon="3.046008276252">
        <ele>93.8</ele>
        <time>2014-05-03T15:44:30Z</time>
      </trkpt>
      <trkpt lat="39.688400938474" lon="3.046103494636">
        <ele>92.6</ele>
        <time>2014-05-03T15:44:31Z</time>
      </trkpt>
      <trkpt lat="39.688503365292" lon="3.046198293925">
        <ele>91.8</ele>
        <time>2014-05-03T15:44:32Z</time>
      </trkpt>
      <trkpt lat="39.688604451006" lon="3.046292506481">
        <ele>91</ele>
        <time>2014-05-03T15:44:33Z</time>
      </trkpt>
      <trkpt lat="39.688704866168" lon="3.046384120648">
        <ele>90.4</ele>
        <time>2014-05-03T15:44:34Z</time>
      </trkpt>
      <trkpt lat="39.688805700425" lon="3.046471376227">
        <ele>89.6</ele>
        <time>2014-05-03T15:44:35Z</time>
      </trkpt>
      <trkpt lat="39.688909384528" lon="3.046559386177">
        <ele>88.8</ele>
        <time>2014-05-03T15:44:36Z</time>
      </trkpt>
      <trkpt lat="39.689002088342" lon="3.046630129413">
        <ele>88.8</ele>
        <time>2014-05-03T15:44:37Z</time>
      </trkpt>
      <trkpt lat="39.689466864697" lon="3.0468960871">
        <ele>88.8</ele>
        <time>2014-05-03T15:44:42Z</time>
      </trkpt>
      <trkpt lat="39.689642297864" lon="3.046997843366">
        <ele>88.8</ele>
        <time>2014-05-03T15:44:44Z</time>
      </trkpt>
      <trkpt lat="39.689724189027" lon="3.0470469613">
        <ele>88.8</ele>
        <time>2014-05-03T15:44:45Z</time>
      </trkpt>
      <trkpt lat="39.689803146525" lon="3.04709976727">
        <ele>88.8</ele>
        <time>2014-05-03T15:44:46Z</time>
      </trkpt>
      <trkpt lat="39.68987564996" lon="3.047156680371">
        <ele>89.2</ele>
        <time>2014-05-03T15:44:47Z</time>
      </trkpt>
      <trkpt lat="39.689950751784" lon="3.047221221001">
        <ele>89.6</ele>
        <time>2014-05-03T15:44:48Z</time>
      </trkpt>
      <trkpt lat="39.690020824468" lon="3.047284336708">
        <ele>90</ele>
        <time>2014-05-03T15:44:49Z</time>
      </trkpt>
      <trkpt lat="39.690088047306" lon="3.047349966985">
        <ele>90.4</ele>
        <time>2014-05-03T15:44:50Z</time>
      </trkpt>
      <trkpt lat="39.690149989547" lon="3.047421883687">
        <ele>91</ele>
        <time>2014-05-03T15:44:51Z</time>
      </trkpt>
      <trkpt lat="39.690206232096" lon="3.047495476769">
        <ele>91</ele>
        <time>2014-05-03T15:44:52Z</time>
      </trkpt>
      <trkpt lat="39.690254344202" lon="3.04757166824">
        <ele>91</ele>
        <time>2014-05-03T15:44:53Z</time>
      </trkpt>
      <trkpt lat="39.690298181539" lon="3.047648865539">
        <ele>91.4</ele>
        <time>2014-05-03T15:44:54Z</time>
      </trkpt>
      <trkpt lat="39.69034084541" lon="3.047729499417">
        <ele>92</ele>
        <time>2014-05-03T15:44:55Z</time>
      </trkpt>
      <trkpt lat="39.690386275308" lon="3.047799320644">
        <ele>92.6</ele>
        <time>2014-05-03T15:44:56Z</time>
      </trkpt>
      <trkpt lat="39.690436315251" lon="3.047861346704">
        <ele>93</ele>
        <time>2014-05-03T15:44:57Z</time>
      </trkpt>
      <trkpt lat="39.690491468153" lon="3.04792538442">
        <ele>93.6</ele>
        <time>2014-05-03T15:44:58Z</time>
      </trkpt>
      <trkpt lat="39.690549303263" lon="3.04797902858">
        <ele>94.2</ele>
        <time>2014-05-03T15:44:59Z</time>
      </trkpt>
      <trkpt lat="39.690609820581" lon="3.048033427111">
        <ele>94.6</ele>
        <time>2014-05-03T15:45:00Z</time>
      </trkpt>
      <trkpt lat="39.690669164433" lon="3.048083467054">
        <ele>95</ele>
        <time>2014-05-03T15:45:01Z</time>
      </trkpt>
      <trkpt lat="39.690732028683" lon="3.048130070418">
        <ele>95.4</ele>
        <time>2014-05-03T15:45:02Z</time>
      </trkpt>
      <trkpt lat="39.690796150218" lon="3.048164184751">
        <ele>96</ele>
        <time>2014-05-03T15:45:03Z</time>
      </trkpt>
      <trkpt lat="39.690920537614" lon="3.048208357364">
        <ele>96</ele>
        <time>2014-05-03T15:45:05Z</time>
      </trkpt>
      <trkpt lat="39.691106531975" lon="3.048264599913">
        <ele>96</ele>
        <time>2014-05-03T15:45:08Z</time>
      </trkpt>
      <trkpt lat="39.691238379262" lon="3.048303324291">
        <ele>96</ele>
        <time>2014-05-03T15:45:10Z</time>
      </trkpt>
      <trkpt lat="39.691300321503" lon="3.048331403656">
        <ele>96.4</ele>
        <time>2014-05-03T15:45:11Z</time>
      </trkpt>
      <trkpt lat="39.691361425554" lon="3.048363338695">
        <ele>96.8</ele>
        <time>2014-05-03T15:45:12Z</time>
      </trkpt>
      <trkpt lat="39.691420769406" lon="3.048394854639">
        <ele>97.2</ele>
        <time>2014-05-03T15:45:13Z</time>
      </trkpt>
      <trkpt lat="39.691482627828" lon="3.048430645352">
        <ele>97.6</ele>
        <time>2014-05-03T15:45:14Z</time>
      </trkpt>
      <trkpt lat="39.691544570069" lon="3.04846601697">
        <ele>98</ele>
        <time>2014-05-03T15:45:15Z</time>
      </trkpt>
      <trkpt lat="39.691823854977" lon="3.048625943622">
        <ele>98.4</ele>
        <time>2014-05-03T15:45:20Z</time>
      </trkpt>
      <trkpt lat="39.691874900748" lon="3.048661231421">
        <ele>98.8</ele>
        <time>2014-05-03T15:45:21Z</time>
      </trkpt>
      <trkpt lat="39.691924856872" lon="3.048697105953">
        <ele>99.4</ele>
        <time>2014-05-03T15:45:22Z</time>
      </trkpt>
      <trkpt lat="39.691975735005" lon="3.048734405408">
        <ele>99.8</ele>
        <time>2014-05-03T15:45:23Z</time>
      </trkpt>
      <trkpt lat="39.692027870423" lon="3.04876860356">
        <ele>100.2</ele>
        <time>2014-05-03T15:45:24Z</time>
      </trkpt>
      <trkpt lat="39.692300701268" lon="3.048925428909">
        <ele>100.2</ele>
        <time>2014-05-03T15:45:29Z</time>
      </trkpt>
      <trkpt lat="39.692455179685" lon="3.049026095528">
        <ele>100.6</ele>
        <time>2014-05-03T15:45:32Z</time>
      </trkpt>
      <trkpt lat="39.692499268479" lon="3.049079152955">
        <ele>101.2</ele>
        <time>2014-05-03T15:45:33Z</time>
      </trkpt>
      <trkpt lat="39.692534472459" lon="3.049141179015">
        <ele>101.6</ele>
        <time>2014-05-03T15:45:34Z</time>
      </trkpt>
      <trkpt lat="39.692568838249" lon="3.049210664966">
        <ele>102.2</ele>
        <time>2014-05-03T15:45:35Z</time>
      </trkpt>
      <trkpt lat="39.692597504347" lon="3.049280905288">
        <ele>102.6</ele>
        <time>2014-05-03T15:45:36Z</time>
      </trkpt>
      <trkpt lat="39.692659111312" lon="3.049493134996">
        <ele>102.6</ele>
        <time>2014-05-03T15:45:39Z</time>
      </trkpt>
      <trkpt lat="39.692745444882" lon="3.049764038004">
        <ele>103</ele>
        <time>2014-05-03T15:45:43Z</time>
      </trkpt>
      <trkpt lat="39.692770087668" lon="3.049834110688">
        <ele>103.6</ele>
        <time>2014-05-03T15:45:44Z</time>
      </trkpt>
      <trkpt lat="39.692799508137" lon="3.049898232223">
        <ele>104</ele>
        <time>2014-05-03T15:45:45Z</time>
      </trkpt>
      <trkpt lat="39.692833706289" lon="3.049961515568">
        <ele>104.4</ele>
        <time>2014-05-03T15:45:46Z</time>
      </trkpt>
      <trkpt lat="39.692873185038" lon="3.05002337399">
        <ele>105</ele>
        <time>2014-05-03T15:45:47Z</time>
      </trkpt>
      <trkpt lat="39.692957171676" lon="3.0501315005">
        <ele>105</ele>
        <time>2014-05-03T15:45:49Z</time>
      </trkpt>
      <trkpt lat="39.693085498565" lon="3.050290169867">
        <ele>105</ele>
        <time>2014-05-03T15:45:52Z</time>
      </trkpt>
      <trkpt lat="39.693290938934" lon="3.050570544422">
        <ele>105.4</ele>
        <time>2014-05-03T15:45:57Z</time>
      </trkpt>
      <trkpt lat="39.693324382715" lon="3.050639108364">
        <ele>105.8</ele>
        <time>2014-05-03T15:45:58Z</time>
      </trkpt>
      <trkpt lat="39.69335665303" lon="3.050713371998">
        <ele>106.2</ele>
        <time>2014-05-03T15:45:59Z</time>
      </trkpt>
      <trkpt lat="39.693381631092" lon="3.050781181569">
        <ele>106.6</ele>
        <time>2014-05-03T15:46:00Z</time>
      </trkpt>
      <trkpt lat="39.693403675489" lon="3.050849326416">
        <ele>107</ele>
        <time>2014-05-03T15:46:01Z</time>
      </trkpt>
      <trkpt lat="39.693485901928" lon="3.051156774508">
        <ele>107</ele>
        <time>2014-05-03T15:46:05Z</time>
      </trkpt>
      <trkpt lat="39.693612636256" lon="3.051613923334">
        <ele>107.4</ele>
        <time>2014-05-03T15:46:11Z</time>
      </trkpt>
      <trkpt lat="39.693635686481" lon="3.05168550476">
        <ele>107.8</ele>
        <time>2014-05-03T15:46:12Z</time>
      </trkpt>
      <trkpt lat="39.693660245448" lon="3.051760019851">
        <ele>108.2</ele>
        <time>2014-05-03T15:46:13Z</time>
      </trkpt>
      <trkpt lat="39.693688324813" lon="3.051835205494">
        <ele>108.6</ele>
        <time>2014-05-03T15:46:14Z</time>
      </trkpt>
      <trkpt lat="39.693717410006" lon="3.051908379481">
        <ele>109</ele>
        <time>2014-05-03T15:46:15Z</time>
      </trkpt>
      <trkpt lat="39.693786979776" lon="3.052038885664">
        <ele>109</ele>
        <time>2014-05-03T15:46:17Z</time>
      </trkpt>
      <trkpt lat="39.69395763526" lon="3.052146090165">
        <ele>109</ele>
        <time>2014-05-03T15:46:20Z</time>
      </trkpt>
      <trkpt lat="39.694029216686" lon="3.052165536173">
        <ele>109</ele>
        <time>2014-05-03T15:46:21Z</time>
      </trkpt>
      <trkpt lat="39.694262065868" lon="3.052220689075">
        <ele>108.6</ele>
        <time>2014-05-03T15:46:24Z</time>
      </trkpt>
      <trkpt lat="39.694346136325" lon="3.052238458703">
        <ele>108.2</ele>
        <time>2014-05-03T15:46:25Z</time>
      </trkpt>
      <trkpt lat="39.694423752719" lon="3.052253713761">
        <ele>107.8</ele>
        <time>2014-05-03T15:46:26Z</time>
      </trkpt>
      <trkpt lat="39.694506230615" lon="3.05227139957">
        <ele>107.4</ele>
        <time>2014-05-03T15:46:27Z</time>
      </trkpt>
      <trkpt lat="39.69458711595" lon="3.052291097035">
        <ele>107</ele>
        <time>2014-05-03T15:46:28Z</time>
      </trkpt>
      <trkpt lat="39.694672192235" lon="3.052314650174">
        <ele>106.6</ele>
        <time>2014-05-03T15:46:29Z</time>
      </trkpt>
      <trkpt lat="39.694757100882" lon="3.052336443114">
        <ele>105.6</ele>
        <time>2014-05-03T15:46:30Z</time>
      </trkpt>
      <trkpt lat="39.694842093348" lon="3.052358403692">
        <ele>105.2</ele>
        <time>2014-05-03T15:46:31Z</time>
      </trkpt>
      <trkpt lat="39.694927504909" lon="3.052379609899">
        <ele>104.8</ele>
        <time>2014-05-03T15:46:32Z</time>
      </trkpt>
      <trkpt lat="39.695014006117" lon="3.05240215721">
        <ele>104.8</ele>
        <time>2014-05-03T15:46:33Z</time>
      </trkpt>
      <trkpt lat="39.695640469323" lon="3.052502991467">
        <ele>104.8</ele>
        <time>2014-05-03T15:46:40Z</time>
      </trkpt>
      <trkpt lat="39.696088230421" lon="3.052549762469">
        <ele>104.8</ele>
        <time>2014-05-03T15:46:45Z</time>
      </trkpt>
      <trkpt lat="39.696173474344" lon="3.05257398616">
        <ele>104.8</ele>
        <time>2014-05-03T15:46:46Z</time>
      </trkpt>
      <trkpt lat="39.696632131912" lon="3.052744306368">
        <ele>104.8</ele>
        <time>2014-05-03T15:46:52Z</time>
      </trkpt>
      <trkpt lat="39.697016274389" lon="3.052894677654">
        <ele>104.8</ele>
        <time>2014-05-03T15:46:58Z</time>
      </trkpt>
      <trkpt lat="39.697074444775" lon="3.052920829182">
        <ele>105.2</ele>
        <time>2014-05-03T15:46:59Z</time>
      </trkpt>
      <trkpt lat="39.697133620989" lon="3.052951255479">
        <ele>105.6</ele>
        <time>2014-05-03T15:47:00Z</time>
      </trkpt>
      <trkpt lat="39.697188941529" lon="3.052978915749">
        <ele>106</ele>
        <time>2014-05-03T15:47:01Z</time>
      </trkpt>
      <trkpt lat="39.69724585463" lon="3.053008587675">
        <ele>106.4</ele>
        <time>2014-05-03T15:47:02Z</time>
      </trkpt>
      <trkpt lat="39.697305785215" lon="3.053028871873">
        <ele>107</ele>
        <time>2014-05-03T15:47:03Z</time>
      </trkpt>
      <trkpt lat="39.697366721628" lon="3.053049407528">
        <ele>107.6</ele>
        <time>2014-05-03T15:47:04Z</time>
      </trkpt>
      <trkpt lat="39.697427909498" lon="3.053077235436">
        <ele>108</ele>
        <time>2014-05-03T15:47:05Z</time>
      </trkpt>
      <trkpt lat="39.697487169531" lon="3.053104644249">
        <ele>108.6</ele>
        <time>2014-05-03T15:47:06Z</time>
      </trkpt>
      <trkpt lat="39.697550285238" lon="3.053132388338">
        <ele>109</ele>
        <time>2014-05-03T15:47:07Z</time>
      </trkpt>
      <trkpt lat="39.697670565503" lon="3.053183685566">
        <ele>109</ele>
        <time>2014-05-03T15:47:09Z</time>
      </trkpt>
      <trkpt lat="39.697731585735" lon="3.053214698596">
        <ele>109.6</ele>
        <time>2014-05-03T15:47:10Z</time>
      </trkpt>
      <trkpt lat="39.697791432501" lon="3.053243867608">
        <ele>110</ele>
        <time>2014-05-03T15:47:11Z</time>
      </trkpt>
      <trkpt lat="39.697851279267" lon="3.053265744367">
        <ele>110.6</ele>
        <time>2014-05-03T15:47:12Z</time>
      </trkpt>
      <trkpt lat="39.697903247047" lon="3.053286615298">
        <ele>111</ele>
        <time>2014-05-03T15:47:13Z</time>
      </trkpt>
      <trkpt lat="39.697949012221" lon="3.053306312763">
        <ele>111.6</ele>
        <time>2014-05-03T15:47:14Z</time>
      </trkpt>
      <trkpt lat="39.697992011368" lon="3.053323747115">
        <ele>112</ele>
        <time>2014-05-03T15:47:15Z</time>
      </trkpt>
      <trkpt lat="39.698029729918" lon="3.053341684381">
        <ele>112.4</ele>
        <time>2014-05-03T15:47:16Z</time>
      </trkpt>
      <trkpt lat="39.698059820939" lon="3.053355514516">
        <ele>112.8</ele>
        <time>2014-05-03T15:47:17Z</time>
      </trkpt>
      <trkpt lat="39.698086894476" lon="3.053369260832">
        <ele>113.2</ele>
        <time>2014-05-03T15:47:18Z</time>
      </trkpt>
      <trkpt lat="39.698116147307" lon="3.053379402931">
        <ele>113.8</ele>
        <time>2014-05-03T15:47:19Z</time>
      </trkpt>
      <trkpt lat="39.698153446762" lon="3.053382420415">
        <ele>114.6</ele>
        <time>2014-05-03T15:47:20Z</time>
      </trkpt>
      <trkpt lat="39.698203989619" lon="3.053385856994">
        <ele>115</ele>
        <time>2014-05-03T15:47:21Z</time>
      </trkpt>
      <trkpt lat="39.698260483625" lon="3.053389377392">
        <ele>115.4</ele>
        <time>2014-05-03T15:47:22Z</time>
      </trkpt>
      <trkpt lat="39.698327035911" lon="3.053395077084">
        <ele>115.8</ele>
        <time>2014-05-03T15:47:23Z</time>
      </trkpt>
      <trkpt lat="39.698397024776" lon="3.053404800088">
        <ele>115.2</ele>
        <time>2014-05-03T15:47:24Z</time>
      </trkpt>
      <trkpt lat="39.698470617858" lon="3.053413098169">
        <ele>114.6</ele>
        <time>2014-05-03T15:47:25Z</time>
      </trkpt>
      <trkpt lat="39.69854924008" lon="3.053422318259">
        <ele>114.2</ele>
        <time>2014-05-03T15:47:26Z</time>
      </trkpt>
      <trkpt lat="39.698631131243" lon="3.053440590801">
        <ele>113.4</ele>
        <time>2014-05-03T15:47:27Z</time>
      </trkpt>
      <trkpt lat="39.698716542804" lon="3.053467245243">
        <ele>112.8</ele>
        <time>2014-05-03T15:47:28Z</time>
      </trkpt>
      <trkpt lat="39.698804217478" lon="3.053501527214">
        <ele>112.2</ele>
        <time>2014-05-03T15:47:29Z</time>
      </trkpt>
      <trkpt lat="39.698893652351" lon="3.053535809185">
        <ele>111.4</ele>
        <time>2014-05-03T15:47:30Z</time>
      </trkpt>
      <trkpt lat="39.698990882391" lon="3.053572689545">
        <ele>110.6</ele>
        <time>2014-05-03T15:47:31Z</time>
      </trkpt>
      <trkpt lat="39.699083250929" lon="3.053609737543">
        <ele>109.8</ele>
        <time>2014-05-03T15:47:32Z</time>
      </trkpt>
      <trkpt lat="39.699177547304" lon="3.053647036998">
        <ele>109.2</ele>
        <time>2014-05-03T15:47:33Z</time>
      </trkpt>
      <trkpt lat="39.699269915842" lon="3.05369883714">
        <ele>108.4</ele>
        <time>2014-05-03T15:47:34Z</time>
      </trkpt>
      <trkpt lat="39.699354908308" lon="3.053766898168">
        <ele>107.8</ele>
        <time>2014-05-03T15:47:35Z</time>
      </trkpt>
      <trkpt lat="39.69943939786" lon="3.05384384401">
        <ele>106.8</ele>
        <time>2014-05-03T15:47:36Z</time>
      </trkpt>
      <trkpt lat="39.69952405505" lon="3.053923723517">
        <ele>106</ele>
        <time>2014-05-03T15:47:37Z</time>
      </trkpt>
      <trkpt lat="39.699613406104" lon="3.054005195585">
        <ele>105.2</ele>
        <time>2014-05-03T15:47:38Z</time>
      </trkpt>
      <trkpt lat="39.699700745502" lon="3.054077196106">
        <ele>104.4</ele>
        <time>2014-05-03T15:47:39Z</time>
      </trkpt>
      <trkpt lat="39.699791689117" lon="3.054136623777">
        <ele>103.4</ele>
        <time>2014-05-03T15:47:40Z</time>
      </trkpt>
      <trkpt lat="39.699883806198" lon="3.054190519394">
        <ele>102.6</ele>
        <time>2014-05-03T15:47:41Z</time>
      </trkpt>
      <trkpt lat="39.699978018754" lon="3.054247181038">
        <ele>101.8</ele>
        <time>2014-05-03T15:47:42Z</time>
      </trkpt>
      <trkpt lat="39.700070722568" lon="3.054303507406">
        <ele>101</ele>
        <time>2014-05-03T15:47:43Z</time>
      </trkpt>
      <trkpt lat="39.700257974214" lon="3.054410963364">
        <ele>100.6</ele>
        <time>2014-05-03T15:47:45Z</time>
      </trkpt>
      <trkpt lat="39.700362412688" lon="3.054468463198">
        <ele>100.2</ele>
        <time>2014-05-03T15:47:46Z</time>
      </trkpt>
      <trkpt lat="39.700463498402" lon="3.0545236161">
        <ele>99.6</ele>
        <time>2014-05-03T15:47:47Z</time>
      </trkpt>
      <trkpt lat="39.700568523609" lon="3.054583714323">
        <ele>99.2</ele>
        <time>2014-05-03T15:47:48Z</time>
      </trkpt>
      <trkpt lat="39.70067153716" lon="3.054642890537">
        <ele>98.6</ele>
        <time>2014-05-03T15:47:49Z</time>
      </trkpt>
      <trkpt lat="39.700777232919" lon="3.054701228561">
        <ele>98</ele>
        <time>2014-05-03T15:47:50Z</time>
      </trkpt>
      <trkpt lat="39.700879743556" lon="3.054757219653">
        <ele>97.4</ele>
        <time>2014-05-03T15:47:51Z</time>
      </trkpt>
      <trkpt lat="39.700981164546" lon="3.054809019795">
        <ele>96.8</ele>
        <time>2014-05-03T15:47:52Z</time>
      </trkpt>
      <trkpt lat="39.701081579708" lon="3.054860736118">
        <ele>96</ele>
        <time>2014-05-03T15:47:53Z</time>
      </trkpt>
      <trkpt lat="39.701184593259" lon="3.054908429129">
        <ele>95.2</ele>
        <time>2014-05-03T15:47:54Z</time>
      </trkpt>
      <trkpt lat="39.7012800631" lon="3.054956625054">
        <ele>94.6</ele>
        <time>2014-05-03T15:47:55Z</time>
      </trkpt>
      <trkpt lat="39.701374862389" lon="3.05501311906">
        <ele>93.8</ele>
        <time>2014-05-03T15:47:56Z</time>
      </trkpt>
      <trkpt lat="39.70147368499" lon="3.055061650261">
        <ele>93.8</ele>
        <time>2014-05-03T15:47:57Z</time>
      </trkpt>
      <trkpt lat="39.701785240213" lon="3.05517991887">
        <ele>93.4</ele>
        <time>2014-05-03T15:48:00Z</time>
      </trkpt>
      <trkpt lat="39.701895965112" lon="3.055208165873">
        <ele>92.8</ele>
        <time>2014-05-03T15:48:01Z</time>
      </trkpt>
      <trkpt lat="39.702013311712" lon="3.055228282433">
        <ele>92.4</ele>
        <time>2014-05-03T15:48:02Z</time>
      </trkpt>
      <trkpt lat="39.702122527869" lon="3.055246471156">
        <ele>92</ele>
        <time>2014-05-03T15:48:03Z</time>
      </trkpt>
      <trkpt lat="39.70222973237" lon="3.055273125598">
        <ele>91.4</ele>
        <time>2014-05-03T15:48:04Z</time>
      </trkpt>
      <trkpt lat="39.702443638458" lon="3.05531738203">
        <ele>91.4</ele>
        <time>2014-05-03T15:48:06Z</time>
      </trkpt>
      <trkpt lat="39.702858710146" lon="3.055362309014">
        <ele>91.4</ele>
        <time>2014-05-03T15:48:10Z</time>
      </trkpt>
      <trkpt lat="39.703054008416" lon="3.055388963456">
        <ele>91.4</ele>
        <time>2014-05-03T15:48:12Z</time>
      </trkpt>
      <trkpt lat="39.703427422061" lon="3.055445541281">
        <ele>91.4</ele>
        <time>2014-05-03T15:48:16Z</time>
      </trkpt>
      <trkpt lat="39.703601597943" lon="3.055482337822">
        <ele>91.4</ele>
        <time>2014-05-03T15:48:18Z</time>
      </trkpt>
      <trkpt lat="39.703681393631" lon="3.055502119106">
        <ele>91.8</ele>
        <time>2014-05-03T15:48:19Z</time>
      </trkpt>
      <trkpt lat="39.703757166007" lon="3.055521565114">
        <ele>92.4</ele>
        <time>2014-05-03T15:48:20Z</time>
      </trkpt>
      <trkpt lat="39.703830004718" lon="3.055543944787">
        <ele>92.8</ele>
        <time>2014-05-03T15:48:21Z</time>
      </trkpt>
      <trkpt lat="39.703901753782" lon="3.055565989184">
        <ele>93.2</ele>
        <time>2014-05-03T15:48:22Z</time>
      </trkpt>
      <trkpt lat="39.703974927769" lon="3.055587782124">
        <ele>93.6</ele>
        <time>2014-05-03T15:48:23Z</time>
      </trkpt>
      <trkpt lat="39.704045419548" lon="3.055613514557">
        <ele>94</ele>
        <time>2014-05-03T15:48:24Z</time>
      </trkpt>
      <trkpt lat="39.704115492232" lon="3.055646958338">
        <ele>94.4</ele>
        <time>2014-05-03T15:48:25Z</time>
      </trkpt>
      <trkpt lat="39.704182128337" lon="3.055686688544">
        <ele>94.8</ele>
        <time>2014-05-03T15:48:26Z</time>
      </trkpt>
      <trkpt lat="39.704244489673" lon="3.055733711003">
        <ele>95.6</ele>
        <time>2014-05-03T15:48:27Z</time>
      </trkpt>
      <trkpt lat="39.704300145489" lon="3.05578257748">
        <ele>96.2</ele>
        <time>2014-05-03T15:48:28Z</time>
      </trkpt>
      <trkpt lat="39.704353035278" lon="3.055827672102">
        <ele>97</ele>
        <time>2014-05-03T15:48:29Z</time>
      </trkpt>
      <trkpt lat="39.704402237031" lon="3.055864384824">
        <ele>97.8</ele>
        <time>2014-05-03T15:48:30Z</time>
      </trkpt>
      <trkpt lat="39.704452779888" lon="3.055895816949">
        <ele>98.6</ele>
        <time>2014-05-03T15:48:31Z</time>
      </trkpt>
      <trkpt lat="39.704504244754" lon="3.055919789183">
        <ele>99.4</ele>
        <time>2014-05-03T15:48:32Z</time>
      </trkpt>
      <trkpt lat="39.704562666597" lon="3.055941414485">
        <ele>100.2</ele>
        <time>2014-05-03T15:48:33Z</time>
      </trkpt>
      <trkpt lat="39.704618070956" lon="3.055962117778">
        <ele>101</ele>
        <time>2014-05-03T15:48:34Z</time>
      </trkpt>
      <trkpt lat="39.704797024521" lon="3.056024227657">
        <ele>101.4</ele>
        <time>2014-05-03T15:48:37Z</time>
      </trkpt>
      <trkpt lat="39.704860056409" lon="3.056044847131">
        <ele>101.8</ele>
        <time>2014-05-03T15:48:38Z</time>
      </trkpt>
      <trkpt lat="39.704924764677" lon="3.056063957863">
        <ele>102.2</ele>
        <time>2014-05-03T15:48:39Z</time>
      </trkpt>
      <trkpt lat="39.704994669723" lon="3.056084409699">
        <ele>102.6</ele>
        <time>2014-05-03T15:48:40Z</time>
      </trkpt>
      <trkpt lat="39.70506197638" lon="3.056107543743">
        <ele>103</ele>
        <time>2014-05-03T15:48:41Z</time>
      </trkpt>
      <trkpt lat="39.705292646268" lon="3.05618071773">
        <ele>102.4</ele>
        <time>2014-05-03T15:48:44Z</time>
      </trkpt>
      <trkpt lat="39.705377722553" lon="3.05620670162">
        <ele>101.8</ele>
        <time>2014-05-03T15:48:45Z</time>
      </trkpt>
      <trkpt lat="39.705465061951" lon="3.056234697166">
        <ele>101.4</ele>
        <time>2014-05-03T15:48:46Z</time>
      </trkpt>
      <trkpt lat="39.705557933403" lon="3.056263949997">
        <ele>100.6</ele>
        <time>2014-05-03T15:48:47Z</time>
      </trkpt>
      <trkpt lat="39.705661617506" lon="3.056293621923">
        <ele>99.8</ele>
        <time>2014-05-03T15:48:48Z</time>
      </trkpt>
      <trkpt lat="39.705763457591" lon="3.056327568618">
        <ele>98.8</ele>
        <time>2014-05-03T15:48:49Z</time>
      </trkpt>
      <trkpt lat="39.705868482798" lon="3.056363610788">
        <ele>98</ele>
        <time>2014-05-03T15:48:50Z</time>
      </trkpt>
      <trkpt lat="39.705977112222" lon="3.056400574967">
        <ele>96.8</ele>
        <time>2014-05-03T15:48:51Z</time>
      </trkpt>
      <trkpt lat="39.706088088578" lon="3.056438293517">
        <ele>95.6</ele>
        <time>2014-05-03T15:48:52Z</time>
      </trkpt>
      <trkpt lat="39.706201328047" lon="3.056476766438">
        <ele>94.4</ele>
        <time>2014-05-03T15:48:53Z</time>
      </trkpt>
      <trkpt lat="39.706317668819" lon="3.056514568807">
        <ele>93.4</ele>
        <time>2014-05-03T15:48:54Z</time>
      </trkpt>
      <trkpt lat="39.706436440342" lon="3.056553041728">
        <ele>92.6</ele>
        <time>2014-05-03T15:48:55Z</time>
      </trkpt>
      <trkpt lat="39.706565270145" lon="3.056593442486">
        <ele>91.4</ele>
        <time>2014-05-03T15:48:56Z</time>
      </trkpt>
      <trkpt lat="39.706689322265" lon="3.056633507968">
        <ele>90.4</ele>
        <time>2014-05-03T15:48:57Z</time>
      </trkpt>
      <trkpt lat="39.706813877299" lon="3.056675752744">
        <ele>89.2</ele>
        <time>2014-05-03T15:48:58Z</time>
      </trkpt>
      <trkpt lat="39.706940946903" lon="3.05671799752">
        <ele>88</ele>
        <time>2014-05-03T15:48:59Z</time>
      </trkpt>
      <trkpt lat="39.707066843041" lon="3.056758314459">
        <ele>85.8</ele>
        <time>2014-05-03T15:49:00Z</time>
      </trkpt>
      <trkpt lat="39.70719181717" lon="3.056797709389">
        <ele>84.8</ele>
        <time>2014-05-03T15:49:01Z</time>
      </trkpt>
      <trkpt lat="39.707317126575" lon="3.056839199794">
        <ele>83.8</ele>
        <time>2014-05-03T15:49:02Z</time>
      </trkpt>
      <trkpt lat="39.707441933066" lon="3.056884126778">
        <ele>82.8</ele>
        <time>2014-05-03T15:49:03Z</time>
      </trkpt>
      <trkpt lat="39.707572942163" lon="3.056923102613">
        <ele>81.8</ele>
        <time>2014-05-03T15:49:04Z</time>
      </trkpt>
      <trkpt lat="39.707698586844" lon="3.056961743172">
        <ele>81</ele>
        <time>2014-05-03T15:49:05Z</time>
      </trkpt>
      <trkpt lat="39.707824734439" lon="3.057002898301">
        <ele>80</ele>
        <time>2014-05-03T15:49:06Z</time>
      </trkpt>
      <trkpt lat="39.70794954093" lon="3.057043466697">
        <ele>79.2</ele>
        <time>2014-05-03T15:49:07Z</time>
      </trkpt>
      <trkpt lat="39.708067138987" lon="3.057107420594">
        <ele>78.6</ele>
        <time>2014-05-03T15:49:08Z</time>
      </trkpt>
      <trkpt lat="39.708170906909" lon="3.057199370037">
        <ele>77.8</ele>
        <time>2014-05-03T15:49:09Z</time>
      </trkpt>
      <trkpt lat="39.708271489709" lon="3.057293414955">
        <ele>77</ele>
        <time>2014-05-03T15:49:10Z</time>
      </trkpt>
      <trkpt lat="39.70837617964" lon="3.057380838172">
        <ele>77.4</ele>
        <time>2014-05-03T15:49:11Z</time>
      </trkpt>
      <trkpt lat="39.708480199019" lon="3.057444624431">
        <ele>77.6</ele>
        <time>2014-05-03T15:49:12Z</time>
      </trkpt>
      <trkpt lat="39.708583380208" lon="3.057494580555">
        <ele>78</ele>
        <time>2014-05-03T15:49:13Z</time>
      </trkpt>
      <trkpt lat="39.708685052655" lon="3.057539507539">
        <ele>78.4</ele>
        <time>2014-05-03T15:49:14Z</time>
      </trkpt>
      <trkpt lat="39.708784964903" lon="3.057580243573">
        <ele>78.6</ele>
        <time>2014-05-03T15:49:15Z</time>
      </trkpt>
      <trkpt lat="39.70887825545" lon="3.057616956295">
        <ele>79.2</ele>
        <time>2014-05-03T15:49:16Z</time>
      </trkpt>
      <trkpt lat="39.708977078051" lon="3.057646376764">
        <ele>79.8</ele>
        <time>2014-05-03T15:49:17Z</time>
      </trkpt>
      <trkpt lat="39.709076403566" lon="3.057670516636">
        <ele>80.4</ele>
        <time>2014-05-03T15:49:18Z</time>
      </trkpt>
      <trkpt lat="39.709180255307" lon="3.057704882426">
        <ele>80.8</ele>
        <time>2014-05-03T15:49:19Z</time>
      </trkpt>
      <trkpt lat="39.7092847776" lon="3.057727010642">
        <ele>81.4</ele>
        <time>2014-05-03T15:49:20Z</time>
      </trkpt>
      <trkpt lat="39.70938619859" lon="3.057760286785">
        <ele>81.4</ele>
        <time>2014-05-03T15:49:21Z</time>
      </trkpt>
      <trkpt lat="39.709585855448" lon="3.057812841298">
        <ele>81.8</ele>
        <time>2014-05-03T15:49:23Z</time>
      </trkpt>
      <trkpt lat="39.709685264782" lon="3.057844860156">
        <ele>82.6</ele>
        <time>2014-05-03T15:49:24Z</time>
      </trkpt>
      <trkpt lat="39.709782578641" lon="3.057877046652">
        <ele>83</ele>
        <time>2014-05-03T15:49:25Z</time>
      </trkpt>
      <trkpt lat="39.709878970491" lon="3.057908646415">
        <ele>83.4</ele>
        <time>2014-05-03T15:49:26Z</time>
      </trkpt>
      <trkpt lat="39.710357996076" lon="3.058044936109">
        <ele>83</ele>
        <time>2014-05-03T15:49:31Z</time>
      </trkpt>
      <trkpt lat="39.710452963003" lon="3.058075194768">
        <ele>82.6</ele>
        <time>2014-05-03T15:49:32Z</time>
      </trkpt>
      <trkpt lat="39.710546337369" lon="3.058103693228">
        <ele>82</ele>
        <time>2014-05-03T15:49:33Z</time>
      </trkpt>
      <trkpt lat="39.710641220477" lon="3.058131018222">
        <ele>81.6</ele>
        <time>2014-05-03T15:49:34Z</time>
      </trkpt>
      <trkpt lat="39.710740126897" lon="3.05815968432">
        <ele>81.2</ele>
        <time>2014-05-03T15:49:35Z</time>
      </trkpt>
      <trkpt lat="39.711288386976" lon="3.058327489958">
        <ele>81.2</ele>
        <time>2014-05-03T15:49:41Z</time>
      </trkpt>
      <trkpt lat="39.711382515713" lon="3.058356407513">
        <ele>81.2</ele>
        <time>2014-05-03T15:49:42Z</time>
      </trkpt>
      <trkpt lat="39.711891129405" lon="3.058500157098">
        <ele>81.2</ele>
        <time>2014-05-03T15:49:48Z</time>
      </trkpt>
      <trkpt lat="39.712050636962" lon="3.058507784627">
        <ele>81.2</ele>
        <time>2014-05-03T15:49:50Z</time>
      </trkpt>
      <trkpt lat="39.712124230044" lon="3.058471407181">
        <ele>81.2</ele>
        <time>2014-05-03T15:49:51Z</time>
      </trkpt>
      <trkpt lat="39.712242163377" lon="3.058299745869">
        <ele>81.2</ele>
        <time>2014-05-03T15:49:53Z</time>
      </trkpt>
      <trkpt lat="39.712282312678" lon="3.058187931323">
        <ele>80.6</ele>
        <time>2014-05-03T15:49:54Z</time>
      </trkpt>
      <trkpt lat="39.71231483445" lon="3.05806413066">
        <ele>80</ele>
        <time>2014-05-03T15:49:55Z</time>
      </trkpt>
      <trkpt lat="39.712344925471" lon="3.057936306685">
        <ele>79.2</ele>
        <time>2014-05-03T15:49:56Z</time>
      </trkpt>
      <trkpt lat="39.712377950157" lon="3.057806387235">
        <ele>78.4</ele>
        <time>2014-05-03T15:49:57Z</time>
      </trkpt>
      <trkpt lat="39.712410220472" lon="3.057668421161">
        <ele>77.4</ele>
        <time>2014-05-03T15:49:58Z</time>
      </trkpt>
      <trkpt lat="39.712435869086" lon="3.057534059304">
        <ele>76.6</ele>
        <time>2014-05-03T15:49:59Z</time>
      </trkpt>
      <trkpt lat="39.712465960107" lon="3.057398356343">
        <ele>75.8</ele>
        <time>2014-05-03T15:50:00Z</time>
      </trkpt>
      <trkpt lat="39.712498481879" lon="3.057264916495">
        <ele>75.2</ele>
        <time>2014-05-03T15:50:01Z</time>
      </trkpt>
      <trkpt lat="39.712530333099" lon="3.057132985389">
        <ele>74.4</ele>
        <time>2014-05-03T15:50:02Z</time>
      </trkpt>
      <trkpt lat="39.712560005025" lon="3.057000383731">
        <ele>73.8</ele>
        <time>2014-05-03T15:50:03Z</time>
      </trkpt>
      <trkpt lat="39.712591269512" lon="3.056869458453">
        <ele>73</ele>
        <time>2014-05-03T15:50:04Z</time>
      </trkpt>
      <trkpt lat="39.712679782376" lon="3.056467713986">
        <ele>73</ele>
        <time>2014-05-03T15:50:07Z</time>
      </trkpt>
      <trkpt lat="39.712707023551" lon="3.05633243012">
        <ele>73</ele>
        <time>2014-05-03T15:50:08Z</time>
      </trkpt>
      <trkpt lat="39.712860412321" lon="3.055717953031">
        <ele>73</ele>
        <time>2014-05-03T15:50:13Z</time>
      </trkpt>
      <trkpt lat="39.713001731155" lon="3.055594236187">
        <ele>73.8</ele>
        <time>2014-05-03T15:50:15Z</time>
      </trkpt>
      <trkpt lat="39.713077252074" lon="3.055552494325">
        <ele>74.4</ele>
        <time>2014-05-03T15:50:16Z</time>
      </trkpt>
      <trkpt lat="39.713157802133" lon="3.055517290345">
        <ele>75.2</ele>
        <time>2014-05-03T15:50:17Z</time>
      </trkpt>
      <trkpt lat="39.713242124047" lon="3.055495665043">
        <ele>76</ele>
        <time>2014-05-03T15:50:18Z</time>
      </trkpt>
      <trkpt lat="39.713331307463" lon="3.055478901243">
        <ele>76.8</ele>
        <time>2014-05-03T15:50:19Z</time>
      </trkpt>
      <trkpt lat="39.713420155603" lon="3.055466076936">
        <ele>77.8</ele>
        <time>2014-05-03T15:50:20Z</time>
      </trkpt>
      <trkpt lat="39.713510596304" lon="3.055452079163">
        <ele>78.6</ele>
        <time>2014-05-03T15:50:21Z</time>
      </trkpt>
      <trkpt lat="39.713600198815" lon="3.055424167436">
        <ele>78.6</ele>
        <time>2014-05-03T15:50:22Z</time>
      </trkpt>
      <trkpt lat="39.713789378298" lon="3.055357531331">
        <ele>78.6</ele>
        <time>2014-05-03T15:50:24Z</time>
      </trkpt>
      <trkpt lat="39.714086684291" lon="3.055249656278">
        <ele>78.2</ele>
        <time>2014-05-03T15:50:27Z</time>
      </trkpt>
      <trkpt lat="39.71418902729" lon="3.055213278832">
        <ele>77.8</ele>
        <time>2014-05-03T15:50:28Z</time>
      </trkpt>
      <trkpt lat="39.714287011701" lon="3.055182265802">
        <ele>77.2</ele>
        <time>2014-05-03T15:50:29Z</time>
      </trkpt>
      <trkpt lat="39.714384912293" lon="3.055152174781">
        <ele>76.8</ele>
        <time>2014-05-03T15:50:30Z</time>
      </trkpt>
      <trkpt lat="39.714483399618" lon="3.055124179235">
        <ele>76.4</ele>
        <time>2014-05-03T15:50:31Z</time>
      </trkpt>
      <trkpt lat="39.714776682299" lon="3.055032984163">
        <ele>76</ele>
        <time>2014-05-03T15:50:34Z</time>
      </trkpt>
      <trkpt lat="39.71487299033" lon="3.055002809323">
        <ele>75.6</ele>
        <time>2014-05-03T15:50:35Z</time>
      </trkpt>
      <trkpt lat="39.71497273494" lon="3.054971712474">
        <ele>75.2</ele>
        <time>2014-05-03T15:50:36Z</time>
      </trkpt>
      <trkpt lat="39.715067701867" lon="3.054942962557">
        <ele>74.8</ele>
        <time>2014-05-03T15:50:37Z</time>
      </trkpt>
      <trkpt lat="39.715162920251" lon="3.054914128821">
        <ele>74.4</ele>
        <time>2014-05-03T15:50:38Z</time>
      </trkpt>
      <trkpt lat="39.71544882686" lon="3.054818742799">
        <ele>74.4</ele>
        <time>2014-05-03T15:50:41Z</time>
      </trkpt>
      <trkpt lat="39.716007564314" lon="3.054639202501">
        <ele>74.4</ele>
        <time>2014-05-03T15:50:47Z</time>
      </trkpt>
      <trkpt lat="39.716091970047" lon="3.054607686557">
        <ele>74.4</ele>
        <time>2014-05-03T15:50:48Z</time>
      </trkpt>
      <trkpt lat="39.716649450216" lon="3.054420854006">
        <ele>74.4</ele>
        <time>2014-05-03T15:50:54Z</time>
      </trkpt>
      <trkpt lat="39.716751122663" lon="3.054417501246">
        <ele>74</ele>
        <time>2014-05-03T15:50:55Z</time>
      </trkpt>
      <trkpt lat="39.716852962748" lon="3.054439545643">
        <ele>73.4</ele>
        <time>2014-05-03T15:50:56Z</time>
      </trkpt>
      <trkpt lat="39.716959748154" lon="3.054465529533">
        <ele>73</ele>
        <time>2014-05-03T15:50:57Z</time>
      </trkpt>
      <trkpt lat="39.717073406718" lon="3.054492938346">
        <ele>72.6</ele>
        <time>2014-05-03T15:50:58Z</time>
      </trkpt>
      <trkpt lat="39.717200224865" lon="3.054528058507">
        <ele>72</ele>
        <time>2014-05-03T15:50:59Z</time>
      </trkpt>
      <trkpt lat="39.717316649456" lon="3.054558484804">
        <ele>71.4</ele>
        <time>2014-05-03T15:51:00Z</time>
      </trkpt>
      <trkpt lat="39.717433828418" lon="3.054585977436">
        <ele>70.4</ele>
        <time>2014-05-03T15:51:01Z</time>
      </trkpt>
      <trkpt lat="39.717550755923" lon="3.054615397905">
        <ele>69.6</ele>
        <time>2014-05-03T15:51:02Z</time>
      </trkpt>
      <trkpt lat="39.717664749763" lon="3.054643812546">
        <ele>67.8</ele>
        <time>2014-05-03T15:51:03Z</time>
      </trkpt>
      <trkpt lat="39.717774971748" lon="3.054674238843">
        <ele>67</ele>
        <time>2014-05-03T15:51:04Z</time>
      </trkpt>
      <trkpt lat="39.717886870113" lon="3.054703659312">
        <ele>66.2</ele>
        <time>2014-05-03T15:51:05Z</time>
      </trkpt>
      <trkpt lat="39.717994158433" lon="3.0547331636">
        <ele>65.4</ele>
        <time>2014-05-03T15:51:06Z</time>
      </trkpt>
      <trkpt lat="39.718106475893" lon="3.054762584069">
        <ele>64.6</ele>
        <time>2014-05-03T15:51:07Z</time>
      </trkpt>
      <trkpt lat="39.718397495461" lon="3.054827627613">
        <ele>65.2</ele>
        <time>2014-05-03T15:51:10Z</time>
      </trkpt>
      <trkpt lat="39.718489863999" lon="3.054848750001">
        <ele>65.6</ele>
        <time>2014-05-03T15:51:11Z</time>
      </trkpt>
      <trkpt lat="39.718581059071" lon="3.054870710579">
        <ele>66</ele>
        <time>2014-05-03T15:51:12Z</time>
      </trkpt>
      <trkpt lat="39.718674517256" lon="3.054896275374">
        <ele>66.8</ele>
        <time>2014-05-03T15:51:13Z</time>
      </trkpt>
      <trkpt lat="39.718768226898" lon="3.054920666703">
        <ele>67.6</ele>
        <time>2014-05-03T15:51:14Z</time>
      </trkpt>
      <trkpt lat="39.718861517445" lon="3.054946566774">
        <ele>68.4</ele>
        <time>2014-05-03T15:51:15Z</time>
      </trkpt>
      <trkpt lat="39.718953634526" lon="3.054970287551">
        <ele>69</ele>
        <time>2014-05-03T15:51:16Z</time>
      </trkpt>
      <trkpt lat="39.719047595625" lon="3.054995181794">
        <ele>69.8</ele>
        <time>2014-05-03T15:51:17Z</time>
      </trkpt>
      <trkpt lat="39.719300477548" lon="3.055110265281">
        <ele>69.8</ele>
        <time>2014-05-03T15:51:20Z</time>
      </trkpt>
      <trkpt lat="39.719383458358" lon="3.055149324935">
        <ele>69.8</ele>
        <time>2014-05-03T15:51:21Z</time>
      </trkpt>
      <trkpt lat="39.719733067407" lon="3.05530983832">
        <ele>69.8</ele>
        <time>2014-05-03T15:51:25Z</time>
      </trkpt>
      <trkpt lat="39.720091728908" lon="3.055462305081">
        <ele>69.8</ele>
        <time>2014-05-03T15:51:29Z</time>
      </trkpt>
      <trkpt lat="39.720616771124" lon="3.055670008563">
        <ele>69.8</ele>
        <time>2014-05-03T15:51:35Z</time>
      </trkpt>
      <trkpt lat="39.720708133834" lon="3.05570127305">
        <ele>69.8</ele>
        <time>2014-05-03T15:51:36Z</time>
      </trkpt>
      <trkpt lat="39.721251448592" lon="3.055915095319">
        <ele>69.8</ele>
        <time>2014-05-03T15:51:42Z</time>
      </trkpt>
      <trkpt lat="39.721339207085" lon="3.055951305127">
        <ele>69.8</ele>
        <time>2014-05-03T15:51:43Z</time>
      </trkpt>
      <trkpt lat="39.721883779128" lon="3.056167641966">
        <ele>69.8</ele>
        <time>2014-05-03T15:51:49Z</time>
      </trkpt>
      <trkpt lat="39.72206885148" lon="3.056247186197">
        <ele>69.8</ele>
        <time>2014-05-03T15:51:51Z</time>
      </trkpt>
      <trkpt lat="39.722159208362" lon="3.056283982738">
        <ele>69</ele>
        <time>2014-05-03T15:51:52Z</time>
      </trkpt>
      <trkpt lat="39.722251325443" lon="3.056321785107">
        <ele>68.6</ele>
        <time>2014-05-03T15:51:53Z</time>
      </trkpt>
      <trkpt lat="39.722347633474" lon="3.056357492001">
        <ele>68.2</ele>
        <time>2014-05-03T15:51:54Z</time>
      </trkpt>
      <trkpt lat="39.722442432763" lon="3.056396048741">
        <ele>67.6</ele>
        <time>2014-05-03T15:51:55Z</time>
      </trkpt>
      <trkpt lat="39.722632366617" lon="3.056470815289">
        <ele>67.6</ele>
        <time>2014-05-03T15:51:57Z</time>
      </trkpt>
      <trkpt lat="39.723187751311" lon="3.056705173213">
        <ele>67.6</ele>
        <time>2014-05-03T15:52:03Z</time>
      </trkpt>
      <trkpt lat="39.723363938849" lon="3.056771054947">
        <ele>67.6</ele>
        <time>2014-05-03T15:52:05Z</time>
      </trkpt>
      <trkpt lat="39.723917228068" lon="3.056969203063">
        <ele>67.6</ele>
        <time>2014-05-03T15:52:11Z</time>
      </trkpt>
      <trkpt lat="39.7240117759" lon="3.057006753975">
        <ele>67.6</ele>
        <time>2014-05-03T15:52:12Z</time>
      </trkpt>
      <trkpt lat="39.724559784522" lon="3.057221665891">
        <ele>67.6</ele>
        <time>2014-05-03T15:52:18Z</time>
      </trkpt>
      <trkpt lat="39.724916853462" lon="3.057367008037">
        <ele>67.6</ele>
        <time>2014-05-03T15:52:22Z</time>
      </trkpt>
      <trkpt lat="39.72519697656" lon="3.057476727108">
        <ele>67.6</ele>
        <time>2014-05-03T15:52:25Z</time>
      </trkpt>
      <trkpt lat="39.725658148698" lon="3.057654591026">
        <ele>68.2</ele>
        <time>2014-05-03T15:52:30Z</time>
      </trkpt>
      <trkpt lat="39.725759318231" lon="3.05769365068">
        <ele>68.6</ele>
        <time>2014-05-03T15:52:31Z</time>
      </trkpt>
      <trkpt lat="39.725852944054" lon="3.057731620687">
        <ele>69</ele>
        <time>2014-05-03T15:52:32Z</time>
      </trkpt>
      <trkpt lat="39.725947491886" lon="3.057767662857">
        <ele>69.4</ele>
        <time>2014-05-03T15:52:33Z</time>
      </trkpt>
      <trkpt lat="39.726041117709" lon="3.057802950656">
        <ele>69.8</ele>
        <time>2014-05-03T15:52:34Z</time>
      </trkpt>
      <trkpt lat="39.726602285914" lon="3.058020293323">
        <ele>69.8</ele>
        <time>2014-05-03T15:52:40Z</time>
      </trkpt>
      <trkpt lat="39.726698929221" lon="3.058061783728">
        <ele>69.8</ele>
        <time>2014-05-03T15:52:41Z</time>
      </trkpt>
      <trkpt lat="39.727149288708" lon="3.058234869963">
        <ele>70.4</ele>
        <time>2014-05-03T15:52:46Z</time>
      </trkpt>
      <trkpt lat="39.727226988921" lon="3.058267140278">
        <ele>70.8</ele>
        <time>2014-05-03T15:52:47Z</time>
      </trkpt>
      <trkpt lat="39.727302090745" lon="3.058292705073">
        <ele>71.2</ele>
        <time>2014-05-03T15:52:48Z</time>
      </trkpt>
      <trkpt lat="39.72737627056" lon="3.058317766954">
        <ele>71.8</ele>
        <time>2014-05-03T15:52:49Z</time>
      </trkpt>
      <trkpt lat="39.727448857814" lon="3.058348528527">
        <ele>72.2</ele>
        <time>2014-05-03T15:52:50Z</time>
      </trkpt>
      <trkpt lat="39.72752714476" lon="3.058378200453">
        <ele>72.2</ele>
        <time>2014-05-03T15:52:51Z</time>
      </trkpt>
      <trkpt lat="39.727977671885" lon="3.058563021348">
        <ele>72.2</ele>
        <time>2014-05-03T15:52:57Z</time>
      </trkpt>
      <trkpt lat="39.728461139877" lon="3.058771982115">
        <ele>72.6</ele>
        <time>2014-05-03T15:53:03Z</time>
      </trkpt>
      <trkpt lat="39.728538420995" lon="3.05880341424">
        <ele>73</ele>
        <time>2014-05-03T15:53:04Z</time>
      </trkpt>
      <trkpt lat="39.728617043217" lon="3.058823949895">
        <ele>73.6</ele>
        <time>2014-05-03T15:53:05Z</time>
      </trkpt>
      <trkpt lat="39.728694324335" lon="3.058841551885">
        <ele>74.4</ele>
        <time>2014-05-03T15:53:06Z</time>
      </trkpt>
      <trkpt lat="39.728829608201" lon="3.058890166905">
        <ele>74.4</ele>
        <time>2014-05-03T15:53:08Z</time>
      </trkpt>
      <trkpt lat="39.729069498179" lon="3.058976751932">
        <ele>75</ele>
        <time>2014-05-03T15:53:12Z</time>
      </trkpt>
      <trkpt lat="39.729127333289" lon="3.058991671714">
        <ele>75.4</ele>
        <time>2014-05-03T15:53:13Z</time>
      </trkpt>
      <trkpt lat="39.729182989105" lon="3.059003574012">
        <ele>75.8</ele>
        <time>2014-05-03T15:53:14Z</time>
      </trkpt>
      <trkpt lat="39.729236968541" lon="3.058999047786">
        <ele>76.2</ele>
        <time>2014-05-03T15:53:15Z</time>
      </trkpt>
      <trkpt lat="39.729287846674" lon="3.059001059442">
        <ele>76.6</ele>
        <time>2014-05-03T15:53:16Z</time>
      </trkpt>
      <trkpt lat="39.729333863305" lon="3.059010111894">
        <ele>76.6</ele>
        <time>2014-05-03T15:53:17Z</time>
      </trkpt>
      <trkpt lat="39.729403265437" lon="3.059025031676">
        <ele>76.6</ele>
        <time>2014-05-03T15:53:19Z</time>
      </trkpt>
      <trkpt lat="39.729454730303" lon="3.059040957286">
        <ele>77</ele>
        <time>2014-05-03T15:53:21Z</time>
      </trkpt>
      <trkpt lat="39.729472080836" lon="3.059054619783">
        <ele>77.4</ele>
        <time>2014-05-03T15:53:22Z</time>
      </trkpt>
      <trkpt lat="39.729495717794" lon="3.059066522081">
        <ele>78</ele>
        <time>2014-05-03T15:53:23Z</time>
      </trkpt>
      <trkpt lat="39.729517426915" lon="3.05909510436">
        <ele>78.4</ele>
        <time>2014-05-03T15:53:24Z</time>
      </trkpt>
      <trkpt lat="39.729535448" lon="3.059121758802">
        <ele>78.8</ele>
        <time>2014-05-03T15:53:25Z</time>
      </trkpt>
      <trkpt lat="39.729569729971" lon="3.059172301659">
        <ele>78.8</ele>
        <time>2014-05-03T15:53:27Z</time>
      </trkpt>
      <trkpt lat="39.72960501777" lon="3.059252767899">
        <ele>78.8</ele>
        <time>2014-05-03T15:53:31Z</time>
      </trkpt>
      <trkpt lat="39.729650615306" lon="3.05927363883">
        <ele>78.8</ele>
        <time>2014-05-03T15:53:33Z</time>
      </trkpt>
      <trkpt lat="39.72970727695" lon="3.059254695736">
        <ele>78.8</ele>
        <time>2014-05-03T15:53:35Z</time>
      </trkpt>
      <trkpt lat="39.72980953613" lon="3.059209684933">
        <ele>78.8</ele>
        <time>2014-05-03T15:53:38Z</time>
      </trkpt>
      <trkpt lat="39.729881536651" lon="3.05918981983">
        <ele>78.8</ele>
        <time>2014-05-03T15:53:40Z</time>
      </trkpt>
      <trkpt lat="39.72992269178" lon="3.059175989695">
        <ele>78.8</ele>
        <time>2014-05-03T15:53:41Z</time>
      </trkpt>
      <trkpt lat="39.730142465198" lon="3.059130475978">
        <ele>78.8</ele>
        <time>2014-05-03T15:53:46Z</time>
      </trkpt>
      <trkpt lat="39.730426276332" lon="3.059075323076">
        <ele>78.8</ele>
        <time>2014-05-03T15:53:51Z</time>
      </trkpt>
      <trkpt lat="39.730539683439" lon="3.059045986426">
        <ele>78.8</ele>
        <time>2014-05-03T15:53:53Z</time>
      </trkpt>
      <trkpt lat="39.730743028333" lon="3.059006926772">
        <ele>78.8</ele>
        <time>2014-05-03T15:53:57Z</time>
      </trkpt>
      <trkpt lat="39.730841767115" lon="3.058989576239">
        <ele>78.8</ele>
        <time>2014-05-03T15:53:59Z</time>
      </trkpt>
      <trkpt lat="39.730992641315" lon="3.058964598177">
        <ele>78.8</ele>
        <time>2014-05-03T15:54:02Z</time>
      </trkpt>
      <trkpt lat="39.731163967351" lon="3.058929561835">
        <ele>78.8</ele>
        <time>2014-05-03T15:54:05Z</time>
      </trkpt>
      <trkpt lat="39.731221383366" lon="3.058920174107">
        <ele>78.8</ele>
        <time>2014-05-03T15:54:06Z</time>
      </trkpt>
      <trkpt lat="39.731334036102" lon="3.058912043664">
        <ele>78.8</ele>
        <time>2014-05-03T15:54:08Z</time>
      </trkpt>
      <trkpt lat="39.731514246952" lon="3.058903242669">
        <ele>78.8</ele>
        <time>2014-05-03T15:54:11Z</time>
      </trkpt>
      <trkpt lat="39.731626480593" lon="3.058900979556">
        <ele>78.8</ele>
        <time>2014-05-03T15:54:13Z</time>
      </trkpt>
      <trkpt lat="39.731727985402" lon="3.058883126109">
        <ele>78.8</ele>
        <time>2014-05-03T15:54:15Z</time>
      </trkpt>
      <trkpt lat="39.73177928263" lon="3.058882958471">
        <ele>78.8</ele>
        <time>2014-05-03T15:54:16Z</time>
      </trkpt>
      <trkpt lat="39.731823455243" lon="3.058881952643">
        <ele>78.8</ele>
        <time>2014-05-03T15:54:17Z</time>
      </trkpt>
      <trkpt lat="39.731916829609" lon="3.058880276263">
        <ele>78.8</ele>
        <time>2014-05-03T15:54:19Z</time>
      </trkpt>
      <trkpt lat="39.731998301677" lon="3.058884215756">
        <ele>78.8</ele>
        <time>2014-05-03T15:54:21Z</time>
      </trkpt>
      <trkpt lat="39.732035852589" lon="3.058882455557">
        <ele>79.2</ele>
        <time>2014-05-03T15:54:22Z</time>
      </trkpt>
      <trkpt lat="39.732078348822" lon="3.058880024806">
        <ele>79.6</ele>
        <time>2014-05-03T15:54:23Z</time>
      </trkpt>
      <trkpt lat="39.732127047661" lon="3.058881282091">
        <ele>80</ele>
        <time>2014-05-03T15:54:24Z</time>
      </trkpt>
      <trkpt lat="39.732176417052" lon="3.058870720897">
        <ele>80.4</ele>
        <time>2014-05-03T15:54:25Z</time>
      </trkpt>
      <trkpt lat="39.732227798099" lon="3.058867703413">
        <ele>80.8</ele>
        <time>2014-05-03T15:54:26Z</time>
      </trkpt>
      <trkpt lat="39.732524684997" lon="3.058842222437">
        <ele>80.8</ele>
        <time>2014-05-03T15:54:32Z</time>
      </trkpt>
      <trkpt lat="39.732708500064" lon="3.058808862475">
        <ele>80.8</ele>
        <time>2014-05-03T15:54:36Z</time>
      </trkpt>
      <trkpt lat="39.732958029227" lon="3.05878581225">
        <ele>80.8</ele>
        <time>2014-05-03T15:54:41Z</time>
      </trkpt>
      <trkpt lat="39.73300136365" lon="3.058789500286">
        <ele>80.8</ele>
        <time>2014-05-03T15:54:42Z</time>
      </trkpt>
      <trkpt lat="39.733151232022" lon="3.058743399836">
        <ele>82.8</ele>
        <time>2014-05-03T15:54:54Z</time>
      </trkpt>
      <trkpt lat="39.733166403261" lon="3.058743232198">
        <ele>82.8</ele>
        <time>2014-05-03T15:54:55Z</time>
      </trkpt>
      <trkpt lat="39.733212252254" lon="3.058731413719">
        <ele>82.8</ele>
        <time>2014-05-03T15:54:58Z</time>
      </trkpt>
      <trkpt lat="39.733246450406" lon="3.058716661575">
        <ele>82.8</ele>
        <time>2014-05-03T15:54:59Z</time>
      </trkpt>
      <trkpt lat="39.733322558058" lon="3.058672405143">
        <ele>82.8</ele>
        <time>2014-05-03T15:55:01Z</time>
      </trkpt>
      <trkpt lat="39.733358851685" lon="3.058649019642">
        <ele>82.8</ele>
        <time>2014-05-03T15:55:02Z</time>
      </trkpt>
      <trkpt lat="39.733435713708" lon="3.058604679391">
        <ele>82.8</ele>
        <time>2014-05-03T15:55:04Z</time>
      </trkpt>
      <trkpt lat="39.733471504421" lon="3.058581629166">
        <ele>82.8</ele>
        <time>2014-05-03T15:55:05Z</time>
      </trkpt>
      <trkpt lat="39.73350511584" lon="3.058563775719">
        <ele>82.4</ele>
        <time>2014-05-03T15:55:06Z</time>
      </trkpt>
      <trkpt lat="39.733536799422" lon="3.058547598652">
        <ele>81.8</ele>
        <time>2014-05-03T15:55:07Z</time>
      </trkpt>
      <trkpt lat="39.733562280398" lon="3.058526392445">
        <ele>81.2</ele>
        <time>2014-05-03T15:55:08Z</time>
      </trkpt>
      <trkpt lat="39.733590192125" lon="3.058509125731">
        <ele>80.6</ele>
        <time>2014-05-03T15:55:09Z</time>
      </trkpt>
      <trkpt lat="39.733622797716" lon="3.05848238747">
        <ele>80</ele>
        <time>2014-05-03T15:55:10Z</time>
      </trkpt>
      <trkpt lat="39.733788172603" lon="3.058420193772">
        <ele>80</ele>
        <time>2014-05-03T15:55:14Z</time>
      </trkpt>
      <trkpt lat="39.733836955261" lon="3.058408459112">
        <ele>80</ele>
        <time>2014-05-03T15:55:15Z</time>
      </trkpt>
      <trkpt lat="39.734110624296" lon="3.058297482756">
        <ele>79.6</ele>
        <time>2014-05-03T15:55:20Z</time>
      </trkpt>
      <trkpt lat="39.734169632872" lon="3.058269654848">
        <ele>79.2</ele>
        <time>2014-05-03T15:55:21Z</time>
      </trkpt>
      <trkpt lat="39.734228222353" lon="3.058240066741">
        <ele>78.8</ele>
        <time>2014-05-03T15:55:22Z</time>
      </trkpt>
      <trkpt lat="39.734286895653" lon="3.058213663756">
        <ele>78.4</ele>
        <time>2014-05-03T15:55:23Z</time>
      </trkpt>
      <trkpt lat="39.734349759903" lon="3.05818483002">
        <ele>77.8</ele>
        <time>2014-05-03T15:55:24Z</time>
      </trkpt>
      <trkpt lat="39.734542208327" lon="3.058064465936">
        <ele>77.4</ele>
        <time>2014-05-03T15:55:27Z</time>
      </trkpt>
      <trkpt lat="39.734602474188" lon="3.058016856744">
        <ele>77</ele>
        <time>2014-05-03T15:55:28Z</time>
      </trkpt>
      <trkpt lat="39.734662404773" lon="3.057973187045">
        <ele>76.6</ele>
        <time>2014-05-03T15:55:29Z</time>
      </trkpt>
      <trkpt lat="39.734725771937" lon="3.057928930613">
        <ele>76.2</ele>
        <time>2014-05-03T15:55:30Z</time>
      </trkpt>
      <trkpt lat="39.734786373074" lon="3.057886769656">
        <ele>75.8</ele>
        <time>2014-05-03T15:55:31Z</time>
      </trkpt>
      <trkpt lat="39.734897433249" lon="3.057808650348">
        <ele>75.8</ele>
        <time>2014-05-03T15:55:33Z</time>
      </trkpt>
      <trkpt lat="39.734947305554" lon="3.057775458024">
        <ele>75.8</ele>
        <time>2014-05-03T15:55:34Z</time>
      </trkpt>
      <trkpt lat="39.735191302663" lon="3.057609915499">
        <ele>75.8</ele>
        <time>2014-05-03T15:55:40Z</time>
      </trkpt>
      <trkpt lat="39.735280653717" lon="3.057532382924">
        <ele>75.8</ele>
        <time>2014-05-03T15:55:45Z</time>
      </trkpt>
      <trkpt lat="39.735318623724" lon="3.057515451486">
        <ele>75.8</ele>
        <time>2014-05-03T15:55:51Z</time>
      </trkpt>
      <trkpt lat="39.73528040226" lon="3.057428363545">
        <ele>75.8</ele>
        <time>2014-05-03T15:55:53Z</time>
      </trkpt>
      <trkpt lat="39.735246120289" lon="3.057349573685">
        <ele>75.8</ele>
        <time>2014-05-03T15:55:55Z</time>
      </trkpt>
      <trkpt lat="39.735220136399" lon="3.057233232913">
        <ele>75</ele>
        <time>2014-05-03T15:56:00Z</time>
      </trkpt>
      <trkpt lat="39.735228015385" lon="3.057216385294">
        <ele>74.6</ele>
        <time>2014-05-03T15:56:01Z</time>
      </trkpt>
      <trkpt lat="39.735227680109" lon="3.057207668118">
        <ele>74</ele>
        <time>2014-05-03T15:56:02Z</time>
      </trkpt>
      <trkpt lat="39.735229021213" lon="3.05719911858">
        <ele>73.6</ele>
        <time>2014-05-03T15:56:03Z</time>
      </trkpt>
      <trkpt lat="39.735222734788" lon="3.057181181314">
        <ele>73.6</ele>
        <time>2014-05-03T15:56:05Z</time>
      </trkpt>
      <trkpt lat="39.73523094905" lon="3.057165423342">
        <ele>73.6</ele>
        <time>2014-05-03T15:56:07Z</time>
      </trkpt>
      <trkpt lat="39.73528710778" lon="3.057132985389">
        <ele>73.6</ele>
        <time>2014-05-03T15:56:09Z</time>
      </trkpt>
      <trkpt lat="39.735332286221" lon="3.057114126114">
        <ele>73.6</ele>
        <time>2014-05-03T15:56:10Z</time>
      </trkpt>
      <trkpt lat="39.735415602307" lon="3.057068863854">
        <ele>73.6</ele>
        <time>2014-05-03T15:56:12Z</time>
      </trkpt>
      <trkpt lat="39.735508306121" lon="3.05701723135">
        <ele>73.6</ele>
        <time>2014-05-03T15:56:14Z</time>
      </trkpt>
      <trkpt lat="39.735556250589" lon="3.056982446465">
        <ele>73.6</ele>
        <time>2014-05-03T15:56:15Z</time>
      </trkpt>
      <trkpt lat="39.735719949096" lon="3.056849509531">
        <ele>73.2</ele>
        <time>2014-05-03T15:56:18Z</time>
      </trkpt>
      <trkpt lat="39.735768899392" lon="3.056814221732">
        <ele>72.8</ele>
        <time>2014-05-03T15:56:19Z</time>
      </trkpt>
      <trkpt lat="39.735814664566" lon="3.056780777951">
        <ele>72.4</ele>
        <time>2014-05-03T15:56:20Z</time>
      </trkpt>
      <trkpt lat="39.735857328437" lon="3.05675403969">
        <ele>72</ele>
        <time>2014-05-03T15:56:21Z</time>
      </trkpt>
      <trkpt lat="39.735896807186" lon="3.056728558714">
        <ele>71.6</ele>
        <time>2014-05-03T15:56:22Z</time>
      </trkpt>
      <trkpt lat="39.73596855625" lon="3.056698048598">
        <ele>71.6</ele>
        <time>2014-05-03T15:56:24Z</time>
      </trkpt>
      <trkpt lat="39.736054722182" lon="3.056805672194">
        <ele>71.6</ele>
        <time>2014-05-03T15:56:27Z</time>
      </trkpt>
      <trkpt lat="39.736104594487" lon="3.056908182831">
        <ele>71.6</ele>
        <time>2014-05-03T15:56:29Z</time>
      </trkpt>
      <trkpt lat="39.736138122087" lon="3.056945063191">
        <ele>71.6</ele>
        <time>2014-05-03T15:56:30Z</time>
      </trkpt>
      <trkpt lat="39.736210290246" lon="3.057012956581">
        <ele>71.6</ele>
        <time>2014-05-03T15:56:32Z</time>
      </trkpt>
      <trkpt lat="39.736276758713" lon="3.057069031492">
        <ele>71.6</ele>
        <time>2014-05-03T15:56:34Z</time>
      </trkpt>
      <trkpt lat="39.736333420357" lon="3.057177660916">
        <ele>71.6</ele>
        <time>2014-05-03T15:56:37Z</time>
      </trkpt>
      <trkpt lat="39.736400894652" lon="3.057296180982">
        <ele>71.6</ele>
        <time>2014-05-03T15:56:41Z</time>
      </trkpt>
      <trkpt lat="39.736502399461" lon="3.057411767383">
        <ele>72</ele>
        <time>2014-05-03T15:56:45Z</time>
      </trkpt>
      <trkpt lat="39.736536262337" lon="3.057440601119">
        <ele>72.4</ele>
        <time>2014-05-03T15:56:46Z</time>
      </trkpt>
      <trkpt lat="39.736574064706" lon="3.057469183398">
        <ele>73</ele>
        <time>2014-05-03T15:56:47Z</time>
      </trkpt>
      <trkpt lat="39.736612621446" lon="3.057494245279">
        <ele>73.4</ele>
        <time>2014-05-03T15:56:48Z</time>
      </trkpt>
      <trkpt lat="39.736663499579" lon="3.057519642436">
        <ele>73.8</ele>
        <time>2014-05-03T15:56:49Z</time>
      </trkpt>
      <trkpt lat="39.736744552552" lon="3.057580243573">
        <ele>73.8</ele>
        <time>2014-05-03T15:56:51Z</time>
      </trkpt>
      <trkpt lat="39.736811021019" lon="3.05765341756">
        <ele>73.8</ele>
        <time>2014-05-03T15:56:53Z</time>
      </trkpt>
      <trkpt lat="39.736860306591" lon="3.057740170225">
        <ele>73.8</ele>
        <time>2014-05-03T15:56:55Z</time>
      </trkpt>
      <trkpt lat="39.736897941322" lon="3.057781995906">
        <ele>73.8</ele>
        <time>2014-05-03T15:56:56Z</time>
      </trkpt>
      <trkpt lat="39.736964745065" lon="3.057894061909">
        <ele>73.8</ele>
        <time>2014-05-03T15:56:59Z</time>
      </trkpt>
      <trkpt lat="39.737026771125" lon="3.057902946723">
        <ele>73.8</ele>
        <time>2014-05-03T15:57:00Z</time>
      </trkpt>
      <trkpt lat="39.737082007846" lon="3.057966649163">
        <ele>73.8</ele>
        <time>2014-05-03T15:57:03Z</time>
      </trkpt>
      <trkpt lat="39.737122576242" lon="3.058009564491">
        <ele>74.2</ele>
        <time>2014-05-03T15:57:05Z</time>
      </trkpt>
      <trkpt lat="39.73713531673" lon="3.058039320236">
        <ele>74.6</ele>
        <time>2014-05-03T15:57:06Z</time>
      </trkpt>
      <trkpt lat="39.737145291191" lon="3.058068153972">
        <ele>75</ele>
        <time>2014-05-03T15:57:07Z</time>
      </trkpt>
      <trkpt lat="39.737184434664" lon="3.058072596379">
        <ele>75.4</ele>
        <time>2014-05-03T15:57:08Z</time>
      </trkpt>
      <trkpt lat="39.737232127675" lon="3.058058011873">
        <ele>76</ele>
        <time>2014-05-03T15:57:09Z</time>
      </trkpt>
      <trkpt lat="39.737305217843" lon="3.058121043761">
        <ele>76</ele>
        <time>2014-05-03T15:57:12Z</time>
      </trkpt>
      <trkpt lat="39.737331620828" lon="3.058189272427">
        <ele>76</ele>
        <time>2014-05-03T15:57:15Z</time>
      </trkpt>
      <trkpt lat="39.737336733787" lon="3.058251717582">
        <ele>76</ele>
        <time>2014-05-03T15:57:17Z</time>
      </trkpt>
      <trkpt lat="39.737317790693" lon="3.058476184864">
        <ele>76</ele>
        <time>2014-05-03T15:57:24Z</time>
      </trkpt>
      <trkpt lat="39.737304379653" lon="3.058627310521">
        <ele>76</ele>
        <time>2014-05-03T15:57:27Z</time>
      </trkpt>
      <trkpt lat="39.73731720396" lon="3.058750356813">
        <ele>76</ele>
        <time>2014-05-03T15:57:29Z</time>
      </trkpt>
      <trkpt lat="39.737342684936" lon="3.058869463612">
        <ele>76.4</ele>
        <time>2014-05-03T15:57:31Z</time>
      </trkpt>
      <trkpt lat="39.737364645514" lon="3.058926795808">
        <ele>76.8</ele>
        <time>2014-05-03T15:57:32Z</time>
      </trkpt>
      <trkpt lat="39.737388785386" lon="3.05898027233">
        <ele>77.2</ele>
        <time>2014-05-03T15:57:33Z</time>
      </trkpt>
      <trkpt lat="39.737419714597" lon="3.059021259821">
        <ele>77.6</ele>
        <time>2014-05-03T15:57:34Z</time>
      </trkpt>
      <trkpt lat="39.737446704315" lon="3.059061157665">
        <ele>78</ele>
        <time>2014-05-03T15:57:35Z</time>
      </trkpt>
      <trkpt lat="39.737539575767" lon="3.059159561171">
        <ele>78</ele>
        <time>2014-05-03T15:57:38Z</time>
      </trkpt>
      <trkpt lat="39.737567738951" lon="3.059196609169">
        <ele>78</ele>
        <time>2014-05-03T15:57:39Z</time>
      </trkpt>
      <trkpt lat="39.737702603722" lon="3.059387381213">
        <ele>78</ele>
        <time>2014-05-03T15:57:44Z</time>
      </trkpt>
      <trkpt lat="39.737787260912" lon="3.059520653423">
        <ele>78</ele>
        <time>2014-05-03T15:57:48Z</time>
      </trkpt>
      <trkpt lat="39.737798744115" lon="3.059557198507">
        <ele>78.4</ele>
        <time>2014-05-03T15:57:49Z</time>
      </trkpt>
      <trkpt lat="39.737808299481" lon="3.059586367519">
        <ele>79</ele>
        <time>2014-05-03T15:57:50Z</time>
      </trkpt>
      <trkpt lat="39.737815172639" lon="3.059605394432">
        <ele>79.4</ele>
        <time>2014-05-03T15:57:51Z</time>
      </trkpt>
      <trkpt lat="39.737827326394" lon="3.059615117436">
        <ele>79.8</ele>
        <time>2014-05-03T15:57:52Z</time>
      </trkpt>
      <trkpt lat="39.737835121561" lon="3.059628109381">
        <ele>80.2</ele>
        <time>2014-05-03T15:57:53Z</time>
      </trkpt>
      <trkpt lat="39.737858004148" lon="3.059697930608">
        <ele>80.2</ele>
        <time>2014-05-03T15:57:57Z</time>
      </trkpt>
      <trkpt lat="39.737856243949" lon="3.059688794337">
        <ele>80.2</ele>
        <time>2014-05-03T15:57:59Z</time>
      </trkpt>
      <trkpt lat="39.737792960604" lon="3.059700528997">
        <ele>80.2</ele>
        <time>2014-05-03T15:58:04Z</time>
      </trkpt>
      <trkpt lat="39.737769491284" lon="3.059713353304">
        <ele>80.2</ele>
        <time>2014-05-03T15:58:06Z</time>
      </trkpt>
      <trkpt lat="39.737765132696" lon="3.059720729376">
        <ele>80.2</ele>
        <time>2014-05-03T15:58:08Z</time>
      </trkpt>
      <trkpt lat="39.737757337529" lon="3.059812259724">
        <ele>80.2</ele>
        <time>2014-05-03T15:58:20Z</time>
      </trkpt>
      <trkpt lat="39.737861273089" lon="3.059835812863">
        <ele>79.8</ele>
        <time>2014-05-03T15:58:24Z</time>
      </trkpt>
      <trkpt lat="39.737901254752" lon="3.059846206419">
        <ele>79.4</ele>
        <time>2014-05-03T15:58:25Z</time>
      </trkpt>
      <trkpt lat="39.737945175908" lon="3.059859282183">
        <ele>79</ele>
        <time>2014-05-03T15:58:26Z</time>
      </trkpt>
      <trkpt lat="39.737998400973" lon="3.059874118146">
        <ele>78</ele>
        <time>2014-05-03T15:58:27Z</time>
      </trkpt>
      <trkpt lat="39.738052715685" lon="3.05988887029">
        <ele>77.4</ele>
        <time>2014-05-03T15:58:28Z</time>
      </trkpt>
      <trkpt lat="39.73811096989" lon="3.059899934398">
        <ele>77</ele>
        <time>2014-05-03T15:58:29Z</time>
      </trkpt>
      <trkpt lat="39.738169894647" lon="3.059915860008">
        <ele>76.4</ele>
        <time>2014-05-03T15:58:30Z</time>
      </trkpt>
      <trkpt lat="39.73823250744" lon="3.059935473654">
        <ele>75.8</ele>
        <time>2014-05-03T15:58:31Z</time>
      </trkpt>
      <trkpt lat="39.738290091093" lon="3.059949471427">
        <ele>75.4</ele>
        <time>2014-05-03T15:58:32Z</time>
      </trkpt>
      <trkpt lat="39.738348848212" lon="3.059972018738">
        <ele>75</ele>
        <time>2014-05-03T15:58:33Z</time>
      </trkpt>
      <trkpt lat="39.738391512083" lon="3.060024405613">
        <ele>74.6</ele>
        <time>2014-05-03T15:58:34Z</time>
      </trkpt>
      <trkpt lat="39.738409114073" lon="3.060071847167">
        <ele>74</ele>
        <time>2014-05-03T15:58:35Z</time>
      </trkpt>
      <trkpt lat="39.738424285312" lon="3.060096489953">
        <ele>73.6</ele>
        <time>2014-05-03T15:58:36Z</time>
      </trkpt>
      <trkpt lat="39.738413724118" lon="3.0601311072">
        <ele>73.2</ele>
        <time>2014-05-03T15:58:37Z</time>
      </trkpt>
      <trkpt lat="39.738364857641" lon="3.060145691706">
        <ele>72.6</ele>
        <time>2014-05-03T15:58:38Z</time>
      </trkpt>
      <trkpt lat="39.738289671998" lon="3.060113421391">
        <ele>72.2</ele>
        <time>2014-05-03T15:58:39Z</time>
      </trkpt>
      <trkpt lat="39.73822244916" lon="3.06007494847">
        <ele>71.6</ele>
        <time>2014-05-03T15:58:40Z</time>
      </trkpt>
      <trkpt lat="39.738157154159" lon="3.06004645001">
        <ele>71</ele>
        <time>2014-05-03T15:58:41Z</time>
      </trkpt>
      <trkpt lat="39.738094122271" lon="3.060035804997">
        <ele>70.4</ele>
        <time>2014-05-03T15:58:42Z</time>
      </trkpt>
      <trkpt lat="39.7380346946" lon="3.060049467494">
        <ele>69.8</ele>
        <time>2014-05-03T15:58:43Z</time>
      </trkpt>
      <trkpt lat="39.737994377661" lon="3.060093640107">
        <ele>69.2</ele>
        <time>2014-05-03T15:58:44Z</time>
      </trkpt>
      <trkpt lat="39.738021870293" lon="3.060214590924">
        <ele>69.2</ele>
        <time>2014-05-03T15:58:46Z</time>
      </trkpt>
      <trkpt lat="39.738069563304" lon="3.060259182632">
        <ele>69.2</ele>
        <time>2014-05-03T15:58:47Z</time>
      </trkpt>
      <trkpt lat="39.73811683722" lon="3.06029790701">
        <ele>69.2</ele>
        <time>2014-05-03T15:58:48Z</time>
      </trkpt>
      <trkpt lat="39.738161931842" lon="3.060343588365">
        <ele>69.2</ele>
        <time>2014-05-03T15:58:49Z</time>
      </trkpt>
      <trkpt lat="39.738213899622" lon="3.060385581684">
        <ele>68.8</ele>
        <time>2014-05-03T15:58:50Z</time>
      </trkpt>
      <trkpt lat="39.738271650913" lon="3.060429167564">
        <ele>68.2</ele>
        <time>2014-05-03T15:58:51Z</time>
      </trkpt>
      <trkpt lat="39.738332419688" lon="3.060476609118">
        <ele>67.2</ele>
        <time>2014-05-03T15:58:52Z</time>
      </trkpt>
      <trkpt lat="39.738396541223" lon="3.060522877206">
        <ele>66.8</ele>
        <time>2014-05-03T15:58:53Z</time>
      </trkpt>
      <trkpt lat="39.738467368278" lon="3.060570402579">
        <ele>66.2</ele>
        <time>2014-05-03T15:58:54Z</time>
      </trkpt>
      <trkpt lat="39.738537692419" lon="3.060613317907">
        <ele>65.6</ele>
        <time>2014-05-03T15:58:55Z</time>
      </trkpt>
      <trkpt lat="39.73861136932" lon="3.060651120276">
        <ele>64.8</ele>
        <time>2014-05-03T15:58:56Z</time>
      </trkpt>
      <trkpt lat="39.738682531651" lon="3.060688922645">
        <ele>64</ele>
        <time>2014-05-03T15:58:57Z</time>
      </trkpt>
      <trkpt lat="39.738757046742" lon="3.060733179077">
        <ele>63.2</ele>
        <time>2014-05-03T15:58:58Z</time>
      </trkpt>
      <trkpt lat="39.73884187157" lon="3.060782297011">
        <ele>62.6</ele>
        <time>2014-05-03T15:58:59Z</time>
      </trkpt>
      <trkpt lat="39.738919907059" lon="3.060850358039">
        <ele>61.8</ele>
        <time>2014-05-03T15:59:00Z</time>
      </trkpt>
      <trkpt lat="39.738996433806" lon="3.060922777655">
        <ele>61.2</ele>
        <time>2014-05-03T15:59:01Z</time>
      </trkpt>
      <trkpt lat="39.739089891991" lon="3.060991593054">
        <ele>60.4</ele>
        <time>2014-05-03T15:59:02Z</time>
      </trkpt>
      <trkpt lat="39.739172202249" lon="3.061061414281">
        <ele>59.4</ele>
        <time>2014-05-03T15:59:03Z</time>
      </trkpt>
      <trkpt lat="39.739257529991" lon="3.061132492793">
        <ele>58.4</ele>
        <time>2014-05-03T15:59:04Z</time>
      </trkpt>
      <trkpt lat="39.73934059462" lon="3.061194686491">
        <ele>57.6</ele>
        <time>2014-05-03T15:59:05Z</time>
      </trkpt>
      <trkpt lat="39.739423491611" lon="3.061260819682">
        <ele>56.4</ele>
        <time>2014-05-03T15:59:06Z</time>
      </trkpt>
      <trkpt lat="39.739504460765" lon="3.061323097199">
        <ele>55.4</ele>
        <time>2014-05-03T15:59:07Z</time>
      </trkpt>
      <trkpt lat="39.739585765195" lon="3.061382273413">
        <ele>54.4</ele>
        <time>2014-05-03T15:59:08Z</time>
      </trkpt>
      <trkpt lat="39.739682073226" lon="3.061434744107">
        <ele>53.4</ele>
        <time>2014-05-03T15:59:09Z</time>
      </trkpt>
      <trkpt lat="39.739788942451" lon="3.06146299111">
        <ele>52.4</ele>
        <time>2014-05-03T15:59:10Z</time>
      </trkpt>
      <trkpt lat="39.739891704545" lon="3.061490567561">
        <ele>51.6</ele>
        <time>2014-05-03T15:59:11Z</time>
      </trkpt>
      <trkpt lat="39.739970494405" lon="3.061537338563">
        <ele>50.6</ele>
        <time>2014-05-03T15:59:12Z</time>
      </trkpt>
      <trkpt lat="39.740049284265" lon="3.061576733493">
        <ele>49.8</ele>
        <time>2014-05-03T15:59:13Z</time>
      </trkpt>
      <trkpt lat="39.740136539844" lon="3.061623839771">
        <ele>49.8</ele>
        <time>2014-05-03T15:59:14Z</time>
      </trkpt>
      <trkpt lat="39.740213401867" lon="3.061817294023">
        <ele>49.8</ele>
        <time>2014-05-03T15:59:16Z</time>
      </trkpt>
      <trkpt lat="39.740246929467" lon="3.061907399448">
        <ele>49.2</ele>
        <time>2014-05-03T15:59:17Z</time>
      </trkpt>
      <trkpt lat="39.740267884217" lon="3.062001444366">
        <ele>48.8</ele>
        <time>2014-05-03T15:59:18Z</time>
      </trkpt>
      <trkpt lat="39.740307782061" lon="3.062079396036">
        <ele>48.2</ele>
        <time>2014-05-03T15:59:19Z</time>
      </trkpt>
      <trkpt lat="39.740412388173" lon="3.062105128469">
        <ele>47.6</ele>
        <time>2014-05-03T15:59:20Z</time>
      </trkpt>
      <trkpt lat="39.740496710087" lon="3.062146032141">
        <ele>47</ele>
        <time>2014-05-03T15:59:21Z</time>
      </trkpt>
      <trkpt lat="39.740538200492" lon="3.062213087341">
        <ele>46.4</ele>
        <time>2014-05-03T15:59:22Z</time>
      </trkpt>
      <trkpt lat="39.740557478862" lon="3.062302103119">
        <ele>45.6</ele>
        <time>2014-05-03T15:59:23Z</time>
      </trkpt>
      <trkpt lat="39.740570554626" lon="3.062396064218">
        <ele>45</ele>
        <time>2014-05-03T15:59:24Z</time>
      </trkpt>
      <trkpt lat="39.740578936526" lon="3.062595888714">
        <ele>45</ele>
        <time>2014-05-03T15:59:26Z</time>
      </trkpt>
      <trkpt lat="39.740561083079" lon="3.062699572817">
        <ele>45</ele>
        <time>2014-05-03T15:59:27Z</time>
      </trkpt>
      <trkpt lat="39.740496793906" lon="3.062898978218">
        <ele>45</ele>
        <time>2014-05-03T15:59:29Z</time>
      </trkpt>
      <trkpt lat="39.740361090945" lon="3.063287060188">
        <ele>45</ele>
        <time>2014-05-03T15:59:33Z</time>
      </trkpt>
      <trkpt lat="39.740279535058" lon="3.0634587215">
        <ele>45</ele>
        <time>2014-05-03T15:59:35Z</time>
      </trkpt>
      <trkpt lat="39.740119189311" lon="3.063801708848">
        <ele>45</ele>
        <time>2014-05-03T15:59:39Z</time>
      </trkpt>
      <trkpt lat="39.740082979503" lon="3.063896089042">
        <ele>45</ele>
        <time>2014-05-03T15:59:40Z</time>
      </trkpt>
      <trkpt lat="39.740058420536" lon="3.063993402901">
        <ele>45</ele>
        <time>2014-05-03T15:59:41Z</time>
      </trkpt>
      <trkpt lat="39.740049870998" lon="3.064203704772">
        <ele>45</ele>
        <time>2014-05-03T15:59:43Z</time>
      </trkpt>
      <trkpt lat="39.740064036409" lon="3.064417862317">
        <ele>45</ele>
        <time>2014-05-03T15:59:45Z</time>
      </trkpt>
      <trkpt lat="39.740110975049" lon="3.064621961582">
        <ele>45</ele>
        <time>2014-05-03T15:59:47Z</time>
      </trkpt>
      <trkpt lat="39.740201918664" lon="3.064897223178">
        <ele>44.6</ele>
        <time>2014-05-03T15:59:50Z</time>
      </trkpt>
      <trkpt lat="39.740233686065" lon="3.06498003635">
        <ele>44.2</ele>
        <time>2014-05-03T15:59:51Z</time>
      </trkpt>
      <trkpt lat="39.740261094878" lon="3.065062933341">
        <ele>43.8</ele>
        <time>2014-05-03T15:59:52Z</time>
      </trkpt>
      <trkpt lat="39.740292107908" lon="3.065142393753">
        <ele>43.4</ele>
        <time>2014-05-03T15:59:53Z</time>
      </trkpt>
      <trkpt lat="39.740322366567" lon="3.065225206925">
        <ele>43</ele>
        <time>2014-05-03T15:59:54Z</time>
      </trkpt>
      <trkpt lat="39.740424206652" lon="3.065656790956">
        <ele>43</ele>
        <time>2014-05-03T15:59:59Z</time>
      </trkpt>
      <trkpt lat="39.740482879952" lon="3.066002544331">
        <ele>43</ele>
        <time>2014-05-03T16:00:03Z</time>
      </trkpt>
      <trkpt lat="39.740518335389" lon="3.06636304985">
        <ele>43</ele>
        <time>2014-05-03T16:00:07Z</time>
      </trkpt>
      <trkpt lat="39.740554377559" lon="3.066900832554">
        <ele>43</ele>
        <time>2014-05-03T16:00:13Z</time>
      </trkpt>
      <trkpt lat="39.740567872418" lon="3.066989848332">
        <ele>43</ele>
        <time>2014-05-03T16:00:14Z</time>
      </trkpt>
      <trkpt lat="39.740707514872" lon="3.067198473823">
        <ele>43</ele>
        <time>2014-05-03T16:00:17Z</time>
      </trkpt>
      <trkpt lat="39.740761913403" lon="3.067253794363">
        <ele>43</ele>
        <time>2014-05-03T16:00:18Z</time>
      </trkpt>
      <trkpt lat="39.740867609162" lon="3.067377427388">
        <ele>43</ele>
        <time>2014-05-03T16:00:20Z</time>
      </trkpt>
      <trkpt lat="39.740938017122" lon="3.067531402891">
        <ele>43</ele>
        <time>2014-05-03T16:00:22Z</time>
      </trkpt>
      <trkpt lat="39.741014208593" lon="3.067778501303">
        <ele>43</ele>
        <time>2014-05-03T16:00:25Z</time>
      </trkpt>
      <trkpt lat="39.741057878292" lon="3.067944211466">
        <ele>43</ele>
        <time>2014-05-03T16:00:27Z</time>
      </trkpt>
      <trkpt lat="39.741129375899" lon="3.068183849987">
        <ele>43.4</ele>
        <time>2014-05-03T16:00:30Z</time>
      </trkpt>
      <trkpt lat="39.741156449436" lon="3.068265070598">
        <ele>44.2</ele>
        <time>2014-05-03T16:00:31Z</time>
      </trkpt>
      <trkpt lat="39.741185283172" lon="3.068345033924">
        <ele>44.6</ele>
        <time>2014-05-03T16:00:32Z</time>
      </trkpt>
      <trkpt lat="39.741211602338" lon="3.068425332526">
        <ele>45</ele>
        <time>2014-05-03T16:00:33Z</time>
      </trkpt>
      <trkpt lat="39.741273376941" lon="3.068591042689">
        <ele>45</ele>
        <time>2014-05-03T16:00:35Z</time>
      </trkpt>
      <trkpt lat="39.741495329653" lon="3.069234521152">
        <ele>45</ele>
        <time>2014-05-03T16:00:43Z</time>
      </trkpt>
      <trkpt lat="39.741549644365" lon="3.069723688836">
        <ele>45.4</ele>
        <time>2014-05-03T16:00:49Z</time>
      </trkpt>
      <trkpt lat="39.741554589686" lon="3.069801556687">
        <ele>45.8</ele>
        <time>2014-05-03T16:00:50Z</time>
      </trkpt>
      <trkpt lat="39.741558780636" lon="3.069873892484">
        <ele>46.2</ele>
        <time>2014-05-03T16:00:51Z</time>
      </trkpt>
      <trkpt lat="39.741559870283" lon="3.069946144462">
        <ele>46.8</ele>
        <time>2014-05-03T16:00:52Z</time>
      </trkpt>
      <trkpt lat="39.741558612998" lon="3.07001672006">
        <ele>47.2</ele>
        <time>2014-05-03T16:00:53Z</time>
      </trkpt>
      <trkpt lat="39.741554002953" lon="3.070151417193">
        <ele>47.6</ele>
        <time>2014-05-03T16:00:55Z</time>
      </trkpt>
      <trkpt lat="39.741537825886" lon="3.070214281443">
        <ele>48.4</ele>
        <time>2014-05-03T16:00:56Z</time>
      </trkpt>
      <trkpt lat="39.741512428729" lon="3.070262896463">
        <ele>48.8</ele>
        <time>2014-05-03T16:00:57Z</time>
      </trkpt>
      <trkpt lat="39.741477057111" lon="3.07029919009">
        <ele>49.2</ele>
        <time>2014-05-03T16:00:58Z</time>
      </trkpt>
      <trkpt lat="39.741436656353" lon="3.070322575591">
        <ele>49.2</ele>
        <time>2014-05-03T16:00:59Z</time>
      </trkpt>
      <trkpt lat="39.741396507052" lon="3.070337076278">
        <ele>49.6</ele>
        <time>2014-05-03T16:01:00Z</time>
      </trkpt>
      <trkpt lat="39.741357615036" lon="3.070345877273">
        <ele>50</ele>
        <time>2014-05-03T16:01:01Z</time>
      </trkpt>
      <trkpt lat="39.74131788483" lon="3.070357947209">
        <ele>50.6</ele>
        <time>2014-05-03T16:01:02Z</time>
      </trkpt>
      <trkpt lat="39.741279495728" lon="3.070367334937">
        <ele>51</ele>
        <time>2014-05-03T16:01:03Z</time>
      </trkpt>
      <trkpt lat="39.741239430246" lon="3.070376806484">
        <ele>51.4</ele>
        <time>2014-05-03T16:01:04Z</time>
      </trkpt>
      <trkpt lat="39.741162568223" lon="3.070400359623">
        <ele>52</ele>
        <time>2014-05-03T16:01:06Z</time>
      </trkpt>
      <trkpt lat="39.741123257112" lon="3.070403880021">
        <ele>52.4</ele>
        <time>2014-05-03T16:01:07Z</time>
      </trkpt>
      <trkpt lat="39.741086460571" lon="3.070410501722">
        <ele>52.8</ele>
        <time>2014-05-03T16:01:08Z</time>
      </trkpt>
      <trkpt lat="39.741050837496" lon="3.070420057088">
        <ele>53.4</ele>
        <time>2014-05-03T16:01:09Z</time>
      </trkpt>
      <trkpt lat="39.741015717335" lon="3.070433384309">
        <ele>53.8</ele>
        <time>2014-05-03T16:01:10Z</time>
      </trkpt>
      <trkpt lat="39.740935502552" lon="3.070524998476">
        <ele>53.8</ele>
        <time>2014-05-03T16:01:13Z</time>
      </trkpt>
      <trkpt lat="39.740911949413" lon="3.070622563792">
        <ele>54.2</ele>
        <time>2014-05-03T16:01:15Z</time>
      </trkpt>
      <trkpt lat="39.740917900562" lon="3.070671933183">
        <ele>54.6</ele>
        <time>2014-05-03T16:01:16Z</time>
      </trkpt>
      <trkpt lat="39.74093064105" lon="3.070719877651">
        <ele>55</ele>
        <time>2014-05-03T16:01:17Z</time>
      </trkpt>
      <trkpt lat="39.740947740126" lon="3.070763128255">
        <ele>55.6</ele>
        <time>2014-05-03T16:01:18Z</time>
      </trkpt>
      <trkpt lat="39.740970957989" lon="3.070798667511">
        <ele>56.4</ele>
        <time>2014-05-03T16:01:19Z</time>
      </trkpt>
      <trkpt lat="39.740997277155" lon="3.070821717736">
        <ele>56.8</ele>
        <time>2014-05-03T16:01:20Z</time>
      </trkpt>
      <trkpt lat="39.741029882746" lon="3.070843091581">
        <ele>57.4</ele>
        <time>2014-05-03T16:01:21Z</time>
      </trkpt>
      <trkpt lat="39.741062655975" lon="3.070860525933">
        <ele>57.8</ele>
        <time>2014-05-03T16:01:22Z</time>
      </trkpt>
      <trkpt lat="39.741094507195" lon="3.070879049932">
        <ele>58.2</ele>
        <time>2014-05-03T16:01:23Z</time>
      </trkpt>
      <trkpt lat="39.741320064124" lon="3.071016848368">
        <ele>58.6</ele>
        <time>2014-05-03T16:01:30Z</time>
      </trkpt>
      <trkpt lat="39.741349903688" lon="3.071041239697">
        <ele>59</ele>
        <time>2014-05-03T16:01:31Z</time>
      </trkpt>
      <trkpt lat="39.741380581442" lon="3.071064289922">
        <ele>59.4</ele>
        <time>2014-05-03T16:01:32Z</time>
      </trkpt>
      <trkpt lat="39.741409415178" lon="3.071089435622">
        <ele>59.8</ele>
        <time>2014-05-03T16:01:33Z</time>
      </trkpt>
      <trkpt lat="39.741440931122" lon="3.071113491675">
        <ele>60.4</ele>
        <time>2014-05-03T16:01:34Z</time>
      </trkpt>
      <trkpt lat="39.741532293832" lon="3.071183229083">
        <ele>60.4</ele>
        <time>2014-05-03T16:01:37Z</time>
      </trkpt>
      <trkpt lat="39.741598510842" lon="3.071230754456">
        <ele>60.8</ele>
        <time>2014-05-03T16:01:39Z</time>
      </trkpt>
      <trkpt lat="39.74162969151" lon="3.071254307595">
        <ele>61.2</ele>
        <time>2014-05-03T16:01:40Z</time>
      </trkpt>
      <trkpt lat="39.741661794187" lon="3.071282470779">
        <ele>61.6</ele>
        <time>2014-05-03T16:01:41Z</time>
      </trkpt>
      <trkpt lat="39.741693896864" lon="3.071312310343">
        <ele>62</ele>
        <time>2014-05-03T16:01:42Z</time>
      </trkpt>
      <trkpt lat="39.741728849387" lon="3.071339467699">
        <ele>62.4</ele>
        <time>2014-05-03T16:01:43Z</time>
      </trkpt>
      <trkpt lat="39.741799173528" lon="3.071391854574">
        <ele>62.4</ele>
        <time>2014-05-03T16:01:45Z</time>
      </trkpt>
      <trkpt lat="39.74186438471" lon="3.07143745211">
        <ele>62.8</ele>
        <time>2014-05-03T16:01:47Z</time>
      </trkpt>
      <trkpt lat="39.741898499043" lon="3.071459915602">
        <ele>63.4</ele>
        <time>2014-05-03T16:01:48Z</time>
      </trkpt>
      <trkpt lat="39.741930434082" lon="3.071484642207">
        <ele>63.8</ele>
        <time>2014-05-03T16:01:49Z</time>
      </trkpt>
      <trkpt lat="39.741963458768" lon="3.071512218658">
        <ele>64.2</ele>
        <time>2014-05-03T16:01:50Z</time>
      </trkpt>
      <trkpt lat="39.741998327472" lon="3.071536274711">
        <ele>64.6</ele>
        <time>2014-05-03T16:01:51Z</time>
      </trkpt>
      <trkpt lat="39.742035124013" lon="3.071558570565">
        <ele>64.6</ele>
        <time>2014-05-03T16:01:52Z</time>
      </trkpt>
      <trkpt lat="39.74207141764" lon="3.071578519487">
        <ele>64.6</ele>
        <time>2014-05-03T16:01:53Z</time>
      </trkpt>
      <trkpt lat="39.742348774711" lon="3.071703828892">
        <ele>64.6</ele>
        <time>2014-05-03T16:02:00Z</time>
      </trkpt>
      <trkpt lat="39.742636525338" lon="3.071895271488">
        <ele>64.6</ele>
        <time>2014-05-03T16:02:06Z</time>
      </trkpt>
      <trkpt lat="39.742968197121" lon="3.072083780419">
        <ele>64</ele>
        <time>2014-05-03T16:02:11Z</time>
      </trkpt>
      <trkpt lat="39.743039359452" lon="3.07214153171">
        <ele>63.6</ele>
        <time>2014-05-03T16:02:12Z</time>
      </trkpt>
      <trkpt lat="39.743111359973" lon="3.072198863906">
        <ele>63.2</ele>
        <time>2014-05-03T16:02:13Z</time>
      </trkpt>
      <trkpt lat="39.743183528132" lon="3.07226139288">
        <ele>62.6</ele>
        <time>2014-05-03T16:02:14Z</time>
      </trkpt>
      <trkpt lat="39.743256785938" lon="3.072330040641">
        <ele>62.2</ele>
        <time>2014-05-03T16:02:15Z</time>
      </trkpt>
      <trkpt lat="39.743326355708" lon="3.072416374211">
        <ele>62.2</ele>
        <time>2014-05-03T16:02:16Z</time>
      </trkpt>
      <trkpt lat="39.743383939361" lon="3.072510251491">
        <ele>61.6</ele>
        <time>2014-05-03T16:02:17Z</time>
      </trkpt>
      <trkpt lat="39.743439259901" lon="3.072607900626">
        <ele>61.2</ele>
        <time>2014-05-03T16:02:18Z</time>
      </trkpt>
      <trkpt lat="39.743488294016" lon="3.072710914177">
        <ele>60.6</ele>
        <time>2014-05-03T16:02:19Z</time>
      </trkpt>
      <trkpt lat="39.743538417778" lon="3.07282465656">
        <ele>60.2</ele>
        <time>2014-05-03T16:02:20Z</time>
      </trkpt>
      <trkpt lat="39.743590134101" lon="3.072938901857">
        <ele>59.6</ele>
        <time>2014-05-03T16:02:21Z</time>
      </trkpt>
      <trkpt lat="39.743644448813" lon="3.073055494086">
        <ele>59.2</ele>
        <time>2014-05-03T16:02:22Z</time>
      </trkpt>
      <trkpt lat="39.743704463217" lon="3.073176193446">
        <ele>58.6</ele>
        <time>2014-05-03T16:02:23Z</time>
      </trkpt>
      <trkpt lat="39.743757353006" lon="3.073295384064">
        <ele>58.2</ele>
        <time>2014-05-03T16:02:24Z</time>
      </trkpt>
      <trkpt lat="39.743809991338" lon="3.073409042628">
        <ele>57.6</ele>
        <time>2014-05-03T16:02:25Z</time>
      </trkpt>
      <trkpt lat="39.743862378213" lon="3.073520689536">
        <ele>57</ele>
        <time>2014-05-03T16:02:26Z</time>
      </trkpt>
      <trkpt lat="39.743915854735" lon="3.073634851014">
        <ele>56.6</ele>
        <time>2014-05-03T16:02:27Z</time>
      </trkpt>
      <trkpt lat="39.743970839999" lon="3.073748174302">
        <ele>56</ele>
        <time>2014-05-03T16:02:28Z</time>
      </trkpt>
      <trkpt lat="39.744022556322" lon="3.07386149759">
        <ele>55.4</ele>
        <time>2014-05-03T16:02:29Z</time>
      </trkpt>
      <trkpt lat="39.744113080842" lon="3.074075655135">
        <ele>55.4</ele>
        <time>2014-05-03T16:02:31Z</time>
      </trkpt>
      <trkpt lat="39.744129425547" lon="3.07417330427">
        <ele>55.4</ele>
        <time>2014-05-03T16:02:32Z</time>
      </trkpt>
      <trkpt lat="39.744118529077" lon="3.07425041775">
        <ele>55</ele>
        <time>2014-05-03T16:02:33Z</time>
      </trkpt>
      <trkpt lat="39.744059688139" lon="3.074344797944">
        <ele>54.6</ele>
        <time>2014-05-03T16:02:34Z</time>
      </trkpt>
      <trkpt lat="39.743992046206" lon="3.074448062952">
        <ele>54</ele>
        <time>2014-05-03T16:02:35Z</time>
      </trkpt>
      <trkpt lat="39.743911831423" lon="3.074566918294">
        <ele>53.2</ele>
        <time>2014-05-03T16:02:36Z</time>
      </trkpt>
      <trkpt lat="39.743835137038" lon="3.074685019265">
        <ele>52.6</ele>
        <time>2014-05-03T16:02:37Z</time>
      </trkpt>
      <trkpt lat="39.743763807069" lon="3.074803371693">
        <ele>51.8</ele>
        <time>2014-05-03T16:02:38Z</time>
      </trkpt>
      <trkpt lat="39.743692225643" lon="3.074922478492">
        <ele>51</ele>
        <time>2014-05-03T16:02:39Z</time>
      </trkpt>
      <trkpt lat="39.743628523203" lon="3.075028844803">
        <ele>50.2</ele>
        <time>2014-05-03T16:02:40Z</time>
      </trkpt>
      <trkpt lat="39.743562222374" lon="3.075141665177">
        <ele>49.4</ele>
        <time>2014-05-03T16:02:41Z</time>
      </trkpt>
      <trkpt lat="39.743500447771" lon="3.075252390076">
        <ele>48.6</ele>
        <time>2014-05-03T16:02:42Z</time>
      </trkpt>
      <trkpt lat="39.743439678996" lon="3.075358840206">
        <ele>47.8</ele>
        <time>2014-05-03T16:02:43Z</time>
      </trkpt>
      <trkpt lat="39.74307808383" lon="3.075982453566">
        <ele>47.8</ele>
        <time>2014-05-03T16:02:49Z</time>
      </trkpt>
      <trkpt lat="39.743024858765" lon="3.076076498484">
        <ele>47.8</ele>
        <time>2014-05-03T16:02:50Z</time>
      </trkpt>
      <trkpt lat="39.7429716337" lon="3.076172303601">
        <ele>47.8</ele>
        <time>2014-05-03T16:02:51Z</time>
      </trkpt>
      <trkpt lat="39.742821262414" lon="3.076448487206">
        <ele>48.2</ele>
        <time>2014-05-03T16:02:54Z</time>
      </trkpt>
      <trkpt lat="39.742781448389" lon="3.076543789409">
        <ele>48.6</ele>
        <time>2014-05-03T16:02:55Z</time>
      </trkpt>
      <trkpt lat="39.742784046778" lon="3.076638672517">
        <ele>49</ele>
        <time>2014-05-03T16:02:56Z</time>
      </trkpt>
      <trkpt lat="39.742799720931" lon="3.076735483462">
        <ele>49.4</ele>
        <time>2014-05-03T16:02:57Z</time>
      </trkpt>
      <trkpt lat="39.74285344891" lon="3.076827265267">
        <ele>49.8</ele>
        <time>2014-05-03T16:02:58Z</time>
      </trkpt>
      <trkpt lat="39.742919079187" lon="3.076910665172">
        <ele>49.8</ele>
        <time>2014-05-03T16:02:59Z</time>
      </trkpt>
      <trkpt lat="39.743098535666" lon="3.077063970123">
        <ele>49.8</ele>
        <time>2014-05-03T16:03:01Z</time>
      </trkpt>
      <trkpt lat="39.743192412946" lon="3.077143179078">
        <ele>49.8</ele>
        <time>2014-05-03T16:03:02Z</time>
      </trkpt>
      <trkpt lat="39.743380418963" lon="3.0772972384">
        <ele>49.4</ele>
        <time>2014-05-03T16:03:04Z</time>
      </trkpt>
      <trkpt lat="39.743473793329" lon="3.077375525346">
        <ele>48.8</ele>
        <time>2014-05-03T16:03:05Z</time>
      </trkpt>
      <trkpt lat="39.743568760256" lon="3.077453057921">
        <ele>48.4</ele>
        <time>2014-05-03T16:03:06Z</time>
      </trkpt>
      <trkpt lat="39.743664733011" lon="3.07753109341">
        <ele>47.8</ele>
        <time>2014-05-03T16:03:07Z</time>
      </trkpt>
      <trkpt lat="39.743762968879" lon="3.077611224374">
        <ele>47.2</ele>
        <time>2014-05-03T16:03:08Z</time>
      </trkpt>
      <trkpt lat="39.743863886955" lon="3.077687164388">
        <ele>46.8</ele>
        <time>2014-05-03T16:03:09Z</time>
      </trkpt>
      <trkpt lat="39.743966062316" lon="3.077771067207">
        <ele>46.2</ele>
        <time>2014-05-03T16:03:10Z</time>
      </trkpt>
      <trkpt lat="39.744063292356" lon="3.077854718569">
        <ele>45.6</ele>
        <time>2014-05-03T16:03:11Z</time>
      </trkpt>
      <trkpt lat="39.74416605445" lon="3.077938369931">
        <ele>45</ele>
        <time>2014-05-03T16:03:12Z</time>
      </trkpt>
      <trkpt lat="39.744264290318" lon="3.078020931646">
        <ele>44.4</ele>
        <time>2014-05-03T16:03:13Z</time>
      </trkpt>
      <trkpt lat="39.744462103158" lon="3.078182031764">
        <ele>44.4</ele>
        <time>2014-05-03T16:03:15Z</time>
      </trkpt>
      <trkpt lat="39.744782459376" lon="3.078430890375">
        <ele>43.8</ele>
        <time>2014-05-03T16:03:18Z</time>
      </trkpt>
      <trkpt lat="39.744889244782" lon="3.078505405466">
        <ele>43.4</ele>
        <time>2014-05-03T16:03:19Z</time>
      </trkpt>
      <trkpt lat="39.74499753893" lon="3.078581177842">
        <ele>43</ele>
        <time>2014-05-03T16:03:20Z</time>
      </trkpt>
      <trkpt lat="39.745106755087" lon="3.078655190019">
        <ele>42.4</ele>
        <time>2014-05-03T16:03:21Z</time>
      </trkpt>
      <trkpt lat="39.74521882109" lon="3.078728447825">
        <ele>42</ele>
        <time>2014-05-03T16:03:22Z</time>
      </trkpt>
      <trkpt lat="39.745331809102" lon="3.078804555477">
        <ele>40.8</ele>
        <time>2014-05-03T16:03:23Z</time>
      </trkpt>
      <trkpt lat="39.745443288372" lon="3.078882758604">
        <ele>40.4</ele>
        <time>2014-05-03T16:03:24Z</time>
      </trkpt>
      <trkpt lat="39.745554264728" lon="3.078962805749">
        <ele>39.6</ele>
        <time>2014-05-03T16:03:25Z</time>
      </trkpt>
      <trkpt lat="39.745672784794" lon="3.079043607265">
        <ele>39</ele>
        <time>2014-05-03T16:03:26Z</time>
      </trkpt>
      <trkpt lat="39.745781665675" lon="3.079119882555">
        <ele>38.4</ele>
        <time>2014-05-03T16:03:27Z</time>
      </trkpt>
      <trkpt lat="39.745889792185" lon="3.079191463981">
        <ele>37.8</ele>
        <time>2014-05-03T16:03:28Z</time>
      </trkpt>
      <trkpt lat="39.74600001417" lon="3.079263380683">
        <ele>37</ele>
        <time>2014-05-03T16:03:29Z</time>
      </trkpt>
      <trkpt lat="39.74622213452" lon="3.079408722829">
        <ele>37</ele>
        <time>2014-05-03T16:03:31Z</time>
      </trkpt>
      <trkpt lat="39.746330344849" lon="3.079484998119">
        <ele>37</ele>
        <time>2014-05-03T16:03:32Z</time>
      </trkpt>
      <trkpt lat="39.746559170719" lon="3.079636375233">
        <ele>36.6</ele>
        <time>2014-05-03T16:03:34Z</time>
      </trkpt>
      <trkpt lat="39.746669392704" lon="3.079711560876">
        <ele>36.2</ele>
        <time>2014-05-03T16:03:35Z</time>
      </trkpt>
      <trkpt lat="39.746778022128" lon="3.07978330994">
        <ele>35.8</ele>
        <time>2014-05-03T16:03:36Z</time>
      </trkpt>
      <trkpt lat="39.746887741199" lon="3.079850616597">
        <ele>35</ele>
        <time>2014-05-03T16:03:37Z</time>
      </trkpt>
      <trkpt lat="39.746999052831" lon="3.079915576322">
        <ele>34.4</ele>
        <time>2014-05-03T16:03:38Z</time>
      </trkpt>
      <trkpt lat="39.747108436626" lon="3.079982631522">
        <ele>33.6</ele>
        <time>2014-05-03T16:03:39Z</time>
      </trkpt>
      <trkpt lat="39.747219077706" lon="3.080046669238">
        <ele>33</ele>
        <time>2014-05-03T16:03:40Z</time>
      </trkpt>
      <trkpt lat="39.747334831745" lon="3.080109449669">
        <ele>32.4</ele>
        <time>2014-05-03T16:03:41Z</time>
      </trkpt>
      <trkpt lat="39.747454944372" lon="3.08017390648">
        <ele>32.4</ele>
        <time>2014-05-03T16:03:42Z</time>
      </trkpt>
      <trkpt lat="39.747570949868" lon="3.080232328323">
        <ele>32.4</ele>
        <time>2014-05-03T16:03:43Z</time>
      </trkpt>
      <trkpt lat="39.748156593221" lon="3.080528879945">
        <ele>32.4</ele>
        <time>2014-05-03T16:03:48Z</time>
      </trkpt>
      <trkpt lat="39.748269497414" lon="3.080586882693">
        <ele>32.4</ele>
        <time>2014-05-03T16:03:49Z</time>
      </trkpt>
      <trkpt lat="39.748611395115" lon="3.080755191245">
        <ele>31.8</ele>
        <time>2014-05-03T16:03:52Z</time>
      </trkpt>
      <trkpt lat="39.748725388955" lon="3.080814367459">
        <ele>31.4</ele>
        <time>2014-05-03T16:03:53Z</time>
      </trkpt>
      <trkpt lat="39.748843573745" lon="3.080873292216">
        <ele>31</ele>
        <time>2014-05-03T16:03:54Z</time>
      </trkpt>
      <trkpt lat="39.748963434915" lon="3.080929534765">
        <ele>30.6</ele>
        <time>2014-05-03T16:03:55Z</time>
      </trkpt>
      <trkpt lat="39.74907952423" lon="3.080989213893">
        <ele>30.2</ele>
        <time>2014-05-03T16:03:56Z</time>
      </trkpt>
      <trkpt lat="39.7491993854" lon="3.08105316779">
        <ele>30.2</ele>
        <time>2014-05-03T16:03:57Z</time>
      </trkpt>
      <trkpt lat="39.749634489829" lon="3.081318454925">
        <ele>29.8</ele>
        <time>2014-05-03T16:04:01Z</time>
      </trkpt>
      <trkpt lat="39.749737335742" lon="3.081396322776">
        <ele>29.2</ele>
        <time>2014-05-03T16:04:02Z</time>
      </trkpt>
      <trkpt lat="39.749843450596" lon="3.081472514247">
        <ele>28.8</ele>
        <time>2014-05-03T16:04:03Z</time>
      </trkpt>
      <trkpt lat="39.749948140527" lon="3.081541581103">
        <ele>28.4</ele>
        <time>2014-05-03T16:04:04Z</time>
      </trkpt>
      <trkpt lat="39.750053668648" lon="3.081607798113">
        <ele>27.8</ele>
        <time>2014-05-03T16:04:05Z</time>
      </trkpt>
      <trkpt lat="39.750156514561" lon="3.081672003467">
        <ele>27.8</ele>
        <time>2014-05-03T16:04:06Z</time>
      </trkpt>
      <trkpt lat="39.750259025198" lon="3.081733107518">
        <ele>27.8</ele>
        <time>2014-05-03T16:04:07Z</time>
      </trkpt>
      <trkpt lat="39.750554906268" lon="3.081911055255">
        <ele>27.8</ele>
        <time>2014-05-03T16:04:10Z</time>
      </trkpt>
      <trkpt lat="39.750647526263" lon="3.081969812374">
        <ele>27.8</ele>
        <time>2014-05-03T16:04:11Z</time>
      </trkpt>
      <trkpt lat="39.750851541709" lon="3.082077771246">
        <ele>27.8</ele>
        <time>2014-05-03T16:04:13Z</time>
      </trkpt>
      <trkpt lat="39.751067794729" lon="3.082193525285">
        <ele>27.8</ele>
        <time>2014-05-03T16:04:15Z</time>
      </trkpt>
      <trkpt lat="39.751612366772" lon="3.08247557622">
        <ele>27.8</ele>
        <time>2014-05-03T16:04:20Z</time>
      </trkpt>
      <trkpt lat="39.751723007852" lon="3.082533076054">
        <ele>27.8</ele>
        <time>2014-05-03T16:04:21Z</time>
      </trkpt>
      <trkpt lat="39.752154424245" lon="3.082758465345">
        <ele>27.4</ele>
        <time>2014-05-03T16:04:25Z</time>
      </trkpt>
      <trkpt lat="39.752265652058" lon="3.082813785885">
        <ele>26.8</ele>
        <time>2014-05-03T16:04:26Z</time>
      </trkpt>
      <trkpt lat="39.752376628414" lon="3.082873884108">
        <ele>26.2</ele>
        <time>2014-05-03T16:04:27Z</time>
      </trkpt>
      <trkpt lat="39.752490706073" lon="3.082935407254">
        <ele>25.6</ele>
        <time>2014-05-03T16:04:28Z</time>
      </trkpt>
      <trkpt lat="39.752599503135" lon="3.082997936228">
        <ele>25</ele>
        <time>2014-05-03T16:04:29Z</time>
      </trkpt>
      <trkpt lat="39.75270972512" lon="3.08305811827">
        <ele>24.4</ele>
        <time>2014-05-03T16:04:30Z</time>
      </trkpt>
      <trkpt lat="39.752817767811" lon="3.083116959208">
        <ele>23.6</ele>
        <time>2014-05-03T16:04:31Z</time>
      </trkpt>
      <trkpt lat="39.752923631208" lon="3.083180074915">
        <ele>23</ele>
        <time>2014-05-03T16:04:32Z</time>
      </trkpt>
      <trkpt lat="39.753028572596" lon="3.083237323292">
        <ele>22.6</ele>
        <time>2014-05-03T16:04:33Z</time>
      </trkpt>
      <trkpt lat="39.753135860916" lon="3.083295661316">
        <ele>22.2</ele>
        <time>2014-05-03T16:04:34Z</time>
      </trkpt>
      <trkpt lat="39.753245160892" lon="3.083356010996">
        <ele>21.8</ele>
        <time>2014-05-03T16:04:35Z</time>
      </trkpt>
      <trkpt lat="39.75334674952" lon="3.083414432839">
        <ele>21.4</ele>
        <time>2014-05-03T16:04:36Z</time>
      </trkpt>
      <trkpt lat="39.753450014528" lon="3.083473441415">
        <ele>21</ele>
        <time>2014-05-03T16:04:37Z</time>
      </trkpt>
      <trkpt lat="39.753756959706" lon="3.083667733857">
        <ele>21</ele>
        <time>2014-05-03T16:04:40Z</time>
      </trkpt>
      <trkpt lat="39.753957203297" lon="3.083796396022">
        <ele>21</ele>
        <time>2014-05-03T16:04:42Z</time>
      </trkpt>
      <trkpt lat="39.754060971219" lon="3.083858254444">
        <ele>21</ele>
        <time>2014-05-03T16:04:43Z</time>
      </trkpt>
      <trkpt lat="39.754160883467" lon="3.083923549445">
        <ele>21</ele>
        <time>2014-05-03T16:04:44Z</time>
      </trkpt>
      <trkpt lat="39.754261969181" lon="3.083985491686">
        <ele>21</ele>
        <time>2014-05-03T16:04:45Z</time>
      </trkpt>
      <trkpt lat="39.754358528669" lon="3.084049110307">
        <ele>21</ele>
        <time>2014-05-03T16:04:46Z</time>
      </trkpt>
      <trkpt lat="39.754528345963" lon="3.084212724995">
        <ele>21</ele>
        <time>2014-05-03T16:04:48Z</time>
      </trkpt>
      <trkpt lat="39.754786676121" lon="3.084503241649">
        <ele>21</ele>
        <time>2014-05-03T16:04:51Z</time>
      </trkpt>
      <trkpt lat="39.75487141713" lon="3.084599046766">
        <ele>21</ele>
        <time>2014-05-03T16:04:52Z</time>
      </trkpt>
      <trkpt lat="39.75503821694" lon="3.084789232077">
        <ele>21</ele>
        <time>2014-05-03T16:04:54Z</time>
      </trkpt>
      <trkpt lat="39.755119186094" lon="3.084887132669">
        <ele>21</ele>
        <time>2014-05-03T16:04:55Z</time>
      </trkpt>
      <trkpt lat="39.755198814144" lon="3.084978327741">
        <ele>21</ele>
        <time>2014-05-03T16:04:56Z</time>
      </trkpt>
      <trkpt lat="39.755274502701" lon="3.085065499501">
        <ele>21</ele>
        <time>2014-05-03T16:04:57Z</time>
      </trkpt>
      <trkpt lat="39.755511375195" lon="3.085357608716">
        <ele>21</ele>
        <time>2014-05-03T16:05:00Z</time>
      </trkpt>
      <trkpt lat="39.755598295498" lon="3.085453832928">
        <ele>21</ele>
        <time>2014-05-03T16:05:01Z</time>
      </trkpt>
      <trkpt lat="39.755782697298" lon="3.085656171994">
        <ele>20.4</ele>
        <time>2014-05-03T16:05:03Z</time>
      </trkpt>
      <trkpt lat="39.755866683936" lon="3.085749713998">
        <ele>20</ele>
        <time>2014-05-03T16:05:04Z</time>
      </trkpt>
      <trkpt lat="39.755953939515" lon="3.085845267658">
        <ele>19.6</ele>
        <time>2014-05-03T16:05:05Z</time>
      </trkpt>
      <trkpt lat="39.756037171782" lon="3.085942497698">
        <ele>19.2</ele>
        <time>2014-05-03T16:05:06Z</time>
      </trkpt>
      <trkpt lat="39.756118560031" lon="3.086039811557">
        <ele>18.6</ele>
        <time>2014-05-03T16:05:07Z</time>
      </trkpt>
      <trkpt lat="39.756199780642" lon="3.086135281398">
        <ele>18.6</ele>
        <time>2014-05-03T16:05:08Z</time>
      </trkpt>
      <trkpt lat="39.756282426176" lon="3.086231840886">
        <ele>18.6</ele>
        <time>2014-05-03T16:05:09Z</time>
      </trkpt>
      <trkpt lat="39.75636842447" lon="3.086330076754">
        <ele>18.6</ele>
        <time>2014-05-03T16:05:10Z</time>
      </trkpt>
      <trkpt lat="39.756543103266" lon="3.086529565974">
        <ele>18.6</ele>
        <time>2014-05-03T16:05:12Z</time>
      </trkpt>
      <trkpt lat="39.756891538849" lon="3.086933657373">
        <ele>18.2</ele>
        <time>2014-05-03T16:05:16Z</time>
      </trkpt>
      <trkpt lat="39.75697443584" lon="3.087034994544">
        <ele>17.6</ele>
        <time>2014-05-03T16:05:17Z</time>
      </trkpt>
      <trkpt lat="39.757060685591" lon="3.087134655335">
        <ele>17.2</ele>
        <time>2014-05-03T16:05:18Z</time>
      </trkpt>
      <trkpt lat="39.7571454266" lon="3.087231969194">
        <ele>16.8</ele>
        <time>2014-05-03T16:05:19Z</time>
      </trkpt>
      <trkpt lat="39.757228239772" lon="3.087330456519">
        <ele>16.2</ele>
        <time>2014-05-03T16:05:20Z</time>
      </trkpt>
      <trkpt lat="39.757317087912" lon="3.087433386251">
        <ele>16.2</ele>
        <time>2014-05-03T16:05:21Z</time>
      </trkpt>
      <trkpt lat="39.757735679998" lon="3.087907131239">
        <ele>16.2</ele>
        <time>2014-05-03T16:05:26Z</time>
      </trkpt>
      <trkpt lat="39.757895690469" lon="3.088084827519">
        <ele>16.2</ele>
        <time>2014-05-03T16:05:28Z</time>
      </trkpt>
      <trkpt lat="39.757981437306" lon="3.088181638464">
        <ele>16.2</ele>
        <time>2014-05-03T16:05:29Z</time>
      </trkpt>
      <trkpt lat="39.758060897718" lon="3.088271408613">
        <ele>16.2</ele>
        <time>2014-05-03T16:05:30Z</time>
      </trkpt>
      <trkpt lat="39.758301709705" lon="3.0885457482">
        <ele>16.2</ele>
        <time>2014-05-03T16:05:33Z</time>
      </trkpt>
      <trkpt lat="39.758549311031" lon="3.088830229886">
        <ele>16.2</ele>
        <time>2014-05-03T16:05:36Z</time>
      </trkpt>
      <trkpt lat="39.758630531642" lon="3.088923101338">
        <ele>16.2</ele>
        <time>2014-05-03T16:05:37Z</time>
      </trkpt>
      <trkpt lat="39.75870865095" lon="3.089015050781">
        <ele>16.2</ele>
        <time>2014-05-03T16:05:38Z</time>
      </trkpt>
      <trkpt lat="39.759173343486" lon="3.089530789088">
        <ele>16.2</ele>
        <time>2014-05-03T16:05:44Z</time>
      </trkpt>
      <trkpt lat="39.75938926123" lon="3.089779312423">
        <ele>15.8</ele>
        <time>2014-05-03T16:05:47Z</time>
      </trkpt>
      <trkpt lat="39.759459417733" lon="3.089862628509">
        <ele>15.4</ele>
        <time>2014-05-03T16:05:48Z</time>
      </trkpt>
      <trkpt lat="39.759533681367" lon="3.089942256559">
        <ele>15</ele>
        <time>2014-05-03T16:05:49Z</time>
      </trkpt>
      <trkpt lat="39.759604843698" lon="3.090024902093">
        <ele>14.6</ele>
        <time>2014-05-03T16:05:50Z</time>
      </trkpt>
      <trkpt lat="39.759672150355" lon="3.09011148712">
        <ele>14.2</ele>
        <time>2014-05-03T16:05:51Z</time>
      </trkpt>
      <trkpt lat="39.759746497808" lon="3.090199077975">
        <ele>14.2</ele>
        <time>2014-05-03T16:05:52Z</time>
      </trkpt>
      <trkpt lat="39.760012539314" lon="3.090513650682">
        <ele>14.2</ele>
        <time>2014-05-03T16:05:56Z</time>
      </trkpt>
      <trkpt lat="39.760080013609" lon="3.090593111094">
        <ele>14.2</ele>
        <time>2014-05-03T16:05:57Z</time>
      </trkpt>
      <trkpt lat="39.760147068809" lon="3.090673325877">
        <ele>14.2</ele>
        <time>2014-05-03T16:05:58Z</time>
      </trkpt>
      <trkpt lat="39.760216303303" lon="3.090754714126">
        <ele>14.2</ele>
        <time>2014-05-03T16:05:59Z</time>
      </trkpt>
      <trkpt lat="39.760281346847" lon="3.090834090719">
        <ele>14.2</ele>
        <time>2014-05-03T16:06:00Z</time>
      </trkpt>
      <trkpt lat="39.760552752769" lon="3.09116593014">
        <ele>13.8</ele>
        <time>2014-05-03T16:06:04Z</time>
      </trkpt>
      <trkpt lat="39.760620897616" lon="3.09125226371">
        <ele>13.4</ele>
        <time>2014-05-03T16:06:05Z</time>
      </trkpt>
      <trkpt lat="39.760690467386" lon="3.091339770746">
        <ele>13</ele>
        <time>2014-05-03T16:06:06Z</time>
      </trkpt>
      <trkpt lat="39.760762803183" lon="3.091428199791">
        <ele>12.6</ele>
        <time>2014-05-03T16:06:07Z</time>
      </trkpt>
      <trkpt lat="39.760840084301" lon="3.091528531134">
        <ele>12.2</ele>
        <time>2014-05-03T16:06:08Z</time>
      </trkpt>
      <trkpt lat="39.76107318494" lon="3.091801110522">
        <ele>11.6</ele>
        <time>2014-05-03T16:06:11Z</time>
      </trkpt>
      <trkpt lat="39.761149041135" lon="3.091890713033">
        <ele>11.2</ele>
        <time>2014-05-03T16:06:12Z</time>
      </trkpt>
      <trkpt lat="39.761224562054" lon="3.091981237553">
        <ele>10.6</ele>
        <time>2014-05-03T16:06:13Z</time>
      </trkpt>
      <trkpt lat="39.761300753525" lon="3.092069582779">
        <ele>10.2</ele>
        <time>2014-05-03T16:06:14Z</time>
      </trkpt>
      <trkpt lat="39.761378621376" lon="3.092161532222">
        <ele>9.6</ele>
        <time>2014-05-03T16:06:15Z</time>
      </trkpt>
      <trkpt lat="39.761690511875" lon="3.092509716348">
        <ele>9.6</ele>
        <time>2014-05-03T16:06:19Z</time>
      </trkpt>
      <trkpt lat="39.762097369301" lon="3.09297725873">
        <ele>9.6</ele>
        <time>2014-05-03T16:06:24Z</time>
      </trkpt>
      <trkpt lat="39.762255116659" lon="3.093158978322">
        <ele>9.6</ele>
        <time>2014-05-03T16:06:26Z</time>
      </trkpt>
      <trkpt lat="39.762331475768" lon="3.093249838118">
        <ele>9.6</ele>
        <time>2014-05-03T16:06:27Z</time>
      </trkpt>
      <trkpt lat="39.762719557738" lon="3.093702209261">
        <ele>9.6</ele>
        <time>2014-05-03T16:06:32Z</time>
      </trkpt>
      <trkpt lat="39.762795330114" lon="3.093790135392">
        <ele>9.6</ele>
        <time>2014-05-03T16:06:33Z</time>
      </trkpt>
      <trkpt lat="39.76287194068" lon="3.093881498102">
        <ele>9.6</ele>
        <time>2014-05-03T16:06:34Z</time>
      </trkpt>
      <trkpt lat="39.763026251459" lon="3.09406271478">
        <ele>9.6</ele>
        <time>2014-05-03T16:06:36Z</time>
      </trkpt>
      <trkpt lat="39.763101437102" lon="3.094151395282">
        <ele>9.6</ele>
        <time>2014-05-03T16:06:37Z</time>
      </trkpt>
      <trkpt lat="39.763175616917" lon="3.094238231766">
        <ele>9.6</ele>
        <time>2014-05-03T16:06:38Z</time>
      </trkpt>
      <trkpt lat="39.763253652406" lon="3.094334539797">
        <ele>9.6</ele>
        <time>2014-05-03T16:06:39Z</time>
      </trkpt>
      <trkpt lat="39.763324982375" lon="3.094423304118">
        <ele>8.8</ele>
        <time>2014-05-03T16:06:40Z</time>
      </trkpt>
      <trkpt lat="39.763396899077" lon="3.094513158086">
        <ele>8.4</ele>
        <time>2014-05-03T16:06:41Z</time>
      </trkpt>
      <trkpt lat="39.763469905426" lon="3.094599826932">
        <ele>8</ele>
        <time>2014-05-03T16:06:42Z</time>
      </trkpt>
      <trkpt lat="39.76353913992" lon="3.094684567941">
        <ele>7.6</ele>
        <time>2014-05-03T16:06:43Z</time>
      </trkpt>
      <trkpt lat="39.763742484814" lon="3.094931163439">
        <ele>7.6</ele>
        <time>2014-05-03T16:06:46Z</time>
      </trkpt>
      <trkpt lat="39.763926886614" lon="3.095159821671">
        <ele>7.6</ele>
        <time>2014-05-03T16:06:49Z</time>
      </trkpt>
      <trkpt lat="39.764102571238" lon="3.095370961732">
        <ele>7.6</ele>
        <time>2014-05-03T16:06:52Z</time>
      </trkpt>
      <trkpt lat="39.764160741624" lon="3.095436005276">
        <ele>7.6</ele>
        <time>2014-05-03T16:06:53Z</time>
      </trkpt>
      <trkpt lat="39.764216481259" lon="3.095498618069">
        <ele>7.6</ele>
        <time>2014-05-03T16:06:54Z</time>
      </trkpt>
      <trkpt lat="39.764275573654" lon="3.09555888393">
        <ele>7.6</ele>
        <time>2014-05-03T16:06:55Z</time>
      </trkpt>
      <trkpt lat="39.764339192275" lon="3.095599871421">
        <ele>7.6</ele>
        <time>2014-05-03T16:06:56Z</time>
      </trkpt>
      <trkpt lat="39.764407169484" lon="3.095621329085">
        <ele>7.6</ele>
        <time>2014-05-03T16:06:57Z</time>
      </trkpt>
      <trkpt lat="39.764475901064" lon="3.095634237211">
        <ele>7.6</ele>
        <time>2014-05-03T16:06:58Z</time>
      </trkpt>
      <trkpt lat="39.76453910059" lon="3.095643038206">
        <ele>7.6</ele>
        <time>2014-05-03T16:06:59Z</time>
      </trkpt>
      <trkpt lat="39.764600539917" lon="3.095651252468">
        <ele>7.6</ele>
        <time>2014-05-03T16:07:00Z</time>
      </trkpt>
      <trkpt lat="39.764723586209" lon="3.095673213046">
        <ele>7.6</ele>
        <time>2014-05-03T16:07:02Z</time>
      </trkpt>
      <trkpt lat="39.764824169009" lon="3.095702717334">
        <ele>7.6</ele>
        <time>2014-05-03T16:07:04Z</time>
      </trkpt>
      <trkpt lat="39.764857277514" lon="3.095723252989">
        <ele>7.6</ele>
        <time>2014-05-03T16:07:05Z</time>
      </trkpt>
      <trkpt lat="39.764905473439" lon="3.095796846071">
        <ele>7.6</ele>
        <time>2014-05-03T16:07:07Z</time>
      </trkpt>
      <trkpt lat="39.764926260551" lon="3.095835151354">
        <ele>8</ele>
        <time>2014-05-03T16:07:08Z</time>
      </trkpt>
      <trkpt lat="39.764950484242" lon="3.095871277343">
        <ele>8.4</ele>
        <time>2014-05-03T16:07:09Z</time>
      </trkpt>
      <trkpt lat="39.764975378485" lon="3.095908241522">
        <ele>8.8</ele>
        <time>2014-05-03T16:07:10Z</time>
      </trkpt>
      <trkpt lat="39.765003206393" lon="3.095932968127">
        <ele>9.2</ele>
        <time>2014-05-03T16:07:11Z</time>
      </trkpt>
      <trkpt lat="39.765031621034" lon="3.095949145194">
        <ele>9.6</ele>
        <time>2014-05-03T16:07:12Z</time>
      </trkpt>
      <trkpt lat="39.765064813358" lon="3.095954425791">
        <ele>9.6</ele>
        <time>2014-05-03T16:07:13Z</time>
      </trkpt>
      <trkpt lat="39.765090461972" lon="3.095871780257">
        <ele>7.4</ele>
        <time>2014-05-03T16:11:05Z</time>
      </trkpt>
      <trkpt lat="39.765102280451" lon="3.095922826028">
        <ele>7.4</ele>
        <time>2014-05-03T16:11:06Z</time>
      </trkpt>
      <trkpt lat="39.765121558821" lon="3.095975883455">
        <ele>7.4</ele>
        <time>2014-05-03T16:11:07Z</time>
      </trkpt>
      <trkpt lat="39.765188781659" lon="3.096181072367">
        <ele>7.4</ele>
        <time>2014-05-03T16:11:10Z</time>
      </trkpt>
      <trkpt lat="39.765260949818" lon="3.096369665117">
        <ele>7.4</ele>
        <time>2014-05-03T16:11:13Z</time>
      </trkpt>
      <trkpt lat="39.765330771045" lon="3.096561945903">
        <ele>7.4</ele>
        <time>2014-05-03T16:11:16Z</time>
      </trkpt>
      <trkpt lat="39.765381062445" lon="3.096695385751">
        <ele>7.4</ele>
        <time>2014-05-03T16:11:18Z</time>
      </trkpt>
      <trkpt lat="39.765533110111" lon="3.097166029436">
        <ele>7.4</ele>
        <time>2014-05-03T16:11:25Z</time>
      </trkpt>
      <trkpt lat="39.765541408192" lon="3.097236605034">
        <ele>7.4</ele>
        <time>2014-05-03T16:11:26Z</time>
      </trkpt>
      <trkpt lat="39.765548700445" lon="3.097400135903">
        <ele>7.4</ele>
        <time>2014-05-03T16:11:28Z</time>
      </trkpt>
      <trkpt lat="39.765555238327" lon="3.097478674306">
        <ele>7.4</ele>
        <time>2014-05-03T16:11:29Z</time>
      </trkpt>
      <trkpt lat="39.765580216389" lon="3.097778243412">
        <ele>7</ele>
        <time>2014-05-03T16:11:33Z</time>
      </trkpt>
      <trkpt lat="39.765585664624" lon="3.097856614177">
        <ele>6.6</ele>
        <time>2014-05-03T16:11:34Z</time>
      </trkpt>
      <trkpt lat="39.765590107031" lon="3.097921490083">
        <ele>6.2</ele>
        <time>2014-05-03T16:11:35Z</time>
      </trkpt>
      <trkpt lat="39.765596141999" lon="3.098002459237">
        <ele>6.4</ele>
        <time>2014-05-03T16:11:36Z</time>
      </trkpt>
      <trkpt lat="39.765602596062" lon="3.098092816119">
        <ele>6.8</ele>
        <time>2014-05-03T16:11:37Z</time>
      </trkpt>
      <trkpt lat="39.765613995446" lon="3.098183005363">
        <ele>7.2</ele>
        <time>2014-05-03T16:11:38Z</time>
      </trkpt>
      <trkpt lat="39.765622712622" lon="3.098266405268">
        <ele>7.6</ele>
        <time>2014-05-03T16:11:39Z</time>
      </trkpt>
      <trkpt lat="39.7656446732" lon="3.09866186331">
        <ele>7.6</ele>
        <time>2014-05-03T16:11:44Z</time>
      </trkpt>
      <trkpt lat="39.765631010703" lon="3.098832183518">
        <ele>7.6</ele>
        <time>2014-05-03T16:11:46Z</time>
      </trkpt>
      <trkpt lat="39.765587257185" lon="3.099372899887">
        <ele>7.6</ele>
        <time>2014-05-03T16:11:52Z</time>
      </trkpt>
      <trkpt lat="39.76554911954" lon="3.099742541677">
        <ele>7.6</ele>
        <time>2014-05-03T16:11:56Z</time>
      </trkpt>
      <trkpt lat="39.765514250836" lon="3.099927194934">
        <ele>7.6</ele>
        <time>2014-05-03T16:11:58Z</time>
      </trkpt>
      <trkpt lat="39.765497403217" lon="3.100018976739">
        <ele>7.6</ele>
        <time>2014-05-03T16:11:59Z</time>
      </trkpt>
      <trkpt lat="39.765358179858" lon="3.100460116136">
        <ele>7.6</ele>
        <time>2014-05-03T16:12:04Z</time>
      </trkpt>
      <trkpt lat="39.765163635959" lon="3.101096721441">
        <ele>7.6</ele>
        <time>2014-05-03T16:12:11Z</time>
      </trkpt>
      <trkpt lat="39.764980239987" lon="3.101835502107">
        <ele>7.6</ele>
        <time>2014-05-03T16:12:19Z</time>
      </trkpt>
      <trkpt lat="39.764798436576" lon="3.10258459251">
        <ele>7.6</ele>
        <time>2014-05-03T16:12:27Z</time>
      </trkpt>
      <trkpt lat="39.764777230369" lon="3.102676039039">
        <ele>7.6</ele>
        <time>2014-05-03T16:12:28Z</time>
      </trkpt>
      <trkpt lat="39.764597270976" lon="3.103417418094">
        <ele>7.6</ele>
        <time>2014-05-03T16:12:36Z</time>
      </trkpt>
      <trkpt lat="39.764464082585" lon="3.103977580471">
        <ele>7.6</ele>
        <time>2014-05-03T16:12:42Z</time>
      </trkpt>
      <trkpt lat="39.764386633829" lon="3.104260385777">
        <ele>7.6</ele>
        <time>2014-05-03T16:12:45Z</time>
      </trkpt>
      <trkpt lat="39.764349166736" lon="3.104346803166">
        <ele>7.6</ele>
        <time>2014-05-03T16:12:46Z</time>
      </trkpt>
      <trkpt lat="39.764220085476" lon="3.104587196058">
        <ele>7.6</ele>
        <time>2014-05-03T16:12:49Z</time>
      </trkpt>
      <trkpt lat="39.763911631556" lon="3.105168397004">
        <ele>7.6</ele>
        <time>2014-05-03T16:12:56Z</time>
      </trkpt>
      <trkpt lat="39.763825968538" lon="3.105323881249">
        <ele>7.6</ele>
        <time>2014-05-03T16:12:58Z</time>
      </trkpt>
      <trkpt lat="39.763523717224" lon="3.105879265943">
        <ele>7.6</ele>
        <time>2014-05-03T16:13:05Z</time>
      </trkpt>
      <trkpt lat="39.763478957878" lon="3.105962079115">
        <ele>7.6</ele>
        <time>2014-05-03T16:13:06Z</time>
      </trkpt>
      <trkpt lat="39.763342668184" lon="3.106208255518">
        <ele>7.6</ele>
        <time>2014-05-03T16:13:09Z</time>
      </trkpt>
      <trkpt lat="39.763159188393" lon="3.106543699156">
        <ele>7.6</ele>
        <time>2014-05-03T16:13:13Z</time>
      </trkpt>
      <trkpt lat="39.763114764323" lon="3.10662802107">
        <ele>7.6</ele>
        <time>2014-05-03T16:13:14Z</time>
      </trkpt>
      <trkpt lat="39.762785104196" lon="3.107242162883">
        <ele>7.6</ele>
        <time>2014-05-03T16:13:21Z</time>
      </trkpt>
      <trkpt lat="39.762735483348" lon="3.107332268308">
        <ele>7.6</ele>
        <time>2014-05-03T16:13:22Z</time>
      </trkpt>
      <trkpt lat="39.76239668695" lon="3.107992845847">
        <ele>7.6</ele>
        <time>2014-05-03T16:13:29Z</time>
      </trkpt>
      <trkpt lat="39.762347066102" lon="3.108087477498">
        <ele>7.6</ele>
        <time>2014-05-03T16:13:30Z</time>
      </trkpt>
      <trkpt lat="39.761999636347" lon="3.108726765011">
        <ele>7.6</ele>
        <time>2014-05-03T16:13:37Z</time>
      </trkpt>
      <trkpt lat="39.761956469562" lon="3.108813517676">
        <ele>7</ele>
        <time>2014-05-03T16:13:38Z</time>
      </trkpt>
      <trkpt lat="39.761911961673" lon="3.108901024712">
        <ele>6.6</ele>
        <time>2014-05-03T16:13:39Z</time>
      </trkpt>
      <trkpt lat="39.761859993893" lon="3.108988867024">
        <ele>6</ele>
        <time>2014-05-03T16:13:40Z</time>
      </trkpt>
      <trkpt lat="39.761816827108" lon="3.109072099291">
        <ele>5.2</ele>
        <time>2014-05-03T16:13:41Z</time>
      </trkpt>
      <trkpt lat="39.761769469373" lon="3.10915516392">
        <ele>4.8</ele>
        <time>2014-05-03T16:13:42Z</time>
      </trkpt>
      <trkpt lat="39.761726218769" lon="3.109233786142">
        <ele>4.4</ele>
        <time>2014-05-03T16:13:43Z</time>
      </trkpt>
      <trkpt lat="39.761685482735" lon="3.109317186047">
        <ele>4</ele>
        <time>2014-05-03T16:13:44Z</time>
      </trkpt>
      <trkpt lat="39.761642064493" lon="3.109394467165">
        <ele>3.6</ele>
        <time>2014-05-03T16:13:45Z</time>
      </trkpt>
      <trkpt lat="39.761596802233" lon="3.109470742455">
        <ele>3.2</ele>
        <time>2014-05-03T16:13:46Z</time>
      </trkpt>
      <trkpt lat="39.761338639713" lon="3.109938536294">
        <ele>3.2</ele>
        <time>2014-05-03T16:13:52Z</time>
      </trkpt>
      <trkpt lat="39.761297652222" lon="3.110016907059">
        <ele>3.2</ele>
        <time>2014-05-03T16:13:53Z</time>
      </trkpt>
      <trkpt lat="39.761254066342" lon="3.110096786566">
        <ele>3.2</ele>
        <time>2014-05-03T16:13:54Z</time>
      </trkpt>
      <trkpt lat="39.761207462978" lon="3.11017607934">
        <ele>3.2</ele>
        <time>2014-05-03T16:13:55Z</time>
      </trkpt>
      <trkpt lat="39.76111928539" lon="3.110346902462">
        <ele>3.2</ele>
        <time>2014-05-03T16:13:57Z</time>
      </trkpt>
      <trkpt lat="39.761073687854" lon="3.110429380358">
        <ele>3.2</ele>
        <time>2014-05-03T16:13:58Z</time>
      </trkpt>
      <trkpt lat="39.760984839714" lon="3.110592743589">
        <ele>3.2</ele>
        <time>2014-05-03T16:14:00Z</time>
      </trkpt>
      <trkpt lat="39.760668422989" lon="3.111176794381">
        <ele>3.2</ele>
        <time>2014-05-03T16:14:07Z</time>
      </trkpt>
      <trkpt lat="39.760528193802" lon="3.111430346856">
        <ele>3.2</ele>
        <time>2014-05-03T16:14:10Z</time>
      </trkpt>
      <trkpt lat="39.760482512447" lon="3.111516261331">
        <ele>3.2</ele>
        <time>2014-05-03T16:14:11Z</time>
      </trkpt>
      <trkpt lat="39.760388970443" lon="3.111685156616">
        <ele>3.2</ele>
        <time>2014-05-03T16:14:13Z</time>
      </trkpt>
      <trkpt lat="39.760345552201" lon="3.111769394711">
        <ele>3.2</ele>
        <time>2014-05-03T16:14:14Z</time>
      </trkpt>
      <trkpt lat="39.760301379588" lon="3.111852124064">
        <ele>3.2</ele>
        <time>2014-05-03T16:14:15Z</time>
      </trkpt>
      <trkpt lat="39.760260727373" lon="3.111931919752">
        <ele>3.2</ele>
        <time>2014-05-03T16:14:16Z</time>
      </trkpt>
      <trkpt lat="39.760221248624" lon="3.112018756236">
        <ele>3.2</ele>
        <time>2014-05-03T16:14:17Z</time>
      </trkpt>
      <trkpt lat="39.760152600863" lon="3.112192932118">
        <ele>3.2</ele>
        <time>2014-05-03T16:14:19Z</time>
      </trkpt>
      <trkpt lat="39.760126281697" lon="3.112288653416">
        <ele>3.2</ele>
        <time>2014-05-03T16:14:20Z</time>
      </trkpt>
      <trkpt lat="39.760110020811" lon="3.112384123257">
        <ele>3.2</ele>
        <time>2014-05-03T16:14:21Z</time>
      </trkpt>
      <trkpt lat="39.760098789065" lon="3.112477078528">
        <ele>3.2</ele>
        <time>2014-05-03T16:14:22Z</time>
      </trkpt>
      <trkpt lat="39.760093257011" lon="3.112572045455">
        <ele>3.2</ele>
        <time>2014-05-03T16:14:23Z</time>
      </trkpt>
      <trkpt lat="39.760087389681" lon="3.112666928563">
        <ele>3.2</ele>
        <time>2014-05-03T16:14:24Z</time>
      </trkpt>
      <trkpt lat="39.760084204559" lon="3.112859460806">
        <ele>3.2</ele>
        <time>2014-05-03T16:14:26Z</time>
      </trkpt>
      <trkpt lat="39.76008412074" lon="3.112954008638">
        <ele>3.2</ele>
        <time>2014-05-03T16:14:27Z</time>
      </trkpt>
      <trkpt lat="39.760085461844" lon="3.113047131547">
        <ele>3.2</ele>
        <time>2014-05-03T16:14:28Z</time>
      </trkpt>
      <trkpt lat="39.76008579712" lon="3.113315519985">
        <ele>3.2</ele>
        <time>2014-05-03T16:14:31Z</time>
      </trkpt>
      <trkpt lat="39.76008579712" lon="3.113402691745">
        <ele>3.2</ele>
        <time>2014-05-03T16:14:32Z</time>
      </trkpt>
      <trkpt lat="39.760089485156" lon="3.113486426926">
        <ele>3.2</ele>
        <time>2014-05-03T16:14:33Z</time>
      </trkpt>
      <trkpt lat="39.760090323346" lon="3.113570329745">
        <ele>3.2</ele>
        <time>2014-05-03T16:14:34Z</time>
      </trkpt>
      <trkpt lat="39.760093089373" lon="3.113661776274">
        <ele>3.2</ele>
        <time>2014-05-03T16:14:35Z</time>
      </trkpt>
      <trkpt lat="39.760085629482" lon="3.113842909133">
        <ele>3.6</ele>
        <time>2014-05-03T16:14:37Z</time>
      </trkpt>
      <trkpt lat="39.760085713301" lon="3.113931254359">
        <ele>4</ele>
        <time>2014-05-03T16:14:38Z</time>
      </trkpt>
      <trkpt lat="39.760084875111" lon="3.114016246825">
        <ele>4.4</ele>
        <time>2014-05-03T16:14:39Z</time>
      </trkpt>
      <trkpt lat="39.760084707473" lon="3.114098305626">
        <ele>4.8</ele>
        <time>2014-05-03T16:14:40Z</time>
      </trkpt>
      <trkpt lat="39.760081773808" lon="3.114184723015">
        <ele>5.2</ele>
        <time>2014-05-03T16:14:41Z</time>
      </trkpt>
      <trkpt lat="39.760093592287" lon="3.114495523867">
        <ele>5.2</ele>
        <time>2014-05-03T16:14:45Z</time>
      </trkpt>
      <trkpt lat="39.760095687762" lon="3.11457070951">
        <ele>5.6</ele>
        <time>2014-05-03T16:14:46Z</time>
      </trkpt>
      <trkpt lat="39.760097447961" lon="3.114644218773">
        <ele>6</ele>
        <time>2014-05-03T16:14:47Z</time>
      </trkpt>
      <trkpt lat="39.760096609771" lon="3.114717308941">
        <ele>6.4</ele>
        <time>2014-05-03T16:14:48Z</time>
      </trkpt>
      <trkpt lat="39.760095687762" lon="3.11479366805">
        <ele>6.8</ele>
        <time>2014-05-03T16:14:49Z</time>
      </trkpt>
      <trkpt lat="39.76009753178" lon="3.11487245791">
        <ele>7.2</ele>
        <time>2014-05-03T16:14:50Z</time>
      </trkpt>
      <trkpt lat="39.760098872884" lon="3.115232460515">
        <ele>7.6</ele>
        <time>2014-05-03T16:14:55Z</time>
      </trkpt>
      <trkpt lat="39.760102309463" lon="3.115304041941">
        <ele>8</ele>
        <time>2014-05-03T16:14:56Z</time>
      </trkpt>
      <trkpt lat="39.760102393282" lon="3.115376293919">
        <ele>8.4</ele>
        <time>2014-05-03T16:14:57Z</time>
      </trkpt>
      <trkpt lat="39.760102309463" lon="3.115455754331">
        <ele>8.8</ele>
        <time>2014-05-03T16:14:58Z</time>
      </trkpt>
      <trkpt lat="39.760099962531" lon="3.115531107612">
        <ele>9.2</ele>
        <time>2014-05-03T16:14:59Z</time>
      </trkpt>
      <trkpt lat="39.760072805175" lon="3.116064950823">
        <ele>9.2</ele>
        <time>2014-05-03T16:15:06Z</time>
      </trkpt>
      <trkpt lat="39.760069703872" lon="3.116441633409">
        <ele>9.6</ele>
        <time>2014-05-03T16:15:11Z</time>
      </trkpt>
      <trkpt lat="39.760068111311" lon="3.116517908699">
        <ele>10</ele>
        <time>2014-05-03T16:15:12Z</time>
      </trkpt>
      <trkpt lat="39.760065429103" lon="3.116593094342">
        <ele>10.4</ele>
        <time>2014-05-03T16:15:13Z</time>
      </trkpt>
      <trkpt lat="39.760066686388" lon="3.116666100691">
        <ele>10.8</ele>
        <time>2014-05-03T16:15:14Z</time>
      </trkpt>
      <trkpt lat="39.760065932017" lon="3.116739023221">
        <ele>11.2</ele>
        <time>2014-05-03T16:15:15Z</time>
      </trkpt>
      <trkpt lat="39.760060567601" lon="3.117041945087">
        <ele>11.8</ele>
        <time>2014-05-03T16:15:19Z</time>
      </trkpt>
      <trkpt lat="39.760060567601" lon="3.11711796892">
        <ele>12.6</ele>
        <time>2014-05-03T16:15:20Z</time>
      </trkpt>
      <trkpt lat="39.760056125194" lon="3.117199608626">
        <ele>13</ele>
        <time>2014-05-03T16:15:21Z</time>
      </trkpt>
      <trkpt lat="39.760054616452" lon="3.117275883916">
        <ele>13.4</ele>
        <time>2014-05-03T16:15:22Z</time>
      </trkpt>
      <trkpt lat="39.760041037774" lon="3.1175974136">
        <ele>13.4</ele>
        <time>2014-05-03T16:15:26Z</time>
      </trkpt>
      <trkpt lat="39.760025698897" lon="3.118361926699">
        <ele>13.4</ele>
        <time>2014-05-03T16:15:35Z</time>
      </trkpt>
      <trkpt lat="39.760022765232" lon="3.118872719685">
        <ele>13.4</ele>
        <time>2014-05-03T16:15:41Z</time>
      </trkpt>
      <trkpt lat="39.760020166843" lon="3.119113866948">
        <ele>14.4</ele>
        <time>2014-05-03T16:15:44Z</time>
      </trkpt>
      <trkpt lat="39.760018574282" lon="3.119189304048">
        <ele>15</ele>
        <time>2014-05-03T16:15:45Z</time>
      </trkpt>
      <trkpt lat="39.760015556798" lon="3.11926708808">
        <ele>15.4</ele>
        <time>2014-05-03T16:15:46Z</time>
      </trkpt>
      <trkpt lat="39.760009773287" lon="3.119342776637">
        <ele>16</ele>
        <time>2014-05-03T16:15:47Z</time>
      </trkpt>
      <trkpt lat="39.760004408871" lon="3.119711664056">
        <ele>16.4</ele>
        <time>2014-05-03T16:15:52Z</time>
      </trkpt>
      <trkpt lat="39.759998709179" lon="3.119781485283">
        <ele>17</ele>
        <time>2014-05-03T16:15:53Z</time>
      </trkpt>
      <trkpt lat="39.759997703351" lon="3.11985298289">
        <ele>17.4</ele>
        <time>2014-05-03T16:15:54Z</time>
      </trkpt>
      <trkpt lat="39.759994685867" lon="3.119926995067">
        <ele>17.8</ele>
        <time>2014-05-03T16:15:55Z</time>
      </trkpt>
      <trkpt lat="39.759996194609" lon="3.120001091063">
        <ele>18.4</ele>
        <time>2014-05-03T16:15:56Z</time>
      </trkpt>
      <trkpt lat="39.760044390534" lon="3.120281884713">
        <ele>18.4</ele>
        <time>2014-05-03T16:16:00Z</time>
      </trkpt>
      <trkpt lat="39.7600623278" lon="3.120352627949">
        <ele>18.8</ele>
        <time>2014-05-03T16:16:01Z</time>
      </trkpt>
      <trkpt lat="39.760076744668" lon="3.120424879927">
        <ele>19.2</ele>
        <time>2014-05-03T16:16:02Z</time>
      </trkpt>
      <trkpt lat="39.760098034694" lon="3.120497970095">
        <ele>19.8</ele>
        <time>2014-05-03T16:16:03Z</time>
      </trkpt>
      <trkpt lat="39.760126365516" lon="3.12056125344">
        <ele>20.2</ele>
        <time>2014-05-03T16:16:04Z</time>
      </trkpt>
      <trkpt lat="39.760157294727" lon="3.12062160312">
        <ele>20.8</ele>
        <time>2014-05-03T16:16:05Z</time>
      </trkpt>
      <trkpt lat="39.760191911974" lon="3.120689999424">
        <ele>20.8</ele>
        <time>2014-05-03T16:16:06Z</time>
      </trkpt>
      <trkpt lat="39.760228205601" lon="3.120750349104">
        <ele>20.8</ele>
        <time>2014-05-03T16:16:07Z</time>
      </trkpt>
      <trkpt lat="39.76043699873" lon="3.121118733609">
        <ele>20.8</ele>
        <time>2014-05-03T16:16:13Z</time>
      </trkpt>
      <trkpt lat="39.760467005932" lon="3.121184363886">
        <ele>21.2</ele>
        <time>2014-05-03T16:16:14Z</time>
      </trkpt>
      <trkpt lat="39.760494163288" lon="3.121250161801">
        <ele>21.6</ele>
        <time>2014-05-03T16:16:15Z</time>
      </trkpt>
      <trkpt lat="39.76051830316" lon="3.121317552277">
        <ele>22.2</ele>
        <time>2014-05-03T16:16:16Z</time>
      </trkpt>
      <trkpt lat="39.760538000625" lon="3.121386702952">
        <ele>22.6</ele>
        <time>2014-05-03T16:16:17Z</time>
      </trkpt>
      <trkpt lat="39.760553171864" lon="3.121460212215">
        <ele>23</ele>
        <time>2014-05-03T16:16:18Z</time>
      </trkpt>
      <trkpt lat="39.760565409438" lon="3.121529865804">
        <ele>23</ele>
        <time>2014-05-03T16:16:19Z</time>
      </trkpt>
      <trkpt lat="39.760607905671" lon="3.121831362747">
        <ele>23.4</ele>
        <time>2014-05-03T16:16:23Z</time>
      </trkpt>
      <trkpt lat="39.760620143245" lon="3.121907051304">
        <ele>23.8</ele>
        <time>2014-05-03T16:16:24Z</time>
      </trkpt>
      <trkpt lat="39.760627519317" lon="3.121986008802">
        <ele>24.2</ele>
        <time>2014-05-03T16:16:25Z</time>
      </trkpt>
      <trkpt lat="39.760643444927" lon="3.122068402879">
        <ele>24.6</ele>
        <time>2014-05-03T16:16:26Z</time>
      </trkpt>
      <trkpt lat="39.760654592854" lon="3.12215381444">
        <ele>25</ele>
        <time>2014-05-03T16:16:27Z</time>
      </trkpt>
      <trkpt lat="39.760720055493" lon="3.12241952067">
        <ele>25</ele>
        <time>2014-05-03T16:16:30Z</time>
      </trkpt>
      <trkpt lat="39.760839246111" lon="3.122783127492">
        <ele>24.2</ele>
        <time>2014-05-03T16:16:34Z</time>
      </trkpt>
      <trkpt lat="39.76087034296" lon="3.122878345876">
        <ele>23.8</ele>
        <time>2014-05-03T16:16:35Z</time>
      </trkpt>
      <trkpt lat="39.76090219418" lon="3.122977336115">
        <ele>23.2</ele>
        <time>2014-05-03T16:16:36Z</time>
      </trkpt>
      <trkpt lat="39.760938487807" lon="3.123074230879">
        <ele>22.8</ele>
        <time>2014-05-03T16:16:37Z</time>
      </trkpt>
      <trkpt lat="39.760972434502" lon="3.123175232774">
        <ele>22.2</ele>
        <time>2014-05-03T16:16:38Z</time>
      </trkpt>
      <trkpt lat="39.761003531351" lon="3.123280006524">
        <ele>21.6</ele>
        <time>2014-05-03T16:16:39Z</time>
      </trkpt>
      <trkpt lat="39.761040327892" lon="3.123389138862">
        <ele>21.2</ele>
        <time>2014-05-03T16:16:40Z</time>
      </trkpt>
      <trkpt lat="39.761077292071" lon="3.123500618132">
        <ele>20.6</ele>
        <time>2014-05-03T16:16:41Z</time>
      </trkpt>
      <trkpt lat="39.761116267906" lon="3.123615282524">
        <ele>20.6</ele>
        <time>2014-05-03T16:16:42Z</time>
      </trkpt>
      <trkpt lat="39.76119807525" lon="3.123851233009">
        <ele>20.2</ele>
        <time>2014-05-03T16:16:44Z</time>
      </trkpt>
      <trkpt lat="39.761243672786" lon="3.123978805527">
        <ele>19.8</ele>
        <time>2014-05-03T16:16:45Z</time>
      </trkpt>
      <trkpt lat="39.761284157363" lon="3.124099923982">
        <ele>19.4</ele>
        <time>2014-05-03T16:16:46Z</time>
      </trkpt>
      <trkpt lat="39.761321037723" lon="3.12422498193">
        <ele>18.8</ele>
        <time>2014-05-03T16:16:47Z</time>
      </trkpt>
      <trkpt lat="39.761358672454" lon="3.124350375154">
        <ele>18</ele>
        <time>2014-05-03T16:16:48Z</time>
      </trkpt>
      <trkpt lat="39.761395217538" lon="3.124466967383">
        <ele>17</ele>
        <time>2014-05-03T16:16:49Z</time>
      </trkpt>
      <trkpt lat="39.761434193373" lon="3.124585235992">
        <ele>16.2</ele>
        <time>2014-05-03T16:16:50Z</time>
      </trkpt>
      <trkpt lat="39.761466715145" lon="3.124705348619">
        <ele>15.2</ele>
        <time>2014-05-03T16:16:51Z</time>
      </trkpt>
      <trkpt lat="39.761503344048" lon="3.124831160938">
        <ele>14.2</ele>
        <time>2014-05-03T16:16:52Z</time>
      </trkpt>
      <trkpt lat="39.761541565512" lon="3.124950267737">
        <ele>13.2</ele>
        <time>2014-05-03T16:16:53Z</time>
      </trkpt>
      <trkpt lat="39.761576685673" lon="3.125065099767">
        <ele>13.2</ele>
        <time>2014-05-03T16:16:54Z</time>
      </trkpt>
      <trkpt lat="39.761609458902" lon="3.125176243761">
        <ele>13.2</ele>
        <time>2014-05-03T16:16:55Z</time>
      </trkpt>
      <trkpt lat="39.761642567407" lon="3.125287723031">
        <ele>13.2</ele>
        <time>2014-05-03T16:16:56Z</time>
      </trkpt>
      <trkpt lat="39.761673915713" lon="3.125398364111">
        <ele>13.8</ele>
        <time>2014-05-03T16:16:57Z</time>
      </trkpt>
      <trkpt lat="39.76170266563" lon="3.125513699055">
        <ele>14.2</ele>
        <time>2014-05-03T16:16:58Z</time>
      </trkpt>
      <trkpt lat="39.76171859124" lon="3.125631967664">
        <ele>15</ele>
        <time>2014-05-03T16:16:59Z</time>
      </trkpt>
      <trkpt lat="39.761725715855" lon="3.1257613842">
        <ele>15.4</ele>
        <time>2014-05-03T16:17:00Z</time>
      </trkpt>
      <trkpt lat="39.761724374751" lon="3.125881077732">
        <ele>15.4</ele>
        <time>2014-05-03T16:17:01Z</time>
      </trkpt>
      <trkpt lat="39.761733175746" lon="3.126130690714">
        <ele>15.4</ele>
        <time>2014-05-03T16:17:03Z</time>
      </trkpt>
      <trkpt lat="39.761744491311" lon="3.126256419214">
        <ele>15.4</ele>
        <time>2014-05-03T16:17:04Z</time>
      </trkpt>
      <trkpt lat="39.761763937319" lon="3.126382231533">
        <ele>15.4</ele>
        <time>2014-05-03T16:17:05Z</time>
      </trkpt>
      <trkpt lat="39.761794950349" lon="3.126508127671">
        <ele>14.8</ele>
        <time>2014-05-03T16:17:06Z</time>
      </trkpt>
      <trkpt lat="39.761827807397" lon="3.126628575574">
        <ele>14.4</ele>
        <time>2014-05-03T16:17:07Z</time>
      </trkpt>
      <trkpt lat="39.761873572571" lon="3.126747682373">
        <ele>14</ele>
        <time>2014-05-03T16:17:08Z</time>
      </trkpt>
      <trkpt lat="39.761931994414" lon="3.126847846078">
        <ele>13.2</ele>
        <time>2014-05-03T16:17:09Z</time>
      </trkpt>
      <trkpt lat="39.761994020474" lon="3.126939208788">
        <ele>12.6</ele>
        <time>2014-05-03T16:17:10Z</time>
      </trkpt>
      <trkpt lat="39.762058980199" lon="3.127028643661">
        <ele>11.8</ele>
        <time>2014-05-03T16:17:11Z</time>
      </trkpt>
      <trkpt lat="39.762124694295" lon="3.127116485973">
        <ele>11.2</ele>
        <time>2014-05-03T16:17:12Z</time>
      </trkpt>
      <trkpt lat="39.762194180246" lon="3.127197287489">
        <ele>10.4</ele>
        <time>2014-05-03T16:17:13Z</time>
      </trkpt>
      <trkpt lat="39.762263163283" lon="3.127278843376">
        <ele>10.4</ele>
        <time>2014-05-03T16:17:14Z</time>
      </trkpt>
      <trkpt lat="39.76232711718" lon="3.127356208313">
        <ele>10.4</ele>
        <time>2014-05-03T16:17:15Z</time>
      </trkpt>
      <trkpt lat="39.762397273683" lon="3.127433070336">
        <ele>10.4</ele>
        <time>2014-05-03T16:17:16Z</time>
      </trkpt>
      <trkpt lat="39.76258695608" lon="3.127636666687">
        <ele>10.4</ele>
        <time>2014-05-03T16:17:19Z</time>
      </trkpt>
      <trkpt lat="39.762649568873" lon="3.127704057163">
        <ele>10.4</ele>
        <time>2014-05-03T16:17:20Z</time>
      </trkpt>
      <trkpt lat="39.763001608673" lon="3.128184842947">
        <ele>10.4</ele>
        <time>2014-05-03T16:17:26Z</time>
      </trkpt>
      <trkpt lat="39.763100515093" lon="3.128381985235">
        <ele>10.4</ele>
        <time>2014-05-03T16:17:28Z</time>
      </trkpt>
      <trkpt lat="39.763336130302" lon="3.128855730223">
        <ele>10.4</ele>
        <time>2014-05-03T16:17:33Z</time>
      </trkpt>
      <trkpt lat="39.763608290595" lon="3.129400302266">
        <ele>10.4</ele>
        <time>2014-05-03T16:17:39Z</time>
      </trkpt>
      <trkpt lat="39.763649445724" lon="3.129491832614">
        <ele>10.4</ele>
        <time>2014-05-03T16:17:40Z</time>
      </trkpt>
      <trkpt lat="39.763958318739" lon="3.13010572297">
        <ele>10.4</ele>
        <time>2014-05-03T16:17:47Z</time>
      </trkpt>
      <trkpt lat="39.764046915422" lon="3.130271433133">
        <ele>10.4</ele>
        <time>2014-05-03T16:17:49Z</time>
      </trkpt>
      <trkpt lat="39.764146324756" lon="3.13042758793">
        <ele>10.4</ele>
        <time>2014-05-03T16:17:51Z</time>
      </trkpt>
      <trkpt lat="39.764378419567" lon="3.130716260566">
        <ele>10.4</ele>
        <time>2014-05-03T16:17:55Z</time>
      </trkpt>
      <trkpt lat="39.764544465006" lon="3.130924550781">
        <ele>10.4</ele>
        <time>2014-05-03T16:17:58Z</time>
      </trkpt>
      <trkpt lat="39.764602048659" lon="3.130984229909">
        <ele>10.4</ele>
        <time>2014-05-03T16:17:59Z</time>
      </trkpt>
      <trkpt lat="39.764653262068" lon="3.131050614557">
        <ele>10.4</ele>
        <time>2014-05-03T16:18:00Z</time>
      </trkpt>
      <trkpt lat="39.764703888744" lon="3.131115322825">
        <ele>10.4</ele>
        <time>2014-05-03T16:18:01Z</time>
      </trkpt>
      <trkpt lat="39.76476792646" lon="3.131187407165">
        <ele>10.4</ele>
        <time>2014-05-03T16:18:02Z</time>
      </trkpt>
      <trkpt lat="39.764822744086" lon="3.131244906999">
        <ele>10.4</ele>
        <time>2014-05-03T16:18:03Z</time>
      </trkpt>
      <trkpt lat="39.764929529492" lon="3.131377089562">
        <ele>10.4</ele>
        <time>2014-05-03T16:18:05Z</time>
      </trkpt>
      <trkpt lat="39.764984263299" lon="3.131443390391">
        <ele>10.8</ele>
        <time>2014-05-03T16:18:06Z</time>
      </trkpt>
      <trkpt lat="39.765038913287" lon="3.131509439763">
        <ele>11.2</ele>
        <time>2014-05-03T16:18:07Z</time>
      </trkpt>
      <trkpt lat="39.765096664578" lon="3.131577919886">
        <ele>11.6</ele>
        <time>2014-05-03T16:18:08Z</time>
      </trkpt>
      <trkpt lat="39.765153996774" lon="3.131648244027">
        <ele>12</ele>
        <time>2014-05-03T16:18:09Z</time>
      </trkpt>
      <trkpt lat="39.765209065857" lon="3.131709515716">
        <ele>12.4</ele>
        <time>2014-05-03T16:18:10Z</time>
      </trkpt>
      <trkpt lat="39.765316186539" lon="3.131838094062">
        <ele>12.4</ele>
        <time>2014-05-03T16:18:12Z</time>
      </trkpt>
      <trkpt lat="39.765375027477" lon="3.131905568357">
        <ele>12</ele>
        <time>2014-05-03T16:18:13Z</time>
      </trkpt>
      <trkpt lat="39.765431856759" lon="3.131972791195">
        <ele>11.6</ele>
        <time>2014-05-03T16:18:14Z</time>
      </trkpt>
      <trkpt lat="39.765496145932" lon="3.132038672929">
        <ele>11</ele>
        <time>2014-05-03T16:18:15Z</time>
      </trkpt>
      <trkpt lat="39.765551382653" lon="3.13210983526">
        <ele>10.6</ele>
        <time>2014-05-03T16:18:16Z</time>
      </trkpt>
      <trkpt lat="39.765607038469" lon="3.1321819196">
        <ele>10.2</ele>
        <time>2014-05-03T16:18:17Z</time>
      </trkpt>
      <trkpt lat="39.765775095564" lon="3.132382749924">
        <ele>10.2</ele>
        <time>2014-05-03T16:18:20Z</time>
      </trkpt>
      <trkpt lat="39.765822788575" lon="3.132456678282">
        <ele>10.2</ele>
        <time>2014-05-03T16:18:21Z</time>
      </trkpt>
      <trkpt lat="39.76588188097" lon="3.132521805645">
        <ele>10.2</ele>
        <time>2014-05-03T16:18:22Z</time>
      </trkpt>
      <trkpt lat="39.765941224822" lon="3.132586681551">
        <ele>10.2</ele>
        <time>2014-05-03T16:18:23Z</time>
      </trkpt>
      <trkpt lat="39.766000568674" lon="3.132656167502">
        <ele>10.2</ele>
        <time>2014-05-03T16:18:24Z</time>
      </trkpt>
      <trkpt lat="39.766062510915" lon="3.132729760584">
        <ele>10.2</ele>
        <time>2014-05-03T16:18:25Z</time>
      </trkpt>
      <trkpt lat="39.766352692293" lon="3.133083392945">
        <ele>10.2</ele>
        <time>2014-05-03T16:18:30Z</time>
      </trkpt>
      <trkpt lat="39.766406084996" lon="3.133155477285">
        <ele>10.2</ele>
        <time>2014-05-03T16:18:31Z</time>
      </trkpt>
      <trkpt lat="39.766457549862" lon="3.13323133348">
        <ele>10.2</ele>
        <time>2014-05-03T16:18:32Z</time>
      </trkpt>
      <trkpt lat="39.766643711861" lon="3.133449095242">
        <ele>10.2</ele>
        <time>2014-05-03T16:18:35Z</time>
      </trkpt>
      <trkpt lat="39.766812607146" lon="3.133677082922">
        <ele>9.8</ele>
        <time>2014-05-03T16:18:38Z</time>
      </trkpt>
      <trkpt lat="39.766874214111" lon="3.133754196402">
        <ele>9.4</ele>
        <time>2014-05-03T16:18:39Z</time>
      </trkpt>
      <trkpt lat="39.766940850216" lon="3.133837931583">
        <ele>9</ele>
        <time>2014-05-03T16:18:40Z</time>
      </trkpt>
      <trkpt lat="39.76700505557" lon="3.13391781109">
        <ele>8.6</ele>
        <time>2014-05-03T16:18:41Z</time>
      </trkpt>
      <trkpt lat="39.767069680019" lon="3.133998528787">
        <ele>8</ele>
        <time>2014-05-03T16:18:42Z</time>
      </trkpt>
      <trkpt lat="39.76725986533" lon="3.1342522489">
        <ele>8</ele>
        <time>2014-05-03T16:18:45Z</time>
      </trkpt>
      <trkpt lat="39.767317616621" lon="3.134334559158">
        <ele>8</ele>
        <time>2014-05-03T16:18:46Z</time>
      </trkpt>
      <trkpt lat="39.767385090916" lon="3.134421898556">
        <ele>8</ele>
        <time>2014-05-03T16:18:47Z</time>
      </trkpt>
      <trkpt lat="39.767448709537" lon="3.134503538262">
        <ele>8</ele>
        <time>2014-05-03T16:18:48Z</time>
      </trkpt>
      <trkpt lat="39.76750964595" lon="3.134585261787">
        <ele>7.6</ele>
        <time>2014-05-03T16:18:49Z</time>
      </trkpt>
      <trkpt lat="39.76757083382" lon="3.134666063303">
        <ele>7.2</ele>
        <time>2014-05-03T16:18:50Z</time>
      </trkpt>
      <trkpt lat="39.767633362794" lon="3.134748205923">
        <ele>6.8</ele>
        <time>2014-05-03T16:18:51Z</time>
      </trkpt>
      <trkpt lat="39.767696646139" lon="3.13482473267">
        <ele>6.4</ele>
        <time>2014-05-03T16:18:52Z</time>
      </trkpt>
      <trkpt lat="39.767756660543" lon="3.134903438711">
        <ele>5.8</ele>
        <time>2014-05-03T16:18:53Z</time>
      </trkpt>
      <trkpt lat="39.767816842585" lon="3.134977367069">
        <ele>5.8</ele>
        <time>2014-05-03T16:18:54Z</time>
      </trkpt>
      <trkpt lat="39.767883813966" lon="3.135054899644">
        <ele>5.8</ele>
        <time>2014-05-03T16:18:55Z</time>
      </trkpt>
      <trkpt lat="39.76794299018" lon="3.135133857142">
        <ele>5.8</ele>
        <time>2014-05-03T16:18:56Z</time>
      </trkpt>
      <trkpt lat="39.76823719487" lon="3.135516407058">
        <ele>5.8</ele>
        <time>2014-05-03T16:19:01Z</time>
      </trkpt>
      <trkpt lat="39.768402653576" lon="3.135763589289">
        <ele>5.8</ele>
        <time>2014-05-03T16:19:04Z</time>
      </trkpt>
      <trkpt lat="39.768462500342" lon="3.13583726619">
        <ele>5.8</ele>
        <time>2014-05-03T16:19:05Z</time>
      </trkpt>
      <trkpt lat="39.768521592737" lon="3.135911781281">
        <ele>5.8</ele>
        <time>2014-05-03T16:19:06Z</time>
      </trkpt>
      <trkpt lat="39.768762404724" lon="3.136219564649">
        <ele>5.8</ele>
        <time>2014-05-03T16:19:10Z</time>
      </trkpt>
      <trkpt lat="39.768820826567" lon="3.136298522147">
        <ele>5.8</ele>
        <time>2014-05-03T16:19:11Z</time>
      </trkpt>
      <trkpt lat="39.769089717919" lon="3.13667377981">
        <ele>5.8</ele>
        <time>2014-05-03T16:19:16Z</time>
      </trkpt>
      <trkpt lat="39.76914579283" lon="3.136745109779">
        <ele>5.8</ele>
        <time>2014-05-03T16:19:17Z</time>
      </trkpt>
      <trkpt lat="39.769413929811" lon="3.137094215914">
        <ele>6.2</ele>
        <time>2014-05-03T16:19:22Z</time>
      </trkpt>
      <trkpt lat="39.769466735781" lon="3.137159594734">
        <ele>6.8</ele>
        <time>2014-05-03T16:19:23Z</time>
      </trkpt>
      <trkpt lat="39.769516943362" lon="3.137226566115">
        <ele>7.2</ele>
        <time>2014-05-03T16:19:24Z</time>
      </trkpt>
      <trkpt lat="39.769565223106" lon="3.137294962419">
        <ele>7.6</ele>
        <time>2014-05-03T16:19:25Z</time>
      </trkpt>
      <trkpt lat="39.769616687972" lon="3.137368890777">
        <ele>8</ele>
        <time>2014-05-03T16:19:26Z</time>
      </trkpt>
      <trkpt lat="39.769662285508" lon="3.137436951805">
        <ele>8</ele>
        <time>2014-05-03T16:19:27Z</time>
      </trkpt>
      <trkpt lat="39.769744679585" lon="3.137572068033">
        <ele>8</ele>
        <time>2014-05-03T16:19:29Z</time>
      </trkpt>
      <trkpt lat="39.769783320144" lon="3.1376469184">
        <ele>8.4</ele>
        <time>2014-05-03T16:19:30Z</time>
      </trkpt>
      <trkpt lat="39.769823972359" lon="3.137719673292">
        <ele>8.8</ele>
        <time>2014-05-03T16:19:31Z</time>
      </trkpt>
      <trkpt lat="39.769862612918" lon="3.137792009089">
        <ele>9.4</ele>
        <time>2014-05-03T16:19:32Z</time>
      </trkpt>
      <trkpt lat="39.769897816898" lon="3.1378732297">
        <ele>9.8</ele>
        <time>2014-05-03T16:19:33Z</time>
      </trkpt>
      <trkpt lat="39.769938469113" lon="3.137950846094">
        <ele>10.2</ele>
        <time>2014-05-03T16:19:34Z</time>
      </trkpt>
      <trkpt lat="39.770057492093" lon="3.138200878171">
        <ele>10.2</ele>
        <time>2014-05-03T16:19:37Z</time>
      </trkpt>
      <trkpt lat="39.770099736869" lon="3.13829316289">
        <ele>10.2</ele>
        <time>2014-05-03T16:19:38Z</time>
      </trkpt>
      <trkpt lat="39.770342476693" lon="3.138853241448">
        <ele>10.2</ele>
        <time>2014-05-03T16:19:44Z</time>
      </trkpt>
      <trkpt lat="39.770386984582" lon="3.138946699633">
        <ele>10.2</ele>
        <time>2014-05-03T16:19:45Z</time>
      </trkpt>
      <trkpt lat="39.770422272381" lon="3.139048707356">
        <ele>10.2</ele>
        <time>2014-05-03T16:19:46Z</time>
      </trkpt>
      <trkpt lat="39.770455213248" lon="3.139153564925">
        <ele>9.8</ele>
        <time>2014-05-03T16:19:47Z</time>
      </trkpt>
      <trkpt lat="39.770486645373" lon="3.139266972032">
        <ele>9.4</ele>
        <time>2014-05-03T16:19:48Z</time>
      </trkpt>
      <trkpt lat="39.770515060014" lon="3.139374595628">
        <ele>9</ele>
        <time>2014-05-03T16:19:49Z</time>
      </trkpt>
      <trkpt lat="39.770532662004" lon="3.139483979423">
        <ele>8.6</ele>
        <time>2014-05-03T16:19:50Z</time>
      </trkpt>
      <trkpt lat="39.770552946202" lon="3.139594955779">
        <ele>8.2</ele>
        <time>2014-05-03T16:19:51Z</time>
      </trkpt>
      <trkpt lat="39.770571973115" lon="3.139705261583">
        <ele>7.4</ele>
        <time>2014-05-03T16:19:52Z</time>
      </trkpt>
      <trkpt lat="39.770584294508" lon="3.139817076129">
        <ele>7</ele>
        <time>2014-05-03T16:19:53Z</time>
      </trkpt>
      <trkpt lat="39.770599717204" lon="3.139925873191">
        <ele>6.6</ele>
        <time>2014-05-03T16:19:54Z</time>
      </trkpt>
      <trkpt lat="39.770618073565" lon="3.140040537583">
        <ele>6.2</ele>
        <time>2014-05-03T16:19:55Z</time>
      </trkpt>
      <trkpt lat="39.770646823482" lon="3.140260813915">
        <ele>6.2</ele>
        <time>2014-05-03T16:19:57Z</time>
      </trkpt>
      <trkpt lat="39.770662749092" lon="3.140367180226">
        <ele>6.2</ele>
        <time>2014-05-03T16:19:58Z</time>
      </trkpt>
      <trkpt lat="39.770684793489" lon="3.140566250351">
        <ele>6.2</ele>
        <time>2014-05-03T16:20:00Z</time>
      </trkpt>
      <trkpt lat="39.77068387148" lon="3.14067026973">
        <ele>6.2</ele>
        <time>2014-05-03T16:20:01Z</time>
      </trkpt>
      <trkpt lat="39.770670963354" lon="3.140768673236">
        <ele>6.2</ele>
        <time>2014-05-03T16:20:02Z</time>
      </trkpt>
      <trkpt lat="39.770654199554" lon="3.140873363167">
        <ele>6.2</ele>
        <time>2014-05-03T16:20:03Z</time>
      </trkpt>
      <trkpt lat="39.770722679677" lon="3.141181062716">
        <ele>5.8</ele>
        <time>2014-05-03T16:20:06Z</time>
      </trkpt>
      <trkpt lat="39.770772887258" lon="3.14124526807">
        <ele>5.2</ele>
        <time>2014-05-03T16:20:07Z</time>
      </trkpt>
      <trkpt lat="39.770842457028" lon="3.14127963386">
        <ele>4.8</ele>
        <time>2014-05-03T16:20:08Z</time>
      </trkpt>
      <trkpt lat="39.770906913839" lon="3.141332356011">
        <ele>4.4</ele>
        <time>2014-05-03T16:20:09Z</time>
      </trkpt>
      <trkpt lat="39.770954858307" lon="3.141406619645">
        <ele>4</ele>
        <time>2014-05-03T16:20:10Z</time>
      </trkpt>
      <trkpt lat="39.771030546864" lon="3.141566965392">
        <ele>4</ele>
        <time>2014-05-03T16:20:12Z</time>
      </trkpt>
      <trkpt lat="39.771084191024" lon="3.14169369972">
        <ele>4</ele>
        <time>2014-05-03T16:20:14Z</time>
      </trkpt>
      <trkpt lat="39.771097602064" lon="3.141723287827">
        <ele>4</ele>
        <time>2014-05-03T16:20:15Z</time>
      </trkpt>
      <trkpt lat="39.771112521846" lon="3.141742733835">
        <ele>4</ele>
        <time>2014-05-03T16:20:16Z</time>
      </trkpt>
      <trkpt lat="39.771122999221" lon="3.14175907854">
        <ele>4</ele>
        <time>2014-05-03T16:20:17Z</time>
      </trkpt>
      <trkpt lat="39.771139260107" lon="3.141776931987">
        <ele>4</ele>
        <time>2014-05-03T16:20:18Z</time>
      </trkpt>
      <trkpt lat="39.771145378894" lon="3.141791265036">
        <ele>4</ele>
        <time>2014-05-03T16:20:19Z</time>
      </trkpt>
      <trkpt lat="39.771169351128" lon="3.141822110428">
        <ele>4</ele>
        <time>2014-05-03T16:20:21Z</time>
      </trkpt>
      <trkpt lat="39.771196508484" lon="3.141864522842">
        <ele>4</ele>
        <time>2014-05-03T16:20:23Z</time>
      </trkpt>
      <trkpt lat="39.771211176809" lon="3.141902073754">
        <ele>4</ele>
        <time>2014-05-03T16:20:24Z</time>
      </trkpt>
      <trkpt lat="39.771249146816" lon="3.141967117298">
        <ele>4</ele>
        <time>2014-05-03T16:20:26Z</time>
      </trkpt>
      <trkpt lat="39.771267922272" lon="3.142048673185">
        <ele>4</ele>
        <time>2014-05-03T16:20:29Z</time>
      </trkpt>
      <trkpt lat="39.771273538145" lon="3.142066945727">
        <ele>4</ele>
        <time>2014-05-03T16:20:31Z</time>
      </trkpt>
      <trkpt lat="39.771286949185" lon="3.142091085599">
        <ele>4</ele>
        <time>2014-05-03T16:20:33Z</time>
      </trkpt>
      <trkpt lat="39.771291894506" lon="3.142135509669">
        <ele>4</ele>
        <time>2014-05-03T16:20:35Z</time>
      </trkpt>
      <trkpt lat="39.771295079628" lon="3.142174317866">
        <ele>4</ele>
        <time>2014-05-03T16:20:36Z</time>
      </trkpt>
      <trkpt lat="39.771313519808" lon="3.142294933407">
        <ele>4</ele>
        <time>2014-05-03T16:20:38Z</time>
      </trkpt>
      <trkpt lat="39.771335899481" lon="3.142355366906">
        <ele>4</ele>
        <time>2014-05-03T16:20:39Z</time>
      </trkpt>
      <trkpt lat="39.771435644091" lon="3.142486795098">
        <ele>3.6</ele>
        <time>2014-05-03T16:20:42Z</time>
      </trkpt>
      <trkpt lat="39.771477553591" lon="3.142476317723">
        <ele>3</ele>
        <time>2014-05-03T16:20:43Z</time>
      </trkpt>
      <trkpt lat="39.771518960177" lon="3.142416554776">
        <ele>2.6</ele>
        <time>2014-05-03T16:20:44Z</time>
      </trkpt>
      <trkpt lat="39.771547458637" lon="3.142353774345">
        <ele>2.2</ele>
        <time>2014-05-03T16:20:45Z</time>
      </trkpt>
      <trkpt lat="39.771564557713" lon="3.142288227887">
        <ele>1.8</ele>
        <time>2014-05-03T16:20:46Z</time>
      </trkpt>
      <trkpt lat="39.771669163825" lon="3.14208010531">
        <ele>1.8</ele>
        <time>2014-05-03T16:20:49Z</time>
      </trkpt>
      <trkpt lat="39.771851134874" lon="3.141903582496">
        <ele>1.8</ele>
        <time>2014-05-03T16:20:53Z</time>
      </trkpt>
      <trkpt lat="39.772137795854" lon="3.141612814385">
        <ele>1.8</ele>
        <time>2014-05-03T16:20:59Z</time>
      </trkpt>
      <trkpt lat="39.77218339339" lon="3.141562271528">
        <ele>1.8</ele>
        <time>2014-05-03T16:21:00Z</time>
      </trkpt>
      <trkpt lat="39.772445914498" lon="3.14129220671">
        <ele>2.2</ele>
        <time>2014-05-03T16:21:05Z</time>
      </trkpt>
      <trkpt lat="39.772498217554" lon="3.141238897826">
        <ele>3</ele>
        <time>2014-05-03T16:21:06Z</time>
      </trkpt>
      <trkpt lat="39.772552280809" lon="3.141184331657">
        <ele>3.6</ele>
        <time>2014-05-03T16:21:07Z</time>
      </trkpt>
      <trkpt lat="39.772604835322" lon="3.141129849307">
        <ele>4</ele>
        <time>2014-05-03T16:21:08Z</time>
      </trkpt>
      <trkpt lat="39.772783621249" lon="3.140940334548">
        <ele>4</ele>
        <time>2014-05-03T16:21:10Z</time>
      </trkpt>
      <trkpt lat="39.772837768323" lon="3.140877637936">
        <ele>4</ele>
        <time>2014-05-03T16:21:12Z</time>
      </trkpt>
      <trkpt lat="39.772943044987" lon="3.140762051535">
        <ele>4</ele>
        <time>2014-05-03T16:21:14Z</time>
      </trkpt>
      <trkpt lat="39.772996270052" lon="3.14069625362">
        <ele>4</ele>
        <time>2014-05-03T16:21:15Z</time>
      </trkpt>
      <trkpt lat="39.773105821485" lon="3.140569519292">
        <ele>3.6</ele>
        <time>2014-05-03T16:21:17Z</time>
      </trkpt>
      <trkpt lat="39.773166925536" lon="3.140494585106">
        <ele>3.2</ele>
        <time>2014-05-03T16:21:18Z</time>
      </trkpt>
      <trkpt lat="39.773221407886" lon="3.140428954829">
        <ele>2.8</ele>
        <time>2014-05-03T16:21:19Z</time>
      </trkpt>
      <trkpt lat="39.773274549132" lon="3.140362318724">
        <ele>2.4</ele>
        <time>2014-05-03T16:21:20Z</time>
      </trkpt>
      <trkpt lat="39.773327941835" lon="3.140293587144">
        <ele>2</ele>
        <time>2014-05-03T16:21:21Z</time>
      </trkpt>
      <trkpt lat="39.773380831624" lon="3.140224185012">
        <ele>2</ele>
        <time>2014-05-03T16:21:22Z</time>
      </trkpt>
      <trkpt lat="39.773432464128" lon="3.140154531423">
        <ele>2</ele>
        <time>2014-05-03T16:21:23Z</time>
      </trkpt>
      <trkpt lat="39.773584176518" lon="3.139953533461">
        <ele>2</ele>
        <time>2014-05-03T16:21:26Z</time>
      </trkpt>
      <trkpt lat="39.773747623568" lon="3.139742896314">
        <ele>2</ele>
        <time>2014-05-03T16:21:29Z</time>
      </trkpt>
      <trkpt lat="39.773800429538" lon="3.139677768951">
        <ele>2</ele>
        <time>2014-05-03T16:21:30Z</time>
      </trkpt>
      <trkpt lat="39.773851978223" lon="3.139615575253">
        <ele>2</ele>
        <time>2014-05-03T16:21:31Z</time>
      </trkpt>
      <trkpt lat="39.773902604899" lon="3.139552711003">
        <ele>2</ele>
        <time>2014-05-03T16:21:32Z</time>
      </trkpt>
      <trkpt lat="39.774053562918" lon="3.139350623394">
        <ele>2.4</ele>
        <time>2014-05-03T16:21:35Z</time>
      </trkpt>
      <trkpt lat="39.774105949793" lon="3.139274096647">
        <ele>2.8</ele>
        <time>2014-05-03T16:21:36Z</time>
      </trkpt>
      <trkpt lat="39.774158671944" lon="3.139204359239">
        <ele>3.2</ele>
        <time>2014-05-03T16:21:37Z</time>
      </trkpt>
      <trkpt lat="39.774211310276" lon="3.139134454193">
        <ele>3.6</ele>
        <time>2014-05-03T16:21:38Z</time>
      </trkpt>
      <trkpt lat="39.774265792626" lon="3.13906513588">
        <ele>4</ele>
        <time>2014-05-03T16:21:39Z</time>
      </trkpt>
      <trkpt lat="39.774372494213" lon="3.138930271109">
        <ele>4</ele>
        <time>2014-05-03T16:21:41Z</time>
      </trkpt>
      <trkpt lat="39.774640463556" lon="3.138566077554">
        <ele>4</ele>
        <time>2014-05-03T16:21:46Z</time>
      </trkpt>
      <trkpt lat="39.774693940078" lon="3.138491311006">
        <ele>4</ele>
        <time>2014-05-03T16:21:47Z</time>
      </trkpt>
      <trkpt lat="39.774747500419" lon="3.138415706268">
        <ele>4</ele>
        <time>2014-05-03T16:21:48Z</time>
      </trkpt>
      <trkpt lat="39.774857806223" lon="3.138278997479">
        <ele>4</ele>
        <time>2014-05-03T16:21:50Z</time>
      </trkpt>
      <trkpt lat="39.775024270757" lon="3.13805427874">
        <ele>4</ele>
        <time>2014-05-03T16:21:53Z</time>
      </trkpt>
      <trkpt lat="39.775132481086" lon="3.137908852775">
        <ele>4</ele>
        <time>2014-05-03T16:21:55Z</time>
      </trkpt>
      <trkpt lat="39.775186544341" lon="3.137833415675">
        <ele>4</ele>
        <time>2014-05-03T16:21:56Z</time>
      </trkpt>
      <trkpt lat="39.775240188501" lon="3.137761163697">
        <ele>4</ele>
        <time>2014-05-03T16:21:57Z</time>
      </trkpt>
      <trkpt lat="39.775294587032" lon="3.137686816244">
        <ele>4</ele>
        <time>2014-05-03T16:21:58Z</time>
      </trkpt>
      <trkpt lat="39.775464152869" lon="3.137470144129">
        <ele>4</ele>
        <time>2014-05-03T16:22:01Z</time>
      </trkpt>
      <trkpt lat="39.775517629391" lon="3.137401580187">
        <ele>4</ele>
        <time>2014-05-03T16:22:02Z</time>
      </trkpt>
      <trkpt lat="39.775570267723" lon="3.137334357349">
        <ele>4</ele>
        <time>2014-05-03T16:22:03Z</time>
      </trkpt>
      <trkpt lat="39.775623241331" lon="3.137266128683">
        <ele>3.4</ele>
        <time>2014-05-03T16:22:04Z</time>
      </trkpt>
      <trkpt lat="39.775674790016" lon="3.137200666044">
        <ele>3</ele>
        <time>2014-05-03T16:22:05Z</time>
      </trkpt>
      <trkpt lat="39.775729104728" lon="3.137131515369">
        <ele>2.6</ele>
        <time>2014-05-03T16:22:06Z</time>
      </trkpt>
      <trkpt lat="39.775781323965" lon="3.137056078269">
        <ele>2</ele>
        <time>2014-05-03T16:22:07Z</time>
      </trkpt>
      <trkpt lat="39.775831280089" lon="3.136979132427">
        <ele>1.6</ele>
        <time>2014-05-03T16:22:08Z</time>
      </trkpt>
      <trkpt lat="39.775938736047" lon="3.136831443349">
        <ele>1.6</ele>
        <time>2014-05-03T16:22:10Z</time>
      </trkpt>
      <trkpt lat="39.775993721311" lon="3.136759778104">
        <ele>1.6</ele>
        <time>2014-05-03T16:22:11Z</time>
      </trkpt>
      <trkpt lat="39.776148618823" lon="3.13654637493">
        <ele>1.6</ele>
        <time>2014-05-03T16:22:14Z</time>
      </trkpt>
      <trkpt lat="39.776258086437" lon="3.136389717219">
        <ele>1.6</ele>
        <time>2014-05-03T16:22:16Z</time>
      </trkpt>
      <trkpt lat="39.776371577363" lon="3.136240603218">
        <ele>1.6</ele>
        <time>2014-05-03T16:22:18Z</time>
      </trkpt>
      <trkpt lat="39.776735351823" lon="3.135779347261">
        <ele>1.6</ele>
        <time>2014-05-03T16:22:24Z</time>
      </trkpt>
      <trkpt lat="39.777130306951" lon="3.135245587869">
        <ele>1.6</ele>
        <time>2014-05-03T16:22:31Z</time>
      </trkpt>
      <trkpt lat="39.777297944951" lon="3.135028664297">
        <ele>2</ele>
        <time>2014-05-03T16:22:34Z</time>
      </trkpt>
      <trkpt lat="39.777352762577" lon="3.134960184174">
        <ele>2.4</ele>
        <time>2014-05-03T16:22:35Z</time>
      </trkpt>
      <trkpt lat="39.777406071461" lon="3.134889692395">
        <ele>2.8</ele>
        <time>2014-05-03T16:22:36Z</time>
      </trkpt>
      <trkpt lat="39.777459045069" lon="3.134820457901">
        <ele>3.2</ele>
        <time>2014-05-03T16:22:37Z</time>
      </trkpt>
      <trkpt lat="39.777510509935" lon="3.134754995262">
        <ele>3.6</ele>
        <time>2014-05-03T16:22:38Z</time>
      </trkpt>
      <trkpt lat="39.777610841278" lon="3.134618621749">
        <ele>3.2</ele>
        <time>2014-05-03T16:22:40Z</time>
      </trkpt>
      <trkpt lat="39.777661467954" lon="3.134550141626">
        <ele>2.8</ele>
        <time>2014-05-03T16:22:41Z</time>
      </trkpt>
      <trkpt lat="39.77771041825" lon="3.134483505521">
        <ele>2.4</ele>
        <time>2014-05-03T16:22:42Z</time>
      </trkpt>
      <trkpt lat="39.777759200908" lon="3.134419970719">
        <ele>2</ele>
        <time>2014-05-03T16:22:43Z</time>
      </trkpt>
      <trkpt lat="39.777808067385" lon="3.134358279935">
        <ele>1.6</ele>
        <time>2014-05-03T16:22:44Z</time>
      </trkpt>
      <trkpt lat="39.777857185319" lon="3.134294326038">
        <ele>1.6</ele>
        <time>2014-05-03T16:22:45Z</time>
      </trkpt>
      <trkpt lat="39.777905213606" lon="3.134232216159">
        <ele>1.6</ele>
        <time>2014-05-03T16:22:46Z</time>
      </trkpt>
      <trkpt lat="39.777954499178" lon="3.134173542859">
        <ele>1.6</ele>
        <time>2014-05-03T16:22:47Z</time>
      </trkpt>
      <trkpt lat="39.778005796406" lon="3.134113025541">
        <ele>1.6</ele>
        <time>2014-05-03T16:22:48Z</time>
      </trkpt>
      <trkpt lat="39.778056925996" lon="3.134047814359">
        <ele>1.6</ele>
        <time>2014-05-03T16:22:49Z</time>
      </trkpt>
      <trkpt lat="39.778110821613" lon="3.13398738086">
        <ele>1.6</ele>
        <time>2014-05-03T16:22:50Z</time>
      </trkpt>
      <trkpt lat="39.778165890696" lon="3.133925941533">
        <ele>1.6</ele>
        <time>2014-05-03T16:22:51Z</time>
      </trkpt>
      <trkpt lat="39.778217942295" lon="3.13386500512">
        <ele>1.6</ele>
        <time>2014-05-03T16:22:52Z</time>
      </trkpt>
      <trkpt lat="39.778270077713" lon="3.133804990716">
        <ele>1.6</ele>
        <time>2014-05-03T16:22:53Z</time>
      </trkpt>
      <trkpt lat="39.778326152624" lon="3.133752520022">
        <ele>1.6</ele>
        <time>2014-05-03T16:22:54Z</time>
      </trkpt>
      <trkpt lat="39.778382814268" lon="3.133700971337">
        <ele>1.6</ele>
        <time>2014-05-03T16:22:55Z</time>
      </trkpt>
      <trkpt lat="39.778436877523" lon="3.133646069892">
        <ele>1.6</ele>
        <time>2014-05-03T16:22:56Z</time>
      </trkpt>
      <trkpt lat="39.778856559256" lon="3.133181293537">
        <ele>1.6</ele>
        <time>2014-05-03T16:23:04Z</time>
      </trkpt>
      <trkpt lat="39.778958902255" lon="3.133060845634">
        <ele>1.6</ele>
        <time>2014-05-03T16:23:06Z</time>
      </trkpt>
      <trkpt lat="39.779065855299" lon="3.132943415215">
        <ele>1.6</ele>
        <time>2014-05-03T16:23:08Z</time>
      </trkpt>
      <trkpt lat="39.779172975981" lon="3.13282564952">
        <ele>1.6</ele>
        <time>2014-05-03T16:23:10Z</time>
      </trkpt>
      <trkpt lat="39.779494757122" lon="3.132481572525">
        <ele>1.6</ele>
        <time>2014-05-03T16:23:16Z</time>
      </trkpt>
      <trkpt lat="39.779723247716" lon="3.132236737226">
        <ele>1.6</ele>
        <time>2014-05-03T16:23:20Z</time>
      </trkpt>
      <trkpt lat="39.779781418102" lon="3.132169849664">
        <ele>1.6</ele>
        <time>2014-05-03T16:23:21Z</time>
      </trkpt>
      <trkpt lat="39.779843863257" lon="3.132103800292">
        <ele>1.6</ele>
        <time>2014-05-03T16:23:22Z</time>
      </trkpt>
      <trkpt lat="39.779902955652" lon="3.132043450612">
        <ele>1.6</ele>
        <time>2014-05-03T16:23:23Z</time>
      </trkpt>
      <trkpt lat="39.779960706943" lon="3.131982933294">
        <ele>1.6</ele>
        <time>2014-05-03T16:23:24Z</time>
      </trkpt>
      <trkpt lat="39.780189029899" lon="3.131727704439">
        <ele>1.6</ele>
        <time>2014-05-03T16:23:28Z</time>
      </trkpt>
      <trkpt lat="39.780247954656" lon="3.131667690035">
        <ele>1.6</ele>
        <time>2014-05-03T16:23:29Z</time>
      </trkpt>
      <trkpt lat="39.780612818763" lon="3.131304753765">
        <ele>1.6</ele>
        <time>2014-05-03T16:23:35Z</time>
      </trkpt>
      <trkpt lat="39.781038200188" lon="3.130889179163">
        <ele>1.6</ele>
        <time>2014-05-03T16:23:42Z</time>
      </trkpt>
      <trkpt lat="39.781099639515" lon="3.130833104252">
        <ele>1.6</ele>
        <time>2014-05-03T16:23:43Z</time>
      </trkpt>
      <trkpt lat="39.781158145177" lon="3.130777029341">
        <ele>1.6</ele>
        <time>2014-05-03T16:23:44Z</time>
      </trkpt>
      <trkpt lat="39.781449164745" lon="3.130461199349">
        <ele>1.6</ele>
        <time>2014-05-03T16:23:49Z</time>
      </trkpt>
      <trkpt lat="39.781634153278" lon="3.13028593382">
        <ele>2</ele>
        <time>2014-05-03T16:23:52Z</time>
      </trkpt>
      <trkpt lat="39.781696514614" lon="3.130229104538">
        <ele>2.4</ele>
        <time>2014-05-03T16:23:53Z</time>
      </trkpt>
      <trkpt lat="39.781760803787" lon="3.130170515057">
        <ele>3</ele>
        <time>2014-05-03T16:23:54Z</time>
      </trkpt>
      <trkpt lat="39.781820231458" lon="3.130113099042">
        <ele>3.4</ele>
        <time>2014-05-03T16:23:55Z</time>
      </trkpt>
      <trkpt lat="39.781879072396" lon="3.130055347751">
        <ele>4</ele>
        <time>2014-05-03T16:23:56Z</time>
      </trkpt>
      <trkpt lat="39.781937745696" lon="3.129998853745">
        <ele>4</ele>
        <time>2014-05-03T16:23:57Z</time>
      </trkpt>
      <trkpt lat="39.782058277418" lon="3.129887374475">
        <ele>4</ele>
        <time>2014-05-03T16:23:59Z</time>
      </trkpt>
      <trkpt lat="39.782120303478" lon="3.129832221573">
        <ele>4</ele>
        <time>2014-05-03T16:24:00Z</time>
      </trkpt>
      <trkpt lat="39.782181658986" lon="3.129779164146">
        <ele>4</ele>
        <time>2014-05-03T16:24:01Z</time>
      </trkpt>
      <trkpt lat="39.782311326979" lon="3.129676653509">
        <ele>4</ele>
        <time>2014-05-03T16:24:03Z</time>
      </trkpt>
      <trkpt lat="39.782447281397" lon="3.129584955523">
        <ele>4</ele>
        <time>2014-05-03T16:24:05Z</time>
      </trkpt>
      <trkpt lat="39.782508888362" lon="3.129541872557">
        <ele>4</ele>
        <time>2014-05-03T16:24:06Z</time>
      </trkpt>
      <trkpt lat="39.782635287414" lon="3.129444726336">
        <ele>4</ele>
        <time>2014-05-03T16:24:08Z</time>
      </trkpt>
      <trkpt lat="39.782767553796" lon="3.129354453273">
        <ele>4</ele>
        <time>2014-05-03T16:24:10Z</time>
      </trkpt>
      <trkpt lat="39.782830753322" lon="3.129309107194">
        <ele>4</ele>
        <time>2014-05-03T16:24:11Z</time>
      </trkpt>
      <trkpt lat="39.78289546159" lon="3.129267616789">
        <ele>3.4</ele>
        <time>2014-05-03T16:24:12Z</time>
      </trkpt>
      <trkpt lat="39.782958828754" lon="3.129223276538">
        <ele>2.8</ele>
        <time>2014-05-03T16:24:13Z</time>
      </trkpt>
      <trkpt lat="39.783020938633" lon="3.12917784664">
        <ele>2.4</ele>
        <time>2014-05-03T16:24:14Z</time>
      </trkpt>
      <trkpt lat="39.783082964693" lon="3.129133674027">
        <ele>2.6</ele>
        <time>2014-05-03T16:24:15Z</time>
      </trkpt>
      <trkpt lat="39.783143901106" lon="3.129087238301">
        <ele>2.8</ele>
        <time>2014-05-03T16:24:16Z</time>
      </trkpt>
      <trkpt lat="39.783208274098" lon="3.129037952729">
        <ele>3</ele>
        <time>2014-05-03T16:24:17Z</time>
      </trkpt>
      <trkpt lat="39.783272395633" lon="3.128996043229">
        <ele>3.2</ele>
        <time>2014-05-03T16:24:18Z</time>
      </trkpt>
      <trkpt lat="39.783335846616" lon="3.128951786797">
        <ele>3.6</ele>
        <time>2014-05-03T16:24:19Z</time>
      </trkpt>
      <trkpt lat="39.783463502953" lon="3.128862771019">
        <ele>3.6</ele>
        <time>2014-05-03T16:24:21Z</time>
      </trkpt>
      <trkpt lat="39.783590740195" lon="3.128775850716">
        <ele>3.6</ele>
        <time>2014-05-03T16:24:23Z</time>
      </trkpt>
      <trkpt lat="39.783720743464" lon="3.128678201581">
        <ele>3.6</ele>
        <time>2014-05-03T16:24:25Z</time>
      </trkpt>
      <trkpt lat="39.78390967149" lon="3.128544677914">
        <ele>3.6</ele>
        <time>2014-05-03T16:24:28Z</time>
      </trkpt>
      <trkpt lat="39.784346117023" lon="3.128236307813">
        <ele>3.6</ele>
        <time>2014-05-03T16:24:35Z</time>
      </trkpt>
      <trkpt lat="39.784411412024" lon="3.128193224847">
        <ele>3.6</ele>
        <time>2014-05-03T16:24:36Z</time>
      </trkpt>
      <trkpt lat="39.784604614819" lon="3.128051067823">
        <ele>3.6</ele>
        <time>2014-05-03T16:24:39Z</time>
      </trkpt>
      <trkpt lat="39.784677872625" lon="3.128000776423">
        <ele>3.6</ele>
        <time>2014-05-03T16:24:40Z</time>
      </trkpt>
      <trkpt lat="39.784875853103" lon="3.127885022384">
        <ele>3.6</ele>
        <time>2014-05-03T16:24:43Z</time>
      </trkpt>
      <trkpt lat="39.784943495036" lon="3.127841185047">
        <ele>3.6</ele>
        <time>2014-05-03T16:24:44Z</time>
      </trkpt>
      <trkpt lat="39.785012058978" lon="3.127795503692">
        <ele>3.6</ele>
        <time>2014-05-03T16:24:45Z</time>
      </trkpt>
      <trkpt lat="39.785273993353" lon="3.127605150743">
        <ele>3.6</ele>
        <time>2014-05-03T16:24:49Z</time>
      </trkpt>
      <trkpt lat="39.785335935594" lon="3.127557457732">
        <ele>3.6</ele>
        <time>2014-05-03T16:24:50Z</time>
      </trkpt>
      <trkpt lat="39.785399805672" lon="3.127515380594">
        <ele>3.6</ele>
        <time>2014-05-03T16:24:51Z</time>
      </trkpt>
      <trkpt lat="39.785465184492" lon="3.12747883551">
        <ele>3.6</ele>
        <time>2014-05-03T16:24:52Z</time>
      </trkpt>
      <trkpt lat="39.785601893281" lon="3.127398201632">
        <ele>3.6</ele>
        <time>2014-05-03T16:24:54Z</time>
      </trkpt>
      <trkpt lat="39.786072620785" lon="3.12704716766">
        <ele>3.6</ele>
        <time>2014-05-03T16:25:01Z</time>
      </trkpt>
      <trkpt lat="39.786136993777" lon="3.126995870432">
        <ele>3.6</ele>
        <time>2014-05-03T16:25:02Z</time>
      </trkpt>
      <trkpt lat="39.786604368521" lon="3.126634359085">
        <ele>3.6</ele>
        <time>2014-05-03T16:25:09Z</time>
      </trkpt>
      <trkpt lat="39.786806875225" lon="3.126472923691">
        <ele>3.6</ele>
        <time>2014-05-03T16:25:12Z</time>
      </trkpt>
      <trkpt lat="39.786869990932" lon="3.126427242336">
        <ele>3.6</ele>
        <time>2014-05-03T16:25:13Z</time>
      </trkpt>
      <trkpt lat="39.786930927345" lon="3.126382985904">
        <ele>3.6</ele>
        <time>2014-05-03T16:25:14Z</time>
      </trkpt>
      <trkpt lat="39.786991360844" lon="3.126336969273">
        <ele>3.6</ele>
        <time>2014-05-03T16:25:15Z</time>
      </trkpt>
      <trkpt lat="39.787052548714" lon="3.126290030633">
        <ele>3.6</ele>
        <time>2014-05-03T16:25:16Z</time>
      </trkpt>
      <trkpt lat="39.787112060204" lon="3.126244516916">
        <ele>3.6</ele>
        <time>2014-05-03T16:25:17Z</time>
      </trkpt>
      <trkpt lat="39.787176014101" lon="3.12619556662">
        <ele>3.6</ele>
        <time>2014-05-03T16:25:18Z</time>
      </trkpt>
      <trkpt lat="39.787299060393" lon="3.126097917485">
        <ele>3.6</ele>
        <time>2014-05-03T16:25:20Z</time>
      </trkpt>
      <trkpt lat="39.787355805856" lon="3.126053493415">
        <ele>3.6</ele>
        <time>2014-05-03T16:25:21Z</time>
      </trkpt>
      <trkpt lat="39.787479941795" lon="3.125956179556">
        <ele>3.6</ele>
        <time>2014-05-03T16:25:23Z</time>
      </trkpt>
      <trkpt lat="39.787871544163" lon="3.125673625707">
        <ele>3.6</ele>
        <time>2014-05-03T16:25:29Z</time>
      </trkpt>
      <trkpt lat="39.787936084793" lon="3.125625094506">
        <ele>3.6</ele>
        <time>2014-05-03T16:25:30Z</time>
      </trkpt>
      <trkpt lat="39.788402034614" lon="3.125274479629">
        <ele>3.6</ele>
        <time>2014-05-03T16:25:37Z</time>
      </trkpt>
      <trkpt lat="39.788802689434" lon="3.124955548334">
        <ele>3.6</ele>
        <time>2014-05-03T16:25:43Z</time>
      </trkpt>
      <trkpt lat="39.789003184482" lon="3.124806350514">
        <ele>3.6</ele>
        <time>2014-05-03T16:25:46Z</time>
      </trkpt>
      <trkpt lat="39.789201919331" lon="3.124651704459">
        <ele>3.6</ele>
        <time>2014-05-03T16:25:49Z</time>
      </trkpt>
      <trkpt lat="39.7892648674" lon="3.124603424715">
        <ele>3.6</ele>
        <time>2014-05-03T16:25:50Z</time>
      </trkpt>
      <trkpt lat="39.789450777942" lon="3.124455316542">
        <ele>3.6</ele>
        <time>2014-05-03T16:25:53Z</time>
      </trkpt>
      <trkpt lat="39.789513223097" lon="3.124402426753">
        <ele>3.6</ele>
        <time>2014-05-03T16:25:54Z</time>
      </trkpt>
      <trkpt lat="39.789579356288" lon="3.12434735767">
        <ele>3.6</ele>
        <time>2014-05-03T16:25:55Z</time>
      </trkpt>
      <trkpt lat="39.78965127299" lon="3.124289774017">
        <ele>3.6</ele>
        <time>2014-05-03T16:25:56Z</time>
      </trkpt>
      <trkpt lat="39.789720172208" lon="3.124236632771">
        <ele>3.6</ele>
        <time>2014-05-03T16:25:57Z</time>
      </trkpt>
      <trkpt lat="39.78985662954" lon="3.124132026659">
        <ele>3.6</ele>
        <time>2014-05-03T16:25:59Z</time>
      </trkpt>
      <trkpt lat="39.789923181826" lon="3.124081986716">
        <ele>3.6</ele>
        <time>2014-05-03T16:26:00Z</time>
      </trkpt>
      <trkpt lat="39.790051005801" lon="3.123982158287">
        <ele>3.6</ele>
        <time>2014-05-03T16:26:02Z</time>
      </trkpt>
      <trkpt lat="39.790444284549" lon="3.123673117634">
        <ele>3.6</ele>
        <time>2014-05-03T16:26:08Z</time>
      </trkpt>
      <trkpt lat="39.790575042189" lon="3.123574378852">
        <ele>3.6</ele>
        <time>2014-05-03T16:26:10Z</time>
      </trkpt>
      <trkpt lat="39.790707224752" lon="3.123469102188">
        <ele>3.6</ele>
        <time>2014-05-03T16:26:12Z</time>
      </trkpt>
      <trkpt lat="39.790905624325" lon="3.123316970703">
        <ele>3.6</ele>
        <time>2014-05-03T16:26:15Z</time>
      </trkpt>
      <trkpt lat="39.791364114255" lon="3.122984628368">
        <ele>3.6</ele>
        <time>2014-05-03T16:26:22Z</time>
      </trkpt>
      <trkpt lat="39.791426727048" lon="3.122939030832">
        <ele>3</ele>
        <time>2014-05-03T16:26:23Z</time>
      </trkpt>
      <trkpt lat="39.791489339841" lon="3.122896283142">
        <ele>2.6</ele>
        <time>2014-05-03T16:26:24Z</time>
      </trkpt>
      <trkpt lat="39.791550695349" lon="3.122853367814">
        <ele>1.8</ele>
        <time>2014-05-03T16:26:25Z</time>
      </trkpt>
      <trkpt lat="39.791611296486" lon="3.122811542133">
        <ele>2.2</ele>
        <time>2014-05-03T16:26:26Z</time>
      </trkpt>
      <trkpt lat="39.791673490184" lon="3.122774577954">
        <ele>2.6</ele>
        <time>2014-05-03T16:26:27Z</time>
      </trkpt>
      <trkpt lat="39.791733504588" lon="3.122748677883">
        <ele>3</ele>
        <time>2014-05-03T16:26:28Z</time>
      </trkpt>
      <trkpt lat="39.791794692458" lon="3.122741134173">
        <ele>3.4</ele>
        <time>2014-05-03T16:26:29Z</time>
      </trkpt>
      <trkpt lat="39.791857053794" lon="3.122743145829">
        <ele>3.8</ele>
        <time>2014-05-03T16:26:30Z</time>
      </trkpt>
      <trkpt lat="39.791920588596" lon="3.122731243531">
        <ele>3.8</ele>
        <time>2014-05-03T16:26:31Z</time>
      </trkpt>
      <trkpt lat="39.792084706198" lon="3.122563018798">
        <ele>3.8</ele>
        <time>2014-05-03T16:26:34Z</time>
      </trkpt>
      <trkpt lat="39.792266593428" lon="3.122414156254">
        <ele>3.8</ele>
        <time>2014-05-03T16:26:37Z</time>
      </trkpt>
      <trkpt lat="39.792331385515" lon="3.122372414392">
        <ele>3.8</ele>
        <time>2014-05-03T16:26:38Z</time>
      </trkpt>
      <trkpt lat="39.792667834981" lon="3.122179882149">
        <ele>3.8</ele>
        <time>2014-05-03T16:26:43Z</time>
      </trkpt>
      <trkpt lat="39.792739751683" lon="3.122136463907">
        <ele>3.8</ele>
        <time>2014-05-03T16:26:44Z</time>
      </trkpt>
      <trkpt lat="39.79280705834" lon="3.122092207475">
        <ele>3.8</ele>
        <time>2014-05-03T16:26:45Z</time>
      </trkpt>
      <trkpt lat="39.792874867911" lon="3.122048118681">
        <ele>3.8</ele>
        <time>2014-05-03T16:26:46Z</time>
      </trkpt>
      <trkpt lat="39.792944102405" lon="3.12200461662">
        <ele>3.8</ele>
        <time>2014-05-03T16:26:47Z</time>
      </trkpt>
      <trkpt lat="39.793011744338" lon="3.12196354531">
        <ele>3.8</ele>
        <time>2014-05-03T16:26:48Z</time>
      </trkpt>
      <trkpt lat="39.793080392099" lon="3.121922725457">
        <ele>3.8</ele>
        <time>2014-05-03T16:26:49Z</time>
      </trkpt>
      <trkpt lat="39.793148285489" lon="3.121882408518">
        <ele>3.8</ele>
        <time>2014-05-03T16:26:50Z</time>
      </trkpt>
      <trkpt lat="39.793219531639" lon="3.121838822638">
        <ele>3.8</ele>
        <time>2014-05-03T16:26:51Z</time>
      </trkpt>
      <trkpt lat="39.793489764095" lon="3.121685014773">
        <ele>3.8</ele>
        <time>2014-05-03T16:26:55Z</time>
      </trkpt>
      <trkpt lat="39.793556651657" lon="3.121646960947">
        <ele>3.8</ele>
        <time>2014-05-03T16:26:56Z</time>
      </trkpt>
      <trkpt lat="39.793624545047" lon="3.121606560189">
        <ele>3.8</ele>
        <time>2014-05-03T16:26:57Z</time>
      </trkpt>
      <trkpt lat="39.793834763099" lon="3.121482088974">
        <ele>3.8</ele>
        <time>2014-05-03T16:27:00Z</time>
      </trkpt>
      <trkpt lat="39.794044981151" lon="3.121347894755">
        <ele>3.8</ele>
        <time>2014-05-03T16:27:03Z</time>
      </trkpt>
      <trkpt lat="39.79411463474" lon="3.121304476513">
        <ele>3.8</ele>
        <time>2014-05-03T16:27:04Z</time>
      </trkpt>
      <trkpt lat="39.79453624431" lon="3.121055953178">
        <ele>3.8</ele>
        <time>2014-05-03T16:27:10Z</time>
      </trkpt>
      <trkpt lat="39.794670857624" lon="3.12097867206">
        <ele>3.8</ele>
        <time>2014-05-03T16:27:12Z</time>
      </trkpt>
      <trkpt lat="39.794811673544" lon="3.120905917168">
        <ele>3.8</ele>
        <time>2014-05-03T16:27:14Z</time>
      </trkpt>
      <trkpt lat="39.795036308464" lon="3.120816230838">
        <ele>3.8</ele>
        <time>2014-05-03T16:27:17Z</time>
      </trkpt>
      <trkpt lat="39.795190116329" lon="3.120762251402">
        <ele>3.8</ele>
        <time>2014-05-03T16:27:19Z</time>
      </trkpt>
      <trkpt lat="39.795267481266" lon="3.120734926408">
        <ele>3.8</ele>
        <time>2014-05-03T16:27:20Z</time>
      </trkpt>
      <trkpt lat="39.795344846203" lon="3.120707266138">
        <ele>3.8</ele>
        <time>2014-05-03T16:27:21Z</time>
      </trkpt>
      <trkpt lat="39.795572582426" lon="3.120634092151">
        <ele>3.8</ele>
        <time>2014-05-03T16:27:24Z</time>
      </trkpt>
      <trkpt lat="39.796060744282" lon="3.120485313426">
        <ele>3.8</ele>
        <time>2014-05-03T16:27:30Z</time>
      </trkpt>
      <trkpt lat="39.79614305454" lon="3.120459497174">
        <ele>3.8</ele>
        <time>2014-05-03T16:27:31Z</time>
      </trkpt>
      <trkpt lat="39.796470116278" lon="3.120350951569">
        <ele>3.8</ele>
        <time>2014-05-03T16:27:35Z</time>
      </trkpt>
      <trkpt lat="39.79655125307" lon="3.120325470593">
        <ele>3.8</ele>
        <time>2014-05-03T16:27:36Z</time>
      </trkpt>
      <trkpt lat="39.796637921916" lon="3.120299989617">
        <ele>3.8</ele>
        <time>2014-05-03T16:27:37Z</time>
      </trkpt>
      <trkpt lat="39.796716544138" lon="3.120276939392">
        <ele>3.8</ele>
        <time>2014-05-03T16:27:38Z</time>
      </trkpt>
      <trkpt lat="39.796875716419" lon="3.120226145078">
        <ele>3.4</ele>
        <time>2014-05-03T16:27:40Z</time>
      </trkpt>
      <trkpt lat="39.796957104668" lon="3.120196473152">
        <ele>3</ele>
        <time>2014-05-03T16:27:41Z</time>
      </trkpt>
      <trkpt lat="39.797041007487" lon="3.120167639416">
        <ele>2.6</ele>
        <time>2014-05-03T16:27:42Z</time>
      </trkpt>
      <trkpt lat="39.797126419048" lon="3.120137799852">
        <ele>2.2</ele>
        <time>2014-05-03T16:27:43Z</time>
      </trkpt>
      <trkpt lat="39.797213674627" lon="3.120108463202">
        <ele>1.8</ele>
        <time>2014-05-03T16:27:44Z</time>
      </trkpt>
      <trkpt lat="39.797456246813" lon="3.120030930627">
        <ele>1.8</ele>
        <time>2014-05-03T16:27:47Z</time>
      </trkpt>
      <trkpt lat="39.797794372659" lon="3.119929928732">
        <ele>1.4</ele>
        <time>2014-05-03T16:27:51Z</time>
      </trkpt>
      <trkpt lat="39.797878359297" lon="3.119904447756">
        <ele>0.8</ele>
        <time>2014-05-03T16:27:52Z</time>
      </trkpt>
      <trkpt lat="39.797963100306" lon="3.119877374219">
        <ele>0.4</ele>
        <time>2014-05-03T16:27:53Z</time>
      </trkpt>
      <trkpt lat="39.798047841315" lon="3.119852731433">
        <ele>0.6</ele>
        <time>2014-05-03T16:27:54Z</time>
      </trkpt>
      <trkpt lat="39.798128894288" lon="3.119829010656">
        <ele>1</ele>
        <time>2014-05-03T16:27:55Z</time>
      </trkpt>
      <trkpt lat="39.798207432691" lon="3.119803697318">
        <ele>1.2</ele>
        <time>2014-05-03T16:27:56Z</time>
      </trkpt>
      <trkpt lat="39.798284294714" lon="3.119777713428">
        <ele>0.6</ele>
        <time>2014-05-03T16:27:57Z</time>
      </trkpt>
      <trkpt lat="39.798361575832" lon="3.119754411746">
        <ele>0.2</ele>
        <time>2014-05-03T16:27:58Z</time>
      </trkpt>
      <trkpt lat="39.79844220971" lon="3.119730355693">
        <ele>0</ele>
        <time>2014-05-03T16:27:59Z</time>
      </trkpt>
      <trkpt lat="39.798519071733" lon="3.119708981848">
        <ele>0</ele>
        <time>2014-05-03T16:28:00Z</time>
      </trkpt>
      <trkpt lat="39.798596939584" lon="3.119688194736">
        <ele>0.4</ele>
        <time>2014-05-03T16:28:01Z</time>
      </trkpt>
      <trkpt lat="39.798675813263" lon="3.119664557778">
        <ele>0.8</ele>
        <time>2014-05-03T16:28:02Z</time>
      </trkpt>
      <trkpt lat="39.798751669458" lon="3.119636394594">
        <ele>1.2</ele>
        <time>2014-05-03T16:28:03Z</time>
      </trkpt>
      <trkpt lat="39.798824927264" lon="3.119613847283">
        <ele>1.6</ele>
        <time>2014-05-03T16:28:04Z</time>
      </trkpt>
      <trkpt lat="39.798978232215" lon="3.119574536172">
        <ele>1.6</ele>
        <time>2014-05-03T16:28:06Z</time>
      </trkpt>
      <trkpt lat="39.799050484193" lon="3.119562633874">
        <ele>1.2</ele>
        <time>2014-05-03T16:28:07Z</time>
      </trkpt>
      <trkpt lat="39.799124747827" lon="3.119551402128">
        <ele>0.6</ele>
        <time>2014-05-03T16:28:08Z</time>
      </trkpt>
      <trkpt lat="39.79920160985" lon="3.119532207577">
        <ele>0</ele>
        <time>2014-05-03T16:28:09Z</time>
      </trkpt>
      <trkpt lat="39.799276795493" lon="3.11949842852">
        <ele>0.4</ele>
        <time>2014-05-03T16:28:10Z</time>
      </trkpt>
      <trkpt lat="39.799348041643" lon="3.119458865952">
        <ele>0.8</ele>
        <time>2014-05-03T16:28:11Z</time>
      </trkpt>
      <trkpt lat="39.799421131811" lon="3.119429948397">
        <ele>1.2</ele>
        <time>2014-05-03T16:28:12Z</time>
      </trkpt>
      <trkpt lat="39.799497407101" lon="3.119406311439">
        <ele>1.6</ele>
        <time>2014-05-03T16:28:13Z</time>
      </trkpt>
      <trkpt lat="39.799587009612" lon="3.119378483531">
        <ele>2</ele>
        <time>2014-05-03T16:28:14Z</time>
      </trkpt>
      <trkpt lat="39.799651298785" lon="3.119356858229">
        <ele>2</ele>
        <time>2014-05-03T16:28:15Z</time>
      </trkpt>
      <trkpt lat="39.799868138538" lon="3.119279577111">
        <ele>2</ele>
        <time>2014-05-03T16:28:18Z</time>
      </trkpt>
      <trkpt lat="39.80015547007" lon="3.119185029279">
        <ele>2</ele>
        <time>2014-05-03T16:28:22Z</time>
      </trkpt>
      <trkpt lat="39.800309613211" lon="3.119132726223">
        <ele>2.6</ele>
        <time>2014-05-03T16:28:24Z</time>
      </trkpt>
      <trkpt lat="39.800370801081" lon="3.119110765645">
        <ele>3</ele>
        <time>2014-05-03T16:28:25Z</time>
      </trkpt>
      <trkpt lat="39.800446322" lon="3.119085452307">
        <ele>3.4</ele>
        <time>2014-05-03T16:28:26Z</time>
      </trkpt>
      <trkpt lat="39.800522764928" lon="3.119060474245">
        <ele>3.8</ele>
        <time>2014-05-03T16:28:27Z</time>
      </trkpt>
      <trkpt lat="39.800600632779" lon="3.119035244726">
        <ele>4.4</ele>
        <time>2014-05-03T16:28:28Z</time>
      </trkpt>
      <trkpt lat="39.80067682425" lon="3.119009260836">
        <ele>4.4</ele>
        <time>2014-05-03T16:28:29Z</time>
      </trkpt>
      <trkpt lat="39.80075729049" lon="3.118984115136">
        <ele>4.4</ele>
        <time>2014-05-03T16:28:30Z</time>
      </trkpt>
      <trkpt lat="39.800917217142" lon="3.118935081021">
        <ele>4.4</ele>
        <time>2014-05-03T16:28:32Z</time>
      </trkpt>
      <trkpt lat="39.800997180468" lon="3.118911360244">
        <ele>4.4</ele>
        <time>2014-05-03T16:28:33Z</time>
      </trkpt>
      <trkpt lat="39.801146043012" lon="3.118865175975">
        <ele>4.4</ele>
        <time>2014-05-03T16:28:35Z</time>
      </trkpt>
      <trkpt lat="39.801217624438" lon="3.118842377207">
        <ele>4.4</ele>
        <time>2014-05-03T16:28:36Z</time>
      </trkpt>
      <trkpt lat="39.801515098069" lon="3.118744392796">
        <ele>4.4</ele>
        <time>2014-05-03T16:28:40Z</time>
      </trkpt>
      <trkpt lat="39.801665301717" lon="3.118696951242">
        <ele>4.4</ele>
        <time>2014-05-03T16:28:42Z</time>
      </trkpt>
      <trkpt lat="39.801975767293" lon="3.118605672351">
        <ele>4.4</ele>
        <time>2014-05-03T16:28:46Z</time>
      </trkpt>
      <trkpt lat="39.802050030927" lon="3.118584130868">
        <ele>4.4</ele>
        <time>2014-05-03T16:28:47Z</time>
      </trkpt>
      <trkpt lat="39.802334093518" lon="3.118482039326">
        <ele>3.8</ele>
        <time>2014-05-03T16:28:51Z</time>
      </trkpt>
      <trkpt lat="39.802404920573" lon="3.118457564178">
        <ele>3.4</ele>
        <time>2014-05-03T16:28:52Z</time>
      </trkpt>
      <trkpt lat="39.802474657981" lon="3.118433675763">
        <ele>2.4</ele>
        <time>2014-05-03T16:28:53Z</time>
      </trkpt>
      <trkpt lat="39.802545904131" lon="3.118406518407">
        <ele>2</ele>
        <time>2014-05-03T16:28:54Z</time>
      </trkpt>
      <trkpt lat="39.8026842893" lon="3.118354466808">
        <ele>2</ele>
        <time>2014-05-03T16:28:56Z</time>
      </trkpt>
      <trkpt lat="39.802821249546" lon="3.118300403553">
        <ele>2</ele>
        <time>2014-05-03T16:28:58Z</time>
      </trkpt>
      <trkpt lat="39.80289299861" lon="3.118274000568">
        <ele>2</ele>
        <time>2014-05-03T16:28:59Z</time>
      </trkpt>
      <trkpt lat="39.803264903513" lon="3.118158749443">
        <ele>2</ele>
        <time>2014-05-03T16:29:04Z</time>
      </trkpt>
      <trkpt lat="39.803341933174" lon="3.118132765553">
        <ele>2.4</ele>
        <time>2014-05-03T16:29:05Z</time>
      </trkpt>
      <trkpt lat="39.803417202636" lon="3.118108122767">
        <ele>2.8</ele>
        <time>2014-05-03T16:29:06Z</time>
      </trkpt>
      <trkpt lat="39.803490376623" lon="3.118086748922">
        <ele>3.2</ele>
        <time>2014-05-03T16:29:07Z</time>
      </trkpt>
      <trkpt lat="39.803562377144" lon="3.118063363421">
        <ele>3.6</ele>
        <time>2014-05-03T16:29:08Z</time>
      </trkpt>
      <trkpt lat="39.803631695457" lon="3.118038552997">
        <ele>4</ele>
        <time>2014-05-03T16:29:09Z</time>
      </trkpt>
      <trkpt lat="39.803704785625" lon="3.118018436437">
        <ele>4</ele>
        <time>2014-05-03T16:29:10Z</time>
      </trkpt>
      <trkpt lat="39.803772846653" lon="3.118001588818">
        <ele>4</ele>
        <time>2014-05-03T16:29:11Z</time>
      </trkpt>
      <trkpt lat="39.803845685364" lon="3.117988680692">
        <ele>4</ele>
        <time>2014-05-03T16:29:12Z</time>
      </trkpt>
      <trkpt lat="39.803922715025" lon="3.117985160294">
        <ele>4</ele>
        <time>2014-05-03T16:29:13Z</time>
      </trkpt>
      <trkpt lat="39.804066213153" lon="3.118008713433">
        <ele>4</ele>
        <time>2014-05-03T16:29:15Z</time>
      </trkpt>
      <trkpt lat="39.804139051864" lon="3.118011982374">
        <ele>4</ele>
        <time>2014-05-03T16:29:16Z</time>
      </trkpt>
      <trkpt lat="39.804214991878" lon="3.117997314049">
        <ele>4</ele>
        <time>2014-05-03T16:29:17Z</time>
      </trkpt>
      <trkpt lat="39.804283639639" lon="3.117964708458">
        <ele>4</ele>
        <time>2014-05-03T16:29:18Z</time>
      </trkpt>
      <trkpt lat="39.804342899672" lon="3.117911567212">
        <ele>3.4</ele>
        <time>2014-05-03T16:29:19Z</time>
      </trkpt>
      <trkpt lat="39.804399812773" lon="3.117850463161">
        <ele>3</ele>
        <time>2014-05-03T16:29:20Z</time>
      </trkpt>
      <trkpt lat="39.804469717819" lon="3.117799920304">
        <ele>2.6</ele>
        <time>2014-05-03T16:29:21Z</time>
      </trkpt>
      <trkpt lat="39.804546998937" lon="3.117766141247">
        <ele>2</ele>
        <time>2014-05-03T16:29:22Z</time>
      </trkpt>
      <trkpt lat="39.804635176525" lon="3.117734960579">
        <ele>1.6</ele>
        <time>2014-05-03T16:29:23Z</time>
      </trkpt>
      <trkpt lat="39.804708853426" lon="3.1177147602">
        <ele>1.6</ele>
        <time>2014-05-03T16:29:24Z</time>
      </trkpt>
      <trkpt lat="39.804794516444" lon="3.117690117414">
        <ele>1.6</ele>
        <time>2014-05-03T16:29:25Z</time>
      </trkpt>
      <trkpt lat="39.80487699434" lon="3.117663379153">
        <ele>1.6</ele>
        <time>2014-05-03T16:29:26Z</time>
      </trkpt>
      <trkpt lat="39.80495913696" lon="3.117634545417">
        <ele>1.6</ele>
        <time>2014-05-03T16:29:27Z</time>
      </trkpt>
      <trkpt lat="39.805202128241" lon="3.117549469132">
        <ele>1.6</ele>
        <time>2014-05-03T16:29:30Z</time>
      </trkpt>
      <trkpt lat="39.805366832576" lon="3.117484928502">
        <ele>1.6</ele>
        <time>2014-05-03T16:29:32Z</time>
      </trkpt>
      <trkpt lat="39.805450483938" lon="3.117456346223">
        <ele>1.6</ele>
        <time>2014-05-03T16:29:33Z</time>
      </trkpt>
      <trkpt lat="39.805531536911" lon="3.117430027057">
        <ele>1.6</ele>
        <time>2014-05-03T16:29:34Z</time>
      </trkpt>
      <trkpt lat="39.805688781355" lon="3.117376634354">
        <ele>1.6</ele>
        <time>2014-05-03T16:29:36Z</time>
      </trkpt>
      <trkpt lat="39.805764218455" lon="3.117350315188">
        <ele>1.6</ele>
        <time>2014-05-03T16:29:37Z</time>
      </trkpt>
      <trkpt lat="39.806070828357" lon="3.11726046122">
        <ele>0.8</ele>
        <time>2014-05-03T16:29:41Z</time>
      </trkpt>
      <trkpt lat="39.806140230489" lon="3.117233806778">
        <ele>0.8</ele>
        <time>2014-05-03T16:29:42Z</time>
      </trkpt>
      <trkpt lat="39.806209632621" lon="3.117208661078">
        <ele>1</ele>
        <time>2014-05-03T16:29:43Z</time>
      </trkpt>
      <trkpt lat="39.80627844802" lon="3.117183515378">
        <ele>1.2</ele>
        <time>2014-05-03T16:29:44Z</time>
      </trkpt>
      <trkpt lat="39.8063471796" lon="3.117159375506">
        <ele>1.2</ele>
        <time>2014-05-03T16:29:45Z</time>
      </trkpt>
      <trkpt lat="39.806417000827" lon="3.117137414928">
        <ele>1.4</ele>
        <time>2014-05-03T16:29:46Z</time>
      </trkpt>
      <trkpt lat="39.806631745105" lon="3.117059211801">
        <ele>1.4</ele>
        <time>2014-05-03T16:29:49Z</time>
      </trkpt>
      <trkpt lat="39.806786223522" lon="3.117003220709">
        <ele>1.4</ele>
        <time>2014-05-03T16:29:51Z</time>
      </trkpt>
      <trkpt lat="39.806950257305" lon="3.116955695336">
        <ele>1.4</ele>
        <time>2014-05-03T16:29:53Z</time>
      </trkpt>
      <trkpt lat="39.807108675215" lon="3.116903979013">
        <ele>1.4</ele>
        <time>2014-05-03T16:29:55Z</time>
      </trkpt>
      <trkpt lat="39.807480244842" lon="3.116794679037">
        <ele>1.4</ele>
        <time>2014-05-03T16:30:00Z</time>
      </trkpt>
      <trkpt lat="39.807623072418" lon="3.116753859184">
        <ele>1.4</ele>
        <time>2014-05-03T16:30:02Z</time>
      </trkpt>
      <trkpt lat="39.807834296298" lon="3.116692000762">
        <ele>1.4</ele>
        <time>2014-05-03T16:30:05Z</time>
      </trkpt>
      <trkpt lat="39.807908224656" lon="3.116671465107">
        <ele>1.4</ele>
        <time>2014-05-03T16:30:06Z</time>
      </trkpt>
      <trkpt lat="39.808195640007" lon="3.116585382994">
        <ele>1.4</ele>
        <time>2014-05-03T16:30:10Z</time>
      </trkpt>
      <trkpt lat="39.808341904162" lon="3.116549927557">
        <ele>1.4</ele>
        <time>2014-05-03T16:30:12Z</time>
      </trkpt>
      <trkpt lat="39.808480289331" lon="3.116507934238">
        <ele>1.4</ele>
        <time>2014-05-03T16:30:14Z</time>
      </trkpt>
      <trkpt lat="39.808620853794" lon="3.116456469372">
        <ele>1.4</ele>
        <time>2014-05-03T16:30:16Z</time>
      </trkpt>
      <trkpt lat="39.808688663365" lon="3.116432497138">
        <ele>1.4</ele>
        <time>2014-05-03T16:30:17Z</time>
      </trkpt>
      <trkpt lat="39.808757059669" lon="3.116407519076">
        <ele>1</ele>
        <time>2014-05-03T16:30:18Z</time>
      </trkpt>
      <trkpt lat="39.80882906019" lon="3.116380948453">
        <ele>0.4</ele>
        <time>2014-05-03T16:30:19Z</time>
      </trkpt>
      <trkpt lat="39.808897288856" lon="3.116357898228">
        <ele>0</ele>
        <time>2014-05-03T16:30:20Z</time>
      </trkpt>
      <trkpt lat="39.808965601341" lon="3.116336356745">
        <ele>0</ele>
        <time>2014-05-03T16:30:21Z</time>
      </trkpt>
      <trkpt lat="39.809029722876" lon="3.116312384511">
        <ele>0</ele>
        <time>2014-05-03T16:30:22Z</time>
      </trkpt>
      <trkpt lat="39.809097029533" lon="3.116290423933">
        <ele>0</ele>
        <time>2014-05-03T16:30:23Z</time>
      </trkpt>
      <trkpt lat="39.809167102217" lon="3.116267457527">
        <ele>0.2</ele>
        <time>2014-05-03T16:30:24Z</time>
      </trkpt>
      <trkpt lat="39.80923558234" lon="3.116243317655">
        <ele>0.8</ele>
        <time>2014-05-03T16:30:25Z</time>
      </trkpt>
      <trkpt lat="39.809308923965" lon="3.116219093964">
        <ele>1.2</ele>
        <time>2014-05-03T16:30:26Z</time>
      </trkpt>
      <trkpt lat="39.809386791816" lon="3.116196211377">
        <ele>1.8</ele>
        <time>2014-05-03T16:30:27Z</time>
      </trkpt>
      <trkpt lat="39.809740675634" lon="3.116089928885">
        <ele>1.8</ele>
        <time>2014-05-03T16:30:32Z</time>
      </trkpt>
      <trkpt lat="39.80981393344" lon="3.116068722678">
        <ele>1.8</ele>
        <time>2014-05-03T16:30:33Z</time>
      </trkpt>
      <trkpt lat="39.809888616169" lon="3.116047432652">
        <ele>1.8</ele>
        <time>2014-05-03T16:30:34Z</time>
      </trkpt>
      <trkpt lat="39.810249037869" lon="3.115919692496">
        <ele>1.8</ele>
        <time>2014-05-03T16:30:39Z</time>
      </trkpt>
      <trkpt lat="39.810320619295" lon="3.115897229004">
        <ele>1.4</ele>
        <time>2014-05-03T16:30:40Z</time>
      </trkpt>
      <trkpt lat="39.810394882929" lon="3.115873005313">
        <ele>1</ele>
        <time>2014-05-03T16:30:41Z</time>
      </trkpt>
      <trkpt lat="39.81047191259" lon="3.115848530165">
        <ele>0.6</ele>
        <time>2014-05-03T16:30:42Z</time>
      </trkpt>
      <trkpt lat="39.810546427681" lon="3.115825899035">
        <ele>1</ele>
        <time>2014-05-03T16:30:43Z</time>
      </trkpt>
      <trkpt lat="39.810620188401" lon="3.115803435543">
        <ele>1.4</ele>
        <time>2014-05-03T16:30:44Z</time>
      </trkpt>
      <trkpt lat="39.810693949121" lon="3.115777954567">
        <ele>1.8</ele>
        <time>2014-05-03T16:30:45Z</time>
      </trkpt>
      <trkpt lat="39.810765865823" lon="3.115752725048">
        <ele>2.2</ele>
        <time>2014-05-03T16:30:46Z</time>
      </trkpt>
      <trkpt lat="39.810838704534" lon="3.115728585176">
        <ele>2.6</ele>
        <time>2014-05-03T16:30:47Z</time>
      </trkpt>
      <trkpt lat="39.811210022704" lon="3.115610484205">
        <ele>2.6</ele>
        <time>2014-05-03T16:30:52Z</time>
      </trkpt>
      <trkpt lat="39.811282777596" lon="3.115586763428">
        <ele>2.6</ele>
        <time>2014-05-03T16:30:53Z</time>
      </trkpt>
      <trkpt lat="39.811499114435" lon="3.115511493966">
        <ele>2.6</ele>
        <time>2014-05-03T16:30:56Z</time>
      </trkpt>
      <trkpt lat="39.811572875155" lon="3.115488024646">
        <ele>2.2</ele>
        <time>2014-05-03T16:30:57Z</time>
      </trkpt>
      <trkpt lat="39.811651078282" lon="3.115461621661">
        <ele>1.8</ele>
        <time>2014-05-03T16:30:58Z</time>
      </trkpt>
      <trkpt lat="39.811718971672" lon="3.115435553952">
        <ele>1.4</ele>
        <time>2014-05-03T16:30:59Z</time>
      </trkpt>
      <trkpt lat="39.81178451813" lon="3.115408815691">
        <ele>1</ele>
        <time>2014-05-03T16:31:00Z</time>
      </trkpt>
      <trkpt lat="39.811854004081" lon="3.115384089086">
        <ele>0.6</ele>
        <time>2014-05-03T16:31:01Z</time>
      </trkpt>
      <trkpt lat="39.811927513344" lon="3.115364643078">
        <ele>0.6</ele>
        <time>2014-05-03T16:31:02Z</time>
      </trkpt>
      <trkpt lat="39.812002112254" lon="3.115341760491">
        <ele>0.6</ele>
        <time>2014-05-03T16:31:03Z</time>
      </trkpt>
      <trkpt lat="39.812154495196" lon="3.115290044168">
        <ele>0.6</ele>
        <time>2014-05-03T16:31:05Z</time>
      </trkpt>
      <trkpt lat="39.812293215641" lon="3.115244698089">
        <ele>0.6</ele>
        <time>2014-05-03T16:31:07Z</time>
      </trkpt>
      <trkpt lat="39.812365886714" lon="3.115224162434">
        <ele>1</ele>
        <time>2014-05-03T16:31:08Z</time>
      </trkpt>
      <trkpt lat="39.81243998271" lon="3.115201782761">
        <ele>1.4</ele>
        <time>2014-05-03T16:31:09Z</time>
      </trkpt>
      <trkpt lat="39.812513240516" lon="3.115179738364">
        <ele>1.8</ele>
        <time>2014-05-03T16:31:10Z</time>
      </trkpt>
      <trkpt lat="39.812587755607" lon="3.11515911889">
        <ele>2.2</ele>
        <time>2014-05-03T16:31:11Z</time>
      </trkpt>
      <trkpt lat="39.812663108888" lon="3.115139337606">
        <ele>2.6</ele>
        <time>2014-05-03T16:31:12Z</time>
      </trkpt>
      <trkpt lat="39.813094776738" lon="3.115014531115">
        <ele>2.6</ele>
        <time>2014-05-03T16:31:18Z</time>
      </trkpt>
      <trkpt lat="39.813158646816" lon="3.115012100364">
        <ele>2.6</ele>
        <time>2014-05-03T16:31:19Z</time>
      </trkpt>
      <trkpt lat="39.813292841035" lon="3.114997264401">
        <ele>2.6</ele>
        <time>2014-05-03T16:31:21Z</time>
      </trkpt>
      <trkpt lat="39.813356794932" lon="3.11496214424">
        <ele>2.6</ele>
        <time>2014-05-03T16:31:22Z</time>
      </trkpt>
      <trkpt lat="39.813417396069" lon="3.114917384894">
        <ele>2.2</ele>
        <time>2014-05-03T16:31:23Z</time>
      </trkpt>
      <trkpt lat="39.813478919215" lon="3.114876984136">
        <ele>1.6</ele>
        <time>2014-05-03T16:31:24Z</time>
      </trkpt>
      <trkpt lat="39.81354806989" lon="3.114843372717">
        <ele>1.2</ele>
        <time>2014-05-03T16:31:25Z</time>
      </trkpt>
      <trkpt lat="39.813625853922" lon="3.11481546099">
        <ele>0.6</ele>
        <time>2014-05-03T16:31:26Z</time>
      </trkpt>
      <trkpt lat="39.813697519167" lon="3.114794757697">
        <ele>0.2</ele>
        <time>2014-05-03T16:31:27Z</time>
      </trkpt>
      <trkpt lat="39.813769938783" lon="3.114771539834">
        <ele>0.6</ele>
        <time>2014-05-03T16:31:28Z</time>
      </trkpt>
      <trkpt lat="39.813839005639" lon="3.114748657247">
        <ele>1</ele>
        <time>2014-05-03T16:31:29Z</time>
      </trkpt>
      <trkpt lat="39.813912179626" lon="3.11472409828">
        <ele>1.4</ele>
        <time>2014-05-03T16:31:30Z</time>
      </trkpt>
      <trkpt lat="39.81398225231" lon="3.114700796598">
        <ele>1.2</ele>
        <time>2014-05-03T16:31:31Z</time>
      </trkpt>
      <trkpt lat="39.814051319166" lon="3.11467632145">
        <ele>0.8</ele>
        <time>2014-05-03T16:31:32Z</time>
      </trkpt>
      <trkpt lat="39.814124828429" lon="3.114654696148">
        <ele>0.4</ele>
        <time>2014-05-03T16:31:33Z</time>
      </trkpt>
      <trkpt lat="39.81420018171" lon="3.114632316475">
        <ele>0.8</ele>
        <time>2014-05-03T16:31:34Z</time>
      </trkpt>
      <trkpt lat="39.814273020421" lon="3.11461178082">
        <ele>1.2</ele>
        <time>2014-05-03T16:31:35Z</time>
      </trkpt>
      <trkpt lat="39.81434686496" lon="3.114589820242">
        <ele>1.6</ele>
        <time>2014-05-03T16:31:36Z</time>
      </trkpt>
      <trkpt lat="39.814418446386" lon="3.114570625691">
        <ele>1.8</ele>
        <time>2014-05-03T16:31:37Z</time>
      </trkpt>
      <trkpt lat="39.81448935726" lon="3.11455143114">
        <ele>2.2</ele>
        <time>2014-05-03T16:31:38Z</time>
      </trkpt>
      <trkpt lat="39.814883390379" lon="3.114421008776">
        <ele>2.2</ele>
        <time>2014-05-03T16:31:44Z</time>
      </trkpt>
      <trkpt lat="39.814987912672" lon="3.114396617447">
        <ele>2.2</ele>
        <time>2014-05-03T16:31:46Z</time>
      </trkpt>
      <trkpt lat="39.815038120253" lon="3.114399467293">
        <ele>2.2</ele>
        <time>2014-05-03T16:31:47Z</time>
      </trkpt>
      <trkpt lat="39.815087573463" lon="3.114406843365">
        <ele>2.2</ele>
        <time>2014-05-03T16:31:48Z</time>
      </trkpt>
      <trkpt lat="39.815132416628" lon="3.114409860849">
        <ele>2.2</ele>
        <time>2014-05-03T16:31:49Z</time>
      </trkpt>
      <trkpt lat="39.815171560101" lon="3.114399383474">
        <ele>2.2</ele>
        <time>2014-05-03T16:31:50Z</time>
      </trkpt>
      <trkpt lat="39.81520517152" lon="3.114378847819">
        <ele>2.2</ele>
        <time>2014-05-03T16:31:51Z</time>
      </trkpt>
      <trkpt lat="39.815242470975" lon="3.114350014083">
        <ele>2.2</ele>
        <time>2014-05-03T16:31:52Z</time>
      </trkpt>
      <trkpt lat="39.815284380475" lon="3.11431925251">
        <ele>2.2</ele>
        <time>2014-05-03T16:31:53Z</time>
      </trkpt>
      <trkpt lat="39.815324613595" lon="3.114298213941">
        <ele>2.2</ele>
        <time>2014-05-03T16:31:54Z</time>
      </trkpt>
      <trkpt lat="39.815397871401" lon="3.114264518703">
        <ele>2.2</ele>
        <time>2014-05-03T16:31:56Z</time>
      </trkpt>
      <trkpt lat="39.815441205824" lon="3.114249934197">
        <ele>2.2</ele>
        <time>2014-05-03T16:31:57Z</time>
      </trkpt>
      <trkpt lat="39.815536340389" lon="3.114219591719">
        <ele>2.2</ele>
        <time>2014-05-03T16:31:59Z</time>
      </trkpt>
      <trkpt lat="39.81558822435" lon="3.114199810435">
        <ele>2.2</ele>
        <time>2014-05-03T16:32:00Z</time>
      </trkpt>
      <trkpt lat="39.815694255385" lon="3.114164271179">
        <ele>2.2</ele>
        <time>2014-05-03T16:32:02Z</time>
      </trkpt>
      <trkpt lat="39.815747899545" lon="3.114145076628">
        <ele>2.2</ele>
        <time>2014-05-03T16:32:03Z</time>
      </trkpt>
      <trkpt lat="39.815803555361" lon="3.114120098566">
        <ele>2.2</ele>
        <time>2014-05-03T16:32:04Z</time>
      </trkpt>
      <trkpt lat="39.815866335792" lon="3.114098389445">
        <ele>2.2</ele>
        <time>2014-05-03T16:32:05Z</time>
      </trkpt>
      <trkpt lat="39.815928948585" lon="3.114076596505">
        <ele>2.2</ele>
        <time>2014-05-03T16:32:06Z</time>
      </trkpt>
      <trkpt lat="39.816060879691" lon="3.114033345901">
        <ele>2.2</ele>
        <time>2014-05-03T16:32:08Z</time>
      </trkpt>
      <trkpt lat="39.816124749769" lon="3.11402840058">
        <ele>2.2</ele>
        <time>2014-05-03T16:32:09Z</time>
      </trkpt>
      <trkpt lat="39.816191804969" lon="3.114017420291">
        <ele>1.8</ele>
        <time>2014-05-03T16:32:10Z</time>
      </trkpt>
      <trkpt lat="39.816264476042" lon="3.114004260708">
        <ele>0.8</ele>
        <time>2014-05-03T16:32:11Z</time>
      </trkpt>
      <trkpt lat="39.816332201794" lon="3.11398900565">
        <ele>0.2</ele>
        <time>2014-05-03T16:32:12Z</time>
      </trkpt>
      <trkpt lat="39.816409566731" lon="3.113975343153">
        <ele>0</ele>
        <time>2014-05-03T16:32:13Z</time>
      </trkpt>
      <trkpt lat="39.816572762324" lon="3.113957908801">
        <ele>0</ele>
        <time>2014-05-03T16:32:15Z</time>
      </trkpt>
      <trkpt lat="39.816655994591" lon="3.113950868005">
        <ele>0</ele>
        <time>2014-05-03T16:32:16Z</time>
      </trkpt>
      <trkpt lat="39.816736963745" lon="3.113949778358">
        <ele>0</ele>
        <time>2014-05-03T16:32:17Z</time>
      </trkpt>
      <trkpt lat="39.816817429985" lon="3.113958076439">
        <ele>0</ele>
        <time>2014-05-03T16:32:18Z</time>
      </trkpt>
      <trkpt lat="39.816897058035" lon="3.113970314013">
        <ele>0</ele>
        <time>2014-05-03T16:32:19Z</time>
      </trkpt>
      <trkpt lat="39.816979703569" lon="3.113979869379">
        <ele>0</ele>
        <time>2014-05-03T16:32:20Z</time>
      </trkpt>
      <trkpt lat="39.817060421266" lon="3.113989508564">
        <ele>0</ele>
        <time>2014-05-03T16:32:21Z</time>
      </trkpt>
      <trkpt lat="39.817218587719" lon="3.114015660092">
        <ele>0</ele>
        <time>2014-05-03T16:32:23Z</time>
      </trkpt>
      <trkpt lat="39.81737021629" lon="3.114042817448">
        <ele>0</ele>
        <time>2014-05-03T16:32:25Z</time>
      </trkpt>
      <trkpt lat="39.81744816796" lon="3.114058323963">
        <ele>0</ele>
        <time>2014-05-03T16:32:26Z</time>
      </trkpt>
      <trkpt lat="39.817524527069" lon="3.114068382243">
        <ele>0</ele>
        <time>2014-05-03T16:32:27Z</time>
      </trkpt>
      <trkpt lat="39.817602143463" lon="3.114079362532">
        <ele>0</ele>
        <time>2014-05-03T16:32:28Z</time>
      </trkpt>
      <trkpt lat="39.817764919961" lon="3.114107106621">
        <ele>0</ele>
        <time>2014-05-03T16:32:30Z</time>
      </trkpt>
      <trkpt lat="39.817927277364" lon="3.114141053316">
        <ele>0</ele>
        <time>2014-05-03T16:32:32Z</time>
      </trkpt>
      <trkpt lat="39.818005396672" lon="3.114157230383">
        <ele>0</ele>
        <time>2014-05-03T16:32:33Z</time>
      </trkpt>
      <trkpt lat="39.818084521808" lon="3.114168210672">
        <ele>0</ele>
        <time>2014-05-03T16:32:34Z</time>
      </trkpt>
      <trkpt lat="39.81816649679" lon="3.114181034979">
        <ele>0</ele>
        <time>2014-05-03T16:32:35Z</time>
      </trkpt>
      <trkpt lat="39.81824863941" lon="3.114195451847">
        <ele>0</ele>
        <time>2014-05-03T16:32:36Z</time>
      </trkpt>
      <trkpt lat="39.818329440926" lon="3.114211209819">
        <ele>0</ele>
        <time>2014-05-03T16:32:37Z</time>
      </trkpt>
      <trkpt lat="39.818565307592" lon="3.114250269473">
        <ele>0</ele>
        <time>2014-05-03T16:32:40Z</time>
      </trkpt>
      <trkpt lat="39.818643007805" lon="3.114262171771">
        <ele>0</ele>
        <time>2014-05-03T16:32:41Z</time>
      </trkpt>
      <trkpt lat="39.818722132941" lon="3.114274576983">
        <ele>0</ele>
        <time>2014-05-03T16:32:42Z</time>
      </trkpt>
      <trkpt lat="39.81880435938" lon="3.114288742394">
        <ele>0</ele>
        <time>2014-05-03T16:32:43Z</time>
      </trkpt>
      <trkpt lat="39.818883233059" lon="3.114302572529">
        <ele>0</ele>
        <time>2014-05-03T16:32:44Z</time>
      </trkpt>
      <trkpt lat="39.818961771462" lon="3.114314977741">
        <ele>0</ele>
        <time>2014-05-03T16:32:45Z</time>
      </trkpt>
      <trkpt lat="39.819278188187" lon="3.114378093448">
        <ele>0</ele>
        <time>2014-05-03T16:32:49Z</time>
      </trkpt>
      <trkpt lat="39.819359827893" lon="3.114391001574">
        <ele>0</ele>
        <time>2014-05-03T16:32:50Z</time>
      </trkpt>
      <trkpt lat="39.819520425097" lon="3.114416566369">
        <ele>0</ele>
        <time>2014-05-03T16:32:52Z</time>
      </trkpt>
      <trkpt lat="39.819750508252" lon="3.114459481697">
        <ele>0</ele>
        <time>2014-05-03T16:32:55Z</time>
      </trkpt>
      <trkpt lat="39.820329110809" lon="3.114551012045">
        <ele>0</ele>
        <time>2014-05-03T16:33:02Z</time>
      </trkpt>
      <trkpt lat="39.820481074656" lon="3.114577079754">
        <ele>0</ele>
        <time>2014-05-03T16:33:04Z</time>
      </trkpt>
      <trkpt lat="39.820558188136" lon="3.114590071699">
        <ele>0</ele>
        <time>2014-05-03T16:33:05Z</time>
      </trkpt>
      <trkpt lat="39.820635301616" lon="3.114606164947">
        <ele>0</ele>
        <time>2014-05-03T16:33:06Z</time>
      </trkpt>
      <trkpt lat="39.820713923838" lon="3.114619575987">
        <ele>0</ele>
        <time>2014-05-03T16:33:07Z</time>
      </trkpt>
      <trkpt lat="39.820792043146" lon="3.11463189738">
        <ele>0</ele>
        <time>2014-05-03T16:33:08Z</time>
      </trkpt>
      <trkpt lat="39.820869240445" lon="3.114645476058">
        <ele>0</ele>
        <time>2014-05-03T16:33:09Z</time>
      </trkpt>
      <trkpt lat="39.820943252622" lon="3.114660144383">
        <ele>0</ele>
        <time>2014-05-03T16:33:10Z</time>
      </trkpt>
      <trkpt lat="39.821015839876" lon="3.114675147984">
        <ele>0</ele>
        <time>2014-05-03T16:33:11Z</time>
      </trkpt>
      <trkpt lat="39.821243659918" lon="3.114719823511">
        <ele>0</ele>
        <time>2014-05-03T16:33:14Z</time>
      </trkpt>
      <trkpt lat="39.821397635421" lon="3.114751004179">
        <ele>0</ele>
        <time>2014-05-03T16:33:16Z</time>
      </trkpt>
      <trkpt lat="39.821472653426" lon="3.114766343056">
        <ele>0</ele>
        <time>2014-05-03T16:33:17Z</time>
      </trkpt>
      <trkpt lat="39.821547922888" lon="3.11477690425">
        <ele>0</ele>
        <time>2014-05-03T16:33:18Z</time>
      </trkpt>
      <trkpt lat="39.821620426323" lon="3.114788806548">
        <ele>0</ele>
        <time>2014-05-03T16:33:19Z</time>
      </trkpt>
      <trkpt lat="39.821692175387" lon="3.114803474873">
        <ele>0</ele>
        <time>2014-05-03T16:33:20Z</time>
      </trkpt>
      <trkpt lat="39.821765433193" lon="3.114817556465">
        <ele>0</ele>
        <time>2014-05-03T16:33:21Z</time>
      </trkpt>
      <trkpt lat="39.82184279813" lon="3.114830967505">
        <ele>0</ele>
        <time>2014-05-03T16:33:22Z</time>
      </trkpt>
      <trkpt lat="39.821998785289" lon="3.114860304155">
        <ele>0</ele>
        <time>2014-05-03T16:33:24Z</time>
      </trkpt>
      <trkpt lat="39.822077658968" lon="3.114873882833">
        <ele>0</ele>
        <time>2014-05-03T16:33:25Z</time>
      </trkpt>
      <trkpt lat="39.822156867923" lon="3.114890227538">
        <ele>0</ele>
        <time>2014-05-03T16:33:26Z</time>
      </trkpt>
      <trkpt lat="39.822236076878" lon="3.114906907519">
        <ele>0</ele>
        <time>2014-05-03T16:33:27Z</time>
      </trkpt>
      <trkpt lat="39.822313693272" lon="3.114920402378">
        <ele>0</ele>
        <time>2014-05-03T16:33:28Z</time>
      </trkpt>
      <trkpt lat="39.822390303838" lon="3.114929035735">
        <ele>0</ele>
        <time>2014-05-03T16:33:29Z</time>
      </trkpt>
      <trkpt lat="39.822467836413" lon="3.114943787879">
        <ele>0</ele>
        <time>2014-05-03T16:33:30Z</time>
      </trkpt>
      <trkpt lat="39.822542602961" lon="3.114957869471">
        <ele>0</ele>
        <time>2014-05-03T16:33:31Z</time>
      </trkpt>
      <trkpt lat="39.822622147192" lon="3.1149738789">
        <ele>0</ele>
        <time>2014-05-03T16:33:32Z</time>
      </trkpt>
      <trkpt lat="39.822702864889" lon="3.114991229433">
        <ele>0</ele>
        <time>2014-05-03T16:33:33Z</time>
      </trkpt>
      <trkpt lat="39.822785845699" lon="3.115008663785">
        <ele>0</ele>
        <time>2014-05-03T16:33:34Z</time>
      </trkpt>
      <trkpt lat="39.823021880003" lon="3.115051243837">
        <ele>0</ele>
        <time>2014-05-03T16:33:37Z</time>
      </trkpt>
      <trkpt lat="39.823096646551" lon="3.115068007637">
        <ele>0</ele>
        <time>2014-05-03T16:33:38Z</time>
      </trkpt>
      <trkpt lat="39.8231780348" lon="3.11508451998">
        <ele>0</ele>
        <time>2014-05-03T16:33:39Z</time>
      </trkpt>
      <trkpt lat="39.823257243755" lon="3.115099104486">
        <ele>0</ele>
        <time>2014-05-03T16:33:40Z</time>
      </trkpt>
      <trkpt lat="39.823560668535" lon="3.115154592664">
        <ele>0</ele>
        <time>2014-05-03T16:33:44Z</time>
      </trkpt>
      <trkpt lat="39.823637027644" lon="3.115168841894">
        <ele>0</ele>
        <time>2014-05-03T16:33:45Z</time>
      </trkpt>
      <trkpt lat="39.823714895495" lon="3.115179906002">
        <ele>0</ele>
        <time>2014-05-03T16:33:46Z</time>
      </trkpt>
      <trkpt lat="39.82379578083" lon="3.115193819956">
        <ele>0</ele>
        <time>2014-05-03T16:33:47Z</time>
      </trkpt>
      <trkpt lat="39.823872475215" lon="3.115206560444">
        <ele>0</ele>
        <time>2014-05-03T16:33:48Z</time>
      </trkpt>
      <trkpt lat="39.824107838967" lon="3.11524293789">
        <ele>0</ele>
        <time>2014-05-03T16:33:51Z</time>
      </trkpt>
      <trkpt lat="39.824189562492" lon="3.115254924007">
        <ele>0</ele>
        <time>2014-05-03T16:33:52Z</time>
      </trkpt>
      <trkpt lat="39.824267597981" lon="3.115268335047">
        <ele>0</ele>
        <time>2014-05-03T16:33:53Z</time>
      </trkpt>
      <trkpt lat="39.82434479528" lon="3.115282500458">
        <ele>0</ele>
        <time>2014-05-03T16:33:54Z</time>
      </trkpt>
      <trkpt lat="39.824426015891" lon="3.115297336421">
        <ele>0</ele>
        <time>2014-05-03T16:33:55Z</time>
      </trkpt>
      <trkpt lat="39.824501704448" lon="3.115314016402">
        <ele>0</ele>
        <time>2014-05-03T16:33:56Z</time>
      </trkpt>
      <trkpt lat="39.824575968082" lon="3.115331869849">
        <ele>0</ele>
        <time>2014-05-03T16:33:57Z</time>
      </trkpt>
      <trkpt lat="39.824737654933" lon="3.115357937558">
        <ele>0</ele>
        <time>2014-05-03T16:33:59Z</time>
      </trkpt>
      <trkpt lat="39.824820384286" lon="3.115370510408">
        <ele>0</ele>
        <time>2014-05-03T16:34:00Z</time>
      </trkpt>
      <trkpt lat="39.824901521078" lon="3.115383586172">
        <ele>0</ele>
        <time>2014-05-03T16:34:01Z</time>
      </trkpt>
      <trkpt lat="39.824986345906" lon="3.115393309176">
        <ele>0</ele>
        <time>2014-05-03T16:34:02Z</time>
      </trkpt>
      <trkpt lat="39.82506647687" lon="3.115405295293">
        <ele>0</ele>
        <time>2014-05-03T16:34:03Z</time>
      </trkpt>
      <trkpt lat="39.825225481513" lon="3.115434799581">
        <ele>0</ele>
        <time>2014-05-03T16:34:05Z</time>
      </trkpt>
      <trkpt lat="39.825781033845" lon="3.115525240282">
        <ele>0</ele>
        <time>2014-05-03T16:34:12Z</time>
      </trkpt>
      <trkpt lat="39.826181604846" lon="3.115596989346">
        <ele>0</ele>
        <time>2014-05-03T16:34:17Z</time>
      </trkpt>
      <trkpt lat="39.826265172389" lon="3.115613501689">
        <ele>0</ele>
        <time>2014-05-03T16:34:18Z</time>
      </trkpt>
      <trkpt lat="39.826342537326" lon="3.115630265489">
        <ele>0</ele>
        <time>2014-05-03T16:34:19Z</time>
      </trkpt>
      <trkpt lat="39.826496931924" lon="3.115662619623">
        <ele>0</ele>
        <time>2014-05-03T16:34:21Z</time>
      </trkpt>
      <trkpt lat="39.826575973241" lon="3.115680975984">
        <ele>0</ele>
        <time>2014-05-03T16:34:22Z</time>
      </trkpt>
      <trkpt lat="39.826657193852" lon="3.115696733956">
        <ele>0</ele>
        <time>2014-05-03T16:34:23Z</time>
      </trkpt>
      <trkpt lat="39.82673866592" lon="3.115712575747">
        <ele>0</ele>
        <time>2014-05-03T16:34:24Z</time>
      </trkpt>
      <trkpt lat="39.826822820196" lon="3.115730261556">
        <ele>0</ele>
        <time>2014-05-03T16:34:25Z</time>
      </trkpt>
      <trkpt lat="39.827378959261" lon="3.115834364754">
        <ele>0</ele>
        <time>2014-05-03T16:34:32Z</time>
      </trkpt>
      <trkpt lat="39.827718929125" lon="3.115896558452">
        <ele>0</ele>
        <time>2014-05-03T16:34:36Z</time>
      </trkpt>
      <trkpt lat="39.827802748125" lon="3.115910807682">
        <ele>0</ele>
        <time>2014-05-03T16:34:37Z</time>
      </trkpt>
      <trkpt lat="39.828059150446" lon="3.115959338883">
        <ele>0</ele>
        <time>2014-05-03T16:34:40Z</time>
      </trkpt>
      <trkpt lat="39.828151267527" lon="3.115976605597">
        <ele>0</ele>
        <time>2014-05-03T16:34:41Z</time>
      </trkpt>
      <trkpt lat="39.82823651145" lon="3.115993285578">
        <ele>0</ele>
        <time>2014-05-03T16:34:42Z</time>
      </trkpt>
      <trkpt lat="39.828323264115" lon="3.116009295007">
        <ele>0</ele>
        <time>2014-05-03T16:34:43Z</time>
      </trkpt>
      <trkpt lat="39.828410352056" lon="3.11602580735">
        <ele>0.6</ele>
        <time>2014-05-03T16:34:44Z</time>
      </trkpt>
      <trkpt lat="39.828499116377" lon="3.116042319693">
        <ele>0.6</ele>
        <time>2014-05-03T16:34:45Z</time>
      </trkpt>
      <trkpt lat="39.828585282309" lon="3.116059418769">
        <ele>0</ele>
        <time>2014-05-03T16:34:46Z</time>
      </trkpt>
      <trkpt lat="39.828665245635" lon="3.116079954424">
        <ele>0</ele>
        <time>2014-05-03T16:34:47Z</time>
      </trkpt>
      <trkpt lat="39.828744286952" lon="3.116101328269">
        <ele>0</ele>
        <time>2014-05-03T16:34:48Z</time>
      </trkpt>
      <trkpt lat="39.828830033789" lon="3.116121444829">
        <ele>0</ele>
        <time>2014-05-03T16:34:49Z</time>
      </trkpt>
      <trkpt lat="39.828912427866" lon="3.116141645208">
        <ele>0</ele>
        <time>2014-05-03T16:34:50Z</time>
      </trkpt>
      <trkpt lat="39.828988954613" lon="3.116161258854">
        <ele>0</ele>
        <time>2014-05-03T16:34:51Z</time>
      </trkpt>
      <trkpt lat="39.829066571007" lon="3.116185566364">
        <ele>0</ele>
        <time>2014-05-03T16:34:52Z</time>
      </trkpt>
      <trkpt lat="39.829300342198" lon="3.116277431988">
        <ele>0</ele>
        <time>2014-05-03T16:34:55Z</time>
      </trkpt>
      <trkpt lat="39.829385502302" lon="3.11630743919">
        <ele>0</ele>
        <time>2014-05-03T16:34:56Z</time>
      </trkpt>
      <trkpt lat="39.829466806732" lon="3.116333674537">
        <ele>0</ele>
        <time>2014-05-03T16:34:57Z</time>
      </trkpt>
      <trkpt lat="39.829858660557" lon="3.116449512395">
        <ele>0</ele>
        <time>2014-05-03T16:35:02Z</time>
      </trkpt>
      <trkpt lat="39.829935019666" lon="3.116470550964">
        <ele>0</ele>
        <time>2014-05-03T16:35:03Z</time>
      </trkpt>
      <trkpt lat="39.830253615685" lon="3.116577420189">
        <ele>0</ele>
        <time>2014-05-03T16:35:07Z</time>
      </trkpt>
      <trkpt lat="39.830490152903" lon="3.116651264728">
        <ele>0</ele>
        <time>2014-05-03T16:35:10Z</time>
      </trkpt>
      <trkpt lat="39.830569613315" lon="3.116679008817">
        <ele>0</ele>
        <time>2014-05-03T16:35:11Z</time>
      </trkpt>
      <trkpt lat="39.830642535845" lon="3.116704238336">
        <ele>0</ele>
        <time>2014-05-03T16:35:12Z</time>
      </trkpt>
      <trkpt lat="39.830787039801" lon="3.116750171148">
        <ele>0</ele>
        <time>2014-05-03T16:35:14Z</time>
      </trkpt>
      <trkpt lat="39.831171266097" lon="3.116882353711">
        <ele>0</ele>
        <time>2014-05-03T16:35:20Z</time>
      </trkpt>
      <trkpt lat="39.83122717337" lon="3.116903057004">
        <ele>0</ele>
        <time>2014-05-03T16:35:21Z</time>
      </trkpt>
      <trkpt lat="39.83128165572" lon="3.116923844116">
        <ele>0</ele>
        <time>2014-05-03T16:35:22Z</time>
      </trkpt>
      <trkpt lat="39.831335551337" lon="3.116942200477">
        <ele>0</ele>
        <time>2014-05-03T16:35:23Z</time>
      </trkpt>
      <trkpt lat="39.831385172185" lon="3.116960640657">
        <ele>0</ele>
        <time>2014-05-03T16:35:24Z</time>
      </trkpt>
      <trkpt lat="39.831431440273" lon="3.116981260131">
        <ele>0</ele>
        <time>2014-05-03T16:35:25Z</time>
      </trkpt>
      <trkpt lat="39.831480558207" lon="3.116995928456">
        <ele>0</ele>
        <time>2014-05-03T16:35:26Z</time>
      </trkpt>
      <trkpt lat="39.831525066096" lon="3.117015625921">
        <ele>0</ele>
        <time>2014-05-03T16:35:27Z</time>
      </trkpt>
      <trkpt lat="39.831571753279" lon="3.117050997539">
        <ele>0</ele>
        <time>2014-05-03T16:35:28Z</time>
      </trkpt>
      <trkpt lat="39.831621793222" lon="3.11709198503">
        <ele>0</ele>
        <time>2014-05-03T16:35:29Z</time>
      </trkpt>
      <trkpt lat="39.831679460694" lon="3.117117214549">
        <ele>0</ele>
        <time>2014-05-03T16:35:30Z</time>
      </trkpt>
      <trkpt lat="39.831813235818" lon="3.117134062168">
        <ele>0</ele>
        <time>2014-05-03T16:35:32Z</time>
      </trkpt>
      <trkpt lat="39.831884817244" lon="3.117144204267">
        <ele>0</ele>
        <time>2014-05-03T16:35:33Z</time>
      </trkpt>
      <trkpt lat="39.831952626815" lon="3.117160297515">
        <ele>0</ele>
        <time>2014-05-03T16:35:34Z</time>
      </trkpt>
      <trkpt lat="39.832083384455" lon="3.117195669133">
        <ele>0</ele>
        <time>2014-05-03T16:35:36Z</time>
      </trkpt>
      <trkpt lat="39.832148260361" lon="3.117213690218">
        <ele>0</ele>
        <time>2014-05-03T16:35:37Z</time>
      </trkpt>
      <trkpt lat="39.832350850884" lon="3.117273201708">
        <ele>0</ele>
        <time>2014-05-03T16:35:40Z</time>
      </trkpt>
      <trkpt lat="39.832421175025" lon="3.117294994648">
        <ele>0</ele>
        <time>2014-05-03T16:35:41Z</time>
      </trkpt>
      <trkpt lat="39.832488397863" lon="3.117315697941">
        <ele>0</ele>
        <time>2014-05-03T16:35:42Z</time>
      </trkpt>
      <trkpt lat="39.832561739488" lon="3.117338245252">
        <ele>0</ele>
        <time>2014-05-03T16:35:43Z</time>
      </trkpt>
      <trkpt lat="39.832638182416" lon="3.117364312961">
        <ele>0</ele>
        <time>2014-05-03T16:35:44Z</time>
      </trkpt>
      <trkpt lat="39.832711775498" lon="3.117394068706">
        <ele>0</ele>
        <time>2014-05-03T16:35:45Z</time>
      </trkpt>
      <trkpt lat="39.832858877843" lon="3.117443438097">
        <ele>0</ele>
        <time>2014-05-03T16:35:47Z</time>
      </trkpt>
      <trkpt lat="39.832931129821" lon="3.117471266005">
        <ele>0</ele>
        <time>2014-05-03T16:35:48Z</time>
      </trkpt>
      <trkpt lat="39.833083428944" lon="3.117523569061">
        <ele>0</ele>
        <time>2014-05-03T16:35:50Z</time>
      </trkpt>
      <trkpt lat="39.833161632071" lon="3.117550139684">
        <ele>0</ele>
        <time>2014-05-03T16:35:51Z</time>
      </trkpt>
      <trkpt lat="39.833494728777" lon="3.11767452708">
        <ele>0</ele>
        <time>2014-05-03T16:35:55Z</time>
      </trkpt>
      <trkpt lat="39.833886498783" lon="3.117795980811">
        <ele>0</ele>
        <time>2014-05-03T16:36:00Z</time>
      </trkpt>
      <trkpt lat="39.833961181512" lon="3.117816013552">
        <ele>0</ele>
        <time>2014-05-03T16:36:01Z</time>
      </trkpt>
      <trkpt lat="39.834034606956" lon="3.117836549207">
        <ele>0</ele>
        <time>2014-05-03T16:36:02Z</time>
      </trkpt>
      <trkpt lat="39.834111049884" lon="3.117858342147">
        <ele>0</ele>
        <time>2014-05-03T16:36:03Z</time>
      </trkpt>
      <trkpt lat="39.834187408993" lon="3.117881476191">
        <ele>0</ele>
        <time>2014-05-03T16:36:04Z</time>
      </trkpt>
      <trkpt lat="39.834268881061" lon="3.1179075439">
        <ele>0</ele>
        <time>2014-05-03T16:36:05Z</time>
      </trkpt>
      <trkpt lat="39.834345826903" lon="3.117932019048">
        <ele>0</ele>
        <time>2014-05-03T16:36:06Z</time>
      </trkpt>
      <trkpt lat="39.834421766917" lon="3.117956494196">
        <ele>0</ele>
        <time>2014-05-03T16:36:07Z</time>
      </trkpt>
      <trkpt lat="39.834641288878" lon="3.118029332907">
        <ele>0</ele>
        <time>2014-05-03T16:36:10Z</time>
      </trkpt>
      <trkpt lat="39.83509206746" lon="3.118219266761">
        <ele>0</ele>
        <time>2014-05-03T16:36:16Z</time>
      </trkpt>
      <trkpt lat="39.83544159269" lon="3.118414816488">
        <ele>0</ele>
        <time>2014-05-03T16:36:21Z</time>
      </trkpt>
      <trkpt lat="39.835511246279" lon="3.118454462875">
        <ele>0</ele>
        <time>2014-05-03T16:36:22Z</time>
      </trkpt>
      <trkpt lat="39.835717524838" lon="3.118572982941">
        <ele>0</ele>
        <time>2014-05-03T16:36:25Z</time>
      </trkpt>
      <trkpt lat="39.835936208609" lon="3.118707009522">
        <ele>0</ele>
        <time>2014-05-03T16:36:28Z</time>
      </trkpt>
      <trkpt lat="39.836463933033" lon="3.119028036292">
        <ele>0</ele>
        <time>2014-05-03T16:36:35Z</time>
      </trkpt>
      <trkpt lat="39.836866012776" lon="3.119269770288">
        <ele>0</ele>
        <time>2014-05-03T16:36:40Z</time>
      </trkpt>
      <trkpt lat="39.836943880627" lon="3.119317547118">
        <ele>0</ele>
        <time>2014-05-03T16:36:41Z</time>
      </trkpt>
      <trkpt lat="39.837019653003" lon="3.119365072491">
        <ele>0</ele>
        <time>2014-05-03T16:36:42Z</time>
      </trkpt>
      <trkpt lat="39.837237330946" lon="3.119501194547">
        <ele>0</ele>
        <time>2014-05-03T16:36:45Z</time>
      </trkpt>
      <trkpt lat="39.837374375011" lon="3.119586522289">
        <ele>0</ele>
        <time>2014-05-03T16:36:47Z</time>
      </trkpt>
      <trkpt lat="39.837514604198" lon="3.119667575262">
        <ele>0</ele>
        <time>2014-05-03T16:36:49Z</time>
      </trkpt>
      <trkpt lat="39.83765525248" lon="3.119760111438">
        <ele>0</ele>
        <time>2014-05-03T16:36:51Z</time>
      </trkpt>
      <trkpt lat="39.837723397327" lon="3.119805625155">
        <ele>0</ele>
        <time>2014-05-03T16:36:52Z</time>
      </trkpt>
      <trkpt lat="39.837791793631" lon="3.119846445008">
        <ele>0</ele>
        <time>2014-05-03T16:36:53Z</time>
      </trkpt>
      <trkpt lat="39.837857591546" lon="3.11989153963">
        <ele>0</ele>
        <time>2014-05-03T16:36:54Z</time>
      </trkpt>
      <trkpt lat="39.837923054185" lon="3.119929593456">
        <ele>0</ele>
        <time>2014-05-03T16:36:55Z</time>
      </trkpt>
      <trkpt lat="39.837990947575" lon="3.119964294522">
        <ele>0</ele>
        <time>2014-05-03T16:36:56Z</time>
      </trkpt>
      <trkpt lat="39.838123884509" lon="3.12003487012">
        <ele>0</ele>
        <time>2014-05-03T16:36:58Z</time>
      </trkpt>
      <trkpt lat="39.838186162026" lon="3.120074516507">
        <ele>0</ele>
        <time>2014-05-03T16:36:59Z</time>
      </trkpt>
      <trkpt lat="39.838250618837" lon="3.120112905609">
        <ele>0</ele>
        <time>2014-05-03T16:37:00Z</time>
      </trkpt>
      <trkpt lat="39.838315075648" lon="3.120154060738">
        <ele>0</ele>
        <time>2014-05-03T16:37:01Z</time>
      </trkpt>
      <trkpt lat="39.838378358993" lon="3.120192785116">
        <ele>0</ele>
        <time>2014-05-03T16:37:02Z</time>
      </trkpt>
      <trkpt lat="39.838558569843" lon="3.120304180567">
        <ele>0</ele>
        <time>2014-05-03T16:37:05Z</time>
      </trkpt>
      <trkpt lat="39.838624116301" lon="3.120346257705">
        <ele>0</ele>
        <time>2014-05-03T16:37:06Z</time>
      </trkpt>
      <trkpt lat="39.838686729094" lon="3.120386155549">
        <ele>0</ele>
        <time>2014-05-03T16:37:07Z</time>
      </trkpt>
      <trkpt lat="39.83875328138" lon="3.120431753085">
        <ele>0</ele>
        <time>2014-05-03T16:37:08Z</time>
      </trkpt>
      <trkpt lat="39.838892672377" lon="3.120528480211">
        <ele>0</ele>
        <time>2014-05-03T16:37:10Z</time>
      </trkpt>
      <trkpt lat="39.838965930183" lon="3.120573658652">
        <ele>0</ele>
        <time>2014-05-03T16:37:11Z</time>
      </trkpt>
      <trkpt lat="39.8390365896" lon="3.120616993075">
        <ele>0</ele>
        <time>2014-05-03T16:37:12Z</time>
      </trkpt>
      <trkpt lat="39.839108003388" lon="3.120662842068">
        <ele>0</ele>
        <time>2014-05-03T16:37:13Z</time>
      </trkpt>
      <trkpt lat="39.839182769936" lon="3.12071380402">
        <ele>0</ele>
        <time>2014-05-03T16:37:14Z</time>
      </trkpt>
      <trkpt lat="39.839254016086" lon="3.120761832307">
        <ele>0</ele>
        <time>2014-05-03T16:37:15Z</time>
      </trkpt>
      <trkpt lat="39.839392987988" lon="3.120857385967">
        <ele>0</ele>
        <time>2014-05-03T16:37:17Z</time>
      </trkpt>
      <trkpt lat="39.839455768419" lon="3.120903989331">
        <ele>0</ele>
        <time>2014-05-03T16:37:18Z</time>
      </trkpt>
      <trkpt lat="39.839511424235" lon="3.120953023446">
        <ele>0</ele>
        <time>2014-05-03T16:37:19Z</time>
      </trkpt>
      <trkpt lat="39.83965768839" lon="3.121090318968">
        <ele>0</ele>
        <time>2014-05-03T16:37:22Z</time>
      </trkpt>
      <trkpt lat="39.8397406692" lon="3.121190985587">
        <ele>0</ele>
        <time>2014-05-03T16:37:24Z</time>
      </trkpt>
      <trkpt lat="39.839787356383" lon="3.121227446852">
        <ele>0</ele>
        <time>2014-05-03T16:37:25Z</time>
      </trkpt>
      <trkpt lat="39.839839156525" lon="3.121249072154">
        <ele>0</ele>
        <time>2014-05-03T16:37:26Z</time>
      </trkpt>
      <trkpt lat="39.839891459581" lon="3.121247814869">
        <ele>0</ele>
        <time>2014-05-03T16:37:27Z</time>
      </trkpt>
      <trkpt lat="39.840018613004" lon="3.12120582155">
        <ele>0</ele>
        <time>2014-05-03T16:37:30Z</time>
      </trkpt>
      <trkpt lat="39.840073514449" lon="3.121205234817">
        <ele>0</ele>
        <time>2014-05-03T16:37:31Z</time>
      </trkpt>
      <trkpt lat="39.840196896017" lon="3.121259717167">
        <ele>0</ele>
        <time>2014-05-03T16:37:33Z</time>
      </trkpt>
      <trkpt lat="39.840262610113" lon="3.12129215512">
        <ele>0</ele>
        <time>2014-05-03T16:37:34Z</time>
      </trkpt>
      <trkpt lat="39.840334862091" lon="3.121326269453">
        <ele>0</ele>
        <time>2014-05-03T16:37:35Z</time>
      </trkpt>
      <trkpt lat="39.840405270051" lon="3.121373124274">
        <ele>0</ele>
        <time>2014-05-03T16:37:36Z</time>
      </trkpt>
      <trkpt lat="39.840476683839" lon="3.121412938299">
        <ele>0</ele>
        <time>2014-05-03T16:37:37Z</time>
      </trkpt>
      <trkpt lat="39.840931904828" lon="3.121688199895">
        <ele>0</ele>
        <time>2014-05-03T16:37:43Z</time>
      </trkpt>
      <trkpt lat="39.841006252281" lon="3.12173555763">
        <ele>0</ele>
        <time>2014-05-03T16:37:44Z</time>
      </trkpt>
      <trkpt lat="39.841076408784" lon="3.121783921193">
        <ele>0</ele>
        <time>2014-05-03T16:37:45Z</time>
      </trkpt>
      <trkpt lat="39.841139859767" lon="3.121830943652">
        <ele>0</ele>
        <time>2014-05-03T16:37:46Z</time>
      </trkpt>
      <trkpt lat="39.841202891655" lon="3.121874948627">
        <ele>0</ele>
        <time>2014-05-03T16:37:47Z</time>
      </trkpt>
      <trkpt lat="39.84126868957" lon="3.121918031593">
        <ele>0</ele>
        <time>2014-05-03T16:37:48Z</time>
      </trkpt>
      <trkpt lat="39.84133155382" lon="3.12195683979">
        <ele>0</ele>
        <time>2014-05-03T16:37:49Z</time>
      </trkpt>
      <trkpt lat="39.841542945338" lon="3.122075527494">
        <ele>0</ele>
        <time>2014-05-03T16:37:52Z</time>
      </trkpt>
      <trkpt lat="39.841612012194" lon="3.122113413682">
        <ele>0</ele>
        <time>2014-05-03T16:37:53Z</time>
      </trkpt>
      <trkpt lat="39.841678899756" lon="3.122150629318">
        <ele>0</ele>
        <time>2014-05-03T16:37:54Z</time>
      </trkpt>
      <trkpt lat="39.841749978268" lon="3.122189772791">
        <ele>0</ele>
        <time>2014-05-03T16:37:55Z</time>
      </trkpt>
      <trkpt lat="39.84182273316" lon="3.122237549621">
        <ele>0</ele>
        <time>2014-05-03T16:37:56Z</time>
      </trkpt>
      <trkpt lat="39.842111992529" lon="3.122420945593">
        <ele>0</ele>
        <time>2014-05-03T16:38:00Z</time>
      </trkpt>
      <trkpt lat="39.842483394518" lon="3.122648849454">
        <ele>0</ele>
        <time>2014-05-03T16:38:05Z</time>
      </trkpt>
      <trkpt lat="39.842552126098" lon="3.122694530809">
        <ele>0</ele>
        <time>2014-05-03T16:38:06Z</time>
      </trkpt>
      <trkpt lat="39.842621863506" lon="3.122735183024">
        <ele>0</ele>
        <time>2014-05-03T16:38:07Z</time>
      </trkpt>
      <trkpt lat="39.842687912878" lon="3.122773069212">
        <ele>0</ele>
        <time>2014-05-03T16:38:08Z</time>
      </trkpt>
      <trkpt lat="39.842760081037" lon="3.122818415291">
        <ele>0</ele>
        <time>2014-05-03T16:38:09Z</time>
      </trkpt>
      <trkpt lat="39.842836859241" lon="3.122865102474">
        <ele>0</ele>
        <time>2014-05-03T16:38:10Z</time>
      </trkpt>
      <trkpt lat="39.842915565282" lon="3.122914639503">
        <ele>0</ele>
        <time>2014-05-03T16:38:11Z</time>
      </trkpt>
      <trkpt lat="39.843068115862" lon="3.123009774068">
        <ele>0</ele>
        <time>2014-05-03T16:38:13Z</time>
      </trkpt>
      <trkpt lat="39.843145899894" lon="3.123058640545">
        <ele>0</ele>
        <time>2014-05-03T16:38:14Z</time>
      </trkpt>
      <trkpt lat="39.843219073881" lon="3.123104238081">
        <ele>0</ele>
        <time>2014-05-03T16:38:15Z</time>
      </trkpt>
      <trkpt lat="39.843423592241" lon="3.123230134219">
        <ele>0</ele>
        <time>2014-05-03T16:38:18Z</time>
      </trkpt>
      <trkpt lat="39.84349324583" lon="3.123270451158">
        <ele>0</ele>
        <time>2014-05-03T16:38:19Z</time>
      </trkpt>
      <trkpt lat="39.843710504678" lon="3.123392491622">
        <ele>0</ele>
        <time>2014-05-03T16:38:22Z</time>
      </trkpt>
      <trkpt lat="39.843789462176" lon="3.123435239312">
        <ele>0</ele>
        <time>2014-05-03T16:38:23Z</time>
      </trkpt>
      <trkpt lat="39.84386624038" lon="3.123482513228">
        <ele>0</ele>
        <time>2014-05-03T16:38:24Z</time>
      </trkpt>
      <trkpt lat="39.843945197878" lon="3.123527691669">
        <ele>0</ele>
        <time>2014-05-03T16:38:25Z</time>
      </trkpt>
      <trkpt lat="39.844027759593" lon="3.123576306689">
        <ele>0</ele>
        <time>2014-05-03T16:38:26Z</time>
      </trkpt>
      <trkpt lat="39.84410093358" lon="3.123622742415">
        <ele>0</ele>
        <time>2014-05-03T16:38:27Z</time>
      </trkpt>
      <trkpt lat="39.844173520834" lon="3.123665406286">
        <ele>0</ele>
        <time>2014-05-03T16:38:28Z</time>
      </trkpt>
      <trkpt lat="39.844244934622" lon="3.123705974682">
        <ele>0</ele>
        <time>2014-05-03T16:38:29Z</time>
      </trkpt>
      <trkpt lat="39.844319617351" lon="3.123747045992">
        <ele>0</ele>
        <time>2014-05-03T16:38:30Z</time>
      </trkpt>
      <trkpt lat="39.844392539881" lon="3.123793481718">
        <ele>0</ele>
        <time>2014-05-03T16:38:31Z</time>
      </trkpt>
      <trkpt lat="39.844465462411" lon="3.123840001263">
        <ele>0</ele>
        <time>2014-05-03T16:38:32Z</time>
      </trkpt>
      <trkpt lat="39.844537043837" lon="3.123885012066">
        <ele>0</ele>
        <time>2014-05-03T16:38:33Z</time>
      </trkpt>
      <trkpt lat="39.844616588068" lon="3.123928095032">
        <ele>0</ele>
        <time>2014-05-03T16:38:34Z</time>
      </trkpt>
      <trkpt lat="39.844692108987" lon="3.123970507446">
        <ele>0</ele>
        <time>2014-05-03T16:38:35Z</time>
      </trkpt>
      <trkpt lat="39.844770395933" lon="3.12401375805">
        <ele>0</ele>
        <time>2014-05-03T16:38:36Z</time>
      </trkpt>
      <trkpt lat="39.844927891834" lon="3.124095733032">
        <ele>0</ele>
        <time>2014-05-03T16:38:38Z</time>
      </trkpt>
      <trkpt lat="39.845148084347" lon="3.124225065749">
        <ele>0</ele>
        <time>2014-05-03T16:38:41Z</time>
      </trkpt>
      <trkpt lat="39.845222850895" lon="3.124271669113">
        <ele>0</ele>
        <time>2014-05-03T16:38:42Z</time>
      </trkpt>
      <trkpt lat="39.845292085389" lon="3.124314584441">
        <ele>0</ele>
        <time>2014-05-03T16:38:43Z</time>
      </trkpt>
      <trkpt lat="39.845358721494" lon="3.12435657776">
        <ele>0</ele>
        <time>2014-05-03T16:38:44Z</time>
      </trkpt>
      <trkpt lat="39.845739008297" lon="3.124602418887">
        <ele>0</ele>
        <time>2014-05-03T16:38:50Z</time>
      </trkpt>
      <trkpt lat="39.845792820095" lon="3.124660170178">
        <ele>0</ele>
        <time>2014-05-03T16:38:51Z</time>
      </trkpt>
      <trkpt lat="39.845833807586" lon="3.124732505975">
        <ele>0</ele>
        <time>2014-05-03T16:38:52Z</time>
      </trkpt>
      <trkpt lat="39.845878986027" lon="3.124805260867">
        <ele>0</ele>
        <time>2014-05-03T16:38:53Z</time>
      </trkpt>
      <trkpt lat="39.84593237873" lon="3.124868460393">
        <ele>0</ele>
        <time>2014-05-03T16:38:54Z</time>
      </trkpt>
      <trkpt lat="39.846066321492" lon="3.124905005477">
        <ele>0</ele>
        <time>2014-05-03T16:38:56Z</time>
      </trkpt>
      <trkpt lat="39.846190373612" lon="3.124794196759">
        <ele>0</ele>
        <time>2014-05-03T16:38:58Z</time>
      </trkpt>
      <trkpt lat="39.846249130731" lon="3.124538045895">
        <ele>0</ele>
        <time>2014-05-03T16:39:01Z</time>
      </trkpt>
      <trkpt lat="39.846259189011" lon="3.124450790316">
        <ele>0</ele>
        <time>2014-05-03T16:39:02Z</time>
      </trkpt>
      <trkpt lat="39.846280730494" lon="3.124365881669">
        <ele>0</ele>
        <time>2014-05-03T16:39:03Z</time>
      </trkpt>
      <trkpt lat="39.846323645822" lon="3.124290612207">
        <ele>0</ele>
        <time>2014-05-03T16:39:04Z</time>
      </trkpt>
      <trkpt lat="39.846378714905" lon="3.124212241442">
        <ele>0</ele>
        <time>2014-05-03T16:39:05Z</time>
      </trkpt>
      <trkpt lat="39.846661352573" lon="3.123781076506">
        <ele>0</ele>
        <time>2014-05-03T16:39:11Z</time>
      </trkpt>
      <trkpt lat="39.846745925944" lon="3.123653168712">
        <ele>0</ele>
        <time>2014-05-03T16:39:13Z</time>
      </trkpt>
      <trkpt lat="39.846789092729" lon="3.12359298667">
        <ele>0</ele>
        <time>2014-05-03T16:39:14Z</time>
      </trkpt>
      <trkpt lat="39.846951869227" lon="3.12334823519">
        <ele>0.4</ele>
        <time>2014-05-03T16:39:18Z</time>
      </trkpt>
      <trkpt lat="39.846992940537" lon="3.123285873854">
        <ele>0.8</ele>
        <time>2014-05-03T16:39:19Z</time>
      </trkpt>
      <trkpt lat="39.847037532245" lon="3.1232216685">
        <ele>1.4</ele>
        <time>2014-05-03T16:39:20Z</time>
      </trkpt>
      <trkpt lat="39.847079190288" lon="3.123157630784">
        <ele>1.8</ele>
        <time>2014-05-03T16:39:21Z</time>
      </trkpt>
      <trkpt lat="39.847121686521" lon="3.12309761638">
        <ele>2.4</ele>
        <time>2014-05-03T16:39:22Z</time>
      </trkpt>
      <trkpt lat="39.847240458044" lon="3.122938192642">
        <ele>2.8</ele>
        <time>2014-05-03T16:39:25Z</time>
      </trkpt>
      <trkpt lat="39.847278847146" lon="3.12288220155">
        <ele>3.2</ele>
        <time>2014-05-03T16:39:26Z</time>
      </trkpt>
      <trkpt lat="39.8473179068" lon="3.122824953173">
        <ele>3.8</ele>
        <time>2014-05-03T16:39:27Z</time>
      </trkpt>
      <trkpt lat="39.847355792988" lon="3.122768291529">
        <ele>4.6</ele>
        <time>2014-05-03T16:39:28Z</time>
      </trkpt>
      <trkpt lat="39.847389907321" lon="3.122703331804">
        <ele>4.6</ele>
        <time>2014-05-03T16:39:29Z</time>
      </trkpt>
      <trkpt lat="39.84741681322" lon="3.12263409731">
        <ele>4.6</ele>
        <time>2014-05-03T16:39:30Z</time>
      </trkpt>
      <trkpt lat="39.847459477091" lon="3.122496550331">
        <ele>5.2</ele>
        <time>2014-05-03T16:39:32Z</time>
      </trkpt>
      <trkpt lat="39.847475989434" lon="3.122420694136">
        <ele>5.6</ele>
        <time>2014-05-03T16:39:33Z</time>
      </trkpt>
      <trkpt lat="39.847501805686" lon="3.122347687787">
        <ele>6.2</ele>
        <time>2014-05-03T16:39:34Z</time>
      </trkpt>
      <trkpt lat="39.847530387965" lon="3.122255822163">
        <ele>6.6</ele>
        <time>2014-05-03T16:39:35Z</time>
      </trkpt>
      <trkpt lat="39.847567268325" lon="3.122183905461">
        <ele>7.2</ele>
        <time>2014-05-03T16:39:36Z</time>
      </trkpt>
      <trkpt lat="39.847725937692" lon="3.122014088167">
        <ele>7.2</ele>
        <time>2014-05-03T16:39:39Z</time>
      </trkpt>
      <trkpt lat="39.847831549632" lon="3.121933119013">
        <ele>7.6</ele>
        <time>2014-05-03T16:39:41Z</time>
      </trkpt>
      <trkpt lat="39.847883098317" lon="3.121893304988">
        <ele>8</ele>
        <time>2014-05-03T16:39:42Z</time>
      </trkpt>
      <trkpt lat="39.847943615635" lon="3.121852736592">
        <ele>8.6</ele>
        <time>2014-05-03T16:39:43Z</time>
      </trkpt>
      <trkpt lat="39.848002456573" lon="3.121810575635">
        <ele>9</ele>
        <time>2014-05-03T16:39:44Z</time>
      </trkpt>
      <trkpt lat="39.848060040226" lon="3.121772354171">
        <ele>9.4</ele>
        <time>2014-05-03T16:39:45Z</time>
      </trkpt>
      <trkpt lat="39.848443260694" lon="3.121519053153">
        <ele>9.4</ele>
        <time>2014-05-03T16:39:51Z</time>
      </trkpt>
      <trkpt lat="39.848568318642" lon="3.121431881393">
        <ele>9.4</ele>
        <time>2014-05-03T16:39:53Z</time>
      </trkpt>
      <trkpt lat="39.848632021082" lon="3.121392235006">
        <ele>9.4</ele>
        <time>2014-05-03T16:39:54Z</time>
      </trkpt>
      <trkpt lat="39.848698238092" lon="3.121350744601">
        <ele>9.4</ele>
        <time>2014-05-03T16:39:55Z</time>
      </trkpt>
      <trkpt lat="39.848837712908" lon="3.121272457655">
        <ele>9.4</ele>
        <time>2014-05-03T16:39:57Z</time>
      </trkpt>
      <trkpt lat="39.84906301838" lon="3.121151506838">
        <ele>9.4</ele>
        <time>2014-05-03T16:40:00Z</time>
      </trkpt>
      <trkpt lat="39.849134599806" lon="3.121108507691">
        <ele>9.4</ele>
        <time>2014-05-03T16:40:01Z</time>
      </trkpt>
      <trkpt lat="39.849266279455" lon="3.121015971515">
        <ele>9.4</ele>
        <time>2014-05-03T16:40:03Z</time>
      </trkpt>
      <trkpt lat="39.849328556972" lon="3.120968949056">
        <ele>9.4</ele>
        <time>2014-05-03T16:40:04Z</time>
      </trkpt>
      <trkpt lat="39.849663497696" lon="3.120693016908">
        <ele>9.4</ele>
        <time>2014-05-03T16:40:09Z</time>
      </trkpt>
      <trkpt lat="39.849730469077" lon="3.120637444911">
        <ele>9.4</ele>
        <time>2014-05-03T16:40:10Z</time>
      </trkpt>
      <trkpt lat="39.849863322192" lon="3.120527809659">
        <ele>9.4</ele>
        <time>2014-05-03T16:40:12Z</time>
      </trkpt>
      <trkpt lat="39.849998689877" lon="3.120414067276">
        <ele>9.4</ele>
        <time>2014-05-03T16:40:14Z</time>
      </trkpt>
      <trkpt lat="39.850067756733" lon="3.120356315985">
        <ele>9.4</ele>
        <time>2014-05-03T16:40:15Z</time>
      </trkpt>
      <trkpt lat="39.850135817761" lon="3.120299319065">
        <ele>9.4</ele>
        <time>2014-05-03T16:40:16Z</time>
      </trkpt>
      <trkpt lat="39.850205387531" lon="3.120243998525">
        <ele>8.8</ele>
        <time>2014-05-03T16:40:17Z</time>
      </trkpt>
      <trkpt lat="39.850276885138" lon="3.120189013261">
        <ele>8.4</ele>
        <time>2014-05-03T16:40:18Z</time>
      </trkpt>
      <trkpt lat="39.85034880184" lon="3.120130591418">
        <ele>7.8</ele>
        <time>2014-05-03T16:40:19Z</time>
      </trkpt>
      <trkpt lat="39.850425160949" lon="3.120068565358">
        <ele>7.2</ele>
        <time>2014-05-03T16:40:20Z</time>
      </trkpt>
      <trkpt lat="39.850494479262" lon="3.120008634773">
        <ele>6.8</ele>
        <time>2014-05-03T16:40:21Z</time>
      </trkpt>
      <trkpt lat="39.850691370093" lon="3.11984711556">
        <ele>6.8</ele>
        <time>2014-05-03T16:40:24Z</time>
      </trkpt>
      <trkpt lat="39.850749037565" lon="3.119795650694">
        <ele>6.8</ele>
        <time>2014-05-03T16:40:25Z</time>
      </trkpt>
      <trkpt lat="39.851030669405" lon="3.11958811485">
        <ele>6.8</ele>
        <time>2014-05-03T16:40:30Z</time>
      </trkpt>
      <trkpt lat="39.851081715176" lon="3.119567914471">
        <ele>7.2</ele>
        <time>2014-05-03T16:40:31Z</time>
      </trkpt>
      <trkpt lat="39.851129827282" lon="3.119569339394">
        <ele>7.6</ele>
        <time>2014-05-03T16:40:32Z</time>
      </trkpt>
      <trkpt lat="39.851169976583" lon="3.119579649131">
        <ele>8</ele>
        <time>2014-05-03T16:40:33Z</time>
      </trkpt>
      <trkpt lat="39.851212053721" lon="3.119602112623">
        <ele>8.4</ele>
        <time>2014-05-03T16:40:34Z</time>
      </trkpt>
      <trkpt lat="39.851248934081" lon="3.119648632168">
        <ele>8.8</ele>
        <time>2014-05-03T16:40:35Z</time>
      </trkpt>
      <trkpt lat="39.85128086912" lon="3.11970043231">
        <ele>8.8</ele>
        <time>2014-05-03T16:40:36Z</time>
      </trkpt>
      <trkpt lat="39.851310876322" lon="3.119758854153">
        <ele>9.2</ele>
        <time>2014-05-03T16:40:37Z</time>
      </trkpt>
      <trkpt lat="39.851343984827" lon="3.119820628756">
        <ele>9.8</ele>
        <time>2014-05-03T16:40:38Z</time>
      </trkpt>
      <trkpt lat="39.851370639269" lon="3.119877122762">
        <ele>10.2</ele>
        <time>2014-05-03T16:40:39Z</time>
      </trkpt>
      <trkpt lat="39.851404585964" lon="3.119937053347">
        <ele>10.6</ele>
        <time>2014-05-03T16:40:40Z</time>
      </trkpt>
      <trkpt lat="39.851440544315" lon="3.119992541525">
        <ele>11.2</ele>
        <time>2014-05-03T16:40:41Z</time>
      </trkpt>
      <trkpt lat="39.851474155734" lon="3.120035205396">
        <ele>12.4</ele>
        <time>2014-05-03T16:40:42Z</time>
      </trkpt>
      <trkpt lat="39.851517573976" lon="3.120051298644">
        <ele>12.8</ele>
        <time>2014-05-03T16:40:43Z</time>
      </trkpt>
      <trkpt lat="39.851577504561" lon="3.120055741051">
        <ele>13.4</ele>
        <time>2014-05-03T16:40:44Z</time>
      </trkpt>
      <trkpt lat="39.851647325788" lon="3.120029170428">
        <ele>13.4</ele>
        <time>2014-05-03T16:40:45Z</time>
      </trkpt>
      <trkpt lat="39.85171421335" lon="3.119985165453">
        <ele>13</ele>
        <time>2014-05-03T16:40:46Z</time>
      </trkpt>
      <trkpt lat="39.851782274378" lon="3.119936466614">
        <ele>12.4</ele>
        <time>2014-05-03T16:40:47Z</time>
      </trkpt>
      <trkpt lat="39.851846228275" lon="3.119887432499">
        <ele>12</ele>
        <time>2014-05-03T16:40:48Z</time>
      </trkpt>
      <trkpt lat="39.851915546588" lon="3.119839404212">
        <ele>11.6</ele>
        <time>2014-05-03T16:40:49Z</time>
      </trkpt>
      <trkpt lat="39.851989474946" lon="3.119784418948">
        <ele>11</ele>
        <time>2014-05-03T16:40:50Z</time>
      </trkpt>
      <trkpt lat="39.85205870944" lon="3.119727589666">
        <ele>10.6</ele>
        <time>2014-05-03T16:40:51Z</time>
      </trkpt>
      <trkpt lat="39.85212576464" lon="3.119658103715">
        <ele>10</ele>
        <time>2014-05-03T16:40:52Z</time>
      </trkpt>
      <trkpt lat="39.852191897831" lon="3.119573781801">
        <ele>9.2</ele>
        <time>2014-05-03T16:40:53Z</time>
      </trkpt>
      <trkpt lat="39.852250990226" lon="3.119483257281">
        <ele>8.4</ele>
        <time>2014-05-03T16:40:54Z</time>
      </trkpt>
      <trkpt lat="39.852299186151" lon="3.119387033069">
        <ele>7.6</ele>
        <time>2014-05-03T16:40:55Z</time>
      </trkpt>
      <trkpt lat="39.85234201766" lon="3.119292652875">
        <ele>6.8</ele>
        <time>2014-05-03T16:40:56Z</time>
      </trkpt>
      <trkpt lat="39.852384178617" lon="3.119199781423">
        <ele>6</ele>
        <time>2014-05-03T16:40:57Z</time>
      </trkpt>
      <trkpt lat="39.852425585203" lon="3.119105987962">
        <ele>6</ele>
        <time>2014-05-03T16:40:58Z</time>
      </trkpt>
      <trkpt lat="39.85246774616" lon="3.11901898384">
        <ele>6.4</ele>
        <time>2014-05-03T16:40:59Z</time>
      </trkpt>
      <trkpt lat="39.852521306501" lon="3.118945306939">
        <ele>6.8</ele>
        <time>2014-05-03T16:41:00Z</time>
      </trkpt>
      <trkpt lat="39.852584673665" lon="3.118888980571">
        <ele>7.2</ele>
        <time>2014-05-03T16:41:01Z</time>
      </trkpt>
      <trkpt lat="39.852644268974" lon="3.118847238709">
        <ele>7.6</ele>
        <time>2014-05-03T16:41:02Z</time>
      </trkpt>
      <trkpt lat="39.852702020265" lon="3.118819075525">
        <ele>8</ele>
        <time>2014-05-03T16:41:03Z</time>
      </trkpt>
      <trkpt lat="39.852753904226" lon="3.118808765788">
        <ele>8</ele>
        <time>2014-05-03T16:41:04Z</time>
      </trkpt>
      <trkpt lat="39.852806710196" lon="3.118795690024">
        <ele>8</ele>
        <time>2014-05-03T16:41:05Z</time>
      </trkpt>
      <trkpt lat="39.852861527822" lon="3.118797031128">
        <ele>8</ele>
        <time>2014-05-03T16:41:06Z</time>
      </trkpt>
      <trkpt lat="39.852918273285" lon="3.118792337264">
        <ele>8</ele>
        <time>2014-05-03T16:41:07Z</time>
      </trkpt>
      <trkpt lat="39.852980215526" lon="3.118777668939">
        <ele>8</ele>
        <time>2014-05-03T16:41:08Z</time>
      </trkpt>
      <trkpt lat="39.853034111143" lon="3.118746655909">
        <ele>8</ele>
        <time>2014-05-03T16:41:09Z</time>
      </trkpt>
      <trkpt lat="39.853078702851" lon="3.118695358681">
        <ele>8</ele>
        <time>2014-05-03T16:41:10Z</time>
      </trkpt>
      <trkpt lat="39.853248771602" lon="3.118453540866">
        <ele>8</ele>
        <time>2014-05-03T16:41:14Z</time>
      </trkpt>
      <trkpt lat="39.853368381315" lon="3.118357232835">
        <ele>8</ele>
        <time>2014-05-03T16:41:16Z</time>
      </trkpt>
      <trkpt lat="39.853504838647" lon="3.118266540677">
        <ele>8</ele>
        <time>2014-05-03T16:41:18Z</time>
      </trkpt>
      <trkpt lat="39.853791415808" lon="3.118090436958">
        <ele>8</ele>
        <time>2014-05-03T16:41:22Z</time>
      </trkpt>
      <trkpt lat="39.85385495061" lon="3.118049533286">
        <ele>8</ele>
        <time>2014-05-03T16:41:23Z</time>
      </trkpt>
      <trkpt lat="39.853914126824" lon="3.11800477394">
        <ele>8</ele>
        <time>2014-05-03T16:41:24Z</time>
      </trkpt>
      <trkpt lat="39.853965759328" lon="3.117939059844">
        <ele>7.6</ele>
        <time>2014-05-03T16:41:25Z</time>
      </trkpt>
      <trkpt lat="39.853981852576" lon="3.117855492301">
        <ele>7</ele>
        <time>2014-05-03T16:41:26Z</time>
      </trkpt>
      <trkpt lat="39.853990485933" lon="3.117759938641">
        <ele>6.6</ele>
        <time>2014-05-03T16:41:27Z</time>
      </trkpt>
      <trkpt lat="39.853988139001" lon="3.117652482683">
        <ele>6</ele>
        <time>2014-05-03T16:41:28Z</time>
      </trkpt>
      <trkpt lat="39.853974644142" lon="3.117544104716">
        <ele>5.6</ele>
        <time>2014-05-03T16:41:29Z</time>
      </trkpt>
      <trkpt lat="39.853966513699" lon="3.11743312836">
        <ele>5.6</ele>
        <time>2014-05-03T16:41:30Z</time>
      </trkpt>
      <trkpt lat="39.853936003583" lon="3.117106653355">
        <ele>5.2</ele>
        <time>2014-05-03T16:41:33Z</time>
      </trkpt>
      <trkpt lat="39.853928627511" lon="3.117002633976">
        <ele>4.6</ele>
        <time>2014-05-03T16:41:34Z</time>
      </trkpt>
      <trkpt lat="39.853919826516" lon="3.116902051176">
        <ele>4.2</ele>
        <time>2014-05-03T16:41:35Z</time>
      </trkpt>
      <trkpt lat="39.853910941702" lon="3.116806078421">
        <ele>3.8</ele>
        <time>2014-05-03T16:41:36Z</time>
      </trkpt>
      <trkpt lat="39.853902308345" lon="3.116712955512">
        <ele>3.2</ele>
        <time>2014-05-03T16:41:37Z</time>
      </trkpt>
      <trkpt lat="39.853898117395" lon="3.116620419336">
        <ele>3.2</ele>
        <time>2014-05-03T16:41:38Z</time>
      </trkpt>
      <trkpt lat="39.853913456272" lon="3.11652955954">
        <ele>3.2</ele>
        <time>2014-05-03T16:41:39Z</time>
      </trkpt>
      <trkpt lat="39.853960311093" lon="3.116453116612">
        <ele>3.2</ele>
        <time>2014-05-03T16:41:40Z</time>
      </trkpt>
      <trkpt lat="39.854030467596" lon="3.116401735565">
        <ele>3.2</ele>
        <time>2014-05-03T16:41:41Z</time>
      </trkpt>
      <trkpt lat="39.854163320711" lon="3.116294363426">
        <ele>3.2</ele>
        <time>2014-05-03T16:41:43Z</time>
      </trkpt>
      <trkpt lat="39.854228950988" lon="3.116242479465">
        <ele>3.2</ele>
        <time>2014-05-03T16:41:44Z</time>
      </trkpt>
      <trkpt lat="39.854293407799" lon="3.116187494201">
        <ele>2.8</ele>
        <time>2014-05-03T16:41:45Z</time>
      </trkpt>
      <trkpt lat="39.854362390836" lon="3.116130413462">
        <ele>2.2</ele>
        <time>2014-05-03T16:41:46Z</time>
      </trkpt>
      <trkpt lat="39.854435145728" lon="3.116068471221">
        <ele>1.8</ele>
        <time>2014-05-03T16:41:47Z</time>
      </trkpt>
      <trkpt lat="39.85451209157" lon="3.116013569776">
        <ele>1.2</ele>
        <time>2014-05-03T16:41:48Z</time>
      </trkpt>
      <trkpt lat="39.854591803439" lon="3.11595791396">
        <ele>0.8</ele>
        <time>2014-05-03T16:41:49Z</time>
      </trkpt>
      <trkpt lat="39.854908471621" lon="3.115776362006">
        <ele>0.8</ele>
        <time>2014-05-03T16:41:53Z</time>
      </trkpt>
      <trkpt lat="39.854984411635" lon="3.115726741158">
        <ele>0.8</ele>
        <time>2014-05-03T16:41:54Z</time>
      </trkpt>
      <trkpt lat="39.855057585622" lon="3.11567628212">
        <ele>0.8</ele>
        <time>2014-05-03T16:41:55Z</time>
      </trkpt>
      <trkpt lat="39.855323962404" lon="3.115470255018">
        <ele>0.8</ele>
        <time>2014-05-03T16:41:59Z</time>
      </trkpt>
      <trkpt lat="39.855796953021" lon="3.115146965135">
        <ele>0.8</ele>
        <time>2014-05-03T16:42:06Z</time>
      </trkpt>
      <trkpt lat="39.855868702085" lon="3.115107402567">
        <ele>0.8</ele>
        <time>2014-05-03T16:42:07Z</time>
      </trkpt>
      <trkpt lat="39.855939361502" lon="3.115066498895">
        <ele>0.8</ele>
        <time>2014-05-03T16:42:08Z</time>
      </trkpt>
      <trkpt lat="39.856065090002" lon="3.114997180582">
        <ele>0.8</ele>
        <time>2014-05-03T16:42:10Z</time>
      </trkpt>
      <trkpt lat="39.856209258682" lon="3.114932304676">
        <ele>0.8</ele>
        <time>2014-05-03T16:42:12Z</time>
      </trkpt>
      <trkpt lat="39.856353846457" lon="3.114871284444">
        <ele>0.8</ele>
        <time>2014-05-03T16:42:14Z</time>
      </trkpt>
      <trkpt lat="39.856429786471" lon="3.11484228307">
        <ele>0.8</ele>
        <time>2014-05-03T16:42:15Z</time>
      </trkpt>
      <trkpt lat="39.856575547712" lon="3.114776485155">
        <ele>0.8</ele>
        <time>2014-05-03T16:42:17Z</time>
      </trkpt>
      <trkpt lat="39.856766990308" lon="3.114647320076">
        <ele>0.8</ele>
        <time>2014-05-03T16:42:20Z</time>
      </trkpt>
      <trkpt lat="39.856815018595" lon="3.11458663512">
        <ele>0.8</ele>
        <time>2014-05-03T16:42:21Z</time>
      </trkpt>
      <trkpt lat="39.856849132928" lon="3.114515137513">
        <ele>0.8</ele>
        <time>2014-05-03T16:42:22Z</time>
      </trkpt>
      <trkpt lat="39.856889449867" lon="3.114236104062">
        <ele>0.8</ele>
        <time>2014-05-03T16:42:25Z</time>
      </trkpt>
      <trkpt lat="39.856887438211" lon="3.114140550402">
        <ele>0.8</ele>
        <time>2014-05-03T16:42:26Z</time>
      </trkpt>
      <trkpt lat="39.85687746375" lon="3.113958663172">
        <ele>0.8</ele>
        <time>2014-05-03T16:42:28Z</time>
      </trkpt>
      <trkpt lat="39.856886935297" lon="3.11386495353">
        <ele>0.8</ele>
        <time>2014-05-03T16:42:29Z</time>
      </trkpt>
      <trkpt lat="39.856896323025" lon="3.113762945807">
        <ele>0.8</ele>
        <time>2014-05-03T16:42:30Z</time>
      </trkpt>
      <trkpt lat="39.856911913359" lon="3.113667643604">
        <ele>0.8</ele>
        <time>2014-05-03T16:42:31Z</time>
      </trkpt>
      <trkpt lat="39.856939573629" lon="3.113577873455">
        <ele>0.8</ele>
        <time>2014-05-03T16:42:32Z</time>
      </trkpt>
      <trkpt lat="39.856991206133" lon="3.113409481084">
        <ele>0.8</ele>
        <time>2014-05-03T16:42:34Z</time>
      </trkpt>
      <trkpt lat="39.856927168417" lon="3.11317847592">
        <ele>0.8</ele>
        <time>2014-05-03T16:42:37Z</time>
      </trkpt>
      <trkpt lat="39.856888527858" lon="3.113095998024">
        <ele>0.8</ele>
        <time>2014-05-03T16:42:38Z</time>
      </trkpt>
      <trkpt lat="39.856846199263" lon="3.113019052182">
        <ele>0.8</ele>
        <time>2014-05-03T16:42:39Z</time>
      </trkpt>
      <trkpt lat="39.856809151265" lon="3.112941016693">
        <ele>0.8</ele>
        <time>2014-05-03T16:42:40Z</time>
      </trkpt>
      <trkpt lat="39.856777970597" lon="3.11287421295">
        <ele>0.8</ele>
        <time>2014-05-03T16:42:41Z</time>
      </trkpt>
      <trkpt lat="39.856758356951" lon="3.112798524393">
        <ele>0.8</ele>
        <time>2014-05-03T16:42:42Z</time>
      </trkpt>
      <trkpt lat="39.856722901514" lon="3.112647734012">
        <ele>0.8</ele>
        <time>2014-05-03T16:42:44Z</time>
      </trkpt>
      <trkpt lat="39.856708568465" lon="3.112564585564">
        <ele>0.8</ele>
        <time>2014-05-03T16:42:45Z</time>
      </trkpt>
      <trkpt lat="39.856701192393" lon="3.112469702456">
        <ele>0.8</ele>
        <time>2014-05-03T16:42:46Z</time>
      </trkpt>
      <trkpt lat="39.856695241244" lon="3.112378675022">
        <ele>0.8</ele>
        <time>2014-05-03T16:42:47Z</time>
      </trkpt>
      <trkpt lat="39.856683674222" lon="3.112017666589">
        <ele>0.8</ele>
        <time>2014-05-03T16:42:51Z</time>
      </trkpt>
      <trkpt lat="39.856660623997" lon="3.111830917857">
        <ele>0.8</ele>
        <time>2014-05-03T16:42:53Z</time>
      </trkpt>
      <trkpt lat="39.856621564343" lon="3.111552638777">
        <ele>0.8</ele>
        <time>2014-05-03T16:42:56Z</time>
      </trkpt>
      <trkpt lat="39.856622486352" lon="3.111442668249">
        <ele>0.8</ele>
        <time>2014-05-03T16:42:57Z</time>
      </trkpt>
      <trkpt lat="39.856626509664" lon="3.111330183151">
        <ele>0.4</ele>
        <time>2014-05-03T16:42:58Z</time>
      </trkpt>
      <trkpt lat="39.856627431673" lon="3.111224152116">
        <ele>0</ele>
        <time>2014-05-03T16:42:59Z</time>
      </trkpt>
      <trkpt lat="39.856623827456" lon="3.111122228212">
        <ele>0</ele>
        <time>2014-05-03T16:43:00Z</time>
      </trkpt>
      <trkpt lat="39.856622402533" lon="3.111020723403">
        <ele>0</ele>
        <time>2014-05-03T16:43:01Z</time>
      </trkpt>
      <trkpt lat="39.856622570171" lon="3.110919470051">
        <ele>0</ele>
        <time>2014-05-03T16:43:02Z</time>
      </trkpt>
      <trkpt lat="39.856620390877" lon="3.110626941741">
        <ele>0</ele>
        <time>2014-05-03T16:43:05Z</time>
      </trkpt>
      <trkpt lat="39.8566218158" lon="3.110021265647">
        <ele>0</ele>
        <time>2014-05-03T16:43:11Z</time>
      </trkpt>
      <trkpt lat="39.85658409725" lon="3.109255159987">
        <ele>0</ele>
        <time>2014-05-03T16:43:19Z</time>
      </trkpt>
      <trkpt lat="39.856589210209" lon="3.109026417936">
        <ele>0</ele>
        <time>2014-05-03T16:43:22Z</time>
      </trkpt>
      <trkpt lat="39.856624917103" lon="3.108872358614">
        <ele>0</ele>
        <time>2014-05-03T16:43:24Z</time>
      </trkpt>
      <trkpt lat="39.856686272611" lon="3.108555438975">
        <ele>0</ele>
        <time>2014-05-03T16:43:28Z</time>
      </trkpt>
      <trkpt lat="39.85670060566" lon="3.108480253332">
        <ele>0</ele>
        <time>2014-05-03T16:43:29Z</time>
      </trkpt>
      <trkpt lat="39.856711418311" lon="3.108402217843">
        <ele>0</ele>
        <time>2014-05-03T16:43:30Z</time>
      </trkpt>
      <trkpt lat="39.856724996989" lon="3.108317644472">
        <ele>0</ele>
        <time>2014-05-03T16:43:31Z</time>
      </trkpt>
      <trkpt lat="39.856734384717" lon="3.108234915119">
        <ele>0</ele>
        <time>2014-05-03T16:43:32Z</time>
      </trkpt>
      <trkpt lat="39.856762883177" lon="3.108059062857">
        <ele>0</ele>
        <time>2014-05-03T16:43:34Z</time>
      </trkpt>
      <trkpt lat="39.856778473511" lon="3.107886563355">
        <ele>0</ele>
        <time>2014-05-03T16:43:36Z</time>
      </trkpt>
      <trkpt lat="39.856803535392" lon="3.107719763545">
        <ele>0</ele>
        <time>2014-05-03T16:43:38Z</time>
      </trkpt>
      <trkpt lat="39.856844103788" lon="3.107545336206">
        <ele>0</ele>
        <time>2014-05-03T16:43:40Z</time>
      </trkpt>
      <trkpt lat="39.856859777941" lon="3.107442071198">
        <ele>0</ele>
        <time>2014-05-03T16:43:41Z</time>
      </trkpt>
      <trkpt lat="39.856915936671" lon="3.107063209318">
        <ele>0</ele>
        <time>2014-05-03T16:43:45Z</time>
      </trkpt>
      <trkpt lat="39.856938819258" lon="3.106887357056">
        <ele>0</ele>
        <time>2014-05-03T16:43:47Z</time>
      </trkpt>
      <trkpt lat="39.856985422622" lon="3.106391567671">
        <ele>0</ele>
        <time>2014-05-03T16:43:53Z</time>
      </trkpt>
      <trkpt lat="39.856996570549" lon="3.10631118525">
        <ele>0</ele>
        <time>2014-05-03T16:43:54Z</time>
      </trkpt>
      <trkpt lat="39.857067984337" lon="3.10596585097">
        <ele>0</ele>
        <time>2014-05-03T16:43:58Z</time>
      </trkpt>
      <trkpt lat="39.857145516912" lon="3.105535775681">
        <ele>0</ele>
        <time>2014-05-03T16:44:03Z</time>
      </trkpt>
      <trkpt lat="39.857161274884" lon="3.105460757676">
        <ele>0</ele>
        <time>2014-05-03T16:44:04Z</time>
      </trkpt>
      <trkpt lat="39.85717669758" lon="3.105382638368">
        <ele>0</ele>
        <time>2014-05-03T16:44:05Z</time>
      </trkpt>
      <trkpt lat="39.857189186611" lon="3.105308458553">
        <ele>0</ele>
        <time>2014-05-03T16:44:06Z</time>
      </trkpt>
      <trkpt lat="39.857200334538" lon="3.105240313706">
        <ele>0</ele>
        <time>2014-05-03T16:44:07Z</time>
      </trkpt>
      <trkpt lat="39.857208381162" lon="3.1051838197">
        <ele>0</ele>
        <time>2014-05-03T16:44:08Z</time>
      </trkpt>
      <trkpt lat="39.857213745578" lon="3.105127493332">
        <ele>0</ele>
        <time>2014-05-03T16:44:09Z</time>
      </trkpt>
      <trkpt lat="39.857217685071" lon="3.105070580231">
        <ele>0</ele>
        <time>2014-05-03T16:44:10Z</time>
      </trkpt>
      <trkpt lat="39.857219696727" lon="3.105026323799">
        <ele>0</ele>
        <time>2014-05-03T16:44:11Z</time>
      </trkpt>
      <trkpt lat="39.857236711984" lon="3.104976451494">
        <ele>0.2</ele>
        <time>2014-05-03T16:44:12Z</time>
      </trkpt>
      <trkpt lat="39.857262109141" lon="3.104933955261">
        <ele>0.6</ele>
        <time>2014-05-03T16:44:13Z</time>
      </trkpt>
      <trkpt lat="39.857285746099" lon="3.104876539246">
        <ele>0.6</ele>
        <time>2014-05-03T16:44:14Z</time>
      </trkpt>
      <trkpt lat="39.85732254264" lon="3.104808059123">
        <ele>0.6</ele>
        <time>2014-05-03T16:44:15Z</time>
      </trkpt>
      <trkpt lat="39.85736193757" lon="3.104732202928">
        <ele>0.6</ele>
        <time>2014-05-03T16:44:16Z</time>
      </trkpt>
      <trkpt lat="39.857393453514" lon="3.104657017285">
        <ele>0.6</ele>
        <time>2014-05-03T16:44:17Z</time>
      </trkpt>
      <trkpt lat="39.857421951974" lon="3.104578395063">
        <ele>0.6</ele>
        <time>2014-05-03T16:44:18Z</time>
      </trkpt>
      <trkpt lat="39.857456150126" lon="3.104498683194">
        <ele>0.6</ele>
        <time>2014-05-03T16:44:19Z</time>
      </trkpt>
      <trkpt lat="39.857558241668" lon="3.104250411316">
        <ele>0.6</ele>
        <time>2014-05-03T16:44:22Z</time>
      </trkpt>
      <trkpt lat="39.857625380687" lon="3.104092915415">
        <ele>0</ele>
        <time>2014-05-03T16:44:24Z</time>
      </trkpt>
      <trkpt lat="39.857661674314" lon="3.104009431691">
        <ele>0</ele>
        <time>2014-05-03T16:44:25Z</time>
      </trkpt>
      <trkpt lat="39.857696962113" lon="3.103937263532">
        <ele>0</ele>
        <time>2014-05-03T16:44:26Z</time>
      </trkpt>
      <trkpt lat="39.857731746998" lon="3.103861072061">
        <ele>0</ele>
        <time>2014-05-03T16:44:27Z</time>
      </trkpt>
      <trkpt lat="39.857765358417" lon="3.103775911957">
        <ele>0</ele>
        <time>2014-05-03T16:44:28Z</time>
      </trkpt>
      <trkpt lat="39.857796539085" lon="3.103690751853">
        <ele>0</ele>
        <time>2014-05-03T16:44:29Z</time>
      </trkpt>
      <trkpt lat="39.857855296204" lon="3.103522191844">
        <ele>0</ele>
        <time>2014-05-03T16:44:31Z</time>
      </trkpt>
      <trkpt lat="39.857883543207" lon="3.103443904898">
        <ele>0</ele>
        <time>2014-05-03T16:44:32Z</time>
      </trkpt>
      <trkpt lat="39.857909359459" lon="3.10336662378">
        <ele>0</ele>
        <time>2014-05-03T16:44:33Z</time>
      </trkpt>
      <trkpt lat="39.857936013901" lon="3.103286660454">
        <ele>0</ele>
        <time>2014-05-03T16:44:34Z</time>
      </trkpt>
      <trkpt lat="39.857959986135" lon="3.103201919445">
        <ele>0</ele>
        <time>2014-05-03T16:44:35Z</time>
      </trkpt>
      <trkpt lat="39.857984209826" lon="3.103113825676">
        <ele>0</ele>
        <time>2014-05-03T16:44:36Z</time>
      </trkpt>
      <trkpt lat="39.858009104069" lon="3.103027827382">
        <ele>0</ele>
        <time>2014-05-03T16:44:37Z</time>
      </trkpt>
      <trkpt lat="39.858031735199" lon="3.102942583459">
        <ele>0</ele>
        <time>2014-05-03T16:44:38Z</time>
      </trkpt>
      <trkpt lat="39.858056210347" lon="3.102864128875">
        <ele>0</ele>
        <time>2014-05-03T16:44:39Z</time>
      </trkpt>
      <trkpt lat="39.858080098762" lon="3.102785590472">
        <ele>0</ele>
        <time>2014-05-03T16:44:40Z</time>
      </trkpt>
      <trkpt lat="39.858103232806" lon="3.102707471164">
        <ele>0</ele>
        <time>2014-05-03T16:44:41Z</time>
      </trkpt>
      <trkpt lat="39.858124355194" lon="3.102629100399">
        <ele>0</ele>
        <time>2014-05-03T16:44:42Z</time>
      </trkpt>
      <trkpt lat="39.858144555573" lon="3.102547963607">
        <ele>0</ele>
        <time>2014-05-03T16:44:43Z</time>
      </trkpt>
      <trkpt lat="39.858170204187" lon="3.102469425204">
        <ele>0</ele>
        <time>2014-05-03T16:44:44Z</time>
      </trkpt>
      <trkpt lat="39.858191913308" lon="3.102386109118">
        <ele>0</ele>
        <time>2014-05-03T16:44:45Z</time>
      </trkpt>
      <trkpt lat="39.858214544438" lon="3.102306564887">
        <ele>0</ele>
        <time>2014-05-03T16:44:46Z</time>
      </trkpt>
      <trkpt lat="39.858236253559" lon="3.102228948493">
        <ele>0</ele>
        <time>2014-05-03T16:44:47Z</time>
      </trkpt>
      <trkpt lat="39.858285455312" lon="3.102067261642">
        <ele>0</ele>
        <time>2014-05-03T16:44:49Z</time>
      </trkpt>
      <trkpt lat="39.85830741589" lon="3.101987046859">
        <ele>0</ele>
        <time>2014-05-03T16:44:50Z</time>
      </trkpt>
      <trkpt lat="39.858330130839" lon="3.101904317506">
        <ele>0</ele>
        <time>2014-05-03T16:44:51Z</time>
      </trkpt>
      <trkpt lat="39.858352929607" lon="3.101825611465">
        <ele>0</ele>
        <time>2014-05-03T16:44:52Z</time>
      </trkpt>
      <trkpt lat="39.858422667015" lon="3.101595612129">
        <ele>0</ele>
        <time>2014-05-03T16:44:55Z</time>
      </trkpt>
      <trkpt lat="39.858468264551" lon="3.101440044065">
        <ele>0</ele>
        <time>2014-05-03T16:44:57Z</time>
      </trkpt>
      <trkpt lat="39.85848678855" lon="3.101359577825">
        <ele>0</ele>
        <time>2014-05-03T16:44:58Z</time>
      </trkpt>
      <trkpt lat="39.85853707995" lon="3.101109713386">
        <ele>0</ele>
        <time>2014-05-03T16:45:01Z</time>
      </trkpt>
      <trkpt lat="39.858546886773" lon="3.101023212178">
        <ele>0</ele>
        <time>2014-05-03T16:45:02Z</time>
      </trkpt>
      <trkpt lat="39.858622742968" lon="3.100495571573">
        <ele>0</ele>
        <time>2014-05-03T16:45:08Z</time>
      </trkpt>
      <trkpt lat="39.858635064361" lon="3.100405801424">
        <ele>0</ele>
        <time>2014-05-03T16:45:09Z</time>
      </trkpt>
      <trkpt lat="39.858724666872" lon="3.099875394792">
        <ele>0</ele>
        <time>2014-05-03T16:45:15Z</time>
      </trkpt>
      <trkpt lat="39.858807144768" lon="3.099632152054">
        <ele>0</ele>
        <time>2014-05-03T16:45:18Z</time>
      </trkpt>
      <trkpt lat="39.858875792529" lon="3.099465268425">
        <ele>0</ele>
        <time>2014-05-03T16:45:20Z</time>
      </trkpt>
      <trkpt lat="39.858914097812" lon="3.099374911543">
        <ele>0</ele>
        <time>2014-05-03T16:45:21Z</time>
      </trkpt>
      <trkpt lat="39.858952486914" lon="3.099296959873">
        <ele>0</ele>
        <time>2014-05-03T16:45:22Z</time>
      </trkpt>
      <trkpt lat="39.859134960877" lon="3.099006275581">
        <ele>0</ele>
        <time>2014-05-03T16:45:26Z</time>
      </trkpt>
      <trkpt lat="39.859478032044" lon="3.098673765608">
        <ele>0</ele>
        <time>2014-05-03T16:45:32Z</time>
      </trkpt>
      <trkpt lat="39.8596560636" lon="3.09853948757">
        <ele>0</ele>
        <time>2014-05-03T16:45:35Z</time>
      </trkpt>
      <trkpt lat="39.85971641328" lon="3.098493135663">
        <ele>0</ele>
        <time>2014-05-03T16:45:36Z</time>
      </trkpt>
      <trkpt lat="39.859781624462" lon="3.098443263358">
        <ele>0</ele>
        <time>2014-05-03T16:45:37Z</time>
      </trkpt>
      <trkpt lat="39.85984214178" lon="3.098396659994">
        <ele>0</ele>
        <time>2014-05-03T16:45:38Z</time>
      </trkpt>
      <trkpt lat="39.859900228347" lon="3.098354666675">
        <ele>0.2</ele>
        <time>2014-05-03T16:45:39Z</time>
      </trkpt>
      <trkpt lat="39.85996032657" lon="3.098310494062">
        <ele>0.6</ele>
        <time>2014-05-03T16:45:40Z</time>
      </trkpt>
      <trkpt lat="39.860020089517" lon="3.098266908182">
        <ele>1</ele>
        <time>2014-05-03T16:45:41Z</time>
      </trkpt>
      <trkpt lat="39.860142129981" lon="3.098172947083">
        <ele>1</ele>
        <time>2014-05-03T16:45:43Z</time>
      </trkpt>
      <trkpt lat="39.860269031947" lon="3.098085859142">
        <ele>1</ele>
        <time>2014-05-03T16:45:45Z</time>
      </trkpt>
      <trkpt lat="39.860327872885" lon="3.098041183615">
        <ele>1</ele>
        <time>2014-05-03T16:45:46Z</time>
      </trkpt>
      <trkpt lat="39.860383444882" lon="3.097998435925">
        <ele>1</ele>
        <time>2014-05-03T16:45:47Z</time>
      </trkpt>
      <trkpt lat="39.860547394846" lon="3.097872958882">
        <ele>1</ele>
        <time>2014-05-03T16:45:50Z</time>
      </trkpt>
      <trkpt lat="39.860602966843" lon="3.097831803753">
        <ele>0.6</ele>
        <time>2014-05-03T16:45:51Z</time>
      </trkpt>
      <trkpt lat="39.860662645971" lon="3.097783775466">
        <ele>0.2</ele>
        <time>2014-05-03T16:45:52Z</time>
      </trkpt>
      <trkpt lat="39.860718720882" lon="3.097741363052">
        <ele>0</ele>
        <time>2014-05-03T16:45:53Z</time>
      </trkpt>
      <trkpt lat="39.860772616499" lon="3.097697609534">
        <ele>0</ele>
        <time>2014-05-03T16:45:54Z</time>
      </trkpt>
      <trkpt lat="39.860827685582" lon="3.097651592903">
        <ele>0</ele>
        <time>2014-05-03T16:45:55Z</time>
      </trkpt>
      <trkpt lat="39.86088149738" lon="3.097605324815">
        <ele>0</ele>
        <time>2014-05-03T16:45:56Z</time>
      </trkpt>
      <trkpt lat="39.86093681792" lon="3.097562241849">
        <ele>0</ele>
        <time>2014-05-03T16:45:57Z</time>
      </trkpt>
      <trkpt lat="39.860988869519" lon="3.097515135571">
        <ele>0.2</ele>
        <time>2014-05-03T16:45:58Z</time>
      </trkpt>
      <trkpt lat="39.861041340213" lon="3.097468616026">
        <ele>0.6</ele>
        <time>2014-05-03T16:45:59Z</time>
      </trkpt>
      <trkpt lat="39.861093894726" lon="3.097420839196">
        <ele>1.2</ele>
        <time>2014-05-03T16:46:00Z</time>
      </trkpt>
      <trkpt lat="39.861193136422" lon="3.097331152866">
        <ele>1.2</ele>
        <time>2014-05-03T16:46:02Z</time>
      </trkpt>
      <trkpt lat="39.861288941539" lon="3.09723694031">
        <ele>1.2</ele>
        <time>2014-05-03T16:46:04Z</time>
      </trkpt>
      <trkpt lat="39.86146487762" lon="3.097044324248">
        <ele>1.2</ele>
        <time>2014-05-03T16:46:08Z</time>
      </trkpt>
      <trkpt lat="39.861504021093" lon="3.096987494966">
        <ele>1.2</ele>
        <time>2014-05-03T16:46:09Z</time>
      </trkpt>
      <trkpt lat="39.861673838387" lon="3.096760932209">
        <ele>1.2</ele>
        <time>2014-05-03T16:46:13Z</time>
      </trkpt>
      <trkpt lat="39.861885816638" lon="3.096481395844">
        <ele>1.2</ele>
        <time>2014-05-03T16:46:18Z</time>
      </trkpt>
      <trkpt lat="39.861926301215" lon="3.096428170779">
        <ele>1.2</ele>
        <time>2014-05-03T16:46:19Z</time>
      </trkpt>
      <trkpt lat="39.862003498514" lon="3.09632666597">
        <ele>1.2</ele>
        <time>2014-05-03T16:46:21Z</time>
      </trkpt>
      <trkpt lat="39.862323854732" lon="3.095892399731">
        <ele>1.2</ele>
        <time>2014-05-03T16:46:29Z</time>
      </trkpt>
      <trkpt lat="39.862364590766" lon="3.095839174666">
        <ele>0.6</ele>
        <time>2014-05-03T16:46:30Z</time>
      </trkpt>
      <trkpt lat="39.862402728411" lon="3.095789637637">
        <ele>0</ele>
        <time>2014-05-03T16:46:31Z</time>
      </trkpt>
      <trkpt lat="39.862440949875" lon="3.095736496391">
        <ele>0</ele>
        <time>2014-05-03T16:46:32Z</time>
      </trkpt>
      <trkpt lat="39.862480009529" lon="3.095687294638">
        <ele>0</ele>
        <time>2014-05-03T16:46:33Z</time>
      </trkpt>
      <trkpt lat="39.862513956224" lon="3.095634404849">
        <ele>0</ele>
        <time>2014-05-03T16:46:34Z</time>
      </trkpt>
      <trkpt lat="39.862549914575" lon="3.095576821196">
        <ele>0</ele>
        <time>2014-05-03T16:46:35Z</time>
      </trkpt>
      <trkpt lat="39.862588471315" lon="3.095521333018">
        <ele>0</ele>
        <time>2014-05-03T16:46:36Z</time>
      </trkpt>
      <trkpt lat="39.862628369159" lon="3.095473975283">
        <ele>0</ele>
        <time>2014-05-03T16:46:37Z</time>
      </trkpt>
      <trkpt lat="39.862668099365" lon="3.095423013331">
        <ele>0</ele>
        <time>2014-05-03T16:46:38Z</time>
      </trkpt>
      <trkpt lat="39.862707159019" lon="3.095371297008">
        <ele>0</ele>
        <time>2014-05-03T16:46:39Z</time>
      </trkpt>
      <trkpt lat="39.86274730832" lon="3.095315641192">
        <ele>0</ele>
        <time>2014-05-03T16:46:40Z</time>
      </trkpt>
      <trkpt lat="39.862869767879" lon="3.095144231337">
        <ele>0</ele>
        <time>2014-05-03T16:46:43Z</time>
      </trkpt>
      <trkpt lat="39.863123739449" lon="3.094786659483">
        <ele>0</ele>
        <time>2014-05-03T16:46:49Z</time>
      </trkpt>
      <trkpt lat="39.863166068044" lon="3.094731674219">
        <ele>0</ele>
        <time>2014-05-03T16:46:50Z</time>
      </trkpt>
      <trkpt lat="39.863206133526" lon="3.094672833281">
        <ele>0</ele>
        <time>2014-05-03T16:46:51Z</time>
      </trkpt>
      <trkpt lat="39.863249216492" lon="3.094611561592">
        <ele>0.4</ele>
        <time>2014-05-03T16:46:52Z</time>
      </trkpt>
      <trkpt lat="39.863291125992" lon="3.094549535532">
        <ele>0.8</ele>
        <time>2014-05-03T16:46:53Z</time>
      </trkpt>
      <trkpt lat="39.863329515094" lon="3.094491281327">
        <ele>0.8</ele>
        <time>2014-05-03T16:46:54Z</time>
      </trkpt>
      <trkpt lat="39.863369915852" lon="3.094429590543">
        <ele>0.8</ele>
        <time>2014-05-03T16:46:55Z</time>
      </trkpt>
      <trkpt lat="39.863454824499" lon="3.09429656979">
        <ele>0.8</ele>
        <time>2014-05-03T16:46:57Z</time>
      </trkpt>
      <trkpt lat="39.863827986687" lon="3.093712183722">
        <ele>0.8</ele>
        <time>2014-05-03T16:47:06Z</time>
      </trkpt>
      <trkpt lat="39.863905100167" lon="3.09357907915">
        <ele>0.8</ele>
        <time>2014-05-03T16:47:08Z</time>
      </trkpt>
      <trkpt lat="39.864090843071" lon="3.093260315493">
        <ele>0.8</ele>
        <time>2014-05-03T16:47:13Z</time>
      </trkpt>
      <trkpt lat="39.864368703056" lon="3.092771315447">
        <ele>0.8</ele>
        <time>2014-05-03T16:47:20Z</time>
      </trkpt>
      <trkpt lat="39.86440943909" lon="3.09269730327">
        <ele>0.8</ele>
        <time>2014-05-03T16:47:21Z</time>
      </trkpt>
      <trkpt lat="39.864639606064" lon="3.092278627365">
        <ele>0.8</ele>
        <time>2014-05-03T16:47:27Z</time>
      </trkpt>
      <trkpt lat="39.864864240984" lon="3.091876044708">
        <ele>0.8</ele>
        <time>2014-05-03T16:47:33Z</time>
      </trkpt>
      <trkpt lat="39.864904055009" lon="3.091807061671">
        <ele>0.8</ele>
        <time>2014-05-03T16:47:34Z</time>
      </trkpt>
      <trkpt lat="39.86494588069" lon="3.091738833005">
        <ele>0.8</ele>
        <time>2014-05-03T16:47:35Z</time>
      </trkpt>
      <trkpt lat="39.86507160919" lon="3.09153305736">
        <ele>0.8</ele>
        <time>2014-05-03T16:47:38Z</time>
      </trkpt>
      <trkpt lat="39.865113267233" lon="3.091464744875">
        <ele>0.8</ele>
        <time>2014-05-03T16:47:39Z</time>
      </trkpt>
      <trkpt lat="39.865198846432" lon="3.091331724122">
        <ele>0.8</ele>
        <time>2014-05-03T16:47:41Z</time>
      </trkpt>
      <trkpt lat="39.865369837192" lon="3.091069705928">
        <ele>0.8</ele>
        <time>2014-05-03T16:47:45Z</time>
      </trkpt>
      <trkpt lat="39.865410321769" lon="3.091008685696">
        <ele>0.8</ele>
        <time>2014-05-03T16:47:46Z</time>
      </trkpt>
      <trkpt lat="39.865454913477" lon="3.090938696831">
        <ele>0.8</ele>
        <time>2014-05-03T16:47:47Z</time>
      </trkpt>
      <trkpt lat="39.865497912624" lon="3.090874156201">
        <ele>0.8</ele>
        <time>2014-05-03T16:47:48Z</time>
      </trkpt>
      <trkpt lat="39.865790524753" lon="3.090519434193">
        <ele>0.8</ele>
        <time>2014-05-03T16:47:54Z</time>
      </trkpt>
      <trkpt lat="39.866042819943" lon="3.09024978847">
        <ele>0.8</ele>
        <time>2014-05-03T16:47:59Z</time>
      </trkpt>
      <trkpt lat="39.8664705483" lon="3.089803787571">
        <ele>0.8</ele>
        <time>2014-05-03T16:48:07Z</time>
      </trkpt>
      <trkpt lat="39.866522348442" lon="3.089755172551">
        <ele>0.8</ele>
        <time>2014-05-03T16:48:08Z</time>
      </trkpt>
      <trkpt lat="39.866632738065" lon="3.089656014674">
        <ele>0.8</ele>
        <time>2014-05-03T16:48:10Z</time>
      </trkpt>
      <trkpt lat="39.866809093241" lon="3.089512348908">
        <ele>0.8</ele>
        <time>2014-05-03T16:48:13Z</time>
      </trkpt>
      <trkpt lat="39.866867179808" lon="3.089468511571">
        <ele>0.8</ele>
        <time>2014-05-03T16:48:14Z</time>
      </trkpt>
      <trkpt lat="39.867345367203" lon="3.089090906976">
        <ele>0.8</ele>
        <time>2014-05-03T16:48:22Z</time>
      </trkpt>
      <trkpt lat="39.867404375779" lon="3.089046399087">
        <ele>0.8</ele>
        <time>2014-05-03T16:48:23Z</time>
      </trkpt>
      <trkpt lat="39.8678619437" lon="3.088682708446">
        <ele>0.8</ele>
        <time>2014-05-03T16:48:31Z</time>
      </trkpt>
      <trkpt lat="39.867917599516" lon="3.088639960756">
        <ele>0.8</ele>
        <time>2014-05-03T16:48:32Z</time>
      </trkpt>
      <trkpt lat="39.867975183169" lon="3.088594530858">
        <ele>0.8</ele>
        <time>2014-05-03T16:48:33Z</time>
      </trkpt>
      <trkpt lat="39.86836318132" lon="3.08827668921">
        <ele>0.8</ele>
        <time>2014-05-03T16:48:40Z</time>
      </trkpt>
      <trkpt lat="39.86841598729" lon="3.08823226514">
        <ele>0.8</ele>
        <time>2014-05-03T16:48:41Z</time>
      </trkpt>
      <trkpt lat="39.868574656657" lon="3.088106704278">
        <ele>0.4</ele>
        <time>2014-05-03T16:48:44Z</time>
      </trkpt>
      <trkpt lat="39.868627462627" lon="3.088064291864">
        <ele>0</ele>
        <time>2014-05-03T16:48:45Z</time>
      </trkpt>
      <trkpt lat="39.86868169352" lon="3.088018442871">
        <ele>0</ele>
        <time>2014-05-03T16:48:46Z</time>
      </trkpt>
      <trkpt lat="39.868738187526" lon="3.087969744032">
        <ele>0</ele>
        <time>2014-05-03T16:48:47Z</time>
      </trkpt>
      <trkpt lat="39.868798285749" lon="3.087920207003">
        <ele>0</ele>
        <time>2014-05-03T16:48:48Z</time>
      </trkpt>
      <trkpt lat="39.869147224246" lon="3.08763882662">
        <ele>0</ele>
        <time>2014-05-03T16:48:54Z</time>
      </trkpt>
      <trkpt lat="39.869209920858" lon="3.087585433917">
        <ele>0</ele>
        <time>2014-05-03T16:48:55Z</time>
      </trkpt>
      <trkpt lat="39.869273623298" lon="3.087536735078">
        <ele>0.4</ele>
        <time>2014-05-03T16:48:56Z</time>
      </trkpt>
      <trkpt lat="39.869334475892" lon="3.087484767298">
        <ele>0.8</ele>
        <time>2014-05-03T16:48:57Z</time>
      </trkpt>
      <trkpt lat="39.869771508158" lon="3.087128871824">
        <ele>0.8</ele>
        <time>2014-05-03T16:49:04Z</time>
      </trkpt>
      <trkpt lat="39.870281043859" lon="3.086724445149">
        <ele>0.8</ele>
        <time>2014-05-03T16:49:12Z</time>
      </trkpt>
      <trkpt lat="39.870410544214" lon="3.086634255905">
        <ele>0.8</ele>
        <time>2014-05-03T16:49:14Z</time>
      </trkpt>
      <trkpt lat="39.870942040493" lon="3.086309624918">
        <ele>0.8</ele>
        <time>2014-05-03T16:49:22Z</time>
      </trkpt>
      <trkpt lat="39.871010688254" lon="3.08626419502">
        <ele>0.8</ele>
        <time>2014-05-03T16:49:23Z</time>
      </trkpt>
      <trkpt lat="39.871420479345" lon="3.086020365549">
        <ele>0.8</ele>
        <time>2014-05-03T16:49:29Z</time>
      </trkpt>
      <trkpt lat="39.871621812583" lon="3.085902013121">
        <ele>0.8</ele>
        <time>2014-05-03T16:49:32Z</time>
      </trkpt>
      <trkpt lat="39.872027831819" lon="3.085649550293">
        <ele>0.8</ele>
        <time>2014-05-03T16:49:38Z</time>
      </trkpt>
      <trkpt lat="39.872096228123" lon="3.085607976069">
        <ele>0.8</ele>
        <time>2014-05-03T16:49:39Z</time>
      </trkpt>
      <trkpt lat="39.872651193722" lon="3.085273957354">
        <ele>0.8</ele>
        <time>2014-05-03T16:49:47Z</time>
      </trkpt>
      <trkpt lat="39.873124435796" lon="3.084981848139">
        <ele>0.8</ele>
        <time>2014-05-03T16:49:54Z</time>
      </trkpt>
      <trkpt lat="39.873676970644" lon="3.084636681497">
        <ele>0.8</ele>
        <time>2014-05-03T16:50:02Z</time>
      </trkpt>
      <trkpt lat="39.874214166615" lon="3.084316995831">
        <ele>0.8</ele>
        <time>2014-05-03T16:50:10Z</time>
      </trkpt>
      <trkpt lat="39.874282562919" lon="3.084277181806">
        <ele>0.8</ele>
        <time>2014-05-03T16:50:11Z</time>
      </trkpt>
      <trkpt lat="39.874417595328" lon="3.08419638029">
        <ele>0.8</ele>
        <time>2014-05-03T16:50:13Z</time>
      </trkpt>
      <trkpt lat="39.874483728519" lon="3.084156817722">
        <ele>0.8</ele>
        <time>2014-05-03T16:50:14Z</time>
      </trkpt>
      <trkpt lat="39.8745506999" lon="3.084120440276">
        <ele>0.8</ele>
        <time>2014-05-03T16:50:15Z</time>
      </trkpt>
      <trkpt lat="39.874616665453" lon="3.084080626251">
        <ele>0.8</ele>
        <time>2014-05-03T16:50:16Z</time>
      </trkpt>
      <trkpt lat="39.874682463368" lon="3.084039303484">
        <ele>0.8</ele>
        <time>2014-05-03T16:50:17Z</time>
      </trkpt>
      <trkpt lat="39.874748261283" lon="3.083992113387">
        <ele>0.8</ele>
        <time>2014-05-03T16:50:18Z</time>
      </trkpt>
      <trkpt lat="39.875216390398" lon="3.083718528171">
        <ele>0.8</ele>
        <time>2014-05-03T16:50:25Z</time>
      </trkpt>
      <trkpt lat="39.875557449909" lon="3.083523062263">
        <ele>0.8</ele>
        <time>2014-05-03T16:50:30Z</time>
      </trkpt>
      <trkpt lat="39.875768506151" lon="3.083410912441">
        <ele>0.8</ele>
        <time>2014-05-03T16:50:33Z</time>
      </trkpt>
      <trkpt lat="39.875987441379" lon="3.083290799814">
        <ele>0.8</ele>
        <time>2014-05-03T16:50:36Z</time>
      </trkpt>
      <trkpt lat="39.876276449291" lon="3.083133806827">
        <ele>0.8</ele>
        <time>2014-05-03T16:50:40Z</time>
      </trkpt>
      <trkpt lat="39.876636619534" lon="3.082934736702">
        <ele>0.8</ele>
        <time>2014-05-03T16:50:45Z</time>
      </trkpt>
      <trkpt lat="39.876707781865" lon="3.082896682876">
        <ele>0.8</ele>
        <time>2014-05-03T16:50:46Z</time>
      </trkpt>
      <trkpt lat="39.876781207309" lon="3.082859299602">
        <ele>0.8</ele>
        <time>2014-05-03T16:50:47Z</time>
      </trkpt>
      <trkpt lat="39.876853794563" lon="3.082821329595">
        <ele>0.8</ele>
        <time>2014-05-03T16:50:48Z</time>
      </trkpt>
      <trkpt lat="39.876925040713" lon="3.082786712348">
        <ele>0.8</ele>
        <time>2014-05-03T16:50:49Z</time>
      </trkpt>
      <trkpt lat="39.876996454501" lon="3.082751676006">
        <ele>0.8</ele>
        <time>2014-05-03T16:50:50Z</time>
      </trkpt>
      <trkpt lat="39.877142467199" lon="3.082678921114">
        <ele>0.8</ele>
        <time>2014-05-03T16:50:52Z</time>
      </trkpt>
      <trkpt lat="39.877282696386" lon="3.082605830946">
        <ele>0.8</ele>
        <time>2014-05-03T16:50:54Z</time>
      </trkpt>
      <trkpt lat="39.877494171723" lon="3.082501811567">
        <ele>0.8</ele>
        <time>2014-05-03T16:50:57Z</time>
      </trkpt>
      <trkpt lat="39.878065733484" lon="3.082195536941">
        <ele>0.8</ele>
        <time>2014-05-03T16:51:05Z</time>
      </trkpt>
      <trkpt lat="39.878139913299" lon="3.082159830047">
        <ele>0.8</ele>
        <time>2014-05-03T16:51:06Z</time>
      </trkpt>
      <trkpt lat="39.87856730638" lon="3.081945085769">
        <ele>0.8</ele>
        <time>2014-05-03T16:51:12Z</time>
      </trkpt>
      <trkpt lat="39.878855895197" lon="3.081802174374">
        <ele>0.8</ele>
        <time>2014-05-03T16:51:16Z</time>
      </trkpt>
      <trkpt lat="39.87899981242" lon="3.081731514957">
        <ele>0.8</ele>
        <time>2014-05-03T16:51:18Z</time>
      </trkpt>
      <trkpt lat="39.879444220758" lon="3.081544095673">
        <ele>0.8</ele>
        <time>2014-05-03T16:51:24Z</time>
      </trkpt>
      <trkpt lat="39.879965910214" lon="3.081352988353">
        <ele>0.8</ele>
        <time>2014-05-03T16:51:31Z</time>
      </trkpt>
      <trkpt lat="39.880110497989" lon="3.081300601478">
        <ele>0.8</ele>
        <time>2014-05-03T16:51:33Z</time>
      </trkpt>
      <trkpt lat="39.880257348877" lon="3.081273108846">
        <ele>0.4</ele>
        <time>2014-05-03T16:51:35Z</time>
      </trkpt>
      <trkpt lat="39.88032918176" lon="3.081248549879">
        <ele>0</ele>
        <time>2014-05-03T16:51:36Z</time>
      </trkpt>
      <trkpt lat="39.880403193937" lon="3.081218877953">
        <ele>0</ele>
        <time>2014-05-03T16:51:37Z</time>
      </trkpt>
      <trkpt lat="39.88047418863" lon="3.081193732253">
        <ele>0</ele>
        <time>2014-05-03T16:51:38Z</time>
      </trkpt>
      <trkpt lat="39.880544093676" lon="3.081167077811">
        <ele>0</ele>
        <time>2014-05-03T16:51:39Z</time>
      </trkpt>
      <trkpt lat="39.880678204076" lon="3.081090131969">
        <ele>0</ele>
        <time>2014-05-03T16:51:41Z</time>
      </trkpt>
      <trkpt lat="39.880819858186" lon="3.081030201384">
        <ele>0</ele>
        <time>2014-05-03T16:51:43Z</time>
      </trkpt>
      <trkpt lat="39.881040888889" lon="3.080955602474">
        <ele>0</ele>
        <time>2014-05-03T16:51:46Z</time>
      </trkpt>
      <trkpt lat="39.881344984221" lon="3.080850661086">
        <ele>0</ele>
        <time>2014-05-03T16:51:50Z</time>
      </trkpt>
      <trkpt lat="39.881425785737" lon="3.080819983332">
        <ele>0</ele>
        <time>2014-05-03T16:51:51Z</time>
      </trkpt>
      <trkpt lat="39.881503402131" lon="3.080793412709">
        <ele>0.2</ele>
        <time>2014-05-03T16:51:52Z</time>
      </trkpt>
      <trkpt lat="39.881575486471" lon="3.080764914249">
        <ele>0.8</ele>
        <time>2014-05-03T16:51:53Z</time>
      </trkpt>
      <trkpt lat="39.881652264675" lon="3.080736583427">
        <ele>1.2</ele>
        <time>2014-05-03T16:51:54Z</time>
      </trkpt>
      <trkpt lat="39.881802635961" lon="3.080680508516">
        <ele>1.2</ele>
        <time>2014-05-03T16:51:56Z</time>
      </trkpt>
      <trkpt lat="39.881952001419" lon="3.080626445261">
        <ele>1.2</ele>
        <time>2014-05-03T16:51:58Z</time>
      </trkpt>
      <trkpt lat="39.882331952946" lon="3.080489736472">
        <ele>1.6</ele>
        <time>2014-05-03T16:52:03Z</time>
      </trkpt>
      <trkpt lat="39.882408814969" lon="3.080458723442">
        <ele>2</ele>
        <time>2014-05-03T16:52:04Z</time>
      </trkpt>
      <trkpt lat="39.882483246241" lon="3.080429219154">
        <ele>2.6</ele>
        <time>2014-05-03T16:52:05Z</time>
      </trkpt>
      <trkpt lat="39.882557845151" lon="3.080395859192">
        <ele>3</ele>
        <time>2014-05-03T16:52:06Z</time>
      </trkpt>
      <trkpt lat="39.882635210088" lon="3.080368031284">
        <ele>3.4</ele>
        <time>2014-05-03T16:52:07Z</time>
      </trkpt>
      <trkpt lat="39.882711736835" lon="3.080344478145">
        <ele>3.4</ele>
        <time>2014-05-03T16:52:08Z</time>
      </trkpt>
      <trkpt lat="39.883075846571" lon="3.080195615601">
        <ele>3.4</ele>
        <time>2014-05-03T16:52:13Z</time>
      </trkpt>
      <trkpt lat="39.883136782984" lon="3.080152281178">
        <ele>3.4</ele>
        <time>2014-05-03T16:52:14Z</time>
      </trkpt>
      <trkpt lat="39.883316239463" lon="3.07999537201">
        <ele>2.8</ele>
        <time>2014-05-03T16:52:17Z</time>
      </trkpt>
      <trkpt lat="39.883364519207" lon="3.079933094493">
        <ele>2.4</ele>
        <time>2014-05-03T16:52:18Z</time>
      </trkpt>
      <trkpt lat="39.883413972417" lon="3.079869811148">
        <ele>2</ele>
        <time>2014-05-03T16:52:19Z</time>
      </trkpt>
      <trkpt lat="39.883468287129" lon="3.07981516116">
        <ele>1.4</ele>
        <time>2014-05-03T16:52:20Z</time>
      </trkpt>
      <trkpt lat="39.883526206058" lon="3.079768306339">
        <ele>1</ele>
        <time>2014-05-03T16:52:21Z</time>
      </trkpt>
      <trkpt lat="39.883593177439" lon="3.079724301364">
        <ele>1</ele>
        <time>2014-05-03T16:52:22Z</time>
      </trkpt>
      <trkpt lat="39.88373558592" lon="3.079652049386">
        <ele>1</ele>
        <time>2014-05-03T16:52:24Z</time>
      </trkpt>
      <trkpt lat="39.883808676088" lon="3.079629753532">
        <ele>1</ele>
        <time>2014-05-03T16:52:25Z</time>
      </trkpt>
      <trkpt lat="39.883879922238" lon="3.079631178455">
        <ele>1</ele>
        <time>2014-05-03T16:52:26Z</time>
      </trkpt>
      <trkpt lat="39.883951084569" lon="3.079651295015">
        <ele>1</ele>
        <time>2014-05-03T16:52:27Z</time>
      </trkpt>
      <trkpt lat="39.884020905796" lon="3.079668394091">
        <ele>1</ele>
        <time>2014-05-03T16:52:28Z</time>
      </trkpt>
      <trkpt lat="39.884174043109" lon="3.079687001909">
        <ele>1</ele>
        <time>2014-05-03T16:52:30Z</time>
      </trkpt>
      <trkpt lat="39.884243780517" lon="3.079695635266">
        <ele>1</ele>
        <time>2014-05-03T16:52:31Z</time>
      </trkpt>
      <trkpt lat="39.884315529581" lon="3.079694964714">
        <ele>1</ele>
        <time>2014-05-03T16:52:32Z</time>
      </trkpt>
      <trkpt lat="39.884386775731" lon="3.079690689945">
        <ele>1</ele>
        <time>2014-05-03T16:52:33Z</time>
      </trkpt>
      <trkpt lat="39.884455339673" lon="3.079675770163">
        <ele>1</ele>
        <time>2014-05-03T16:52:34Z</time>
      </trkpt>
      <trkpt lat="39.8845251609" lon="3.07966009601">
        <ele>1</ele>
        <time>2014-05-03T16:52:35Z</time>
      </trkpt>
      <trkpt lat="39.884592467557" lon="3.079639560355">
        <ele>1</ele>
        <time>2014-05-03T16:52:36Z</time>
      </trkpt>
      <trkpt lat="39.884663546069" lon="3.079613576465">
        <ele>1</ele>
        <time>2014-05-03T16:52:37Z</time>
      </trkpt>
      <trkpt lat="39.884734792219" lon="3.079583233987">
        <ele>1</ele>
        <time>2014-05-03T16:52:38Z</time>
      </trkpt>
      <trkpt lat="39.884898826002" lon="3.079517855167">
        <ele>1</ele>
        <time>2014-05-03T16:52:40Z</time>
      </trkpt>
      <trkpt lat="39.884983399373" lon="3.079484746662">
        <ele>0.6</ele>
        <time>2014-05-03T16:52:41Z</time>
      </trkpt>
      <trkpt lat="39.885070738771" lon="3.079450297053">
        <ele>0.2</ele>
        <time>2014-05-03T16:52:42Z</time>
      </trkpt>
      <trkpt lat="39.885158497264" lon="3.079412494684">
        <ele>0</ele>
        <time>2014-05-03T16:52:43Z</time>
      </trkpt>
      <trkpt lat="39.885251536354" lon="3.079377039247">
        <ele>0</ele>
        <time>2014-05-03T16:52:44Z</time>
      </trkpt>
      <trkpt lat="39.885344491625" lon="3.079346361493">
        <ele>0</ele>
        <time>2014-05-03T16:52:45Z</time>
      </trkpt>
      <trkpt lat="39.885439877647" lon="3.079310403142">
        <ele>0.2</ele>
        <time>2014-05-03T16:52:46Z</time>
      </trkpt>
      <trkpt lat="39.885536269497" lon="3.079272600773">
        <ele>0.6</ele>
        <time>2014-05-03T16:52:47Z</time>
      </trkpt>
      <trkpt lat="39.885632326071" lon="3.079235049861">
        <ele>1</ele>
        <time>2014-05-03T16:52:48Z</time>
      </trkpt>
      <trkpt lat="39.885723353505" lon="3.079201857537">
        <ele>1.4</ele>
        <time>2014-05-03T16:52:49Z</time>
      </trkpt>
      <trkpt lat="39.886018061109" lon="3.079097419063">
        <ele>1.4</ele>
        <time>2014-05-03T16:52:52Z</time>
      </trkpt>
      <trkpt lat="39.886586773024" lon="3.078887787744">
        <ele>1.4</ele>
        <time>2014-05-03T16:52:58Z</time>
      </trkpt>
      <trkpt lat="39.886769163168" lon="3.078808411151">
        <ele>1.4</ele>
        <time>2014-05-03T16:53:00Z</time>
      </trkpt>
      <trkpt lat="39.887339719101" lon="3.078593666873">
        <ele>1.4</ele>
        <time>2014-05-03T16:53:06Z</time>
      </trkpt>
      <trkpt lat="39.887517331562" lon="3.078524935293">
        <ele>1</ele>
        <time>2014-05-03T16:53:08Z</time>
      </trkpt>
      <trkpt lat="39.887610119195" lon="3.078492245883">
        <ele>0.4</ele>
        <time>2014-05-03T16:53:09Z</time>
      </trkpt>
      <trkpt lat="39.887696955679" lon="3.078452767134">
        <ele>0</ele>
        <time>2014-05-03T16:53:10Z</time>
      </trkpt>
      <trkpt lat="39.887779349756" lon="3.078424017217">
        <ele>0</ele>
        <time>2014-05-03T16:53:11Z</time>
      </trkpt>
      <trkpt lat="39.887864006946" lon="3.078394093834">
        <ele>0</ele>
        <time>2014-05-03T16:53:12Z</time>
      </trkpt>
      <trkpt lat="39.887952687448" lon="3.078370373057">
        <ele>0</ele>
        <time>2014-05-03T16:53:13Z</time>
      </trkpt>
      <trkpt lat="39.88843280268" lon="3.078284123306">
        <ele>0</ele>
        <time>2014-05-03T16:53:18Z</time>
      </trkpt>
      <trkpt lat="39.888524835942" lon="3.078272807741">
        <ele>0</ele>
        <time>2014-05-03T16:53:19Z</time>
      </trkpt>
      <trkpt lat="39.888617455937" lon="3.078257217407">
        <ele>0</ele>
        <time>2014-05-03T16:53:20Z</time>
      </trkpt>
      <trkpt lat="39.888713512511" lon="3.07824774586">
        <ele>0</ele>
        <time>2014-05-03T16:53:21Z</time>
      </trkpt>
      <trkpt lat="39.888917695595" lon="3.078234837734">
        <ele>0</ele>
        <time>2014-05-03T16:53:23Z</time>
      </trkpt>
      <trkpt lat="39.889315668207" lon="3.078226455834">
        <ele>0</ele>
        <time>2014-05-03T16:53:27Z</time>
      </trkpt>
      <trkpt lat="39.889506104975" lon="3.078233915725">
        <ele>0</ele>
        <time>2014-05-03T16:53:29Z</time>
      </trkpt>
      <trkpt lat="39.889802321321" lon="3.078231652612">
        <ele>0</ele>
        <time>2014-05-03T16:53:32Z</time>
      </trkpt>
      <trkpt lat="39.88990214975" lon="3.078237100847">
        <ele>0</ele>
        <time>2014-05-03T16:53:33Z</time>
      </trkpt>
      <trkpt lat="39.890006672043" lon="3.078242213806">
        <ele>0</ele>
        <time>2014-05-03T16:53:34Z</time>
      </trkpt>
      <trkpt lat="39.890109517956" lon="3.078241459435">
        <ele>0</ele>
        <time>2014-05-03T16:53:35Z</time>
      </trkpt>
      <trkpt lat="39.890210771308" lon="3.078238441951">
        <ele>0</ele>
        <time>2014-05-03T16:53:36Z</time>
      </trkpt>
      <trkpt lat="39.890302134018" lon="3.078232909897">
        <ele>0</ele>
        <time>2014-05-03T16:53:37Z</time>
      </trkpt>
      <trkpt lat="39.890499611582" lon="3.078231149698">
        <ele>0</ele>
        <time>2014-05-03T16:53:39Z</time>
      </trkpt>
      <trkpt lat="39.890907055741" lon="3.078239447779">
        <ele>0</ele>
        <time>2014-05-03T16:53:43Z</time>
      </trkpt>
      <trkpt lat="39.89136814406" lon="3.07822930568">
        <ele>0</ele>
        <time>2014-05-03T16:53:48Z</time>
      </trkpt>
      <trkpt lat="39.89152991473" lon="3.078236178838">
        <ele>0</ele>
        <time>2014-05-03T16:53:50Z</time>
      </trkpt>
      <trkpt lat="39.891604597459" lon="3.078237939037">
        <ele>0</ele>
        <time>2014-05-03T16:53:51Z</time>
      </trkpt>
      <trkpt lat="39.891677017075" lon="3.078238777227">
        <ele>0</ele>
        <time>2014-05-03T16:53:52Z</time>
      </trkpt>
      <trkpt lat="39.891747089759" lon="3.078243219634">
        <ele>0</ele>
        <time>2014-05-03T16:53:53Z</time>
      </trkpt>
      <trkpt lat="39.891817581538" lon="3.078246656213">
        <ele>0</ele>
        <time>2014-05-03T16:53:54Z</time>
      </trkpt>
      <trkpt lat="39.891889917335" lon="3.078245147471">
        <ele>0</ele>
        <time>2014-05-03T16:53:55Z</time>
      </trkpt>
      <trkpt lat="39.89196242077" lon="3.078243638729">
        <ele>0.4</ele>
        <time>2014-05-03T16:53:56Z</time>
      </trkpt>
      <trkpt lat="39.892030481798" lon="3.078241291797">
        <ele>0.4</ele>
        <time>2014-05-03T16:53:57Z</time>
      </trkpt>
      <trkpt lat="39.892152606081" lon="3.078243303453">
        <ele>0.4</ele>
        <time>2014-05-03T16:53:59Z</time>
      </trkpt>
      <trkpt lat="39.892205831146" lon="3.078252355905">
        <ele>0.4</ele>
        <time>2014-05-03T16:54:00Z</time>
      </trkpt>
      <trkpt lat="39.892332314017" lon="3.078251266258">
        <ele>0.4</ele>
        <time>2014-05-03T16:54:02Z</time>
      </trkpt>
      <trkpt lat="39.892573042185" lon="3.078260151072">
        <ele>0.4</ele>
        <time>2014-05-03T16:54:06Z</time>
      </trkpt>
      <trkpt lat="39.892633224227" lon="3.078263000918">
        <ele>0.4</ele>
        <time>2014-05-03T16:54:07Z</time>
      </trkpt>
      <trkpt lat="39.892690640242" lon="3.078260486348">
        <ele>0.4</ele>
        <time>2014-05-03T16:54:08Z</time>
      </trkpt>
      <trkpt lat="39.892749397361" lon="3.078261408357">
        <ele>0.4</ele>
        <time>2014-05-03T16:54:09Z</time>
      </trkpt>
      <trkpt lat="39.892809663222" lon="3.078258809968">
        <ele>0.4</ele>
        <time>2014-05-03T16:54:10Z</time>
      </trkpt>
      <trkpt lat="39.892865738133" lon="3.078255038113">
        <ele>0.4</ele>
        <time>2014-05-03T16:54:11Z</time>
      </trkpt>
      <trkpt lat="39.892918125008" lon="3.078251350077">
        <ele>0.4</ele>
        <time>2014-05-03T16:54:12Z</time>
      </trkpt>
      <trkpt lat="39.892976127756" lon="3.078255541027">
        <ele>0.4</ele>
        <time>2014-05-03T16:54:13Z</time>
      </trkpt>
      <trkpt lat="39.893093474356" lon="3.078257217407">
        <ele>0.4</ele>
        <time>2014-05-03T16:54:15Z</time>
      </trkpt>
      <trkpt lat="39.893210820956" lon="3.078258809968">
        <ele>0.4</ele>
        <time>2014-05-03T16:54:17Z</time>
      </trkpt>
      <trkpt lat="39.893457835549" lon="3.078256379217">
        <ele>0.4</ele>
        <time>2014-05-03T16:54:21Z</time>
      </trkpt>
      <trkpt lat="39.893645087195" lon="3.078250930982">
        <ele>0.4</ele>
        <time>2014-05-03T16:54:24Z</time>
      </trkpt>
      <trkpt lat="39.893962258291" lon="3.078253780828">
        <ele>0.4</ele>
        <time>2014-05-03T16:54:29Z</time>
      </trkpt>
      <trkpt lat="39.894525019057" lon="3.078263839108">
        <ele>0.4</ele>
        <time>2014-05-03T16:54:38Z</time>
      </trkpt>
      <trkpt lat="39.89459014642" lon="3.078265012574">
        <ele>0.4</ele>
        <time>2014-05-03T16:54:39Z</time>
      </trkpt>
      <trkpt lat="39.894842776886" lon="3.078269957895">
        <ele>0.4</ele>
        <time>2014-05-03T16:54:43Z</time>
      </trkpt>
      <trkpt lat="39.89490782043" lon="3.078272807741">
        <ele>0.4</ele>
        <time>2014-05-03T16:54:44Z</time>
      </trkpt>
      <trkpt lat="39.894971271413" lon="3.078272640103">
        <ele>0</ele>
        <time>2014-05-03T16:54:45Z</time>
      </trkpt>
      <trkpt lat="39.895033129835" lon="3.078273562112">
        <ele>0</ele>
        <time>2014-05-03T16:54:46Z</time>
      </trkpt>
      <trkpt lat="39.895096664637" lon="3.078281022003">
        <ele>0</ele>
        <time>2014-05-03T16:54:47Z</time>
      </trkpt>
      <trkpt lat="39.895159612706" lon="3.078288230437">
        <ele>0</ele>
        <time>2014-05-03T16:54:48Z</time>
      </trkpt>
      <trkpt lat="39.895227422277" lon="3.078297785803">
        <ele>0</ele>
        <time>2014-05-03T16:54:49Z</time>
      </trkpt>
      <trkpt lat="39.89547862782" lon="3.078334833801">
        <ele>0</ele>
        <time>2014-05-03T16:54:53Z</time>
      </trkpt>
      <trkpt lat="39.895538055491" lon="3.078347909565">
        <ele>0</ele>
        <time>2014-05-03T16:54:54Z</time>
      </trkpt>
      <trkpt lat="39.895722876386" lon="3.078399290612">
        <ele>0</ele>
        <time>2014-05-03T16:54:57Z</time>
      </trkpt>
      <trkpt lat="39.895784148075" lon="3.078416724964">
        <ele>0</ele>
        <time>2014-05-03T16:54:58Z</time>
      </trkpt>
      <trkpt lat="39.895839133339" lon="3.078428711081">
        <ele>0</ele>
        <time>2014-05-03T16:54:59Z</time>
      </trkpt>
      <trkpt lat="39.895897974277" lon="3.078444469053">
        <ele>0</ele>
        <time>2014-05-03T16:55:00Z</time>
      </trkpt>
      <trkpt lat="39.89608547738" lon="3.078493670806">
        <ele>0</ele>
        <time>2014-05-03T16:55:03Z</time>
      </trkpt>
      <trkpt lat="39.896147587259" lon="3.078509680235">
        <ele>0</ele>
        <time>2014-05-03T16:55:04Z</time>
      </trkpt>
      <trkpt lat="39.896215061554" lon="3.078526611673">
        <ele>0</ele>
        <time>2014-05-03T16:55:05Z</time>
      </trkpt>
      <trkpt lat="39.896277925804" lon="3.078543543111">
        <ele>0</ele>
        <time>2014-05-03T16:55:06Z</time>
      </trkpt>
      <trkpt lat="39.896678245348" lon="3.078644628825">
        <ele>0</ele>
        <time>2014-05-03T16:55:12Z</time>
      </trkpt>
      <trkpt lat="39.896744210901" lon="3.078660554435">
        <ele>0</ele>
        <time>2014-05-03T16:55:13Z</time>
      </trkpt>
      <trkpt lat="39.896807745703" lon="3.078673211104">
        <ele>0</ele>
        <time>2014-05-03T16:55:14Z</time>
      </trkpt>
      <trkpt lat="39.896952584935" lon="3.078720149744">
        <ele>0</ele>
        <time>2014-05-03T16:55:16Z</time>
      </trkpt>
      <trkpt lat="39.897024836913" lon="3.07873389606">
        <ele>0</ele>
        <time>2014-05-03T16:55:17Z</time>
      </trkpt>
      <trkpt lat="39.897092897941" lon="3.078754599353">
        <ele>0</ele>
        <time>2014-05-03T16:55:18Z</time>
      </trkpt>
      <trkpt lat="39.897156265105" lon="3.078769770592">
        <ele>0</ele>
        <time>2014-05-03T16:55:19Z</time>
      </trkpt>
      <trkpt lat="39.897220051364" lon="3.07877999651">
        <ele>0</ele>
        <time>2014-05-03T16:55:20Z</time>
      </trkpt>
      <trkpt lat="39.89728995641" lon="3.078794664835">
        <ele>0</ele>
        <time>2014-05-03T16:55:21Z</time>
      </trkpt>
      <trkpt lat="39.897356760153" lon="3.078809668436">
        <ele>0</ele>
        <time>2014-05-03T16:55:22Z</time>
      </trkpt>
      <trkpt lat="39.897423312439" lon="3.078839005086">
        <ele>0</ele>
        <time>2014-05-03T16:55:23Z</time>
      </trkpt>
      <trkpt lat="39.897490870553" lon="3.078852248488">
        <ele>0</ele>
        <time>2014-05-03T16:55:24Z</time>
      </trkpt>
      <trkpt lat="39.897682564606" lon="3.078917711127">
        <ele>0</ele>
        <time>2014-05-03T16:55:27Z</time>
      </trkpt>
      <trkpt lat="39.897747859607" lon="3.078931457443">
        <ele>0</ele>
        <time>2014-05-03T16:55:28Z</time>
      </trkpt>
      <trkpt lat="39.897812064961" lon="3.07894931089">
        <ele>0.2</ele>
        <time>2014-05-03T16:55:29Z</time>
      </trkpt>
      <trkpt lat="39.897870235347" lon="3.07896188374">
        <ele>0.6</ele>
        <time>2014-05-03T16:55:30Z</time>
      </trkpt>
      <trkpt lat="39.897936117081" lon="3.078971690563">
        <ele>0.6</ele>
        <time>2014-05-03T16:55:31Z</time>
      </trkpt>
      <trkpt lat="39.898144323477" lon="3.079027765474">
        <ele>0.6</ele>
        <time>2014-05-03T16:55:34Z</time>
      </trkpt>
      <trkpt lat="39.898208445012" lon="3.079048133491">
        <ele>0.6</ele>
        <time>2014-05-03T16:55:35Z</time>
      </trkpt>
      <trkpt lat="39.898272398909" lon="3.079063220911">
        <ele>0.6</ele>
        <time>2014-05-03T16:55:36Z</time>
      </trkpt>
      <trkpt lat="39.898335514616" lon="3.079079146521">
        <ele>0.6</ele>
        <time>2014-05-03T16:55:37Z</time>
      </trkpt>
      <trkpt lat="39.898651428427" lon="3.079159445123">
        <ele>0.6</ele>
        <time>2014-05-03T16:55:42Z</time>
      </trkpt>
      <trkpt lat="39.898709514994" lon="3.079179310226">
        <ele>0.6</ele>
        <time>2014-05-03T16:55:43Z</time>
      </trkpt>
      <trkpt lat="39.898953512103" lon="3.079224321029">
        <ele>0.6</ele>
        <time>2014-05-03T16:55:47Z</time>
      </trkpt>
      <trkpt lat="39.899010592842" lon="3.079240749553">
        <ele>0.6</ele>
        <time>2014-05-03T16:55:48Z</time>
      </trkpt>
      <trkpt lat="39.899066835391" lon="3.079256842801">
        <ele>0.6</ele>
        <time>2014-05-03T16:55:49Z</time>
      </trkpt>
      <trkpt lat="39.899129532003" lon="3.079273606601">
        <ele>0.6</ele>
        <time>2014-05-03T16:55:50Z</time>
      </trkpt>
      <trkpt lat="39.899192563891" lon="3.079283413424">
        <ele>0.6</ele>
        <time>2014-05-03T16:55:51Z</time>
      </trkpt>
      <trkpt lat="39.899311251595" lon="3.079297914111">
        <ele>0.6</ele>
        <time>2014-05-03T16:55:53Z</time>
      </trkpt>
      <trkpt lat="39.899428765833" lon="3.079305793097">
        <ele>0.6</ele>
        <time>2014-05-03T16:55:55Z</time>
      </trkpt>
      <trkpt lat="39.899591793788" lon="3.07933152553">
        <ele>0.6</ele>
        <time>2014-05-03T16:55:58Z</time>
      </trkpt>
      <trkpt lat="39.899632529822" lon="3.079292465876">
        <ele>0.6</ele>
        <time>2014-05-03T16:55:59Z</time>
      </trkpt>
      <trkpt lat="39.899650634726" lon="3.07915550563">
        <ele>0.6</ele>
        <time>2014-05-03T16:56:01Z</time>
      </trkpt>
      <trkpt lat="39.899678630272" lon="3.0789568546">
        <ele>0.6</ele>
        <time>2014-05-03T16:56:05Z</time>
      </trkpt>
      <trkpt lat="39.899672260028" lon="3.078889380305">
        <ele>0.6</ele>
        <time>2014-05-03T16:56:06Z</time>
      </trkpt>
      <trkpt lat="39.899689945837" lon="3.078746971824">
        <ele>0.6</ele>
        <time>2014-05-03T16:56:08Z</time>
      </trkpt>
      <trkpt lat="39.899702853963" lon="3.078672540552">
        <ele>0.2</ele>
        <time>2014-05-03T16:56:09Z</time>
      </trkpt>
      <trkpt lat="39.899708888931" lon="3.078605736809">
        <ele>0</ele>
        <time>2014-05-03T16:56:10Z</time>
      </trkpt>
      <trkpt lat="39.899712241691" lon="3.078537340505">
        <ele>0</ele>
        <time>2014-05-03T16:56:11Z</time>
      </trkpt>
      <trkpt lat="39.899717270831" lon="3.078466429631">
        <ele>0</ele>
        <time>2014-05-03T16:56:12Z</time>
      </trkpt>
      <trkpt lat="39.899728670215" lon="3.078394932024">
        <ele>0</ele>
        <time>2014-05-03T16:56:13Z</time>
      </trkpt>
      <trkpt lat="39.899732525889" lon="3.078321590399">
        <ele>0</ele>
        <time>2014-05-03T16:56:14Z</time>
      </trkpt>
      <trkpt lat="39.899743003264" lon="3.078163423946">
        <ele>0</ele>
        <time>2014-05-03T16:56:16Z</time>
      </trkpt>
      <trkpt lat="39.899747948585" lon="3.078087232475">
        <ele>0</ele>
        <time>2014-05-03T16:56:17Z</time>
      </trkpt>
      <trkpt lat="39.899754151191" lon="3.078012130651">
        <ele>0</ele>
        <time>2014-05-03T16:56:18Z</time>
      </trkpt>
      <trkpt lat="39.899755743752" lon="3.077934849533">
        <ele>0</ele>
        <time>2014-05-03T16:56:19Z</time>
      </trkpt>
      <trkpt lat="39.899758006865" lon="3.077855137664">
        <ele>0</ele>
        <time>2014-05-03T16:56:20Z</time>
      </trkpt>
      <trkpt lat="39.899763036005" lon="3.077777018356">
        <ele>0</ele>
        <time>2014-05-03T16:56:21Z</time>
      </trkpt>
      <trkpt lat="39.899775608855" lon="3.077697725582">
        <ele>0.4</ele>
        <time>2014-05-03T16:56:22Z</time>
      </trkpt>
      <trkpt lat="39.899784493669" lon="3.077613319849">
        <ele>0.8</ele>
        <time>2014-05-03T16:56:23Z</time>
      </trkpt>
      <trkpt lat="39.899789103714" lon="3.077530506677">
        <ele>0.8</ele>
        <time>2014-05-03T16:56:24Z</time>
      </trkpt>
      <trkpt lat="39.899812153939" lon="3.077219705825">
        <ele>0.8</ele>
        <time>2014-05-03T16:56:28Z</time>
      </trkpt>
      <trkpt lat="39.899814668509" lon="3.077144017268">
        <ele>0.8</ele>
        <time>2014-05-03T16:56:29Z</time>
      </trkpt>
      <trkpt lat="39.899855488362" lon="3.07690831824">
        <ele>0.8</ele>
        <time>2014-05-03T16:56:32Z</time>
      </trkpt>
      <trkpt lat="39.899852889973" lon="3.076823912507">
        <ele>0.8</ele>
        <time>2014-05-03T16:56:33Z</time>
      </trkpt>
      <trkpt lat="39.89985481781" lon="3.076747301941">
        <ele>0.8</ele>
        <time>2014-05-03T16:56:34Z</time>
      </trkpt>
      <trkpt lat="39.89987074342" lon="3.076609587324">
        <ele>0.8</ele>
        <time>2014-05-03T16:56:36Z</time>
      </trkpt>
      <trkpt lat="39.899882897175" lon="3.076493498009">
        <ele>0.8</ele>
        <time>2014-05-03T16:56:38Z</time>
      </trkpt>
      <trkpt lat="39.899893542188" lon="3.076436668727">
        <ele>0.8</ele>
        <time>2014-05-03T16:56:39Z</time>
      </trkpt>
      <trkpt lat="39.899891865808" lon="3.076375397038">
        <ele>0.8</ele>
        <time>2014-05-03T16:56:40Z</time>
      </trkpt>
      <trkpt lat="39.899894631835" lon="3.07625369185">
        <ele>0.8</ele>
        <time>2014-05-03T16:56:42Z</time>
      </trkpt>
      <trkpt lat="39.899914245481" lon="3.076206082658">
        <ele>0.8</ele>
        <time>2014-05-03T16:56:43Z</time>
      </trkpt>
      <trkpt lat="39.899994460264" lon="3.076190324686">
        <ele>0.8</ele>
        <time>2014-05-03T16:56:45Z</time>
      </trkpt>
      <trkpt lat="39.900125636999" lon="3.076203987183">
        <ele>0.8</ele>
        <time>2014-05-03T16:56:48Z</time>
      </trkpt>
      <trkpt lat="39.900174419657" lon="3.0762075914">
        <ele>0.8</ele>
        <time>2014-05-03T16:56:49Z</time>
      </trkpt>
      <trkpt lat="39.900348344082" lon="3.076225109571">
        <ele>0.8</ele>
        <time>2014-05-03T16:56:53Z</time>
      </trkpt>
      <trkpt lat="39.900385140623" lon="3.076231563634">
        <ele>0.8</ele>
        <time>2014-05-03T16:56:54Z</time>
      </trkpt>
      <trkpt lat="39.90049519497" lon="3.076232150367">
        <ele>0.8</ele>
        <time>2014-05-03T16:56:57Z</time>
      </trkpt>
      <trkpt lat="39.900528554932" lon="3.076240699905">
        <ele>0.8</ele>
        <time>2014-05-03T16:56:58Z</time>
      </trkpt>
    </trkseg>
  </trk>
</gpx>